<?xml version='1.0' encoding='UTF-8'?><gpx version="1.1" creator="JPX - https://github.com/jenetics/jpx" xmlns="http://www.topografix.com/GPX/1/1"><trk><trkseg><trkpt lat="45.5322205" lon="10.2385536"><ele>133.0</ele><time>2026-03-24T06:50:54.462Z</time></trkpt><trkpt lat="45.5322789" lon="10.2385156"><ele>133.0</ele><time>2026-03-24T06:50:57.799Z</time></trkpt><trkpt lat="45.5323003" lon="10.2384213"><ele>133.0</ele><time>2026-03-24T06:51:03.554Z</time></trkpt><trkpt lat="45.5323142" lon="10.2383258"><ele>133.0</ele><time>2026-03-24T06:51:13.576Z</time></trkpt><trkpt lat="45.5322809" lon="10.2382405"><ele>133.0</ele><time>2026-03-24T06:51:21.093Z</time></trkpt><trkpt lat="45.532302" lon="10.2383277"><ele>133.0</ele><time>2026-03-24T06:51:48.071Z</time></trkpt><trkpt lat="45.5322856" lon="10.2385033"><ele>133.0</ele><time>2026-03-24T06:52:52.363Z</time></trkpt><trkpt lat="45.5322158" lon="10.2386197"><ele>133.0</ele><time>2026-03-24T06:52:57.9Z</time></trkpt><trkpt lat="45.5322932" lon="10.2384472"><ele>133.0</ele><time>2026-03-24T06:53:19.925Z</time></trkpt><trkpt lat="45.5323518" lon="10.2383855"><ele>133.0</ele><time>2026-03-24T06:53:25.464Z</time></trkpt><trkpt lat="45.531808" lon="10.2382593"><ele>133.0</ele><time>2026-03-24T06:53:52.542Z</time></trkpt><trkpt lat="45.5317683" lon="10.2381863"><ele>133.0</ele><time>2026-03-24T06:53:53.544Z</time></trkpt><trkpt lat="45.5319783" lon="10.2382051"><ele>133.0</ele><time>2026-03-24T06:53:55.539Z</time></trkpt><trkpt lat="45.5320752" lon="10.2382758"><ele>133.0</ele><time>2026-03-24T06:53:57.535Z</time></trkpt><trkpt lat="45.5321411" lon="10.2382797"><ele>133.0</ele><time>2026-03-24T06:54:08.554Z</time></trkpt><trkpt lat="45.5322028" lon="10.2383129"><ele>133.0</ele><time>2026-03-24T06:54:14.559Z</time></trkpt><trkpt lat="45.5322716" lon="10.2383481"><ele>133.0</ele><time>2026-03-24T06:55:31.548Z</time></trkpt><trkpt lat="45.5322225" lon="10.2384165"><ele>133.0</ele><time>2026-03-24T06:56:10.552Z</time></trkpt><trkpt lat="45.5321585" lon="10.2384288"><ele>133.0</ele><time>2026-03-24T06:56:34.554Z</time></trkpt><trkpt lat="45.5320908" lon="10.2384548"><ele>133.0</ele><time>2026-03-24T06:58:00.571Z</time></trkpt><trkpt lat="45.5320313" lon="10.2385621"><ele>133.0</ele><time>2026-03-24T06:58:02.572Z</time></trkpt><trkpt lat="45.5320021" lon="10.2386441"><ele>133.0</ele><time>2026-03-24T06:58:37.562Z</time></trkpt><trkpt lat="45.5319038" lon="10.2386239"><ele>133.0</ele><time>2026-03-24T06:58:40.581Z</time></trkpt><trkpt lat="45.5318219" lon="10.2386098"><ele>133.0</ele><time>2026-03-24T06:58:42.569Z</time></trkpt><trkpt lat="45.5317138" lon="10.2385664"><ele>133.0</ele><time>2026-03-24T06:58:44.565Z</time></trkpt><trkpt lat="45.5316379" lon="10.2385163"><ele>133.0</ele><time>2026-03-24T06:58:45.56Z</time></trkpt><trkpt lat="45.5315647" lon="10.2384351"><ele>133.0</ele><time>2026-03-24T06:58:46.555Z</time></trkpt><trkpt lat="45.5315064" lon="10.2383494"><ele>133.0</ele><time>2026-03-24T06:58:47.562Z</time></trkpt><trkpt lat="45.5314456" lon="10.2382959"><ele>133.0</ele><time>2026-03-24T06:58:48.564Z</time></trkpt><trkpt lat="45.5313809" lon="10.2382615"><ele>133.0</ele><time>2026-03-24T06:58:49.568Z</time></trkpt><trkpt lat="45.5312864" lon="10.2381751"><ele>133.0</ele><time>2026-03-24T06:58:51.568Z</time></trkpt><trkpt lat="45.5312042" lon="10.2380937"><ele>133.0</ele><time>2026-03-24T06:58:53.564Z</time></trkpt><trkpt lat="45.5311229" lon="10.2380424"><ele>133.0</ele><time>2026-03-24T06:58:55.563Z</time></trkpt><trkpt lat="45.5310477" lon="10.2380152"><ele>133.0</ele><time>2026-03-24T06:59:15.566Z</time></trkpt><trkpt lat="45.5309756" lon="10.2379623"><ele>133.0</ele><time>2026-03-24T06:59:19.568Z</time></trkpt><trkpt lat="45.5309152" lon="10.2379181"><ele>133.0</ele><time>2026-03-24T06:59:21.581Z</time></trkpt><trkpt lat="45.5309127" lon="10.2381107"><ele>133.0</ele><time>2026-03-24T06:59:24.572Z</time></trkpt><trkpt lat="45.530919" lon="10.2382998"><ele>133.0</ele><time>2026-03-24T06:59:25.564Z</time></trkpt><trkpt lat="45.530917" lon="10.2384839"><ele>133.0</ele><time>2026-03-24T06:59:26.568Z</time></trkpt><trkpt lat="45.530903" lon="10.2386587"><ele>133.0</ele><time>2026-03-24T06:59:27.572Z</time></trkpt><trkpt lat="45.5308931" lon="10.2388366"><ele>133.0</ele><time>2026-03-24T06:59:28.569Z</time></trkpt><trkpt lat="45.5308902" lon="10.2390143"><ele>133.0</ele><time>2026-03-24T06:59:29.574Z</time></trkpt><trkpt lat="45.5308925" lon="10.2391784"><ele>133.0</ele><time>2026-03-24T06:59:30.561Z</time></trkpt><trkpt lat="45.5308856" lon="10.2393428"><ele>133.0</ele><time>2026-03-24T06:59:31.566Z</time></trkpt><trkpt lat="45.5308859" lon="10.2395173"><ele>133.0</ele><time>2026-03-24T06:59:32.567Z</time></trkpt><trkpt lat="45.5308748" lon="10.2396981"><ele>133.0</ele><time>2026-03-24T06:59:33.569Z</time></trkpt><trkpt lat="45.5308664" lon="10.2398817"><ele>133.0</ele><time>2026-03-24T06:59:34.567Z</time></trkpt><trkpt lat="45.5308561" lon="10.2400754"><ele>133.0</ele><time>2026-03-24T06:59:35.57Z</time></trkpt><trkpt lat="45.5308493" lon="10.2402597"><ele>133.0</ele><time>2026-03-24T06:59:36.567Z</time></trkpt><trkpt lat="45.5308409" lon="10.2404323"><ele>133.0</ele><time>2026-03-24T06:59:37.571Z</time></trkpt><trkpt lat="45.5308285" lon="10.2405944"><ele>133.0</ele><time>2026-03-24T06:59:38.565Z</time></trkpt><trkpt lat="45.5308166" lon="10.2407457"><ele>133.0</ele><time>2026-03-24T06:59:39.571Z</time></trkpt><trkpt lat="45.5307994" lon="10.2408928"><ele>133.0</ele><time>2026-03-24T06:59:40.578Z</time></trkpt><trkpt lat="45.5307873" lon="10.2410363"><ele>133.0</ele><time>2026-03-24T06:59:41.571Z</time></trkpt><trkpt lat="45.5307755" lon="10.241166"><ele>133.0</ele><time>2026-03-24T06:59:42.567Z</time></trkpt><trkpt lat="45.5307679" lon="10.241281"><ele>133.0</ele><time>2026-03-24T06:59:43.57Z</time></trkpt><trkpt lat="45.5307742" lon="10.2413798"><ele>133.0</ele><time>2026-03-24T06:59:44.568Z</time></trkpt><trkpt lat="45.5307687" lon="10.2415103"><ele>133.0</ele><time>2026-03-24T06:59:46.572Z</time></trkpt><trkpt lat="45.5307424" lon="10.2416334"><ele>133.0</ele><time>2026-03-24T06:59:48.577Z</time></trkpt><trkpt lat="45.5307298" lon="10.2417234"><ele>133.0</ele><time>2026-03-24T06:59:49.579Z</time></trkpt><trkpt lat="45.5307145" lon="10.2418233"><ele>133.0</ele><time>2026-03-24T06:59:50.572Z</time></trkpt><trkpt lat="45.5306904" lon="10.2419316"><ele>133.0</ele><time>2026-03-24T06:59:51.575Z</time></trkpt><trkpt lat="45.5306692" lon="10.2420662"><ele>133.0</ele><time>2026-03-24T06:59:52.569Z</time></trkpt><trkpt lat="45.5306507" lon="10.2422053"><ele>133.0</ele><time>2026-03-24T06:59:53.573Z</time></trkpt><trkpt lat="45.5306345" lon="10.2423565"><ele>133.0</ele><time>2026-03-24T06:59:54.58Z</time></trkpt><trkpt lat="45.5306184" lon="10.2425061"><ele>132.8</ele><time>2026-03-24T06:59:55.576Z</time></trkpt><trkpt lat="45.530602" lon="10.2426608"><ele>132.60000000000002</ele><time>2026-03-24T06:59:56.581Z</time></trkpt><trkpt lat="45.5305852" lon="10.2428055"><ele>132.39999999999998</ele><time>2026-03-24T06:59:57.58Z</time></trkpt><trkpt lat="45.5305667" lon="10.242945"><ele>132.2</ele><time>2026-03-24T06:59:58.593Z</time></trkpt><trkpt lat="45.5305501" lon="10.2430996"><ele>132.0</ele><time>2026-03-24T06:59:59.583Z</time></trkpt><trkpt lat="45.5305341" lon="10.243263"><ele>132.0</ele><time>2026-03-24T07:00:00.58Z</time></trkpt><trkpt lat="45.5305132" lon="10.2434359"><ele>132.0</ele><time>2026-03-24T07:00:01.581Z</time></trkpt><trkpt lat="45.5304956" lon="10.243605"><ele>132.0</ele><time>2026-03-24T07:00:02.577Z</time></trkpt><trkpt lat="45.5304865" lon="10.2437735"><ele>132.0</ele><time>2026-03-24T07:00:03.584Z</time></trkpt><trkpt lat="45.530475" lon="10.2439453"><ele>132.0</ele><time>2026-03-24T07:00:04.579Z</time></trkpt><trkpt lat="45.5304618" lon="10.2441179"><ele>132.0</ele><time>2026-03-24T07:00:05.583Z</time></trkpt><trkpt lat="45.5304479" lon="10.2442876"><ele>132.0</ele><time>2026-03-24T07:00:06.585Z</time></trkpt><trkpt lat="45.5304295" lon="10.2444675"><ele>132.0</ele><time>2026-03-24T07:00:07.574Z</time></trkpt><trkpt lat="45.5304208" lon="10.2446413"><ele>132.0</ele><time>2026-03-24T07:00:08.579Z</time></trkpt><trkpt lat="45.5304086" lon="10.2448192"><ele>132.0</ele><time>2026-03-24T07:00:09.576Z</time></trkpt><trkpt lat="45.5303987" lon="10.2449912"><ele>132.0</ele><time>2026-03-24T07:00:10.576Z</time></trkpt><trkpt lat="45.530387" lon="10.245166"><ele>132.0</ele><time>2026-03-24T07:00:11.579Z</time></trkpt><trkpt lat="45.530374" lon="10.2453367"><ele>131.75</ele><time>2026-03-24T07:00:12.578Z</time></trkpt><trkpt lat="45.5303627" lon="10.2455045"><ele>131.5</ele><time>2026-03-24T07:00:13.577Z</time></trkpt><trkpt lat="45.530353" lon="10.2456688"><ele>131.25</ele><time>2026-03-24T07:00:14.582Z</time></trkpt><trkpt lat="45.5303442" lon="10.2458356"><ele>131.0</ele><time>2026-03-24T07:00:15.578Z</time></trkpt><trkpt lat="45.5303348" lon="10.2460035"><ele>131.0</ele><time>2026-03-24T07:00:16.586Z</time></trkpt><trkpt lat="45.5303247" lon="10.2461771"><ele>131.0</ele><time>2026-03-24T07:00:17.577Z</time></trkpt><trkpt lat="45.5303196" lon="10.2463516"><ele>131.0</ele><time>2026-03-24T07:00:18.576Z</time></trkpt><trkpt lat="45.5303147" lon="10.2465094"><ele>131.0</ele><time>2026-03-24T07:00:19.588Z</time></trkpt><trkpt lat="45.5303059" lon="10.246665"><ele>131.0</ele><time>2026-03-24T07:00:20.582Z</time></trkpt><trkpt lat="45.5303028" lon="10.2468166"><ele>131.0</ele><time>2026-03-24T07:00:21.582Z</time></trkpt><trkpt lat="45.5302984" lon="10.2469795"><ele>131.0</ele><time>2026-03-24T07:00:22.582Z</time></trkpt><trkpt lat="45.5302963" lon="10.247146"><ele>131.0</ele><time>2026-03-24T07:00:23.587Z</time></trkpt><trkpt lat="45.5302945" lon="10.2473262"><ele>131.5</ele><time>2026-03-24T07:00:24.583Z</time></trkpt><trkpt lat="45.5302933" lon="10.2475075"><ele>132.0</ele><time>2026-03-24T07:00:25.589Z</time></trkpt><trkpt lat="45.5303005" lon="10.2476899"><ele>132.5</ele><time>2026-03-24T07:00:26.582Z</time></trkpt><trkpt lat="45.5303038" lon="10.2478772"><ele>133.0</ele><time>2026-03-24T07:00:27.58Z</time></trkpt><trkpt lat="45.5303046" lon="10.2480673"><ele>132.5</ele><time>2026-03-24T07:00:28.582Z</time></trkpt><trkpt lat="45.5303066" lon="10.2482527"><ele>132.0</ele><time>2026-03-24T07:00:29.586Z</time></trkpt><trkpt lat="45.5303102" lon="10.2484384"><ele>131.5</ele><time>2026-03-24T07:00:30.578Z</time></trkpt><trkpt lat="45.530303" lon="10.2486256"><ele>131.0</ele><time>2026-03-24T07:00:31.582Z</time></trkpt><trkpt lat="45.530296" lon="10.2488158"><ele>130.8</ele><time>2026-03-24T07:00:32.589Z</time></trkpt><trkpt lat="45.5302903" lon="10.2490021"><ele>130.6</ele><time>2026-03-24T07:00:33.584Z</time></trkpt><trkpt lat="45.5302883" lon="10.2491725"><ele>130.4</ele><time>2026-03-24T07:00:34.592Z</time></trkpt><trkpt lat="45.5302859" lon="10.2493123"><ele>130.2</ele><time>2026-03-24T07:00:35.58Z</time></trkpt><trkpt lat="45.5302864" lon="10.2494198"><ele>130.0</ele><time>2026-03-24T07:00:36.587Z</time></trkpt><trkpt lat="45.5302843" lon="10.2495135"><ele>130.00000000000003</ele><time>2026-03-24T07:00:37.581Z</time></trkpt><trkpt lat="45.5302841" lon="10.2496034"><ele>130.0</ele><time>2026-03-24T07:00:38.59Z</time></trkpt><trkpt lat="45.5302883" lon="10.2497001"><ele>130.0</ele><time>2026-03-24T07:00:39.595Z</time></trkpt><trkpt lat="45.5302924" lon="10.2498027"><ele>130.0</ele><time>2026-03-24T07:00:40.581Z</time></trkpt><trkpt lat="45.5303012" lon="10.2499075"><ele>130.0</ele><time>2026-03-24T07:00:41.584Z</time></trkpt><trkpt lat="45.5303053" lon="10.2500227"><ele>130.00000000000003</ele><time>2026-03-24T07:00:42.586Z</time></trkpt><trkpt lat="45.5303093" lon="10.2501467"><ele>130.0</ele><time>2026-03-24T07:00:43.578Z</time></trkpt><trkpt lat="45.5303059" lon="10.2502803"><ele>129.75</ele><time>2026-03-24T07:00:44.588Z</time></trkpt><trkpt lat="45.5303016" lon="10.2504368"><ele>129.5</ele><time>2026-03-24T07:00:45.591Z</time></trkpt><trkpt lat="45.5302957" lon="10.2506017"><ele>129.25</ele><time>2026-03-24T07:00:46.59Z</time></trkpt><trkpt lat="45.5302926" lon="10.250779"><ele>129.0</ele><time>2026-03-24T07:00:47.584Z</time></trkpt><trkpt lat="45.5302966" lon="10.2509596"><ele>128.8</ele><time>2026-03-24T07:00:48.583Z</time></trkpt><trkpt lat="45.5303081" lon="10.2511271"><ele>128.60000000000002</ele><time>2026-03-24T07:00:49.578Z</time></trkpt><trkpt lat="45.5303214" lon="10.251278"><ele>128.4</ele><time>2026-03-24T07:00:50.584Z</time></trkpt><trkpt lat="45.530332" lon="10.2514035"><ele>128.20000000000002</ele><time>2026-03-24T07:00:51.585Z</time></trkpt><trkpt lat="45.530341" lon="10.2515138"><ele>128.0</ele><time>2026-03-24T07:00:52.582Z</time></trkpt><trkpt lat="45.5303432" lon="10.2516129"><ele>128.33333333333331</ele><time>2026-03-24T07:00:53.588Z</time></trkpt><trkpt lat="45.5303388" lon="10.2517145"><ele>128.66666666666666</ele><time>2026-03-24T07:00:54.584Z</time></trkpt><trkpt lat="45.5303274" lon="10.2518258"><ele>129.0</ele><time>2026-03-24T07:00:55.577Z</time></trkpt><trkpt lat="45.5303111" lon="10.2519543"><ele>129.33333333333334</ele><time>2026-03-24T07:00:56.583Z</time></trkpt><trkpt lat="45.5302885" lon="10.2520917"><ele>129.66666666666669</ele><time>2026-03-24T07:00:57.582Z</time></trkpt><trkpt lat="45.5302556" lon="10.2522283"><ele>130.0</ele><time>2026-03-24T07:00:58.586Z</time></trkpt><trkpt lat="45.530213" lon="10.2523686"><ele>130.25</ele><time>2026-03-24T07:00:59.576Z</time></trkpt><trkpt lat="45.5301542" lon="10.2525229"><ele>130.5</ele><time>2026-03-24T07:01:00.584Z</time></trkpt><trkpt lat="45.5300765" lon="10.2526874"><ele>130.75</ele><time>2026-03-24T07:01:01.583Z</time></trkpt><trkpt lat="45.5299513" lon="10.2528428"><ele>131.0</ele><time>2026-03-24T07:01:02.578Z</time></trkpt><trkpt lat="45.5298748" lon="10.2530019"><ele>131.83333333333331</ele><time>2026-03-24T07:01:03.588Z</time></trkpt><trkpt lat="45.5298108" lon="10.2531431"><ele>132.66666666666666</ele><time>2026-03-24T07:01:04.578Z</time></trkpt><trkpt lat="45.5297613" lon="10.2532674"><ele>133.5</ele><time>2026-03-24T07:01:05.569Z</time></trkpt><trkpt lat="45.5297183" lon="10.2533503"><ele>134.33333333333334</ele><time>2026-03-24T07:01:06.575Z</time></trkpt><trkpt lat="45.5296996" lon="10.2534428"><ele>135.16666666666669</ele><time>2026-03-24T07:01:07.576Z</time></trkpt><trkpt lat="45.5296643" lon="10.2535191"><ele>136.0</ele><time>2026-03-24T07:01:08.582Z</time></trkpt><trkpt lat="45.5296061" lon="10.2536621"><ele>136.0</ele><time>2026-03-24T07:01:10.585Z</time></trkpt><trkpt lat="45.5295633" lon="10.2537485"><ele>136.0</ele><time>2026-03-24T07:01:11.59Z</time></trkpt><trkpt lat="45.5295135" lon="10.2538414"><ele>136.0</ele><time>2026-03-24T07:01:12.58Z</time></trkpt><trkpt lat="45.5294606" lon="10.2539386"><ele>136.0</ele><time>2026-03-24T07:01:13.578Z</time></trkpt><trkpt lat="45.5294005" lon="10.2540411"><ele>136.0</ele><time>2026-03-24T07:01:14.582Z</time></trkpt><trkpt lat="45.5293371" lon="10.2541633"><ele>136.0</ele><time>2026-03-24T07:01:15.586Z</time></trkpt><trkpt lat="45.5292694" lon="10.2542958"><ele>135.25</ele><time>2026-03-24T07:01:16.584Z</time></trkpt><trkpt lat="45.529196" lon="10.2544288"><ele>134.5</ele><time>2026-03-24T07:01:17.584Z</time></trkpt><trkpt lat="45.5291228" lon="10.254564"><ele>133.75</ele><time>2026-03-24T07:01:18.587Z</time></trkpt><trkpt lat="45.5290541" lon="10.2546897"><ele>133.0</ele><time>2026-03-24T07:01:19.58Z</time></trkpt><trkpt lat="45.528993" lon="10.2548164"><ele>133.6</ele><time>2026-03-24T07:01:20.581Z</time></trkpt><trkpt lat="45.5289273" lon="10.2549314"><ele>134.20000000000002</ele><time>2026-03-24T07:01:21.582Z</time></trkpt><trkpt lat="45.5288628" lon="10.2550499"><ele>134.8</ele><time>2026-03-24T07:01:22.579Z</time></trkpt><trkpt lat="45.5288052" lon="10.2551651"><ele>135.4</ele><time>2026-03-24T07:01:23.585Z</time></trkpt><trkpt lat="45.5287513" lon="10.2552879"><ele>136.0</ele><time>2026-03-24T07:01:24.577Z</time></trkpt><trkpt lat="45.5286916" lon="10.2554169"><ele>136.0</ele><time>2026-03-24T07:01:25.58Z</time></trkpt><trkpt lat="45.5286374" lon="10.2555573"><ele>136.0</ele><time>2026-03-24T07:01:26.576Z</time></trkpt><trkpt lat="45.5285929" lon="10.2557038"><ele>136.0</ele><time>2026-03-24T07:01:27.584Z</time></trkpt><trkpt lat="45.5285542" lon="10.2558312"><ele>136.0</ele><time>2026-03-24T07:01:28.588Z</time></trkpt><trkpt lat="45.5285292" lon="10.2559223"><ele>136.0</ele><time>2026-03-24T07:01:29.58Z</time></trkpt><trkpt lat="45.5285029" lon="10.256053"><ele>135.8</ele><time>2026-03-24T07:01:31.586Z</time></trkpt><trkpt lat="45.5284672" lon="10.2561793"><ele>135.6</ele><time>2026-03-24T07:01:33.583Z</time></trkpt><trkpt lat="45.5284118" lon="10.2563425"><ele>135.4</ele><time>2026-03-24T07:01:35.587Z</time></trkpt><trkpt lat="45.5283787" lon="10.2564377"><ele>135.2</ele><time>2026-03-24T07:01:36.578Z</time></trkpt><trkpt lat="45.5283135" lon="10.2565764"><ele>135.0</ele><time>2026-03-24T07:01:38.578Z</time></trkpt><trkpt lat="45.5282525" lon="10.256678"><ele>135.2</ele><time>2026-03-24T07:01:40.577Z</time></trkpt><trkpt lat="45.5282299" lon="10.2568401"><ele>135.4</ele><time>2026-03-24T07:01:42.578Z</time></trkpt><trkpt lat="45.5282245" lon="10.2569387"><ele>135.6</ele><time>2026-03-24T07:01:43.575Z</time></trkpt><trkpt lat="45.5282184" lon="10.2570532"><ele>135.8</ele><time>2026-03-24T07:01:44.581Z</time></trkpt><trkpt lat="45.5282036" lon="10.2571957"><ele>136.0</ele><time>2026-03-24T07:01:45.58Z</time></trkpt><trkpt lat="45.5281751" lon="10.2573777"><ele>136.0</ele><time>2026-03-24T07:01:46.579Z</time></trkpt><trkpt lat="45.5281472" lon="10.2576037"><ele>136.0</ele><time>2026-03-24T07:01:47.573Z</time></trkpt><trkpt lat="45.5281192" lon="10.2579182"><ele>136.0</ele><time>2026-03-24T07:01:48.58Z</time></trkpt><trkpt lat="45.5280673" lon="10.2581804"><ele>135.5</ele><time>2026-03-24T07:01:49.577Z</time></trkpt><trkpt lat="45.5280019" lon="10.2583997"><ele>135.0</ele><time>2026-03-24T07:01:50.577Z</time></trkpt><trkpt lat="45.5279255" lon="10.2585816"><ele>134.5</ele><time>2026-03-24T07:01:51.58Z</time></trkpt><trkpt lat="45.5278646" lon="10.2587395"><ele>134.0</ele><time>2026-03-24T07:01:52.582Z</time></trkpt><trkpt lat="45.5277998" lon="10.2588738"><ele>133.6</ele><time>2026-03-24T07:01:53.574Z</time></trkpt><trkpt lat="45.5277754" lon="10.2590109"><ele>133.2</ele><time>2026-03-24T07:01:54.583Z</time></trkpt><trkpt lat="45.5277186" lon="10.2591504"><ele>132.79999999999998</ele><time>2026-03-24T07:01:55.575Z</time></trkpt><trkpt lat="45.5276601" lon="10.2592713"><ele>132.4</ele><time>2026-03-24T07:01:56.577Z</time></trkpt><trkpt lat="45.5276116" lon="10.2594211"><ele>132.0</ele><time>2026-03-24T07:01:57.581Z</time></trkpt><trkpt lat="45.5275604" lon="10.2595565"><ele>132.0</ele><time>2026-03-24T07:01:58.584Z</time></trkpt><trkpt lat="45.5275087" lon="10.2596755"><ele>132.0</ele><time>2026-03-24T07:01:59.571Z</time></trkpt><trkpt lat="45.5274656" lon="10.2597849"><ele>132.0</ele><time>2026-03-24T07:02:00.575Z</time></trkpt><trkpt lat="45.5274259" lon="10.2598859"><ele>132.0</ele><time>2026-03-24T07:02:01.578Z</time></trkpt><trkpt lat="45.5273945" lon="10.2599851"><ele>132.0</ele><time>2026-03-24T07:02:02.582Z</time></trkpt><trkpt lat="45.5273606" lon="10.2600795"><ele>132.0</ele><time>2026-03-24T07:02:03.582Z</time></trkpt><trkpt lat="45.5273226" lon="10.2601695"><ele>132.0</ele><time>2026-03-24T07:02:04.58Z</time></trkpt><trkpt lat="45.5272905" lon="10.2602528"><ele>132.0</ele><time>2026-03-24T07:02:05.578Z</time></trkpt><trkpt lat="45.5272386" lon="10.2603859"><ele>132.0</ele><time>2026-03-24T07:02:07.57Z</time></trkpt><trkpt lat="45.5272" lon="10.2604702"><ele>132.0</ele><time>2026-03-24T07:02:09.576Z</time></trkpt><trkpt lat="45.5271513" lon="10.2605825"><ele>132.0</ele><time>2026-03-24T07:02:12.579Z</time></trkpt><trkpt lat="45.5270965" lon="10.2606851"><ele>132.0</ele><time>2026-03-24T07:02:14.581Z</time></trkpt><trkpt lat="45.5270114" lon="10.2608212"><ele>132.0</ele><time>2026-03-24T07:02:16.58Z</time></trkpt><trkpt lat="45.5269674" lon="10.2608976"><ele>132.0</ele><time>2026-03-24T07:02:17.579Z</time></trkpt><trkpt lat="45.5269201" lon="10.2609691"><ele>132.0</ele><time>2026-03-24T07:02:18.585Z</time></trkpt><trkpt lat="45.526869" lon="10.2611341"><ele>132.0</ele><time>2026-03-24T07:02:20.584Z</time></trkpt><trkpt lat="45.526855" lon="10.2612414"><ele>132.0</ele><time>2026-03-24T07:02:21.589Z</time></trkpt><trkpt lat="45.5268328" lon="10.2613599"><ele>132.0</ele><time>2026-03-24T07:02:22.592Z</time></trkpt><trkpt lat="45.5268002" lon="10.2614784"><ele>132.4</ele><time>2026-03-24T07:02:23.579Z</time></trkpt><trkpt lat="45.5267617" lon="10.2615946"><ele>132.79999999999998</ele><time>2026-03-24T07:02:24.579Z</time></trkpt><trkpt lat="45.5267177" lon="10.2617129"><ele>133.2</ele><time>2026-03-24T07:02:25.582Z</time></trkpt><trkpt lat="45.5266651" lon="10.261843"><ele>133.6</ele><time>2026-03-24T07:02:26.579Z</time></trkpt><trkpt lat="45.5266048" lon="10.2619829"><ele>134.0</ele><time>2026-03-24T07:02:27.58Z</time></trkpt><trkpt lat="45.5265381" lon="10.2621291"><ele>134.0</ele><time>2026-03-24T07:02:28.585Z</time></trkpt><trkpt lat="45.5264741" lon="10.2622803"><ele>134.0</ele><time>2026-03-24T07:02:29.579Z</time></trkpt><trkpt lat="45.5264033" lon="10.2624336"><ele>134.0</ele><time>2026-03-24T07:02:30.581Z</time></trkpt><trkpt lat="45.526334" lon="10.2625903"><ele>134.0</ele><time>2026-03-24T07:02:31.582Z</time></trkpt><trkpt lat="45.5262682" lon="10.2627439"><ele>134.0</ele><time>2026-03-24T07:02:32.582Z</time></trkpt><trkpt lat="45.526199" lon="10.2628949"><ele>134.0</ele><time>2026-03-24T07:02:33.579Z</time></trkpt><trkpt lat="45.526129" lon="10.2630566"><ele>134.0</ele><time>2026-03-24T07:02:34.578Z</time></trkpt><trkpt lat="45.526057" lon="10.2632193"><ele>134.0</ele><time>2026-03-24T07:02:35.581Z</time></trkpt><trkpt lat="45.5259874" lon="10.2633798"><ele>134.0</ele><time>2026-03-24T07:02:36.576Z</time></trkpt><trkpt lat="45.5259214" lon="10.2635345"><ele>134.0</ele><time>2026-03-24T07:02:37.572Z</time></trkpt><trkpt lat="45.5258553" lon="10.2636883"><ele>134.0</ele><time>2026-03-24T07:02:38.581Z</time></trkpt><trkpt lat="45.52579" lon="10.2638302"><ele>134.0</ele><time>2026-03-24T07:02:39.58Z</time></trkpt><trkpt lat="45.5257258" lon="10.2639725"><ele>133.4</ele><time>2026-03-24T07:02:40.587Z</time></trkpt><trkpt lat="45.5256641" lon="10.2641115"><ele>132.8</ele><time>2026-03-24T07:02:41.578Z</time></trkpt><trkpt lat="45.5256069" lon="10.2642359"><ele>132.2</ele><time>2026-03-24T07:02:42.587Z</time></trkpt><trkpt lat="45.5255499" lon="10.2643465"><ele>131.6</ele><time>2026-03-24T07:02:43.575Z</time></trkpt><trkpt lat="45.5255008" lon="10.2644549"><ele>131.0</ele><time>2026-03-24T07:02:44.572Z</time></trkpt><trkpt lat="45.52546" lon="10.2645437"><ele>131.0</ele><time>2026-03-24T07:02:45.577Z</time></trkpt><trkpt lat="45.5254128" lon="10.2646238"><ele>131.0</ele><time>2026-03-24T07:02:46.573Z</time></trkpt><trkpt lat="45.5253738" lon="10.2647062"><ele>131.0</ele><time>2026-03-24T07:02:47.579Z</time></trkpt><trkpt lat="45.5253142" lon="10.2648262"><ele>131.0</ele><time>2026-03-24T07:02:49.583Z</time></trkpt><trkpt lat="45.5252504" lon="10.26493"><ele>131.0</ele><time>2026-03-24T07:02:51.585Z</time></trkpt><trkpt lat="45.5251751" lon="10.2650603"><ele>130.66666666666666</ele><time>2026-03-24T07:02:53.583Z</time></trkpt><trkpt lat="45.525113" lon="10.2651688"><ele>130.33333333333331</ele><time>2026-03-24T07:02:55.582Z</time></trkpt><trkpt lat="45.5250447" lon="10.2652523"><ele>130.0</ele><time>2026-03-24T07:02:57.582Z</time></trkpt><trkpt lat="45.5249954" lon="10.265316"><ele>129.66666666666666</ele><time>2026-03-24T07:03:06.581Z</time></trkpt><trkpt lat="45.5249522" lon="10.2653814"><ele>129.33333333333334</ele><time>2026-03-24T07:03:08.588Z</time></trkpt><trkpt lat="45.5248787" lon="10.2654538"><ele>129.0</ele><time>2026-03-24T07:03:11.589Z</time></trkpt><trkpt lat="45.5247882" lon="10.2655403"><ele>129.4</ele><time>2026-03-24T07:03:13.581Z</time></trkpt><trkpt lat="45.5246811" lon="10.265632"><ele>129.8</ele><time>2026-03-24T07:03:15.576Z</time></trkpt><trkpt lat="45.5246165" lon="10.2656777"><ele>130.2</ele><time>2026-03-24T07:03:16.583Z</time></trkpt><trkpt lat="45.5245425" lon="10.2657152"><ele>130.6</ele><time>2026-03-24T07:03:17.578Z</time></trkpt><trkpt lat="45.5244586" lon="10.2657518"><ele>131.0</ele><time>2026-03-24T07:03:18.572Z</time></trkpt><trkpt lat="45.5243644" lon="10.2657952"><ele>131.0</ele><time>2026-03-24T07:03:19.571Z</time></trkpt><trkpt lat="45.5242792" lon="10.265866"><ele>131.0</ele><time>2026-03-24T07:03:20.571Z</time></trkpt><trkpt lat="45.524211" lon="10.2659692"><ele>131.0</ele><time>2026-03-24T07:03:21.58Z</time></trkpt><trkpt lat="45.524132" lon="10.2660619"><ele>131.0</ele><time>2026-03-24T07:03:22.569Z</time></trkpt><trkpt lat="45.5240419" lon="10.2661782"><ele>131.0</ele><time>2026-03-24T07:03:23.57Z</time></trkpt><trkpt lat="45.5239429" lon="10.266306"><ele>131.0</ele><time>2026-03-24T07:03:24.581Z</time></trkpt><trkpt lat="45.5238389" lon="10.2664385"><ele>131.0</ele><time>2026-03-24T07:03:25.576Z</time></trkpt><trkpt lat="45.523734" lon="10.2665771"><ele>131.0</ele><time>2026-03-24T07:03:26.576Z</time></trkpt><trkpt lat="45.5236179" lon="10.2667112"><ele>131.0</ele><time>2026-03-24T07:03:27.584Z</time></trkpt><trkpt lat="45.5234993" lon="10.2668421"><ele>131.0</ele><time>2026-03-24T07:03:28.577Z</time></trkpt><trkpt lat="45.5233531" lon="10.2670127"><ele>131.0</ele><time>2026-03-24T07:03:29.583Z</time></trkpt><trkpt lat="45.5232318" lon="10.2671335"><ele>131.0</ele><time>2026-03-24T07:03:30.574Z</time></trkpt><trkpt lat="45.5231155" lon="10.267259"><ele>131.25</ele><time>2026-03-24T07:03:31.576Z</time></trkpt><trkpt lat="45.523001" lon="10.2673645"><ele>131.5</ele><time>2026-03-24T07:03:32.579Z</time></trkpt><trkpt lat="45.5228858" lon="10.267483"><ele>131.75</ele><time>2026-03-24T07:03:33.578Z</time></trkpt><trkpt lat="45.5227722" lon="10.2675788"><ele>132.0</ele><time>2026-03-24T07:03:34.58Z</time></trkpt><trkpt lat="45.5226518" lon="10.2676868"><ele>132.25</ele><time>2026-03-24T07:03:35.574Z</time></trkpt><trkpt lat="45.5225442" lon="10.2677955"><ele>132.5</ele><time>2026-03-24T07:03:36.576Z</time></trkpt><trkpt lat="45.5224324" lon="10.267912"><ele>132.75</ele><time>2026-03-24T07:03:37.575Z</time></trkpt><trkpt lat="45.5223174" lon="10.2680261"><ele>133.0</ele><time>2026-03-24T07:03:38.584Z</time></trkpt><trkpt lat="45.5222122" lon="10.2681646"><ele>133.0</ele><time>2026-03-24T07:03:39.591Z</time></trkpt><trkpt lat="45.5221058" lon="10.2683157"><ele>133.0</ele><time>2026-03-24T07:03:40.586Z</time></trkpt><trkpt lat="45.5219963" lon="10.2684504"><ele>133.0</ele><time>2026-03-24T07:03:41.586Z</time></trkpt><trkpt lat="45.5218957" lon="10.2686072"><ele>133.0</ele><time>2026-03-24T07:03:42.588Z</time></trkpt><trkpt lat="45.5218055" lon="10.2687541"><ele>132.75</ele><time>2026-03-24T07:03:43.582Z</time></trkpt><trkpt lat="45.5217094" lon="10.2689065"><ele>132.5</ele><time>2026-03-24T07:03:44.593Z</time></trkpt><trkpt lat="45.5216267" lon="10.2690713"><ele>132.25</ele><time>2026-03-24T07:03:45.59Z</time></trkpt><trkpt lat="45.5215301" lon="10.269222"><ele>132.0</ele><time>2026-03-24T07:03:46.581Z</time></trkpt><trkpt lat="45.5214538" lon="10.2693934"><ele>132.0</ele><time>2026-03-24T07:03:47.596Z</time></trkpt><trkpt lat="45.5213842" lon="10.269584"><ele>132.0</ele><time>2026-03-24T07:03:48.588Z</time></trkpt><trkpt lat="45.5212998" lon="10.2697626"><ele>132.0</ele><time>2026-03-24T07:03:49.589Z</time></trkpt><trkpt lat="45.5212144" lon="10.2699137"><ele>132.0</ele><time>2026-03-24T07:03:50.592Z</time></trkpt><trkpt lat="45.521163" lon="10.2701145"><ele>132.0</ele><time>2026-03-24T07:03:51.597Z</time></trkpt><trkpt lat="45.5210998" lon="10.2703125"><ele>132.0</ele><time>2026-03-24T07:03:52.596Z</time></trkpt><trkpt lat="45.5210232" lon="10.2705196"><ele>132.0</ele><time>2026-03-24T07:03:53.588Z</time></trkpt><trkpt lat="45.5209517" lon="10.2707288"><ele>132.25</ele><time>2026-03-24T07:03:54.593Z</time></trkpt><trkpt lat="45.5208973" lon="10.2709411"><ele>132.5</ele><time>2026-03-24T07:03:55.588Z</time></trkpt><trkpt lat="45.520845" lon="10.2711342"><ele>132.75</ele><time>2026-03-24T07:03:56.584Z</time></trkpt><trkpt lat="45.520809" lon="10.2713329"><ele>133.0</ele><time>2026-03-24T07:03:57.592Z</time></trkpt><trkpt lat="45.5207649" lon="10.2715299"><ele>133.25</ele><time>2026-03-24T07:03:58.591Z</time></trkpt><trkpt lat="45.5207406" lon="10.2717326"><ele>133.5</ele><time>2026-03-24T07:03:59.595Z</time></trkpt><trkpt lat="45.5207209" lon="10.2719531"><ele>133.75</ele><time>2026-03-24T07:04:00.586Z</time></trkpt><trkpt lat="45.5206738" lon="10.2721455"><ele>134.0</ele><time>2026-03-24T07:04:01.592Z</time></trkpt><trkpt lat="45.5206491" lon="10.2723132"><ele>134.0</ele><time>2026-03-24T07:04:02.585Z</time></trkpt><trkpt lat="45.5206369" lon="10.2724412"><ele>134.0</ele><time>2026-03-24T07:04:03.586Z</time></trkpt><trkpt lat="45.5206207" lon="10.2725706"><ele>134.0</ele><time>2026-03-24T07:04:04.591Z</time></trkpt><trkpt lat="45.5206159" lon="10.2727123"><ele>134.0</ele><time>2026-03-24T07:04:06.59Z</time></trkpt><trkpt lat="45.5205872" lon="10.2728454"><ele>134.0</ele><time>2026-03-24T07:04:08.587Z</time></trkpt><trkpt lat="45.5205572" lon="10.2729701"><ele>134.2</ele><time>2026-03-24T07:04:10.595Z</time></trkpt><trkpt lat="45.5205275" lon="10.2731471"><ele>134.4</ele><time>2026-03-24T07:04:12.588Z</time></trkpt><trkpt lat="45.5205122" lon="10.2732546"><ele>134.6</ele><time>2026-03-24T07:04:13.591Z</time></trkpt><trkpt lat="45.5204955" lon="10.2733773"><ele>134.8</ele><time>2026-03-24T07:04:14.589Z</time></trkpt><trkpt lat="45.5204768" lon="10.2735111"><ele>135.0</ele><time>2026-03-24T07:04:15.59Z</time></trkpt><trkpt lat="45.520457" lon="10.2736479"><ele>135.0</ele><time>2026-03-24T07:04:16.591Z</time></trkpt><trkpt lat="45.5204399" lon="10.2737881"><ele>135.0</ele><time>2026-03-24T07:04:17.59Z</time></trkpt><trkpt lat="45.520422" lon="10.2739247"><ele>135.0</ele><time>2026-03-24T07:04:18.587Z</time></trkpt><trkpt lat="45.5204043" lon="10.2740504"><ele>135.0</ele><time>2026-03-24T07:04:19.59Z</time></trkpt><trkpt lat="45.5203888" lon="10.2741583"><ele>135.0</ele><time>2026-03-24T07:04:20.587Z</time></trkpt><trkpt lat="45.520378" lon="10.2742549"><ele>135.0</ele><time>2026-03-24T07:04:21.587Z</time></trkpt><trkpt lat="45.5203683" lon="10.2743657"><ele>134.5</ele><time>2026-03-24T07:04:22.587Z</time></trkpt><trkpt lat="45.5203615" lon="10.274479"><ele>134.0</ele><time>2026-03-24T07:04:23.585Z</time></trkpt><trkpt lat="45.5203471" lon="10.2745988"><ele>133.5</ele><time>2026-03-24T07:04:24.589Z</time></trkpt><trkpt lat="45.5203316" lon="10.2747118"><ele>133.0</ele><time>2026-03-24T07:04:25.582Z</time></trkpt><trkpt lat="45.5203137" lon="10.2748233"><ele>132.5</ele><time>2026-03-24T07:04:26.587Z</time></trkpt><trkpt lat="45.5202989" lon="10.2749378"><ele>132.0</ele><time>2026-03-24T07:04:27.585Z</time></trkpt><trkpt lat="45.5202833" lon="10.2750665"><ele>132.0</ele><time>2026-03-24T07:04:28.595Z</time></trkpt><trkpt lat="45.5202677" lon="10.2751895"><ele>132.0</ele><time>2026-03-24T07:04:29.583Z</time></trkpt><trkpt lat="45.5202482" lon="10.2753165"><ele>132.0</ele><time>2026-03-24T07:04:30.583Z</time></trkpt><trkpt lat="45.520233" lon="10.2754409"><ele>132.0</ele><time>2026-03-24T07:04:31.59Z</time></trkpt><trkpt lat="45.5202184" lon="10.2755717"><ele>132.0</ele><time>2026-03-24T07:04:32.588Z</time></trkpt><trkpt lat="45.52021" lon="10.2757093"><ele>132.2</ele><time>2026-03-24T07:04:33.591Z</time></trkpt><trkpt lat="45.5201966" lon="10.2758581"><ele>132.39999999999998</ele><time>2026-03-24T07:04:34.591Z</time></trkpt><trkpt lat="45.5201821" lon="10.2759994"><ele>132.60000000000002</ele><time>2026-03-24T07:04:35.59Z</time></trkpt><trkpt lat="45.5201682" lon="10.2761274"><ele>132.8</ele><time>2026-03-24T07:04:36.594Z</time></trkpt><trkpt lat="45.5201554" lon="10.276255"><ele>133.0</ele><time>2026-03-24T07:04:37.597Z</time></trkpt><trkpt lat="45.5201412" lon="10.2763715"><ele>132.83333333333334</ele><time>2026-03-24T07:04:38.592Z</time></trkpt><trkpt lat="45.5201272" lon="10.2764838"><ele>132.66666666666669</ele><time>2026-03-24T07:04:39.6Z</time></trkpt><trkpt lat="45.5201137" lon="10.2765881"><ele>132.5</ele><time>2026-03-24T07:04:40.596Z</time></trkpt><trkpt lat="45.5201003" lon="10.2766833"><ele>132.33333333333334</ele><time>2026-03-24T07:04:41.6Z</time></trkpt><trkpt lat="45.52009" lon="10.2768351"><ele>132.16666666666666</ele><time>2026-03-24T07:04:43.596Z</time></trkpt><trkpt lat="45.520079" lon="10.2769705"><ele>132.0</ele><time>2026-03-24T07:04:45.598Z</time></trkpt><trkpt lat="45.5200682" lon="10.2770977"><ele>132.0</ele><time>2026-03-24T07:04:54.599Z</time></trkpt><trkpt lat="45.52006" lon="10.2772279"><ele>132.0</ele><time>2026-03-24T07:04:57.602Z</time></trkpt><trkpt lat="45.5200579" lon="10.2773271"><ele>132.0</ele><time>2026-03-24T07:04:59.598Z</time></trkpt><trkpt lat="45.5200636" lon="10.2774373"><ele>132.0</ele><time>2026-03-24T07:05:01.597Z</time></trkpt><trkpt lat="45.5200659" lon="10.2775725"><ele>132.0</ele><time>2026-03-24T07:05:03.601Z</time></trkpt><trkpt lat="45.5200634" lon="10.2777407"><ele>132.0</ele><time>2026-03-24T07:05:05.592Z</time></trkpt><trkpt lat="45.5200626" lon="10.2778516"><ele>132.0</ele><time>2026-03-24T07:05:06.599Z</time></trkpt><trkpt lat="45.5200564" lon="10.2779771"><ele>132.0</ele><time>2026-03-24T07:05:07.595Z</time></trkpt><trkpt lat="45.5200491" lon="10.2781126"><ele>132.0</ele><time>2026-03-24T07:05:08.596Z</time></trkpt><trkpt lat="45.5200469" lon="10.2782539"><ele>132.0</ele><time>2026-03-24T07:05:09.596Z</time></trkpt><trkpt lat="45.520048" lon="10.2783982"><ele>132.4</ele><time>2026-03-24T07:05:10.594Z</time></trkpt><trkpt lat="45.520048" lon="10.2785408"><ele>132.79999999999998</ele><time>2026-03-24T07:05:11.599Z</time></trkpt><trkpt lat="45.520045" lon="10.2786813"><ele>133.2</ele><time>2026-03-24T07:05:12.591Z</time></trkpt><trkpt lat="45.520043" lon="10.27883"><ele>133.6</ele><time>2026-03-24T07:05:13.591Z</time></trkpt><trkpt lat="45.5200306" lon="10.2789769"><ele>134.0</ele><time>2026-03-24T07:05:14.594Z</time></trkpt><trkpt lat="45.5200127" lon="10.2791242"><ele>134.2</ele><time>2026-03-24T07:05:15.594Z</time></trkpt><trkpt lat="45.5199891" lon="10.2792703"><ele>134.4</ele><time>2026-03-24T07:05:16.592Z</time></trkpt><trkpt lat="45.5199568" lon="10.2794162"><ele>134.6</ele><time>2026-03-24T07:05:17.599Z</time></trkpt><trkpt lat="45.5199214" lon="10.2795646"><ele>134.8</ele><time>2026-03-24T07:05:18.592Z</time></trkpt><trkpt lat="45.5198816" lon="10.2797183"><ele>135.0</ele><time>2026-03-24T07:05:19.594Z</time></trkpt><trkpt lat="45.5198389" lon="10.2798618"><ele>135.0</ele><time>2026-03-24T07:05:20.59Z</time></trkpt><trkpt lat="45.5197965" lon="10.2799959"><ele>135.0</ele><time>2026-03-24T07:05:21.592Z</time></trkpt><trkpt lat="45.5197526" lon="10.2801302"><ele>135.0</ele><time>2026-03-24T07:05:22.59Z</time></trkpt><trkpt lat="45.5197055" lon="10.2802712"><ele>135.0</ele><time>2026-03-24T07:05:23.589Z</time></trkpt><trkpt lat="45.5196609" lon="10.2804154"><ele>135.0</ele><time>2026-03-24T07:05:24.589Z</time></trkpt><trkpt lat="45.5196158" lon="10.2805604"><ele>134.8</ele><time>2026-03-24T07:05:25.59Z</time></trkpt><trkpt lat="45.5195687" lon="10.2807001"><ele>134.6</ele><time>2026-03-24T07:05:26.588Z</time></trkpt><trkpt lat="45.5195208" lon="10.2808383"><ele>134.4</ele><time>2026-03-24T07:05:27.59Z</time></trkpt><trkpt lat="45.5194743" lon="10.2809749"><ele>134.2</ele><time>2026-03-24T07:05:28.587Z</time></trkpt><trkpt lat="45.5194347" lon="10.2811124"><ele>134.0</ele><time>2026-03-24T07:05:29.59Z</time></trkpt><trkpt lat="45.5193917" lon="10.2812423"><ele>134.0</ele><time>2026-03-24T07:05:30.596Z</time></trkpt><trkpt lat="45.5193466" lon="10.2813721"><ele>134.0</ele><time>2026-03-24T07:05:31.594Z</time></trkpt><trkpt lat="45.519302" lon="10.281502"><ele>134.0</ele><time>2026-03-24T07:05:32.589Z</time></trkpt><trkpt lat="45.5192615" lon="10.2816336"><ele>134.0</ele><time>2026-03-24T07:05:33.585Z</time></trkpt><trkpt lat="45.519222" lon="10.281763"><ele>134.0</ele><time>2026-03-24T07:05:34.594Z</time></trkpt><trkpt lat="45.519183" lon="10.2818934"><ele>133.8</ele><time>2026-03-24T07:05:35.591Z</time></trkpt><trkpt lat="45.5191434" lon="10.2820287"><ele>133.60000000000002</ele><time>2026-03-24T07:05:36.592Z</time></trkpt><trkpt lat="45.5191089" lon="10.282159"><ele>133.4</ele><time>2026-03-24T07:05:37.59Z</time></trkpt><trkpt lat="45.5190705" lon="10.2822961"><ele>133.20000000000002</ele><time>2026-03-24T07:05:38.595Z</time></trkpt><trkpt lat="45.5190275" lon="10.2824247"><ele>133.0</ele><time>2026-03-24T07:05:39.594Z</time></trkpt><trkpt lat="45.5189781" lon="10.2825269"><ele>133.0</ele><time>2026-03-24T07:05:40.599Z</time></trkpt><trkpt lat="45.5189335" lon="10.2825915"><ele>133.0</ele><time>2026-03-24T07:05:41.587Z</time></trkpt><trkpt lat="45.5188481" lon="10.2826809"><ele>133.0</ele><time>2026-03-24T07:05:43.594Z</time></trkpt><trkpt lat="45.5187452" lon="10.2827549"><ele>133.0</ele><time>2026-03-24T07:05:45.585Z</time></trkpt><trkpt lat="45.5186742" lon="10.2827682"><ele>133.0</ele><time>2026-03-24T07:05:46.585Z</time></trkpt><trkpt lat="45.5185861" lon="10.2827607"><ele>133.0</ele><time>2026-03-24T07:05:47.582Z</time></trkpt><trkpt lat="45.5184944" lon="10.2827295"><ele>132.25</ele><time>2026-03-24T07:05:48.582Z</time></trkpt><trkpt lat="45.5184021" lon="10.2826558"><ele>131.5</ele><time>2026-03-24T07:05:49.591Z</time></trkpt><trkpt lat="45.5183116" lon="10.2825544"><ele>130.75</ele><time>2026-03-24T07:05:50.587Z</time></trkpt><trkpt lat="45.5182164" lon="10.2824438"><ele>130.0</ele><time>2026-03-24T07:05:51.59Z</time></trkpt><trkpt lat="45.5181058" lon="10.2823333"><ele>130.0</ele><time>2026-03-24T07:05:52.592Z</time></trkpt><trkpt lat="45.5179844" lon="10.2822243"><ele>130.0</ele><time>2026-03-24T07:05:53.59Z</time></trkpt><trkpt lat="45.5178631" lon="10.2821307"><ele>130.0</ele><time>2026-03-24T07:05:54.589Z</time></trkpt><trkpt lat="45.5177536" lon="10.2820429"><ele>130.0</ele><time>2026-03-24T07:05:55.588Z</time></trkpt><trkpt lat="45.5176473" lon="10.2819747"><ele>130.0</ele><time>2026-03-24T07:05:56.587Z</time></trkpt><trkpt lat="45.5175472" lon="10.2819301"><ele>130.0</ele><time>2026-03-24T07:05:57.582Z</time></trkpt><trkpt lat="45.5174387" lon="10.2819095"><ele>130.0</ele><time>2026-03-24T07:05:58.593Z</time></trkpt><trkpt lat="45.517327" lon="10.2819717"><ele>130.0</ele><time>2026-03-24T07:05:59.585Z</time></trkpt><trkpt lat="45.5172265" lon="10.2820501"><ele>130.0</ele><time>2026-03-24T07:06:00.59Z</time></trkpt><trkpt lat="45.517134" lon="10.2821704"><ele>130.75</ele><time>2026-03-24T07:06:01.587Z</time></trkpt><trkpt lat="45.5170572" lon="10.2823141"><ele>131.5</ele><time>2026-03-24T07:06:02.579Z</time></trkpt><trkpt lat="45.5169803" lon="10.2824569"><ele>132.25</ele><time>2026-03-24T07:06:03.583Z</time></trkpt><trkpt lat="45.5168948" lon="10.2825697"><ele>133.0</ele><time>2026-03-24T07:06:04.581Z</time></trkpt><trkpt lat="45.516807" lon="10.2826345"><ele>133.0</ele><time>2026-03-24T07:06:05.578Z</time></trkpt><trkpt lat="45.5167157" lon="10.2826543"><ele>133.0</ele><time>2026-03-24T07:06:06.582Z</time></trkpt><trkpt lat="45.516619" lon="10.2826141"><ele>133.0</ele><time>2026-03-24T07:06:07.585Z</time></trkpt><trkpt lat="45.5165221" lon="10.2825431"><ele>133.0</ele><time>2026-03-24T07:06:08.577Z</time></trkpt><trkpt lat="45.5164202" lon="10.282458"><ele>133.0</ele><time>2026-03-24T07:06:09.582Z</time></trkpt><trkpt lat="45.5163064" lon="10.2823632"><ele>133.0</ele><time>2026-03-24T07:06:10.581Z</time></trkpt><trkpt lat="45.5161779" lon="10.2822682"><ele>133.0</ele><time>2026-03-24T07:06:11.585Z</time></trkpt><trkpt lat="45.5160409" lon="10.2821689"><ele>133.0</ele><time>2026-03-24T07:06:12.58Z</time></trkpt><trkpt lat="45.5158796" lon="10.2820491"><ele>133.0</ele><time>2026-03-24T07:06:13.578Z</time></trkpt><trkpt lat="45.5157181" lon="10.2819464"><ele>133.0</ele><time>2026-03-24T07:06:14.581Z</time></trkpt><trkpt lat="45.5155911" lon="10.281837"><ele>133.0</ele><time>2026-03-24T07:06:15.592Z</time></trkpt><trkpt lat="45.5154717" lon="10.2817295"><ele>133.0</ele><time>2026-03-24T07:06:16.585Z</time></trkpt><trkpt lat="45.5153524" lon="10.2816282"><ele>133.0</ele><time>2026-03-24T07:06:17.593Z</time></trkpt><trkpt lat="45.5152229" lon="10.2815371"><ele>133.0</ele><time>2026-03-24T07:06:18.589Z</time></trkpt><trkpt lat="45.5150954" lon="10.2814443"><ele>133.0</ele><time>2026-03-24T07:06:19.589Z</time></trkpt><trkpt lat="45.5149723" lon="10.2813441"><ele>133.33333333333334</ele><time>2026-03-24T07:06:20.587Z</time></trkpt><trkpt lat="45.5148349" lon="10.2812299"><ele>133.66666666666666</ele><time>2026-03-24T07:06:21.593Z</time></trkpt><trkpt lat="45.5146992" lon="10.2811249"><ele>134.0</ele><time>2026-03-24T07:06:22.587Z</time></trkpt><trkpt lat="45.5145656" lon="10.2810265"><ele>134.0</ele><time>2026-03-24T07:06:23.591Z</time></trkpt><trkpt lat="45.5144363" lon="10.280923"><ele>134.0</ele><time>2026-03-24T07:06:24.583Z</time></trkpt><trkpt lat="45.5143053" lon="10.2808221"><ele>134.0</ele><time>2026-03-24T07:06:25.586Z</time></trkpt><trkpt lat="45.5141724" lon="10.2807161"><ele>134.0</ele><time>2026-03-24T07:06:26.598Z</time></trkpt><trkpt lat="45.5140462" lon="10.2806022"><ele>133.75</ele><time>2026-03-24T07:06:27.583Z</time></trkpt><trkpt lat="45.51392" lon="10.2804984"><ele>133.5</ele><time>2026-03-24T07:06:28.591Z</time></trkpt><trkpt lat="45.5137877" lon="10.2804051"><ele>133.25</ele><time>2026-03-24T07:06:29.589Z</time></trkpt><trkpt lat="45.5136693" lon="10.2803197"><ele>133.0</ele><time>2026-03-24T07:06:30.587Z</time></trkpt><trkpt lat="45.5135397" lon="10.2802283"><ele>133.0</ele><time>2026-03-24T07:06:31.592Z</time></trkpt><trkpt lat="45.513408" lon="10.2801299"><ele>133.0</ele><time>2026-03-24T07:06:32.582Z</time></trkpt><trkpt lat="45.5132758" lon="10.2800121"><ele>133.0</ele><time>2026-03-24T07:06:33.589Z</time></trkpt><trkpt lat="45.5131439" lon="10.2799023"><ele>133.0</ele><time>2026-03-24T07:06:34.588Z</time></trkpt><trkpt lat="45.5130336" lon="10.2798223"><ele>133.0</ele><time>2026-03-24T07:06:35.591Z</time></trkpt><trkpt lat="45.5129266" lon="10.2797256"><ele>133.0</ele><time>2026-03-24T07:06:36.587Z</time></trkpt><trkpt lat="45.5128198" lon="10.2796366"><ele>133.0</ele><time>2026-03-24T07:06:37.585Z</time></trkpt><trkpt lat="45.5127043" lon="10.2795454"><ele>133.0</ele><time>2026-03-24T07:06:38.587Z</time></trkpt><trkpt lat="45.5125802" lon="10.2794415"><ele>133.0</ele><time>2026-03-24T07:06:39.592Z</time></trkpt><trkpt lat="45.5124837" lon="10.2793639"><ele>133.0</ele><time>2026-03-24T07:06:40.58Z</time></trkpt><trkpt lat="45.5123917" lon="10.2792992"><ele>133.0</ele><time>2026-03-24T07:06:41.591Z</time></trkpt><trkpt lat="45.5123054" lon="10.27923"><ele>133.0</ele><time>2026-03-24T07:06:42.585Z</time></trkpt><trkpt lat="45.5122326" lon="10.2791712"><ele>133.0</ele><time>2026-03-24T07:06:43.584Z</time></trkpt><trkpt lat="45.5121665" lon="10.2791117"><ele>133.0</ele><time>2026-03-24T07:06:44.59Z</time></trkpt><trkpt lat="45.5121119" lon="10.2790548"><ele>133.0</ele><time>2026-03-24T07:06:45.582Z</time></trkpt><trkpt lat="45.5120366" lon="10.2789533"><ele>133.0</ele><time>2026-03-24T07:06:47.592Z</time></trkpt><trkpt lat="45.5119861" lon="10.278776"><ele>132.20000000000002</ele><time>2026-03-24T07:06:49.585Z</time></trkpt><trkpt lat="45.511954" lon="10.278657"><ele>131.4</ele><time>2026-03-24T07:06:50.578Z</time></trkpt><trkpt lat="45.5119089" lon="10.2785414"><ele>130.60000000000002</ele><time>2026-03-24T07:06:51.587Z</time></trkpt><trkpt lat="45.5118611" lon="10.2784412"><ele>129.8</ele><time>2026-03-24T07:06:52.584Z</time></trkpt><trkpt lat="45.511782" lon="10.2783618"><ele>129.0</ele><time>2026-03-24T07:06:53.581Z</time></trkpt><trkpt lat="45.5116655" lon="10.2783332"><ele>129.0</ele><time>2026-03-24T07:06:54.58Z</time></trkpt><trkpt lat="45.5115481" lon="10.278345"><ele>129.0</ele><time>2026-03-24T07:06:55.579Z</time></trkpt><trkpt lat="45.5114311" lon="10.2783746"><ele>129.0</ele><time>2026-03-24T07:06:56.581Z</time></trkpt><trkpt lat="45.5113239" lon="10.2783844"><ele>129.0</ele><time>2026-03-24T07:06:57.583Z</time></trkpt><trkpt lat="45.5112186" lon="10.2783551"><ele>129.0</ele><time>2026-03-24T07:06:58.581Z</time></trkpt><trkpt lat="45.5111183" lon="10.2783075"><ele>129.0</ele><time>2026-03-24T07:06:59.581Z</time></trkpt><trkpt lat="45.5110107" lon="10.2782321"><ele>129.0</ele><time>2026-03-24T07:07:00.581Z</time></trkpt><trkpt lat="45.5108996" lon="10.2781588"><ele>129.0</ele><time>2026-03-24T07:07:01.582Z</time></trkpt><trkpt lat="45.5107807" lon="10.2780606"><ele>129.0</ele><time>2026-03-24T07:07:02.578Z</time></trkpt><trkpt lat="45.5106659" lon="10.2779664"><ele>129.0</ele><time>2026-03-24T07:07:03.58Z</time></trkpt><trkpt lat="45.5105528" lon="10.2778729"><ele>129.0</ele><time>2026-03-24T07:07:04.585Z</time></trkpt><trkpt lat="45.5104434" lon="10.2777865"><ele>129.0</ele><time>2026-03-24T07:07:05.578Z</time></trkpt><trkpt lat="45.5103312" lon="10.2776945"><ele>129.0</ele><time>2026-03-24T07:07:06.576Z</time></trkpt><trkpt lat="45.5102123" lon="10.2776011"><ele>129.0</ele><time>2026-03-24T07:07:07.583Z</time></trkpt><trkpt lat="45.510086" lon="10.2775"><ele>129.0</ele><time>2026-03-24T07:07:08.584Z</time></trkpt><trkpt lat="45.5099456" lon="10.2773944"><ele>129.0</ele><time>2026-03-24T07:07:09.586Z</time></trkpt><trkpt lat="45.5098155" lon="10.2772857"><ele>129.0</ele><time>2026-03-24T07:07:10.581Z</time></trkpt><trkpt lat="45.5096857" lon="10.2771783"><ele>129.0</ele><time>2026-03-24T07:07:11.578Z</time></trkpt><trkpt lat="45.5095723" lon="10.277095"><ele>129.0</ele><time>2026-03-24T07:07:12.579Z</time></trkpt><trkpt lat="45.5094419" lon="10.2770233"><ele>129.0</ele><time>2026-03-24T07:07:13.578Z</time></trkpt><trkpt lat="45.5093077" lon="10.2769377"><ele>129.25</ele><time>2026-03-24T07:07:14.575Z</time></trkpt><trkpt lat="45.509171" lon="10.2768546"><ele>129.5</ele><time>2026-03-24T07:07:15.573Z</time></trkpt><trkpt lat="45.509033" lon="10.2767572"><ele>129.75</ele><time>2026-03-24T07:07:16.573Z</time></trkpt><trkpt lat="45.5089029" lon="10.2766736"><ele>130.0</ele><time>2026-03-24T07:07:17.577Z</time></trkpt><trkpt lat="45.5087643" lon="10.2765803"><ele>130.25</ele><time>2026-03-24T07:07:18.571Z</time></trkpt><trkpt lat="45.5086262" lon="10.2764977"><ele>130.5</ele><time>2026-03-24T07:07:19.574Z</time></trkpt><trkpt lat="45.5084907" lon="10.2764372"><ele>130.75</ele><time>2026-03-24T07:07:20.572Z</time></trkpt><trkpt lat="45.5083612" lon="10.2763703"><ele>131.0</ele><time>2026-03-24T07:07:21.574Z</time></trkpt><trkpt lat="45.508229" lon="10.2763032"><ele>130.33333333333331</ele><time>2026-03-24T07:07:22.58Z</time></trkpt><trkpt lat="45.5080869" lon="10.2762298"><ele>129.66666666666666</ele><time>2026-03-24T07:07:23.585Z</time></trkpt><trkpt lat="45.5079482" lon="10.2761489"><ele>129.0</ele><time>2026-03-24T07:07:24.58Z</time></trkpt><trkpt lat="45.5078031" lon="10.2760758"><ele>128.33333333333334</ele><time>2026-03-24T07:07:25.583Z</time></trkpt><trkpt lat="45.5076556" lon="10.2760039"><ele>127.66666666666667</ele><time>2026-03-24T07:07:26.581Z</time></trkpt><trkpt lat="45.5075167" lon="10.2759369"><ele>127.0</ele><time>2026-03-24T07:07:27.577Z</time></trkpt><trkpt lat="45.5073677" lon="10.2758669"><ele>127.0</ele><time>2026-03-24T07:07:28.588Z</time></trkpt><trkpt lat="45.5072131" lon="10.2757921"><ele>127.0</ele><time>2026-03-24T07:07:29.582Z</time></trkpt><trkpt lat="45.5070597" lon="10.2757043"><ele>127.0</ele><time>2026-03-24T07:07:30.58Z</time></trkpt><trkpt lat="45.5069107" lon="10.2756452"><ele>125.33333333333334</ele><time>2026-03-24T07:07:31.579Z</time></trkpt><trkpt lat="45.5067553" lon="10.2755946"><ele>123.66666666666666</ele><time>2026-03-24T07:07:32.579Z</time></trkpt><trkpt lat="45.5065924" lon="10.2755291"><ele>122.0</ele><time>2026-03-24T07:07:33.579Z</time></trkpt><trkpt lat="45.5064314" lon="10.2754619"><ele>122.0</ele><time>2026-03-24T07:07:34.587Z</time></trkpt><trkpt lat="45.506278" lon="10.2753828"><ele>122.0</ele><time>2026-03-24T07:07:35.579Z</time></trkpt><trkpt lat="45.5061274" lon="10.2753198"><ele>122.0</ele><time>2026-03-24T07:07:36.576Z</time></trkpt><trkpt lat="45.5059691" lon="10.2752542"><ele>123.0</ele><time>2026-03-24T07:07:37.579Z</time></trkpt><trkpt lat="45.5058027" lon="10.2751888"><ele>124.0</ele><time>2026-03-24T07:07:38.582Z</time></trkpt><trkpt lat="45.5056508" lon="10.2751362"><ele>125.0</ele><time>2026-03-24T07:07:39.582Z</time></trkpt><trkpt lat="45.5054888" lon="10.275102"><ele>125.33333333333333</ele><time>2026-03-24T07:07:40.584Z</time></trkpt><trkpt lat="45.5053259" lon="10.2750682"><ele>125.66666666666666</ele><time>2026-03-24T07:07:41.589Z</time></trkpt><trkpt lat="45.5051808" lon="10.2750577"><ele>126.0</ele><time>2026-03-24T07:07:42.58Z</time></trkpt><trkpt lat="45.5050311" lon="10.2750391"><ele>126.0</ele><time>2026-03-24T07:07:43.582Z</time></trkpt><trkpt lat="45.5048709" lon="10.2750277"><ele>126.0</ele><time>2026-03-24T07:07:44.593Z</time></trkpt><trkpt lat="45.5047198" lon="10.2749979"><ele>126.0</ele><time>2026-03-24T07:07:45.586Z</time></trkpt><trkpt lat="45.5045612" lon="10.2749679"><ele>125.66666666666666</ele><time>2026-03-24T07:07:46.581Z</time></trkpt><trkpt lat="45.5044134" lon="10.2749369"><ele>125.33333333333333</ele><time>2026-03-24T07:07:47.589Z</time></trkpt><trkpt lat="45.5042562" lon="10.2749132"><ele>125.0</ele><time>2026-03-24T07:07:48.584Z</time></trkpt><trkpt lat="45.5040986" lon="10.2748887"><ele>125.0</ele><time>2026-03-24T07:07:49.59Z</time></trkpt><trkpt lat="45.5039484" lon="10.274869"><ele>125.0</ele><time>2026-03-24T07:07:50.58Z</time></trkpt><trkpt lat="45.5037824" lon="10.2748416"><ele>125.0</ele><time>2026-03-24T07:07:51.584Z</time></trkpt><trkpt lat="45.5036291" lon="10.2748215"><ele>125.33333333333333</ele><time>2026-03-24T07:07:52.583Z</time></trkpt><trkpt lat="45.5034693" lon="10.2747936"><ele>125.66666666666666</ele><time>2026-03-24T07:07:53.583Z</time></trkpt><trkpt lat="45.5033217" lon="10.2747542"><ele>126.0</ele><time>2026-03-24T07:07:54.585Z</time></trkpt><trkpt lat="45.5031718" lon="10.2747408"><ele>126.0</ele><time>2026-03-24T07:07:55.581Z</time></trkpt><trkpt lat="45.5030166" lon="10.2747277"><ele>126.0</ele><time>2026-03-24T07:07:56.583Z</time></trkpt><trkpt lat="45.5028624" lon="10.2747037"><ele>126.0</ele><time>2026-03-24T07:07:57.578Z</time></trkpt><trkpt lat="45.5027098" lon="10.2746838"><ele>126.5</ele><time>2026-03-24T07:07:58.587Z</time></trkpt><trkpt lat="45.5025632" lon="10.2746775"><ele>127.0</ele><time>2026-03-24T07:07:59.582Z</time></trkpt><trkpt lat="45.5024069" lon="10.2746681"><ele>127.5</ele><time>2026-03-24T07:08:00.582Z</time></trkpt><trkpt lat="45.5022608" lon="10.2746575"><ele>128.0</ele><time>2026-03-24T07:08:01.588Z</time></trkpt><trkpt lat="45.5021159" lon="10.2746388"><ele>128.0</ele><time>2026-03-24T07:08:02.586Z</time></trkpt><trkpt lat="45.5019724" lon="10.2746244"><ele>128.0</ele><time>2026-03-24T07:08:03.585Z</time></trkpt><trkpt lat="45.501832" lon="10.2745955"><ele>128.0</ele><time>2026-03-24T07:08:04.589Z</time></trkpt><trkpt lat="45.5016789" lon="10.274586"><ele>128.0</ele><time>2026-03-24T07:08:05.581Z</time></trkpt><trkpt lat="45.5015231" lon="10.2745607"><ele>128.0</ele><time>2026-03-24T07:08:06.576Z</time></trkpt><trkpt lat="45.5013778" lon="10.274522"><ele>128.0</ele><time>2026-03-24T07:08:07.583Z</time></trkpt><trkpt lat="45.5012337" lon="10.2744998"><ele>128.0</ele><time>2026-03-24T07:08:08.579Z</time></trkpt><trkpt lat="45.501104" lon="10.2744885"><ele>128.0</ele><time>2026-03-24T07:08:09.576Z</time></trkpt><trkpt lat="45.5009713" lon="10.2744471"><ele>128.0</ele><time>2026-03-24T07:08:10.578Z</time></trkpt><trkpt lat="45.5008118" lon="10.274412"><ele>128.0</ele><time>2026-03-24T07:08:11.569Z</time></trkpt><trkpt lat="45.5006827" lon="10.2743643"><ele>128.0</ele><time>2026-03-24T07:08:12.58Z</time></trkpt><trkpt lat="45.5005773" lon="10.2743226"><ele>128.0</ele><time>2026-03-24T07:08:13.576Z</time></trkpt><trkpt lat="45.5004679" lon="10.2742904"><ele>128.0</ele><time>2026-03-24T07:08:14.585Z</time></trkpt><trkpt lat="45.5003572" lon="10.2741976"><ele>128.0</ele><time>2026-03-24T07:08:15.574Z</time></trkpt><trkpt lat="45.5002727" lon="10.2741036"><ele>128.0</ele><time>2026-03-24T07:08:16.58Z</time></trkpt><trkpt lat="45.5002008" lon="10.2740102"><ele>128.0</ele><time>2026-03-24T07:08:17.575Z</time></trkpt><trkpt lat="45.5001574" lon="10.2738817"><ele>128.0</ele><time>2026-03-24T07:08:18.579Z</time></trkpt><trkpt lat="45.5001384" lon="10.2737278"><ele>128.0</ele><time>2026-03-24T07:08:19.576Z</time></trkpt><trkpt lat="45.5001339" lon="10.2735576"><ele>128.0</ele><time>2026-03-24T07:08:20.582Z</time></trkpt><trkpt lat="45.5001323" lon="10.2733652"><ele>128.0</ele><time>2026-03-24T07:08:21.583Z</time></trkpt><trkpt lat="45.500142" lon="10.273158"><ele>128.0</ele><time>2026-03-24T07:08:22.583Z</time></trkpt><trkpt lat="45.5001619" lon="10.2729246"><ele>128.0</ele><time>2026-03-24T07:08:23.582Z</time></trkpt><trkpt lat="45.5001912" lon="10.2727588"><ele>128.0</ele><time>2026-03-24T07:08:24.581Z</time></trkpt><trkpt lat="45.5002" lon="10.2726055"><ele>128.0</ele><time>2026-03-24T07:08:25.58Z</time></trkpt><trkpt lat="45.5002083" lon="10.2724697"><ele>128.0</ele><time>2026-03-24T07:08:26.585Z</time></trkpt><trkpt lat="45.5002138" lon="10.27232"><ele>128.0</ele><time>2026-03-24T07:08:27.579Z</time></trkpt><trkpt lat="45.5002411" lon="10.272196"><ele>128.0</ele><time>2026-03-24T07:08:28.584Z</time></trkpt><trkpt lat="45.5003027" lon="10.2720981"><ele>128.0</ele><time>2026-03-24T07:08:29.579Z</time></trkpt><trkpt lat="45.5003867" lon="10.2720338"><ele>128.0</ele><time>2026-03-24T07:08:30.576Z</time></trkpt><trkpt lat="45.5004717" lon="10.2719992"><ele>128.0</ele><time>2026-03-24T07:08:31.582Z</time></trkpt><trkpt lat="45.5005565" lon="10.2719868"><ele>128.0</ele><time>2026-03-24T07:08:32.579Z</time></trkpt><trkpt lat="45.5006495" lon="10.2720097"><ele>128.20000000000002</ele><time>2026-03-24T07:08:33.578Z</time></trkpt><trkpt lat="45.5007492" lon="10.2720767"><ele>128.4</ele><time>2026-03-24T07:08:34.572Z</time></trkpt><trkpt lat="45.5008298" lon="10.2721762"><ele>128.60000000000002</ele><time>2026-03-24T07:08:35.575Z</time></trkpt><trkpt lat="45.5008922" lon="10.2722971"><ele>128.8</ele><time>2026-03-24T07:08:36.574Z</time></trkpt><trkpt lat="45.5009263" lon="10.2724334"><ele>129.0</ele><time>2026-03-24T07:08:37.579Z</time></trkpt><trkpt lat="45.5009258" lon="10.2725777"><ele>129.0</ele><time>2026-03-24T07:08:38.576Z</time></trkpt><trkpt lat="45.5009203" lon="10.272713"><ele>129.0</ele><time>2026-03-24T07:08:39.578Z</time></trkpt><trkpt lat="45.5009257" lon="10.2728432"><ele>129.0</ele><time>2026-03-24T07:08:40.58Z</time></trkpt><trkpt lat="45.5009368" lon="10.2730119"><ele>129.0</ele><time>2026-03-24T07:08:41.575Z</time></trkpt><trkpt lat="45.5009442" lon="10.2732188"><ele>129.0</ele><time>2026-03-24T07:08:42.576Z</time></trkpt><trkpt lat="45.5009488" lon="10.2734266"><ele>129.0</ele><time>2026-03-24T07:08:43.576Z</time></trkpt><trkpt lat="45.5009329" lon="10.2736525"><ele>129.0</ele><time>2026-03-24T07:08:44.585Z</time></trkpt><trkpt lat="45.5009211" lon="10.2738423"><ele>129.0</ele><time>2026-03-24T07:08:45.581Z</time></trkpt><trkpt lat="45.500929" lon="10.2740273"><ele>128.75</ele><time>2026-03-24T07:08:46.587Z</time></trkpt><trkpt lat="45.5009307" lon="10.2742149"><ele>128.5</ele><time>2026-03-24T07:08:47.586Z</time></trkpt><trkpt lat="45.5009444" lon="10.2743963"><ele>128.25</ele><time>2026-03-24T07:08:48.582Z</time></trkpt><trkpt lat="45.5009603" lon="10.2745873"><ele>128.0</ele><time>2026-03-24T07:08:49.582Z</time></trkpt><trkpt lat="45.5009755" lon="10.2748009"><ele>128.0</ele><time>2026-03-24T07:08:50.586Z</time></trkpt><trkpt lat="45.5009947" lon="10.2750309"><ele>128.0</ele><time>2026-03-24T07:08:51.573Z</time></trkpt><trkpt lat="45.5010001" lon="10.2752884"><ele>128.0</ele><time>2026-03-24T07:08:52.586Z</time></trkpt><trkpt lat="45.5009981" lon="10.2755512"><ele>128.66666666666666</ele><time>2026-03-24T07:08:53.583Z</time></trkpt><trkpt lat="45.5010086" lon="10.275792"><ele>129.33333333333334</ele><time>2026-03-24T07:08:54.585Z</time></trkpt><trkpt lat="45.5010376" lon="10.2760384"><ele>130.0</ele><time>2026-03-24T07:08:55.582Z</time></trkpt><trkpt lat="45.5010547" lon="10.276295"><ele>130.0</ele><time>2026-03-24T07:08:56.591Z</time></trkpt><trkpt lat="45.5010923" lon="10.2765309"><ele>130.0</ele><time>2026-03-24T07:08:57.583Z</time></trkpt><trkpt lat="45.5011061" lon="10.2767662"><ele>130.0</ele><time>2026-03-24T07:08:58.592Z</time></trkpt><trkpt lat="45.5011072" lon="10.2770384"><ele>130.0</ele><time>2026-03-24T07:08:59.592Z</time></trkpt><trkpt lat="45.5010969" lon="10.2773122"><ele>130.0</ele><time>2026-03-24T07:09:00.583Z</time></trkpt><trkpt lat="45.5011028" lon="10.2776014"><ele>130.0</ele><time>2026-03-24T07:09:01.591Z</time></trkpt><trkpt lat="45.5011263" lon="10.2778589"><ele>130.33333333333334</ele><time>2026-03-24T07:09:02.586Z</time></trkpt><trkpt lat="45.5011513" lon="10.2781032"><ele>130.66666666666666</ele><time>2026-03-24T07:09:03.584Z</time></trkpt><trkpt lat="45.5011531" lon="10.2783676"><ele>131.0</ele><time>2026-03-24T07:09:04.583Z</time></trkpt><trkpt lat="45.501147" lon="10.2786426"><ele>131.0</ele><time>2026-03-24T07:09:05.585Z</time></trkpt><trkpt lat="45.5011515" lon="10.2789173"><ele>131.0</ele><time>2026-03-24T07:09:06.582Z</time></trkpt><trkpt lat="45.5011753" lon="10.2791718"><ele>131.0</ele><time>2026-03-24T07:09:07.588Z</time></trkpt><trkpt lat="45.5011863" lon="10.2794398"><ele>130.66666666666666</ele><time>2026-03-24T07:09:08.582Z</time></trkpt><trkpt lat="45.5011692" lon="10.2797079"><ele>130.33333333333334</ele><time>2026-03-24T07:09:09.583Z</time></trkpt><trkpt lat="45.501159" lon="10.2799713"><ele>130.0</ele><time>2026-03-24T07:09:10.582Z</time></trkpt><trkpt lat="45.5011525" lon="10.2802433"><ele>130.0</ele><time>2026-03-24T07:09:11.59Z</time></trkpt><trkpt lat="45.501138" lon="10.2805238"><ele>130.0</ele><time>2026-03-24T07:09:12.586Z</time></trkpt><trkpt lat="45.5011308" lon="10.2807939"><ele>130.0</ele><time>2026-03-24T07:09:13.587Z</time></trkpt><trkpt lat="45.5011086" lon="10.281068"><ele>129.66666666666669</ele><time>2026-03-24T07:09:14.581Z</time></trkpt><trkpt lat="45.5010949" lon="10.2813439"><ele>129.33333333333334</ele><time>2026-03-24T07:09:15.585Z</time></trkpt><trkpt lat="45.5010716" lon="10.2815925"><ele>129.0</ele><time>2026-03-24T07:09:16.594Z</time></trkpt><trkpt lat="45.5010455" lon="10.281838"><ele>129.0</ele><time>2026-03-24T07:09:17.589Z</time></trkpt><trkpt lat="45.501011" lon="10.2821155"><ele>129.0</ele><time>2026-03-24T07:09:18.587Z</time></trkpt><trkpt lat="45.5009846" lon="10.2824158"><ele>129.0</ele><time>2026-03-24T07:09:19.585Z</time></trkpt><trkpt lat="45.5009639" lon="10.2826999"><ele>129.0</ele><time>2026-03-24T07:09:20.587Z</time></trkpt><trkpt lat="45.5009327" lon="10.2829736"><ele>129.0</ele><time>2026-03-24T07:09:21.585Z</time></trkpt><trkpt lat="45.5009011" lon="10.2832508"><ele>129.0</ele><time>2026-03-24T07:09:22.594Z</time></trkpt><trkpt lat="45.5008663" lon="10.283535"><ele>129.66666666666666</ele><time>2026-03-24T07:09:23.588Z</time></trkpt><trkpt lat="45.5008352" lon="10.2838064"><ele>130.33333333333331</ele><time>2026-03-24T07:09:24.59Z</time></trkpt><trkpt lat="45.5008077" lon="10.2840666"><ele>131.0</ele><time>2026-03-24T07:09:25.591Z</time></trkpt><trkpt lat="45.5007622" lon="10.2843222"><ele>131.0</ele><time>2026-03-24T07:09:26.593Z</time></trkpt><trkpt lat="45.5007295" lon="10.2846077"><ele>131.0</ele><time>2026-03-24T07:09:27.592Z</time></trkpt><trkpt lat="45.500696" lon="10.2848899"><ele>131.0</ele><time>2026-03-24T07:09:28.592Z</time></trkpt><trkpt lat="45.5006708" lon="10.2851824"><ele>131.0</ele><time>2026-03-24T07:09:29.597Z</time></trkpt><trkpt lat="45.5006399" lon="10.2854695"><ele>131.0</ele><time>2026-03-24T07:09:30.586Z</time></trkpt><trkpt lat="45.5005941" lon="10.2857289"><ele>131.0</ele><time>2026-03-24T07:09:31.584Z</time></trkpt><trkpt lat="45.5005463" lon="10.2860048"><ele>131.33333333333331</ele><time>2026-03-24T07:09:32.581Z</time></trkpt><trkpt lat="45.500488" lon="10.2862697"><ele>131.66666666666666</ele><time>2026-03-24T07:09:33.587Z</time></trkpt><trkpt lat="45.5004461" lon="10.286544"><ele>132.0</ele><time>2026-03-24T07:09:34.595Z</time></trkpt><trkpt lat="45.5004012" lon="10.286809"><ele>132.0</ele><time>2026-03-24T07:09:35.587Z</time></trkpt><trkpt lat="45.5003599" lon="10.2870691"><ele>132.0</ele><time>2026-03-24T07:09:36.585Z</time></trkpt><trkpt lat="45.500334" lon="10.2873414"><ele>132.0</ele><time>2026-03-24T07:09:37.591Z</time></trkpt><trkpt lat="45.500296" lon="10.2876203"><ele>132.0</ele><time>2026-03-24T07:09:38.59Z</time></trkpt><trkpt lat="45.500273" lon="10.2878897"><ele>132.0</ele><time>2026-03-24T07:09:39.586Z</time></trkpt><trkpt lat="45.5002414" lon="10.2881672"><ele>132.0</ele><time>2026-03-24T07:09:40.589Z</time></trkpt><trkpt lat="45.5002145" lon="10.2884432"><ele>132.33333333333334</ele><time>2026-03-24T07:09:41.581Z</time></trkpt><trkpt lat="45.5001805" lon="10.2887269"><ele>132.66666666666669</ele><time>2026-03-24T07:09:42.585Z</time></trkpt><trkpt lat="45.5001528" lon="10.2890057"><ele>133.0</ele><time>2026-03-24T07:09:43.587Z</time></trkpt><trkpt lat="45.5001202" lon="10.2892687"><ele>133.33333333333334</ele><time>2026-03-24T07:09:44.587Z</time></trkpt><trkpt lat="45.5000891" lon="10.2895317"><ele>133.66666666666666</ele><time>2026-03-24T07:09:45.582Z</time></trkpt><trkpt lat="45.5000622" lon="10.2897848"><ele>134.0</ele><time>2026-03-24T07:09:46.589Z</time></trkpt><trkpt lat="45.5000344" lon="10.2900501"><ele>134.0</ele><time>2026-03-24T07:09:47.59Z</time></trkpt><trkpt lat="45.5000112" lon="10.2903161"><ele>134.0</ele><time>2026-03-24T07:09:48.589Z</time></trkpt><trkpt lat="45.4999869" lon="10.2905735"><ele>134.0</ele><time>2026-03-24T07:09:49.586Z</time></trkpt><trkpt lat="45.4999634" lon="10.2908421"><ele>134.33333333333331</ele><time>2026-03-24T07:09:50.589Z</time></trkpt><trkpt lat="45.4999267" lon="10.2910924"><ele>134.66666666666666</ele><time>2026-03-24T07:09:51.594Z</time></trkpt><trkpt lat="45.4998922" lon="10.2913399"><ele>135.0</ele><time>2026-03-24T07:09:52.595Z</time></trkpt><trkpt lat="45.4998635" lon="10.2916055"><ele>135.33333333333334</ele><time>2026-03-24T07:09:53.592Z</time></trkpt><trkpt lat="45.4998204" lon="10.2918528"><ele>135.66666666666669</ele><time>2026-03-24T07:09:54.592Z</time></trkpt><trkpt lat="45.4997935" lon="10.2921204"><ele>136.0</ele><time>2026-03-24T07:09:55.583Z</time></trkpt><trkpt lat="45.4997485" lon="10.2923798"><ele>136.0</ele><time>2026-03-24T07:09:56.591Z</time></trkpt><trkpt lat="45.4997078" lon="10.2926495"><ele>136.0</ele><time>2026-03-24T07:09:57.581Z</time></trkpt><trkpt lat="45.4996682" lon="10.2929085"><ele>136.0</ele><time>2026-03-24T07:09:58.585Z</time></trkpt><trkpt lat="45.4996351" lon="10.2931472"><ele>136.0</ele><time>2026-03-24T07:09:59.587Z</time></trkpt><trkpt lat="45.4995968" lon="10.2934115"><ele>136.0</ele><time>2026-03-24T07:10:00.581Z</time></trkpt><trkpt lat="45.4995744" lon="10.2936831"><ele>136.0</ele><time>2026-03-24T07:10:01.591Z</time></trkpt><trkpt lat="45.4995459" lon="10.2939308"><ele>136.66666666666669</ele><time>2026-03-24T07:10:02.586Z</time></trkpt><trkpt lat="45.4995074" lon="10.2941711"><ele>137.33333333333334</ele><time>2026-03-24T07:10:03.586Z</time></trkpt><trkpt lat="45.49946" lon="10.2944229"><ele>138.0</ele><time>2026-03-24T07:10:04.586Z</time></trkpt><trkpt lat="45.4994314" lon="10.2946813"><ele>137.33333333333334</ele><time>2026-03-24T07:10:05.586Z</time></trkpt><trkpt lat="45.4994074" lon="10.2949256"><ele>136.66666666666669</ele><time>2026-03-24T07:10:06.591Z</time></trkpt><trkpt lat="45.4993708" lon="10.2951744"><ele>136.0</ele><time>2026-03-24T07:10:07.587Z</time></trkpt><trkpt lat="45.4993433" lon="10.2954149"><ele>136.0</ele><time>2026-03-24T07:10:08.59Z</time></trkpt><trkpt lat="45.4993178" lon="10.2956684"><ele>136.0</ele><time>2026-03-24T07:10:09.587Z</time></trkpt><trkpt lat="45.4992956" lon="10.2959273"><ele>136.0</ele><time>2026-03-24T07:10:10.589Z</time></trkpt><trkpt lat="45.4992547" lon="10.2961656"><ele>136.0</ele><time>2026-03-24T07:10:11.585Z</time></trkpt><trkpt lat="45.499222" lon="10.2964121"><ele>136.0</ele><time>2026-03-24T07:10:12.588Z</time></trkpt><trkpt lat="45.4992016" lon="10.2966617"><ele>136.0</ele><time>2026-03-24T07:10:13.591Z</time></trkpt><trkpt lat="45.4991712" lon="10.2969094"><ele>136.0</ele><time>2026-03-24T07:10:14.585Z</time></trkpt><trkpt lat="45.4991469" lon="10.2971571"><ele>136.0</ele><time>2026-03-24T07:10:15.59Z</time></trkpt><trkpt lat="45.499127" lon="10.2974123"><ele>136.0</ele><time>2026-03-24T07:10:16.585Z</time></trkpt><trkpt lat="45.4990981" lon="10.2976607"><ele>135.66666666666669</ele><time>2026-03-24T07:10:17.588Z</time></trkpt><trkpt lat="45.4990609" lon="10.2979142"><ele>135.33333333333334</ele><time>2026-03-24T07:10:18.581Z</time></trkpt><trkpt lat="45.4990348" lon="10.2981528"><ele>135.0</ele><time>2026-03-24T07:10:19.591Z</time></trkpt><trkpt lat="45.4989996" lon="10.2983961"><ele>135.66666666666666</ele><time>2026-03-24T07:10:20.585Z</time></trkpt><trkpt lat="45.4989825" lon="10.2986578"><ele>136.33333333333331</ele><time>2026-03-24T07:10:21.592Z</time></trkpt><trkpt lat="45.4989441" lon="10.2989092"><ele>137.0</ele><time>2026-03-24T07:10:22.581Z</time></trkpt><trkpt lat="45.4989032" lon="10.2991632"><ele>137.33333333333331</ele><time>2026-03-24T07:10:23.583Z</time></trkpt><trkpt lat="45.4988624" lon="10.2994239"><ele>137.66666666666666</ele><time>2026-03-24T07:10:24.583Z</time></trkpt><trkpt lat="45.4988378" lon="10.2996841"><ele>138.0</ele><time>2026-03-24T07:10:25.589Z</time></trkpt><trkpt lat="45.4987975" lon="10.2999397"><ele>137.0</ele><time>2026-03-24T07:10:26.581Z</time></trkpt><trkpt lat="45.4987749" lon="10.3002088"><ele>136.0</ele><time>2026-03-24T07:10:27.586Z</time></trkpt><trkpt lat="45.4987651" lon="10.3004648"><ele>135.0</ele><time>2026-03-24T07:10:28.604Z</time></trkpt><trkpt lat="45.4987459" lon="10.300733"><ele>135.0</ele><time>2026-03-24T07:10:29.581Z</time></trkpt><trkpt lat="45.498717" lon="10.3009963"><ele>135.0</ele><time>2026-03-24T07:10:30.59Z</time></trkpt><trkpt lat="45.4986804" lon="10.3012497"><ele>135.0</ele><time>2026-03-24T07:10:31.58Z</time></trkpt><trkpt lat="45.498649" lon="10.3015119"><ele>135.0</ele><time>2026-03-24T07:10:32.584Z</time></trkpt><trkpt lat="45.498622" lon="10.3017784"><ele>135.0</ele><time>2026-03-24T07:10:33.581Z</time></trkpt><trkpt lat="45.4985942" lon="10.3020379"><ele>135.0</ele><time>2026-03-24T07:10:34.585Z</time></trkpt><trkpt lat="45.4985672" lon="10.3022961"><ele>135.33333333333334</ele><time>2026-03-24T07:10:35.586Z</time></trkpt><trkpt lat="45.4985395" lon="10.3025693"><ele>135.66666666666669</ele><time>2026-03-24T07:10:36.584Z</time></trkpt><trkpt lat="45.4985191" lon="10.3028379"><ele>136.0</ele><time>2026-03-24T07:10:37.587Z</time></trkpt><trkpt lat="45.498499" lon="10.3031162"><ele>136.66666666666669</ele><time>2026-03-24T07:10:38.583Z</time></trkpt><trkpt lat="45.4984682" lon="10.3033655"><ele>137.33333333333334</ele><time>2026-03-24T07:10:39.586Z</time></trkpt><trkpt lat="45.4984304" lon="10.303631"><ele>138.0</ele><time>2026-03-24T07:10:40.584Z</time></trkpt><trkpt lat="45.4983927" lon="10.3038865"><ele>138.0</ele><time>2026-03-24T07:10:41.589Z</time></trkpt><trkpt lat="45.4983587" lon="10.3041394"><ele>138.0</ele><time>2026-03-24T07:10:42.588Z</time></trkpt><trkpt lat="45.4983276" lon="10.30441"><ele>138.0</ele><time>2026-03-24T07:10:43.591Z</time></trkpt><trkpt lat="45.4982997" lon="10.3046659"><ele>137.0</ele><time>2026-03-24T07:10:44.589Z</time></trkpt><trkpt lat="45.4982735" lon="10.304925"><ele>136.0</ele><time>2026-03-24T07:10:45.588Z</time></trkpt><trkpt lat="45.4982407" lon="10.3051839"><ele>135.0</ele><time>2026-03-24T07:10:46.598Z</time></trkpt><trkpt lat="45.498211" lon="10.3054156"><ele>135.66666666666666</ele><time>2026-03-24T07:10:47.581Z</time></trkpt><trkpt lat="45.4981656" lon="10.305666"><ele>136.33333333333331</ele><time>2026-03-24T07:10:48.586Z</time></trkpt><trkpt lat="45.4981287" lon="10.3059191"><ele>137.0</ele><time>2026-03-24T07:10:49.588Z</time></trkpt><trkpt lat="45.4980894" lon="10.3061613"><ele>137.0</ele><time>2026-03-24T07:10:50.593Z</time></trkpt><trkpt lat="45.4980509" lon="10.3063984"><ele>137.0</ele><time>2026-03-24T07:10:51.595Z</time></trkpt><trkpt lat="45.4980112" lon="10.3066298"><ele>137.0</ele><time>2026-03-24T07:10:52.586Z</time></trkpt><trkpt lat="45.4979793" lon="10.3068322"><ele>137.2</ele><time>2026-03-24T07:10:53.586Z</time></trkpt><trkpt lat="45.4979674" lon="10.3069895"><ele>137.39999999999998</ele><time>2026-03-24T07:10:54.581Z</time></trkpt><trkpt lat="45.4979628" lon="10.3071226"><ele>137.60000000000002</ele><time>2026-03-24T07:10:55.59Z</time></trkpt><trkpt lat="45.4979527" lon="10.3072222"><ele>137.8</ele><time>2026-03-24T07:10:56.587Z</time></trkpt><trkpt lat="45.4979524" lon="10.3073717"><ele>138.0</ele><time>2026-03-24T07:10:58.588Z</time></trkpt><trkpt lat="45.4979344" lon="10.3074725"><ele>138.0</ele><time>2026-03-24T07:11:00.592Z</time></trkpt><trkpt lat="45.4979225" lon="10.3075995"><ele>138.0</ele><time>2026-03-24T07:11:02.583Z</time></trkpt><trkpt lat="45.4979094" lon="10.3077139"><ele>138.0</ele><time>2026-03-24T07:11:04.599Z</time></trkpt><trkpt lat="45.4978892" lon="10.3078239"><ele>138.0</ele><time>2026-03-24T07:11:06.592Z</time></trkpt><trkpt lat="45.4978533" lon="10.3080021"><ele>138.0</ele><time>2026-03-24T07:11:08.588Z</time></trkpt><trkpt lat="45.497827" lon="10.3081363"><ele>138.25</ele><time>2026-03-24T07:11:09.585Z</time></trkpt><trkpt lat="45.4978031" lon="10.3082831"><ele>138.5</ele><time>2026-03-24T07:11:10.588Z</time></trkpt><trkpt lat="45.4977801" lon="10.3084499"><ele>138.75</ele><time>2026-03-24T07:11:11.587Z</time></trkpt><trkpt lat="45.4977617" lon="10.3086284"><ele>139.0</ele><time>2026-03-24T07:11:12.586Z</time></trkpt><trkpt lat="45.4977379" lon="10.3088274"><ele>138.75</ele><time>2026-03-24T07:11:13.588Z</time></trkpt><trkpt lat="45.4977185" lon="10.3090376"><ele>138.5</ele><time>2026-03-24T07:11:14.59Z</time></trkpt><trkpt lat="45.4977045" lon="10.3092401"><ele>138.25</ele><time>2026-03-24T07:11:15.58Z</time></trkpt><trkpt lat="45.4976942" lon="10.3093907"><ele>138.0</ele><time>2026-03-24T07:11:16.582Z</time></trkpt><trkpt lat="45.4976901" lon="10.3095321"><ele>138.0</ele><time>2026-03-24T07:11:17.592Z</time></trkpt><trkpt lat="45.4976642" lon="10.30966"><ele>138.0</ele><time>2026-03-24T07:11:18.589Z</time></trkpt><trkpt lat="45.4976408" lon="10.309798"><ele>138.0</ele><time>2026-03-24T07:11:19.59Z</time></trkpt><trkpt lat="45.4976129" lon="10.3099525"><ele>138.0</ele><time>2026-03-24T07:11:20.585Z</time></trkpt><trkpt lat="45.4975909" lon="10.3100974"><ele>138.0</ele><time>2026-03-24T07:11:21.59Z</time></trkpt><trkpt lat="45.4975691" lon="10.3102387"><ele>138.0</ele><time>2026-03-24T07:11:22.598Z</time></trkpt><trkpt lat="45.4975526" lon="10.310366"><ele>138.0</ele><time>2026-03-24T07:11:23.588Z</time></trkpt><trkpt lat="45.4975393" lon="10.3104897"><ele>138.0</ele><time>2026-03-24T07:11:24.589Z</time></trkpt><trkpt lat="45.497524" lon="10.3106171"><ele>138.0</ele><time>2026-03-24T07:11:25.584Z</time></trkpt><trkpt lat="45.4975058" lon="10.310742"><ele>138.0</ele><time>2026-03-24T07:11:26.592Z</time></trkpt><trkpt lat="45.4974935" lon="10.3108712"><ele>138.0</ele><time>2026-03-24T07:11:27.583Z</time></trkpt><trkpt lat="45.4974805" lon="10.3110116"><ele>138.0</ele><time>2026-03-24T07:11:28.591Z</time></trkpt><trkpt lat="45.4974641" lon="10.3111668"><ele>138.0</ele><time>2026-03-24T07:11:29.591Z</time></trkpt><trkpt lat="45.4974435" lon="10.3113304"><ele>138.0</ele><time>2026-03-24T07:11:30.59Z</time></trkpt><trkpt lat="45.4974252" lon="10.3115059"><ele>138.0</ele><time>2026-03-24T07:11:31.59Z</time></trkpt><trkpt lat="45.4974037" lon="10.3116956"><ele>138.0</ele><time>2026-03-24T07:11:32.586Z</time></trkpt><trkpt lat="45.4973836" lon="10.3118908"><ele>138.0</ele><time>2026-03-24T07:11:33.584Z</time></trkpt><trkpt lat="45.4973785" lon="10.3120726"><ele>138.0</ele><time>2026-03-24T07:11:34.58Z</time></trkpt><trkpt lat="45.4973561" lon="10.3122462"><ele>138.0</ele><time>2026-03-24T07:11:35.586Z</time></trkpt><trkpt lat="45.4973314" lon="10.3124276"><ele>138.0</ele><time>2026-03-24T07:11:36.582Z</time></trkpt><trkpt lat="45.4973112" lon="10.3126196"><ele>138.0</ele><time>2026-03-24T07:11:37.588Z</time></trkpt><trkpt lat="45.497275" lon="10.3127923"><ele>138.0</ele><time>2026-03-24T07:11:38.587Z</time></trkpt><trkpt lat="45.4972386" lon="10.3129894"><ele>138.25</ele><time>2026-03-24T07:11:39.588Z</time></trkpt><trkpt lat="45.4972073" lon="10.3131798"><ele>138.5</ele><time>2026-03-24T07:11:40.589Z</time></trkpt><trkpt lat="45.4971741" lon="10.3133727"><ele>138.75</ele><time>2026-03-24T07:11:41.59Z</time></trkpt><trkpt lat="45.4971194" lon="10.3135819"><ele>139.0</ele><time>2026-03-24T07:11:42.576Z</time></trkpt><trkpt lat="45.4970832" lon="10.3137951"><ele>139.25</ele><time>2026-03-24T07:11:43.582Z</time></trkpt><trkpt lat="45.4970589" lon="10.3140022"><ele>139.5</ele><time>2026-03-24T07:11:44.583Z</time></trkpt><trkpt lat="45.4970296" lon="10.3142062"><ele>139.75</ele><time>2026-03-24T07:11:45.587Z</time></trkpt><trkpt lat="45.4970119" lon="10.3144058"><ele>140.0</ele><time>2026-03-24T07:11:46.583Z</time></trkpt><trkpt lat="45.4969916" lon="10.3146159"><ele>139.75</ele><time>2026-03-24T07:11:47.586Z</time></trkpt><trkpt lat="45.4969552" lon="10.3148144"><ele>139.5</ele><time>2026-03-24T07:11:48.586Z</time></trkpt><trkpt lat="45.4969272" lon="10.3150294"><ele>139.25</ele><time>2026-03-24T07:11:49.59Z</time></trkpt><trkpt lat="45.4969043" lon="10.3152386"><ele>139.0</ele><time>2026-03-24T07:11:50.588Z</time></trkpt><trkpt lat="45.4968739" lon="10.315451"><ele>138.5</ele><time>2026-03-24T07:11:51.584Z</time></trkpt><trkpt lat="45.4968498" lon="10.3156526"><ele>138.0</ele><time>2026-03-24T07:11:52.586Z</time></trkpt><trkpt lat="45.4968145" lon="10.3158623"><ele>137.5</ele><time>2026-03-24T07:11:53.587Z</time></trkpt><trkpt lat="45.496764" lon="10.3160555"><ele>137.0</ele><time>2026-03-24T07:11:54.589Z</time></trkpt><trkpt lat="45.4967137" lon="10.3162411"><ele>136.5</ele><time>2026-03-24T07:11:55.589Z</time></trkpt><trkpt lat="45.4966599" lon="10.3164405"><ele>136.0</ele><time>2026-03-24T07:11:56.59Z</time></trkpt><trkpt lat="45.4965381" lon="10.3168332"><ele>136.0</ele><time>2026-03-24T07:11:58.595Z</time></trkpt><trkpt lat="45.4964734" lon="10.3170094"><ele>136.0</ele><time>2026-03-24T07:11:59.588Z</time></trkpt><trkpt lat="45.4964131" lon="10.3171766"><ele>136.0</ele><time>2026-03-24T07:12:00.585Z</time></trkpt><trkpt lat="45.4963364" lon="10.3173433"><ele>136.0</ele><time>2026-03-24T07:12:01.593Z</time></trkpt><trkpt lat="45.4962628" lon="10.3175029"><ele>137.0</ele><time>2026-03-24T07:12:02.59Z</time></trkpt><trkpt lat="45.496175" lon="10.3176591"><ele>138.0</ele><time>2026-03-24T07:12:03.586Z</time></trkpt><trkpt lat="45.496091" lon="10.3178314"><ele>139.0</ele><time>2026-03-24T07:12:04.587Z</time></trkpt><trkpt lat="45.4960107" lon="10.3179821"><ele>140.0</ele><time>2026-03-24T07:12:05.583Z</time></trkpt><trkpt lat="45.4959269" lon="10.3181166"><ele>140.0</ele><time>2026-03-24T07:12:06.589Z</time></trkpt><trkpt lat="45.4958409" lon="10.3182381"><ele>140.0</ele><time>2026-03-24T07:12:07.587Z</time></trkpt><trkpt lat="45.4957501" lon="10.3183597"><ele>140.0</ele><time>2026-03-24T07:12:08.586Z</time></trkpt><trkpt lat="45.4956611" lon="10.3184671"><ele>140.0</ele><time>2026-03-24T07:12:09.588Z</time></trkpt><trkpt lat="45.4955622" lon="10.3185639"><ele>140.0</ele><time>2026-03-24T07:12:10.587Z</time></trkpt><trkpt lat="45.4954814" lon="10.3186721"><ele>140.0</ele><time>2026-03-24T07:12:11.583Z</time></trkpt><trkpt lat="45.4954004" lon="10.3187962"><ele>140.0</ele><time>2026-03-24T07:12:12.59Z</time></trkpt><trkpt lat="45.4953147" lon="10.3189148"><ele>140.0</ele><time>2026-03-24T07:12:13.583Z</time></trkpt><trkpt lat="45.4952373" lon="10.319023"><ele>140.0</ele><time>2026-03-24T07:12:14.589Z</time></trkpt><trkpt lat="45.49516" lon="10.3191359"><ele>140.0</ele><time>2026-03-24T07:12:15.588Z</time></trkpt><trkpt lat="45.4950852" lon="10.3192527"><ele>140.0</ele><time>2026-03-24T07:12:16.597Z</time></trkpt><trkpt lat="45.4950106" lon="10.3193679"><ele>140.0</ele><time>2026-03-24T07:12:17.588Z</time></trkpt><trkpt lat="45.4949394" lon="10.3194693"><ele>140.0</ele><time>2026-03-24T07:12:18.583Z</time></trkpt><trkpt lat="45.4948674" lon="10.3195782"><ele>140.0</ele><time>2026-03-24T07:12:19.59Z</time></trkpt><trkpt lat="45.4947868" lon="10.3196954"><ele>140.0</ele><time>2026-03-24T07:12:20.583Z</time></trkpt><trkpt lat="45.4947015" lon="10.3198124"><ele>140.0</ele><time>2026-03-24T07:12:21.59Z</time></trkpt><trkpt lat="45.4946208" lon="10.3199321"><ele>140.0</ele><time>2026-03-24T07:12:22.586Z</time></trkpt><trkpt lat="45.4945308" lon="10.3200561"><ele>140.0</ele><time>2026-03-24T07:12:23.587Z</time></trkpt><trkpt lat="45.4944413" lon="10.3201806"><ele>140.0</ele><time>2026-03-24T07:12:24.586Z</time></trkpt><trkpt lat="45.4943519" lon="10.3203098"><ele>140.0</ele><time>2026-03-24T07:12:25.58Z</time></trkpt><trkpt lat="45.4942603" lon="10.3204353"><ele>140.0</ele><time>2026-03-24T07:12:26.593Z</time></trkpt><trkpt lat="45.4941631" lon="10.320566"><ele>140.25</ele><time>2026-03-24T07:12:27.59Z</time></trkpt><trkpt lat="45.494067" lon="10.3206997"><ele>140.5</ele><time>2026-03-24T07:12:28.584Z</time></trkpt><trkpt lat="45.4939663" lon="10.3208103"><ele>140.75</ele><time>2026-03-24T07:12:29.579Z</time></trkpt><trkpt lat="45.4938627" lon="10.3209564"><ele>141.0</ele><time>2026-03-24T07:12:30.588Z</time></trkpt><trkpt lat="45.4937419" lon="10.3211001"><ele>140.33333333333334</ele><time>2026-03-24T07:12:31.588Z</time></trkpt><trkpt lat="45.4936241" lon="10.321249"><ele>139.66666666666669</ele><time>2026-03-24T07:12:32.591Z</time></trkpt><trkpt lat="45.4935052" lon="10.3213771"><ele>139.0</ele><time>2026-03-24T07:12:33.588Z</time></trkpt><trkpt lat="45.4933988" lon="10.321528"><ele>139.0</ele><time>2026-03-24T07:12:34.588Z</time></trkpt><trkpt lat="45.4932809" lon="10.3216894"><ele>139.0</ele><time>2026-03-24T07:12:35.587Z</time></trkpt><trkpt lat="45.4931571" lon="10.3218442"><ele>139.0</ele><time>2026-03-24T07:12:36.58Z</time></trkpt><trkpt lat="45.4930388" lon="10.3220137"><ele>139.0</ele><time>2026-03-24T07:12:37.587Z</time></trkpt><trkpt lat="45.4929291" lon="10.3221857"><ele>139.0</ele><time>2026-03-24T07:12:38.585Z</time></trkpt><trkpt lat="45.4928224" lon="10.3223512"><ele>139.0</ele><time>2026-03-24T07:12:39.579Z</time></trkpt><trkpt lat="45.4927099" lon="10.3225243"><ele>139.0</ele><time>2026-03-24T07:12:40.588Z</time></trkpt><trkpt lat="45.4926002" lon="10.3226848"><ele>139.0</ele><time>2026-03-24T07:12:41.587Z</time></trkpt><trkpt lat="45.4924778" lon="10.3228424"><ele>139.0</ele><time>2026-03-24T07:12:42.585Z</time></trkpt><trkpt lat="45.4923661" lon="10.3230059"><ele>139.0</ele><time>2026-03-24T07:12:43.584Z</time></trkpt><trkpt lat="45.4922662" lon="10.3231563"><ele>139.0</ele><time>2026-03-24T07:12:44.587Z</time></trkpt><trkpt lat="45.4921694" lon="10.3233252"><ele>139.0</ele><time>2026-03-24T07:12:45.591Z</time></trkpt><trkpt lat="45.4920666" lon="10.3234773"><ele>139.0</ele><time>2026-03-24T07:12:46.587Z</time></trkpt><trkpt lat="45.4919515" lon="10.3236291"><ele>139.0</ele><time>2026-03-24T07:12:47.591Z</time></trkpt><trkpt lat="45.4918426" lon="10.3237954"><ele>139.0</ele><time>2026-03-24T07:12:48.579Z</time></trkpt><trkpt lat="45.4917199" lon="10.3239555"><ele>139.0</ele><time>2026-03-24T07:12:49.587Z</time></trkpt><trkpt lat="45.4915976" lon="10.3241151"><ele>138.66666666666669</ele><time>2026-03-24T07:12:50.587Z</time></trkpt><trkpt lat="45.4914788" lon="10.3242878"><ele>138.33333333333334</ele><time>2026-03-24T07:12:51.579Z</time></trkpt><trkpt lat="45.4913571" lon="10.324453"><ele>138.0</ele><time>2026-03-24T07:12:52.587Z</time></trkpt><trkpt lat="45.4912362" lon="10.324614"><ele>138.33333333333334</ele><time>2026-03-24T07:12:53.585Z</time></trkpt><trkpt lat="45.4911213" lon="10.3247805"><ele>138.66666666666669</ele><time>2026-03-24T07:12:54.58Z</time></trkpt><trkpt lat="45.4909986" lon="10.3249381"><ele>139.0</ele><time>2026-03-24T07:12:55.583Z</time></trkpt><trkpt lat="45.4908811" lon="10.3251029"><ele>139.0</ele><time>2026-03-24T07:12:56.584Z</time></trkpt><trkpt lat="45.4907608" lon="10.3252684"><ele>139.0</ele><time>2026-03-24T07:12:57.583Z</time></trkpt><trkpt lat="45.4906352" lon="10.3254351"><ele>139.0</ele><time>2026-03-24T07:12:58.583Z</time></trkpt><trkpt lat="45.4905218" lon="10.3256058"><ele>138.66666666666669</ele><time>2026-03-24T07:12:59.586Z</time></trkpt><trkpt lat="45.4903952" lon="10.3257674"><ele>138.33333333333334</ele><time>2026-03-24T07:13:00.579Z</time></trkpt><trkpt lat="45.4902834" lon="10.325933"><ele>138.0</ele><time>2026-03-24T07:13:01.582Z</time></trkpt><trkpt lat="45.4901778" lon="10.3261009"><ele>138.0</ele><time>2026-03-24T07:13:02.581Z</time></trkpt><trkpt lat="45.4900752" lon="10.3262638"><ele>138.0</ele><time>2026-03-24T07:13:03.584Z</time></trkpt><trkpt lat="45.4899635" lon="10.3264352"><ele>138.0</ele><time>2026-03-24T07:13:04.584Z</time></trkpt><trkpt lat="45.4898319" lon="10.326591"><ele>138.33333333333334</ele><time>2026-03-24T07:13:05.584Z</time></trkpt><trkpt lat="45.4897097" lon="10.3267608"><ele>138.66666666666669</ele><time>2026-03-24T07:13:06.582Z</time></trkpt><trkpt lat="45.4895777" lon="10.3269217"><ele>139.0</ele><time>2026-03-24T07:13:07.578Z</time></trkpt><trkpt lat="45.4894597" lon="10.3270564"><ele>139.0</ele><time>2026-03-24T07:13:08.583Z</time></trkpt><trkpt lat="45.4893425" lon="10.3271943"><ele>139.0</ele><time>2026-03-24T07:13:09.591Z</time></trkpt><trkpt lat="45.4892393" lon="10.3273511"><ele>139.0</ele><time>2026-03-24T07:13:10.587Z</time></trkpt><trkpt lat="45.4891306" lon="10.3275171"><ele>138.66666666666669</ele><time>2026-03-24T07:13:11.581Z</time></trkpt><trkpt lat="45.4889557" lon="10.3276424"><ele>138.33333333333334</ele><time>2026-03-24T07:13:12.583Z</time></trkpt><trkpt lat="45.4888296" lon="10.3277811"><ele>138.0</ele><time>2026-03-24T07:13:13.578Z</time></trkpt><trkpt lat="45.4886976" lon="10.3279311"><ele>138.66666666666666</ele><time>2026-03-24T07:13:14.585Z</time></trkpt><trkpt lat="45.4885673" lon="10.3280993"><ele>139.33333333333331</ele><time>2026-03-24T07:13:15.578Z</time></trkpt><trkpt lat="45.4884469" lon="10.328271"><ele>140.0</ele><time>2026-03-24T07:13:16.584Z</time></trkpt><trkpt lat="45.4883338" lon="10.328447"><ele>140.0</ele><time>2026-03-24T07:13:17.582Z</time></trkpt><trkpt lat="45.4882134" lon="10.3286312"><ele>140.0</ele><time>2026-03-24T07:13:18.575Z</time></trkpt><trkpt lat="45.4881193" lon="10.3288212"><ele>140.0</ele><time>2026-03-24T07:13:19.585Z</time></trkpt><trkpt lat="45.4879872" lon="10.3289807"><ele>139.33333333333331</ele><time>2026-03-24T07:13:20.577Z</time></trkpt><trkpt lat="45.4879017" lon="10.3291728"><ele>138.66666666666666</ele><time>2026-03-24T07:13:21.579Z</time></trkpt><trkpt lat="45.487807" lon="10.3293644"><ele>138.0</ele><time>2026-03-24T07:13:22.585Z</time></trkpt><trkpt lat="45.4877047" lon="10.3295554"><ele>137.66666666666666</ele><time>2026-03-24T07:13:23.583Z</time></trkpt><trkpt lat="45.4875808" lon="10.3297405"><ele>137.33333333333331</ele><time>2026-03-24T07:13:24.586Z</time></trkpt><trkpt lat="45.4874715" lon="10.3299093"><ele>137.0</ele><time>2026-03-24T07:13:25.583Z</time></trkpt><trkpt lat="45.4873599" lon="10.33007"><ele>137.0</ele><time>2026-03-24T07:13:26.579Z</time></trkpt><trkpt lat="45.4872365" lon="10.3302425"><ele>137.0</ele><time>2026-03-24T07:13:27.585Z</time></trkpt><trkpt lat="45.4871166" lon="10.3304231"><ele>137.0</ele><time>2026-03-24T07:13:28.586Z</time></trkpt><trkpt lat="45.4869913" lon="10.3305962"><ele>137.0</ele><time>2026-03-24T07:13:29.58Z</time></trkpt><trkpt lat="45.4868792" lon="10.3307908"><ele>137.0</ele><time>2026-03-24T07:13:30.58Z</time></trkpt><trkpt lat="45.4867543" lon="10.3309758"><ele>137.0</ele><time>2026-03-24T07:13:31.585Z</time></trkpt><trkpt lat="45.486625" lon="10.3311436"><ele>137.0</ele><time>2026-03-24T07:13:32.583Z</time></trkpt><trkpt lat="45.4864911" lon="10.3313217"><ele>137.0</ele><time>2026-03-24T07:13:33.583Z</time></trkpt><trkpt lat="45.4863599" lon="10.3315058"><ele>137.0</ele><time>2026-03-24T07:13:34.585Z</time></trkpt><trkpt lat="45.4862303" lon="10.3316772"><ele>137.0</ele><time>2026-03-24T07:13:35.583Z</time></trkpt><trkpt lat="45.486103" lon="10.3318553"><ele>137.0</ele><time>2026-03-24T07:13:36.58Z</time></trkpt><trkpt lat="45.4859716" lon="10.3320252"><ele>137.0</ele><time>2026-03-24T07:13:37.582Z</time></trkpt><trkpt lat="45.4858403" lon="10.3321932"><ele>137.66666666666666</ele><time>2026-03-24T07:13:38.58Z</time></trkpt><trkpt lat="45.4857206" lon="10.3323577"><ele>138.33333333333334</ele><time>2026-03-24T07:13:39.574Z</time></trkpt><trkpt lat="45.4856038" lon="10.332497"><ele>139.0</ele><time>2026-03-24T07:13:40.573Z</time></trkpt><trkpt lat="45.4854852" lon="10.3326431"><ele>138.5</ele><time>2026-03-24T07:13:41.579Z</time></trkpt><trkpt lat="45.4853836" lon="10.3327907"><ele>138.0</ele><time>2026-03-24T07:13:42.579Z</time></trkpt><trkpt lat="45.4852888" lon="10.3329083"><ele>137.5</ele><time>2026-03-24T07:13:43.586Z</time></trkpt><trkpt lat="45.4851783" lon="10.3330563"><ele>137.0</ele><time>2026-03-24T07:13:44.582Z</time></trkpt><trkpt lat="45.4850801" lon="10.3332086"><ele>136.66666666666666</ele><time>2026-03-24T07:13:45.582Z</time></trkpt><trkpt lat="45.4849448" lon="10.3333711"><ele>136.33333333333334</ele><time>2026-03-24T07:13:46.596Z</time></trkpt><trkpt lat="45.4848352" lon="10.3335327"><ele>136.0</ele><time>2026-03-24T07:13:47.59Z</time></trkpt><trkpt lat="45.4847307" lon="10.3336786"><ele>136.0</ele><time>2026-03-24T07:13:48.585Z</time></trkpt><trkpt lat="45.4846281" lon="10.3338746"><ele>136.0</ele><time>2026-03-24T07:13:49.586Z</time></trkpt><trkpt lat="45.4845144" lon="10.3340306"><ele>136.0</ele><time>2026-03-24T07:13:50.587Z</time></trkpt><trkpt lat="45.4843929" lon="10.3341847"><ele>137.33333333333334</ele><time>2026-03-24T07:13:51.591Z</time></trkpt><trkpt lat="45.4842775" lon="10.3343425"><ele>138.66666666666666</ele><time>2026-03-24T07:13:52.58Z</time></trkpt><trkpt lat="45.4841828" lon="10.3345014"><ele>140.0</ele><time>2026-03-24T07:13:53.581Z</time></trkpt><trkpt lat="45.4840682" lon="10.3346495"><ele>139.66666666666666</ele><time>2026-03-24T07:13:54.582Z</time></trkpt><trkpt lat="45.4839619" lon="10.3348049"><ele>139.33333333333334</ele><time>2026-03-24T07:13:55.576Z</time></trkpt><trkpt lat="45.4838528" lon="10.3349495"><ele>139.0</ele><time>2026-03-24T07:13:56.592Z</time></trkpt><trkpt lat="45.48374" lon="10.3350973"><ele>139.0</ele><time>2026-03-24T07:13:57.576Z</time></trkpt><trkpt lat="45.4836243" lon="10.3352471"><ele>139.0</ele><time>2026-03-24T07:13:58.581Z</time></trkpt><trkpt lat="45.4835217" lon="10.3353976"><ele>139.0</ele><time>2026-03-24T07:13:59.587Z</time></trkpt><trkpt lat="45.4834123" lon="10.3355518"><ele>138.33333333333334</ele><time>2026-03-24T07:14:00.583Z</time></trkpt><trkpt lat="45.4833066" lon="10.3357115"><ele>137.66666666666666</ele><time>2026-03-24T07:14:01.584Z</time></trkpt><trkpt lat="45.4831855" lon="10.3358711"><ele>137.0</ele><time>2026-03-24T07:14:02.581Z</time></trkpt><trkpt lat="45.4830669" lon="10.3360389"><ele>137.0</ele><time>2026-03-24T07:14:03.583Z</time></trkpt><trkpt lat="45.482937" lon="10.3362079"><ele>137.0</ele><time>2026-03-24T07:14:04.6Z</time></trkpt><trkpt lat="45.4828105" lon="10.3363969"><ele>137.0</ele><time>2026-03-24T07:14:05.58Z</time></trkpt><trkpt lat="45.4826635" lon="10.336582"><ele>137.66666666666666</ele><time>2026-03-24T07:14:06.582Z</time></trkpt><trkpt lat="45.4825271" lon="10.3367558"><ele>138.33333333333334</ele><time>2026-03-24T07:14:07.579Z</time></trkpt><trkpt lat="45.4823962" lon="10.3369439"><ele>139.0</ele><time>2026-03-24T07:14:08.581Z</time></trkpt><trkpt lat="45.4822636" lon="10.337131"><ele>138.66666666666669</ele><time>2026-03-24T07:14:09.587Z</time></trkpt><trkpt lat="45.4821245" lon="10.337322"><ele>138.33333333333334</ele><time>2026-03-24T07:14:10.584Z</time></trkpt><trkpt lat="45.481992" lon="10.3375099"><ele>138.0</ele><time>2026-03-24T07:14:11.583Z</time></trkpt><trkpt lat="45.4818758" lon="10.3377236"><ele>138.33333333333334</ele><time>2026-03-24T07:14:12.588Z</time></trkpt><trkpt lat="45.4817577" lon="10.3379179"><ele>138.66666666666669</ele><time>2026-03-24T07:14:13.584Z</time></trkpt><trkpt lat="45.4816311" lon="10.3380978"><ele>139.0</ele><time>2026-03-24T07:14:14.588Z</time></trkpt><trkpt lat="45.4815122" lon="10.338304"><ele>139.0</ele><time>2026-03-24T07:14:15.587Z</time></trkpt><trkpt lat="45.4813948" lon="10.3385057"><ele>139.0</ele><time>2026-03-24T07:14:16.58Z</time></trkpt><trkpt lat="45.4812707" lon="10.3387125"><ele>139.0</ele><time>2026-03-24T07:14:17.592Z</time></trkpt><trkpt lat="45.4811762" lon="10.3389468"><ele>139.0</ele><time>2026-03-24T07:14:18.589Z</time></trkpt><trkpt lat="45.4810742" lon="10.3391878"><ele>139.0</ele><time>2026-03-24T07:14:19.589Z</time></trkpt><trkpt lat="45.4809845" lon="10.3394082"><ele>139.0</ele><time>2026-03-24T07:14:20.589Z</time></trkpt><trkpt lat="45.4808954" lon="10.3396336"><ele>139.33333333333334</ele><time>2026-03-24T07:14:21.591Z</time></trkpt><trkpt lat="45.4807981" lon="10.3398626"><ele>139.66666666666666</ele><time>2026-03-24T07:14:22.602Z</time></trkpt><trkpt lat="45.4807153" lon="10.3400969"><ele>140.0</ele><time>2026-03-24T07:14:23.591Z</time></trkpt><trkpt lat="45.480636" lon="10.3403415"><ele>140.0</ele><time>2026-03-24T07:14:24.595Z</time></trkpt><trkpt lat="45.4805582" lon="10.3405871"><ele>140.0</ele><time>2026-03-24T07:14:25.595Z</time></trkpt><trkpt lat="45.4804673" lon="10.3408324"><ele>140.0</ele><time>2026-03-24T07:14:26.592Z</time></trkpt><trkpt lat="45.4803817" lon="10.341075"><ele>139.33333333333331</ele><time>2026-03-24T07:14:27.589Z</time></trkpt><trkpt lat="45.4803172" lon="10.3413326"><ele>138.66666666666666</ele><time>2026-03-24T07:14:28.593Z</time></trkpt><trkpt lat="45.4802483" lon="10.3416016"><ele>138.0</ele><time>2026-03-24T07:14:29.594Z</time></trkpt><trkpt lat="45.4801801" lon="10.3418562"><ele>138.0</ele><time>2026-03-24T07:14:30.587Z</time></trkpt><trkpt lat="45.4801085" lon="10.3421063"><ele>138.0</ele><time>2026-03-24T07:14:31.589Z</time></trkpt><trkpt lat="45.4800377" lon="10.3423417"><ele>138.0</ele><time>2026-03-24T07:14:32.587Z</time></trkpt><trkpt lat="45.4799577" lon="10.3425833"><ele>139.0</ele><time>2026-03-24T07:14:33.589Z</time></trkpt><trkpt lat="45.4798785" lon="10.3428385"><ele>140.0</ele><time>2026-03-24T07:14:34.585Z</time></trkpt><trkpt lat="45.4798008" lon="10.3430721"><ele>141.0</ele><time>2026-03-24T07:14:35.591Z</time></trkpt><trkpt lat="45.4797346" lon="10.3433121"><ele>141.0</ele><time>2026-03-24T07:14:36.587Z</time></trkpt><trkpt lat="45.4796591" lon="10.3435588"><ele>141.0</ele><time>2026-03-24T07:14:37.588Z</time></trkpt><trkpt lat="45.4795931" lon="10.3437976"><ele>141.0</ele><time>2026-03-24T07:14:38.591Z</time></trkpt><trkpt lat="45.4795144" lon="10.3440486"><ele>140.33333333333334</ele><time>2026-03-24T07:14:39.583Z</time></trkpt><trkpt lat="45.4794524" lon="10.3442976"><ele>139.66666666666669</ele><time>2026-03-24T07:14:40.588Z</time></trkpt><trkpt lat="45.4793775" lon="10.3445298"><ele>139.0</ele><time>2026-03-24T07:14:41.596Z</time></trkpt><trkpt lat="45.4792939" lon="10.3447648"><ele>139.0</ele><time>2026-03-24T07:14:42.587Z</time></trkpt><trkpt lat="45.4792277" lon="10.3450138"><ele>139.0</ele><time>2026-03-24T07:14:43.591Z</time></trkpt><trkpt lat="45.4791682" lon="10.3452619"><ele>139.0</ele><time>2026-03-24T07:14:44.59Z</time></trkpt><trkpt lat="45.4791185" lon="10.3455269"><ele>138.33333333333334</ele><time>2026-03-24T07:14:45.59Z</time></trkpt><trkpt lat="45.4790696" lon="10.3457931"><ele>137.66666666666666</ele><time>2026-03-24T07:14:46.589Z</time></trkpt><trkpt lat="45.4790333" lon="10.3460632"><ele>137.0</ele><time>2026-03-24T07:14:47.595Z</time></trkpt><trkpt lat="45.4789971" lon="10.3463313"><ele>137.0</ele><time>2026-03-24T07:14:48.589Z</time></trkpt><trkpt lat="45.4789638" lon="10.3466071"><ele>137.0</ele><time>2026-03-24T07:14:49.595Z</time></trkpt><trkpt lat="45.4789194" lon="10.3468705"><ele>137.0</ele><time>2026-03-24T07:14:50.589Z</time></trkpt><trkpt lat="45.4788866" lon="10.3471226"><ele>137.33333333333331</ele><time>2026-03-24T07:14:51.589Z</time></trkpt><trkpt lat="45.4788676" lon="10.3473861"><ele>137.66666666666666</ele><time>2026-03-24T07:14:52.583Z</time></trkpt><trkpt lat="45.478869" lon="10.3476381"><ele>138.0</ele><time>2026-03-24T07:14:53.591Z</time></trkpt><trkpt lat="45.4788658" lon="10.3479007"><ele>138.66666666666666</ele><time>2026-03-24T07:14:54.584Z</time></trkpt><trkpt lat="45.4788648" lon="10.3481563"><ele>139.33333333333331</ele><time>2026-03-24T07:14:55.588Z</time></trkpt><trkpt lat="45.47886" lon="10.348418"><ele>140.0</ele><time>2026-03-24T07:14:56.592Z</time></trkpt><trkpt lat="45.478865" lon="10.348677"><ele>140.0</ele><time>2026-03-24T07:14:57.589Z</time></trkpt><trkpt lat="45.4788735" lon="10.3489507"><ele>140.0</ele><time>2026-03-24T07:14:58.604Z</time></trkpt><trkpt lat="45.4788781" lon="10.3492229"><ele>140.0</ele><time>2026-03-24T07:14:59.586Z</time></trkpt><trkpt lat="45.478889" lon="10.3495018"><ele>140.0</ele><time>2026-03-24T07:15:00.585Z</time></trkpt><trkpt lat="45.4788935" lon="10.3497821"><ele>140.0</ele><time>2026-03-24T07:15:01.585Z</time></trkpt><trkpt lat="45.4788888" lon="10.3500616"><ele>140.0</ele><time>2026-03-24T07:15:02.588Z</time></trkpt><trkpt lat="45.4788931" lon="10.3503481"><ele>140.33333333333331</ele><time>2026-03-24T07:15:03.582Z</time></trkpt><trkpt lat="45.4788917" lon="10.3506191"><ele>140.66666666666666</ele><time>2026-03-24T07:15:04.585Z</time></trkpt><trkpt lat="45.4789119" lon="10.3508941"><ele>141.0</ele><time>2026-03-24T07:15:05.59Z</time></trkpt><trkpt lat="45.4789168" lon="10.3511683"><ele>140.33333333333334</ele><time>2026-03-24T07:15:06.586Z</time></trkpt><trkpt lat="45.4789196" lon="10.3514279"><ele>139.66666666666669</ele><time>2026-03-24T07:15:07.588Z</time></trkpt><trkpt lat="45.4789206" lon="10.3516948"><ele>139.0</ele><time>2026-03-24T07:15:08.592Z</time></trkpt><trkpt lat="45.4789317" lon="10.3519638"><ele>138.66666666666669</ele><time>2026-03-24T07:15:09.591Z</time></trkpt><trkpt lat="45.4789399" lon="10.3522321"><ele>138.33333333333334</ele><time>2026-03-24T07:15:10.594Z</time></trkpt><trkpt lat="45.4789473" lon="10.3524996"><ele>138.0</ele><time>2026-03-24T07:15:11.588Z</time></trkpt><trkpt lat="45.4789503" lon="10.3527755"><ele>138.33333333333334</ele><time>2026-03-24T07:15:12.59Z</time></trkpt><trkpt lat="45.4789619" lon="10.3530436"><ele>138.66666666666669</ele><time>2026-03-24T07:15:13.594Z</time></trkpt><trkpt lat="45.4789664" lon="10.3533126"><ele>139.0</ele><time>2026-03-24T07:15:14.589Z</time></trkpt><trkpt lat="45.4789659" lon="10.3535813"><ele>139.0</ele><time>2026-03-24T07:15:15.593Z</time></trkpt><trkpt lat="45.4789742" lon="10.3538553"><ele>139.0</ele><time>2026-03-24T07:15:16.598Z</time></trkpt><trkpt lat="45.4789879" lon="10.3541258"><ele>139.0</ele><time>2026-03-24T07:15:17.598Z</time></trkpt><trkpt lat="45.4789881" lon="10.3544138"><ele>139.66666666666669</ele><time>2026-03-24T07:15:18.589Z</time></trkpt><trkpt lat="45.4789806" lon="10.3546984"><ele>140.33333333333334</ele><time>2026-03-24T07:15:19.589Z</time></trkpt><trkpt lat="45.4789841" lon="10.3549724"><ele>141.0</ele><time>2026-03-24T07:15:20.593Z</time></trkpt><trkpt lat="45.4789956" lon="10.3552294"><ele>141.33333333333334</ele><time>2026-03-24T07:15:21.593Z</time></trkpt><trkpt lat="45.4790209" lon="10.3554933"><ele>141.66666666666669</ele><time>2026-03-24T07:15:22.589Z</time></trkpt><trkpt lat="45.4790504" lon="10.3557615"><ele>142.0</ele><time>2026-03-24T07:15:23.59Z</time></trkpt><trkpt lat="45.4790623" lon="10.3560212"><ele>141.33333333333334</ele><time>2026-03-24T07:15:24.584Z</time></trkpt><trkpt lat="45.479073" lon="10.3562733"><ele>140.66666666666666</ele><time>2026-03-24T07:15:25.591Z</time></trkpt><trkpt lat="45.4790766" lon="10.3565309"><ele>140.0</ele><time>2026-03-24T07:15:26.591Z</time></trkpt><trkpt lat="45.4790826" lon="10.3567523"><ele>140.0</ele><time>2026-03-24T07:15:27.589Z</time></trkpt><trkpt lat="45.4790847" lon="10.3569869"><ele>140.0</ele><time>2026-03-24T07:15:28.592Z</time></trkpt><trkpt lat="45.4790839" lon="10.3572375"><ele>140.0</ele><time>2026-03-24T07:15:29.587Z</time></trkpt><trkpt lat="45.4790931" lon="10.3574871"><ele>140.0</ele><time>2026-03-24T07:15:30.593Z</time></trkpt><trkpt lat="45.4791018" lon="10.3577194"><ele>140.0</ele><time>2026-03-24T07:15:31.59Z</time></trkpt><trkpt lat="45.4791172" lon="10.3579701"><ele>140.0</ele><time>2026-03-24T07:15:32.597Z</time></trkpt><trkpt lat="45.479129" lon="10.3582289"><ele>139.66666666666666</ele><time>2026-03-24T07:15:33.589Z</time></trkpt><trkpt lat="45.4791531" lon="10.3584838"><ele>139.33333333333334</ele><time>2026-03-24T07:15:34.601Z</time></trkpt><trkpt lat="45.4791815" lon="10.3587275"><ele>139.0</ele><time>2026-03-24T07:15:35.587Z</time></trkpt><trkpt lat="45.4792172" lon="10.3589722"><ele>139.0</ele><time>2026-03-24T07:15:36.583Z</time></trkpt><trkpt lat="45.479253" lon="10.3592081"><ele>139.0</ele><time>2026-03-24T07:15:37.584Z</time></trkpt><trkpt lat="45.4792894" lon="10.3594415"><ele>139.0</ele><time>2026-03-24T07:15:38.586Z</time></trkpt><trkpt lat="45.4793399" lon="10.359688"><ele>139.66666666666669</ele><time>2026-03-24T07:15:39.591Z</time></trkpt><trkpt lat="45.4793784" lon="10.3599331"><ele>140.33333333333334</ele><time>2026-03-24T07:15:40.584Z</time></trkpt><trkpt lat="45.4794243" lon="10.3601791"><ele>141.0</ele><time>2026-03-24T07:15:41.586Z</time></trkpt><trkpt lat="45.479473" lon="10.3604186"><ele>141.0</ele><time>2026-03-24T07:15:42.583Z</time></trkpt><trkpt lat="45.4795212" lon="10.3606566"><ele>141.0</ele><time>2026-03-24T07:15:43.588Z</time></trkpt><trkpt lat="45.4795707" lon="10.360889"><ele>141.0</ele><time>2026-03-24T07:15:44.587Z</time></trkpt><trkpt lat="45.4796334" lon="10.3611327"><ele>141.0</ele><time>2026-03-24T07:15:45.586Z</time></trkpt><trkpt lat="45.4796939" lon="10.3613698"><ele>141.0</ele><time>2026-03-24T07:15:46.585Z</time></trkpt><trkpt lat="45.4797547" lon="10.3615977"><ele>141.0</ele><time>2026-03-24T07:15:47.592Z</time></trkpt><trkpt lat="45.4798129" lon="10.3618264"><ele>141.0</ele><time>2026-03-24T07:15:48.592Z</time></trkpt><trkpt lat="45.4798683" lon="10.3620611"><ele>141.0</ele><time>2026-03-24T07:15:49.583Z</time></trkpt><trkpt lat="45.4799061" lon="10.3623"><ele>141.0</ele><time>2026-03-24T07:15:50.586Z</time></trkpt><trkpt lat="45.4799429" lon="10.3625346"><ele>141.0</ele><time>2026-03-24T07:15:51.59Z</time></trkpt><trkpt lat="45.4799899" lon="10.3627596"><ele>141.0</ele><time>2026-03-24T07:15:52.595Z</time></trkpt><trkpt lat="45.4800511" lon="10.3629848"><ele>141.0</ele><time>2026-03-24T07:15:53.588Z</time></trkpt><trkpt lat="45.4801236" lon="10.3632248"><ele>141.33333333333334</ele><time>2026-03-24T07:15:54.587Z</time></trkpt><trkpt lat="45.4801945" lon="10.3634516"><ele>141.66666666666669</ele><time>2026-03-24T07:15:55.588Z</time></trkpt><trkpt lat="45.4802678" lon="10.3636707"><ele>142.0</ele><time>2026-03-24T07:15:56.593Z</time></trkpt><trkpt lat="45.4803454" lon="10.363885"><ele>141.33333333333334</ele><time>2026-03-24T07:15:57.592Z</time></trkpt><trkpt lat="45.480429" lon="10.3641024"><ele>140.66666666666666</ele><time>2026-03-24T07:15:58.593Z</time></trkpt><trkpt lat="45.480525" lon="10.3643128"><ele>140.0</ele><time>2026-03-24T07:15:59.596Z</time></trkpt><trkpt lat="45.48061" lon="10.3645068"><ele>139.66666666666666</ele><time>2026-03-24T07:16:00.59Z</time></trkpt><trkpt lat="45.4807152" lon="10.364704"><ele>139.33333333333334</ele><time>2026-03-24T07:16:01.591Z</time></trkpt><trkpt lat="45.4808083" lon="10.3648884"><ele>139.0</ele><time>2026-03-24T07:16:02.59Z</time></trkpt><trkpt lat="45.4809091" lon="10.3650877"><ele>139.0</ele><time>2026-03-24T07:16:03.589Z</time></trkpt><trkpt lat="45.480997" lon="10.3652878"><ele>139.0</ele><time>2026-03-24T07:16:04.591Z</time></trkpt><trkpt lat="45.4810684" lon="10.3655028"><ele>139.0</ele><time>2026-03-24T07:16:05.591Z</time></trkpt><trkpt lat="45.4811298" lon="10.3657266"><ele>139.25</ele><time>2026-03-24T07:16:06.591Z</time></trkpt><trkpt lat="45.4811881" lon="10.3659381"><ele>139.5</ele><time>2026-03-24T07:16:07.596Z</time></trkpt><trkpt lat="45.481255" lon="10.3661402"><ele>139.75</ele><time>2026-03-24T07:16:08.602Z</time></trkpt><trkpt lat="45.481307" lon="10.3663066"><ele>140.0</ele><time>2026-03-24T07:16:09.595Z</time></trkpt><trkpt lat="45.4813488" lon="10.3664648"><ele>140.5</ele><time>2026-03-24T07:16:10.613Z</time></trkpt><trkpt lat="45.4813847" lon="10.3666454"><ele>141.0</ele><time>2026-03-24T07:16:11.594Z</time></trkpt><trkpt lat="45.4814445" lon="10.3668162"><ele>141.5</ele><time>2026-03-24T07:16:12.601Z</time></trkpt><trkpt lat="45.4815024" lon="10.3669982"><ele>142.0</ele><time>2026-03-24T07:16:13.597Z</time></trkpt><trkpt lat="45.4815618" lon="10.3671566"><ele>142.0</ele><time>2026-03-24T07:16:14.599Z</time></trkpt><trkpt lat="45.4816183" lon="10.3673075"><ele>142.0</ele><time>2026-03-24T07:16:15.601Z</time></trkpt><trkpt lat="45.4816754" lon="10.3674755"><ele>142.0</ele><time>2026-03-24T07:16:16.599Z</time></trkpt><trkpt lat="45.4817403" lon="10.3676469"><ele>142.0</ele><time>2026-03-24T07:16:17.604Z</time></trkpt><trkpt lat="45.4818167" lon="10.367832"><ele>142.33333333333334</ele><time>2026-03-24T07:16:18.602Z</time></trkpt><trkpt lat="45.4818876" lon="10.3680281"><ele>142.66666666666666</ele><time>2026-03-24T07:16:19.595Z</time></trkpt><trkpt lat="45.4819649" lon="10.3682287"><ele>143.0</ele><time>2026-03-24T07:16:20.6Z</time></trkpt><trkpt lat="45.482043" lon="10.3684331"><ele>143.0</ele><time>2026-03-24T07:16:21.595Z</time></trkpt><trkpt lat="45.4821098" lon="10.3686468"><ele>143.0</ele><time>2026-03-24T07:16:22.596Z</time></trkpt><trkpt lat="45.4821772" lon="10.3688486"><ele>143.0</ele><time>2026-03-24T07:16:23.595Z</time></trkpt><trkpt lat="45.4822439" lon="10.3690698"><ele>143.0</ele><time>2026-03-24T07:16:24.597Z</time></trkpt><trkpt lat="45.4823021" lon="10.3692733"><ele>143.0</ele><time>2026-03-24T07:16:25.595Z</time></trkpt><trkpt lat="45.4823614" lon="10.369471"><ele>143.0</ele><time>2026-03-24T07:16:26.599Z</time></trkpt><trkpt lat="45.4824225" lon="10.3696787"><ele>143.33333333333331</ele><time>2026-03-24T07:16:27.593Z</time></trkpt><trkpt lat="45.4824808" lon="10.3698836"><ele>143.66666666666666</ele><time>2026-03-24T07:16:28.606Z</time></trkpt><trkpt lat="45.482546" lon="10.370078"><ele>144.0</ele><time>2026-03-24T07:16:29.599Z</time></trkpt><trkpt lat="45.4826048" lon="10.3702911"><ele>144.0</ele><time>2026-03-24T07:16:30.593Z</time></trkpt><trkpt lat="45.4826672" lon="10.3705013"><ele>144.0</ele><time>2026-03-24T07:16:31.601Z</time></trkpt><trkpt lat="45.4827432" lon="10.3707183"><ele>144.0</ele><time>2026-03-24T07:16:32.597Z</time></trkpt><trkpt lat="45.4828157" lon="10.3709362"><ele>143.66666666666666</ele><time>2026-03-24T07:16:33.596Z</time></trkpt><trkpt lat="45.482894" lon="10.3711663"><ele>143.33333333333331</ele><time>2026-03-24T07:16:34.594Z</time></trkpt><trkpt lat="45.4829766" lon="10.3713991"><ele>143.0</ele><time>2026-03-24T07:16:35.599Z</time></trkpt><trkpt lat="45.4830568" lon="10.3716139"><ele>143.0</ele><time>2026-03-24T07:16:36.596Z</time></trkpt><trkpt lat="45.4831171" lon="10.3718201"><ele>143.0</ele><time>2026-03-24T07:16:37.594Z</time></trkpt><trkpt lat="45.4831802" lon="10.372019"><ele>143.0</ele><time>2026-03-24T07:16:38.595Z</time></trkpt><trkpt lat="45.4832386" lon="10.3722096"><ele>143.33333333333331</ele><time>2026-03-24T07:16:39.596Z</time></trkpt><trkpt lat="45.4833065" lon="10.3724243"><ele>143.66666666666666</ele><time>2026-03-24T07:16:40.597Z</time></trkpt><trkpt lat="45.4833779" lon="10.3726293"><ele>144.0</ele><time>2026-03-24T07:16:41.599Z</time></trkpt><trkpt lat="45.483436" lon="10.3728262"><ele>144.0</ele><time>2026-03-24T07:16:42.594Z</time></trkpt><trkpt lat="45.4835043" lon="10.3730395"><ele>144.0</ele><time>2026-03-24T07:16:43.6Z</time></trkpt><trkpt lat="45.4835764" lon="10.3732522"><ele>144.0</ele><time>2026-03-24T07:16:44.596Z</time></trkpt><trkpt lat="45.4836414" lon="10.3734619"><ele>144.0</ele><time>2026-03-24T07:16:45.597Z</time></trkpt><trkpt lat="45.4837174" lon="10.3736748"><ele>144.0</ele><time>2026-03-24T07:16:46.608Z</time></trkpt><trkpt lat="45.4837882" lon="10.3738775"><ele>144.0</ele><time>2026-03-24T07:16:47.599Z</time></trkpt><trkpt lat="45.483862" lon="10.3740949"><ele>144.0</ele><time>2026-03-24T07:16:48.599Z</time></trkpt><trkpt lat="45.4839386" lon="10.3743092"><ele>144.0</ele><time>2026-03-24T07:16:49.594Z</time></trkpt><trkpt lat="45.4840165" lon="10.3745219"><ele>144.0</ele><time>2026-03-24T07:16:50.597Z</time></trkpt><trkpt lat="45.4840962" lon="10.374758"><ele>143.66666666666666</ele><time>2026-03-24T07:16:51.599Z</time></trkpt><trkpt lat="45.4841828" lon="10.3749888"><ele>143.33333333333331</ele><time>2026-03-24T07:16:52.599Z</time></trkpt><trkpt lat="45.4842506" lon="10.3752104"><ele>143.0</ele><time>2026-03-24T07:16:53.593Z</time></trkpt><trkpt lat="45.4843247" lon="10.3754276"><ele>143.33333333333331</ele><time>2026-03-24T07:16:54.594Z</time></trkpt><trkpt lat="45.4843969" lon="10.3756254"><ele>143.66666666666666</ele><time>2026-03-24T07:16:55.596Z</time></trkpt><trkpt lat="45.4844767" lon="10.3758437"><ele>144.0</ele><time>2026-03-24T07:16:56.599Z</time></trkpt><trkpt lat="45.484551" lon="10.3760572"><ele>143.66666666666666</ele><time>2026-03-24T07:16:57.595Z</time></trkpt><trkpt lat="45.4846202" lon="10.3762736"><ele>143.33333333333331</ele><time>2026-03-24T07:16:58.593Z</time></trkpt><trkpt lat="45.4846919" lon="10.3764806"><ele>143.0</ele><time>2026-03-24T07:16:59.601Z</time></trkpt><trkpt lat="45.4847571" lon="10.3767001"><ele>143.0</ele><time>2026-03-24T07:17:00.593Z</time></trkpt><trkpt lat="45.4848284" lon="10.3769177"><ele>143.0</ele><time>2026-03-24T07:17:01.591Z</time></trkpt><trkpt lat="45.4848963" lon="10.3771317"><ele>143.0</ele><time>2026-03-24T07:17:02.595Z</time></trkpt><trkpt lat="45.4849647" lon="10.3773544"><ele>143.66666666666666</ele><time>2026-03-24T07:17:03.593Z</time></trkpt><trkpt lat="45.4850277" lon="10.3775768"><ele>144.33333333333334</ele><time>2026-03-24T07:17:04.602Z</time></trkpt><trkpt lat="45.4850882" lon="10.3777753"><ele>145.0</ele><time>2026-03-24T07:17:05.595Z</time></trkpt><trkpt lat="45.4851437" lon="10.378003"><ele>145.33333333333334</ele><time>2026-03-24T07:17:06.594Z</time></trkpt><trkpt lat="45.4851825" lon="10.3782418"><ele>145.66666666666666</ele><time>2026-03-24T07:17:07.594Z</time></trkpt><trkpt lat="45.4852355" lon="10.3784887"><ele>146.0</ele><time>2026-03-24T07:17:08.595Z</time></trkpt><trkpt lat="45.4852706" lon="10.3787328"><ele>145.0</ele><time>2026-03-24T07:17:09.593Z</time></trkpt><trkpt lat="45.4853273" lon="10.3789643"><ele>144.0</ele><time>2026-03-24T07:17:10.597Z</time></trkpt><trkpt lat="45.4853688" lon="10.3792048"><ele>143.0</ele><time>2026-03-24T07:17:11.586Z</time></trkpt><trkpt lat="45.4854127" lon="10.3794431"><ele>143.33333333333331</ele><time>2026-03-24T07:17:12.596Z</time></trkpt><trkpt lat="45.4854516" lon="10.3797017"><ele>143.66666666666666</ele><time>2026-03-24T07:17:13.591Z</time></trkpt><trkpt lat="45.4854867" lon="10.3799611"><ele>144.0</ele><time>2026-03-24T07:17:14.591Z</time></trkpt><trkpt lat="45.4855237" lon="10.3802197"><ele>144.0</ele><time>2026-03-24T07:17:15.591Z</time></trkpt><trkpt lat="45.4855467" lon="10.3804755"><ele>144.0</ele><time>2026-03-24T07:17:16.584Z</time></trkpt><trkpt lat="45.4855547" lon="10.3807251"><ele>144.0</ele><time>2026-03-24T07:17:17.589Z</time></trkpt><trkpt lat="45.4855724" lon="10.3810039"><ele>144.0</ele><time>2026-03-24T07:17:18.584Z</time></trkpt><trkpt lat="45.4855826" lon="10.381273"><ele>144.0</ele><time>2026-03-24T07:17:19.594Z</time></trkpt><trkpt lat="45.4855858" lon="10.3815337"><ele>144.0</ele><time>2026-03-24T07:17:20.588Z</time></trkpt><trkpt lat="45.4855816" lon="10.3817686"><ele>144.33333333333334</ele><time>2026-03-24T07:17:21.591Z</time></trkpt><trkpt lat="45.4855708" lon="10.3819957"><ele>144.66666666666669</ele><time>2026-03-24T07:17:22.589Z</time></trkpt><trkpt lat="45.4855675" lon="10.3822396"><ele>145.0</ele><time>2026-03-24T07:17:23.595Z</time></trkpt><trkpt lat="45.4855601" lon="10.3824854"><ele>145.0</ele><time>2026-03-24T07:17:24.584Z</time></trkpt><trkpt lat="45.4855448" lon="10.3827201"><ele>145.0</ele><time>2026-03-24T07:17:25.59Z</time></trkpt><trkpt lat="45.485529" lon="10.3829717"><ele>145.0</ele><time>2026-03-24T07:17:26.59Z</time></trkpt><trkpt lat="45.4855014" lon="10.3832155"><ele>145.0</ele><time>2026-03-24T07:17:27.592Z</time></trkpt><trkpt lat="45.4854734" lon="10.3834554"><ele>145.0</ele><time>2026-03-24T07:17:28.596Z</time></trkpt><trkpt lat="45.4854337" lon="10.3837003"><ele>145.0</ele><time>2026-03-24T07:17:29.588Z</time></trkpt><trkpt lat="45.4853897" lon="10.3839604"><ele>145.0</ele><time>2026-03-24T07:17:30.581Z</time></trkpt><trkpt lat="45.4853261" lon="10.3842098"><ele>145.0</ele><time>2026-03-24T07:17:31.586Z</time></trkpt><trkpt lat="45.4852836" lon="10.3844469"><ele>145.0</ele><time>2026-03-24T07:17:32.596Z</time></trkpt><trkpt lat="45.4852259" lon="10.3846865"><ele>144.66666666666669</ele><time>2026-03-24T07:17:33.59Z</time></trkpt><trkpt lat="45.4851744" lon="10.3849215"><ele>144.33333333333334</ele><time>2026-03-24T07:17:34.592Z</time></trkpt><trkpt lat="45.4851318" lon="10.3851405"><ele>144.0</ele><time>2026-03-24T07:17:35.593Z</time></trkpt><trkpt lat="45.4850886" lon="10.3853705"><ele>144.0</ele><time>2026-03-24T07:17:36.586Z</time></trkpt><trkpt lat="45.4850196" lon="10.3855901"><ele>144.0</ele><time>2026-03-24T07:17:37.587Z</time></trkpt><trkpt lat="45.4849477" lon="10.3858077"><ele>144.0</ele><time>2026-03-24T07:17:38.583Z</time></trkpt><trkpt lat="45.4848711" lon="10.3860416"><ele>144.0</ele><time>2026-03-24T07:17:39.587Z</time></trkpt><trkpt lat="45.4848158" lon="10.386239"><ele>144.0</ele><time>2026-03-24T07:17:40.595Z</time></trkpt><trkpt lat="45.4847687" lon="10.3864364"><ele>144.0</ele><time>2026-03-24T07:17:41.586Z</time></trkpt><trkpt lat="45.4847131" lon="10.3866391"><ele>144.0</ele><time>2026-03-24T07:17:42.588Z</time></trkpt><trkpt lat="45.4846514" lon="10.3868421"><ele>143.66666666666666</ele><time>2026-03-24T07:17:43.59Z</time></trkpt><trkpt lat="45.4845989" lon="10.3870616"><ele>143.33333333333331</ele><time>2026-03-24T07:17:44.589Z</time></trkpt><trkpt lat="45.4845522" lon="10.3872737"><ele>143.0</ele><time>2026-03-24T07:17:45.582Z</time></trkpt><trkpt lat="45.4844951" lon="10.3874908"><ele>143.0</ele><time>2026-03-24T07:17:46.586Z</time></trkpt><trkpt lat="45.4844431" lon="10.387711"><ele>143.0</ele><time>2026-03-24T07:17:47.585Z</time></trkpt><trkpt lat="45.4843751" lon="10.3879318"><ele>143.0</ele><time>2026-03-24T07:17:48.589Z</time></trkpt><trkpt lat="45.4843106" lon="10.3881556"><ele>143.0</ele><time>2026-03-24T07:17:49.592Z</time></trkpt><trkpt lat="45.484241" lon="10.3883776"><ele>143.0</ele><time>2026-03-24T07:17:50.597Z</time></trkpt><trkpt lat="45.4841808" lon="10.388604"><ele>143.0</ele><time>2026-03-24T07:17:51.594Z</time></trkpt><trkpt lat="45.4841135" lon="10.3888457"><ele>144.0</ele><time>2026-03-24T07:17:52.59Z</time></trkpt><trkpt lat="45.4840597" lon="10.3890858"><ele>145.0</ele><time>2026-03-24T07:17:53.586Z</time></trkpt><trkpt lat="45.4839904" lon="10.3893056"><ele>146.0</ele><time>2026-03-24T07:17:54.594Z</time></trkpt><trkpt lat="45.4839224" lon="10.3895311"><ele>145.66666666666666</ele><time>2026-03-24T07:17:55.588Z</time></trkpt><trkpt lat="45.483864" lon="10.3897534"><ele>145.33333333333334</ele><time>2026-03-24T07:17:56.59Z</time></trkpt><trkpt lat="45.483806" lon="10.3899706"><ele>145.0</ele><time>2026-03-24T07:17:57.588Z</time></trkpt><trkpt lat="45.4837463" lon="10.3901781"><ele>144.66666666666669</ele><time>2026-03-24T07:17:58.592Z</time></trkpt><trkpt lat="45.4836798" lon="10.3903949"><ele>144.33333333333334</ele><time>2026-03-24T07:17:59.59Z</time></trkpt><trkpt lat="45.4836249" lon="10.3906135"><ele>144.0</ele><time>2026-03-24T07:18:00.589Z</time></trkpt><trkpt lat="45.4835567" lon="10.3908336"><ele>143.33333333333334</ele><time>2026-03-24T07:18:01.595Z</time></trkpt><trkpt lat="45.4834903" lon="10.3910595"><ele>142.66666666666669</ele><time>2026-03-24T07:18:02.59Z</time></trkpt><trkpt lat="45.4834175" lon="10.3912868"><ele>142.0</ele><time>2026-03-24T07:18:03.588Z</time></trkpt><trkpt lat="45.4833587" lon="10.3915158"><ele>142.0</ele><time>2026-03-24T07:18:04.586Z</time></trkpt><trkpt lat="45.4832894" lon="10.3917517"><ele>142.0</ele><time>2026-03-24T07:18:05.588Z</time></trkpt><trkpt lat="45.4832125" lon="10.3919756"><ele>142.0</ele><time>2026-03-24T07:18:06.586Z</time></trkpt><trkpt lat="45.4831486" lon="10.3922247"><ele>142.33333333333334</ele><time>2026-03-24T07:18:07.59Z</time></trkpt><trkpt lat="45.4830848" lon="10.3924712"><ele>142.66666666666666</ele><time>2026-03-24T07:18:08.587Z</time></trkpt><trkpt lat="45.4830238" lon="10.3927066"><ele>143.0</ele><time>2026-03-24T07:18:09.584Z</time></trkpt><trkpt lat="45.4829694" lon="10.3929379"><ele>142.66666666666666</ele><time>2026-03-24T07:18:10.587Z</time></trkpt><trkpt lat="45.4829112" lon="10.3931788"><ele>142.33333333333334</ele><time>2026-03-24T07:18:11.59Z</time></trkpt><trkpt lat="45.4828441" lon="10.3934049"><ele>142.0</ele><time>2026-03-24T07:18:12.585Z</time></trkpt><trkpt lat="45.482787" lon="10.39362"><ele>140.66666666666669</ele><time>2026-03-24T07:18:13.588Z</time></trkpt><trkpt lat="45.4827323" lon="10.3938468"><ele>139.33333333333334</ele><time>2026-03-24T07:18:14.582Z</time></trkpt><trkpt lat="45.4826808" lon="10.3940786"><ele>138.0</ele><time>2026-03-24T07:18:15.59Z</time></trkpt><trkpt lat="45.4826344" lon="10.3943038"><ele>138.0</ele><time>2026-03-24T07:18:16.598Z</time></trkpt><trkpt lat="45.4825736" lon="10.3945156"><ele>138.0</ele><time>2026-03-24T07:18:17.591Z</time></trkpt><trkpt lat="45.4825118" lon="10.3947339"><ele>138.0</ele><time>2026-03-24T07:18:18.586Z</time></trkpt><trkpt lat="45.482454" lon="10.394957"><ele>137.66666666666666</ele><time>2026-03-24T07:18:19.599Z</time></trkpt><trkpt lat="45.4823919" lon="10.3951894"><ele>137.33333333333331</ele><time>2026-03-24T07:18:20.591Z</time></trkpt><trkpt lat="45.4823372" lon="10.395423"><ele>137.0</ele><time>2026-03-24T07:18:21.591Z</time></trkpt><trkpt lat="45.4822827" lon="10.3956475"><ele>136.66666666666666</ele><time>2026-03-24T07:18:22.592Z</time></trkpt><trkpt lat="45.4822198" lon="10.3958668"><ele>136.33333333333334</ele><time>2026-03-24T07:18:23.591Z</time></trkpt><trkpt lat="45.4821642" lon="10.3960985"><ele>136.0</ele><time>2026-03-24T07:18:24.592Z</time></trkpt><trkpt lat="45.4821037" lon="10.3963264"><ele>135.66666666666669</ele><time>2026-03-24T07:18:25.585Z</time></trkpt><trkpt lat="45.4820335" lon="10.3965554"><ele>135.33333333333334</ele><time>2026-03-24T07:18:26.591Z</time></trkpt><trkpt lat="45.4819674" lon="10.3967919"><ele>135.0</ele><time>2026-03-24T07:18:27.587Z</time></trkpt><trkpt lat="45.481904" lon="10.3970359"><ele>135.33333333333334</ele><time>2026-03-24T07:18:28.592Z</time></trkpt><trkpt lat="45.4818569" lon="10.3972654"><ele>135.66666666666669</ele><time>2026-03-24T07:18:29.587Z</time></trkpt><trkpt lat="45.4818004" lon="10.3974964"><ele>136.0</ele><time>2026-03-24T07:18:30.586Z</time></trkpt><trkpt lat="45.4817416" lon="10.3977213"><ele>136.0</ele><time>2026-03-24T07:18:31.591Z</time></trkpt><trkpt lat="45.4816856" lon="10.397951"><ele>136.0</ele><time>2026-03-24T07:18:32.582Z</time></trkpt><trkpt lat="45.4816376" lon="10.3982004"><ele>136.0</ele><time>2026-03-24T07:18:33.585Z</time></trkpt><trkpt lat="45.4815779" lon="10.3984348"><ele>135.66666666666669</ele><time>2026-03-24T07:18:34.588Z</time></trkpt><trkpt lat="45.4815109" lon="10.3986678"><ele>135.33333333333334</ele><time>2026-03-24T07:18:35.591Z</time></trkpt><trkpt lat="45.4814503" lon="10.3988883"><ele>135.0</ele><time>2026-03-24T07:18:36.586Z</time></trkpt><trkpt lat="45.4813951" lon="10.3991167"><ele>135.0</ele><time>2026-03-24T07:18:37.586Z</time></trkpt><trkpt lat="45.4813281" lon="10.3993513"><ele>135.0</ele><time>2026-03-24T07:18:38.59Z</time></trkpt><trkpt lat="45.4812779" lon="10.399599"><ele>135.0</ele><time>2026-03-24T07:18:39.59Z</time></trkpt><trkpt lat="45.4812123" lon="10.3998345"><ele>135.33333333333334</ele><time>2026-03-24T07:18:40.59Z</time></trkpt><trkpt lat="45.4811563" lon="10.4000739"><ele>135.66666666666669</ele><time>2026-03-24T07:18:41.588Z</time></trkpt><trkpt lat="45.4811105" lon="10.4003068"><ele>136.0</ele><time>2026-03-24T07:18:42.584Z</time></trkpt><trkpt lat="45.4810543" lon="10.4005323"><ele>136.0</ele><time>2026-03-24T07:18:43.589Z</time></trkpt><trkpt lat="45.4809923" lon="10.4007565"><ele>136.0</ele><time>2026-03-24T07:18:44.588Z</time></trkpt><trkpt lat="45.4809361" lon="10.400978"><ele>136.0</ele><time>2026-03-24T07:18:45.59Z</time></trkpt><trkpt lat="45.480872" lon="10.4011945"><ele>136.33333333333334</ele><time>2026-03-24T07:18:46.588Z</time></trkpt><trkpt lat="45.4808015" lon="10.4014347"><ele>136.66666666666666</ele><time>2026-03-24T07:18:47.59Z</time></trkpt><trkpt lat="45.4807425" lon="10.401663"><ele>137.0</ele><time>2026-03-24T07:18:48.586Z</time></trkpt><trkpt lat="45.4806801" lon="10.4018965"><ele>137.0</ele><time>2026-03-24T07:18:49.592Z</time></trkpt><trkpt lat="45.4806251" lon="10.4021322"><ele>137.0</ele><time>2026-03-24T07:18:50.584Z</time></trkpt><trkpt lat="45.480557" lon="10.4023626"><ele>137.0</ele><time>2026-03-24T07:18:51.596Z</time></trkpt><trkpt lat="45.4805057" lon="10.402599"><ele>137.0</ele><time>2026-03-24T07:18:52.589Z</time></trkpt><trkpt lat="45.4804495" lon="10.4028333"><ele>137.0</ele><time>2026-03-24T07:18:53.587Z</time></trkpt><trkpt lat="45.4803914" lon="10.4030669"><ele>137.0</ele><time>2026-03-24T07:18:54.591Z</time></trkpt><trkpt lat="45.4803249" lon="10.4032965"><ele>136.33333333333331</ele><time>2026-03-24T07:18:55.589Z</time></trkpt><trkpt lat="45.4802824" lon="10.4035317"><ele>135.66666666666666</ele><time>2026-03-24T07:18:56.593Z</time></trkpt><trkpt lat="45.4802349" lon="10.4037523"><ele>135.0</ele><time>2026-03-24T07:18:57.586Z</time></trkpt><trkpt lat="45.4802001" lon="10.403968"><ele>135.0</ele><time>2026-03-24T07:18:58.59Z</time></trkpt><trkpt lat="45.4801582" lon="10.4041824"><ele>135.0</ele><time>2026-03-24T07:18:59.59Z</time></trkpt><trkpt lat="45.4801207" lon="10.4044084"><ele>135.0</ele><time>2026-03-24T07:19:00.591Z</time></trkpt><trkpt lat="45.480082" lon="10.4046363"><ele>134.66666666666666</ele><time>2026-03-24T07:19:01.583Z</time></trkpt><trkpt lat="45.4800538" lon="10.4048691"><ele>134.33333333333331</ele><time>2026-03-24T07:19:02.593Z</time></trkpt><trkpt lat="45.4800313" lon="10.4050727"><ele>134.0</ele><time>2026-03-24T07:19:03.588Z</time></trkpt><trkpt lat="45.4800094" lon="10.4052871"><ele>134.0</ele><time>2026-03-24T07:19:04.587Z</time></trkpt><trkpt lat="45.4799907" lon="10.4054847"><ele>134.0</ele><time>2026-03-24T07:19:05.59Z</time></trkpt><trkpt lat="45.4799816" lon="10.4056696"><ele>134.0</ele><time>2026-03-24T07:19:06.582Z</time></trkpt><trkpt lat="45.479975" lon="10.405847"><ele>134.0</ele><time>2026-03-24T07:19:07.58Z</time></trkpt><trkpt lat="45.4799689" lon="10.4059933"><ele>135.0</ele><time>2026-03-24T07:19:08.584Z</time></trkpt><trkpt lat="45.479958" lon="10.4061432"><ele>136.0</ele><time>2026-03-24T07:19:09.57Z</time></trkpt><trkpt lat="45.4799834" lon="10.4063696"><ele>137.0</ele><time>2026-03-24T07:19:10.575Z</time></trkpt><trkpt lat="45.4800306" lon="10.4065543"><ele>138.0</ele><time>2026-03-24T07:19:11.575Z</time></trkpt><trkpt lat="45.4800639" lon="10.4066848"><ele>139.5</ele><time>2026-03-24T07:19:12.571Z</time></trkpt><trkpt lat="45.4800657" lon="10.4068384"><ele>141.0</ele><time>2026-03-24T07:19:13.569Z</time></trkpt><trkpt lat="45.4800723" lon="10.4071178"><ele>142.5</ele><time>2026-03-24T07:19:14.555Z</time></trkpt><trkpt lat="45.4800759" lon="10.4072932"><ele>144.0</ele><time>2026-03-24T07:19:15.535Z</time></trkpt><trkpt lat="45.4800795" lon="10.4074687"><ele>149.0</ele><time>2026-03-24T07:19:16.52Z</time></trkpt><trkpt lat="45.481181" lon="10.4223003"><ele>149.0</ele><time>2026-03-24T07:20:29.56Z</time></trkpt><trkpt lat="45.4811079" lon="10.4225181"><ele>149.0</ele><time>2026-03-24T07:20:30.573Z</time></trkpt><trkpt lat="45.4810518" lon="10.4227425"><ele>149.0</ele><time>2026-03-24T07:20:31.598Z</time></trkpt><trkpt lat="45.4809989" lon="10.4229745"><ele>148.66666666666666</ele><time>2026-03-24T07:20:32.598Z</time></trkpt><trkpt lat="45.4809466" lon="10.4232112"><ele>148.33333333333334</ele><time>2026-03-24T07:20:33.605Z</time></trkpt><trkpt lat="45.4809118" lon="10.4234302"><ele>148.0</ele><time>2026-03-24T07:20:34.602Z</time></trkpt><trkpt lat="45.4808416" lon="10.4236342"><ele>148.0</ele><time>2026-03-24T07:20:35.607Z</time></trkpt><trkpt lat="45.48078" lon="10.4238462"><ele>148.0</ele><time>2026-03-24T07:20:36.611Z</time></trkpt><trkpt lat="45.4807231" lon="10.4240595"><ele>148.0</ele><time>2026-03-24T07:20:37.607Z</time></trkpt><trkpt lat="45.4806512" lon="10.42426"><ele>148.0</ele><time>2026-03-24T07:20:38.603Z</time></trkpt><trkpt lat="45.4805774" lon="10.4244804"><ele>148.0</ele><time>2026-03-24T07:20:39.603Z</time></trkpt><trkpt lat="45.480514" lon="10.4247201"><ele>148.0</ele><time>2026-03-24T07:20:40.601Z</time></trkpt><trkpt lat="45.4804273" lon="10.4249334"><ele>147.33333333333334</ele><time>2026-03-24T07:20:41.609Z</time></trkpt><trkpt lat="45.4803494" lon="10.425142"><ele>146.66666666666666</ele><time>2026-03-24T07:20:42.608Z</time></trkpt><trkpt lat="45.480272" lon="10.4253599"><ele>146.0</ele><time>2026-03-24T07:20:43.607Z</time></trkpt><trkpt lat="45.4802073" lon="10.4255855"><ele>145.33333333333331</ele><time>2026-03-24T07:20:44.605Z</time></trkpt><trkpt lat="45.4801395" lon="10.4258091"><ele>144.66666666666666</ele><time>2026-03-24T07:20:45.61Z</time></trkpt><trkpt lat="45.480069" lon="10.4260435"><ele>144.0</ele><time>2026-03-24T07:20:46.608Z</time></trkpt><trkpt lat="45.4799994" lon="10.4262679"><ele>143.33333333333334</ele><time>2026-03-24T07:20:47.61Z</time></trkpt><trkpt lat="45.4799238" lon="10.4264958"><ele>142.66666666666669</ele><time>2026-03-24T07:20:48.607Z</time></trkpt><trkpt lat="45.4798531" lon="10.4267203"><ele>142.0</ele><time>2026-03-24T07:20:49.606Z</time></trkpt><trkpt lat="45.4797777" lon="10.4269622"><ele>142.0</ele><time>2026-03-24T07:20:50.602Z</time></trkpt><trkpt lat="45.479711" lon="10.4271965"><ele>142.0</ele><time>2026-03-24T07:20:51.605Z</time></trkpt><trkpt lat="45.4796495" lon="10.4274314"><ele>142.0</ele><time>2026-03-24T07:20:52.601Z</time></trkpt><trkpt lat="45.4795811" lon="10.4276647"><ele>142.33333333333334</ele><time>2026-03-24T07:20:53.599Z</time></trkpt><trkpt lat="45.4795155" lon="10.4279"><ele>142.66666666666666</ele><time>2026-03-24T07:20:54.604Z</time></trkpt><trkpt lat="45.4794392" lon="10.4281193"><ele>143.0</ele><time>2026-03-24T07:20:55.6Z</time></trkpt><trkpt lat="45.4793653" lon="10.4283488"><ele>143.0</ele><time>2026-03-24T07:20:56.604Z</time></trkpt><trkpt lat="45.4792837" lon="10.4285841"><ele>143.0</ele><time>2026-03-24T07:20:57.604Z</time></trkpt><trkpt lat="45.4792045" lon="10.4288298"><ele>143.0</ele><time>2026-03-24T07:20:58.604Z</time></trkpt><trkpt lat="45.4791474" lon="10.4290529"><ele>142.66666666666666</ele><time>2026-03-24T07:20:59.607Z</time></trkpt><trkpt lat="45.4790821" lon="10.429281"><ele>142.33333333333334</ele><time>2026-03-24T07:21:00.605Z</time></trkpt><trkpt lat="45.4790125" lon="10.4295043"><ele>142.0</ele><time>2026-03-24T07:21:01.601Z</time></trkpt><trkpt lat="45.4789352" lon="10.4297328"><ele>141.66666666666669</ele><time>2026-03-24T07:21:02.608Z</time></trkpt><trkpt lat="45.4788657" lon="10.4299569"><ele>141.33333333333334</ele><time>2026-03-24T07:21:03.604Z</time></trkpt><trkpt lat="45.4788048" lon="10.4301787"><ele>141.0</ele><time>2026-03-24T07:21:04.601Z</time></trkpt><trkpt lat="45.4787307" lon="10.4304115"><ele>141.33333333333334</ele><time>2026-03-24T07:21:05.603Z</time></trkpt><trkpt lat="45.4786558" lon="10.4306571"><ele>141.66666666666669</ele><time>2026-03-24T07:21:06.606Z</time></trkpt><trkpt lat="45.478597" lon="10.4308876"><ele>142.0</ele><time>2026-03-24T07:21:07.6Z</time></trkpt><trkpt lat="45.478529" lon="10.4310967"><ele>141.66666666666669</ele><time>2026-03-24T07:21:08.603Z</time></trkpt><trkpt lat="45.478455" lon="10.4313244"><ele>141.33333333333334</ele><time>2026-03-24T07:21:09.605Z</time></trkpt><trkpt lat="45.4783911" lon="10.4315549"><ele>141.0</ele><time>2026-03-24T07:21:10.608Z</time></trkpt><trkpt lat="45.4783238" lon="10.4317773"><ele>141.0</ele><time>2026-03-24T07:21:11.603Z</time></trkpt><trkpt lat="45.4782569" lon="10.4320146"><ele>141.0</ele><time>2026-03-24T07:21:12.604Z</time></trkpt><trkpt lat="45.4781895" lon="10.4322387"><ele>141.0</ele><time>2026-03-24T07:21:13.607Z</time></trkpt><trkpt lat="45.4781251" lon="10.4324673"><ele>140.66666666666666</ele><time>2026-03-24T07:21:14.606Z</time></trkpt><trkpt lat="45.4780631" lon="10.4326968"><ele>140.33333333333331</ele><time>2026-03-24T07:21:15.6Z</time></trkpt><trkpt lat="45.477998" lon="10.4329241"><ele>140.0</ele><time>2026-03-24T07:21:16.605Z</time></trkpt><trkpt lat="45.4779321" lon="10.4331563"><ele>140.66666666666666</ele><time>2026-03-24T07:21:17.608Z</time></trkpt><trkpt lat="45.477858" lon="10.4334041"><ele>141.33333333333334</ele><time>2026-03-24T07:21:18.61Z</time></trkpt><trkpt lat="45.4777854" lon="10.4336269"><ele>142.0</ele><time>2026-03-24T07:21:19.603Z</time></trkpt><trkpt lat="45.4777174" lon="10.433846"><ele>142.33333333333334</ele><time>2026-03-24T07:21:20.606Z</time></trkpt><trkpt lat="45.4776625" lon="10.4340633"><ele>142.66666666666666</ele><time>2026-03-24T07:21:21.606Z</time></trkpt><trkpt lat="45.4775992" lon="10.4342743"><ele>143.0</ele><time>2026-03-24T07:21:22.607Z</time></trkpt><trkpt lat="45.4775268" lon="10.4345105"><ele>143.33333333333331</ele><time>2026-03-24T07:21:23.609Z</time></trkpt><trkpt lat="45.477456" lon="10.4347379"><ele>143.66666666666666</ele><time>2026-03-24T07:21:24.612Z</time></trkpt><trkpt lat="45.477374" lon="10.4349505"><ele>144.0</ele><time>2026-03-24T07:21:25.607Z</time></trkpt><trkpt lat="45.4772858" lon="10.4351676"><ele>144.0</ele><time>2026-03-24T07:21:26.615Z</time></trkpt><trkpt lat="45.4771943" lon="10.4353942"><ele>144.0</ele><time>2026-03-24T07:21:27.607Z</time></trkpt><trkpt lat="45.4771146" lon="10.4356271"><ele>144.0</ele><time>2026-03-24T07:21:28.613Z</time></trkpt><trkpt lat="45.4770408" lon="10.4358537"><ele>143.5</ele><time>2026-03-24T07:21:29.605Z</time></trkpt><trkpt lat="45.4769642" lon="10.4360868"><ele>143.0</ele><time>2026-03-24T07:21:30.608Z</time></trkpt><trkpt lat="45.476821" lon="10.4365274"><ele>143.0</ele><time>2026-03-24T07:21:32.611Z</time></trkpt><trkpt lat="45.476751" lon="10.4367457"><ele>143.0</ele><time>2026-03-24T07:21:33.605Z</time></trkpt><trkpt lat="45.4766769" lon="10.4369718"><ele>143.0</ele><time>2026-03-24T07:21:34.607Z</time></trkpt><trkpt lat="45.4766128" lon="10.4371828"><ele>143.0</ele><time>2026-03-24T07:21:35.606Z</time></trkpt><trkpt lat="45.4765551" lon="10.4374131"><ele>143.0</ele><time>2026-03-24T07:21:36.608Z</time></trkpt><trkpt lat="45.4764897" lon="10.4376342"><ele>143.0</ele><time>2026-03-24T07:21:37.606Z</time></trkpt><trkpt lat="45.4764243" lon="10.4378592"><ele>143.0</ele><time>2026-03-24T07:21:38.617Z</time></trkpt><trkpt lat="45.476362" lon="10.4380723"><ele>143.0</ele><time>2026-03-24T07:21:39.607Z</time></trkpt><trkpt lat="45.4762976" lon="10.4382804"><ele>143.0</ele><time>2026-03-24T07:21:40.609Z</time></trkpt><trkpt lat="45.4762193" lon="10.438505"><ele>142.33333333333331</ele><time>2026-03-24T07:21:41.612Z</time></trkpt><trkpt lat="45.4761379" lon="10.4387386"><ele>141.66666666666666</ele><time>2026-03-24T07:21:42.607Z</time></trkpt><trkpt lat="45.4760845" lon="10.4389599"><ele>141.0</ele><time>2026-03-24T07:21:43.605Z</time></trkpt><trkpt lat="45.4760179" lon="10.4391875"><ele>141.0</ele><time>2026-03-24T07:21:44.613Z</time></trkpt><trkpt lat="45.4759467" lon="10.4394092"><ele>141.0</ele><time>2026-03-24T07:21:45.612Z</time></trkpt><trkpt lat="45.4758754" lon="10.4396252"><ele>141.0</ele><time>2026-03-24T07:21:46.607Z</time></trkpt><trkpt lat="45.4758128" lon="10.4398309"><ele>141.33333333333334</ele><time>2026-03-24T07:21:47.61Z</time></trkpt><trkpt lat="45.4757472" lon="10.4400545"><ele>141.66666666666669</ele><time>2026-03-24T07:21:48.609Z</time></trkpt><trkpt lat="45.4756855" lon="10.4402708"><ele>142.0</ele><time>2026-03-24T07:21:49.614Z</time></trkpt><trkpt lat="45.4756136" lon="10.4405124"><ele>142.66666666666669</ele><time>2026-03-24T07:21:50.608Z</time></trkpt><trkpt lat="45.4755522" lon="10.4407497"><ele>143.33333333333334</ele><time>2026-03-24T07:21:51.61Z</time></trkpt><trkpt lat="45.475492" lon="10.4409885"><ele>144.0</ele><time>2026-03-24T07:21:52.609Z</time></trkpt><trkpt lat="45.4754272" lon="10.4412172"><ele>143.66666666666666</ele><time>2026-03-24T07:21:53.606Z</time></trkpt><trkpt lat="45.4753706" lon="10.4414749"><ele>143.33333333333331</ele><time>2026-03-24T07:21:54.609Z</time></trkpt><trkpt lat="45.4753141" lon="10.4417091"><ele>143.0</ele><time>2026-03-24T07:21:55.597Z</time></trkpt><trkpt lat="45.475244" lon="10.4419416"><ele>143.33333333333331</ele><time>2026-03-24T07:21:56.612Z</time></trkpt><trkpt lat="45.475188" lon="10.4421743"><ele>143.66666666666666</ele><time>2026-03-24T07:21:57.608Z</time></trkpt><trkpt lat="45.4751302" lon="10.4424039"><ele>144.0</ele><time>2026-03-24T07:21:58.61Z</time></trkpt><trkpt lat="45.4750667" lon="10.4426364"><ele>144.0</ele><time>2026-03-24T07:21:59.606Z</time></trkpt><trkpt lat="45.4750019" lon="10.4428641"><ele>144.0</ele><time>2026-03-24T07:22:00.613Z</time></trkpt><trkpt lat="45.474941" lon="10.4430874"><ele>144.0</ele><time>2026-03-24T07:22:01.604Z</time></trkpt><trkpt lat="45.4748774" lon="10.4433333"><ele>144.0</ele><time>2026-03-24T07:22:02.606Z</time></trkpt><trkpt lat="45.4748142" lon="10.4435734"><ele>144.0</ele><time>2026-03-24T07:22:03.606Z</time></trkpt><trkpt lat="45.4747471" lon="10.4438068"><ele>144.0</ele><time>2026-03-24T07:22:04.606Z</time></trkpt><trkpt lat="45.4746894" lon="10.444051"><ele>144.0</ele><time>2026-03-24T07:22:05.61Z</time></trkpt><trkpt lat="45.4746147" lon="10.4442974"><ele>144.0</ele><time>2026-03-24T07:22:06.604Z</time></trkpt><trkpt lat="45.4745436" lon="10.4445393"><ele>144.0</ele><time>2026-03-24T07:22:07.606Z</time></trkpt><trkpt lat="45.4745007" lon="10.4447609"><ele>143.66666666666666</ele><time>2026-03-24T07:22:08.61Z</time></trkpt><trkpt lat="45.4744498" lon="10.4449833"><ele>143.33333333333331</ele><time>2026-03-24T07:22:09.61Z</time></trkpt><trkpt lat="45.4743944" lon="10.4451949"><ele>143.0</ele><time>2026-03-24T07:22:10.602Z</time></trkpt><trkpt lat="45.474325" lon="10.4454341"><ele>142.66666666666666</ele><time>2026-03-24T07:22:11.608Z</time></trkpt><trkpt lat="45.4742594" lon="10.4456641"><ele>142.33333333333334</ele><time>2026-03-24T07:22:12.61Z</time></trkpt><trkpt lat="45.4742056" lon="10.4458956"><ele>142.0</ele><time>2026-03-24T07:22:13.605Z</time></trkpt><trkpt lat="45.4741437" lon="10.4461248"><ele>142.33333333333334</ele><time>2026-03-24T07:22:14.612Z</time></trkpt><trkpt lat="45.47409" lon="10.4463577"><ele>142.66666666666666</ele><time>2026-03-24T07:22:15.607Z</time></trkpt><trkpt lat="45.4740376" lon="10.4465869"><ele>143.0</ele><time>2026-03-24T07:22:16.61Z</time></trkpt><trkpt lat="45.4739783" lon="10.4468204"><ele>143.0</ele><time>2026-03-24T07:22:17.613Z</time></trkpt><trkpt lat="45.4739026" lon="10.4470556"><ele>143.0</ele><time>2026-03-24T07:22:18.613Z</time></trkpt><trkpt lat="45.4738368" lon="10.4472928"><ele>143.0</ele><time>2026-03-24T07:22:19.603Z</time></trkpt><trkpt lat="45.4737682" lon="10.4475294"><ele>143.66666666666666</ele><time>2026-03-24T07:22:20.611Z</time></trkpt><trkpt lat="45.4737008" lon="10.4477816"><ele>144.33333333333334</ele><time>2026-03-24T07:22:21.614Z</time></trkpt><trkpt lat="45.4736375" lon="10.448008"><ele>145.0</ele><time>2026-03-24T07:22:22.605Z</time></trkpt><trkpt lat="45.4735705" lon="10.4482454"><ele>145.33333333333334</ele><time>2026-03-24T07:22:23.616Z</time></trkpt><trkpt lat="45.4735021" lon="10.4484856"><ele>145.66666666666666</ele><time>2026-03-24T07:22:24.606Z</time></trkpt><trkpt lat="45.473445" lon="10.4487304"><ele>146.0</ele><time>2026-03-24T07:22:25.614Z</time></trkpt><trkpt lat="45.473382" lon="10.4489642"><ele>146.0</ele><time>2026-03-24T07:22:26.611Z</time></trkpt><trkpt lat="45.4733231" lon="10.4492019"><ele>146.0</ele><time>2026-03-24T07:22:27.611Z</time></trkpt><trkpt lat="45.4732646" lon="10.4494286"><ele>146.0</ele><time>2026-03-24T07:22:28.606Z</time></trkpt><trkpt lat="45.4731954" lon="10.449664"><ele>145.66666666666666</ele><time>2026-03-24T07:22:29.605Z</time></trkpt><trkpt lat="45.4731174" lon="10.4498975"><ele>145.33333333333334</ele><time>2026-03-24T07:22:30.608Z</time></trkpt><trkpt lat="45.4730556" lon="10.4501266"><ele>145.0</ele><time>2026-03-24T07:22:31.611Z</time></trkpt><trkpt lat="45.4729896" lon="10.4503593"><ele>145.33333333333334</ele><time>2026-03-24T07:22:32.607Z</time></trkpt><trkpt lat="45.4729267" lon="10.4506006"><ele>145.66666666666666</ele><time>2026-03-24T07:22:33.608Z</time></trkpt><trkpt lat="45.4728712" lon="10.4508282"><ele>146.0</ele><time>2026-03-24T07:22:34.607Z</time></trkpt><trkpt lat="45.4728004" lon="10.4510734"><ele>146.0</ele><time>2026-03-24T07:22:35.609Z</time></trkpt><trkpt lat="45.4727289" lon="10.4513233"><ele>146.0</ele><time>2026-03-24T07:22:36.608Z</time></trkpt><trkpt lat="45.472661" lon="10.45156"><ele>146.0</ele><time>2026-03-24T07:22:37.604Z</time></trkpt><trkpt lat="45.472599" lon="10.4517768"><ele>146.0</ele><time>2026-03-24T07:22:38.611Z</time></trkpt><trkpt lat="45.4725439" lon="10.4519743"><ele>146.0</ele><time>2026-03-24T07:22:39.611Z</time></trkpt><trkpt lat="45.4724973" lon="10.4521625"><ele>146.0</ele><time>2026-03-24T07:22:40.605Z</time></trkpt><trkpt lat="45.4724423" lon="10.4523716"><ele>146.0</ele><time>2026-03-24T07:22:41.611Z</time></trkpt><trkpt lat="45.4723925" lon="10.4525795"><ele>146.0</ele><time>2026-03-24T07:22:42.603Z</time></trkpt><trkpt lat="45.4723386" lon="10.4527919"><ele>146.0</ele><time>2026-03-24T07:22:43.607Z</time></trkpt><trkpt lat="45.4722733" lon="10.4530162"><ele>146.0</ele><time>2026-03-24T07:22:44.608Z</time></trkpt><trkpt lat="45.4722073" lon="10.4532466"><ele>146.33333333333331</ele><time>2026-03-24T07:22:45.613Z</time></trkpt><trkpt lat="45.4721606" lon="10.4534784"><ele>146.66666666666666</ele><time>2026-03-24T07:22:46.612Z</time></trkpt><trkpt lat="45.4721053" lon="10.4537191"><ele>147.0</ele><time>2026-03-24T07:22:47.614Z</time></trkpt><trkpt lat="45.472045" lon="10.4539638"><ele>147.0</ele><time>2026-03-24T07:22:48.606Z</time></trkpt><trkpt lat="45.4719934" lon="10.4542158"><ele>147.0</ele><time>2026-03-24T07:22:49.613Z</time></trkpt><trkpt lat="45.4719441" lon="10.4544727"><ele>147.0</ele><time>2026-03-24T07:22:50.611Z</time></trkpt><trkpt lat="45.4719009" lon="10.4547378"><ele>147.0</ele><time>2026-03-24T07:22:51.614Z</time></trkpt><trkpt lat="45.4718673" lon="10.4549997"><ele>147.0</ele><time>2026-03-24T07:22:52.608Z</time></trkpt><trkpt lat="45.4718458" lon="10.4552642"><ele>147.0</ele><time>2026-03-24T07:22:53.611Z</time></trkpt><trkpt lat="45.4718234" lon="10.4555297"><ele>147.0</ele><time>2026-03-24T07:22:54.609Z</time></trkpt><trkpt lat="45.4718029" lon="10.4557903"><ele>147.0</ele><time>2026-03-24T07:22:55.612Z</time></trkpt><trkpt lat="45.4717897" lon="10.4560512"><ele>147.0</ele><time>2026-03-24T07:22:56.609Z</time></trkpt><trkpt lat="45.4717871" lon="10.4563031"><ele>147.66666666666666</ele><time>2026-03-24T07:22:57.608Z</time></trkpt><trkpt lat="45.471784" lon="10.4565658"><ele>148.33333333333331</ele><time>2026-03-24T07:22:58.609Z</time></trkpt><trkpt lat="45.4717848" lon="10.4568335"><ele>149.0</ele><time>2026-03-24T07:22:59.609Z</time></trkpt><trkpt lat="45.4718001" lon="10.4570985"><ele>149.33333333333331</ele><time>2026-03-24T07:23:00.605Z</time></trkpt><trkpt lat="45.4718125" lon="10.4573617"><ele>149.66666666666666</ele><time>2026-03-24T07:23:01.6Z</time></trkpt><trkpt lat="45.4718486" lon="10.4576095"><ele>150.0</ele><time>2026-03-24T07:23:02.607Z</time></trkpt><trkpt lat="45.4718711" lon="10.4578778"><ele>149.66666666666666</ele><time>2026-03-24T07:23:03.602Z</time></trkpt><trkpt lat="45.4718918" lon="10.4581422"><ele>149.33333333333331</ele><time>2026-03-24T07:23:04.602Z</time></trkpt><trkpt lat="45.4719263" lon="10.4583997"><ele>149.0</ele><time>2026-03-24T07:23:05.608Z</time></trkpt><trkpt lat="45.4719562" lon="10.4586688"><ele>149.0</ele><time>2026-03-24T07:23:06.61Z</time></trkpt><trkpt lat="45.4719968" lon="10.4589351"><ele>149.0</ele><time>2026-03-24T07:23:07.608Z</time></trkpt><trkpt lat="45.472049" lon="10.4591998"><ele>149.0</ele><time>2026-03-24T07:23:08.609Z</time></trkpt><trkpt lat="45.4721042" lon="10.4594451"><ele>150.33333333333331</ele><time>2026-03-24T07:23:09.615Z</time></trkpt><trkpt lat="45.4721595" lon="10.4596935"><ele>151.66666666666666</ele><time>2026-03-24T07:23:10.599Z</time></trkpt><trkpt lat="45.4722169" lon="10.4599286"><ele>153.0</ele><time>2026-03-24T07:23:11.607Z</time></trkpt><trkpt lat="45.4722802" lon="10.4601531"><ele>153.0</ele><time>2026-03-24T07:23:12.605Z</time></trkpt><trkpt lat="45.4723485" lon="10.4603913"><ele>153.0</ele><time>2026-03-24T07:23:13.608Z</time></trkpt><trkpt lat="45.4724126" lon="10.4606164"><ele>153.0</ele><time>2026-03-24T07:23:14.61Z</time></trkpt><trkpt lat="45.4724845" lon="10.4608493"><ele>152.66666666666666</ele><time>2026-03-24T07:23:15.612Z</time></trkpt><trkpt lat="45.4725638" lon="10.4610677"><ele>152.33333333333331</ele><time>2026-03-24T07:23:16.609Z</time></trkpt><trkpt lat="45.4726292" lon="10.4612933"><ele>152.0</ele><time>2026-03-24T07:23:17.616Z</time></trkpt><trkpt lat="45.4726894" lon="10.4615185"><ele>152.0</ele><time>2026-03-24T07:23:18.617Z</time></trkpt><trkpt lat="45.4727564" lon="10.4617399"><ele>152.0</ele><time>2026-03-24T07:23:19.613Z</time></trkpt><trkpt lat="45.4728186" lon="10.4619865"><ele>152.0</ele><time>2026-03-24T07:23:20.617Z</time></trkpt><trkpt lat="45.4728715" lon="10.462227"><ele>152.0</ele><time>2026-03-24T07:23:21.617Z</time></trkpt><trkpt lat="45.4729267" lon="10.4624526"><ele>152.0</ele><time>2026-03-24T07:23:22.611Z</time></trkpt><trkpt lat="45.47298" lon="10.4626837"><ele>152.0</ele><time>2026-03-24T07:23:23.616Z</time></trkpt><trkpt lat="45.4730377" lon="10.4629108"><ele>153.0</ele><time>2026-03-24T07:23:24.613Z</time></trkpt><trkpt lat="45.4730909" lon="10.4631351"><ele>154.0</ele><time>2026-03-24T07:23:25.614Z</time></trkpt><trkpt lat="45.4731532" lon="10.4633652"><ele>155.0</ele><time>2026-03-24T07:23:26.617Z</time></trkpt><trkpt lat="45.4732059" lon="10.463588"><ele>155.33333333333331</ele><time>2026-03-24T07:23:27.614Z</time></trkpt><trkpt lat="45.4732602" lon="10.4638096"><ele>155.66666666666666</ele><time>2026-03-24T07:23:28.615Z</time></trkpt><trkpt lat="45.4733124" lon="10.4640333"><ele>156.0</ele><time>2026-03-24T07:23:29.614Z</time></trkpt><trkpt lat="45.4733674" lon="10.4642469"><ele>156.0</ele><time>2026-03-24T07:23:30.615Z</time></trkpt><trkpt lat="45.4734328" lon="10.4644543"><ele>156.0</ele><time>2026-03-24T07:23:31.613Z</time></trkpt><trkpt lat="45.4734896" lon="10.4646899"><ele>156.0</ele><time>2026-03-24T07:23:32.618Z</time></trkpt><trkpt lat="45.4735372" lon="10.4649203"><ele>156.33333333333334</ele><time>2026-03-24T07:23:33.615Z</time></trkpt><trkpt lat="45.473588" lon="10.4651524"><ele>156.66666666666669</ele><time>2026-03-24T07:23:34.61Z</time></trkpt><trkpt lat="45.473633" lon="10.4653828"><ele>157.0</ele><time>2026-03-24T07:23:35.615Z</time></trkpt><trkpt lat="45.4736826" lon="10.4655946"><ele>157.0</ele><time>2026-03-24T07:23:36.614Z</time></trkpt><trkpt lat="45.4737222" lon="10.4657955"><ele>157.0</ele><time>2026-03-24T07:23:37.61Z</time></trkpt><trkpt lat="45.4737651" lon="10.4660061"><ele>157.0</ele><time>2026-03-24T07:23:38.614Z</time></trkpt><trkpt lat="45.4738193" lon="10.4662123"><ele>157.66666666666669</ele><time>2026-03-24T07:23:39.617Z</time></trkpt><trkpt lat="45.4738695" lon="10.4664311"><ele>158.33333333333334</ele><time>2026-03-24T07:23:40.613Z</time></trkpt><trkpt lat="45.4739322" lon="10.4666325"><ele>159.0</ele><time>2026-03-24T07:23:41.616Z</time></trkpt><trkpt lat="45.4739916" lon="10.4668579"><ele>159.0</ele><time>2026-03-24T07:23:42.615Z</time></trkpt><trkpt lat="45.4740511" lon="10.4670819"><ele>159.0</ele><time>2026-03-24T07:23:43.612Z</time></trkpt><trkpt lat="45.4741051" lon="10.4672965"><ele>159.0</ele><time>2026-03-24T07:23:44.616Z</time></trkpt><trkpt lat="45.4741532" lon="10.4675071"><ele>159.5</ele><time>2026-03-24T07:23:45.615Z</time></trkpt><trkpt lat="45.4741966" lon="10.4677019"><ele>160.0</ele><time>2026-03-24T07:23:46.614Z</time></trkpt><trkpt lat="45.4742345" lon="10.4678968"><ele>160.5</ele><time>2026-03-24T07:23:47.614Z</time></trkpt><trkpt lat="45.4742664" lon="10.4680915"><ele>161.0</ele><time>2026-03-24T07:23:48.616Z</time></trkpt><trkpt lat="45.4743001" lon="10.4682814"><ele>161.25</ele><time>2026-03-24T07:23:49.613Z</time></trkpt><trkpt lat="45.4743394" lon="10.4684576"><ele>161.5</ele><time>2026-03-24T07:23:50.615Z</time></trkpt><trkpt lat="45.4743647" lon="10.4686305"><ele>161.75</ele><time>2026-03-24T07:23:51.619Z</time></trkpt><trkpt lat="45.4743926" lon="10.4687895"><ele>162.0</ele><time>2026-03-24T07:23:52.612Z</time></trkpt><trkpt lat="45.4744161" lon="10.4689644"><ele>162.5</ele><time>2026-03-24T07:23:53.615Z</time></trkpt><trkpt lat="45.4744336" lon="10.4691388"><ele>163.0</ele><time>2026-03-24T07:23:54.614Z</time></trkpt><trkpt lat="45.4744584" lon="10.4693027"><ele>163.5</ele><time>2026-03-24T07:23:55.609Z</time></trkpt><trkpt lat="45.4744757" lon="10.4694567"><ele>164.0</ele><time>2026-03-24T07:23:56.615Z</time></trkpt><trkpt lat="45.4744903" lon="10.4695991"><ele>164.39999999999998</ele><time>2026-03-24T07:23:57.614Z</time></trkpt><trkpt lat="45.4745074" lon="10.4697389"><ele>164.8</ele><time>2026-03-24T07:23:58.605Z</time></trkpt><trkpt lat="45.4745191" lon="10.4698916"><ele>165.2</ele><time>2026-03-24T07:23:59.615Z</time></trkpt><trkpt lat="45.4745357" lon="10.4700368"><ele>165.60000000000002</ele><time>2026-03-24T07:24:00.613Z</time></trkpt><trkpt lat="45.4745489" lon="10.4701696"><ele>166.0</ele><time>2026-03-24T07:24:01.616Z</time></trkpt><trkpt lat="45.4745632" lon="10.4702934"><ele>166.0</ele><time>2026-03-24T07:24:02.618Z</time></trkpt><trkpt lat="45.474576" lon="10.4704204"><ele>166.0</ele><time>2026-03-24T07:24:03.618Z</time></trkpt><trkpt lat="45.4745935" lon="10.4705523"><ele>166.0</ele><time>2026-03-24T07:24:04.613Z</time></trkpt><trkpt lat="45.4746095" lon="10.4706905"><ele>166.0</ele><time>2026-03-24T07:24:05.617Z</time></trkpt><trkpt lat="45.4746239" lon="10.4708204"><ele>166.0</ele><time>2026-03-24T07:24:06.617Z</time></trkpt><trkpt lat="45.4746384" lon="10.470945"><ele>166.66666666666669</ele><time>2026-03-24T07:24:07.613Z</time></trkpt><trkpt lat="45.4746504" lon="10.4710531"><ele>167.33333333333334</ele><time>2026-03-24T07:24:08.616Z</time></trkpt><trkpt lat="45.4746615" lon="10.471158"><ele>168.0</ele><time>2026-03-24T07:24:09.614Z</time></trkpt><trkpt lat="45.474678" lon="10.4712591"><ele>168.66666666666666</ele><time>2026-03-24T07:24:10.615Z</time></trkpt><trkpt lat="45.4746968" lon="10.471371"><ele>169.33333333333331</ele><time>2026-03-24T07:24:11.613Z</time></trkpt><trkpt lat="45.4747105" lon="10.4714907"><ele>170.0</ele><time>2026-03-24T07:24:12.598Z</time></trkpt><trkpt lat="45.4747214" lon="10.471627"><ele>171.6</ele><time>2026-03-24T07:24:13.597Z</time></trkpt><trkpt lat="45.474731" lon="10.4717559"><ele>173.2</ele><time>2026-03-24T07:24:14.587Z</time></trkpt><trkpt lat="45.4747408" lon="10.4718869"><ele>174.8</ele><time>2026-03-24T07:24:15.584Z</time></trkpt><trkpt lat="45.4747494" lon="10.4720214"><ele>176.4</ele><time>2026-03-24T07:24:16.577Z</time></trkpt><trkpt lat="45.4747579" lon="10.4721512"><ele>178.0</ele><time>2026-03-24T07:24:17.554Z</time></trkpt><trkpt lat="45.4704923" lon="10.4919495"><ele>172.0</ele><time>2026-03-24T07:26:07.591Z</time></trkpt><trkpt lat="45.4703918" lon="10.4920573"><ele>166.0</ele><time>2026-03-24T07:26:08.608Z</time></trkpt><trkpt lat="45.4702935" lon="10.4921921"><ele>160.0</ele><time>2026-03-24T07:26:09.609Z</time></trkpt><trkpt lat="45.470196" lon="10.492331"><ele>154.0</ele><time>2026-03-24T07:26:10.618Z</time></trkpt><trkpt lat="45.4701253" lon="10.4924702"><ele>153.5</ele><time>2026-03-24T07:26:11.619Z</time></trkpt><trkpt lat="45.4700448" lon="10.4926293"><ele>153.0</ele><time>2026-03-24T07:26:12.619Z</time></trkpt><trkpt lat="45.4699626" lon="10.4927733"><ele>152.5</ele><time>2026-03-24T07:26:13.626Z</time></trkpt><trkpt lat="45.4698629" lon="10.492917"><ele>152.0</ele><time>2026-03-24T07:26:14.622Z</time></trkpt><trkpt lat="45.4697678" lon="10.4930497"><ele>152.0</ele><time>2026-03-24T07:26:15.625Z</time></trkpt><trkpt lat="45.4696491" lon="10.4931842"><ele>152.0</ele><time>2026-03-24T07:26:16.628Z</time></trkpt><trkpt lat="45.4695521" lon="10.4933305"><ele>152.0</ele><time>2026-03-24T07:26:17.62Z</time></trkpt><trkpt lat="45.4694541" lon="10.4934783"><ele>152.0</ele><time>2026-03-24T07:26:18.619Z</time></trkpt><trkpt lat="45.4693476" lon="10.4936152"><ele>152.0</ele><time>2026-03-24T07:26:19.622Z</time></trkpt><trkpt lat="45.4692494" lon="10.4937512"><ele>152.0</ele><time>2026-03-24T07:26:20.616Z</time></trkpt><trkpt lat="45.4691569" lon="10.4938745"><ele>152.0</ele><time>2026-03-24T07:26:21.625Z</time></trkpt><trkpt lat="45.4690736" lon="10.4940251"><ele>152.0</ele><time>2026-03-24T07:26:22.615Z</time></trkpt><trkpt lat="45.4689852" lon="10.4941648"><ele>151.75</ele><time>2026-03-24T07:26:23.626Z</time></trkpt><trkpt lat="45.4688959" lon="10.4942931"><ele>151.5</ele><time>2026-03-24T07:26:24.619Z</time></trkpt><trkpt lat="45.4687982" lon="10.4944258"><ele>151.25</ele><time>2026-03-24T07:26:25.616Z</time></trkpt><trkpt lat="45.468701" lon="10.4945688"><ele>151.0</ele><time>2026-03-24T07:26:26.632Z</time></trkpt><trkpt lat="45.4686138" lon="10.4947061"><ele>150.0</ele><time>2026-03-24T07:26:27.619Z</time></trkpt><trkpt lat="45.4685353" lon="10.4948491"><ele>149.0</ele><time>2026-03-24T07:26:28.623Z</time></trkpt><trkpt lat="45.468453" lon="10.4949926"><ele>148.0</ele><time>2026-03-24T07:26:29.625Z</time></trkpt><trkpt lat="45.4683761" lon="10.4951294"><ele>147.0</ele><time>2026-03-24T07:26:30.623Z</time></trkpt><trkpt lat="45.46831" lon="10.4952625"><ele>147.0</ele><time>2026-03-24T07:26:31.621Z</time></trkpt><trkpt lat="45.4682439" lon="10.4953938"><ele>147.0</ele><time>2026-03-24T07:26:32.63Z</time></trkpt><trkpt lat="45.4681803" lon="10.495523"><ele>147.0</ele><time>2026-03-24T07:26:33.623Z</time></trkpt><trkpt lat="45.4681206" lon="10.4956629"><ele>147.0</ele><time>2026-03-24T07:26:34.62Z</time></trkpt><trkpt lat="45.4680661" lon="10.4958077"><ele>147.25</ele><time>2026-03-24T07:26:35.624Z</time></trkpt><trkpt lat="45.4680097" lon="10.4959597"><ele>147.5</ele><time>2026-03-24T07:26:36.621Z</time></trkpt><trkpt lat="45.4679546" lon="10.4961085"><ele>147.75</ele><time>2026-03-24T07:26:37.61Z</time></trkpt><trkpt lat="45.467908" lon="10.4962551"><ele>148.0</ele><time>2026-03-24T07:26:38.616Z</time></trkpt><trkpt lat="45.467859" lon="10.4964041"><ele>148.0</ele><time>2026-03-24T07:26:39.618Z</time></trkpt><trkpt lat="45.4678095" lon="10.4965604"><ele>148.0</ele><time>2026-03-24T07:26:40.607Z</time></trkpt><trkpt lat="45.4677628" lon="10.4967188"><ele>148.0</ele><time>2026-03-24T07:26:41.609Z</time></trkpt><trkpt lat="45.4677123" lon="10.4968783"><ele>148.0</ele><time>2026-03-24T07:26:42.62Z</time></trkpt><trkpt lat="45.4676558" lon="10.4970405"><ele>147.25</ele><time>2026-03-24T07:26:43.61Z</time></trkpt><trkpt lat="45.4675977" lon="10.4972089"><ele>146.5</ele><time>2026-03-24T07:26:44.617Z</time></trkpt><trkpt lat="45.4675376" lon="10.4973791"><ele>145.75</ele><time>2026-03-24T07:26:45.618Z</time></trkpt><trkpt lat="45.467478" lon="10.4975389"><ele>145.0</ele><time>2026-03-24T07:26:46.616Z</time></trkpt><trkpt lat="45.4674217" lon="10.4977063"><ele>145.0</ele><time>2026-03-24T07:26:47.618Z</time></trkpt><trkpt lat="45.4673659" lon="10.4978751"><ele>145.0</ele><time>2026-03-24T07:26:48.624Z</time></trkpt><trkpt lat="45.4673093" lon="10.498045"><ele>145.0</ele><time>2026-03-24T07:26:49.617Z</time></trkpt><trkpt lat="45.4672559" lon="10.4982063"><ele>145.0</ele><time>2026-03-24T07:26:50.621Z</time></trkpt><trkpt lat="45.4672043" lon="10.4983716"><ele>145.0</ele><time>2026-03-24T07:26:51.624Z</time></trkpt><trkpt lat="45.4671487" lon="10.498541"><ele>145.0</ele><time>2026-03-24T07:26:52.615Z</time></trkpt><trkpt lat="45.4670918" lon="10.4987163"><ele>145.0</ele><time>2026-03-24T07:26:53.621Z</time></trkpt><trkpt lat="45.4670302" lon="10.4988933"><ele>145.0</ele><time>2026-03-24T07:26:54.621Z</time></trkpt><trkpt lat="45.4669681" lon="10.4990819"><ele>144.5</ele><time>2026-03-24T07:26:55.618Z</time></trkpt><trkpt lat="45.4669009" lon="10.4992654"><ele>144.0</ele><time>2026-03-24T07:26:56.621Z</time></trkpt><trkpt lat="45.4668557" lon="10.499452"><ele>143.5</ele><time>2026-03-24T07:26:57.625Z</time></trkpt><trkpt lat="45.4667999" lon="10.4996567"><ele>143.0</ele><time>2026-03-24T07:26:58.622Z</time></trkpt><trkpt lat="45.4667311" lon="10.4998632"><ele>142.66666666666666</ele><time>2026-03-24T07:26:59.624Z</time></trkpt><trkpt lat="45.4666524" lon="10.5000595"><ele>142.33333333333334</ele><time>2026-03-24T07:27:00.623Z</time></trkpt><trkpt lat="45.4665752" lon="10.5002512"><ele>142.0</ele><time>2026-03-24T07:27:01.615Z</time></trkpt><trkpt lat="45.4664993" lon="10.5004368"><ele>142.0</ele><time>2026-03-24T07:27:02.622Z</time></trkpt><trkpt lat="45.4664325" lon="10.5006295"><ele>142.0</ele><time>2026-03-24T07:27:03.616Z</time></trkpt><trkpt lat="45.4663585" lon="10.5008224"><ele>142.0</ele><time>2026-03-24T07:27:04.615Z</time></trkpt><trkpt lat="45.4662789" lon="10.501013"><ele>142.0</ele><time>2026-03-24T07:27:05.619Z</time></trkpt><trkpt lat="45.4661856" lon="10.5012033"><ele>142.0</ele><time>2026-03-24T07:27:06.62Z</time></trkpt><trkpt lat="45.4660935" lon="10.5013638"><ele>142.0</ele><time>2026-03-24T07:27:07.615Z</time></trkpt><trkpt lat="45.4660043" lon="10.5015188"><ele>142.0</ele><time>2026-03-24T07:27:08.622Z</time></trkpt><trkpt lat="45.4659117" lon="10.5016794"><ele>142.0</ele><time>2026-03-24T07:27:09.617Z</time></trkpt><trkpt lat="45.4658137" lon="10.5018493"><ele>142.0</ele><time>2026-03-24T07:27:10.611Z</time></trkpt><trkpt lat="45.4657012" lon="10.5020105"><ele>142.0</ele><time>2026-03-24T07:27:11.611Z</time></trkpt><trkpt lat="45.4655969" lon="10.5021867"><ele>141.66666666666669</ele><time>2026-03-24T07:27:12.608Z</time></trkpt><trkpt lat="45.4655003" lon="10.5023556"><ele>141.33333333333334</ele><time>2026-03-24T07:27:13.61Z</time></trkpt><trkpt lat="45.4653923" lon="10.5025441"><ele>141.0</ele><time>2026-03-24T07:27:14.616Z</time></trkpt><trkpt lat="45.4652825" lon="10.5027153"><ele>141.66666666666666</ele><time>2026-03-24T07:27:15.616Z</time></trkpt><trkpt lat="45.4651679" lon="10.502898"><ele>142.33333333333331</ele><time>2026-03-24T07:27:16.614Z</time></trkpt><trkpt lat="45.4650476" lon="10.5030555"><ele>143.0</ele><time>2026-03-24T07:27:17.627Z</time></trkpt><trkpt lat="45.4649545" lon="10.5032268"><ele>143.0</ele><time>2026-03-24T07:27:18.607Z</time></trkpt><trkpt lat="45.4648761" lon="10.5033887"><ele>143.0</ele><time>2026-03-24T07:27:19.616Z</time></trkpt><trkpt lat="45.4647746" lon="10.5035292"><ele>143.0</ele><time>2026-03-24T07:27:20.62Z</time></trkpt><trkpt lat="45.4646644" lon="10.5036927"><ele>143.0</ele><time>2026-03-24T07:27:21.613Z</time></trkpt><trkpt lat="45.4645473" lon="10.503867"><ele>144.66666666666666</ele><time>2026-03-24T07:27:22.616Z</time></trkpt><trkpt lat="45.4644369" lon="10.5040329"><ele>146.33333333333334</ele><time>2026-03-24T07:27:23.612Z</time></trkpt><trkpt lat="45.4643265" lon="10.5042159"><ele>148.0</ele><time>2026-03-24T07:27:24.614Z</time></trkpt><trkpt lat="45.4642114" lon="10.5044095"><ele>147.0</ele><time>2026-03-24T07:27:25.61Z</time></trkpt><trkpt lat="45.4641033" lon="10.5045817"><ele>146.0</ele><time>2026-03-24T07:27:26.617Z</time></trkpt><trkpt lat="45.463998" lon="10.5047411"><ele>145.0</ele><time>2026-03-24T07:27:27.623Z</time></trkpt><trkpt lat="45.4639019" lon="10.5049019"><ele>145.0</ele><time>2026-03-24T07:27:28.609Z</time></trkpt><trkpt lat="45.4637976" lon="10.505067"><ele>145.0</ele><time>2026-03-24T07:27:29.611Z</time></trkpt><trkpt lat="45.4636855" lon="10.5052305"><ele>145.0</ele><time>2026-03-24T07:27:30.622Z</time></trkpt><trkpt lat="45.4635804" lon="10.5054156"><ele>146.66666666666669</ele><time>2026-03-24T07:27:31.609Z</time></trkpt><trkpt lat="45.4634799" lon="10.505575"><ele>148.33333333333334</ele><time>2026-03-24T07:27:32.609Z</time></trkpt><trkpt lat="45.4633568" lon="10.5057473"><ele>150.0</ele><time>2026-03-24T07:27:33.617Z</time></trkpt><trkpt lat="45.4632465" lon="10.5059194"><ele>150.0</ele><time>2026-03-24T07:27:34.614Z</time></trkpt><trkpt lat="45.4631272" lon="10.5060799"><ele>150.0</ele><time>2026-03-24T07:27:35.602Z</time></trkpt><trkpt lat="45.4630275" lon="10.5062333"><ele>150.0</ele><time>2026-03-24T07:27:36.607Z</time></trkpt><trkpt lat="45.462941" lon="10.506406"><ele>149.66666666666666</ele><time>2026-03-24T07:27:37.609Z</time></trkpt><trkpt lat="45.4628465" lon="10.5065746"><ele>149.33333333333331</ele><time>2026-03-24T07:27:38.604Z</time></trkpt><trkpt lat="45.4627344" lon="10.5067549"><ele>149.0</ele><time>2026-03-24T07:27:39.615Z</time></trkpt><trkpt lat="45.4626334" lon="10.5069232"><ele>149.0</ele><time>2026-03-24T07:27:40.612Z</time></trkpt><trkpt lat="45.4625392" lon="10.507124"><ele>149.0</ele><time>2026-03-24T07:27:41.613Z</time></trkpt><trkpt lat="45.4624381" lon="10.5073054"><ele>149.0</ele><time>2026-03-24T07:27:42.615Z</time></trkpt><trkpt lat="45.462333" lon="10.5074763"><ele>149.0</ele><time>2026-03-24T07:27:43.616Z</time></trkpt><trkpt lat="45.4622297" lon="10.5076445"><ele>149.0</ele><time>2026-03-24T07:27:44.614Z</time></trkpt><trkpt lat="45.4621072" lon="10.5078256"><ele>149.0</ele><time>2026-03-24T07:27:45.615Z</time></trkpt><trkpt lat="45.4619855" lon="10.5080104"><ele>152.0</ele><time>2026-03-24T07:27:46.611Z</time></trkpt><trkpt lat="45.4618717" lon="10.5081944"><ele>155.0</ele><time>2026-03-24T07:27:47.618Z</time></trkpt><trkpt lat="45.4617342" lon="10.508386"><ele>158.0</ele><time>2026-03-24T07:27:48.62Z</time></trkpt><trkpt lat="45.4616197" lon="10.5085814"><ele>160.33333333333331</ele><time>2026-03-24T07:27:49.616Z</time></trkpt><trkpt lat="45.4614992" lon="10.5087656"><ele>162.66666666666666</ele><time>2026-03-24T07:27:50.619Z</time></trkpt><trkpt lat="45.4613911" lon="10.5089659"><ele>165.0</ele><time>2026-03-24T07:27:51.622Z</time></trkpt><trkpt lat="45.4612615" lon="10.5091477"><ele>165.0</ele><time>2026-03-24T07:27:52.611Z</time></trkpt><trkpt lat="45.4611498" lon="10.5093336"><ele>165.0</ele><time>2026-03-24T07:27:53.615Z</time></trkpt><trkpt lat="45.4610197" lon="10.5095341"><ele>165.0</ele><time>2026-03-24T07:27:54.61Z</time></trkpt><trkpt lat="45.4609154" lon="10.5097385"><ele>160.0</ele><time>2026-03-24T07:27:55.608Z</time></trkpt><trkpt lat="45.4608076" lon="10.5099407"><ele>155.0</ele><time>2026-03-24T07:27:56.608Z</time></trkpt><trkpt lat="45.4606919" lon="10.5101193"><ele>150.0</ele><time>2026-03-24T07:27:57.614Z</time></trkpt><trkpt lat="45.4605815" lon="10.5103087"><ele>148.66666666666666</ele><time>2026-03-24T07:27:58.606Z</time></trkpt><trkpt lat="45.4604512" lon="10.5104897"><ele>147.33333333333331</ele><time>2026-03-24T07:27:59.619Z</time></trkpt><trkpt lat="45.4603276" lon="10.5106851"><ele>146.0</ele><time>2026-03-24T07:28:00.611Z</time></trkpt><trkpt lat="45.4602018" lon="10.5108879"><ele>146.0</ele><time>2026-03-24T07:28:01.609Z</time></trkpt><trkpt lat="45.4600856" lon="10.5110908"><ele>146.0</ele><time>2026-03-24T07:28:02.619Z</time></trkpt><trkpt lat="45.459969" lon="10.5112812"><ele>146.0</ele><time>2026-03-24T07:28:03.617Z</time></trkpt><trkpt lat="45.4598484" lon="10.5114751"><ele>144.66666666666666</ele><time>2026-03-24T07:28:04.612Z</time></trkpt><trkpt lat="45.4597249" lon="10.5116516"><ele>143.33333333333334</ele><time>2026-03-24T07:28:05.622Z</time></trkpt><trkpt lat="45.4595934" lon="10.5118272"><ele>142.0</ele><time>2026-03-24T07:28:06.622Z</time></trkpt><trkpt lat="45.4594764" lon="10.512024"><ele>140.66666666666669</ele><time>2026-03-24T07:28:07.61Z</time></trkpt><trkpt lat="45.4593629" lon="10.512217"><ele>139.33333333333334</ele><time>2026-03-24T07:28:08.623Z</time></trkpt><trkpt lat="45.4592453" lon="10.5124071"><ele>138.0</ele><time>2026-03-24T07:28:09.621Z</time></trkpt><trkpt lat="45.459118" lon="10.5126015"><ele>138.0</ele><time>2026-03-24T07:28:10.626Z</time></trkpt><trkpt lat="45.4590086" lon="10.5128123"><ele>138.0</ele><time>2026-03-24T07:28:11.622Z</time></trkpt><trkpt lat="45.4589029" lon="10.5130062"><ele>138.0</ele><time>2026-03-24T07:28:12.622Z</time></trkpt><trkpt lat="45.4588078" lon="10.5131997"><ele>138.0</ele><time>2026-03-24T07:28:13.614Z</time></trkpt><trkpt lat="45.4587012" lon="10.5133972"><ele>138.0</ele><time>2026-03-24T07:28:14.621Z</time></trkpt><trkpt lat="45.4586068" lon="10.5135872"><ele>138.0</ele><time>2026-03-24T07:28:15.627Z</time></trkpt><trkpt lat="45.4585314" lon="10.5137865"><ele>137.0</ele><time>2026-03-24T07:28:16.614Z</time></trkpt><trkpt lat="45.4584564" lon="10.5139876"><ele>136.0</ele><time>2026-03-24T07:28:17.627Z</time></trkpt><trkpt lat="45.458384" lon="10.5141701"><ele>135.0</ele><time>2026-03-24T07:28:18.623Z</time></trkpt><trkpt lat="45.4583282" lon="10.5143673"><ele>135.0</ele><time>2026-03-24T07:28:19.618Z</time></trkpt><trkpt lat="45.4582635" lon="10.5145689"><ele>135.0</ele><time>2026-03-24T07:28:20.626Z</time></trkpt><trkpt lat="45.4582173" lon="10.5147901"><ele>135.0</ele><time>2026-03-24T07:28:21.623Z</time></trkpt><trkpt lat="45.4581779" lon="10.5150179"><ele>135.0</ele><time>2026-03-24T07:28:22.615Z</time></trkpt><trkpt lat="45.4581324" lon="10.5152515"><ele>135.0</ele><time>2026-03-24T07:28:23.625Z</time></trkpt><trkpt lat="45.4581086" lon="10.515495"><ele>135.0</ele><time>2026-03-24T07:28:24.626Z</time></trkpt><trkpt lat="45.4580713" lon="10.5157387"><ele>134.66666666666666</ele><time>2026-03-24T07:28:25.606Z</time></trkpt><trkpt lat="45.4580599" lon="10.5159857"><ele>134.33333333333331</ele><time>2026-03-24T07:28:26.626Z</time></trkpt><trkpt lat="45.4580406" lon="10.5162371"><ele>134.0</ele><time>2026-03-24T07:28:27.618Z</time></trkpt><trkpt lat="45.458037" lon="10.5164921"><ele>133.66666666666666</ele><time>2026-03-24T07:28:28.616Z</time></trkpt><trkpt lat="45.4580131" lon="10.5167393"><ele>133.33333333333334</ele><time>2026-03-24T07:28:29.616Z</time></trkpt><trkpt lat="45.4579984" lon="10.5169719"><ele>133.0</ele><time>2026-03-24T07:28:30.615Z</time></trkpt><trkpt lat="45.4579768" lon="10.5172005"><ele>135.0</ele><time>2026-03-24T07:28:31.611Z</time></trkpt><trkpt lat="45.4579369" lon="10.5174345"><ele>137.0</ele><time>2026-03-24T07:28:32.619Z</time></trkpt><trkpt lat="45.4579281" lon="10.5176698"><ele>139.0</ele><time>2026-03-24T07:28:33.617Z</time></trkpt><trkpt lat="45.45793" lon="10.5179114"><ele>139.33333333333334</ele><time>2026-03-24T07:28:34.611Z</time></trkpt><trkpt lat="45.4579162" lon="10.5181493"><ele>139.66666666666666</ele><time>2026-03-24T07:28:35.615Z</time></trkpt><trkpt lat="45.4579043" lon="10.5184007"><ele>140.0</ele><time>2026-03-24T07:28:36.611Z</time></trkpt><trkpt lat="45.4578712" lon="10.5186335"><ele>137.33333333333331</ele><time>2026-03-24T07:28:37.605Z</time></trkpt><trkpt lat="45.4578597" lon="10.518868"><ele>134.66666666666666</ele><time>2026-03-24T07:28:38.613Z</time></trkpt><trkpt lat="45.4578387" lon="10.5191233"><ele>132.0</ele><time>2026-03-24T07:28:39.612Z</time></trkpt><trkpt lat="45.4578251" lon="10.5193776"><ele>130.0</ele><time>2026-03-24T07:28:40.601Z</time></trkpt><trkpt lat="45.4577936" lon="10.5196293"><ele>128.0</ele><time>2026-03-24T07:28:41.615Z</time></trkpt><trkpt lat="45.4577734" lon="10.5198474"><ele>126.0</ele><time>2026-03-24T07:28:42.606Z</time></trkpt><trkpt lat="45.4577622" lon="10.5200554"><ele>126.0</ele><time>2026-03-24T07:28:43.605Z</time></trkpt><trkpt lat="45.4577349" lon="10.5202782"><ele>126.0</ele><time>2026-03-24T07:28:44.618Z</time></trkpt><trkpt lat="45.4577083" lon="10.5205008"><ele>126.0</ele><time>2026-03-24T07:28:45.614Z</time></trkpt><trkpt lat="45.4576982" lon="10.5207023"><ele>125.75</ele><time>2026-03-24T07:28:46.609Z</time></trkpt><trkpt lat="45.4576917" lon="10.5208891"><ele>125.5</ele><time>2026-03-24T07:28:47.614Z</time></trkpt><trkpt lat="45.4576846" lon="10.5210688"><ele>125.25</ele><time>2026-03-24T07:28:48.614Z</time></trkpt><trkpt lat="45.4576781" lon="10.5212559"><ele>125.0</ele><time>2026-03-24T07:28:49.609Z</time></trkpt><trkpt lat="45.4576454" lon="10.521445"><ele>124.4</ele><time>2026-03-24T07:28:50.616Z</time></trkpt><trkpt lat="45.4576107" lon="10.5216281"><ele>123.8</ele><time>2026-03-24T07:28:51.613Z</time></trkpt><trkpt lat="45.4575821" lon="10.521778"><ele>123.19999999999999</ele><time>2026-03-24T07:28:52.606Z</time></trkpt><trkpt lat="45.457568" lon="10.5219233"><ele>122.6</ele><time>2026-03-24T07:28:53.616Z</time></trkpt><trkpt lat="45.4575517" lon="10.5220666"><ele>122.0</ele><time>2026-03-24T07:28:54.607Z</time></trkpt><trkpt lat="45.4575372" lon="10.5221953"><ele>121.8</ele><time>2026-03-24T07:28:55.6Z</time></trkpt><trkpt lat="45.4575253" lon="10.5222978"><ele>121.6</ele><time>2026-03-24T07:28:56.616Z</time></trkpt><trkpt lat="45.4574935" lon="10.5224541"><ele>121.39999999999999</ele><time>2026-03-24T07:28:58.607Z</time></trkpt><trkpt lat="45.4574288" lon="10.522581"><ele>121.19999999999999</ele><time>2026-03-24T07:29:00.618Z</time></trkpt><trkpt lat="45.4573548" lon="10.5226659"><ele>121.0</ele><time>2026-03-24T07:29:02.618Z</time></trkpt><trkpt lat="45.4572825" lon="10.5227099"><ele>121.0</ele><time>2026-03-24T07:29:04.615Z</time></trkpt><trkpt lat="45.4571681" lon="10.5227514"><ele>121.0</ele><time>2026-03-24T07:29:06.604Z</time></trkpt><trkpt lat="45.4570906" lon="10.5227741"><ele>121.0</ele><time>2026-03-24T07:29:07.607Z</time></trkpt><trkpt lat="45.4570189" lon="10.5227768"><ele>121.0</ele><time>2026-03-24T07:29:08.605Z</time></trkpt><trkpt lat="45.4569013" lon="10.5227658"><ele>121.0</ele><time>2026-03-24T07:29:10.603Z</time></trkpt><trkpt lat="45.4567896" lon="10.5227148"><ele>121.4</ele><time>2026-03-24T07:29:12.605Z</time></trkpt><trkpt lat="45.4567496" lon="10.5226017"><ele>121.8</ele><time>2026-03-24T07:29:14.597Z</time></trkpt><trkpt lat="45.4567865" lon="10.5224693"><ele>122.20000000000002</ele><time>2026-03-24T07:29:16.599Z</time></trkpt><trkpt lat="45.4569127" lon="10.5224562"><ele>122.60000000000001</ele><time>2026-03-24T07:29:18.6Z</time></trkpt><trkpt lat="45.4569811" lon="10.5224918"><ele>123.0</ele><time>2026-03-24T07:29:19.609Z</time></trkpt><trkpt lat="45.4570402" lon="10.5225347"><ele>123.0</ele><time>2026-03-24T07:29:20.606Z</time></trkpt><trkpt lat="45.4571188" lon="10.522553"><ele>123.0</ele><time>2026-03-24T07:29:22.602Z</time></trkpt><trkpt lat="45.4572041" lon="10.5225225"><ele>123.0</ele><time>2026-03-24T07:29:24.608Z</time></trkpt><trkpt lat="45.457291" lon="10.5224303"><ele>123.0</ele><time>2026-03-24T07:29:26.607Z</time></trkpt><trkpt lat="45.4573476" lon="10.5223779"><ele>123.0</ele><time>2026-03-24T07:29:28.617Z</time></trkpt><trkpt lat="45.4573963" lon="10.5223152"><ele>123.0</ele><time>2026-03-24T07:38:13.656Z</time></trkpt><trkpt lat="45.4574549" lon="10.5222396"><ele>122.83333333333333</ele><time>2026-03-24T07:38:45.651Z</time></trkpt><trkpt lat="45.4575112" lon="10.5221315"><ele>122.66666666666666</ele><time>2026-03-24T07:38:48.651Z</time></trkpt><trkpt lat="45.4575142" lon="10.5220346"><ele>122.5</ele><time>2026-03-24T07:38:50.647Z</time></trkpt><trkpt lat="45.4574809" lon="10.5219434"><ele>122.33333333333333</ele><time>2026-03-24T07:38:53.647Z</time></trkpt><trkpt lat="45.4574048" lon="10.5218958"><ele>122.16666666666666</ele><time>2026-03-24T07:38:56.655Z</time></trkpt><trkpt lat="45.4573344" lon="10.5218826"><ele>122.0</ele><time>2026-03-24T07:38:58.644Z</time></trkpt><trkpt lat="45.4572179" lon="10.5218894"><ele>122.19999999999999</ele><time>2026-03-24T07:39:00.647Z</time></trkpt><trkpt lat="45.4571024" lon="10.5219306"><ele>122.39999999999999</ele><time>2026-03-24T07:39:02.651Z</time></trkpt><trkpt lat="45.4570226" lon="10.5220401"><ele>122.60000000000001</ele><time>2026-03-24T07:39:04.652Z</time></trkpt><trkpt lat="45.4569683" lon="10.5222064"><ele>122.80000000000001</ele><time>2026-03-24T07:39:06.644Z</time></trkpt><trkpt lat="45.4569328" lon="10.5222897"><ele>123.0</ele><time>2026-03-24T07:39:07.653Z</time></trkpt><trkpt lat="45.4568876" lon="10.5223609"><ele>123.0</ele><time>2026-03-24T07:39:08.644Z</time></trkpt><trkpt lat="45.4568375" lon="10.5224248"><ele>123.0</ele><time>2026-03-24T07:39:09.647Z</time></trkpt><trkpt lat="45.4567455" lon="10.5225336"><ele>123.0</ele><time>2026-03-24T07:39:11.646Z</time></trkpt><trkpt lat="45.4566539" lon="10.5225904"><ele>123.0</ele><time>2026-03-24T07:39:13.644Z</time></trkpt><trkpt lat="45.4565709" lon="10.5226211"><ele>123.0</ele><time>2026-03-24T07:39:16.653Z</time></trkpt><trkpt lat="45.4565063" lon="10.5226368"><ele>123.0</ele><time>2026-03-24T07:39:18.659Z</time></trkpt><trkpt lat="45.4564475" lon="10.5225988"><ele>123.0</ele><time>2026-03-24T07:39:19.646Z</time></trkpt><trkpt lat="45.4563651" lon="10.5225468"><ele>123.00000000000001</ele><time>2026-03-24T07:39:20.644Z</time></trkpt><trkpt lat="45.4562613" lon="10.5224916"><ele>123.00000000000001</ele><time>2026-03-24T07:39:21.649Z</time></trkpt><trkpt lat="45.4561466" lon="10.5224404"><ele>123.0</ele><time>2026-03-24T07:39:22.651Z</time></trkpt><trkpt lat="45.456031" lon="10.5223999"><ele>123.0</ele><time>2026-03-24T07:39:23.649Z</time></trkpt><trkpt lat="45.4559152" lon="10.5223679"><ele>123.5</ele><time>2026-03-24T07:39:24.648Z</time></trkpt><trkpt lat="45.4558042" lon="10.5223426"><ele>124.0</ele><time>2026-03-24T07:39:25.648Z</time></trkpt><trkpt lat="45.4556848" lon="10.5223127"><ele>124.5</ele><time>2026-03-24T07:39:26.657Z</time></trkpt><trkpt lat="45.4555618" lon="10.5222878"><ele>125.0</ele><time>2026-03-24T07:39:27.65Z</time></trkpt><trkpt lat="45.4554349" lon="10.5222598"><ele>125.75</ele><time>2026-03-24T07:39:28.66Z</time></trkpt><trkpt lat="45.4553064" lon="10.5222283"><ele>126.5</ele><time>2026-03-24T07:39:29.648Z</time></trkpt><trkpt lat="45.4551858" lon="10.5221855"><ele>127.25</ele><time>2026-03-24T07:39:30.643Z</time></trkpt><trkpt lat="45.4550693" lon="10.5221379"><ele>128.0</ele><time>2026-03-24T07:39:31.659Z</time></trkpt><trkpt lat="45.4549515" lon="10.522099"><ele>128.8</ele><time>2026-03-24T07:39:32.656Z</time></trkpt><trkpt lat="45.4548455" lon="10.5220592"><ele>129.60000000000002</ele><time>2026-03-24T07:39:33.638Z</time></trkpt><trkpt lat="45.4547513" lon="10.5220234"><ele>130.39999999999998</ele><time>2026-03-24T07:39:34.653Z</time></trkpt><trkpt lat="45.4546546" lon="10.521987"><ele>131.2</ele><time>2026-03-24T07:39:35.652Z</time></trkpt><trkpt lat="45.4545552" lon="10.52194"><ele>132.0</ele><time>2026-03-24T07:39:36.644Z</time></trkpt><trkpt lat="45.454454" lon="10.5218927"><ele>132.6</ele><time>2026-03-24T07:39:37.644Z</time></trkpt><trkpt lat="45.4543575" lon="10.5218343"><ele>133.2</ele><time>2026-03-24T07:39:38.652Z</time></trkpt><trkpt lat="45.4542592" lon="10.5217663"><ele>133.8</ele><time>2026-03-24T07:39:39.637Z</time></trkpt><trkpt lat="45.4541582" lon="10.5216906"><ele>134.4</ele><time>2026-03-24T07:39:40.643Z</time></trkpt><trkpt lat="45.454052" lon="10.5216116"><ele>135.0</ele><time>2026-03-24T07:39:41.642Z</time></trkpt><trkpt lat="45.4539447" lon="10.5215266"><ele>135.0</ele><time>2026-03-24T07:39:42.643Z</time></trkpt><trkpt lat="45.4538374" lon="10.5214433"><ele>135.0</ele><time>2026-03-24T07:39:43.648Z</time></trkpt><trkpt lat="45.4537295" lon="10.5213599"><ele>135.0</ele><time>2026-03-24T07:39:44.642Z</time></trkpt><trkpt lat="45.4536256" lon="10.5212775"><ele>135.0</ele><time>2026-03-24T07:39:45.639Z</time></trkpt><trkpt lat="45.4535243" lon="10.5211989"><ele>135.4</ele><time>2026-03-24T07:39:46.648Z</time></trkpt><trkpt lat="45.4534258" lon="10.5211223"><ele>135.8</ele><time>2026-03-24T07:39:47.649Z</time></trkpt><trkpt lat="45.4533312" lon="10.5210388"><ele>136.2</ele><time>2026-03-24T07:39:48.643Z</time></trkpt><trkpt lat="45.4532357" lon="10.5209691"><ele>136.6</ele><time>2026-03-24T07:39:49.653Z</time></trkpt><trkpt lat="45.4531423" lon="10.5208982"><ele>137.0</ele><time>2026-03-24T07:39:50.65Z</time></trkpt><trkpt lat="45.4530522" lon="10.5208298"><ele>137.0</ele><time>2026-03-24T07:39:51.654Z</time></trkpt><trkpt lat="45.452961" lon="10.5207677"><ele>137.0</ele><time>2026-03-24T07:39:52.653Z</time></trkpt><trkpt lat="45.4528769" lon="10.5207265"><ele>137.0</ele><time>2026-03-24T07:39:53.657Z</time></trkpt><trkpt lat="45.4528055" lon="10.5206991"><ele>137.0</ele><time>2026-03-24T07:39:54.652Z</time></trkpt><trkpt lat="45.4527389" lon="10.5206746"><ele>137.0</ele><time>2026-03-24T07:39:55.651Z</time></trkpt><trkpt lat="45.4526458" lon="10.5206259"><ele>137.0</ele><time>2026-03-24T07:39:57.652Z</time></trkpt><trkpt lat="45.4525642" lon="10.5205468"><ele>136.79999999999998</ele><time>2026-03-24T07:39:59.648Z</time></trkpt><trkpt lat="45.4525325" lon="10.5204365"><ele>136.6</ele><time>2026-03-24T07:40:01.657Z</time></trkpt><trkpt lat="45.4525123" lon="10.5202963"><ele>136.39999999999998</ele><time>2026-03-24T07:40:03.643Z</time></trkpt><trkpt lat="45.4525105" lon="10.5201447"><ele>136.2</ele><time>2026-03-24T07:40:05.643Z</time></trkpt><trkpt lat="45.4525082" lon="10.5200201"><ele>136.0</ele><time>2026-03-24T07:40:07.657Z</time></trkpt><trkpt lat="45.4525014" lon="10.5199031"><ele>136.0</ele><time>2026-03-24T07:40:09.661Z</time></trkpt><trkpt lat="45.4524835" lon="10.5197886"><ele>136.0</ele><time>2026-03-24T07:40:11.663Z</time></trkpt><trkpt lat="45.4524522" lon="10.5196939"><ele>136.0</ele><time>2026-03-24T07:40:13.651Z</time></trkpt><trkpt lat="45.4524035" lon="10.5196158"><ele>136.0</ele><time>2026-03-24T07:40:58.657Z</time></trkpt><trkpt lat="45.4523722" lon="10.5195358"><ele>136.0</ele><time>2026-03-24T07:41:01.66Z</time></trkpt><trkpt lat="45.4523301" lon="10.5194278"><ele>136.0</ele><time>2026-03-24T07:41:04.661Z</time></trkpt><trkpt lat="45.4522366" lon="10.5194428"><ele>136.0</ele><time>2026-03-24T07:41:07.661Z</time></trkpt><trkpt lat="45.4521508" lon="10.5194357"><ele>136.0</ele><time>2026-03-24T07:41:09.667Z</time></trkpt><trkpt lat="45.4520437" lon="10.5194066"><ele>136.0</ele><time>2026-03-24T07:41:11.654Z</time></trkpt><trkpt lat="45.4519816" lon="10.51939"><ele>136.0</ele><time>2026-03-24T07:41:12.632Z</time></trkpt><trkpt lat="45.4519036" lon="10.5193735"><ele>136.0</ele><time>2026-03-24T07:41:13.639Z</time></trkpt><trkpt lat="45.4518115" lon="10.5193545"><ele>136.0</ele><time>2026-03-24T07:41:14.637Z</time></trkpt><trkpt lat="45.4517227" lon="10.5193365"><ele>136.0</ele><time>2026-03-24T07:41:15.634Z</time></trkpt><trkpt lat="45.451629" lon="10.5193228"><ele>136.0</ele><time>2026-03-24T07:41:16.63Z</time></trkpt><trkpt lat="45.4515228" lon="10.5193294"><ele>136.0</ele><time>2026-03-24T07:41:17.637Z</time></trkpt><trkpt lat="45.4514114" lon="10.5193561"><ele>136.0</ele><time>2026-03-24T07:41:18.636Z</time></trkpt><trkpt lat="45.4512947" lon="10.5193904"><ele>136.0</ele><time>2026-03-24T07:41:19.631Z</time></trkpt><trkpt lat="45.451172" lon="10.5194197"><ele>136.0</ele><time>2026-03-24T07:41:20.627Z</time></trkpt><trkpt lat="45.4510543" lon="10.5194326"><ele>136.0</ele><time>2026-03-24T07:41:21.627Z</time></trkpt><trkpt lat="45.4509322" lon="10.5194334"><ele>136.0</ele><time>2026-03-24T07:41:22.636Z</time></trkpt><trkpt lat="45.4508128" lon="10.5194293"><ele>136.0</ele><time>2026-03-24T07:41:23.632Z</time></trkpt><trkpt lat="45.4506834" lon="10.5194043"><ele>136.0</ele><time>2026-03-24T07:41:24.64Z</time></trkpt><trkpt lat="45.4505462" lon="10.5193762"><ele>136.0</ele><time>2026-03-24T07:41:25.627Z</time></trkpt><trkpt lat="45.4504076" lon="10.5193442"><ele>136.0</ele><time>2026-03-24T07:41:26.643Z</time></trkpt><trkpt lat="45.4502722" lon="10.5192883"><ele>136.0</ele><time>2026-03-24T07:41:27.634Z</time></trkpt><trkpt lat="45.450138" lon="10.5192492"><ele>135.75</ele><time>2026-03-24T07:41:28.643Z</time></trkpt><trkpt lat="45.4499982" lon="10.5192281"><ele>135.5</ele><time>2026-03-24T07:41:29.64Z</time></trkpt><trkpt lat="45.4498687" lon="10.5192001"><ele>135.25</ele><time>2026-03-24T07:41:30.639Z</time></trkpt><trkpt lat="45.4497474" lon="10.5191793"><ele>135.0</ele><time>2026-03-24T07:41:31.641Z</time></trkpt><trkpt lat="45.4496231" lon="10.5191581"><ele>135.0</ele><time>2026-03-24T07:41:32.646Z</time></trkpt><trkpt lat="45.4495064" lon="10.5191441"><ele>135.0</ele><time>2026-03-24T07:41:33.629Z</time></trkpt><trkpt lat="45.4493892" lon="10.5191222"><ele>135.0</ele><time>2026-03-24T07:41:34.643Z</time></trkpt><trkpt lat="45.4492767" lon="10.5191021"><ele>135.0</ele><time>2026-03-24T07:41:35.646Z</time></trkpt><trkpt lat="45.449161" lon="10.519079"><ele>135.0</ele><time>2026-03-24T07:41:36.647Z</time></trkpt><trkpt lat="45.4490516" lon="10.5190529"><ele>135.0</ele><time>2026-03-24T07:41:37.64Z</time></trkpt><trkpt lat="45.4489464" lon="10.5190266"><ele>135.0</ele><time>2026-03-24T07:41:38.633Z</time></trkpt><trkpt lat="45.4488442" lon="10.5189854"><ele>135.0</ele><time>2026-03-24T07:41:39.646Z</time></trkpt><trkpt lat="45.4487426" lon="10.5189189"><ele>135.0</ele><time>2026-03-24T07:41:40.628Z</time></trkpt><trkpt lat="45.4486572" lon="10.5188148"><ele>134.8</ele><time>2026-03-24T07:41:41.638Z</time></trkpt><trkpt lat="45.4485944" lon="10.5186869"><ele>134.6</ele><time>2026-03-24T07:41:42.636Z</time></trkpt><trkpt lat="45.4485547" lon="10.5185397"><ele>134.4</ele><time>2026-03-24T07:41:43.629Z</time></trkpt><trkpt lat="45.4485296" lon="10.5183882"><ele>134.2</ele><time>2026-03-24T07:41:44.635Z</time></trkpt><trkpt lat="45.4485364" lon="10.5182279"><ele>134.0</ele><time>2026-03-24T07:41:45.631Z</time></trkpt><trkpt lat="45.4485665" lon="10.5180724"><ele>134.0</ele><time>2026-03-24T07:41:46.626Z</time></trkpt><trkpt lat="45.4486194" lon="10.5179228"><ele>134.0</ele><time>2026-03-24T07:41:47.63Z</time></trkpt><trkpt lat="45.4486888" lon="10.5177938"><ele>134.0</ele><time>2026-03-24T07:41:48.64Z</time></trkpt><trkpt lat="45.4487706" lon="10.5176845"><ele>134.0</ele><time>2026-03-24T07:41:49.632Z</time></trkpt><trkpt lat="45.448861" lon="10.517601"><ele>134.0</ele><time>2026-03-24T07:41:50.634Z</time></trkpt><trkpt lat="45.4489534" lon="10.517548"><ele>134.0</ele><time>2026-03-24T07:41:51.64Z</time></trkpt><trkpt lat="45.4490519" lon="10.5175198"><ele>134.0</ele><time>2026-03-24T07:41:52.633Z</time></trkpt><trkpt lat="45.4491444" lon="10.5175139"><ele>134.0</ele><time>2026-03-24T07:41:53.63Z</time></trkpt><trkpt lat="45.4492292" lon="10.5175295"><ele>134.0</ele><time>2026-03-24T07:41:54.637Z</time></trkpt><trkpt lat="45.4493115" lon="10.5175686"><ele>134.0</ele><time>2026-03-24T07:41:55.635Z</time></trkpt><trkpt lat="45.4493871" lon="10.5176204"><ele>134.0</ele><time>2026-03-24T07:41:56.635Z</time></trkpt><trkpt lat="45.4494541" lon="10.5176855"><ele>134.0</ele><time>2026-03-24T07:41:57.629Z</time></trkpt><trkpt lat="45.4495188" lon="10.5177608"><ele>134.0</ele><time>2026-03-24T07:41:58.631Z</time></trkpt><trkpt lat="45.4495746" lon="10.5178462"><ele>134.0</ele><time>2026-03-24T07:41:59.632Z</time></trkpt><trkpt lat="45.4496149" lon="10.5179383"><ele>134.0</ele><time>2026-03-24T07:42:00.636Z</time></trkpt><trkpt lat="45.4496457" lon="10.518031"><ele>133.83333333333331</ele><time>2026-03-24T07:42:01.628Z</time></trkpt><trkpt lat="45.4496769" lon="10.5181781"><ele>133.66666666666666</ele><time>2026-03-24T07:42:03.645Z</time></trkpt><trkpt lat="45.4496832" lon="10.5183183"><ele>133.5</ele><time>2026-03-24T07:42:05.647Z</time></trkpt><trkpt lat="45.4496856" lon="10.5184121"><ele>133.33333333333334</ele><time>2026-03-24T07:42:06.633Z</time></trkpt><trkpt lat="45.4496832" lon="10.5185087"><ele>133.16666666666669</ele><time>2026-03-24T07:42:07.629Z</time></trkpt><trkpt lat="45.4496715" lon="10.5186027"><ele>133.0</ele><time>2026-03-24T07:42:08.63Z</time></trkpt><trkpt lat="45.4496494" lon="10.5187241"><ele>133.4</ele><time>2026-03-24T07:42:10.643Z</time></trkpt><trkpt lat="45.4496277" lon="10.5188556"><ele>133.8</ele><time>2026-03-24T07:42:12.636Z</time></trkpt><trkpt lat="45.4496107" lon="10.5190163"><ele>134.2</ele><time>2026-03-24T07:42:14.638Z</time></trkpt><trkpt lat="45.4495991" lon="10.5191193"><ele>134.6</ele><time>2026-03-24T07:42:15.633Z</time></trkpt><trkpt lat="45.449582" lon="10.5192657"><ele>135.0</ele><time>2026-03-24T07:42:16.624Z</time></trkpt><trkpt lat="45.4495716" lon="10.519445"><ele>135.0</ele><time>2026-03-24T07:42:17.732Z</time></trkpt><trkpt lat="45.4495576" lon="10.5196598"><ele>135.0</ele><time>2026-03-24T07:42:18.638Z</time></trkpt><trkpt lat="45.4495436" lon="10.5198717"><ele>135.0</ele><time>2026-03-24T07:42:19.641Z</time></trkpt><trkpt lat="45.4495373" lon="10.5200654"><ele>135.0</ele><time>2026-03-24T07:42:20.644Z</time></trkpt><trkpt lat="45.4495002" lon="10.5202186"><ele>135.0</ele><time>2026-03-24T07:42:21.632Z</time></trkpt><trkpt lat="45.4494885" lon="10.5203685"><ele>135.0</ele><time>2026-03-24T07:42:22.645Z</time></trkpt><trkpt lat="45.4494827" lon="10.5205022"><ele>135.0</ele><time>2026-03-24T07:42:23.649Z</time></trkpt><trkpt lat="45.4494825" lon="10.5206298"><ele>135.0</ele><time>2026-03-24T07:42:24.644Z</time></trkpt><trkpt lat="45.4494795" lon="10.5207278"><ele>135.0</ele><time>2026-03-24T07:42:25.632Z</time></trkpt><trkpt lat="45.4494693" lon="10.5208494"><ele>135.0</ele><time>2026-03-24T07:42:26.629Z</time></trkpt><trkpt lat="45.4494548" lon="10.5209792"><ele>135.0</ele><time>2026-03-24T07:42:27.63Z</time></trkpt><trkpt lat="45.4494411" lon="10.5211252"><ele>135.0</ele><time>2026-03-24T07:42:28.637Z</time></trkpt><trkpt lat="45.4494214" lon="10.5212621"><ele>135.0</ele><time>2026-03-24T07:42:29.633Z</time></trkpt><trkpt lat="45.4494015" lon="10.5213999"><ele>135.0</ele><time>2026-03-24T07:42:30.639Z</time></trkpt><trkpt lat="45.4493885" lon="10.5215384"><ele>135.0</ele><time>2026-03-24T07:42:31.637Z</time></trkpt><trkpt lat="45.4493776" lon="10.5216826"><ele>135.0</ele><time>2026-03-24T07:42:32.64Z</time></trkpt><trkpt lat="45.4493611" lon="10.5218264"><ele>135.0</ele><time>2026-03-24T07:42:33.641Z</time></trkpt><trkpt lat="45.4493481" lon="10.5219585"><ele>135.0</ele><time>2026-03-24T07:42:34.636Z</time></trkpt><trkpt lat="45.4493349" lon="10.5220958"><ele>135.0</ele><time>2026-03-24T07:42:35.644Z</time></trkpt><trkpt lat="45.449326" lon="10.5222344"><ele>135.0</ele><time>2026-03-24T07:42:36.649Z</time></trkpt><trkpt lat="45.4493132" lon="10.5223715"><ele>134.8</ele><time>2026-03-24T07:42:37.639Z</time></trkpt><trkpt lat="45.4492978" lon="10.5225069"><ele>134.6</ele><time>2026-03-24T07:42:38.646Z</time></trkpt><trkpt lat="45.4492884" lon="10.5226486"><ele>134.4</ele><time>2026-03-24T07:42:39.644Z</time></trkpt><trkpt lat="45.4492739" lon="10.5227863"><ele>134.2</ele><time>2026-03-24T07:42:40.635Z</time></trkpt><trkpt lat="45.4492568" lon="10.5229242"><ele>134.0</ele><time>2026-03-24T07:42:41.648Z</time></trkpt><trkpt lat="45.449238" lon="10.5230694"><ele>134.0</ele><time>2026-03-24T07:42:42.642Z</time></trkpt><trkpt lat="45.4492237" lon="10.52322"><ele>134.0</ele><time>2026-03-24T07:42:43.638Z</time></trkpt><trkpt lat="45.4492101" lon="10.5233743"><ele>134.0</ele><time>2026-03-24T07:42:44.639Z</time></trkpt><trkpt lat="45.4491892" lon="10.5235298"><ele>134.0</ele><time>2026-03-24T07:42:45.636Z</time></trkpt><trkpt lat="45.449171" lon="10.5236798"><ele>134.0</ele><time>2026-03-24T07:42:46.624Z</time></trkpt><trkpt lat="45.4491522" lon="10.5238268"><ele>135.5</ele><time>2026-03-24T07:42:47.636Z</time></trkpt><trkpt lat="45.4491333" lon="10.52398"><ele>137.0</ele><time>2026-03-24T07:42:48.637Z</time></trkpt><trkpt lat="45.4491095" lon="10.5241352"><ele>138.5</ele><time>2026-03-24T07:42:49.634Z</time></trkpt><trkpt lat="45.449085" lon="10.5242958"><ele>140.0</ele><time>2026-03-24T07:42:50.628Z</time></trkpt><trkpt lat="45.4490492" lon="10.5244628"><ele>139.25</ele><time>2026-03-24T07:42:51.639Z</time></trkpt><trkpt lat="45.4490213" lon="10.5246311"><ele>138.5</ele><time>2026-03-24T07:42:52.621Z</time></trkpt><trkpt lat="45.4489988" lon="10.5248026"><ele>137.75</ele><time>2026-03-24T07:42:53.632Z</time></trkpt><trkpt lat="45.4489745" lon="10.5249663"><ele>137.0</ele><time>2026-03-24T07:42:54.632Z</time></trkpt><trkpt lat="45.4489489" lon="10.5251343"><ele>137.0</ele><time>2026-03-24T07:42:55.613Z</time></trkpt><trkpt lat="45.4489202" lon="10.5253065"><ele>137.0</ele><time>2026-03-24T07:42:56.636Z</time></trkpt><trkpt lat="45.448891" lon="10.5254805"><ele>137.0</ele><time>2026-03-24T07:42:57.631Z</time></trkpt><trkpt lat="45.4488628" lon="10.5256481"><ele>137.0</ele><time>2026-03-24T07:42:58.623Z</time></trkpt><trkpt lat="45.4488355" lon="10.5258079"><ele>134.75</ele><time>2026-03-24T07:42:59.627Z</time></trkpt><trkpt lat="45.4488094" lon="10.5259657"><ele>132.5</ele><time>2026-03-24T07:43:00.63Z</time></trkpt><trkpt lat="45.4487809" lon="10.5261344"><ele>130.25</ele><time>2026-03-24T07:43:01.624Z</time></trkpt><trkpt lat="45.4487514" lon="10.5263028"><ele>128.0</ele><time>2026-03-24T07:43:02.635Z</time></trkpt><trkpt lat="45.4487242" lon="10.5264588"><ele>126.4</ele><time>2026-03-24T07:43:03.633Z</time></trkpt><trkpt lat="45.448698" lon="10.5266041"><ele>124.80000000000001</ele><time>2026-03-24T07:43:04.628Z</time></trkpt><trkpt lat="45.4486681" lon="10.5267407"><ele>123.2</ele><time>2026-03-24T07:43:05.631Z</time></trkpt><trkpt lat="45.4486443" lon="10.5268724"><ele>121.6</ele><time>2026-03-24T07:43:06.635Z</time></trkpt><trkpt lat="45.4486243" lon="10.5269939"><ele>120.0</ele><time>2026-03-24T07:43:07.638Z</time></trkpt><trkpt lat="45.4486073" lon="10.5271087"><ele>119.66666666666667</ele><time>2026-03-24T07:43:08.641Z</time></trkpt><trkpt lat="45.448589" lon="10.5272197"><ele>119.33333333333334</ele><time>2026-03-24T07:43:09.631Z</time></trkpt><trkpt lat="45.4485673" lon="10.5273374"><ele>119.0</ele><time>2026-03-24T07:43:10.632Z</time></trkpt><trkpt lat="45.4485455" lon="10.5274605"><ele>118.66666666666667</ele><time>2026-03-24T07:43:11.643Z</time></trkpt><trkpt lat="45.4485174" lon="10.5275903"><ele>118.33333333333334</ele><time>2026-03-24T07:43:12.642Z</time></trkpt><trkpt lat="45.4484896" lon="10.5277258"><ele>118.0</ele><time>2026-03-24T07:43:13.632Z</time></trkpt><trkpt lat="45.44846" lon="10.5278776"><ele>117.80000000000001</ele><time>2026-03-24T07:43:14.637Z</time></trkpt><trkpt lat="45.4484325" lon="10.5280291"><ele>117.60000000000001</ele><time>2026-03-24T07:43:15.64Z</time></trkpt><trkpt lat="45.4484025" lon="10.5281773"><ele>117.39999999999999</ele><time>2026-03-24T07:43:16.618Z</time></trkpt><trkpt lat="45.4483709" lon="10.5283132"><ele>117.19999999999999</ele><time>2026-03-24T07:43:17.641Z</time></trkpt><trkpt lat="45.4483422" lon="10.5284304"><ele>117.0</ele><time>2026-03-24T07:43:18.634Z</time></trkpt><trkpt lat="45.4483145" lon="10.5285443"><ele>117.0</ele><time>2026-03-24T07:43:19.633Z</time></trkpt><trkpt lat="45.4482854" lon="10.5286707"><ele>116.99999999999999</ele><time>2026-03-24T07:43:20.643Z</time></trkpt><trkpt lat="45.4482578" lon="10.5287992"><ele>116.99999999999999</ele><time>2026-03-24T07:43:21.645Z</time></trkpt><trkpt lat="45.4482276" lon="10.5289367"><ele>117.0</ele><time>2026-03-24T07:43:22.64Z</time></trkpt><trkpt lat="45.4481956" lon="10.5290769"><ele>117.0</ele><time>2026-03-24T07:43:23.643Z</time></trkpt><trkpt lat="45.4481597" lon="10.5292144"><ele>116.5</ele><time>2026-03-24T07:43:24.643Z</time></trkpt><trkpt lat="45.4481171" lon="10.5293713"><ele>116.0</ele><time>2026-03-24T07:43:25.635Z</time></trkpt><trkpt lat="45.4480733" lon="10.5295385"><ele>115.5</ele><time>2026-03-24T07:43:26.647Z</time></trkpt><trkpt lat="45.4480321" lon="10.5297099"><ele>115.0</ele><time>2026-03-24T07:43:27.639Z</time></trkpt><trkpt lat="45.4479876" lon="10.5298688"><ele>115.0</ele><time>2026-03-24T07:43:28.647Z</time></trkpt><trkpt lat="45.4479443" lon="10.5300301"><ele>115.0</ele><time>2026-03-24T07:43:29.648Z</time></trkpt><trkpt lat="45.4479005" lon="10.530187"><ele>115.0</ele><time>2026-03-24T07:43:30.642Z</time></trkpt><trkpt lat="45.4478574" lon="10.5303449"><ele>115.0</ele><time>2026-03-24T07:43:31.634Z</time></trkpt><trkpt lat="45.4478152" lon="10.5304984"><ele>115.0</ele><time>2026-03-24T07:43:32.641Z</time></trkpt><trkpt lat="45.4477709" lon="10.5306551"><ele>115.0</ele><time>2026-03-24T07:43:33.645Z</time></trkpt><trkpt lat="45.4477297" lon="10.5308128"><ele>115.0</ele><time>2026-03-24T07:43:34.637Z</time></trkpt><trkpt lat="45.4476864" lon="10.5309772"><ele>115.0</ele><time>2026-03-24T07:43:35.641Z</time></trkpt><trkpt lat="45.4476425" lon="10.5311344"><ele>115.0</ele><time>2026-03-24T07:43:36.642Z</time></trkpt><trkpt lat="45.4475997" lon="10.5312867"><ele>115.0</ele><time>2026-03-24T07:43:37.634Z</time></trkpt><trkpt lat="45.447559" lon="10.5314312"><ele>115.0</ele><time>2026-03-24T07:43:38.65Z</time></trkpt><trkpt lat="45.4475245" lon="10.5315613"><ele>115.0</ele><time>2026-03-24T07:43:39.631Z</time></trkpt><trkpt lat="45.447487" lon="10.5316884"><ele>115.0</ele><time>2026-03-24T07:43:40.638Z</time></trkpt><trkpt lat="45.4474506" lon="10.5318131"><ele>115.0</ele><time>2026-03-24T07:43:41.649Z</time></trkpt><trkpt lat="45.4474165" lon="10.5319386"><ele>115.0</ele><time>2026-03-24T07:43:42.64Z</time></trkpt><trkpt lat="45.4473786" lon="10.5320619"><ele>115.0</ele><time>2026-03-24T07:43:43.633Z</time></trkpt><trkpt lat="45.4473418" lon="10.5321885"><ele>115.0</ele><time>2026-03-24T07:43:44.644Z</time></trkpt><trkpt lat="45.4473055" lon="10.5323157"><ele>115.0</ele><time>2026-03-24T07:43:45.644Z</time></trkpt><trkpt lat="45.4472707" lon="10.5324407"><ele>115.16666666666667</ele><time>2026-03-24T07:43:46.637Z</time></trkpt><trkpt lat="45.4472353" lon="10.5325579"><ele>115.33333333333334</ele><time>2026-03-24T07:43:47.643Z</time></trkpt><trkpt lat="45.447203" lon="10.5326705"><ele>115.5</ele><time>2026-03-24T07:43:48.644Z</time></trkpt><trkpt lat="45.4471729" lon="10.5327802"><ele>115.66666666666666</ele><time>2026-03-24T07:43:49.638Z</time></trkpt><trkpt lat="45.4471391" lon="10.5328932"><ele>115.83333333333333</ele><time>2026-03-24T07:43:50.647Z</time></trkpt><trkpt lat="45.4471095" lon="10.5329999"><ele>116.0</ele><time>2026-03-24T07:43:51.647Z</time></trkpt><trkpt lat="45.4470759" lon="10.5331044"><ele>115.4</ele><time>2026-03-24T07:43:52.632Z</time></trkpt><trkpt lat="45.447042" lon="10.5332079"><ele>114.8</ele><time>2026-03-24T07:43:53.641Z</time></trkpt><trkpt lat="45.4470066" lon="10.5333238"><ele>114.20000000000002</ele><time>2026-03-24T07:43:54.641Z</time></trkpt><trkpt lat="45.4469697" lon="10.5334453"><ele>113.60000000000001</ele><time>2026-03-24T07:43:55.628Z</time></trkpt><trkpt lat="45.4469259" lon="10.5335769"><ele>113.0</ele><time>2026-03-24T07:43:56.647Z</time></trkpt><trkpt lat="45.4468835" lon="10.5337129"><ele>113.0</ele><time>2026-03-24T07:43:57.647Z</time></trkpt><trkpt lat="45.446843" lon="10.5338514"><ele>113.00000000000001</ele><time>2026-03-24T07:43:58.638Z</time></trkpt><trkpt lat="45.4467987" lon="10.533987"><ele>113.00000000000001</ele><time>2026-03-24T07:43:59.644Z</time></trkpt><trkpt lat="45.4467547" lon="10.5341163"><ele>113.0</ele><time>2026-03-24T07:44:00.638Z</time></trkpt><trkpt lat="45.4467135" lon="10.5342383"><ele>113.0</ele><time>2026-03-24T07:44:01.642Z</time></trkpt><trkpt lat="45.4466722" lon="10.5343591"><ele>113.0</ele><time>2026-03-24T07:44:02.644Z</time></trkpt><trkpt lat="45.4466365" lon="10.5344784"><ele>113.00000000000001</ele><time>2026-03-24T07:44:03.642Z</time></trkpt><trkpt lat="45.4465985" lon="10.5345908"><ele>113.00000000000001</ele><time>2026-03-24T07:44:04.64Z</time></trkpt><trkpt lat="45.4465647" lon="10.5347112"><ele>113.0</ele><time>2026-03-24T07:44:05.648Z</time></trkpt><trkpt lat="45.4465317" lon="10.5348285"><ele>113.0</ele><time>2026-03-24T07:44:06.644Z</time></trkpt><trkpt lat="45.4464928" lon="10.5349585"><ele>113.4</ele><time>2026-03-24T07:44:07.636Z</time></trkpt><trkpt lat="45.4464484" lon="10.5350874"><ele>113.80000000000001</ele><time>2026-03-24T07:44:08.643Z</time></trkpt><trkpt lat="45.4464032" lon="10.5352274"><ele>114.2</ele><time>2026-03-24T07:44:09.644Z</time></trkpt><trkpt lat="45.446365" lon="10.5353715"><ele>114.6</ele><time>2026-03-24T07:44:10.642Z</time></trkpt><trkpt lat="45.4463365" lon="10.5355004"><ele>115.0</ele><time>2026-03-24T07:44:11.647Z</time></trkpt><trkpt lat="45.4463097" lon="10.5356215"><ele>115.00000000000001</ele><time>2026-03-24T07:44:12.643Z</time></trkpt><trkpt lat="45.4462806" lon="10.5357377"><ele>115.0</ele><time>2026-03-24T07:44:13.632Z</time></trkpt><trkpt lat="45.4462488" lon="10.5358584"><ele>115.0</ele><time>2026-03-24T07:44:14.646Z</time></trkpt><trkpt lat="45.4462135" lon="10.5359724"><ele>115.0</ele><time>2026-03-24T07:44:15.65Z</time></trkpt><trkpt lat="45.4461791" lon="10.5360836"><ele>115.00000000000001</ele><time>2026-03-24T07:44:16.632Z</time></trkpt><trkpt lat="45.4461505" lon="10.5361935"><ele>115.0</ele><time>2026-03-24T07:44:17.652Z</time></trkpt><trkpt lat="45.4461207" lon="10.5362896"><ele>114.99999999999999</ele><time>2026-03-24T07:44:18.649Z</time></trkpt><trkpt lat="45.4460898" lon="10.5363748"><ele>115.0</ele><time>2026-03-24T07:44:19.634Z</time></trkpt><trkpt lat="45.4460615" lon="10.5364691"><ele>114.99999999999999</ele><time>2026-03-24T07:44:20.63Z</time></trkpt><trkpt lat="45.4460314" lon="10.5365693"><ele>114.99999999999999</ele><time>2026-03-24T07:44:21.644Z</time></trkpt><trkpt lat="45.4460008" lon="10.5366708"><ele>115.0</ele><time>2026-03-24T07:44:22.634Z</time></trkpt><trkpt lat="45.4459738" lon="10.53677"><ele>114.99999999999999</ele><time>2026-03-24T07:44:23.641Z</time></trkpt><trkpt lat="45.4459447" lon="10.5368679"><ele>114.99999999999999</ele><time>2026-03-24T07:44:24.64Z</time></trkpt><trkpt lat="45.4459159" lon="10.5369632"><ele>114.7142857142857</ele><time>2026-03-24T07:44:25.639Z</time></trkpt><trkpt lat="45.4458875" lon="10.537066"><ele>114.42857142857142</ele><time>2026-03-24T07:44:26.636Z</time></trkpt><trkpt lat="45.4458577" lon="10.5371735"><ele>114.14285714285714</ele><time>2026-03-24T07:44:27.638Z</time></trkpt><trkpt lat="45.445829" lon="10.5372805"><ele>113.85714285714285</ele><time>2026-03-24T07:44:28.629Z</time></trkpt><trkpt lat="45.445806" lon="10.5373846"><ele>113.57142857142856</ele><time>2026-03-24T07:44:29.632Z</time></trkpt><trkpt lat="45.4457846" lon="10.5374749"><ele>113.28571428571429</ele><time>2026-03-24T07:44:30.635Z</time></trkpt><trkpt lat="45.4457623" lon="10.5375635"><ele>113.0</ele><time>2026-03-24T07:44:31.628Z</time></trkpt><trkpt lat="45.4457145" lon="10.5377379"><ele>112.99999999999999</ele><time>2026-03-24T07:44:33.636Z</time></trkpt><trkpt lat="45.4456879" lon="10.5378355"><ele>113.0</ele><time>2026-03-24T07:44:34.626Z</time></trkpt><trkpt lat="45.445657" lon="10.537944"><ele>113.0</ele><time>2026-03-24T07:44:35.631Z</time></trkpt><trkpt lat="45.4456324" lon="10.5380377"><ele>113.0</ele><time>2026-03-24T07:44:36.634Z</time></trkpt><trkpt lat="45.4455992" lon="10.5381786"><ele>112.99999999999999</ele><time>2026-03-24T07:44:38.63Z</time></trkpt><trkpt lat="45.4455677" lon="10.5383059"><ele>113.0</ele><time>2026-03-24T07:44:40.626Z</time></trkpt><trkpt lat="45.4455306" lon="10.5384699"><ele>112.83333333333333</ele><time>2026-03-24T07:44:42.633Z</time></trkpt><trkpt lat="45.4455148" lon="10.5385601"><ele>112.66666666666666</ele><time>2026-03-24T07:44:43.628Z</time></trkpt><trkpt lat="45.4454865" lon="10.5387284"><ele>112.5</ele><time>2026-03-24T07:44:45.626Z</time></trkpt><trkpt lat="45.4454535" lon="10.5388843"><ele>112.33333333333334</ele><time>2026-03-24T07:44:47.635Z</time></trkpt><trkpt lat="45.4454369" lon="10.5389739"><ele>112.16666666666667</ele><time>2026-03-24T07:44:48.642Z</time></trkpt><trkpt lat="45.4454236" lon="10.5390688"><ele>112.0</ele><time>2026-03-24T07:44:49.634Z</time></trkpt><trkpt lat="45.4454184" lon="10.5391628"><ele>112.00000000000001</ele><time>2026-03-24T07:44:50.635Z</time></trkpt><trkpt lat="45.4454065" lon="10.5392596"><ele>112.0</ele><time>2026-03-24T07:44:51.639Z</time></trkpt><trkpt lat="45.445389" lon="10.5393569"><ele>112.0</ele><time>2026-03-24T07:44:52.634Z</time></trkpt><trkpt lat="45.4453693" lon="10.5394524"><ele>112.0</ele><time>2026-03-24T07:44:53.63Z</time></trkpt><trkpt lat="45.4453476" lon="10.5395614"><ele>112.00000000000001</ele><time>2026-03-24T07:44:54.637Z</time></trkpt><trkpt lat="45.4453258" lon="10.5396821"><ele>112.0</ele><time>2026-03-24T07:44:55.64Z</time></trkpt><trkpt lat="45.44531" lon="10.5398048"><ele>111.33333333333334</ele><time>2026-03-24T07:44:56.632Z</time></trkpt><trkpt lat="45.4452906" lon="10.5399263"><ele>110.66666666666667</ele><time>2026-03-24T07:44:57.645Z</time></trkpt><trkpt lat="45.4452684" lon="10.5400491"><ele>110.0</ele><time>2026-03-24T07:44:58.638Z</time></trkpt><trkpt lat="45.4452477" lon="10.5401701"><ele>109.33333333333334</ele><time>2026-03-24T07:44:59.641Z</time></trkpt><trkpt lat="45.4452271" lon="10.5402922"><ele>108.66666666666667</ele><time>2026-03-24T07:45:00.635Z</time></trkpt><trkpt lat="45.4452082" lon="10.5404072"><ele>108.0</ele><time>2026-03-24T07:45:01.634Z</time></trkpt><trkpt lat="45.4451896" lon="10.5405232"><ele>107.2</ele><time>2026-03-24T07:45:02.639Z</time></trkpt><trkpt lat="45.4451712" lon="10.5406396"><ele>106.4</ele><time>2026-03-24T07:45:03.642Z</time></trkpt><trkpt lat="45.4451482" lon="10.540767"><ele>105.60000000000001</ele><time>2026-03-24T07:45:04.633Z</time></trkpt><trkpt lat="45.4451133" lon="10.5409019"><ele>104.80000000000001</ele><time>2026-03-24T07:45:05.641Z</time></trkpt><trkpt lat="45.4450798" lon="10.5410411"><ele>104.0</ele><time>2026-03-24T07:45:06.629Z</time></trkpt><trkpt lat="45.4450498" lon="10.5411941"><ele>103.6</ele><time>2026-03-24T07:45:07.63Z</time></trkpt><trkpt lat="45.4450217" lon="10.5413456"><ele>103.2</ele><time>2026-03-24T07:45:08.636Z</time></trkpt><trkpt lat="45.4449883" lon="10.5414959"><ele>102.8</ele><time>2026-03-24T07:45:09.628Z</time></trkpt><trkpt lat="45.4449592" lon="10.5416402"><ele>102.39999999999999</ele><time>2026-03-24T07:45:10.628Z</time></trkpt><trkpt lat="45.444928" lon="10.5417744"><ele>102.0</ele><time>2026-03-24T07:45:11.638Z</time></trkpt><trkpt lat="45.4449013" lon="10.5419004"><ele>102.0</ele><time>2026-03-24T07:45:12.63Z</time></trkpt><trkpt lat="45.4448704" lon="10.5420328"><ele>102.0</ele><time>2026-03-24T07:45:13.632Z</time></trkpt><trkpt lat="45.44484" lon="10.542175"><ele>102.0</ele><time>2026-03-24T07:45:14.637Z</time></trkpt><trkpt lat="45.4448137" lon="10.5423113"><ele>102.0</ele><time>2026-03-24T07:45:15.633Z</time></trkpt><trkpt lat="45.4447845" lon="10.5424508"><ele>102.0</ele><time>2026-03-24T07:45:16.635Z</time></trkpt><trkpt lat="45.4447577" lon="10.5425914"><ele>102.19999999999999</ele><time>2026-03-24T07:45:17.64Z</time></trkpt><trkpt lat="45.4447309" lon="10.5427369"><ele>102.4</ele><time>2026-03-24T07:45:18.639Z</time></trkpt><trkpt lat="45.444709" lon="10.5428835"><ele>102.6</ele><time>2026-03-24T07:45:19.637Z</time></trkpt><trkpt lat="45.4446888" lon="10.5430274"><ele>102.80000000000001</ele><time>2026-03-24T07:45:20.636Z</time></trkpt><trkpt lat="45.4446652" lon="10.5431631"><ele>103.0</ele><time>2026-03-24T07:45:21.642Z</time></trkpt><trkpt lat="45.4446431" lon="10.5432921"><ele>103.00000000000001</ele><time>2026-03-24T07:45:22.624Z</time></trkpt><trkpt lat="45.4446251" lon="10.5434175"><ele>103.0</ele><time>2026-03-24T07:45:23.629Z</time></trkpt><trkpt lat="45.4446061" lon="10.5435425"><ele>103.0</ele><time>2026-03-24T07:45:24.638Z</time></trkpt><trkpt lat="45.4445854" lon="10.5436626"><ele>103.0</ele><time>2026-03-24T07:45:25.631Z</time></trkpt><trkpt lat="45.444565" lon="10.5437868"><ele>103.00000000000001</ele><time>2026-03-24T07:45:26.642Z</time></trkpt><trkpt lat="45.4445482" lon="10.5439002"><ele>103.0</ele><time>2026-03-24T07:45:27.635Z</time></trkpt><trkpt lat="45.4445292" lon="10.5440185"><ele>103.0</ele><time>2026-03-24T07:45:28.639Z</time></trkpt><trkpt lat="45.4445066" lon="10.5441434"><ele>103.0</ele><time>2026-03-24T07:45:29.646Z</time></trkpt><trkpt lat="45.444483" lon="10.5442649"><ele>103.0</ele><time>2026-03-24T07:45:30.638Z</time></trkpt><trkpt lat="45.4444581" lon="10.5443936"><ele>103.0</ele><time>2026-03-24T07:45:31.636Z</time></trkpt><trkpt lat="45.4444352" lon="10.5445208"><ele>103.0</ele><time>2026-03-24T07:45:32.645Z</time></trkpt><trkpt lat="45.4444166" lon="10.5446396"><ele>103.16666666666667</ele><time>2026-03-24T07:45:33.638Z</time></trkpt><trkpt lat="45.4443983" lon="10.5447514"><ele>103.33333333333334</ele><time>2026-03-24T07:45:34.631Z</time></trkpt><trkpt lat="45.4443771" lon="10.5448639"><ele>103.5</ele><time>2026-03-24T07:45:35.637Z</time></trkpt><trkpt lat="45.4443584" lon="10.5449762"><ele>103.66666666666666</ele><time>2026-03-24T07:45:36.643Z</time></trkpt><trkpt lat="45.4443414" lon="10.5450834"><ele>103.83333333333333</ele><time>2026-03-24T07:45:37.633Z</time></trkpt><trkpt lat="45.4443241" lon="10.5451774"><ele>104.0</ele><time>2026-03-24T07:45:38.64Z</time></trkpt><trkpt lat="45.4443092" lon="10.5452674"><ele>104.0</ele><time>2026-03-24T07:45:39.644Z</time></trkpt><trkpt lat="45.4442893" lon="10.545372"><ele>104.0</ele><time>2026-03-24T07:45:40.626Z</time></trkpt><trkpt lat="45.4442682" lon="10.5454947"><ele>104.0</ele><time>2026-03-24T07:45:41.633Z</time></trkpt><trkpt lat="45.444255" lon="10.5456314"><ele>104.0</ele><time>2026-03-24T07:45:42.627Z</time></trkpt><trkpt lat="45.4442332" lon="10.5457673"><ele>104.0</ele><time>2026-03-24T07:45:43.631Z</time></trkpt><trkpt lat="45.4442066" lon="10.5459053"><ele>103.75</ele><time>2026-03-24T07:45:44.627Z</time></trkpt><trkpt lat="45.4441798" lon="10.5460725"><ele>103.5</ele><time>2026-03-24T07:45:45.628Z</time></trkpt><trkpt lat="45.4441533" lon="10.5462257"><ele>103.25</ele><time>2026-03-24T07:45:46.62Z</time></trkpt><trkpt lat="45.4441161" lon="10.5463849"><ele>103.0</ele><time>2026-03-24T07:45:47.63Z</time></trkpt><trkpt lat="45.4440825" lon="10.5465573"><ele>101.66666666666667</ele><time>2026-03-24T07:45:48.623Z</time></trkpt><trkpt lat="45.4440462" lon="10.5467666"><ele>100.33333333333334</ele><time>2026-03-24T07:45:49.628Z</time></trkpt><trkpt lat="45.4439884" lon="10.5470135"><ele>99.0</ele><time>2026-03-24T07:45:50.634Z</time></trkpt><trkpt lat="45.4439644" lon="10.5472782"><ele>97.66666666666667</ele><time>2026-03-24T07:45:51.633Z</time></trkpt><trkpt lat="45.443906" lon="10.5475405"><ele>96.33333333333334</ele><time>2026-03-24T07:45:52.635Z</time></trkpt><trkpt lat="45.4438614" lon="10.5478106"><ele>95.0</ele><time>2026-03-24T07:45:53.639Z</time></trkpt><trkpt lat="45.443833" lon="10.5480619"><ele>93.66666666666667</ele><time>2026-03-24T07:45:54.634Z</time></trkpt><trkpt lat="45.4437903" lon="10.5483442"><ele>92.33333333333333</ele><time>2026-03-24T07:45:55.631Z</time></trkpt><trkpt lat="45.4437374" lon="10.5486232"><ele>91.0</ele><time>2026-03-24T07:45:56.647Z</time></trkpt><trkpt lat="45.4436987" lon="10.548893"><ele>90.66666666666666</ele><time>2026-03-24T07:45:57.64Z</time></trkpt><trkpt lat="45.4436494" lon="10.5491533"><ele>90.33333333333333</ele><time>2026-03-24T07:45:58.63Z</time></trkpt><trkpt lat="45.4436056" lon="10.5494128"><ele>90.0</ele><time>2026-03-24T07:45:59.632Z</time></trkpt><trkpt lat="45.4435608" lon="10.5496743"><ele>89.66666666666667</ele><time>2026-03-24T07:46:00.638Z</time></trkpt><trkpt lat="45.4434965" lon="10.5499356"><ele>89.33333333333334</ele><time>2026-03-24T07:46:01.626Z</time></trkpt><trkpt lat="45.4434425" lon="10.5501989"><ele>89.0</ele><time>2026-03-24T07:46:02.637Z</time></trkpt><trkpt lat="45.4433912" lon="10.5504664"><ele>89.0</ele><time>2026-03-24T07:46:03.63Z</time></trkpt><trkpt lat="45.4433282" lon="10.5507402"><ele>89.0</ele><time>2026-03-24T07:46:04.631Z</time></trkpt><trkpt lat="45.443278" lon="10.5510026"><ele>89.0</ele><time>2026-03-24T07:46:05.634Z</time></trkpt><trkpt lat="45.4432279" lon="10.5512718"><ele>89.0</ele><time>2026-03-24T07:46:06.629Z</time></trkpt><trkpt lat="45.4431866" lon="10.5515371"><ele>89.0</ele><time>2026-03-24T07:46:07.633Z</time></trkpt><trkpt lat="45.44313" lon="10.5518005"><ele>89.0</ele><time>2026-03-24T07:46:08.639Z</time></trkpt><trkpt lat="45.4430772" lon="10.5520638"><ele>89.0</ele><time>2026-03-24T07:46:09.643Z</time></trkpt><trkpt lat="45.4430193" lon="10.5523326"><ele>89.0</ele><time>2026-03-24T07:46:10.624Z</time></trkpt><trkpt lat="45.4429744" lon="10.5526175"><ele>89.0</ele><time>2026-03-24T07:46:11.636Z</time></trkpt><trkpt lat="45.4429327" lon="10.552899"><ele>88.66666666666667</ele><time>2026-03-24T07:46:12.637Z</time></trkpt><trkpt lat="45.4429051" lon="10.5531741"><ele>88.33333333333333</ele><time>2026-03-24T07:46:13.628Z</time></trkpt><trkpt lat="45.4428515" lon="10.5534488"><ele>88.0</ele><time>2026-03-24T07:46:14.636Z</time></trkpt><trkpt lat="45.442797" lon="10.5537256"><ele>88.0</ele><time>2026-03-24T07:46:15.639Z</time></trkpt><trkpt lat="45.4427436" lon="10.5539987"><ele>88.0</ele><time>2026-03-24T07:46:16.632Z</time></trkpt><trkpt lat="45.4426927" lon="10.554272"><ele>88.0</ele><time>2026-03-24T07:46:17.641Z</time></trkpt><trkpt lat="45.4426409" lon="10.5545328"><ele>88.0</ele><time>2026-03-24T07:46:18.632Z</time></trkpt><trkpt lat="45.4425772" lon="10.5547964"><ele>88.0</ele><time>2026-03-24T07:46:19.638Z</time></trkpt><trkpt lat="45.4425291" lon="10.5550766"><ele>88.0</ele><time>2026-03-24T07:46:20.634Z</time></trkpt><trkpt lat="45.4424776" lon="10.555346"><ele>88.0</ele><time>2026-03-24T07:46:21.64Z</time></trkpt><trkpt lat="45.4424344" lon="10.5556203"><ele>88.0</ele><time>2026-03-24T07:46:22.624Z</time></trkpt><trkpt lat="45.4423704" lon="10.5558927"><ele>88.0</ele><time>2026-03-24T07:46:23.635Z</time></trkpt><trkpt lat="45.4423009" lon="10.556167"><ele>87.33333333333333</ele><time>2026-03-24T07:46:24.635Z</time></trkpt><trkpt lat="45.4422541" lon="10.5564207"><ele>86.66666666666667</ele><time>2026-03-24T07:46:25.632Z</time></trkpt><trkpt lat="45.4422076" lon="10.5567012"><ele>86.0</ele><time>2026-03-24T07:46:26.634Z</time></trkpt><trkpt lat="45.4421508" lon="10.5569784"><ele>85.66666666666667</ele><time>2026-03-24T07:46:27.646Z</time></trkpt><trkpt lat="45.4421007" lon="10.5572678"><ele>85.33333333333333</ele><time>2026-03-24T07:46:28.626Z</time></trkpt><trkpt lat="45.4420508" lon="10.5575468"><ele>85.0</ele><time>2026-03-24T07:46:29.628Z</time></trkpt><trkpt lat="45.441998" lon="10.5578344"><ele>85.0</ele><time>2026-03-24T07:46:30.642Z</time></trkpt><trkpt lat="45.4419377" lon="10.5581295"><ele>85.0</ele><time>2026-03-24T07:46:31.63Z</time></trkpt><trkpt lat="45.4418757" lon="10.5584362"><ele>85.0</ele><time>2026-03-24T07:46:32.642Z</time></trkpt><trkpt lat="45.4418301" lon="10.5587171"><ele>85.66666666666666</ele><time>2026-03-24T07:46:33.642Z</time></trkpt><trkpt lat="45.4417592" lon="10.5590205"><ele>86.33333333333333</ele><time>2026-03-24T07:46:34.629Z</time></trkpt><trkpt lat="45.4417067" lon="10.5593144"><ele>87.0</ele><time>2026-03-24T07:46:35.637Z</time></trkpt><trkpt lat="45.4416564" lon="10.5596161"><ele>87.0</ele><time>2026-03-24T07:46:36.638Z</time></trkpt><trkpt lat="45.4416013" lon="10.559922"><ele>87.0</ele><time>2026-03-24T07:46:37.629Z</time></trkpt><trkpt lat="45.4415427" lon="10.5602235"><ele>87.0</ele><time>2026-03-24T07:46:38.634Z</time></trkpt><trkpt lat="45.4414886" lon="10.5605162"><ele>87.0</ele><time>2026-03-24T07:46:39.639Z</time></trkpt><trkpt lat="45.4414328" lon="10.5608126"><ele>87.0</ele><time>2026-03-24T07:46:40.628Z</time></trkpt><trkpt lat="45.4413811" lon="10.561107"><ele>87.0</ele><time>2026-03-24T07:46:41.637Z</time></trkpt><trkpt lat="45.4413311" lon="10.5614007"><ele>88.0</ele><time>2026-03-24T07:46:42.633Z</time></trkpt><trkpt lat="45.4412863" lon="10.5617052"><ele>89.0</ele><time>2026-03-24T07:46:43.631Z</time></trkpt><trkpt lat="45.4412315" lon="10.5620038"><ele>90.0</ele><time>2026-03-24T07:46:44.637Z</time></trkpt><trkpt lat="45.4411663" lon="10.5623089"><ele>90.0</ele><time>2026-03-24T07:46:45.642Z</time></trkpt><trkpt lat="45.4410997" lon="10.5626067"><ele>90.0</ele><time>2026-03-24T07:46:46.632Z</time></trkpt><trkpt lat="45.4410451" lon="10.5628993"><ele>90.0</ele><time>2026-03-24T07:46:47.635Z</time></trkpt><trkpt lat="45.4409897" lon="10.5631883"><ele>89.5</ele><time>2026-03-24T07:46:48.633Z</time></trkpt><trkpt lat="45.4409111" lon="10.5634964"><ele>89.0</ele><time>2026-03-24T07:46:49.635Z</time></trkpt><trkpt lat="45.4408543" lon="10.5637986"><ele>88.0</ele><time>2026-03-24T07:46:50.645Z</time></trkpt><trkpt lat="45.4407947" lon="10.5641136"><ele>87.0</ele><time>2026-03-24T07:46:51.639Z</time></trkpt><trkpt lat="45.440733" lon="10.5644253"><ele>87.5</ele><time>2026-03-24T07:46:52.632Z</time></trkpt><trkpt lat="45.4406856" lon="10.5647501"><ele>88.0</ele><time>2026-03-24T07:46:53.639Z</time></trkpt><trkpt lat="45.4406265" lon="10.5650671"><ele>88.0</ele><time>2026-03-24T07:46:54.639Z</time></trkpt><trkpt lat="45.4405762" lon="10.5654"><ele>88.0</ele><time>2026-03-24T07:46:55.637Z</time></trkpt><trkpt lat="45.4405137" lon="10.5657363"><ele>87.5</ele><time>2026-03-24T07:46:56.644Z</time></trkpt><trkpt lat="45.4404488" lon="10.5660561"><ele>87.0</ele><time>2026-03-24T07:46:57.64Z</time></trkpt><trkpt lat="45.4403919" lon="10.566371"><ele>86.5</ele><time>2026-03-24T07:46:58.64Z</time></trkpt><trkpt lat="45.4403411" lon="10.5666848"><ele>86.0</ele><time>2026-03-24T07:46:59.638Z</time></trkpt><trkpt lat="45.4402711" lon="10.566994"><ele>86.33333333333334</ele><time>2026-03-24T07:47:00.632Z</time></trkpt><trkpt lat="45.4401977" lon="10.5673069"><ele>86.66666666666667</ele><time>2026-03-24T07:47:01.625Z</time></trkpt><trkpt lat="45.4401411" lon="10.5676069"><ele>87.0</ele><time>2026-03-24T07:47:02.635Z</time></trkpt><trkpt lat="45.4400922" lon="10.5679152"><ele>87.33333333333333</ele><time>2026-03-24T07:47:03.643Z</time></trkpt><trkpt lat="45.440033" lon="10.5682201"><ele>87.66666666666666</ele><time>2026-03-24T07:47:04.629Z</time></trkpt><trkpt lat="45.43998" lon="10.5685255"><ele>88.0</ele><time>2026-03-24T07:47:05.64Z</time></trkpt><trkpt lat="45.4399272" lon="10.5688442"><ele>88.0</ele><time>2026-03-24T07:47:06.629Z</time></trkpt><trkpt lat="45.4398711" lon="10.5691496"><ele>88.0</ele><time>2026-03-24T07:47:07.623Z</time></trkpt><trkpt lat="45.4398119" lon="10.5694422"><ele>88.0</ele><time>2026-03-24T07:47:08.631Z</time></trkpt><trkpt lat="45.4397559" lon="10.5697438"><ele>88.0</ele><time>2026-03-24T07:47:09.631Z</time></trkpt><trkpt lat="45.4397008" lon="10.5700502"><ele>88.0</ele><time>2026-03-24T07:47:10.635Z</time></trkpt><trkpt lat="45.4396557" lon="10.5703621"><ele>88.0</ele><time>2026-03-24T07:47:11.634Z</time></trkpt><trkpt lat="45.4395971" lon="10.5706745"><ele>87.5</ele><time>2026-03-24T07:47:12.627Z</time></trkpt><trkpt lat="45.4395586" lon="10.5710007"><ele>87.0</ele><time>2026-03-24T07:47:13.632Z</time></trkpt><trkpt lat="45.4395032" lon="10.5713239"><ele>86.0</ele><time>2026-03-24T07:47:14.632Z</time></trkpt><trkpt lat="45.4394452" lon="10.5716615"><ele>85.0</ele><time>2026-03-24T07:47:15.627Z</time></trkpt><trkpt lat="45.4393973" lon="10.5720074"><ele>85.0</ele><time>2026-03-24T07:47:16.628Z</time></trkpt><trkpt lat="45.4393564" lon="10.5723599"><ele>85.0</ele><time>2026-03-24T07:47:17.634Z</time></trkpt><trkpt lat="45.4393064" lon="10.572709"><ele>86.0</ele><time>2026-03-24T07:47:18.638Z</time></trkpt><trkpt lat="45.4392394" lon="10.5730712"><ele>87.0</ele><time>2026-03-24T07:47:19.632Z</time></trkpt><trkpt lat="45.4391883" lon="10.5734065"><ele>86.5</ele><time>2026-03-24T07:47:20.631Z</time></trkpt><trkpt lat="45.4391355" lon="10.5737393"><ele>86.0</ele><time>2026-03-24T07:47:21.64Z</time></trkpt><trkpt lat="45.4390871" lon="10.5740607"><ele>86.0</ele><time>2026-03-24T07:47:22.632Z</time></trkpt><trkpt lat="45.4390198" lon="10.5743838"><ele>86.0</ele><time>2026-03-24T07:47:23.629Z</time></trkpt><trkpt lat="45.4389641" lon="10.5746911"><ele>86.0</ele><time>2026-03-24T07:47:24.627Z</time></trkpt><trkpt lat="45.4388922" lon="10.5750007"><ele>86.0</ele><time>2026-03-24T07:47:25.634Z</time></trkpt><trkpt lat="45.4388318" lon="10.575312"><ele>87.0</ele><time>2026-03-24T07:47:26.625Z</time></trkpt><trkpt lat="45.4387744" lon="10.5756499"><ele>88.0</ele><time>2026-03-24T07:47:27.63Z</time></trkpt><trkpt lat="45.4387057" lon="10.5759904"><ele>87.5</ele><time>2026-03-24T07:47:28.638Z</time></trkpt><trkpt lat="45.4386367" lon="10.5763229"><ele>87.0</ele><time>2026-03-24T07:47:29.632Z</time></trkpt><trkpt lat="45.4385685" lon="10.576658"><ele>87.0</ele><time>2026-03-24T07:47:30.634Z</time></trkpt><trkpt lat="45.4385036" lon="10.577008"><ele>87.0</ele><time>2026-03-24T07:47:31.631Z</time></trkpt><trkpt lat="45.4384528" lon="10.5773644"><ele>86.5</ele><time>2026-03-24T07:47:32.635Z</time></trkpt><trkpt lat="45.4383881" lon="10.5777394"><ele>86.0</ele><time>2026-03-24T07:47:33.638Z</time></trkpt><trkpt lat="45.4383141" lon="10.5781265"><ele>86.0</ele><time>2026-03-24T07:47:34.632Z</time></trkpt><trkpt lat="45.4382396" lon="10.5784956"><ele>86.0</ele><time>2026-03-24T07:47:35.637Z</time></trkpt><trkpt lat="45.4381579" lon="10.5788567"><ele>86.5</ele><time>2026-03-24T07:47:36.632Z</time></trkpt><trkpt lat="45.4380985" lon="10.579227"><ele>87.0</ele><time>2026-03-24T07:47:37.632Z</time></trkpt><trkpt lat="45.4380228" lon="10.5795905"><ele>85.0</ele><time>2026-03-24T07:47:38.636Z</time></trkpt><trkpt lat="45.4379416" lon="10.5799522"><ele>83.0</ele><time>2026-03-24T07:47:39.634Z</time></trkpt><trkpt lat="45.437862" lon="10.5803122"><ele>83.0</ele><time>2026-03-24T07:47:40.627Z</time></trkpt><trkpt lat="45.4377932" lon="10.5806467"><ele>83.0</ele><time>2026-03-24T07:47:41.64Z</time></trkpt><trkpt lat="45.4377155" lon="10.5809819"><ele>83.0</ele><time>2026-03-24T07:47:42.637Z</time></trkpt><trkpt lat="45.4376547" lon="10.5812956"><ele>83.0</ele><time>2026-03-24T07:47:43.63Z</time></trkpt><trkpt lat="45.4375929" lon="10.5816066"><ele>83.0</ele><time>2026-03-24T07:47:44.632Z</time></trkpt><trkpt lat="45.4375398" lon="10.5819155"><ele>83.0</ele><time>2026-03-24T07:47:45.642Z</time></trkpt><trkpt lat="45.4374758" lon="10.5822303"><ele>83.0</ele><time>2026-03-24T07:47:46.636Z</time></trkpt><trkpt lat="45.4374233" lon="10.5825431"><ele>83.0</ele><time>2026-03-24T07:47:47.638Z</time></trkpt><trkpt lat="45.4373569" lon="10.5828776"><ele>83.0</ele><time>2026-03-24T07:47:48.637Z</time></trkpt><trkpt lat="45.4372821" lon="10.5831973"><ele>83.0</ele><time>2026-03-24T07:47:49.632Z</time></trkpt><trkpt lat="45.4372258" lon="10.5835127"><ele>83.0</ele><time>2026-03-24T07:47:50.644Z</time></trkpt><trkpt lat="45.437166" lon="10.5838308"><ele>83.0</ele><time>2026-03-24T07:47:51.639Z</time></trkpt><trkpt lat="45.4371011" lon="10.5841657"><ele>83.0</ele><time>2026-03-24T07:47:52.635Z</time></trkpt><trkpt lat="45.4370441" lon="10.5844842"><ele>83.0</ele><time>2026-03-24T07:47:53.631Z</time></trkpt><trkpt lat="45.4369819" lon="10.5848045"><ele>83.0</ele><time>2026-03-24T07:47:54.639Z</time></trkpt><trkpt lat="45.4369178" lon="10.5851287"><ele>83.0</ele><time>2026-03-24T07:47:55.642Z</time></trkpt><trkpt lat="45.4368652" lon="10.5854561"><ele>82.5</ele><time>2026-03-24T07:47:56.636Z</time></trkpt><trkpt lat="45.4368083" lon="10.5857831"><ele>82.0</ele><time>2026-03-24T07:47:57.64Z</time></trkpt><trkpt lat="45.4367565" lon="10.5861008"><ele>82.33333333333333</ele><time>2026-03-24T07:47:58.635Z</time></trkpt><trkpt lat="45.4367053" lon="10.5864188"><ele>82.66666666666667</ele><time>2026-03-24T07:47:59.636Z</time></trkpt><trkpt lat="45.4366601" lon="10.5867254"><ele>83.0</ele><time>2026-03-24T07:48:00.636Z</time></trkpt><trkpt lat="45.4366075" lon="10.5870487"><ele>82.0</ele><time>2026-03-24T07:48:01.637Z</time></trkpt><trkpt lat="45.4365373" lon="10.5873836"><ele>81.0</ele><time>2026-03-24T07:48:02.643Z</time></trkpt><trkpt lat="45.4364711" lon="10.5876971"><ele>81.0</ele><time>2026-03-24T07:48:03.64Z</time></trkpt><trkpt lat="45.4364146" lon="10.5880202"><ele>81.0</ele><time>2026-03-24T07:48:04.633Z</time></trkpt><trkpt lat="45.4363557" lon="10.5883454"><ele>82.0</ele><time>2026-03-24T07:48:05.641Z</time></trkpt><trkpt lat="45.4362892" lon="10.5886847"><ele>83.0</ele><time>2026-03-24T07:48:06.633Z</time></trkpt><trkpt lat="45.4362305" lon="10.5890265"><ele>83.0</ele><time>2026-03-24T07:48:07.64Z</time></trkpt><trkpt lat="45.4361733" lon="10.5893677"><ele>83.0</ele><time>2026-03-24T07:48:08.637Z</time></trkpt><trkpt lat="45.4361084" lon="10.5896957"><ele>84.0</ele><time>2026-03-24T07:48:09.634Z</time></trkpt><trkpt lat="45.4360484" lon="10.5900346"><ele>85.0</ele><time>2026-03-24T07:48:10.639Z</time></trkpt><trkpt lat="45.4359801" lon="10.5903735"><ele>85.5</ele><time>2026-03-24T07:48:11.64Z</time></trkpt><trkpt lat="45.4359157" lon="10.5906969"><ele>86.0</ele><time>2026-03-24T07:48:12.629Z</time></trkpt><trkpt lat="45.4358483" lon="10.5910543"><ele>84.5</ele><time>2026-03-24T07:48:13.631Z</time></trkpt><trkpt lat="45.4357886" lon="10.591398"><ele>83.0</ele><time>2026-03-24T07:48:14.635Z</time></trkpt><trkpt lat="45.4357211" lon="10.5917389"><ele>83.0</ele><time>2026-03-24T07:48:15.627Z</time></trkpt><trkpt lat="45.4356523" lon="10.5920728"><ele>83.0</ele><time>2026-03-24T07:48:16.634Z</time></trkpt><trkpt lat="45.4355859" lon="10.5924187"><ele>83.0</ele><time>2026-03-24T07:48:17.64Z</time></trkpt><trkpt lat="45.4355263" lon="10.5927551"><ele>83.0</ele><time>2026-03-24T07:48:18.632Z</time></trkpt><trkpt lat="45.4354599" lon="10.59309"><ele>83.5</ele><time>2026-03-24T07:48:19.634Z</time></trkpt><trkpt lat="45.4353931" lon="10.5934285"><ele>84.0</ele><time>2026-03-24T07:48:20.634Z</time></trkpt><trkpt lat="45.4353328" lon="10.5937642"><ele>85.0</ele><time>2026-03-24T07:48:21.625Z</time></trkpt><trkpt lat="45.4352719" lon="10.5941052"><ele>86.0</ele><time>2026-03-24T07:48:22.631Z</time></trkpt><trkpt lat="45.4352037" lon="10.5944336"><ele>85.5</ele><time>2026-03-24T07:48:23.644Z</time></trkpt><trkpt lat="45.4351512" lon="10.5947726"><ele>85.0</ele><time>2026-03-24T07:48:24.632Z</time></trkpt><trkpt lat="45.4351037" lon="10.5950855"><ele>85.0</ele><time>2026-03-24T07:48:25.63Z</time></trkpt><trkpt lat="45.4350474" lon="10.5954211"><ele>85.0</ele><time>2026-03-24T07:48:26.646Z</time></trkpt><trkpt lat="45.4349897" lon="10.5957501"><ele>85.0</ele><time>2026-03-24T07:48:27.633Z</time></trkpt><trkpt lat="45.4349357" lon="10.5960832"><ele>85.0</ele><time>2026-03-24T07:48:28.638Z</time></trkpt><trkpt lat="45.4348788" lon="10.5964308"><ele>85.0</ele><time>2026-03-24T07:48:29.643Z</time></trkpt><trkpt lat="45.4348245" lon="10.5967702"><ele>85.0</ele><time>2026-03-24T07:48:30.628Z</time></trkpt><trkpt lat="45.4347546" lon="10.5971158"><ele>85.0</ele><time>2026-03-24T07:48:31.631Z</time></trkpt><trkpt lat="45.4347081" lon="10.5974567"><ele>85.0</ele><time>2026-03-24T07:48:32.64Z</time></trkpt><trkpt lat="45.4346486" lon="10.5977803"><ele>84.0</ele><time>2026-03-24T07:48:33.633Z</time></trkpt><trkpt lat="45.4345886" lon="10.5981231"><ele>83.0</ele><time>2026-03-24T07:48:34.636Z</time></trkpt><trkpt lat="45.4345442" lon="10.5984724"><ele>83.0</ele><time>2026-03-24T07:48:35.637Z</time></trkpt><trkpt lat="45.4345012" lon="10.5988105"><ele>83.0</ele><time>2026-03-24T07:48:36.631Z</time></trkpt><trkpt lat="45.4344463" lon="10.5991645"><ele>83.0</ele><time>2026-03-24T07:48:37.632Z</time></trkpt><trkpt lat="45.4344187" lon="10.5994949"><ele>83.0</ele><time>2026-03-24T07:48:38.632Z</time></trkpt><trkpt lat="45.4343914" lon="10.5998132"><ele>82.5</ele><time>2026-03-24T07:48:39.63Z</time></trkpt><trkpt lat="45.4343589" lon="10.6001461"><ele>82.0</ele><time>2026-03-24T07:48:40.63Z</time></trkpt><trkpt lat="45.434325" lon="10.6004746"><ele>82.66666666666666</ele><time>2026-03-24T07:48:41.633Z</time></trkpt><trkpt lat="45.4342996" lon="10.6007943"><ele>83.33333333333333</ele><time>2026-03-24T07:48:42.634Z</time></trkpt><trkpt lat="45.4342746" lon="10.6011075"><ele>84.0</ele><time>2026-03-24T07:48:43.632Z</time></trkpt><trkpt lat="45.4342531" lon="10.6014353"><ele>84.0</ele><time>2026-03-24T07:48:44.644Z</time></trkpt><trkpt lat="45.4342357" lon="10.6017645"><ele>84.0</ele><time>2026-03-24T07:48:45.628Z</time></trkpt><trkpt lat="45.4342039" lon="10.6021025"><ele>84.5</ele><time>2026-03-24T07:48:46.638Z</time></trkpt><trkpt lat="45.4341933" lon="10.6024304"><ele>85.0</ele><time>2026-03-24T07:48:47.636Z</time></trkpt><trkpt lat="45.4341931" lon="10.602751"><ele>84.5</ele><time>2026-03-24T07:48:48.633Z</time></trkpt><trkpt lat="45.4341717" lon="10.6030699"><ele>84.0</ele><time>2026-03-24T07:48:49.641Z</time></trkpt><trkpt lat="45.434143" lon="10.6033913"><ele>85.0</ele><time>2026-03-24T07:48:50.642Z</time></trkpt><trkpt lat="45.4341212" lon="10.6037125"><ele>86.0</ele><time>2026-03-24T07:48:51.64Z</time></trkpt><trkpt lat="45.4340892" lon="10.6040349"><ele>86.0</ele><time>2026-03-24T07:48:52.64Z</time></trkpt><trkpt lat="45.4340727" lon="10.6043391"><ele>86.0</ele><time>2026-03-24T07:48:53.639Z</time></trkpt><trkpt lat="45.4340546" lon="10.6046408"><ele>86.0</ele><time>2026-03-24T07:48:54.635Z</time></trkpt><trkpt lat="45.4340395" lon="10.6049606"><ele>86.0</ele><time>2026-03-24T07:48:55.638Z</time></trkpt><trkpt lat="45.4340223" lon="10.6052817"><ele>86.0</ele><time>2026-03-24T07:48:56.631Z</time></trkpt><trkpt lat="45.4339991" lon="10.6055961"><ele>86.0</ele><time>2026-03-24T07:48:57.639Z</time></trkpt><trkpt lat="45.4339803" lon="10.6059236"><ele>85.33333333333334</ele><time>2026-03-24T07:48:58.64Z</time></trkpt><trkpt lat="45.4339776" lon="10.606235"><ele>84.66666666666667</ele><time>2026-03-24T07:48:59.628Z</time></trkpt><trkpt lat="45.4339642" lon="10.6065583"><ele>84.0</ele><time>2026-03-24T07:49:00.632Z</time></trkpt><trkpt lat="45.4339443" lon="10.6068818"><ele>84.0</ele><time>2026-03-24T07:49:01.644Z</time></trkpt><trkpt lat="45.4339246" lon="10.6071914"><ele>84.0</ele><time>2026-03-24T07:49:02.633Z</time></trkpt><trkpt lat="45.4339038" lon="10.6075113"><ele>84.0</ele><time>2026-03-24T07:49:03.637Z</time></trkpt><trkpt lat="45.4338782" lon="10.6078356"><ele>83.5</ele><time>2026-03-24T07:49:04.638Z</time></trkpt><trkpt lat="45.4338626" lon="10.6081594"><ele>83.0</ele><time>2026-03-24T07:49:05.636Z</time></trkpt><trkpt lat="45.4338465" lon="10.6084946"><ele>83.0</ele><time>2026-03-24T07:49:06.636Z</time></trkpt><trkpt lat="45.4338327" lon="10.6088145"><ele>83.0</ele><time>2026-03-24T07:49:07.643Z</time></trkpt><trkpt lat="45.433813" lon="10.6091419"><ele>83.5</ele><time>2026-03-24T07:49:08.636Z</time></trkpt><trkpt lat="45.4338029" lon="10.6094711"><ele>84.0</ele><time>2026-03-24T07:49:09.625Z</time></trkpt><trkpt lat="45.433786" lon="10.6098023"><ele>84.0</ele><time>2026-03-24T07:49:10.633Z</time></trkpt><trkpt lat="45.4337738" lon="10.6101269"><ele>84.0</ele><time>2026-03-24T07:49:11.628Z</time></trkpt><trkpt lat="45.433755" lon="10.6104443"><ele>84.0</ele><time>2026-03-24T07:49:12.627Z</time></trkpt><trkpt lat="45.4337249" lon="10.6107843"><ele>84.0</ele><time>2026-03-24T07:49:13.628Z</time></trkpt><trkpt lat="45.4337078" lon="10.6111264"><ele>84.0</ele><time>2026-03-24T07:49:14.643Z</time></trkpt><trkpt lat="45.4336959" lon="10.6114581"><ele>84.0</ele><time>2026-03-24T07:49:15.631Z</time></trkpt><trkpt lat="45.4336827" lon="10.6117971"><ele>83.5</ele><time>2026-03-24T07:49:16.639Z</time></trkpt><trkpt lat="45.4336665" lon="10.6121272"><ele>83.0</ele><time>2026-03-24T07:49:17.643Z</time></trkpt><trkpt lat="45.4336504" lon="10.6124537"><ele>83.0</ele><time>2026-03-24T07:49:18.637Z</time></trkpt><trkpt lat="45.4336344" lon="10.6127804"><ele>83.0</ele><time>2026-03-24T07:49:19.636Z</time></trkpt><trkpt lat="45.433616" lon="10.6130982"><ele>83.0</ele><time>2026-03-24T07:49:20.633Z</time></trkpt><trkpt lat="45.4335988" lon="10.6134109"><ele>83.0</ele><time>2026-03-24T07:49:21.633Z</time></trkpt><trkpt lat="45.4335733" lon="10.6137171"><ele>83.0</ele><time>2026-03-24T07:49:22.639Z</time></trkpt><trkpt lat="45.4335623" lon="10.614023"><ele>83.0</ele><time>2026-03-24T07:49:23.639Z</time></trkpt><trkpt lat="45.4335528" lon="10.6143371"><ele>83.0</ele><time>2026-03-24T07:49:24.641Z</time></trkpt><trkpt lat="45.4335381" lon="10.6146423"><ele>83.0</ele><time>2026-03-24T07:49:25.638Z</time></trkpt><trkpt lat="45.4335278" lon="10.6149586"><ele>83.0</ele><time>2026-03-24T07:49:26.647Z</time></trkpt><trkpt lat="45.4335151" lon="10.6152765"><ele>83.0</ele><time>2026-03-24T07:49:27.637Z</time></trkpt><trkpt lat="45.4334955" lon="10.6155938"><ele>83.0</ele><time>2026-03-24T07:49:28.647Z</time></trkpt><trkpt lat="45.4334747" lon="10.615907"><ele>83.0</ele><time>2026-03-24T07:49:29.645Z</time></trkpt><trkpt lat="45.4334546" lon="10.6162218"><ele>83.0</ele><time>2026-03-24T07:49:30.639Z</time></trkpt><trkpt lat="45.4334372" lon="10.6165349"><ele>83.0</ele><time>2026-03-24T07:49:31.632Z</time></trkpt><trkpt lat="45.4334259" lon="10.6168515"><ele>82.33333333333334</ele><time>2026-03-24T07:49:32.649Z</time></trkpt><trkpt lat="45.4334067" lon="10.6171629"><ele>81.66666666666667</ele><time>2026-03-24T07:49:33.637Z</time></trkpt><trkpt lat="45.4333896" lon="10.617473"><ele>81.0</ele><time>2026-03-24T07:49:34.636Z</time></trkpt><trkpt lat="45.4333745" lon="10.6177855"><ele>80.33333333333333</ele><time>2026-03-24T07:49:35.642Z</time></trkpt><trkpt lat="45.4333567" lon="10.6181062"><ele>79.66666666666666</ele><time>2026-03-24T07:49:36.634Z</time></trkpt><trkpt lat="45.4333398" lon="10.6184214"><ele>79.0</ele><time>2026-03-24T07:49:37.639Z</time></trkpt><trkpt lat="45.4333282" lon="10.618743"><ele>78.5</ele><time>2026-03-24T07:49:38.643Z</time></trkpt><trkpt lat="45.4333197" lon="10.619065"><ele>78.0</ele><time>2026-03-24T07:49:39.631Z</time></trkpt><trkpt lat="45.4333006" lon="10.6193944"><ele>77.5</ele><time>2026-03-24T07:49:40.643Z</time></trkpt><trkpt lat="45.4332862" lon="10.6197239"><ele>77.0</ele><time>2026-03-24T07:49:41.64Z</time></trkpt><trkpt lat="45.433274" lon="10.6200698"><ele>76.5</ele><time>2026-03-24T07:49:42.63Z</time></trkpt><trkpt lat="45.4332636" lon="10.6204211"><ele>76.0</ele><time>2026-03-24T07:49:43.637Z</time></trkpt><trkpt lat="45.4332541" lon="10.6207666"><ele>76.0</ele><time>2026-03-24T07:49:44.64Z</time></trkpt><trkpt lat="45.433233" lon="10.6211044"><ele>76.0</ele><time>2026-03-24T07:49:45.637Z</time></trkpt><trkpt lat="45.4332129" lon="10.6214446"><ele>77.0</ele><time>2026-03-24T07:49:46.642Z</time></trkpt><trkpt lat="45.4331874" lon="10.6217843"><ele>78.0</ele><time>2026-03-24T07:49:47.641Z</time></trkpt><trkpt lat="45.4331653" lon="10.6221256"><ele>78.0</ele><time>2026-03-24T07:49:48.627Z</time></trkpt><trkpt lat="45.4331422" lon="10.6224835"><ele>78.0</ele><time>2026-03-24T07:49:49.64Z</time></trkpt><trkpt lat="45.4331241" lon="10.6228389"><ele>78.0</ele><time>2026-03-24T07:49:50.647Z</time></trkpt><trkpt lat="45.4331115" lon="10.6232034"><ele>78.0</ele><time>2026-03-24T07:49:51.628Z</time></trkpt><trkpt lat="45.4331018" lon="10.623569"><ele>78.0</ele><time>2026-03-24T07:49:52.642Z</time></trkpt><trkpt lat="45.4330896" lon="10.6239262"><ele>78.0</ele><time>2026-03-24T07:49:53.642Z</time></trkpt><trkpt lat="45.4330724" lon="10.6242803"><ele>77.0</ele><time>2026-03-24T07:49:54.638Z</time></trkpt><trkpt lat="45.4330507" lon="10.6246317"><ele>76.0</ele><time>2026-03-24T07:49:55.641Z</time></trkpt><trkpt lat="45.4330293" lon="10.6249757"><ele>75.5</ele><time>2026-03-24T07:49:56.639Z</time></trkpt><trkpt lat="45.4330178" lon="10.6253311"><ele>75.0</ele><time>2026-03-24T07:49:57.638Z</time></trkpt><trkpt lat="45.4330104" lon="10.6256924"><ele>75.0</ele><time>2026-03-24T07:49:58.642Z</time></trkpt><trkpt lat="45.4329919" lon="10.6260614"><ele>75.0</ele><time>2026-03-24T07:49:59.642Z</time></trkpt><trkpt lat="45.4329721" lon="10.6264354"><ele>76.0</ele><time>2026-03-24T07:50:00.632Z</time></trkpt><trkpt lat="45.4329576" lon="10.6268098"><ele>77.0</ele><time>2026-03-24T07:50:01.634Z</time></trkpt><trkpt lat="45.4329395" lon="10.6271929"><ele>77.0</ele><time>2026-03-24T07:50:02.636Z</time></trkpt><trkpt lat="45.4329222" lon="10.6275796"><ele>77.0</ele><time>2026-03-24T07:50:03.64Z</time></trkpt><trkpt lat="45.4329059" lon="10.6279594"><ele>77.0</ele><time>2026-03-24T07:50:04.639Z</time></trkpt><trkpt lat="45.4328943" lon="10.6283371"><ele>77.0</ele><time>2026-03-24T07:50:05.639Z</time></trkpt><trkpt lat="45.432888" lon="10.6287172"><ele>77.0</ele><time>2026-03-24T07:50:06.638Z</time></trkpt><trkpt lat="45.432872" lon="10.6290893"><ele>77.0</ele><time>2026-03-24T07:50:07.64Z</time></trkpt><trkpt lat="45.4328459" lon="10.6294642"><ele>77.0</ele><time>2026-03-24T07:50:08.632Z</time></trkpt><trkpt lat="45.4328132" lon="10.6298423"><ele>77.0</ele><time>2026-03-24T07:50:09.631Z</time></trkpt><trkpt lat="45.4327769" lon="10.6302226"><ele>76.5</ele><time>2026-03-24T07:50:10.638Z</time></trkpt><trkpt lat="45.4327485" lon="10.6305976"><ele>76.0</ele><time>2026-03-24T07:50:11.642Z</time></trkpt><trkpt lat="45.4327296" lon="10.6309799"><ele>75.5</ele><time>2026-03-24T07:50:12.638Z</time></trkpt><trkpt lat="45.4327077" lon="10.6313544"><ele>75.0</ele><time>2026-03-24T07:50:13.643Z</time></trkpt><trkpt lat="45.4326886" lon="10.6317293"><ele>75.0</ele><time>2026-03-24T07:50:14.638Z</time></trkpt><trkpt lat="45.4326723" lon="10.6321013"><ele>75.0</ele><time>2026-03-24T07:50:15.633Z</time></trkpt><trkpt lat="45.432649" lon="10.6324658"><ele>75.5</ele><time>2026-03-24T07:50:16.639Z</time></trkpt><trkpt lat="45.4326312" lon="10.6328261"><ele>76.0</ele><time>2026-03-24T07:50:17.64Z</time></trkpt><trkpt lat="45.43262" lon="10.633192"><ele>76.0</ele><time>2026-03-24T07:50:18.631Z</time></trkpt><trkpt lat="45.4326113" lon="10.6335667"><ele>76.0</ele><time>2026-03-24T07:50:19.651Z</time></trkpt><trkpt lat="45.432602" lon="10.6339309"><ele>77.5</ele><time>2026-03-24T07:50:20.632Z</time></trkpt><trkpt lat="45.4325868" lon="10.6343166"><ele>79.0</ele><time>2026-03-24T07:50:21.639Z</time></trkpt><trkpt lat="45.4325709" lon="10.6346967"><ele>79.0</ele><time>2026-03-24T07:50:22.636Z</time></trkpt><trkpt lat="45.4325598" lon="10.6350794"><ele>79.0</ele><time>2026-03-24T07:50:23.644Z</time></trkpt><trkpt lat="45.4325347" lon="10.6354553"><ele>78.5</ele><time>2026-03-24T07:50:24.632Z</time></trkpt><trkpt lat="45.4325095" lon="10.6358263"><ele>78.0</ele><time>2026-03-24T07:50:25.645Z</time></trkpt><trkpt lat="45.4324892" lon="10.6361928"><ele>79.5</ele><time>2026-03-24T07:50:26.641Z</time></trkpt><trkpt lat="45.4324713" lon="10.636557"><ele>81.0</ele><time>2026-03-24T07:50:27.637Z</time></trkpt><trkpt lat="45.4324525" lon="10.6369145"><ele>81.0</ele><time>2026-03-24T07:50:28.647Z</time></trkpt><trkpt lat="45.4324453" lon="10.6372684"><ele>81.0</ele><time>2026-03-24T07:50:29.646Z</time></trkpt><trkpt lat="45.4324298" lon="10.6376393"><ele>79.5</ele><time>2026-03-24T07:50:30.642Z</time></trkpt><trkpt lat="45.432411" lon="10.6380058"><ele>78.0</ele><time>2026-03-24T07:50:31.652Z</time></trkpt><trkpt lat="45.4323983" lon="10.6383628"><ele>76.5</ele><time>2026-03-24T07:50:32.643Z</time></trkpt><trkpt lat="45.4323752" lon="10.6387188"><ele>75.0</ele><time>2026-03-24T07:50:33.643Z</time></trkpt><trkpt lat="45.4323523" lon="10.6390652"><ele>75.0</ele><time>2026-03-24T07:50:34.646Z</time></trkpt><trkpt lat="45.4323336" lon="10.6394074"><ele>75.0</ele><time>2026-03-24T07:50:35.64Z</time></trkpt><trkpt lat="45.4323132" lon="10.6397554"><ele>75.0</ele><time>2026-03-24T07:50:36.64Z</time></trkpt><trkpt lat="45.4322843" lon="10.6401033"><ele>75.0</ele><time>2026-03-24T07:50:37.643Z</time></trkpt><trkpt lat="45.432265" lon="10.6404536"><ele>75.0</ele><time>2026-03-24T07:50:38.645Z</time></trkpt><trkpt lat="45.4322367" lon="10.6407984"><ele>75.0</ele><time>2026-03-24T07:50:39.637Z</time></trkpt><trkpt lat="45.4322063" lon="10.6411436"><ele>75.5</ele><time>2026-03-24T07:50:40.642Z</time></trkpt><trkpt lat="45.4321877" lon="10.6414955"><ele>76.0</ele><time>2026-03-24T07:50:41.645Z</time></trkpt><trkpt lat="45.4321636" lon="10.6418503"><ele>76.5</ele><time>2026-03-24T07:50:42.636Z</time></trkpt><trkpt lat="45.4321307" lon="10.6422172"><ele>77.0</ele><time>2026-03-24T07:50:43.643Z</time></trkpt><trkpt lat="45.4320991" lon="10.6425911"><ele>77.0</ele><time>2026-03-24T07:50:44.65Z</time></trkpt><trkpt lat="45.432079" lon="10.6429531"><ele>77.0</ele><time>2026-03-24T07:50:45.64Z</time></trkpt><trkpt lat="45.4320548" lon="10.6433263"><ele>77.0</ele><time>2026-03-24T07:50:46.636Z</time></trkpt><trkpt lat="45.432031" lon="10.6436926"><ele>77.0</ele><time>2026-03-24T07:50:47.649Z</time></trkpt><trkpt lat="45.4320104" lon="10.6440566"><ele>77.0</ele><time>2026-03-24T07:50:48.643Z</time></trkpt><trkpt lat="45.4319962" lon="10.6444248"><ele>77.0</ele><time>2026-03-24T07:50:49.645Z</time></trkpt><trkpt lat="45.4319776" lon="10.6447937"><ele>76.0</ele><time>2026-03-24T07:50:50.643Z</time></trkpt><trkpt lat="45.4319523" lon="10.6451596"><ele>75.0</ele><time>2026-03-24T07:50:51.643Z</time></trkpt><trkpt lat="45.431933" lon="10.6455202"><ele>75.0</ele><time>2026-03-24T07:50:52.646Z</time></trkpt><trkpt lat="45.4319102" lon="10.6458802"><ele>75.0</ele><time>2026-03-24T07:50:53.651Z</time></trkpt><trkpt lat="45.4318858" lon="10.6462353"><ele>75.0</ele><time>2026-03-24T07:50:54.639Z</time></trkpt><trkpt lat="45.4318631" lon="10.6465923"><ele>75.0</ele><time>2026-03-24T07:50:55.641Z</time></trkpt><trkpt lat="45.4318433" lon="10.6469445"><ele>75.0</ele><time>2026-03-24T07:50:56.644Z</time></trkpt><trkpt lat="45.4318144" lon="10.6472957"><ele>75.0</ele><time>2026-03-24T07:50:57.633Z</time></trkpt><trkpt lat="45.4317834" lon="10.6476414"><ele>75.0</ele><time>2026-03-24T07:50:58.643Z</time></trkpt><trkpt lat="45.4317539" lon="10.6479842"><ele>75.0</ele><time>2026-03-24T07:50:59.642Z</time></trkpt><trkpt lat="45.4317271" lon="10.6483277"><ele>75.0</ele><time>2026-03-24T07:51:00.648Z</time></trkpt><trkpt lat="45.4316987" lon="10.6486769"><ele>75.0</ele><time>2026-03-24T07:51:01.643Z</time></trkpt><trkpt lat="45.4316779" lon="10.6490277"><ele>75.0</ele><time>2026-03-24T07:51:02.642Z</time></trkpt><trkpt lat="45.4316519" lon="10.6493772"><ele>75.0</ele><time>2026-03-24T07:51:03.642Z</time></trkpt><trkpt lat="45.431624" lon="10.6497371"><ele>75.5</ele><time>2026-03-24T07:51:04.64Z</time></trkpt><trkpt lat="45.4316136" lon="10.650094"><ele>76.0</ele><time>2026-03-24T07:51:05.65Z</time></trkpt><trkpt lat="45.4316002" lon="10.6504498"><ele>76.0</ele><time>2026-03-24T07:51:06.645Z</time></trkpt><trkpt lat="45.4315849" lon="10.6507948"><ele>76.0</ele><time>2026-03-24T07:51:07.638Z</time></trkpt><trkpt lat="45.4315697" lon="10.6511292"><ele>77.0</ele><time>2026-03-24T07:51:08.642Z</time></trkpt><trkpt lat="45.4315501" lon="10.6514564"><ele>78.0</ele><time>2026-03-24T07:51:09.637Z</time></trkpt><trkpt lat="45.4315275" lon="10.6518058"><ele>77.0</ele><time>2026-03-24T07:51:10.641Z</time></trkpt><trkpt lat="45.4314994" lon="10.6521624"><ele>76.0</ele><time>2026-03-24T07:51:11.651Z</time></trkpt><trkpt lat="45.4314712" lon="10.6525109"><ele>76.0</ele><time>2026-03-24T07:51:12.638Z</time></trkpt><trkpt lat="45.431444" lon="10.6528555"><ele>76.0</ele><time>2026-03-24T07:51:13.639Z</time></trkpt><trkpt lat="45.4314188" lon="10.6531936"><ele>76.0</ele><time>2026-03-24T07:51:14.643Z</time></trkpt><trkpt lat="45.4314024" lon="10.6535289"><ele>76.0</ele><time>2026-03-24T07:51:15.639Z</time></trkpt><trkpt lat="45.431379" lon="10.653871"><ele>76.0</ele><time>2026-03-24T07:51:16.644Z</time></trkpt><trkpt lat="45.431365" lon="10.6542134"><ele>76.0</ele><time>2026-03-24T07:51:17.643Z</time></trkpt><trkpt lat="45.4313445" lon="10.6545595"><ele>77.0</ele><time>2026-03-24T07:51:18.639Z</time></trkpt><trkpt lat="45.431327" lon="10.6549056"><ele>78.0</ele><time>2026-03-24T07:51:19.645Z</time></trkpt><trkpt lat="45.4313105" lon="10.6552538"><ele>79.5</ele><time>2026-03-24T07:51:20.65Z</time></trkpt><trkpt lat="45.4312878" lon="10.6555937"><ele>81.0</ele><time>2026-03-24T07:51:21.64Z</time></trkpt><trkpt lat="45.431268" lon="10.6559311"><ele>81.0</ele><time>2026-03-24T07:51:22.635Z</time></trkpt><trkpt lat="45.4312386" lon="10.6562698"><ele>81.0</ele><time>2026-03-24T07:51:23.648Z</time></trkpt><trkpt lat="45.4312092" lon="10.6565933"><ele>81.0</ele><time>2026-03-24T07:51:24.639Z</time></trkpt><trkpt lat="45.4311815" lon="10.6569067"><ele>81.0</ele><time>2026-03-24T07:51:25.632Z</time></trkpt><trkpt lat="45.4311497" lon="10.6572198"><ele>81.0</ele><time>2026-03-24T07:51:26.65Z</time></trkpt><trkpt lat="45.4311236" lon="10.6575276"><ele>82.66666666666667</ele><time>2026-03-24T07:51:27.64Z</time></trkpt><trkpt lat="45.4310957" lon="10.657841"><ele>84.33333333333334</ele><time>2026-03-24T07:51:28.646Z</time></trkpt><trkpt lat="45.4310673" lon="10.6581589"><ele>86.0</ele><time>2026-03-24T07:51:29.643Z</time></trkpt><trkpt lat="45.4310382" lon="10.6584875"><ele>86.0</ele><time>2026-03-24T07:51:30.638Z</time></trkpt><trkpt lat="45.4310127" lon="10.6588153"><ele>86.0</ele><time>2026-03-24T07:51:31.629Z</time></trkpt><trkpt lat="45.4309876" lon="10.6591462"><ele>84.5</ele><time>2026-03-24T07:51:32.644Z</time></trkpt><trkpt lat="45.430966" lon="10.6594715"><ele>83.0</ele><time>2026-03-24T07:51:33.632Z</time></trkpt><trkpt lat="45.4309523" lon="10.6598045"><ele>83.0</ele><time>2026-03-24T07:51:34.632Z</time></trkpt><trkpt lat="45.4309347" lon="10.6601387"><ele>83.0</ele><time>2026-03-24T07:51:35.643Z</time></trkpt><trkpt lat="45.4309116" lon="10.6604674"><ele>81.66666666666667</ele><time>2026-03-24T07:51:36.645Z</time></trkpt><trkpt lat="45.4308953" lon="10.6607842"><ele>80.33333333333333</ele><time>2026-03-24T07:51:37.63Z</time></trkpt><trkpt lat="45.4308713" lon="10.6610964"><ele>79.0</ele><time>2026-03-24T07:51:38.636Z</time></trkpt><trkpt lat="45.4308502" lon="10.6614166"><ele>77.5</ele><time>2026-03-24T07:51:39.638Z</time></trkpt><trkpt lat="45.4308407" lon="10.6617349"><ele>76.0</ele><time>2026-03-24T07:51:40.635Z</time></trkpt><trkpt lat="45.4308314" lon="10.662062"><ele>76.0</ele><time>2026-03-24T07:51:41.642Z</time></trkpt><trkpt lat="45.4308198" lon="10.6623924"><ele>76.0</ele><time>2026-03-24T07:51:42.632Z</time></trkpt><trkpt lat="45.4307956" lon="10.6627139"><ele>75.5</ele><time>2026-03-24T07:51:43.627Z</time></trkpt><trkpt lat="45.4307679" lon="10.6630392"><ele>75.0</ele><time>2026-03-24T07:51:44.64Z</time></trkpt><trkpt lat="45.4307434" lon="10.6633588"><ele>75.0</ele><time>2026-03-24T07:51:45.634Z</time></trkpt><trkpt lat="45.4307239" lon="10.6636789"><ele>75.0</ele><time>2026-03-24T07:51:46.635Z</time></trkpt><trkpt lat="45.43071" lon="10.6639903"><ele>75.0</ele><time>2026-03-24T07:51:47.639Z</time></trkpt><trkpt lat="45.4306873" lon="10.6643126"><ele>75.5</ele><time>2026-03-24T07:51:48.634Z</time></trkpt><trkpt lat="45.4306579" lon="10.6646383"><ele>76.0</ele><time>2026-03-24T07:51:49.642Z</time></trkpt><trkpt lat="45.4306322" lon="10.6649526"><ele>76.0</ele><time>2026-03-24T07:51:50.636Z</time></trkpt><trkpt lat="45.4306091" lon="10.6652755"><ele>76.0</ele><time>2026-03-24T07:51:51.639Z</time></trkpt><trkpt lat="45.4305823" lon="10.6656028"><ele>77.0</ele><time>2026-03-24T07:51:52.641Z</time></trkpt><trkpt lat="45.4305523" lon="10.6659198"><ele>78.0</ele><time>2026-03-24T07:51:53.636Z</time></trkpt><trkpt lat="45.4305302" lon="10.6662437"><ele>80.0</ele><time>2026-03-24T07:51:54.634Z</time></trkpt><trkpt lat="45.4305131" lon="10.6665649"><ele>82.0</ele><time>2026-03-24T07:51:55.631Z</time></trkpt><trkpt lat="45.4305009" lon="10.6668889"><ele>83.0</ele><time>2026-03-24T07:51:56.636Z</time></trkpt><trkpt lat="45.4304764" lon="10.6672241"><ele>84.0</ele><time>2026-03-24T07:51:57.634Z</time></trkpt><trkpt lat="45.4304482" lon="10.6675577"><ele>86.0</ele><time>2026-03-24T07:51:58.638Z</time></trkpt><trkpt lat="45.4304169" lon="10.6678923"><ele>88.0</ele><time>2026-03-24T07:51:59.641Z</time></trkpt><trkpt lat="45.4303853" lon="10.66823"><ele>88.0</ele><time>2026-03-24T07:52:00.637Z</time></trkpt><trkpt lat="45.4303638" lon="10.6685696"><ele>88.0</ele><time>2026-03-24T07:52:01.636Z</time></trkpt><trkpt lat="45.4303425" lon="10.668913"><ele>88.0</ele><time>2026-03-24T07:52:02.642Z</time></trkpt><trkpt lat="45.4303228" lon="10.6692599"><ele>88.0</ele><time>2026-03-24T07:52:03.634Z</time></trkpt><trkpt lat="45.4303077" lon="10.6695986"><ele>88.0</ele><time>2026-03-24T07:52:04.643Z</time></trkpt><trkpt lat="45.430289" lon="10.6699318"><ele>88.0</ele><time>2026-03-24T07:52:05.639Z</time></trkpt><trkpt lat="45.4302721" lon="10.6702645"><ele>86.0</ele><time>2026-03-24T07:52:06.638Z</time></trkpt><trkpt lat="45.4302428" lon="10.6706045"><ele>84.0</ele><time>2026-03-24T07:52:07.637Z</time></trkpt><trkpt lat="45.430223" lon="10.6709414"><ele>82.5</ele><time>2026-03-24T07:52:08.635Z</time></trkpt><trkpt lat="45.4302074" lon="10.6712846"><ele>81.0</ele><time>2026-03-24T07:52:09.635Z</time></trkpt><trkpt lat="45.4301927" lon="10.6716232"><ele>81.5</ele><time>2026-03-24T07:52:10.631Z</time></trkpt><trkpt lat="45.4301682" lon="10.6719581"><ele>82.0</ele><time>2026-03-24T07:52:11.646Z</time></trkpt><trkpt lat="45.4301396" lon="10.6722832"><ele>82.0</ele><time>2026-03-24T07:52:12.638Z</time></trkpt><trkpt lat="45.4301104" lon="10.6726055"><ele>82.0</ele><time>2026-03-24T07:52:13.635Z</time></trkpt><trkpt lat="45.43009" lon="10.6729259"><ele>82.33333333333333</ele><time>2026-03-24T07:52:14.641Z</time></trkpt><trkpt lat="45.4300755" lon="10.6732397"><ele>82.66666666666667</ele><time>2026-03-24T07:52:15.631Z</time></trkpt><trkpt lat="45.4300561" lon="10.6735618"><ele>83.0</ele><time>2026-03-24T07:52:16.633Z</time></trkpt><trkpt lat="45.4300314" lon="10.673886"><ele>84.0</ele><time>2026-03-24T07:52:17.641Z</time></trkpt><trkpt lat="45.4300104" lon="10.6742101"><ele>85.0</ele><time>2026-03-24T07:52:18.634Z</time></trkpt><trkpt lat="45.4299914" lon="10.6745375"><ele>85.0</ele><time>2026-03-24T07:52:19.637Z</time></trkpt><trkpt lat="45.4299756" lon="10.6748654"><ele>85.0</ele><time>2026-03-24T07:52:20.639Z</time></trkpt><trkpt lat="45.4299625" lon="10.6752057"><ele>84.5</ele><time>2026-03-24T07:52:21.635Z</time></trkpt><trkpt lat="45.4299423" lon="10.6755399"><ele>84.0</ele><time>2026-03-24T07:52:22.637Z</time></trkpt><trkpt lat="45.4299286" lon="10.6758621"><ele>83.5</ele><time>2026-03-24T07:52:23.643Z</time></trkpt><trkpt lat="45.4299145" lon="10.6761874"><ele>83.0</ele><time>2026-03-24T07:52:24.633Z</time></trkpt><trkpt lat="45.429888" lon="10.6765184"><ele>83.0</ele><time>2026-03-24T07:52:25.636Z</time></trkpt><trkpt lat="45.4298657" lon="10.6768418"><ele>83.0</ele><time>2026-03-24T07:52:26.644Z</time></trkpt><trkpt lat="45.4298398" lon="10.6771714"><ele>83.0</ele><time>2026-03-24T07:52:27.632Z</time></trkpt><trkpt lat="45.4298169" lon="10.6774969"><ele>83.0</ele><time>2026-03-24T07:52:28.644Z</time></trkpt><trkpt lat="45.4297974" lon="10.67782"><ele>84.0</ele><time>2026-03-24T07:52:29.641Z</time></trkpt><trkpt lat="45.4297782" lon="10.6781555"><ele>85.0</ele><time>2026-03-24T07:52:30.636Z</time></trkpt><trkpt lat="45.4297548" lon="10.6784912"><ele>85.0</ele><time>2026-03-24T07:52:31.636Z</time></trkpt><trkpt lat="45.4297341" lon="10.6788299"><ele>85.0</ele><time>2026-03-24T07:52:32.638Z</time></trkpt><trkpt lat="45.4297117" lon="10.6791738"><ele>85.5</ele><time>2026-03-24T07:52:33.636Z</time></trkpt><trkpt lat="45.4296878" lon="10.6795143"><ele>86.0</ele><time>2026-03-24T07:52:34.631Z</time></trkpt><trkpt lat="45.4296611" lon="10.6798451"><ele>86.0</ele><time>2026-03-24T07:52:35.638Z</time></trkpt><trkpt lat="45.4296327" lon="10.6801852"><ele>86.0</ele><time>2026-03-24T07:52:36.633Z</time></trkpt><trkpt lat="45.429604" lon="10.6805379"><ele>86.0</ele><time>2026-03-24T07:52:37.63Z</time></trkpt><trkpt lat="45.4295762" lon="10.6808961"><ele>86.0</ele><time>2026-03-24T07:52:38.64Z</time></trkpt><trkpt lat="45.4295538" lon="10.6812587"><ele>87.0</ele><time>2026-03-24T07:52:39.635Z</time></trkpt><trkpt lat="45.4295286" lon="10.6816252"><ele>88.0</ele><time>2026-03-24T07:52:40.636Z</time></trkpt><trkpt lat="45.4295058" lon="10.6819928"><ele>91.0</ele><time>2026-03-24T07:52:41.639Z</time></trkpt><trkpt lat="45.4294874" lon="10.6823686"><ele>94.0</ele><time>2026-03-24T07:52:42.634Z</time></trkpt><trkpt lat="45.4294595" lon="10.6827489"><ele>95.5</ele><time>2026-03-24T07:52:43.639Z</time></trkpt><trkpt lat="45.429434" lon="10.6831202"><ele>97.0</ele><time>2026-03-24T07:52:44.638Z</time></trkpt><trkpt lat="45.4294075" lon="10.6834927"><ele>94.5</ele><time>2026-03-24T07:52:45.643Z</time></trkpt><trkpt lat="45.4293877" lon="10.6838635"><ele>92.0</ele><time>2026-03-24T07:52:46.638Z</time></trkpt><trkpt lat="45.4293742" lon="10.6842453"><ele>90.0</ele><time>2026-03-24T07:52:47.632Z</time></trkpt><trkpt lat="45.4293512" lon="10.6846266"><ele>88.0</ele><time>2026-03-24T07:52:48.623Z</time></trkpt><trkpt lat="45.4293208" lon="10.6850103"><ele>86.5</ele><time>2026-03-24T07:52:49.63Z</time></trkpt><trkpt lat="45.4292955" lon="10.6853908"><ele>85.0</ele><time>2026-03-24T07:52:50.638Z</time></trkpt><trkpt lat="45.4292676" lon="10.6857775"><ele>84.5</ele><time>2026-03-24T07:52:51.636Z</time></trkpt><trkpt lat="45.4292444" lon="10.6861616"><ele>84.0</ele><time>2026-03-24T07:52:52.63Z</time></trkpt><trkpt lat="45.4292253" lon="10.6865553"><ele>84.5</ele><time>2026-03-24T07:52:53.638Z</time></trkpt><trkpt lat="45.429205" lon="10.6869601"><ele>85.0</ele><time>2026-03-24T07:52:54.637Z</time></trkpt><trkpt lat="45.4291944" lon="10.6873651"><ele>84.5</ele><time>2026-03-24T07:52:55.636Z</time></trkpt><trkpt lat="45.4291897" lon="10.6877654"><ele>84.0</ele><time>2026-03-24T07:52:56.642Z</time></trkpt><trkpt lat="45.4291843" lon="10.6881769"><ele>84.0</ele><time>2026-03-24T07:52:57.633Z</time></trkpt><trkpt lat="45.4291735" lon="10.6885888"><ele>84.0</ele><time>2026-03-24T07:52:58.634Z</time></trkpt><trkpt lat="45.4291678" lon="10.688986"><ele>83.0</ele><time>2026-03-24T07:52:59.638Z</time></trkpt><trkpt lat="45.4291606" lon="10.6893847"><ele>82.0</ele><time>2026-03-24T07:53:00.638Z</time></trkpt><trkpt lat="45.4291533" lon="10.6897823"><ele>82.0</ele><time>2026-03-24T07:53:01.632Z</time></trkpt><trkpt lat="45.4291475" lon="10.6901784"><ele>82.0</ele><time>2026-03-24T07:53:02.641Z</time></trkpt><trkpt lat="45.4291457" lon="10.6905616"><ele>82.5</ele><time>2026-03-24T07:53:03.63Z</time></trkpt><trkpt lat="45.4291466" lon="10.6909457"><ele>83.0</ele><time>2026-03-24T07:53:04.637Z</time></trkpt><trkpt lat="45.4291501" lon="10.6913127"><ele>82.5</ele><time>2026-03-24T07:53:05.636Z</time></trkpt><trkpt lat="45.4291455" lon="10.691678"><ele>82.0</ele><time>2026-03-24T07:53:06.631Z</time></trkpt><trkpt lat="45.4291424" lon="10.6920405"><ele>82.0</ele><time>2026-03-24T07:53:07.633Z</time></trkpt><trkpt lat="45.4291471" lon="10.6924014"><ele>82.0</ele><time>2026-03-24T07:53:08.641Z</time></trkpt><trkpt lat="45.4291487" lon="10.692758"><ele>82.5</ele><time>2026-03-24T07:53:09.63Z</time></trkpt><trkpt lat="45.4291479" lon="10.6931246"><ele>83.0</ele><time>2026-03-24T07:53:10.641Z</time></trkpt><trkpt lat="45.4291551" lon="10.6934851"><ele>82.5</ele><time>2026-03-24T07:53:11.642Z</time></trkpt><trkpt lat="45.4291614" lon="10.6938569"><ele>82.0</ele><time>2026-03-24T07:53:12.639Z</time></trkpt><trkpt lat="45.429158" lon="10.6942256"><ele>81.5</ele><time>2026-03-24T07:53:13.634Z</time></trkpt><trkpt lat="45.4291594" lon="10.6945954"><ele>81.0</ele><time>2026-03-24T07:53:14.649Z</time></trkpt><trkpt lat="45.429154" lon="10.694975"><ele>80.5</ele><time>2026-03-24T07:53:15.64Z</time></trkpt><trkpt lat="45.4291499" lon="10.695353"><ele>80.0</ele><time>2026-03-24T07:53:16.638Z</time></trkpt><trkpt lat="45.4291469" lon="10.695716"><ele>80.0</ele><time>2026-03-24T07:53:17.642Z</time></trkpt><trkpt lat="45.429148" lon="10.6960687"><ele>80.0</ele><time>2026-03-24T07:53:18.644Z</time></trkpt><trkpt lat="45.4291596" lon="10.6964134"><ele>78.5</ele><time>2026-03-24T07:53:19.645Z</time></trkpt><trkpt lat="45.429169" lon="10.6967552"><ele>77.0</ele><time>2026-03-24T07:53:20.64Z</time></trkpt><trkpt lat="45.4291656" lon="10.6971025"><ele>76.0</ele><time>2026-03-24T07:53:21.638Z</time></trkpt><trkpt lat="45.429168" lon="10.6974413"><ele>75.0</ele><time>2026-03-24T07:53:22.638Z</time></trkpt><trkpt lat="45.4291674" lon="10.6977815"><ele>74.0</ele><time>2026-03-24T07:53:23.639Z</time></trkpt><trkpt lat="45.4291667" lon="10.698134"><ele>73.0</ele><time>2026-03-24T07:53:24.641Z</time></trkpt><trkpt lat="45.4291757" lon="10.6984836"><ele>72.5</ele><time>2026-03-24T07:53:25.638Z</time></trkpt><trkpt lat="45.4291792" lon="10.698835"><ele>72.0</ele><time>2026-03-24T07:53:26.638Z</time></trkpt><trkpt lat="45.4291819" lon="10.699192"><ele>70.0</ele><time>2026-03-24T07:53:27.642Z</time></trkpt><trkpt lat="45.4291871" lon="10.6995493"><ele>68.0</ele><time>2026-03-24T07:53:28.64Z</time></trkpt><trkpt lat="45.4291941" lon="10.6998911"><ele>68.0</ele><time>2026-03-24T07:53:29.637Z</time></trkpt><trkpt lat="45.4291983" lon="10.7002389"><ele>68.0</ele><time>2026-03-24T07:53:30.631Z</time></trkpt><trkpt lat="45.4292065" lon="10.7005885"><ele>67.0</ele><time>2026-03-24T07:53:31.642Z</time></trkpt><trkpt lat="45.4292113" lon="10.7009185"><ele>66.0</ele><time>2026-03-24T07:53:32.642Z</time></trkpt><trkpt lat="45.4292065" lon="10.7012434"><ele>66.0</ele><time>2026-03-24T07:53:33.641Z</time></trkpt><trkpt lat="45.4292132" lon="10.7015608"><ele>66.0</ele><time>2026-03-24T07:53:34.637Z</time></trkpt><trkpt lat="45.4292221" lon="10.7018809"><ele>66.0</ele><time>2026-03-24T07:53:35.637Z</time></trkpt><trkpt lat="45.4292184" lon="10.7022086"><ele>68.0</ele><time>2026-03-24T07:53:36.631Z</time></trkpt><trkpt lat="45.4292154" lon="10.7025376"><ele>70.0</ele><time>2026-03-24T07:53:37.632Z</time></trkpt><trkpt lat="45.4292196" lon="10.702871"><ele>72.0</ele><time>2026-03-24T07:53:38.633Z</time></trkpt><trkpt lat="45.4292138" lon="10.7032036"><ele>74.0</ele><time>2026-03-24T07:53:39.631Z</time></trkpt><trkpt lat="45.4292204" lon="10.7035287"><ele>75.5</ele><time>2026-03-24T07:53:40.64Z</time></trkpt><trkpt lat="45.4292132" lon="10.703854"><ele>77.0</ele><time>2026-03-24T07:53:41.638Z</time></trkpt><trkpt lat="45.429211" lon="10.7041793"><ele>78.5</ele><time>2026-03-24T07:53:42.633Z</time></trkpt><trkpt lat="45.4292129" lon="10.704507"><ele>80.0</ele><time>2026-03-24T07:53:43.641Z</time></trkpt><trkpt lat="45.42922" lon="10.7048288"><ele>80.0</ele><time>2026-03-24T07:53:44.642Z</time></trkpt><trkpt lat="45.4292247" lon="10.7051564"><ele>80.0</ele><time>2026-03-24T07:53:45.636Z</time></trkpt><trkpt lat="45.4292348" lon="10.7054809"><ele>80.66666666666667</ele><time>2026-03-24T07:53:46.631Z</time></trkpt><trkpt lat="45.4292349" lon="10.7058034"><ele>81.33333333333333</ele><time>2026-03-24T07:53:47.638Z</time></trkpt><trkpt lat="45.4292316" lon="10.7061203"><ele>82.0</ele><time>2026-03-24T07:53:48.632Z</time></trkpt><trkpt lat="45.4292317" lon="10.7064261"><ele>82.0</ele><time>2026-03-24T07:53:49.635Z</time></trkpt><trkpt lat="45.429231" lon="10.7067166"><ele>82.0</ele><time>2026-03-24T07:53:50.634Z</time></trkpt><trkpt lat="45.4292242" lon="10.7070043"><ele>82.0</ele><time>2026-03-24T07:53:51.633Z</time></trkpt><trkpt lat="45.4292278" lon="10.7072864"><ele>82.66666666666666</ele><time>2026-03-24T07:53:52.621Z</time></trkpt><trkpt lat="45.4292335" lon="10.7075791"><ele>83.33333333333333</ele><time>2026-03-24T07:53:53.637Z</time></trkpt><trkpt lat="45.4292343" lon="10.7078856"><ele>84.0</ele><time>2026-03-24T07:53:54.63Z</time></trkpt><trkpt lat="45.4292408" lon="10.7081844"><ele>84.33333333333333</ele><time>2026-03-24T07:53:55.63Z</time></trkpt><trkpt lat="45.429247" lon="10.7084863"><ele>84.66666666666666</ele><time>2026-03-24T07:53:56.636Z</time></trkpt><trkpt lat="45.4292486" lon="10.7087944"><ele>85.0</ele><time>2026-03-24T07:53:57.636Z</time></trkpt><trkpt lat="45.4292493" lon="10.7091075"><ele>86.66666666666666</ele><time>2026-03-24T07:53:58.643Z</time></trkpt><trkpt lat="45.4292466" lon="10.709415"><ele>88.33333333333333</ele><time>2026-03-24T07:53:59.634Z</time></trkpt><trkpt lat="45.429244" lon="10.7097335"><ele>90.0</ele><time>2026-03-24T07:54:00.639Z</time></trkpt><trkpt lat="45.4292521" lon="10.710048"><ele>91.0</ele><time>2026-03-24T07:54:01.638Z</time></trkpt><trkpt lat="45.4292587" lon="10.7103633"><ele>92.0</ele><time>2026-03-24T07:54:02.636Z</time></trkpt><trkpt lat="45.4292607" lon="10.7106824"><ele>93.0</ele><time>2026-03-24T07:54:03.641Z</time></trkpt><trkpt lat="45.4292652" lon="10.7109886"><ele>94.33333333333334</ele><time>2026-03-24T07:54:04.635Z</time></trkpt><trkpt lat="45.4292679" lon="10.7112922"><ele>95.66666666666667</ele><time>2026-03-24T07:54:05.639Z</time></trkpt><trkpt lat="45.4292615" lon="10.7116102"><ele>97.0</ele><time>2026-03-24T07:54:06.635Z</time></trkpt><trkpt lat="45.4292586" lon="10.7119341"><ele>97.66666666666667</ele><time>2026-03-24T07:54:07.639Z</time></trkpt><trkpt lat="45.4292572" lon="10.7122519"><ele>98.33333333333334</ele><time>2026-03-24T07:54:08.637Z</time></trkpt><trkpt lat="45.4292482" lon="10.7125734"><ele>99.0</ele><time>2026-03-24T07:54:09.628Z</time></trkpt><trkpt lat="45.429251" lon="10.7128893"><ele>99.33333333333334</ele><time>2026-03-24T07:54:10.645Z</time></trkpt><trkpt lat="45.4292576" lon="10.7132066"><ele>99.66666666666667</ele><time>2026-03-24T07:54:11.645Z</time></trkpt><trkpt lat="45.4292505" lon="10.713526"><ele>100.0</ele><time>2026-03-24T07:54:12.631Z</time></trkpt><trkpt lat="45.4292536" lon="10.7138451"><ele>100.33333333333334</ele><time>2026-03-24T07:54:13.639Z</time></trkpt><trkpt lat="45.4292643" lon="10.7141614"><ele>100.66666666666666</ele><time>2026-03-24T07:54:14.639Z</time></trkpt><trkpt lat="45.4292757" lon="10.71448"><ele>101.0</ele><time>2026-03-24T07:54:15.639Z</time></trkpt><trkpt lat="45.4292691" lon="10.7147932"><ele>101.0</ele><time>2026-03-24T07:54:16.643Z</time></trkpt><trkpt lat="45.4292717" lon="10.7151021"><ele>101.0</ele><time>2026-03-24T07:54:17.64Z</time></trkpt><trkpt lat="45.429275" lon="10.7154321"><ele>101.0</ele><time>2026-03-24T07:54:18.64Z</time></trkpt><trkpt lat="45.4292856" lon="10.715758"><ele>100.0</ele><time>2026-03-24T07:54:19.645Z</time></trkpt><trkpt lat="45.4292824" lon="10.7160832"><ele>99.0</ele><time>2026-03-24T07:54:20.637Z</time></trkpt><trkpt lat="45.4292854" lon="10.7164058"><ele>99.0</ele><time>2026-03-24T07:54:21.64Z</time></trkpt><trkpt lat="45.4292911" lon="10.7167281"><ele>99.0</ele><time>2026-03-24T07:54:22.64Z</time></trkpt><trkpt lat="45.4292983" lon="10.7170605"><ele>98.5</ele><time>2026-03-24T07:54:23.644Z</time></trkpt><trkpt lat="45.4293044" lon="10.717392"><ele>98.0</ele><time>2026-03-24T07:54:24.641Z</time></trkpt><trkpt lat="45.4293155" lon="10.717732"><ele>98.0</ele><time>2026-03-24T07:54:25.642Z</time></trkpt><trkpt lat="45.4293298" lon="10.7180548"><ele>98.0</ele><time>2026-03-24T07:54:26.646Z</time></trkpt><trkpt lat="45.4293383" lon="10.7183844"><ele>98.5</ele><time>2026-03-24T07:54:27.64Z</time></trkpt><trkpt lat="45.4293379" lon="10.7187154"><ele>99.0</ele><time>2026-03-24T07:54:28.644Z</time></trkpt><trkpt lat="45.4293438" lon="10.7190404"><ele>99.0</ele><time>2026-03-24T07:54:29.643Z</time></trkpt><trkpt lat="45.4293314" lon="10.7193554"><ele>99.0</ele><time>2026-03-24T07:54:30.633Z</time></trkpt><trkpt lat="45.4293278" lon="10.7196729"><ele>99.0</ele><time>2026-03-24T07:54:31.64Z</time></trkpt><trkpt lat="45.4293392" lon="10.719984"><ele>99.33333333333334</ele><time>2026-03-24T07:54:32.646Z</time></trkpt><trkpt lat="45.4293488" lon="10.7202942"><ele>99.66666666666667</ele><time>2026-03-24T07:54:33.636Z</time></trkpt><trkpt lat="45.4293456" lon="10.7206158"><ele>100.0</ele><time>2026-03-24T07:54:34.641Z</time></trkpt><trkpt lat="45.4293524" lon="10.7209366"><ele>100.33333333333334</ele><time>2026-03-24T07:54:35.64Z</time></trkpt><trkpt lat="45.4293675" lon="10.7212551"><ele>100.66666666666666</ele><time>2026-03-24T07:54:36.631Z</time></trkpt><trkpt lat="45.4293798" lon="10.7215753"><ele>101.0</ele><time>2026-03-24T07:54:37.631Z</time></trkpt><trkpt lat="45.4293862" lon="10.7218926"><ele>102.0</ele><time>2026-03-24T07:54:38.637Z</time></trkpt><trkpt lat="45.4293837" lon="10.7222146"><ele>103.0</ele><time>2026-03-24T07:54:39.635Z</time></trkpt><trkpt lat="45.4293807" lon="10.7225374"><ele>104.0</ele><time>2026-03-24T07:54:40.635Z</time></trkpt><trkpt lat="45.4293899" lon="10.7228577"><ele>105.0</ele><time>2026-03-24T07:54:41.644Z</time></trkpt><trkpt lat="45.4293862" lon="10.7231878"><ele>105.0</ele><time>2026-03-24T07:54:42.636Z</time></trkpt><trkpt lat="45.4293733" lon="10.7235247"><ele>105.0</ele><time>2026-03-24T07:54:43.634Z</time></trkpt><trkpt lat="45.4293714" lon="10.723864"><ele>105.5</ele><time>2026-03-24T07:54:44.645Z</time></trkpt><trkpt lat="45.429378" lon="10.7242039"><ele>106.0</ele><time>2026-03-24T07:54:45.638Z</time></trkpt><trkpt lat="45.4293869" lon="10.7245481"><ele>107.0</ele><time>2026-03-24T07:54:46.648Z</time></trkpt><trkpt lat="45.4293931" lon="10.7248896"><ele>108.0</ele><time>2026-03-24T07:54:47.654Z</time></trkpt><trkpt lat="45.4294038" lon="10.725231"><ele>108.5</ele><time>2026-03-24T07:54:48.649Z</time></trkpt><trkpt lat="45.4294083" lon="10.725569"><ele>109.0</ele><time>2026-03-24T07:54:49.657Z</time></trkpt><trkpt lat="45.4294121" lon="10.7259079"><ele>111.0</ele><time>2026-03-24T07:54:50.648Z</time></trkpt><trkpt lat="45.4294059" lon="10.7262438"><ele>113.0</ele><time>2026-03-24T07:54:51.642Z</time></trkpt><trkpt lat="45.4294064" lon="10.7265624"><ele>113.0</ele><time>2026-03-24T07:54:52.65Z</time></trkpt><trkpt lat="45.4294082" lon="10.7268842"><ele>113.0</ele><time>2026-03-24T07:54:53.645Z</time></trkpt><trkpt lat="45.4294011" lon="10.7272053"><ele>112.0</ele><time>2026-03-24T07:54:54.645Z</time></trkpt><trkpt lat="45.4294042" lon="10.7275195"><ele>111.0</ele><time>2026-03-24T07:54:55.651Z</time></trkpt><trkpt lat="45.4294075" lon="10.7278365"><ele>110.0</ele><time>2026-03-24T07:54:56.65Z</time></trkpt><trkpt lat="45.4293954" lon="10.7281497"><ele>108.66666666666666</ele><time>2026-03-24T07:54:57.645Z</time></trkpt><trkpt lat="45.4293793" lon="10.7284571"><ele>107.33333333333334</ele><time>2026-03-24T07:54:58.651Z</time></trkpt><trkpt lat="45.429363" lon="10.7287648"><ele>106.0</ele><time>2026-03-24T07:54:59.65Z</time></trkpt><trkpt lat="45.429345" lon="10.7290666"><ele>104.66666666666667</ele><time>2026-03-24T07:55:00.642Z</time></trkpt><trkpt lat="45.4293343" lon="10.7293775"><ele>103.33333333333334</ele><time>2026-03-24T07:55:01.651Z</time></trkpt><trkpt lat="45.4293206" lon="10.7296901"><ele>102.0</ele><time>2026-03-24T07:55:02.647Z</time></trkpt><trkpt lat="45.429308" lon="10.7300132"><ele>102.0</ele><time>2026-03-24T07:55:03.647Z</time></trkpt><trkpt lat="45.4292916" lon="10.7303419"><ele>102.0</ele><time>2026-03-24T07:55:04.642Z</time></trkpt><trkpt lat="45.4292672" lon="10.7306631"><ele>102.0</ele><time>2026-03-24T07:55:05.645Z</time></trkpt><trkpt lat="45.4292397" lon="10.7309673"><ele>102.0</ele><time>2026-03-24T07:55:06.641Z</time></trkpt><trkpt lat="45.4292156" lon="10.731277"><ele>102.0</ele><time>2026-03-24T07:55:07.648Z</time></trkpt><trkpt lat="45.4291878" lon="10.7315918"><ele>102.33333333333334</ele><time>2026-03-24T07:55:08.657Z</time></trkpt><trkpt lat="45.4291571" lon="10.7319124"><ele>102.66666666666667</ele><time>2026-03-24T07:55:09.651Z</time></trkpt><trkpt lat="45.4291339" lon="10.7322258"><ele>103.0</ele><time>2026-03-24T07:55:10.648Z</time></trkpt><trkpt lat="45.4291034" lon="10.7325406"><ele>103.5</ele><time>2026-03-24T07:55:11.65Z</time></trkpt><trkpt lat="45.4290664" lon="10.7328708"><ele>104.0</ele><time>2026-03-24T07:55:12.649Z</time></trkpt><trkpt lat="45.4290224" lon="10.7332088"><ele>104.0</ele><time>2026-03-24T07:55:13.641Z</time></trkpt><trkpt lat="45.4289705" lon="10.7335483"><ele>104.0</ele><time>2026-03-24T07:55:14.643Z</time></trkpt><trkpt lat="45.4289142" lon="10.7338921"><ele>102.0</ele><time>2026-03-24T07:55:15.642Z</time></trkpt><trkpt lat="45.428871" lon="10.734242"><ele>100.0</ele><time>2026-03-24T07:55:16.647Z</time></trkpt><trkpt lat="45.4288365" lon="10.7345947"><ele>99.5</ele><time>2026-03-24T07:55:17.653Z</time></trkpt><trkpt lat="45.4288029" lon="10.7349515"><ele>99.0</ele><time>2026-03-24T07:55:18.64Z</time></trkpt><trkpt lat="45.4287661" lon="10.7353092"><ele>99.0</ele><time>2026-03-24T07:55:19.646Z</time></trkpt><trkpt lat="45.4287251" lon="10.7356676"><ele>99.0</ele><time>2026-03-24T07:55:20.641Z</time></trkpt><trkpt lat="45.4286803" lon="10.7360317"><ele>99.5</ele><time>2026-03-24T07:55:21.647Z</time></trkpt><trkpt lat="45.4286455" lon="10.7363934"><ele>100.0</ele><time>2026-03-24T07:55:22.645Z</time></trkpt><trkpt lat="45.428617" lon="10.7367493"><ele>98.5</ele><time>2026-03-24T07:55:23.649Z</time></trkpt><trkpt lat="45.4285858" lon="10.737113"><ele>97.0</ele><time>2026-03-24T07:55:24.641Z</time></trkpt><trkpt lat="45.4285405" lon="10.7374666"><ele>97.0</ele><time>2026-03-24T07:55:25.644Z</time></trkpt><trkpt lat="45.4285027" lon="10.7378114"><ele>97.0</ele><time>2026-03-24T07:55:26.655Z</time></trkpt><trkpt lat="45.4284669" lon="10.7381528"><ele>97.0</ele><time>2026-03-24T07:55:27.644Z</time></trkpt><trkpt lat="45.4284325" lon="10.7385013"><ele>97.0</ele><time>2026-03-24T07:55:28.657Z</time></trkpt><trkpt lat="45.4283964" lon="10.7388473"><ele>96.5</ele><time>2026-03-24T07:55:29.651Z</time></trkpt><trkpt lat="45.4283605" lon="10.7391964"><ele>96.0</ele><time>2026-03-24T07:55:30.653Z</time></trkpt><trkpt lat="45.4283288" lon="10.7395384"><ele>96.0</ele><time>2026-03-24T07:55:31.657Z</time></trkpt><trkpt lat="45.428293" lon="10.7398726"><ele>96.0</ele><time>2026-03-24T07:55:32.648Z</time></trkpt><trkpt lat="45.4282552" lon="10.7402088"><ele>96.5</ele><time>2026-03-24T07:55:33.651Z</time></trkpt><trkpt lat="45.428226" lon="10.7405378"><ele>97.0</ele><time>2026-03-24T07:55:34.647Z</time></trkpt><trkpt lat="45.4281997" lon="10.7408695"><ele>97.5</ele><time>2026-03-24T07:55:35.649Z</time></trkpt><trkpt lat="45.4281641" lon="10.7411999"><ele>98.0</ele><time>2026-03-24T07:55:36.648Z</time></trkpt><trkpt lat="45.4281245" lon="10.7415307"><ele>98.0</ele><time>2026-03-24T07:55:37.649Z</time></trkpt><trkpt lat="45.4280909" lon="10.7418529"><ele>98.0</ele><time>2026-03-24T07:55:38.652Z</time></trkpt><trkpt lat="45.4280426" lon="10.7421683"><ele>97.5</ele><time>2026-03-24T07:55:39.652Z</time></trkpt><trkpt lat="45.428009" lon="10.7424863"><ele>97.0</ele><time>2026-03-24T07:55:40.648Z</time></trkpt><trkpt lat="45.4279845" lon="10.742813"><ele>95.5</ele><time>2026-03-24T07:55:41.655Z</time></trkpt><trkpt lat="45.4279432" lon="10.7431442"><ele>94.0</ele><time>2026-03-24T07:55:42.646Z</time></trkpt><trkpt lat="45.4279065" lon="10.7434869"><ele>93.0</ele><time>2026-03-24T07:55:43.655Z</time></trkpt><trkpt lat="45.4278763" lon="10.7438239"><ele>92.0</ele><time>2026-03-24T07:55:44.65Z</time></trkpt><trkpt lat="45.4278431" lon="10.7441633"><ele>93.0</ele><time>2026-03-24T07:55:45.645Z</time></trkpt><trkpt lat="45.427815" lon="10.7445082"><ele>94.0</ele><time>2026-03-24T07:55:46.653Z</time></trkpt><trkpt lat="45.4277805" lon="10.7448439"><ele>94.0</ele><time>2026-03-24T07:55:47.653Z</time></trkpt><trkpt lat="45.4277419" lon="10.7451778"><ele>94.0</ele><time>2026-03-24T07:55:48.644Z</time></trkpt><trkpt lat="45.4277069" lon="10.745514"><ele>94.0</ele><time>2026-03-24T07:55:49.649Z</time></trkpt><trkpt lat="45.4276689" lon="10.7458413"><ele>94.0</ele><time>2026-03-24T07:55:50.642Z</time></trkpt><trkpt lat="45.4276326" lon="10.7461684"><ele>94.5</ele><time>2026-03-24T07:55:51.645Z</time></trkpt><trkpt lat="45.4276065" lon="10.7464957"><ele>95.0</ele><time>2026-03-24T07:55:52.641Z</time></trkpt><trkpt lat="45.4275781" lon="10.7468277"><ele>96.0</ele><time>2026-03-24T07:55:53.652Z</time></trkpt><trkpt lat="45.4275442" lon="10.7471644"><ele>97.0</ele><time>2026-03-24T07:55:54.646Z</time></trkpt><trkpt lat="45.4275146" lon="10.7475025"><ele>97.5</ele><time>2026-03-24T07:55:55.652Z</time></trkpt><trkpt lat="45.4274802" lon="10.7478394"><ele>98.0</ele><time>2026-03-24T07:55:56.654Z</time></trkpt><trkpt lat="45.4274421" lon="10.7481764"><ele>98.0</ele><time>2026-03-24T07:55:57.653Z</time></trkpt><trkpt lat="45.4274099" lon="10.7485134"><ele>98.0</ele><time>2026-03-24T07:55:58.65Z</time></trkpt><trkpt lat="45.4273783" lon="10.7488441"><ele>99.5</ele><time>2026-03-24T07:55:59.651Z</time></trkpt><trkpt lat="45.427342" lon="10.7491783"><ele>101.0</ele><time>2026-03-24T07:56:00.649Z</time></trkpt><trkpt lat="45.4273173" lon="10.7495146"><ele>102.0</ele><time>2026-03-24T07:56:01.651Z</time></trkpt><trkpt lat="45.4272867" lon="10.7498486"><ele>103.0</ele><time>2026-03-24T07:56:02.651Z</time></trkpt><trkpt lat="45.4272507" lon="10.7501819"><ele>104.0</ele><time>2026-03-24T07:56:03.652Z</time></trkpt><trkpt lat="45.4272064" lon="10.7505119"><ele>105.0</ele><time>2026-03-24T07:56:04.647Z</time></trkpt><trkpt lat="45.4271721" lon="10.7508552"><ele>104.5</ele><time>2026-03-24T07:56:05.651Z</time></trkpt><trkpt lat="45.4271495" lon="10.7512069"><ele>104.0</ele><time>2026-03-24T07:56:06.65Z</time></trkpt><trkpt lat="45.4271169" lon="10.7515402"><ele>104.0</ele><time>2026-03-24T07:56:07.638Z</time></trkpt><trkpt lat="45.427087" lon="10.7518692"><ele>104.0</ele><time>2026-03-24T07:56:08.656Z</time></trkpt><trkpt lat="45.4270542" lon="10.7522021"><ele>103.0</ele><time>2026-03-24T07:56:09.642Z</time></trkpt><trkpt lat="45.427016" lon="10.7525284"><ele>102.0</ele><time>2026-03-24T07:56:10.638Z</time></trkpt><trkpt lat="45.4269914" lon="10.7528872"><ele>101.5</ele><time>2026-03-24T07:56:11.646Z</time></trkpt><trkpt lat="45.4269511" lon="10.753231"><ele>101.0</ele><time>2026-03-24T07:56:12.645Z</time></trkpt><trkpt lat="45.4269205" lon="10.7535576"><ele>101.0</ele><time>2026-03-24T07:56:13.644Z</time></trkpt><trkpt lat="45.4268922" lon="10.7538906"><ele>101.0</ele><time>2026-03-24T07:56:14.654Z</time></trkpt><trkpt lat="45.426856" lon="10.7542168"><ele>100.5</ele><time>2026-03-24T07:56:15.643Z</time></trkpt><trkpt lat="45.4268224" lon="10.7545491"><ele>100.0</ele><time>2026-03-24T07:56:16.645Z</time></trkpt><trkpt lat="45.4267875" lon="10.7548884"><ele>100.5</ele><time>2026-03-24T07:56:17.658Z</time></trkpt><trkpt lat="45.4267507" lon="10.7552289"><ele>101.0</ele><time>2026-03-24T07:56:18.65Z</time></trkpt><trkpt lat="45.4266996" lon="10.7555765"><ele>101.0</ele><time>2026-03-24T07:56:19.65Z</time></trkpt><trkpt lat="45.4266591" lon="10.7559309"><ele>101.0</ele><time>2026-03-24T07:56:20.648Z</time></trkpt><trkpt lat="45.4266253" lon="10.7562839"><ele>101.0</ele><time>2026-03-24T07:56:21.648Z</time></trkpt><trkpt lat="45.4265884" lon="10.7566465"><ele>101.0</ele><time>2026-03-24T07:56:22.647Z</time></trkpt><trkpt lat="45.4265578" lon="10.756991"><ele>100.5</ele><time>2026-03-24T07:56:23.649Z</time></trkpt><trkpt lat="45.4265268" lon="10.7573359"><ele>100.0</ele><time>2026-03-24T07:56:24.641Z</time></trkpt><trkpt lat="45.4264858" lon="10.7576806"><ele>101.0</ele><time>2026-03-24T07:56:25.646Z</time></trkpt><trkpt lat="45.4264468" lon="10.7580287"><ele>102.0</ele><time>2026-03-24T07:56:26.649Z</time></trkpt><trkpt lat="45.4264188" lon="10.7583756"><ele>102.0</ele><time>2026-03-24T07:56:27.648Z</time></trkpt><trkpt lat="45.4263877" lon="10.7587202"><ele>102.0</ele><time>2026-03-24T07:56:28.652Z</time></trkpt><trkpt lat="45.4263599" lon="10.7590769"><ele>102.0</ele><time>2026-03-24T07:56:29.651Z</time></trkpt><trkpt lat="45.4263184" lon="10.7594366"><ele>102.0</ele><time>2026-03-24T07:56:30.647Z</time></trkpt><trkpt lat="45.4262843" lon="10.7597903"><ele>102.0</ele><time>2026-03-24T07:56:31.654Z</time></trkpt><trkpt lat="45.4262506" lon="10.7601585"><ele>102.0</ele><time>2026-03-24T07:56:32.653Z</time></trkpt><trkpt lat="45.4262121" lon="10.7605322"><ele>102.0</ele><time>2026-03-24T07:56:33.641Z</time></trkpt><trkpt lat="45.4261709" lon="10.7609104"><ele>102.0</ele><time>2026-03-24T07:56:34.651Z</time></trkpt><trkpt lat="45.4261379" lon="10.7612808"><ele>101.5</ele><time>2026-03-24T07:56:35.645Z</time></trkpt><trkpt lat="45.4261042" lon="10.7616496"><ele>101.0</ele><time>2026-03-24T07:56:36.646Z</time></trkpt><trkpt lat="45.4260716" lon="10.7620084"><ele>102.0</ele><time>2026-03-24T07:56:37.65Z</time></trkpt><trkpt lat="45.4260355" lon="10.7623662"><ele>103.0</ele><time>2026-03-24T07:56:38.646Z</time></trkpt><trkpt lat="45.4259918" lon="10.762732"><ele>103.0</ele><time>2026-03-24T07:56:39.643Z</time></trkpt><trkpt lat="45.4259585" lon="10.7630941"><ele>103.0</ele><time>2026-03-24T07:56:40.651Z</time></trkpt><trkpt lat="45.4259259" lon="10.7634593"><ele>102.0</ele><time>2026-03-24T07:56:41.65Z</time></trkpt><trkpt lat="45.4258914" lon="10.7638217"><ele>101.0</ele><time>2026-03-24T07:56:42.646Z</time></trkpt><trkpt lat="45.4258517" lon="10.7641869"><ele>100.0</ele><time>2026-03-24T07:56:43.653Z</time></trkpt><trkpt lat="45.4258135" lon="10.7645432"><ele>99.0</ele><time>2026-03-24T07:56:44.655Z</time></trkpt><trkpt lat="45.4257726" lon="10.7649001"><ele>98.5</ele><time>2026-03-24T07:56:45.641Z</time></trkpt><trkpt lat="45.425732" lon="10.7652636"><ele>98.0</ele><time>2026-03-24T07:56:46.652Z</time></trkpt><trkpt lat="45.4256953" lon="10.7656266"><ele>98.0</ele><time>2026-03-24T07:56:47.658Z</time></trkpt><trkpt lat="45.4256535" lon="10.7659823"><ele>98.0</ele><time>2026-03-24T07:56:48.643Z</time></trkpt><trkpt lat="45.425605" lon="10.7663449"><ele>99.0</ele><time>2026-03-24T07:56:49.653Z</time></trkpt><trkpt lat="45.4255734" lon="10.7667059"><ele>100.0</ele><time>2026-03-24T07:56:50.661Z</time></trkpt><trkpt lat="45.42554" lon="10.7670693"><ele>101.5</ele><time>2026-03-24T07:56:51.65Z</time></trkpt><trkpt lat="45.4255033" lon="10.7674283"><ele>103.0</ele><time>2026-03-24T07:56:52.661Z</time></trkpt><trkpt lat="45.4254763" lon="10.7677905"><ele>103.5</ele><time>2026-03-24T07:56:53.655Z</time></trkpt><trkpt lat="45.4254383" lon="10.768151"><ele>104.0</ele><time>2026-03-24T07:56:54.648Z</time></trkpt><trkpt lat="45.4253909" lon="10.7685113"><ele>104.0</ele><time>2026-03-24T07:56:55.655Z</time></trkpt><trkpt lat="45.4253414" lon="10.7688632"><ele>104.0</ele><time>2026-03-24T07:56:56.653Z</time></trkpt><trkpt lat="45.4252889" lon="10.7692168"><ele>103.5</ele><time>2026-03-24T07:56:57.648Z</time></trkpt><trkpt lat="45.4252337" lon="10.7695728"><ele>103.0</ele><time>2026-03-24T07:56:58.662Z</time></trkpt><trkpt lat="45.4251806" lon="10.7699334"><ele>103.0</ele><time>2026-03-24T07:56:59.652Z</time></trkpt><trkpt lat="45.4251163" lon="10.7703009"><ele>103.0</ele><time>2026-03-24T07:57:00.65Z</time></trkpt><trkpt lat="45.4250505" lon="10.7706673"><ele>103.0</ele><time>2026-03-24T07:57:01.669Z</time></trkpt><trkpt lat="45.4249837" lon="10.7710224"><ele>103.0</ele><time>2026-03-24T07:57:02.66Z</time></trkpt><trkpt lat="45.4249133" lon="10.7713767"><ele>103.5</ele><time>2026-03-24T07:57:03.65Z</time></trkpt><trkpt lat="45.4248396" lon="10.771731"><ele>104.0</ele><time>2026-03-24T07:57:04.661Z</time></trkpt><trkpt lat="45.4247691" lon="10.7720806"><ele>104.0</ele><time>2026-03-24T07:57:05.66Z</time></trkpt><trkpt lat="45.4246894" lon="10.7724239"><ele>104.0</ele><time>2026-03-24T07:57:06.654Z</time></trkpt><trkpt lat="45.4246014" lon="10.7727678"><ele>103.0</ele><time>2026-03-24T07:57:07.662Z</time></trkpt><trkpt lat="45.4245093" lon="10.7731008"><ele>102.0</ele><time>2026-03-24T07:57:08.658Z</time></trkpt><trkpt lat="45.4244075" lon="10.77343"><ele>104.0</ele><time>2026-03-24T07:57:09.652Z</time></trkpt><trkpt lat="45.4243198" lon="10.7737645"><ele>106.0</ele><time>2026-03-24T07:57:10.659Z</time></trkpt><trkpt lat="45.4242191" lon="10.7741004"><ele>107.0</ele><time>2026-03-24T07:57:11.664Z</time></trkpt><trkpt lat="45.4241152" lon="10.7744282"><ele>108.0</ele><time>2026-03-24T07:57:12.65Z</time></trkpt><trkpt lat="45.4240054" lon="10.7747564"><ele>108.0</ele><time>2026-03-24T07:57:13.648Z</time></trkpt><trkpt lat="45.4238841" lon="10.7750883"><ele>108.0</ele><time>2026-03-24T07:57:14.648Z</time></trkpt><trkpt lat="45.4237597" lon="10.7754133"><ele>112.0</ele><time>2026-03-24T07:57:15.638Z</time></trkpt><trkpt lat="45.4236377" lon="10.7757314"><ele>116.0</ele><time>2026-03-24T07:57:16.661Z</time></trkpt><trkpt lat="45.4235179" lon="10.7760376"><ele>117.0</ele><time>2026-03-24T07:57:17.656Z</time></trkpt><trkpt lat="45.4233929" lon="10.7763441"><ele>118.0</ele><time>2026-03-24T07:57:18.639Z</time></trkpt><trkpt lat="45.4232716" lon="10.7766491"><ele>119.5</ele><time>2026-03-24T07:57:19.655Z</time></trkpt><trkpt lat="45.4231622" lon="10.7769395"><ele>121.0</ele><time>2026-03-24T07:57:20.643Z</time></trkpt><trkpt lat="45.4230458" lon="10.7772351"><ele>121.0</ele><time>2026-03-24T07:57:21.647Z</time></trkpt><trkpt lat="45.422923" lon="10.7775295"><ele>121.0</ele><time>2026-03-24T07:57:22.649Z</time></trkpt><trkpt lat="45.4228117" lon="10.7778185"><ele>123.0</ele><time>2026-03-24T07:57:23.656Z</time></trkpt><trkpt lat="45.4226981" lon="10.7781147"><ele>125.0</ele><time>2026-03-24T07:57:24.646Z</time></trkpt><trkpt lat="45.4225792" lon="10.7784149"><ele>126.0</ele><time>2026-03-24T07:57:25.643Z</time></trkpt><trkpt lat="45.4224633" lon="10.7787273"><ele>127.0</ele><time>2026-03-24T07:57:26.652Z</time></trkpt><trkpt lat="45.4223543" lon="10.7790447"><ele>127.5</ele><time>2026-03-24T07:57:27.643Z</time></trkpt><trkpt lat="45.4222404" lon="10.7793605"><ele>128.0</ele><time>2026-03-24T07:57:28.66Z</time></trkpt><trkpt lat="45.4221211" lon="10.7796695"><ele>126.5</ele><time>2026-03-24T07:57:29.651Z</time></trkpt><trkpt lat="45.4219945" lon="10.7799763"><ele>125.0</ele><time>2026-03-24T07:57:30.647Z</time></trkpt><trkpt lat="45.421866" lon="10.7802886"><ele>125.0</ele><time>2026-03-24T07:57:31.654Z</time></trkpt><trkpt lat="45.4217391" lon="10.7806051"><ele>125.0</ele><time>2026-03-24T07:57:32.664Z</time></trkpt><trkpt lat="45.4216168" lon="10.7809168"><ele>124.5</ele><time>2026-03-24T07:57:33.653Z</time></trkpt><trkpt lat="45.4215017" lon="10.7812319"><ele>124.0</ele><time>2026-03-24T07:57:34.663Z</time></trkpt><trkpt lat="45.4213878" lon="10.7815389"><ele>123.0</ele><time>2026-03-24T07:57:35.652Z</time></trkpt><trkpt lat="45.4212653" lon="10.7818617"><ele>122.0</ele><time>2026-03-24T07:57:36.641Z</time></trkpt><trkpt lat="45.4211394" lon="10.7821915"><ele>122.0</ele><time>2026-03-24T07:57:37.651Z</time></trkpt><trkpt lat="45.4210149" lon="10.7825171"><ele>122.0</ele><time>2026-03-24T07:57:38.648Z</time></trkpt><trkpt lat="45.4208912" lon="10.7828476"><ele>123.5</ele><time>2026-03-24T07:57:39.648Z</time></trkpt><trkpt lat="45.4207712" lon="10.7831823"><ele>125.0</ele><time>2026-03-24T07:57:40.648Z</time></trkpt><trkpt lat="45.4206606" lon="10.783512"><ele>125.0</ele><time>2026-03-24T07:57:41.641Z</time></trkpt><trkpt lat="45.4205565" lon="10.7838416"><ele>125.0</ele><time>2026-03-24T07:57:42.656Z</time></trkpt><trkpt lat="45.4204559" lon="10.7841625"><ele>124.5</ele><time>2026-03-24T07:57:43.646Z</time></trkpt><trkpt lat="45.4203467" lon="10.784495"><ele>124.0</ele><time>2026-03-24T07:57:44.649Z</time></trkpt><trkpt lat="45.4202437" lon="10.7848276"><ele>124.0</ele><time>2026-03-24T07:57:45.648Z</time></trkpt><trkpt lat="45.4201304" lon="10.78516"><ele>124.0</ele><time>2026-03-24T07:57:46.644Z</time></trkpt><trkpt lat="45.4200287" lon="10.785487"><ele>124.5</ele><time>2026-03-24T07:57:47.649Z</time></trkpt><trkpt lat="45.4199335" lon="10.7857935"><ele>125.0</ele><time>2026-03-24T07:57:48.638Z</time></trkpt><trkpt lat="45.4198353" lon="10.7861014"><ele>126.0</ele><time>2026-03-24T07:57:49.66Z</time></trkpt><trkpt lat="45.4197469" lon="10.7864014"><ele>127.0</ele><time>2026-03-24T07:57:50.647Z</time></trkpt><trkpt lat="45.4196591" lon="10.7867181"><ele>125.0</ele><time>2026-03-24T07:57:51.651Z</time></trkpt><trkpt lat="45.4195725" lon="10.7870277"><ele>123.0</ele><time>2026-03-24T07:57:52.661Z</time></trkpt><trkpt lat="45.4194729" lon="10.7873493"><ele>123.0</ele><time>2026-03-24T07:57:53.649Z</time></trkpt><trkpt lat="45.4193813" lon="10.7876751"><ele>123.0</ele><time>2026-03-24T07:57:54.654Z</time></trkpt><trkpt lat="45.4192981" lon="10.7880025"><ele>123.0</ele><time>2026-03-24T07:57:55.652Z</time></trkpt><trkpt lat="45.4192139" lon="10.7883473"><ele>123.0</ele><time>2026-03-24T07:57:56.656Z</time></trkpt><trkpt lat="45.4191319" lon="10.7886847"><ele>123.0</ele><time>2026-03-24T07:57:57.652Z</time></trkpt><trkpt lat="45.4190471" lon="10.7890256"><ele>123.0</ele><time>2026-03-24T07:57:58.651Z</time></trkpt><trkpt lat="45.4189656" lon="10.7893787"><ele>125.0</ele><time>2026-03-24T07:57:59.647Z</time></trkpt><trkpt lat="45.4188845" lon="10.7897342"><ele>127.0</ele><time>2026-03-24T07:58:00.651Z</time></trkpt><trkpt lat="45.4187907" lon="10.79009"><ele>127.0</ele><time>2026-03-24T07:58:01.646Z</time></trkpt><trkpt lat="45.4187128" lon="10.7904604"><ele>127.0</ele><time>2026-03-24T07:58:02.655Z</time></trkpt><trkpt lat="45.4186386" lon="10.7908349"><ele>126.5</ele><time>2026-03-24T07:58:03.655Z</time></trkpt><trkpt lat="45.4185625" lon="10.7912015"><ele>126.0</ele><time>2026-03-24T07:58:04.65Z</time></trkpt><trkpt lat="45.4184841" lon="10.7915904"><ele>125.5</ele><time>2026-03-24T07:58:05.649Z</time></trkpt><trkpt lat="45.418407" lon="10.7919836"><ele>125.0</ele><time>2026-03-24T07:58:06.652Z</time></trkpt><trkpt lat="45.4183373" lon="10.7923764"><ele>125.0</ele><time>2026-03-24T07:58:07.651Z</time></trkpt><trkpt lat="45.4182728" lon="10.7927654"><ele>125.0</ele><time>2026-03-24T07:58:08.648Z</time></trkpt><trkpt lat="45.4181995" lon="10.7931438"><ele>123.0</ele><time>2026-03-24T07:58:09.651Z</time></trkpt><trkpt lat="45.4181331" lon="10.793522"><ele>121.0</ele><time>2026-03-24T07:58:10.654Z</time></trkpt><trkpt lat="45.4180669" lon="10.7938942"><ele>121.0</ele><time>2026-03-24T07:58:11.659Z</time></trkpt><trkpt lat="45.417998" lon="10.7942749"><ele>121.0</ele><time>2026-03-24T07:58:12.648Z</time></trkpt><trkpt lat="45.4179361" lon="10.7946417"><ele>119.5</ele><time>2026-03-24T07:58:13.641Z</time></trkpt><trkpt lat="45.4178856" lon="10.7950199"><ele>118.0</ele><time>2026-03-24T07:58:14.65Z</time></trkpt><trkpt lat="45.4178341" lon="10.7953981"><ele>118.0</ele><time>2026-03-24T07:58:15.653Z</time></trkpt><trkpt lat="45.4177701" lon="10.7957721"><ele>118.0</ele><time>2026-03-24T07:58:16.643Z</time></trkpt><trkpt lat="45.417714" lon="10.7961484"><ele>118.0</ele><time>2026-03-24T07:58:17.651Z</time></trkpt><trkpt lat="45.4176707" lon="10.7965196"><ele>118.0</ele><time>2026-03-24T07:58:18.649Z</time></trkpt><trkpt lat="45.4176176" lon="10.7968891"><ele>118.0</ele><time>2026-03-24T07:58:19.64Z</time></trkpt><trkpt lat="45.417568" lon="10.7972456"><ele>118.0</ele><time>2026-03-24T07:58:20.656Z</time></trkpt><trkpt lat="45.4175301" lon="10.7975904"><ele>118.5</ele><time>2026-03-24T07:58:21.645Z</time></trkpt><trkpt lat="45.4174909" lon="10.7979297"><ele>119.0</ele><time>2026-03-24T07:58:22.641Z</time></trkpt><trkpt lat="45.4174491" lon="10.798267"><ele>120.0</ele><time>2026-03-24T07:58:23.661Z</time></trkpt><trkpt lat="45.4174187" lon="10.7986016"><ele>121.0</ele><time>2026-03-24T07:58:24.648Z</time></trkpt><trkpt lat="45.417386" lon="10.7989381"><ele>121.0</ele><time>2026-03-24T07:58:25.644Z</time></trkpt><trkpt lat="45.4173455" lon="10.7992856"><ele>121.0</ele><time>2026-03-24T07:58:26.651Z</time></trkpt><trkpt lat="45.4173028" lon="10.7996434"><ele>119.5</ele><time>2026-03-24T07:58:27.652Z</time></trkpt><trkpt lat="45.4172586" lon="10.8000085"><ele>118.0</ele><time>2026-03-24T07:58:28.661Z</time></trkpt><trkpt lat="45.4172216" lon="10.8003652"><ele>116.5</ele><time>2026-03-24T07:58:29.66Z</time></trkpt><trkpt lat="45.4171954" lon="10.8007182"><ele>115.0</ele><time>2026-03-24T07:58:30.656Z</time></trkpt><trkpt lat="45.4171637" lon="10.8010759"><ele>114.5</ele><time>2026-03-24T07:58:31.646Z</time></trkpt><trkpt lat="45.4171323" lon="10.8014306"><ele>114.0</ele><time>2026-03-24T07:58:32.654Z</time></trkpt><trkpt lat="45.4170947" lon="10.8017924"><ele>114.5</ele><time>2026-03-24T07:58:33.648Z</time></trkpt><trkpt lat="45.417056" lon="10.802159"><ele>115.0</ele><time>2026-03-24T07:58:34.647Z</time></trkpt><trkpt lat="45.417008" lon="10.8025265"><ele>114.5</ele><time>2026-03-24T07:58:35.654Z</time></trkpt><trkpt lat="45.4169732" lon="10.8028872"><ele>114.0</ele><time>2026-03-24T07:58:36.647Z</time></trkpt><trkpt lat="45.4169373" lon="10.8032511"><ele>113.5</ele><time>2026-03-24T07:58:37.646Z</time></trkpt><trkpt lat="45.4168943" lon="10.8036116"><ele>113.0</ele><time>2026-03-24T07:58:38.652Z</time></trkpt><trkpt lat="45.4168586" lon="10.8039589"><ele>113.0</ele><time>2026-03-24T07:58:39.648Z</time></trkpt><trkpt lat="45.4168198" lon="10.8043033"><ele>113.0</ele><time>2026-03-24T07:58:40.644Z</time></trkpt><trkpt lat="45.4167802" lon="10.8046513"><ele>113.0</ele><time>2026-03-24T07:58:41.647Z</time></trkpt><trkpt lat="45.4167436" lon="10.8049933"><ele>113.0</ele><time>2026-03-24T07:58:42.647Z</time></trkpt><trkpt lat="45.4167016" lon="10.8053316"><ele>114.0</ele><time>2026-03-24T07:58:43.655Z</time></trkpt><trkpt lat="45.4166676" lon="10.8056605"><ele>115.0</ele><time>2026-03-24T07:58:44.646Z</time></trkpt><trkpt lat="45.4166376" lon="10.8059767"><ele>115.0</ele><time>2026-03-24T07:58:45.647Z</time></trkpt><trkpt lat="45.4166118" lon="10.8062866"><ele>115.0</ele><time>2026-03-24T07:58:46.651Z</time></trkpt><trkpt lat="45.4165773" lon="10.8065975"><ele>115.0</ele><time>2026-03-24T07:58:47.652Z</time></trkpt><trkpt lat="45.4165381" lon="10.8069209"><ele>115.0</ele><time>2026-03-24T07:58:48.655Z</time></trkpt><trkpt lat="45.4164983" lon="10.8072474"><ele>115.0</ele><time>2026-03-24T07:58:49.647Z</time></trkpt><trkpt lat="45.416467" lon="10.8075708"><ele>115.0</ele><time>2026-03-24T07:58:50.653Z</time></trkpt><trkpt lat="45.4164404" lon="10.8078892"><ele>115.0</ele><time>2026-03-24T07:58:51.652Z</time></trkpt><trkpt lat="45.4164005" lon="10.8082085"><ele>115.33333333333334</ele><time>2026-03-24T07:58:52.641Z</time></trkpt><trkpt lat="45.4163698" lon="10.8085254"><ele>115.66666666666666</ele><time>2026-03-24T07:58:53.661Z</time></trkpt><trkpt lat="45.416338" lon="10.8088348"><ele>116.0</ele><time>2026-03-24T07:58:54.657Z</time></trkpt><trkpt lat="45.4162999" lon="10.809154"><ele>119.0</ele><time>2026-03-24T07:58:55.652Z</time></trkpt><trkpt lat="45.4162705" lon="10.8094656"><ele>122.0</ele><time>2026-03-24T07:58:56.648Z</time></trkpt><trkpt lat="45.4162394" lon="10.8097824"><ele>125.0</ele><time>2026-03-24T07:58:57.648Z</time></trkpt><trkpt lat="45.4162192" lon="10.810095"><ele>125.33333333333333</ele><time>2026-03-24T07:58:58.659Z</time></trkpt><trkpt lat="45.4162001" lon="10.8104102"><ele>125.66666666666666</ele><time>2026-03-24T07:58:59.637Z</time></trkpt><trkpt lat="45.4161848" lon="10.8107273"><ele>126.0</ele><time>2026-03-24T07:59:00.644Z</time></trkpt><trkpt lat="45.416179" lon="10.8110389"><ele>124.66666666666666</ele><time>2026-03-24T07:59:01.648Z</time></trkpt><trkpt lat="45.4161631" lon="10.8113447"><ele>123.33333333333333</ele><time>2026-03-24T07:59:02.633Z</time></trkpt><trkpt lat="45.4161598" lon="10.8116559"><ele>122.0</ele><time>2026-03-24T07:59:03.651Z</time></trkpt><trkpt lat="45.4161648" lon="10.8119689"><ele>121.33333333333333</ele><time>2026-03-24T07:59:04.653Z</time></trkpt><trkpt lat="45.4161624" lon="10.8122775"><ele>120.66666666666666</ele><time>2026-03-24T07:59:05.652Z</time></trkpt><trkpt lat="45.4161723" lon="10.8125892"><ele>120.0</ele><time>2026-03-24T07:59:06.652Z</time></trkpt><trkpt lat="45.4161792" lon="10.8129047"><ele>120.0</ele><time>2026-03-24T07:59:07.659Z</time></trkpt><trkpt lat="45.4161923" lon="10.8132076"><ele>120.0</ele><time>2026-03-24T07:59:08.653Z</time></trkpt><trkpt lat="45.4162106" lon="10.8135258"><ele>120.0</ele><time>2026-03-24T07:59:09.652Z</time></trkpt><trkpt lat="45.4162191" lon="10.8138405"><ele>120.0</ele><time>2026-03-24T07:59:10.649Z</time></trkpt><trkpt lat="45.4162345" lon="10.814156"><ele>120.0</ele><time>2026-03-24T07:59:11.662Z</time></trkpt><trkpt lat="45.4162615" lon="10.8144731"><ele>120.0</ele><time>2026-03-24T07:59:12.657Z</time></trkpt><trkpt lat="45.4162858" lon="10.8148044"><ele>120.0</ele><time>2026-03-24T07:59:13.658Z</time></trkpt><trkpt lat="45.4163079" lon="10.8151434"><ele>120.0</ele><time>2026-03-24T07:59:14.655Z</time></trkpt><trkpt lat="45.4163463" lon="10.8154724"><ele>119.5</ele><time>2026-03-24T07:59:15.658Z</time></trkpt><trkpt lat="45.4163749" lon="10.8157971"><ele>119.0</ele><time>2026-03-24T07:59:16.645Z</time></trkpt><trkpt lat="45.4164022" lon="10.8161239"><ele>120.0</ele><time>2026-03-24T07:59:17.658Z</time></trkpt><trkpt lat="45.4164332" lon="10.816461"><ele>121.0</ele><time>2026-03-24T07:59:18.661Z</time></trkpt><trkpt lat="45.4164557" lon="10.8167982"><ele>119.0</ele><time>2026-03-24T07:59:19.65Z</time></trkpt><trkpt lat="45.4164778" lon="10.8171343"><ele>117.0</ele><time>2026-03-24T07:59:20.653Z</time></trkpt><trkpt lat="45.4164974" lon="10.8174602"><ele>115.5</ele><time>2026-03-24T07:59:21.661Z</time></trkpt><trkpt lat="45.4165188" lon="10.81779"><ele>114.0</ele><time>2026-03-24T07:59:22.661Z</time></trkpt><trkpt lat="45.4165391" lon="10.8181228"><ele>114.0</ele><time>2026-03-24T07:59:23.657Z</time></trkpt><trkpt lat="45.4165602" lon="10.8184568"><ele>114.0</ele><time>2026-03-24T07:59:24.651Z</time></trkpt><trkpt lat="45.4165846" lon="10.8187972"><ele>113.0</ele><time>2026-03-24T07:59:25.654Z</time></trkpt><trkpt lat="45.4166144" lon="10.8191418"><ele>112.0</ele><time>2026-03-24T07:59:26.651Z</time></trkpt><trkpt lat="45.4166448" lon="10.8194874"><ele>111.5</ele><time>2026-03-24T07:59:27.652Z</time></trkpt><trkpt lat="45.4166648" lon="10.8198301"><ele>111.0</ele><time>2026-03-24T07:59:28.653Z</time></trkpt><trkpt lat="45.4166984" lon="10.8201739"><ele>110.0</ele><time>2026-03-24T07:59:29.659Z</time></trkpt><trkpt lat="45.4167242" lon="10.820527"><ele>109.0</ele><time>2026-03-24T07:59:30.654Z</time></trkpt><trkpt lat="45.4167534" lon="10.8208882"><ele>108.5</ele><time>2026-03-24T07:59:31.645Z</time></trkpt><trkpt lat="45.4167826" lon="10.821248"><ele>108.0</ele><time>2026-03-24T07:59:32.66Z</time></trkpt><trkpt lat="45.4168118" lon="10.8216024"><ele>107.0</ele><time>2026-03-24T07:59:33.655Z</time></trkpt><trkpt lat="45.4168401" lon="10.8219538"><ele>106.0</ele><time>2026-03-24T07:59:34.651Z</time></trkpt><trkpt lat="45.4168618" lon="10.8223055"><ele>106.0</ele><time>2026-03-24T07:59:35.649Z</time></trkpt><trkpt lat="45.416894" lon="10.8226555"><ele>106.0</ele><time>2026-03-24T07:59:36.655Z</time></trkpt><trkpt lat="45.416924" lon="10.8230089"><ele>106.0</ele><time>2026-03-24T07:59:37.652Z</time></trkpt><trkpt lat="45.4169489" lon="10.8233611"><ele>106.0</ele><time>2026-03-24T07:59:38.651Z</time></trkpt><trkpt lat="45.4169741" lon="10.8237165"><ele>107.0</ele><time>2026-03-24T07:59:39.656Z</time></trkpt><trkpt lat="45.4169884" lon="10.8240693"><ele>108.0</ele><time>2026-03-24T07:59:40.665Z</time></trkpt><trkpt lat="45.4170139" lon="10.8244288"><ele>108.5</ele><time>2026-03-24T07:59:41.658Z</time></trkpt><trkpt lat="45.4170345" lon="10.8247835"><ele>109.0</ele><time>2026-03-24T07:59:42.657Z</time></trkpt><trkpt lat="45.4170573" lon="10.8251455"><ele>107.5</ele><time>2026-03-24T07:59:43.652Z</time></trkpt><trkpt lat="45.4170934" lon="10.8255109"><ele>106.0</ele><time>2026-03-24T07:59:44.639Z</time></trkpt><trkpt lat="45.4171298" lon="10.8258851"><ele>105.5</ele><time>2026-03-24T07:59:45.649Z</time></trkpt><trkpt lat="45.4171524" lon="10.8262558"><ele>105.0</ele><time>2026-03-24T07:59:46.651Z</time></trkpt><trkpt lat="45.4171716" lon="10.8266249"><ele>106.0</ele><time>2026-03-24T07:59:47.659Z</time></trkpt><trkpt lat="45.4172057" lon="10.8269978"><ele>107.0</ele><time>2026-03-24T07:59:48.652Z</time></trkpt><trkpt lat="45.4172362" lon="10.8273511"><ele>106.0</ele><time>2026-03-24T07:59:49.659Z</time></trkpt><trkpt lat="45.4172576" lon="10.8277007"><ele>105.0</ele><time>2026-03-24T07:59:50.659Z</time></trkpt><trkpt lat="45.4172688" lon="10.8280373"><ele>105.0</ele><time>2026-03-24T07:59:51.651Z</time></trkpt><trkpt lat="45.4172895" lon="10.8283783"><ele>105.0</ele><time>2026-03-24T07:59:52.657Z</time></trkpt><trkpt lat="45.4173255" lon="10.8287173"><ele>104.5</ele><time>2026-03-24T07:59:53.653Z</time></trkpt><trkpt lat="45.4173598" lon="10.8290622"><ele>104.0</ele><time>2026-03-24T07:59:54.659Z</time></trkpt><trkpt lat="45.4173905" lon="10.829399"><ele>104.0</ele><time>2026-03-24T07:59:55.655Z</time></trkpt><trkpt lat="45.4174135" lon="10.8297429"><ele>104.0</ele><time>2026-03-24T07:59:56.664Z</time></trkpt><trkpt lat="45.417441" lon="10.8300963"><ele>104.5</ele><time>2026-03-24T07:59:57.645Z</time></trkpt><trkpt lat="45.4174694" lon="10.8304492"><ele>105.0</ele><time>2026-03-24T07:59:58.66Z</time></trkpt><trkpt lat="45.4175001" lon="10.8307897"><ele>105.0</ele><time>2026-03-24T07:59:59.654Z</time></trkpt><trkpt lat="45.4175167" lon="10.831126"><ele>105.0</ele><time>2026-03-24T08:00:00.647Z</time></trkpt><trkpt lat="45.4175377" lon="10.8314525"><ele>105.0</ele><time>2026-03-24T08:00:01.663Z</time></trkpt><trkpt lat="45.4175659" lon="10.831783"><ele>105.0</ele><time>2026-03-24T08:00:02.656Z</time></trkpt><trkpt lat="45.4175899" lon="10.8321141"><ele>106.5</ele><time>2026-03-24T08:00:03.655Z</time></trkpt><trkpt lat="45.417611" lon="10.8324484"><ele>108.0</ele><time>2026-03-24T08:00:04.649Z</time></trkpt><trkpt lat="45.4176311" lon="10.8327907"><ele>109.5</ele><time>2026-03-24T08:00:05.652Z</time></trkpt><trkpt lat="45.4176582" lon="10.8331328"><ele>111.0</ele><time>2026-03-24T08:00:06.652Z</time></trkpt><trkpt lat="45.4176884" lon="10.8334868"><ele>111.0</ele><time>2026-03-24T08:00:07.645Z</time></trkpt><trkpt lat="45.417718" lon="10.8338395"><ele>111.0</ele><time>2026-03-24T08:00:08.655Z</time></trkpt><trkpt lat="45.4177453" lon="10.8341921"><ele>112.0</ele><time>2026-03-24T08:00:09.675Z</time></trkpt><trkpt lat="45.4177649" lon="10.8345223"><ele>113.0</ele><time>2026-03-24T08:00:10.652Z</time></trkpt><trkpt lat="45.4177831" lon="10.8348641"><ele>113.0</ele><time>2026-03-24T08:00:11.649Z</time></trkpt><trkpt lat="45.4178102" lon="10.835205"><ele>113.0</ele><time>2026-03-24T08:00:12.656Z</time></trkpt><trkpt lat="45.4178312" lon="10.8355387"><ele>113.0</ele><time>2026-03-24T08:00:13.653Z</time></trkpt><trkpt lat="45.4178472" lon="10.8358833"><ele>113.0</ele><time>2026-03-24T08:00:14.651Z</time></trkpt><trkpt lat="45.4178653" lon="10.836233"><ele>114.0</ele><time>2026-03-24T08:00:15.652Z</time></trkpt><trkpt lat="45.4178791" lon="10.8365843"><ele>115.0</ele><time>2026-03-24T08:00:16.66Z</time></trkpt><trkpt lat="45.417884" lon="10.8369267"><ele>115.0</ele><time>2026-03-24T08:00:17.66Z</time></trkpt><trkpt lat="45.4178794" lon="10.8372707"><ele>115.0</ele><time>2026-03-24T08:00:18.644Z</time></trkpt><trkpt lat="45.4178871" lon="10.8376283"><ele>114.5</ele><time>2026-03-24T08:00:19.659Z</time></trkpt><trkpt lat="45.417897" lon="10.8379757"><ele>114.0</ele><time>2026-03-24T08:00:20.659Z</time></trkpt><trkpt lat="45.4178983" lon="10.8383358"><ele>115.0</ele><time>2026-03-24T08:00:21.653Z</time></trkpt><trkpt lat="45.4178977" lon="10.8386916"><ele>116.0</ele><time>2026-03-24T08:00:22.651Z</time></trkpt><trkpt lat="45.4178888" lon="10.8390587"><ele>115.5</ele><time>2026-03-24T08:00:23.655Z</time></trkpt><trkpt lat="45.4178801" lon="10.8394207"><ele>115.0</ele><time>2026-03-24T08:00:24.652Z</time></trkpt><trkpt lat="45.4178763" lon="10.8397972"><ele>115.5</ele><time>2026-03-24T08:00:25.642Z</time></trkpt><trkpt lat="45.417867" lon="10.8401746"><ele>116.0</ele><time>2026-03-24T08:00:26.66Z</time></trkpt><trkpt lat="45.4178482" lon="10.8405354"><ele>116.0</ele><time>2026-03-24T08:00:27.645Z</time></trkpt><trkpt lat="45.4178364" lon="10.8409157"><ele>116.0</ele><time>2026-03-24T08:00:28.645Z</time></trkpt><trkpt lat="45.4178204" lon="10.8412981"><ele>116.0</ele><time>2026-03-24T08:00:29.661Z</time></trkpt><trkpt lat="45.4178009" lon="10.8416814"><ele>116.0</ele><time>2026-03-24T08:00:30.658Z</time></trkpt><trkpt lat="45.4177761" lon="10.8420718"><ele>115.5</ele><time>2026-03-24T08:00:31.654Z</time></trkpt><trkpt lat="45.4177484" lon="10.8424618"><ele>115.0</ele><time>2026-03-24T08:00:32.657Z</time></trkpt><trkpt lat="45.4177227" lon="10.8428522"><ele>113.0</ele><time>2026-03-24T08:00:33.658Z</time></trkpt><trkpt lat="45.4176952" lon="10.8432331"><ele>111.0</ele><time>2026-03-24T08:00:34.655Z</time></trkpt><trkpt lat="45.4176633" lon="10.8436244"><ele>109.5</ele><time>2026-03-24T08:00:35.661Z</time></trkpt><trkpt lat="45.4176214" lon="10.8440207"><ele>108.0</ele><time>2026-03-24T08:00:36.661Z</time></trkpt><trkpt lat="45.4175838" lon="10.8444046"><ele>108.0</ele><time>2026-03-24T08:00:37.646Z</time></trkpt><trkpt lat="45.41754" lon="10.844793"><ele>108.0</ele><time>2026-03-24T08:00:38.65Z</time></trkpt><trkpt lat="45.4174909" lon="10.8451761"><ele>106.0</ele><time>2026-03-24T08:00:39.659Z</time></trkpt><trkpt lat="45.4174434" lon="10.8455523"><ele>104.0</ele><time>2026-03-24T08:00:40.648Z</time></trkpt><trkpt lat="45.4173851" lon="10.8459287"><ele>103.0</ele><time>2026-03-24T08:00:41.656Z</time></trkpt><trkpt lat="45.4173186" lon="10.8463051"><ele>102.0</ele><time>2026-03-24T08:00:42.655Z</time></trkpt><trkpt lat="45.4172514" lon="10.8466715"><ele>101.5</ele><time>2026-03-24T08:00:43.646Z</time></trkpt><trkpt lat="45.4171787" lon="10.8470331"><ele>101.0</ele><time>2026-03-24T08:00:44.654Z</time></trkpt><trkpt lat="45.417103" lon="10.847387"><ele>99.0</ele><time>2026-03-24T08:00:45.649Z</time></trkpt><trkpt lat="45.4170409" lon="10.8477459"><ele>97.0</ele><time>2026-03-24T08:00:46.658Z</time></trkpt><trkpt lat="45.4169895" lon="10.8481042"><ele>97.0</ele><time>2026-03-24T08:00:47.658Z</time></trkpt><trkpt lat="45.4169303" lon="10.8484584"><ele>97.0</ele><time>2026-03-24T08:00:48.654Z</time></trkpt><trkpt lat="45.4168639" lon="10.8488033"><ele>96.5</ele><time>2026-03-24T08:00:49.667Z</time></trkpt><trkpt lat="45.416801" lon="10.8491385"><ele>96.0</ele><time>2026-03-24T08:00:50.661Z</time></trkpt><trkpt lat="45.4167389" lon="10.8494707"><ele>95.5</ele><time>2026-03-24T08:00:51.657Z</time></trkpt><trkpt lat="45.4166811" lon="10.8497937"><ele>95.0</ele><time>2026-03-24T08:00:52.661Z</time></trkpt><trkpt lat="45.4166284" lon="10.8501127"><ele>94.5</ele><time>2026-03-24T08:00:53.662Z</time></trkpt><trkpt lat="45.416582" lon="10.8504516"><ele>94.0</ele><time>2026-03-24T08:00:54.664Z</time></trkpt><trkpt lat="45.4165298" lon="10.8507817"><ele>93.0</ele><time>2026-03-24T08:00:55.656Z</time></trkpt><trkpt lat="45.4164706" lon="10.8511196"><ele>92.0</ele><time>2026-03-24T08:00:56.652Z</time></trkpt><trkpt lat="45.4164053" lon="10.8514666"><ele>92.0</ele><time>2026-03-24T08:00:57.656Z</time></trkpt><trkpt lat="45.4163411" lon="10.8517916"><ele>92.0</ele><time>2026-03-24T08:00:58.631Z</time></trkpt><trkpt lat="45.4162788" lon="10.8521283"><ele>91.5</ele><time>2026-03-24T08:00:59.653Z</time></trkpt><trkpt lat="45.4162207" lon="10.8524701"><ele>91.0</ele><time>2026-03-24T08:01:00.66Z</time></trkpt><trkpt lat="45.4161784" lon="10.852823"><ele>90.5</ele><time>2026-03-24T08:01:01.655Z</time></trkpt><trkpt lat="45.4161388" lon="10.8531841"><ele>90.0</ele><time>2026-03-24T08:01:02.657Z</time></trkpt><trkpt lat="45.4160873" lon="10.8535455"><ele>89.5</ele><time>2026-03-24T08:01:03.643Z</time></trkpt><trkpt lat="45.416032" lon="10.8539033"><ele>89.0</ele><time>2026-03-24T08:01:04.644Z</time></trkpt><trkpt lat="45.4159725" lon="10.8542614"><ele>89.0</ele><time>2026-03-24T08:01:05.654Z</time></trkpt><trkpt lat="45.4159123" lon="10.8546177"><ele>89.0</ele><time>2026-03-24T08:01:06.652Z</time></trkpt><trkpt lat="45.4158456" lon="10.8549644"><ele>89.5</ele><time>2026-03-24T08:01:07.656Z</time></trkpt><trkpt lat="45.4157761" lon="10.8553169"><ele>90.0</ele><time>2026-03-24T08:01:08.659Z</time></trkpt><trkpt lat="45.4157086" lon="10.8556794"><ele>89.0</ele><time>2026-03-24T08:01:09.649Z</time></trkpt><trkpt lat="45.415638" lon="10.8560439"><ele>88.0</ele><time>2026-03-24T08:01:10.655Z</time></trkpt><trkpt lat="45.4155643" lon="10.8563998"><ele>88.0</ele><time>2026-03-24T08:01:11.654Z</time></trkpt><trkpt lat="45.4155031" lon="10.8567582"><ele>88.0</ele><time>2026-03-24T08:01:12.648Z</time></trkpt><trkpt lat="45.4154427" lon="10.8571126"><ele>88.0</ele><time>2026-03-24T08:01:13.656Z</time></trkpt><trkpt lat="45.415386" lon="10.8574636"><ele>88.0</ele><time>2026-03-24T08:01:14.656Z</time></trkpt><trkpt lat="45.4153312" lon="10.8577953"><ele>87.5</ele><time>2026-03-24T08:01:15.651Z</time></trkpt><trkpt lat="45.4152896" lon="10.8581368"><ele>87.0</ele><time>2026-03-24T08:01:16.654Z</time></trkpt><trkpt lat="45.4152405" lon="10.8584936"><ele>86.5</ele><time>2026-03-24T08:01:17.661Z</time></trkpt><trkpt lat="45.415194" lon="10.8588597"><ele>86.0</ele><time>2026-03-24T08:01:18.654Z</time></trkpt><trkpt lat="45.4151658" lon="10.8592133"><ele>86.0</ele><time>2026-03-24T08:01:19.65Z</time></trkpt><trkpt lat="45.4151239" lon="10.8595579"><ele>86.0</ele><time>2026-03-24T08:01:20.655Z</time></trkpt><trkpt lat="45.4150798" lon="10.8599061"><ele>85.0</ele><time>2026-03-24T08:01:21.655Z</time></trkpt><trkpt lat="45.4150372" lon="10.8602449"><ele>84.0</ele><time>2026-03-24T08:01:22.66Z</time></trkpt><trkpt lat="45.4150042" lon="10.8605785"><ele>84.0</ele><time>2026-03-24T08:01:23.658Z</time></trkpt><trkpt lat="45.4149748" lon="10.8609156"><ele>84.0</ele><time>2026-03-24T08:01:24.65Z</time></trkpt><trkpt lat="45.4149474" lon="10.8612691"><ele>83.5</ele><time>2026-03-24T08:01:25.657Z</time></trkpt><trkpt lat="45.4149261" lon="10.8616311"><ele>83.0</ele><time>2026-03-24T08:01:26.65Z</time></trkpt><trkpt lat="45.4149054" lon="10.8620036"><ele>83.0</ele><time>2026-03-24T08:01:27.655Z</time></trkpt><trkpt lat="45.4148804" lon="10.8623765"><ele>83.0</ele><time>2026-03-24T08:01:28.65Z</time></trkpt><trkpt lat="45.4148489" lon="10.8627521"><ele>83.0</ele><time>2026-03-24T08:01:29.654Z</time></trkpt><trkpt lat="45.4148276" lon="10.8631282"><ele>83.0</ele><time>2026-03-24T08:01:30.657Z</time></trkpt><trkpt lat="45.414811" lon="10.8634987"><ele>82.5</ele><time>2026-03-24T08:01:31.653Z</time></trkpt><trkpt lat="45.4147854" lon="10.8638759"><ele>82.0</ele><time>2026-03-24T08:01:32.651Z</time></trkpt><trkpt lat="45.4147592" lon="10.8642503"><ele>82.0</ele><time>2026-03-24T08:01:33.653Z</time></trkpt><trkpt lat="45.4147301" lon="10.8646249"><ele>82.0</ele><time>2026-03-24T08:01:34.655Z</time></trkpt><trkpt lat="45.4147125" lon="10.8650084"><ele>82.5</ele><time>2026-03-24T08:01:35.644Z</time></trkpt><trkpt lat="45.4146906" lon="10.8653936"><ele>83.0</ele><time>2026-03-24T08:01:36.65Z</time></trkpt><trkpt lat="45.4146702" lon="10.8657735"><ele>82.5</ele><time>2026-03-24T08:01:37.641Z</time></trkpt><trkpt lat="45.4146396" lon="10.8661583"><ele>82.0</ele><time>2026-03-24T08:01:38.641Z</time></trkpt><trkpt lat="45.4145967" lon="10.866549"><ele>81.0</ele><time>2026-03-24T08:01:39.65Z</time></trkpt><trkpt lat="45.4145674" lon="10.8669313"><ele>80.0</ele><time>2026-03-24T08:01:40.646Z</time></trkpt><trkpt lat="45.4145402" lon="10.8673125"><ele>80.5</ele><time>2026-03-24T08:01:41.642Z</time></trkpt><trkpt lat="45.4145112" lon="10.8677061"><ele>81.0</ele><time>2026-03-24T08:01:42.646Z</time></trkpt><trkpt lat="45.4144911" lon="10.8680882"><ele>81.5</ele><time>2026-03-24T08:01:43.647Z</time></trkpt><trkpt lat="45.4144705" lon="10.8684778"><ele>82.0</ele><time>2026-03-24T08:01:44.643Z</time></trkpt><trkpt lat="45.4144463" lon="10.868878"><ele>82.5</ele><time>2026-03-24T08:01:45.646Z</time></trkpt><trkpt lat="45.4144258" lon="10.8692765"><ele>83.0</ele><time>2026-03-24T08:01:46.652Z</time></trkpt><trkpt lat="45.4144005" lon="10.8696732"><ele>83.0</ele><time>2026-03-24T08:01:47.653Z</time></trkpt><trkpt lat="45.4143813" lon="10.8700698"><ele>83.0</ele><time>2026-03-24T08:01:48.644Z</time></trkpt><trkpt lat="45.4143713" lon="10.870475"><ele>83.0</ele><time>2026-03-24T08:01:49.648Z</time></trkpt><trkpt lat="45.4143533" lon="10.8708774"><ele>83.0</ele><time>2026-03-24T08:01:50.637Z</time></trkpt><trkpt lat="45.4143318" lon="10.8712925"><ele>82.5</ele><time>2026-03-24T08:01:51.64Z</time></trkpt><trkpt lat="45.4143017" lon="10.8716979"><ele>82.0</ele><time>2026-03-24T08:01:52.644Z</time></trkpt><trkpt lat="45.4142673" lon="10.8721022"><ele>81.5</ele><time>2026-03-24T08:01:53.646Z</time></trkpt><trkpt lat="45.4142304" lon="10.8724999"><ele>81.0</ele><time>2026-03-24T08:01:54.638Z</time></trkpt><trkpt lat="45.4142013" lon="10.8729001"><ele>81.0</ele><time>2026-03-24T08:01:55.657Z</time></trkpt><trkpt lat="45.4141726" lon="10.8732835"><ele>81.0</ele><time>2026-03-24T08:01:56.645Z</time></trkpt><trkpt lat="45.4141482" lon="10.873671"><ele>80.5</ele><time>2026-03-24T08:01:57.648Z</time></trkpt><trkpt lat="45.414119" lon="10.8740606"><ele>80.0</ele><time>2026-03-24T08:01:58.645Z</time></trkpt><trkpt lat="45.4140908" lon="10.8744521"><ele>81.0</ele><time>2026-03-24T08:01:59.645Z</time></trkpt><trkpt lat="45.4140735" lon="10.8748453"><ele>82.0</ele><time>2026-03-24T08:02:00.646Z</time></trkpt><trkpt lat="45.4140614" lon="10.875241"><ele>81.5</ele><time>2026-03-24T08:02:01.654Z</time></trkpt><trkpt lat="45.4140541" lon="10.8756289"><ele>81.0</ele><time>2026-03-24T08:02:02.647Z</time></trkpt><trkpt lat="45.4140332" lon="10.8760126"><ele>81.0</ele><time>2026-03-24T08:02:03.642Z</time></trkpt><trkpt lat="45.4140149" lon="10.8764028"><ele>81.0</ele><time>2026-03-24T08:02:04.642Z</time></trkpt><trkpt lat="45.4139915" lon="10.8767926"><ele>81.0</ele><time>2026-03-24T08:02:05.651Z</time></trkpt><trkpt lat="45.4139613" lon="10.8771901"><ele>81.0</ele><time>2026-03-24T08:02:06.642Z</time></trkpt><trkpt lat="45.4139416" lon="10.8775874"><ele>81.0</ele><time>2026-03-24T08:02:07.648Z</time></trkpt><trkpt lat="45.4139236" lon="10.8779789"><ele>81.0</ele><time>2026-03-24T08:02:08.652Z</time></trkpt><trkpt lat="45.4138964" lon="10.878371"><ele>81.5</ele><time>2026-03-24T08:02:09.644Z</time></trkpt><trkpt lat="45.413879" lon="10.878764"><ele>82.0</ele><time>2026-03-24T08:02:10.649Z</time></trkpt><trkpt lat="45.4138671" lon="10.8791488"><ele>81.0</ele><time>2026-03-24T08:02:11.643Z</time></trkpt><trkpt lat="45.4138473" lon="10.8795294"><ele>80.0</ele><time>2026-03-24T08:02:12.645Z</time></trkpt><trkpt lat="45.4138253" lon="10.8799141"><ele>80.0</ele><time>2026-03-24T08:02:13.64Z</time></trkpt><trkpt lat="45.4138096" lon="10.8803028"><ele>80.0</ele><time>2026-03-24T08:02:14.648Z</time></trkpt><trkpt lat="45.413789" lon="10.8806905"><ele>80.0</ele><time>2026-03-24T08:02:15.638Z</time></trkpt><trkpt lat="45.4137752" lon="10.8810874"><ele>80.0</ele><time>2026-03-24T08:02:16.657Z</time></trkpt><trkpt lat="45.4137553" lon="10.8814747"><ele>80.5</ele><time>2026-03-24T08:02:17.647Z</time></trkpt><trkpt lat="45.4137363" lon="10.8818658"><ele>81.0</ele><time>2026-03-24T08:02:18.645Z</time></trkpt><trkpt lat="45.4137109" lon="10.8822485"><ele>80.5</ele><time>2026-03-24T08:02:19.649Z</time></trkpt><trkpt lat="45.4136873" lon="10.882617"><ele>80.0</ele><time>2026-03-24T08:02:20.652Z</time></trkpt><trkpt lat="45.4136508" lon="10.8829857"><ele>80.0</ele><time>2026-03-24T08:02:21.645Z</time></trkpt><trkpt lat="45.4136278" lon="10.8833491"><ele>80.0</ele><time>2026-03-24T08:02:22.651Z</time></trkpt><trkpt lat="45.4136011" lon="10.8837161"><ele>80.5</ele><time>2026-03-24T08:02:23.653Z</time></trkpt><trkpt lat="45.4135747" lon="10.8840783"><ele>81.0</ele><time>2026-03-24T08:02:24.638Z</time></trkpt><trkpt lat="45.4135395" lon="10.884439"><ele>80.5</ele><time>2026-03-24T08:02:25.647Z</time></trkpt><trkpt lat="45.4135123" lon="10.8847993"><ele>80.0</ele><time>2026-03-24T08:02:26.64Z</time></trkpt><trkpt lat="45.4134927" lon="10.8851632"><ele>80.0</ele><time>2026-03-24T08:02:27.648Z</time></trkpt><trkpt lat="45.4134671" lon="10.8855211"><ele>80.0</ele><time>2026-03-24T08:02:28.645Z</time></trkpt><trkpt lat="45.4134579" lon="10.8858765"><ele>79.5</ele><time>2026-03-24T08:02:29.655Z</time></trkpt><trkpt lat="45.4134415" lon="10.8862297"><ele>79.0</ele><time>2026-03-24T08:02:30.655Z</time></trkpt><trkpt lat="45.4134165" lon="10.8865821"><ele>79.5</ele><time>2026-03-24T08:02:31.654Z</time></trkpt><trkpt lat="45.4133914" lon="10.886941"><ele>80.0</ele><time>2026-03-24T08:02:32.653Z</time></trkpt><trkpt lat="45.4133655" lon="10.8873047"><ele>80.0</ele><time>2026-03-24T08:02:33.649Z</time></trkpt><trkpt lat="45.413337" lon="10.8876625"><ele>80.0</ele><time>2026-03-24T08:02:34.647Z</time></trkpt><trkpt lat="45.4133104" lon="10.8880157"><ele>80.0</ele><time>2026-03-24T08:02:35.657Z</time></trkpt><trkpt lat="45.4132906" lon="10.8883801"><ele>80.0</ele><time>2026-03-24T08:02:36.653Z</time></trkpt><trkpt lat="45.4132649" lon="10.8887392"><ele>79.5</ele><time>2026-03-24T08:02:37.655Z</time></trkpt><trkpt lat="45.4132446" lon="10.8890879"><ele>79.0</ele><time>2026-03-24T08:02:38.653Z</time></trkpt><trkpt lat="45.4132191" lon="10.8894259"><ele>79.0</ele><time>2026-03-24T08:02:39.653Z</time></trkpt><trkpt lat="45.4131953" lon="10.8897536"><ele>79.0</ele><time>2026-03-24T08:02:40.655Z</time></trkpt><trkpt lat="45.413178" lon="10.8900826"><ele>78.0</ele><time>2026-03-24T08:02:41.658Z</time></trkpt><trkpt lat="45.4131616" lon="10.8904151"><ele>77.0</ele><time>2026-03-24T08:02:42.649Z</time></trkpt><trkpt lat="45.4131434" lon="10.8907509"><ele>77.5</ele><time>2026-03-24T08:02:43.658Z</time></trkpt><trkpt lat="45.4131162" lon="10.8910865"><ele>78.0</ele><time>2026-03-24T08:02:44.659Z</time></trkpt><trkpt lat="45.4130836" lon="10.8914336"><ele>78.0</ele><time>2026-03-24T08:02:45.648Z</time></trkpt><trkpt lat="45.4130527" lon="10.8917744"><ele>78.0</ele><time>2026-03-24T08:02:46.662Z</time></trkpt><trkpt lat="45.41302" lon="10.8921109"><ele>77.5</ele><time>2026-03-24T08:02:47.662Z</time></trkpt><trkpt lat="45.4129731" lon="10.8924423"><ele>77.0</ele><time>2026-03-24T08:02:48.648Z</time></trkpt><trkpt lat="45.4129301" lon="10.8927817"><ele>77.0</ele><time>2026-03-24T08:02:49.667Z</time></trkpt><trkpt lat="45.412889" lon="10.8931209"><ele>77.0</ele><time>2026-03-24T08:02:50.665Z</time></trkpt><trkpt lat="45.4128315" lon="10.8934555"><ele>77.0</ele><time>2026-03-24T08:02:51.654Z</time></trkpt><trkpt lat="45.4127829" lon="10.8938035"><ele>77.0</ele><time>2026-03-24T08:02:52.666Z</time></trkpt><trkpt lat="45.4127324" lon="10.8941425"><ele>76.5</ele><time>2026-03-24T08:02:53.67Z</time></trkpt><trkpt lat="45.4126818" lon="10.8944849"><ele>76.0</ele><time>2026-03-24T08:02:54.658Z</time></trkpt><trkpt lat="45.4126292" lon="10.8948284"><ele>76.5</ele><time>2026-03-24T08:02:55.669Z</time></trkpt><trkpt lat="45.4125711" lon="10.8951657"><ele>77.0</ele><time>2026-03-24T08:02:56.657Z</time></trkpt><trkpt lat="45.4125083" lon="10.8955085"><ele>77.0</ele><time>2026-03-24T08:02:57.655Z</time></trkpt><trkpt lat="45.4124585" lon="10.8958508"><ele>77.0</ele><time>2026-03-24T08:02:58.652Z</time></trkpt><trkpt lat="45.412398" lon="10.8962007"><ele>77.0</ele><time>2026-03-24T08:02:59.659Z</time></trkpt><trkpt lat="45.4123321" lon="10.8965425"><ele>77.0</ele><time>2026-03-24T08:03:00.665Z</time></trkpt><trkpt lat="45.4122614" lon="10.8968825"><ele>77.0</ele><time>2026-03-24T08:03:01.663Z</time></trkpt><trkpt lat="45.4121823" lon="10.8972165"><ele>77.0</ele><time>2026-03-24T08:03:02.656Z</time></trkpt><trkpt lat="45.4121005" lon="10.8975544"><ele>76.5</ele><time>2026-03-24T08:03:03.653Z</time></trkpt><trkpt lat="45.4120243" lon="10.8978923"><ele>76.0</ele><time>2026-03-24T08:03:04.655Z</time></trkpt><trkpt lat="45.4119488" lon="10.8982203"><ele>76.0</ele><time>2026-03-24T08:03:05.66Z</time></trkpt><trkpt lat="45.4118683" lon="10.8985438"><ele>76.0</ele><time>2026-03-24T08:03:06.654Z</time></trkpt><trkpt lat="45.4117889" lon="10.8988629"><ele>76.0</ele><time>2026-03-24T08:03:07.655Z</time></trkpt><trkpt lat="45.4117025" lon="10.8991918"><ele>76.0</ele><time>2026-03-24T08:03:08.656Z</time></trkpt><trkpt lat="45.4116154" lon="10.8995282"><ele>75.5</ele><time>2026-03-24T08:03:09.652Z</time></trkpt><trkpt lat="45.4115217" lon="10.8998611"><ele>75.0</ele><time>2026-03-24T08:03:10.66Z</time></trkpt><trkpt lat="45.4114304" lon="10.9001809"><ele>74.5</ele><time>2026-03-24T08:03:11.657Z</time></trkpt><trkpt lat="45.4113463" lon="10.900505"><ele>74.0</ele><time>2026-03-24T08:03:12.659Z</time></trkpt><trkpt lat="45.4112518" lon="10.9008295"><ele>74.5</ele><time>2026-03-24T08:03:13.655Z</time></trkpt><trkpt lat="45.411169" lon="10.9011473"><ele>75.0</ele><time>2026-03-24T08:03:14.657Z</time></trkpt><trkpt lat="45.4110864" lon="10.901463"><ele>75.5</ele><time>2026-03-24T08:03:15.66Z</time></trkpt><trkpt lat="45.410994" lon="10.9017818"><ele>76.0</ele><time>2026-03-24T08:03:16.653Z</time></trkpt><trkpt lat="45.4108942" lon="10.9021117"><ele>76.0</ele><time>2026-03-24T08:03:17.666Z</time></trkpt><trkpt lat="45.4108036" lon="10.9024343"><ele>76.0</ele><time>2026-03-24T08:03:18.658Z</time></trkpt><trkpt lat="45.4107063" lon="10.9027616"><ele>75.5</ele><time>2026-03-24T08:03:19.665Z</time></trkpt><trkpt lat="45.4106167" lon="10.9030872"><ele>75.0</ele><time>2026-03-24T08:03:20.661Z</time></trkpt><trkpt lat="45.4105352" lon="10.9034028"><ele>73.0</ele><time>2026-03-24T08:03:21.655Z</time></trkpt><trkpt lat="45.410448" lon="10.9037261"><ele>71.0</ele><time>2026-03-24T08:03:22.666Z</time></trkpt><trkpt lat="45.4103605" lon="10.9040484"><ele>72.0</ele><time>2026-03-24T08:03:23.668Z</time></trkpt><trkpt lat="45.4102819" lon="10.9043594"><ele>73.0</ele><time>2026-03-24T08:03:24.664Z</time></trkpt><trkpt lat="45.4101966" lon="10.9046865"><ele>73.0</ele><time>2026-03-24T08:03:25.66Z</time></trkpt><trkpt lat="45.4101133" lon="10.9050225"><ele>73.0</ele><time>2026-03-24T08:03:26.672Z</time></trkpt><trkpt lat="45.4100296" lon="10.9053504"><ele>73.5</ele><time>2026-03-24T08:03:27.659Z</time></trkpt><trkpt lat="45.409943" lon="10.905681"><ele>74.0</ele><time>2026-03-24T08:03:28.665Z</time></trkpt><trkpt lat="45.4098586" lon="10.9060109"><ele>73.0</ele><time>2026-03-24T08:03:29.661Z</time></trkpt><trkpt lat="45.409768" lon="10.9063385"><ele>72.0</ele><time>2026-03-24T08:03:30.668Z</time></trkpt><trkpt lat="45.4096804" lon="10.9066597"><ele>72.0</ele><time>2026-03-24T08:03:31.665Z</time></trkpt><trkpt lat="45.4095894" lon="10.9069877"><ele>72.0</ele><time>2026-03-24T08:03:32.666Z</time></trkpt><trkpt lat="45.409494" lon="10.9073136"><ele>73.0</ele><time>2026-03-24T08:03:33.654Z</time></trkpt><trkpt lat="45.4094058" lon="10.9076393"><ele>74.0</ele><time>2026-03-24T08:03:34.652Z</time></trkpt><trkpt lat="45.4093131" lon="10.9079592"><ele>74.0</ele><time>2026-03-24T08:03:35.662Z</time></trkpt><trkpt lat="45.4092226" lon="10.9082761"><ele>74.0</ele><time>2026-03-24T08:03:36.655Z</time></trkpt><trkpt lat="45.4091351" lon="10.9085866"><ele>73.0</ele><time>2026-03-24T08:03:37.654Z</time></trkpt><trkpt lat="45.4090487" lon="10.9089014"><ele>72.0</ele><time>2026-03-24T08:03:38.658Z</time></trkpt><trkpt lat="45.4089605" lon="10.9092215"><ele>72.0</ele><time>2026-03-24T08:03:39.663Z</time></trkpt><trkpt lat="45.4088775" lon="10.9095436"><ele>72.0</ele><time>2026-03-24T08:03:40.658Z</time></trkpt><trkpt lat="45.408786" lon="10.9098675"><ele>71.5</ele><time>2026-03-24T08:03:41.658Z</time></trkpt><trkpt lat="45.4087048" lon="10.9101962"><ele>71.0</ele><time>2026-03-24T08:03:42.659Z</time></trkpt><trkpt lat="45.4086091" lon="10.9105269"><ele>71.0</ele><time>2026-03-24T08:03:43.652Z</time></trkpt><trkpt lat="45.4085168" lon="10.9108614"><ele>71.0</ele><time>2026-03-24T08:03:44.657Z</time></trkpt><trkpt lat="45.4084269" lon="10.911194"><ele>70.5</ele><time>2026-03-24T08:03:45.654Z</time></trkpt><trkpt lat="45.4083352" lon="10.911537"><ele>70.0</ele><time>2026-03-24T08:03:46.657Z</time></trkpt><trkpt lat="45.4082397" lon="10.9118817"><ele>70.0</ele><time>2026-03-24T08:03:47.662Z</time></trkpt><trkpt lat="45.4081532" lon="10.9122272"><ele>70.0</ele><time>2026-03-24T08:03:48.661Z</time></trkpt><trkpt lat="45.4080618" lon="10.9125797"><ele>72.5</ele><time>2026-03-24T08:03:49.665Z</time></trkpt><trkpt lat="45.407972" lon="10.9129234"><ele>75.0</ele><time>2026-03-24T08:03:50.649Z</time></trkpt><trkpt lat="45.4078807" lon="10.9132884"><ele>73.5</ele><time>2026-03-24T08:03:51.646Z</time></trkpt><trkpt lat="45.4077862" lon="10.9136616"><ele>72.0</ele><time>2026-03-24T08:03:52.643Z</time></trkpt><trkpt lat="45.4076907" lon="10.9140364"><ele>71.5</ele><time>2026-03-24T08:03:53.656Z</time></trkpt><trkpt lat="45.4075925" lon="10.9143903"><ele>71.0</ele><time>2026-03-24T08:03:54.647Z</time></trkpt><trkpt lat="45.4074999" lon="10.914753"><ele>71.0</ele><time>2026-03-24T08:03:55.656Z</time></trkpt><trkpt lat="45.4074114" lon="10.9151239"><ele>71.0</ele><time>2026-03-24T08:03:56.661Z</time></trkpt><trkpt lat="45.4073302" lon="10.915472"><ele>71.0</ele><time>2026-03-24T08:03:57.65Z</time></trkpt><trkpt lat="45.4072468" lon="10.9158166"><ele>71.0</ele><time>2026-03-24T08:03:58.657Z</time></trkpt><trkpt lat="45.4071521" lon="10.9161606"><ele>70.0</ele><time>2026-03-24T08:03:59.656Z</time></trkpt><trkpt lat="45.4070649" lon="10.9164995"><ele>69.0</ele><time>2026-03-24T08:04:00.652Z</time></trkpt><trkpt lat="45.4069714" lon="10.9168537"><ele>68.0</ele><time>2026-03-24T08:04:01.66Z</time></trkpt><trkpt lat="45.4068787" lon="10.9172047"><ele>67.0</ele><time>2026-03-24T08:04:02.655Z</time></trkpt><trkpt lat="45.4067979" lon="10.9175548"><ele>68.0</ele><time>2026-03-24T08:04:03.643Z</time></trkpt><trkpt lat="45.4067008" lon="10.9179055"><ele>69.0</ele><time>2026-03-24T08:04:04.667Z</time></trkpt><trkpt lat="45.4066075" lon="10.9182455"><ele>69.0</ele><time>2026-03-24T08:04:05.651Z</time></trkpt><trkpt lat="45.4065016" lon="10.9185705"><ele>69.0</ele><time>2026-03-24T08:04:06.662Z</time></trkpt><trkpt lat="45.4064091" lon="10.918897"><ele>68.0</ele><time>2026-03-24T08:04:07.661Z</time></trkpt><trkpt lat="45.4063119" lon="10.919216"><ele>67.0</ele><time>2026-03-24T08:04:08.652Z</time></trkpt><trkpt lat="45.4062198" lon="10.9195392"><ele>67.0</ele><time>2026-03-24T08:04:09.661Z</time></trkpt><trkpt lat="45.406125" lon="10.9198594"><ele>67.0</ele><time>2026-03-24T08:04:10.665Z</time></trkpt><trkpt lat="45.406024" lon="10.920179"><ele>66.5</ele><time>2026-03-24T08:04:11.661Z</time></trkpt><trkpt lat="45.4059272" lon="10.9205106"><ele>66.0</ele><time>2026-03-24T08:04:12.665Z</time></trkpt><trkpt lat="45.4058363" lon="10.9208389"><ele>66.0</ele><time>2026-03-24T08:04:13.657Z</time></trkpt><trkpt lat="45.4057489" lon="10.9211647"><ele>66.0</ele><time>2026-03-24T08:04:14.655Z</time></trkpt><trkpt lat="45.4056598" lon="10.9214832"><ele>66.5</ele><time>2026-03-24T08:04:15.668Z</time></trkpt><trkpt lat="45.4055763" lon="10.9217931"><ele>67.0</ele><time>2026-03-24T08:04:16.666Z</time></trkpt><trkpt lat="45.4054853" lon="10.9221038"><ele>67.0</ele><time>2026-03-24T08:04:17.658Z</time></trkpt><trkpt lat="45.4053972" lon="10.9224144"><ele>67.0</ele><time>2026-03-24T08:04:18.67Z</time></trkpt><trkpt lat="45.4053097" lon="10.9227273"><ele>66.0</ele><time>2026-03-24T08:04:19.656Z</time></trkpt><trkpt lat="45.4052151" lon="10.9230535"><ele>65.0</ele><time>2026-03-24T08:04:20.671Z</time></trkpt><trkpt lat="45.4051244" lon="10.9233807"><ele>64.5</ele><time>2026-03-24T08:04:21.658Z</time></trkpt><trkpt lat="45.4050349" lon="10.9237164"><ele>64.0</ele><time>2026-03-24T08:04:22.656Z</time></trkpt><trkpt lat="45.4049394" lon="10.9240604"><ele>64.0</ele><time>2026-03-24T08:04:23.671Z</time></trkpt><trkpt lat="45.4048375" lon="10.924399"><ele>64.0</ele><time>2026-03-24T08:04:24.656Z</time></trkpt><trkpt lat="45.4047345" lon="10.9247522"><ele>65.5</ele><time>2026-03-24T08:04:25.656Z</time></trkpt><trkpt lat="45.4046402" lon="10.9251092"><ele>67.0</ele><time>2026-03-24T08:04:26.659Z</time></trkpt><trkpt lat="45.4045482" lon="10.9254676"><ele>67.0</ele><time>2026-03-24T08:04:27.659Z</time></trkpt><trkpt lat="45.4044756" lon="10.9258233"><ele>67.0</ele><time>2026-03-24T08:04:28.659Z</time></trkpt><trkpt lat="45.4043811" lon="10.9261757"><ele>67.5</ele><time>2026-03-24T08:04:29.661Z</time></trkpt><trkpt lat="45.4042898" lon="10.9265258"><ele>68.0</ele><time>2026-03-24T08:04:30.646Z</time></trkpt><trkpt lat="45.4042212" lon="10.926889"><ele>67.0</ele><time>2026-03-24T08:04:31.658Z</time></trkpt><trkpt lat="45.4041641" lon="10.927237"><ele>66.0</ele><time>2026-03-24T08:04:32.644Z</time></trkpt><trkpt lat="45.4040897" lon="10.9275635"><ele>66.0</ele><time>2026-03-24T08:04:33.655Z</time></trkpt><trkpt lat="45.4040236" lon="10.9278766"><ele>66.0</ele><time>2026-03-24T08:04:34.657Z</time></trkpt><trkpt lat="45.4039622" lon="10.9281897"><ele>66.0</ele><time>2026-03-24T08:04:35.646Z</time></trkpt><trkpt lat="45.4038968" lon="10.9285118"><ele>66.0</ele><time>2026-03-24T08:04:36.654Z</time></trkpt><trkpt lat="45.4038276" lon="10.9288292"><ele>65.0</ele><time>2026-03-24T08:04:37.659Z</time></trkpt><trkpt lat="45.4037771" lon="10.9291486"><ele>64.0</ele><time>2026-03-24T08:04:38.66Z</time></trkpt><trkpt lat="45.4037071" lon="10.9294656"><ele>66.5</ele><time>2026-03-24T08:04:39.658Z</time></trkpt><trkpt lat="45.4036441" lon="10.9297871"><ele>69.0</ele><time>2026-03-24T08:04:40.656Z</time></trkpt><trkpt lat="45.4035836" lon="10.9301068"><ele>69.0</ele><time>2026-03-24T08:04:41.663Z</time></trkpt><trkpt lat="45.4035221" lon="10.9304216"><ele>69.0</ele><time>2026-03-24T08:04:42.651Z</time></trkpt><trkpt lat="45.4034578" lon="10.9307434"><ele>68.5</ele><time>2026-03-24T08:04:43.64Z</time></trkpt><trkpt lat="45.4033923" lon="10.9310705"><ele>68.0</ele><time>2026-03-24T08:04:44.642Z</time></trkpt><trkpt lat="45.4033312" lon="10.9314012"><ele>66.5</ele><time>2026-03-24T08:04:45.652Z</time></trkpt><trkpt lat="45.4032602" lon="10.9317288"><ele>65.0</ele><time>2026-03-24T08:04:46.645Z</time></trkpt><trkpt lat="45.4031998" lon="10.9320608"><ele>65.0</ele><time>2026-03-24T08:04:47.65Z</time></trkpt><trkpt lat="45.4031354" lon="10.9323838"><ele>65.0</ele><time>2026-03-24T08:04:48.649Z</time></trkpt><trkpt lat="45.4030689" lon="10.9327165"><ele>64.5</ele><time>2026-03-24T08:04:49.651Z</time></trkpt><trkpt lat="45.4029877" lon="10.9330446"><ele>64.0</ele><time>2026-03-24T08:04:50.638Z</time></trkpt><trkpt lat="45.4029177" lon="10.9333701"><ele>64.0</ele><time>2026-03-24T08:04:51.653Z</time></trkpt><trkpt lat="45.4028498" lon="10.9336944"><ele>64.0</ele><time>2026-03-24T08:04:52.635Z</time></trkpt><trkpt lat="45.4027938" lon="10.934032"><ele>64.0</ele><time>2026-03-24T08:04:53.641Z</time></trkpt><trkpt lat="45.4027214" lon="10.9343743"><ele>64.0</ele><time>2026-03-24T08:04:54.64Z</time></trkpt><trkpt lat="45.402651" lon="10.9347243"><ele>64.5</ele><time>2026-03-24T08:04:55.645Z</time></trkpt><trkpt lat="45.402584" lon="10.9350669"><ele>65.0</ele><time>2026-03-24T08:04:56.641Z</time></trkpt><trkpt lat="45.4025134" lon="10.93542"><ele>65.0</ele><time>2026-03-24T08:04:57.651Z</time></trkpt><trkpt lat="45.402438" lon="10.9357645"><ele>65.0</ele><time>2026-03-24T08:04:58.644Z</time></trkpt><trkpt lat="45.4023636" lon="10.9361184"><ele>64.5</ele><time>2026-03-24T08:04:59.653Z</time></trkpt><trkpt lat="45.4022883" lon="10.9364736"><ele>64.0</ele><time>2026-03-24T08:05:00.644Z</time></trkpt><trkpt lat="45.4022209" lon="10.9368198"><ele>62.5</ele><time>2026-03-24T08:05:01.654Z</time></trkpt><trkpt lat="45.4021548" lon="10.9371569"><ele>61.0</ele><time>2026-03-24T08:05:02.646Z</time></trkpt><trkpt lat="45.4020852" lon="10.9375039"><ele>61.5</ele><time>2026-03-24T08:05:03.644Z</time></trkpt><trkpt lat="45.402023" lon="10.9378477"><ele>62.0</ele><time>2026-03-24T08:05:04.643Z</time></trkpt><trkpt lat="45.4019604" lon="10.9381965"><ele>61.5</ele><time>2026-03-24T08:05:05.644Z</time></trkpt><trkpt lat="45.401885" lon="10.9385436"><ele>61.0</ele><time>2026-03-24T08:05:06.642Z</time></trkpt><trkpt lat="45.4018081" lon="10.9388872"><ele>60.0</ele><time>2026-03-24T08:05:07.641Z</time></trkpt><trkpt lat="45.4017392" lon="10.9392317"><ele>59.0</ele><time>2026-03-24T08:05:08.641Z</time></trkpt><trkpt lat="45.4016699" lon="10.9395722"><ele>59.0</ele><time>2026-03-24T08:05:09.644Z</time></trkpt><trkpt lat="45.4015959" lon="10.9399055"><ele>59.0</ele><time>2026-03-24T08:05:10.642Z</time></trkpt><trkpt lat="45.4015162" lon="10.9402488"><ele>60.0</ele><time>2026-03-24T08:05:11.643Z</time></trkpt><trkpt lat="45.4014351" lon="10.940598"><ele>61.0</ele><time>2026-03-24T08:05:12.65Z</time></trkpt><trkpt lat="45.4013618" lon="10.9409514"><ele>60.0</ele><time>2026-03-24T08:05:13.647Z</time></trkpt><trkpt lat="45.4012939" lon="10.9412883"><ele>59.0</ele><time>2026-03-24T08:05:14.64Z</time></trkpt><trkpt lat="45.4012278" lon="10.9416197"><ele>60.0</ele><time>2026-03-24T08:05:15.645Z</time></trkpt><trkpt lat="45.4011588" lon="10.9419431"><ele>61.0</ele><time>2026-03-24T08:05:16.643Z</time></trkpt><trkpt lat="45.4010965" lon="10.9422574"><ele>60.0</ele><time>2026-03-24T08:05:17.647Z</time></trkpt><trkpt lat="45.4010431" lon="10.942577"><ele>59.0</ele><time>2026-03-24T08:05:18.639Z</time></trkpt><trkpt lat="45.4009857" lon="10.9428989"><ele>59.0</ele><time>2026-03-24T08:05:19.651Z</time></trkpt><trkpt lat="45.4009285" lon="10.9432247"><ele>59.0</ele><time>2026-03-24T08:05:20.642Z</time></trkpt><trkpt lat="45.4008652" lon="10.9435468"><ele>59.5</ele><time>2026-03-24T08:05:21.643Z</time></trkpt><trkpt lat="45.4007925" lon="10.9438732"><ele>60.0</ele><time>2026-03-24T08:05:22.643Z</time></trkpt><trkpt lat="45.4007229" lon="10.9442097"><ele>59.5</ele><time>2026-03-24T08:05:23.644Z</time></trkpt><trkpt lat="45.4006545" lon="10.944552"><ele>59.0</ele><time>2026-03-24T08:05:24.65Z</time></trkpt><trkpt lat="45.4005904" lon="10.9448825"><ele>59.5</ele><time>2026-03-24T08:05:25.639Z</time></trkpt><trkpt lat="45.4005225" lon="10.9452176"><ele>60.0</ele><time>2026-03-24T08:05:26.64Z</time></trkpt><trkpt lat="45.4004558" lon="10.9455603"><ele>60.5</ele><time>2026-03-24T08:05:27.646Z</time></trkpt><trkpt lat="45.400381" lon="10.9459004"><ele>61.0</ele><time>2026-03-24T08:05:28.649Z</time></trkpt><trkpt lat="45.4003107" lon="10.9462449"><ele>61.0</ele><time>2026-03-24T08:05:29.649Z</time></trkpt><trkpt lat="45.4002458" lon="10.9465925"><ele>61.0</ele><time>2026-03-24T08:05:30.649Z</time></trkpt><trkpt lat="45.4001725" lon="10.9469477"><ele>60.0</ele><time>2026-03-24T08:05:31.639Z</time></trkpt><trkpt lat="45.4000993" lon="10.9473043"><ele>59.0</ele><time>2026-03-24T08:05:32.646Z</time></trkpt><trkpt lat="45.4000282" lon="10.947654"><ele>58.5</ele><time>2026-03-24T08:05:33.639Z</time></trkpt><trkpt lat="45.3999594" lon="10.9480088"><ele>58.0</ele><time>2026-03-24T08:05:34.632Z</time></trkpt><trkpt lat="45.399886" lon="10.9483564"><ele>58.5</ele><time>2026-03-24T08:05:35.645Z</time></trkpt><trkpt lat="45.399817" lon="10.9486968"><ele>59.0</ele><time>2026-03-24T08:05:36.645Z</time></trkpt><trkpt lat="45.3997436" lon="10.9490276"><ele>58.0</ele><time>2026-03-24T08:05:37.634Z</time></trkpt><trkpt lat="45.3996744" lon="10.9493581"><ele>57.0</ele><time>2026-03-24T08:05:38.637Z</time></trkpt><trkpt lat="45.3996091" lon="10.9496992"><ele>57.0</ele><time>2026-03-24T08:05:39.648Z</time></trkpt><trkpt lat="45.3995319" lon="10.9500384"><ele>57.0</ele><time>2026-03-24T08:05:40.645Z</time></trkpt><trkpt lat="45.399466" lon="10.9503877"><ele>58.5</ele><time>2026-03-24T08:05:41.651Z</time></trkpt><trkpt lat="45.3994042" lon="10.9507297"><ele>60.0</ele><time>2026-03-24T08:05:42.64Z</time></trkpt><trkpt lat="45.3993396" lon="10.9510747"><ele>60.5</ele><time>2026-03-24T08:05:43.654Z</time></trkpt><trkpt lat="45.3992764" lon="10.9514143"><ele>61.0</ele><time>2026-03-24T08:05:44.646Z</time></trkpt><trkpt lat="45.3992137" lon="10.9517549"><ele>61.0</ele><time>2026-03-24T08:05:45.641Z</time></trkpt><trkpt lat="45.3991478" lon="10.9520889"><ele>61.0</ele><time>2026-03-24T08:05:46.651Z</time></trkpt><trkpt lat="45.3990748" lon="10.9524123"><ele>60.5</ele><time>2026-03-24T08:05:47.642Z</time></trkpt><trkpt lat="45.3990038" lon="10.9527356"><ele>60.0</ele><time>2026-03-24T08:05:48.647Z</time></trkpt><trkpt lat="45.3989311" lon="10.9530698"><ele>60.0</ele><time>2026-03-24T08:05:49.647Z</time></trkpt><trkpt lat="45.3988642" lon="10.9534058"><ele>60.0</ele><time>2026-03-24T08:05:50.639Z</time></trkpt><trkpt lat="45.3987938" lon="10.9537471"><ele>59.5</ele><time>2026-03-24T08:05:51.644Z</time></trkpt><trkpt lat="45.3987199" lon="10.9540877"><ele>59.0</ele><time>2026-03-24T08:05:52.643Z</time></trkpt><trkpt lat="45.398647" lon="10.9544314"><ele>60.5</ele><time>2026-03-24T08:05:53.65Z</time></trkpt><trkpt lat="45.3985753" lon="10.9547747"><ele>62.0</ele><time>2026-03-24T08:05:54.646Z</time></trkpt><trkpt lat="45.3985009" lon="10.9551253"><ele>62.0</ele><time>2026-03-24T08:05:55.65Z</time></trkpt><trkpt lat="45.3984331" lon="10.9554784"><ele>62.0</ele><time>2026-03-24T08:05:56.643Z</time></trkpt><trkpt lat="45.3983719" lon="10.9558337"><ele>61.0</ele><time>2026-03-24T08:05:57.642Z</time></trkpt><trkpt lat="45.3983177" lon="10.9561857"><ele>60.0</ele><time>2026-03-24T08:05:58.655Z</time></trkpt><trkpt lat="45.3982734" lon="10.9565379"><ele>60.0</ele><time>2026-03-24T08:05:59.651Z</time></trkpt><trkpt lat="45.3982333" lon="10.9568898"><ele>60.0</ele><time>2026-03-24T08:06:00.646Z</time></trkpt><trkpt lat="45.3981929" lon="10.9572448"><ele>60.0</ele><time>2026-03-24T08:06:01.645Z</time></trkpt><trkpt lat="45.3981482" lon="10.9576065"><ele>60.0</ele><time>2026-03-24T08:06:02.647Z</time></trkpt><trkpt lat="45.3980999" lon="10.957962"><ele>60.0</ele><time>2026-03-24T08:06:03.638Z</time></trkpt><trkpt lat="45.3980598" lon="10.9583161"><ele>60.0</ele><time>2026-03-24T08:06:04.636Z</time></trkpt><trkpt lat="45.3980162" lon="10.958666"><ele>59.5</ele><time>2026-03-24T08:06:05.633Z</time></trkpt><trkpt lat="45.3979769" lon="10.9590087"><ele>59.0</ele><time>2026-03-24T08:06:06.646Z</time></trkpt><trkpt lat="45.3979387" lon="10.9593344"><ele>59.0</ele><time>2026-03-24T08:06:07.639Z</time></trkpt><trkpt lat="45.3978985" lon="10.9596584"><ele>59.0</ele><time>2026-03-24T08:06:08.639Z</time></trkpt><trkpt lat="45.3978624" lon="10.959983"><ele>59.5</ele><time>2026-03-24T08:06:09.642Z</time></trkpt><trkpt lat="45.3978195" lon="10.9603147"><ele>60.0</ele><time>2026-03-24T08:06:10.638Z</time></trkpt><trkpt lat="45.397772" lon="10.9606516"><ele>60.0</ele><time>2026-03-24T08:06:11.646Z</time></trkpt><trkpt lat="45.3977355" lon="10.9609921"><ele>60.0</ele><time>2026-03-24T08:06:12.637Z</time></trkpt><trkpt lat="45.3977057" lon="10.9613426"><ele>60.0</ele><time>2026-03-24T08:06:13.642Z</time></trkpt><trkpt lat="45.3976808" lon="10.961683"><ele>60.0</ele><time>2026-03-24T08:06:14.635Z</time></trkpt><trkpt lat="45.3976685" lon="10.9620351"><ele>59.0</ele><time>2026-03-24T08:06:15.641Z</time></trkpt><trkpt lat="45.3976527" lon="10.9623966"><ele>58.0</ele><time>2026-03-24T08:06:16.633Z</time></trkpt><trkpt lat="45.397632" lon="10.9627557"><ele>58.0</ele><time>2026-03-24T08:06:17.645Z</time></trkpt><trkpt lat="45.3976182" lon="10.9631117"><ele>58.0</ele><time>2026-03-24T08:06:18.641Z</time></trkpt><trkpt lat="45.3976144" lon="10.9634598"><ele>58.0</ele><time>2026-03-24T08:06:19.639Z</time></trkpt><trkpt lat="45.3976022" lon="10.9638076"><ele>58.0</ele><time>2026-03-24T08:06:20.64Z</time></trkpt><trkpt lat="45.3975793" lon="10.9641613"><ele>58.0</ele><time>2026-03-24T08:06:21.646Z</time></trkpt><trkpt lat="45.3975526" lon="10.9644986"><ele>58.0</ele><time>2026-03-24T08:06:22.632Z</time></trkpt><trkpt lat="45.3975275" lon="10.9648443"><ele>57.5</ele><time>2026-03-24T08:06:23.641Z</time></trkpt><trkpt lat="45.3975087" lon="10.9651706"><ele>57.0</ele><time>2026-03-24T08:06:24.64Z</time></trkpt><trkpt lat="45.3974786" lon="10.9655073"><ele>57.0</ele><time>2026-03-24T08:06:25.635Z</time></trkpt><trkpt lat="45.3974539" lon="10.965839"><ele>57.0</ele><time>2026-03-24T08:06:26.639Z</time></trkpt><trkpt lat="45.3974429" lon="10.9661738"><ele>56.5</ele><time>2026-03-24T08:06:27.644Z</time></trkpt><trkpt lat="45.3974252" lon="10.9665084"><ele>56.0</ele><time>2026-03-24T08:06:28.633Z</time></trkpt><trkpt lat="45.3974206" lon="10.9668443"><ele>57.0</ele><time>2026-03-24T08:06:29.651Z</time></trkpt><trkpt lat="45.3974051" lon="10.9671743"><ele>58.0</ele><time>2026-03-24T08:06:30.648Z</time></trkpt><trkpt lat="45.3973869" lon="10.9675043"><ele>55.5</ele><time>2026-03-24T08:06:31.64Z</time></trkpt><trkpt lat="45.3973576" lon="10.9678678"><ele>53.0</ele><time>2026-03-24T08:06:32.648Z</time></trkpt><trkpt lat="45.3973291" lon="10.9682201"><ele>53.5</ele><time>2026-03-24T08:06:33.641Z</time></trkpt><trkpt lat="45.3972982" lon="10.968575"><ele>54.0</ele><time>2026-03-24T08:06:34.633Z</time></trkpt><trkpt lat="45.3972833" lon="10.9689296"><ele>55.5</ele><time>2026-03-24T08:06:35.639Z</time></trkpt><trkpt lat="45.3972668" lon="10.9692686"><ele>57.0</ele><time>2026-03-24T08:06:36.642Z</time></trkpt><trkpt lat="45.3972404" lon="10.9696069"><ele>57.0</ele><time>2026-03-24T08:06:37.631Z</time></trkpt><trkpt lat="45.3972303" lon="10.9699514"><ele>57.0</ele><time>2026-03-24T08:06:38.64Z</time></trkpt><trkpt lat="45.397222" lon="10.9702943"><ele>57.5</ele><time>2026-03-24T08:06:39.632Z</time></trkpt><trkpt lat="45.3972104" lon="10.9706412"><ele>58.0</ele><time>2026-03-24T08:06:40.633Z</time></trkpt><trkpt lat="45.3972031" lon="10.9709967"><ele>56.5</ele><time>2026-03-24T08:06:41.639Z</time></trkpt><trkpt lat="45.3971977" lon="10.9713561"><ele>55.0</ele><time>2026-03-24T08:06:42.63Z</time></trkpt><trkpt lat="45.3971837" lon="10.9717288"><ele>55.0</ele><time>2026-03-24T08:06:43.631Z</time></trkpt><trkpt lat="45.3971693" lon="10.9720994"><ele>55.0</ele><time>2026-03-24T08:06:44.639Z</time></trkpt><trkpt lat="45.3971559" lon="10.9724699"><ele>55.0</ele><time>2026-03-24T08:06:45.639Z</time></trkpt><trkpt lat="45.3971411" lon="10.9728321"><ele>55.0</ele><time>2026-03-24T08:06:46.639Z</time></trkpt><trkpt lat="45.3971192" lon="10.9731923"><ele>55.5</ele><time>2026-03-24T08:06:47.643Z</time></trkpt><trkpt lat="45.3971094" lon="10.97355"><ele>56.0</ele><time>2026-03-24T08:06:48.649Z</time></trkpt><trkpt lat="45.3970856" lon="10.9739143"><ele>56.0</ele><time>2026-03-24T08:06:49.639Z</time></trkpt><trkpt lat="45.3970635" lon="10.9742881"><ele>56.0</ele><time>2026-03-24T08:06:50.649Z</time></trkpt><trkpt lat="45.3970493" lon="10.9746641"><ele>55.5</ele><time>2026-03-24T08:06:51.638Z</time></trkpt><trkpt lat="45.3970427" lon="10.9750387"><ele>55.0</ele><time>2026-03-24T08:06:52.647Z</time></trkpt><trkpt lat="45.3970392" lon="10.9753986"><ele>55.0</ele><time>2026-03-24T08:06:53.634Z</time></trkpt><trkpt lat="45.3970331" lon="10.9757641"><ele>55.0</ele><time>2026-03-24T08:06:54.644Z</time></trkpt><trkpt lat="45.3970197" lon="10.9761291"><ele>55.0</ele><time>2026-03-24T08:06:55.635Z</time></trkpt><trkpt lat="45.3969983" lon="10.9764949"><ele>55.0</ele><time>2026-03-24T08:06:56.634Z</time></trkpt><trkpt lat="45.3969789" lon="10.9768539"><ele>53.0</ele><time>2026-03-24T08:06:57.641Z</time></trkpt><trkpt lat="45.3969625" lon="10.9772089"><ele>51.0</ele><time>2026-03-24T08:06:58.635Z</time></trkpt><trkpt lat="45.3969418" lon="10.9775579"><ele>51.0</ele><time>2026-03-24T08:06:59.634Z</time></trkpt><trkpt lat="45.3969132" lon="10.9779017"><ele>51.0</ele><time>2026-03-24T08:07:00.641Z</time></trkpt><trkpt lat="45.3968951" lon="10.9782359"><ele>51.5</ele><time>2026-03-24T08:07:01.643Z</time></trkpt><trkpt lat="45.396886" lon="10.9785583"><ele>52.0</ele><time>2026-03-24T08:07:02.638Z</time></trkpt><trkpt lat="45.3968734" lon="10.9788828"><ele>51.0</ele><time>2026-03-24T08:07:03.635Z</time></trkpt><trkpt lat="45.3968661" lon="10.9792163"><ele>50.0</ele><time>2026-03-24T08:07:04.636Z</time></trkpt><trkpt lat="45.3968757" lon="10.9795568"><ele>50.0</ele><time>2026-03-24T08:07:05.639Z</time></trkpt><trkpt lat="45.3968806" lon="10.9799011"><ele>50.0</ele><time>2026-03-24T08:07:06.637Z</time></trkpt><trkpt lat="45.3968688" lon="10.9802392"><ele>50.0</ele><time>2026-03-24T08:07:07.637Z</time></trkpt><trkpt lat="45.3968585" lon="10.9805825"><ele>50.0</ele><time>2026-03-24T08:07:08.641Z</time></trkpt><trkpt lat="45.3968672" lon="10.9809283"><ele>50.0</ele><time>2026-03-24T08:07:09.634Z</time></trkpt><trkpt lat="45.3968812" lon="10.981278"><ele>50.0</ele><time>2026-03-24T08:07:10.641Z</time></trkpt><trkpt lat="45.3968989" lon="10.9816273"><ele>50.0</ele><time>2026-03-24T08:07:11.643Z</time></trkpt><trkpt lat="45.396914" lon="10.9819721"><ele>50.0</ele><time>2026-03-24T08:07:12.641Z</time></trkpt><trkpt lat="45.3969374" lon="10.9823219"><ele>51.0</ele><time>2026-03-24T08:07:13.645Z</time></trkpt><trkpt lat="45.3969652" lon="10.9826724"><ele>52.0</ele><time>2026-03-24T08:07:14.649Z</time></trkpt><trkpt lat="45.3969911" lon="10.9830168"><ele>54.0</ele><time>2026-03-24T08:07:15.646Z</time></trkpt><trkpt lat="45.397013" lon="10.9833549"><ele>56.0</ele><time>2026-03-24T08:07:16.647Z</time></trkpt><trkpt lat="45.3970412" lon="10.9836902"><ele>56.0</ele><time>2026-03-24T08:07:17.643Z</time></trkpt><trkpt lat="45.3970671" lon="10.9840247"><ele>56.0</ele><time>2026-03-24T08:07:18.652Z</time></trkpt><trkpt lat="45.3970865" lon="10.9843647"><ele>55.0</ele><time>2026-03-24T08:07:19.654Z</time></trkpt><trkpt lat="45.3971193" lon="10.9847031"><ele>54.0</ele><time>2026-03-24T08:07:20.639Z</time></trkpt><trkpt lat="45.3971565" lon="10.9850493"><ele>55.5</ele><time>2026-03-24T08:07:21.658Z</time></trkpt><trkpt lat="45.3972133" lon="10.9853834"><ele>57.0</ele><time>2026-03-24T08:07:22.646Z</time></trkpt><trkpt lat="45.3972673" lon="10.98572"><ele>57.5</ele><time>2026-03-24T08:07:23.642Z</time></trkpt><trkpt lat="45.3973224" lon="10.9860678"><ele>58.0</ele><time>2026-03-24T08:07:24.643Z</time></trkpt><trkpt lat="45.3973778" lon="10.9864176"><ele>57.5</ele><time>2026-03-24T08:07:25.638Z</time></trkpt><trkpt lat="45.3974215" lon="10.9867582"><ele>57.0</ele><time>2026-03-24T08:07:26.64Z</time></trkpt><trkpt lat="45.3974733" lon="10.9870831"><ele>57.0</ele><time>2026-03-24T08:07:27.639Z</time></trkpt><trkpt lat="45.3975161" lon="10.9874052"><ele>57.0</ele><time>2026-03-24T08:07:28.648Z</time></trkpt><trkpt lat="45.3975627" lon="10.9877253"><ele>56.5</ele><time>2026-03-24T08:07:29.641Z</time></trkpt><trkpt lat="45.3976039" lon="10.9880517"><ele>56.0</ele><time>2026-03-24T08:07:30.643Z</time></trkpt><trkpt lat="45.3976479" lon="10.9883697"><ele>55.0</ele><time>2026-03-24T08:07:31.644Z</time></trkpt><trkpt lat="45.3976997" lon="10.9886986"><ele>54.0</ele><time>2026-03-24T08:07:32.649Z</time></trkpt><trkpt lat="45.3977529" lon="10.9890156"><ele>53.0</ele><time>2026-03-24T08:07:33.645Z</time></trkpt><trkpt lat="45.397808" lon="10.9893412"><ele>52.0</ele><time>2026-03-24T08:07:34.648Z</time></trkpt><trkpt lat="45.3978586" lon="10.9896667"><ele>52.0</ele><time>2026-03-24T08:07:35.64Z</time></trkpt><trkpt lat="45.3979079" lon="10.9899974"><ele>52.0</ele><time>2026-03-24T08:07:36.639Z</time></trkpt><trkpt lat="45.3979649" lon="10.9903305"><ele>53.5</ele><time>2026-03-24T08:07:37.658Z</time></trkpt><trkpt lat="45.3980118" lon="10.9906606"><ele>55.0</ele><time>2026-03-24T08:07:38.646Z</time></trkpt><trkpt lat="45.3980574" lon="10.9910028"><ele>55.0</ele><time>2026-03-24T08:07:39.661Z</time></trkpt><trkpt lat="45.3981024" lon="10.9913302"><ele>55.0</ele><time>2026-03-24T08:07:40.644Z</time></trkpt><trkpt lat="45.398142" lon="10.9916517"><ele>55.5</ele><time>2026-03-24T08:07:41.645Z</time></trkpt><trkpt lat="45.3981746" lon="10.9919721"><ele>56.0</ele><time>2026-03-24T08:07:42.642Z</time></trkpt><trkpt lat="45.3982079" lon="10.9923054"><ele>55.5</ele><time>2026-03-24T08:07:43.653Z</time></trkpt><trkpt lat="45.3982385" lon="10.9926317"><ele>55.0</ele><time>2026-03-24T08:07:44.648Z</time></trkpt><trkpt lat="45.3982691" lon="10.9929687"><ele>55.0</ele><time>2026-03-24T08:07:45.656Z</time></trkpt><trkpt lat="45.3983059" lon="10.9933102"><ele>55.0</ele><time>2026-03-24T08:07:46.643Z</time></trkpt><trkpt lat="45.3983399" lon="10.9936539"><ele>55.0</ele><time>2026-03-24T08:07:47.652Z</time></trkpt><trkpt lat="45.3983722" lon="10.9939892"><ele>55.0</ele><time>2026-03-24T08:07:48.644Z</time></trkpt><trkpt lat="45.3984008" lon="10.9943316"><ele>55.0</ele><time>2026-03-24T08:07:49.641Z</time></trkpt><trkpt lat="45.3984314" lon="10.9946731"><ele>55.0</ele><time>2026-03-24T08:07:50.651Z</time></trkpt><trkpt lat="45.398466" lon="10.9950104"><ele>55.0</ele><time>2026-03-24T08:07:51.653Z</time></trkpt><trkpt lat="45.3984956" lon="10.9953447"><ele>55.0</ele><time>2026-03-24T08:07:52.641Z</time></trkpt><trkpt lat="45.3985271" lon="10.995674"><ele>55.0</ele><time>2026-03-24T08:07:53.65Z</time></trkpt><trkpt lat="45.3985558" lon="10.9959975"><ele>55.0</ele><time>2026-03-24T08:07:54.649Z</time></trkpt><trkpt lat="45.3985819" lon="10.9963243"><ele>55.0</ele><time>2026-03-24T08:07:55.64Z</time></trkpt><trkpt lat="45.3986062" lon="10.9966563"><ele>55.0</ele><time>2026-03-24T08:07:56.649Z</time></trkpt><trkpt lat="45.3986292" lon="10.9969828"><ele>53.5</ele><time>2026-03-24T08:07:57.645Z</time></trkpt><trkpt lat="45.3986418" lon="10.997309"><ele>52.0</ele><time>2026-03-24T08:07:58.638Z</time></trkpt><trkpt lat="45.3986567" lon="10.9976407"><ele>50.5</ele><time>2026-03-24T08:07:59.651Z</time></trkpt><trkpt lat="45.3986759" lon="10.9979647"><ele>49.0</ele><time>2026-03-24T08:08:00.64Z</time></trkpt><trkpt lat="45.3987028" lon="10.9983005"><ele>49.0</ele><time>2026-03-24T08:08:01.651Z</time></trkpt><trkpt lat="45.3987312" lon="10.9986297"><ele>49.0</ele><time>2026-03-24T08:08:02.643Z</time></trkpt><trkpt lat="45.3987564" lon="10.9989646"><ele>48.5</ele><time>2026-03-24T08:08:03.633Z</time></trkpt><trkpt lat="45.3987755" lon="10.9993179"><ele>48.0</ele><time>2026-03-24T08:08:04.642Z</time></trkpt><trkpt lat="45.3988125" lon="10.9996756"><ele>48.5</ele><time>2026-03-24T08:08:05.645Z</time></trkpt><trkpt lat="45.3988549" lon="11.0000358"><ele>49.0</ele><time>2026-03-24T08:08:06.638Z</time></trkpt><trkpt lat="45.3988903" lon="11.0004074"><ele>49.0</ele><time>2026-03-24T08:08:07.645Z</time></trkpt><trkpt lat="45.3989191" lon="11.0007686"><ele>49.0</ele><time>2026-03-24T08:08:08.645Z</time></trkpt><trkpt lat="45.3989497" lon="11.0011172"><ele>48.0</ele><time>2026-03-24T08:08:09.645Z</time></trkpt><trkpt lat="45.3989852" lon="11.0014735"><ele>47.0</ele><time>2026-03-24T08:08:10.648Z</time></trkpt><trkpt lat="45.3990254" lon="11.0018338"><ele>49.0</ele><time>2026-03-24T08:08:11.643Z</time></trkpt><trkpt lat="45.3990622" lon="11.0021967"><ele>51.0</ele><time>2026-03-24T08:08:12.646Z</time></trkpt><trkpt lat="45.399103" lon="11.002563"><ele>52.0</ele><time>2026-03-24T08:08:13.641Z</time></trkpt><trkpt lat="45.399145" lon="11.0029279"><ele>53.0</ele><time>2026-03-24T08:08:14.636Z</time></trkpt><trkpt lat="45.3991832" lon="11.0032927"><ele>52.0</ele><time>2026-03-24T08:08:15.642Z</time></trkpt><trkpt lat="45.399214" lon="11.0036534"><ele>51.0</ele><time>2026-03-24T08:08:16.632Z</time></trkpt><trkpt lat="45.3992511" lon="11.0040115"><ele>51.5</ele><time>2026-03-24T08:08:17.641Z</time></trkpt><trkpt lat="45.3992846" lon="11.0043773"><ele>52.0</ele><time>2026-03-24T08:08:18.648Z</time></trkpt><trkpt lat="45.3993209" lon="11.004737"><ele>51.5</ele><time>2026-03-24T08:08:19.636Z</time></trkpt><trkpt lat="45.3993545" lon="11.0051006"><ele>51.0</ele><time>2026-03-24T08:08:20.653Z</time></trkpt><trkpt lat="45.3993873" lon="11.0054433"><ele>51.0</ele><time>2026-03-24T08:08:21.648Z</time></trkpt><trkpt lat="45.3994139" lon="11.0057859"><ele>51.0</ele><time>2026-03-24T08:08:22.639Z</time></trkpt><trkpt lat="45.3994475" lon="11.0061271"><ele>50.0</ele><time>2026-03-24T08:08:23.65Z</time></trkpt><trkpt lat="45.399487" lon="11.0064627"><ele>49.0</ele><time>2026-03-24T08:08:24.639Z</time></trkpt><trkpt lat="45.3995235" lon="11.0068064"><ele>49.0</ele><time>2026-03-24T08:08:25.643Z</time></trkpt><trkpt lat="45.3995624" lon="11.0071552"><ele>49.0</ele><time>2026-03-24T08:08:26.645Z</time></trkpt><trkpt lat="45.3995941" lon="11.0075009"><ele>49.5</ele><time>2026-03-24T08:08:27.641Z</time></trkpt><trkpt lat="45.3996218" lon="11.007843"><ele>50.0</ele><time>2026-03-24T08:08:28.636Z</time></trkpt><trkpt lat="45.3996481" lon="11.0081919"><ele>51.0</ele><time>2026-03-24T08:08:29.65Z</time></trkpt><trkpt lat="45.3996854" lon="11.0085278"><ele>52.0</ele><time>2026-03-24T08:08:30.636Z</time></trkpt><trkpt lat="45.399721" lon="11.008868"><ele>52.0</ele><time>2026-03-24T08:08:31.643Z</time></trkpt><trkpt lat="45.3997544" lon="11.0092069"><ele>52.0</ele><time>2026-03-24T08:08:32.65Z</time></trkpt><trkpt lat="45.39978" lon="11.0095473"><ele>52.0</ele><time>2026-03-24T08:08:33.641Z</time></trkpt><trkpt lat="45.3998066" lon="11.0098914"><ele>52.0</ele><time>2026-03-24T08:08:34.64Z</time></trkpt><trkpt lat="45.3998381" lon="11.0102404"><ele>52.5</ele><time>2026-03-24T08:08:35.643Z</time></trkpt><trkpt lat="45.3998708" lon="11.0105919"><ele>53.0</ele><time>2026-03-24T08:08:36.643Z</time></trkpt><trkpt lat="45.3998993" lon="11.0109421"><ele>53.0</ele><time>2026-03-24T08:08:37.64Z</time></trkpt><trkpt lat="45.3999292" lon="11.011298"><ele>53.0</ele><time>2026-03-24T08:08:38.635Z</time></trkpt><trkpt lat="45.3999683" lon="11.0116618"><ele>51.5</ele><time>2026-03-24T08:08:39.653Z</time></trkpt><trkpt lat="45.4000028" lon="11.0120218"><ele>50.0</ele><time>2026-03-24T08:08:40.638Z</time></trkpt><trkpt lat="45.400043" lon="11.0123842"><ele>48.5</ele><time>2026-03-24T08:08:41.652Z</time></trkpt><trkpt lat="45.4000738" lon="11.0127377"><ele>47.0</ele><time>2026-03-24T08:08:42.641Z</time></trkpt><trkpt lat="45.4001113" lon="11.0130913"><ele>47.5</ele><time>2026-03-24T08:08:43.643Z</time></trkpt><trkpt lat="45.4001431" lon="11.0134434"><ele>48.0</ele><time>2026-03-24T08:08:44.641Z</time></trkpt><trkpt lat="45.4001832" lon="11.0138005"><ele>48.0</ele><time>2026-03-24T08:08:45.645Z</time></trkpt><trkpt lat="45.4002133" lon="11.0141546"><ele>48.0</ele><time>2026-03-24T08:08:46.633Z</time></trkpt><trkpt lat="45.4002532" lon="11.0145121"><ele>48.5</ele><time>2026-03-24T08:08:47.644Z</time></trkpt><trkpt lat="45.4003008" lon="11.0148704"><ele>49.0</ele><time>2026-03-24T08:08:48.638Z</time></trkpt><trkpt lat="45.4003463" lon="11.0152294"><ele>49.5</ele><time>2026-03-24T08:08:49.639Z</time></trkpt><trkpt lat="45.4003889" lon="11.0155923"><ele>50.0</ele><time>2026-03-24T08:08:50.65Z</time></trkpt><trkpt lat="45.4004299" lon="11.0159571"><ele>51.5</ele><time>2026-03-24T08:08:51.645Z</time></trkpt><trkpt lat="45.4004649" lon="11.0163225"><ele>53.0</ele><time>2026-03-24T08:08:52.639Z</time></trkpt><trkpt lat="45.4005094" lon="11.0166923"><ele>53.0</ele><time>2026-03-24T08:08:53.648Z</time></trkpt><trkpt lat="45.4005489" lon="11.0170517"><ele>53.0</ele><time>2026-03-24T08:08:54.643Z</time></trkpt><trkpt lat="45.4005846" lon="11.0174151"><ele>54.5</ele><time>2026-03-24T08:08:55.634Z</time></trkpt><trkpt lat="45.400628" lon="11.0177888"><ele>56.0</ele><time>2026-03-24T08:08:56.649Z</time></trkpt><trkpt lat="45.4006561" lon="11.0181573"><ele>56.0</ele><time>2026-03-24T08:08:57.64Z</time></trkpt><trkpt lat="45.400699" lon="11.0185432"><ele>56.0</ele><time>2026-03-24T08:08:58.631Z</time></trkpt><trkpt lat="45.4007479" lon="11.0189225"><ele>55.0</ele><time>2026-03-24T08:08:59.648Z</time></trkpt><trkpt lat="45.4007833" lon="11.0192786"><ele>54.0</ele><time>2026-03-24T08:09:00.641Z</time></trkpt><trkpt lat="45.400808" lon="11.0196237"><ele>54.0</ele><time>2026-03-24T08:09:01.634Z</time></trkpt><trkpt lat="45.4008287" lon="11.0199564"><ele>54.0</ele><time>2026-03-24T08:09:02.643Z</time></trkpt><trkpt lat="45.4008537" lon="11.0202771"><ele>53.5</ele><time>2026-03-24T08:09:03.64Z</time></trkpt><trkpt lat="45.4008643" lon="11.0205964"><ele>53.0</ele><time>2026-03-24T08:09:04.629Z</time></trkpt><trkpt lat="45.4008773" lon="11.0209276"><ele>52.0</ele><time>2026-03-24T08:09:05.641Z</time></trkpt><trkpt lat="45.400912" lon="11.021268"><ele>51.0</ele><time>2026-03-24T08:09:06.641Z</time></trkpt><trkpt lat="45.4009589" lon="11.0216194"><ele>51.0</ele><time>2026-03-24T08:09:07.627Z</time></trkpt><trkpt lat="45.4010163" lon="11.0219662"><ele>51.0</ele><time>2026-03-24T08:09:08.634Z</time></trkpt><trkpt lat="45.4010622" lon="11.0223067"><ele>51.5</ele><time>2026-03-24T08:09:09.642Z</time></trkpt><trkpt lat="45.4011055" lon="11.0226457"><ele>52.0</ele><time>2026-03-24T08:09:10.626Z</time></trkpt><trkpt lat="45.4011509" lon="11.0229934"><ele>52.5</ele><time>2026-03-24T08:09:11.646Z</time></trkpt><trkpt lat="45.4011965" lon="11.0233337"><ele>53.0</ele><time>2026-03-24T08:09:12.637Z</time></trkpt><trkpt lat="45.401226" lon="11.0236888"><ele>53.0</ele><time>2026-03-24T08:09:13.637Z</time></trkpt><trkpt lat="45.401266" lon="11.0240461"><ele>53.0</ele><time>2026-03-24T08:09:14.642Z</time></trkpt><trkpt lat="45.4013099" lon="11.0243784"><ele>51.0</ele><time>2026-03-24T08:09:15.646Z</time></trkpt><trkpt lat="45.401349" lon="11.0247121"><ele>49.0</ele><time>2026-03-24T08:09:16.642Z</time></trkpt><trkpt lat="45.4013914" lon="11.0250476"><ele>49.0</ele><time>2026-03-24T08:09:17.639Z</time></trkpt><trkpt lat="45.4014361" lon="11.025392"><ele>49.0</ele><time>2026-03-24T08:09:18.637Z</time></trkpt><trkpt lat="45.401479" lon="11.0257312"><ele>50.0</ele><time>2026-03-24T08:09:19.649Z</time></trkpt><trkpt lat="45.4015209" lon="11.0260664"><ele>51.0</ele><time>2026-03-24T08:09:20.639Z</time></trkpt><trkpt lat="45.4015542" lon="11.0264109"><ele>51.5</ele><time>2026-03-24T08:09:21.639Z</time></trkpt><trkpt lat="45.4015896" lon="11.0267593"><ele>52.0</ele><time>2026-03-24T08:09:22.638Z</time></trkpt><trkpt lat="45.4016342" lon="11.0271124"><ele>52.0</ele><time>2026-03-24T08:09:23.64Z</time></trkpt><trkpt lat="45.4016722" lon="11.0274712"><ele>52.0</ele><time>2026-03-24T08:09:24.638Z</time></trkpt><trkpt lat="45.4017112" lon="11.027826"><ele>51.0</ele><time>2026-03-24T08:09:25.645Z</time></trkpt><trkpt lat="45.4017522" lon="11.0281793"><ele>50.0</ele><time>2026-03-24T08:09:26.637Z</time></trkpt><trkpt lat="45.4017906" lon="11.0285481"><ele>49.5</ele><time>2026-03-24T08:09:27.641Z</time></trkpt><trkpt lat="45.4018299" lon="11.0289224"><ele>49.0</ele><time>2026-03-24T08:09:28.641Z</time></trkpt><trkpt lat="45.4018717" lon="11.0292934"><ele>47.5</ele><time>2026-03-24T08:09:29.64Z</time></trkpt><trkpt lat="45.4019077" lon="11.0296728"><ele>46.0</ele><time>2026-03-24T08:09:30.631Z</time></trkpt><trkpt lat="45.4019371" lon="11.0300579"><ele>45.5</ele><time>2026-03-24T08:09:31.646Z</time></trkpt><trkpt lat="45.4019756" lon="11.0304319"><ele>45.0</ele><time>2026-03-24T08:09:32.638Z</time></trkpt><trkpt lat="45.4020115" lon="11.0308148"><ele>44.0</ele><time>2026-03-24T08:09:33.641Z</time></trkpt><trkpt lat="45.4020492" lon="11.0311899"><ele>43.0</ele><time>2026-03-24T08:09:34.643Z</time></trkpt><trkpt lat="45.4020958" lon="11.0315373"><ele>41.5</ele><time>2026-03-24T08:09:35.637Z</time></trkpt><trkpt lat="45.4021319" lon="11.0318863"><ele>40.0</ele><time>2026-03-24T08:09:36.633Z</time></trkpt><trkpt lat="45.4021791" lon="11.0322188"><ele>40.5</ele><time>2026-03-24T08:09:37.645Z</time></trkpt><trkpt lat="45.4022223" lon="11.0325524"><ele>41.0</ele><time>2026-03-24T08:09:38.64Z</time></trkpt><trkpt lat="45.4022537" lon="11.0329006"><ele>41.0</ele><time>2026-03-24T08:09:39.63Z</time></trkpt><trkpt lat="45.4022896" lon="11.0332554"><ele>41.0</ele><time>2026-03-24T08:09:40.643Z</time></trkpt><trkpt lat="45.4023265" lon="11.0336082"><ele>41.0</ele><time>2026-03-24T08:09:41.638Z</time></trkpt><trkpt lat="45.4023534" lon="11.0339624"><ele>41.0</ele><time>2026-03-24T08:09:42.643Z</time></trkpt><trkpt lat="45.4023785" lon="11.0343043"><ele>41.0</ele><time>2026-03-24T08:09:43.64Z</time></trkpt><trkpt lat="45.4024085" lon="11.0346514"><ele>41.0</ele><time>2026-03-24T08:09:44.643Z</time></trkpt><trkpt lat="45.4024324" lon="11.0349959"><ele>40.5</ele><time>2026-03-24T08:09:45.643Z</time></trkpt><trkpt lat="45.4024596" lon="11.0353431"><ele>40.0</ele><time>2026-03-24T08:09:46.634Z</time></trkpt><trkpt lat="45.4024801" lon="11.0356885"><ele>39.5</ele><time>2026-03-24T08:09:47.642Z</time></trkpt><trkpt lat="45.4024933" lon="11.0360378"><ele>39.0</ele><time>2026-03-24T08:09:48.639Z</time></trkpt><trkpt lat="45.4025122" lon="11.0363743"><ele>40.0</ele><time>2026-03-24T08:09:49.637Z</time></trkpt><trkpt lat="45.402525" lon="11.0367111"><ele>41.0</ele><time>2026-03-24T08:09:50.648Z</time></trkpt><trkpt lat="45.4025367" lon="11.0370617"><ele>41.0</ele><time>2026-03-24T08:09:51.644Z</time></trkpt><trkpt lat="45.4025565" lon="11.0374112"><ele>41.0</ele><time>2026-03-24T08:09:52.64Z</time></trkpt><trkpt lat="45.4025799" lon="11.0377725"><ele>41.5</ele><time>2026-03-24T08:09:53.652Z</time></trkpt><trkpt lat="45.402603" lon="11.0381285"><ele>42.0</ele><time>2026-03-24T08:09:54.64Z</time></trkpt><trkpt lat="45.4026333" lon="11.0384879"><ele>42.0</ele><time>2026-03-24T08:09:55.639Z</time></trkpt><trkpt lat="45.4026648" lon="11.0388501"><ele>42.0</ele><time>2026-03-24T08:09:56.627Z</time></trkpt><trkpt lat="45.4027057" lon="11.0392236"><ele>42.0</ele><time>2026-03-24T08:09:57.637Z</time></trkpt><trkpt lat="45.4027491" lon="11.0395924"><ele>42.0</ele><time>2026-03-24T08:09:58.647Z</time></trkpt><trkpt lat="45.4027775" lon="11.0399588"><ele>41.5</ele><time>2026-03-24T08:09:59.632Z</time></trkpt><trkpt lat="45.4028108" lon="11.0403178"><ele>41.0</ele><time>2026-03-24T08:10:00.641Z</time></trkpt><trkpt lat="45.4028461" lon="11.040681"><ele>39.5</ele><time>2026-03-24T08:10:01.645Z</time></trkpt><trkpt lat="45.40288" lon="11.0410354"><ele>38.0</ele><time>2026-03-24T08:10:02.634Z</time></trkpt><trkpt lat="45.4029217" lon="11.0413949"><ele>38.0</ele><time>2026-03-24T08:10:03.646Z</time></trkpt><trkpt lat="45.4029677" lon="11.041747"><ele>38.0</ele><time>2026-03-24T08:10:04.633Z</time></trkpt><trkpt lat="45.4030048" lon="11.0421178"><ele>38.0</ele><time>2026-03-24T08:10:05.649Z</time></trkpt><trkpt lat="45.4030415" lon="11.0424777"><ele>38.0</ele><time>2026-03-24T08:10:06.646Z</time></trkpt><trkpt lat="45.4030817" lon="11.0428419"><ele>38.0</ele><time>2026-03-24T08:10:07.64Z</time></trkpt><trkpt lat="45.4031168" lon="11.043203"><ele>38.0</ele><time>2026-03-24T08:10:08.642Z</time></trkpt><trkpt lat="45.4031526" lon="11.0435609"><ele>38.5</ele><time>2026-03-24T08:10:09.644Z</time></trkpt><trkpt lat="45.4031787" lon="11.0439228"><ele>39.0</ele><time>2026-03-24T08:10:10.638Z</time></trkpt><trkpt lat="45.403209" lon="11.0442796"><ele>39.0</ele><time>2026-03-24T08:10:11.642Z</time></trkpt><trkpt lat="45.4032501" lon="11.0446331"><ele>39.0</ele><time>2026-03-24T08:10:12.638Z</time></trkpt><trkpt lat="45.4032817" lon="11.0449969"><ele>40.0</ele><time>2026-03-24T08:10:13.634Z</time></trkpt><trkpt lat="45.403319" lon="11.045363"><ele>41.0</ele><time>2026-03-24T08:10:14.637Z</time></trkpt><trkpt lat="45.403358" lon="11.0457278"><ele>40.0</ele><time>2026-03-24T08:10:15.639Z</time></trkpt><trkpt lat="45.4033868" lon="11.0460917"><ele>39.0</ele><time>2026-03-24T08:10:16.632Z</time></trkpt><trkpt lat="45.403418" lon="11.0464595"><ele>38.0</ele><time>2026-03-24T08:10:17.642Z</time></trkpt><trkpt lat="45.4034551" lon="11.0468344"><ele>37.0</ele><time>2026-03-24T08:10:18.641Z</time></trkpt><trkpt lat="45.4034865" lon="11.0472126"><ele>37.0</ele><time>2026-03-24T08:10:19.634Z</time></trkpt><trkpt lat="45.4035375" lon="11.0475887"><ele>37.0</ele><time>2026-03-24T08:10:20.649Z</time></trkpt><trkpt lat="45.4035746" lon="11.0479585"><ele>37.0</ele><time>2026-03-24T08:10:21.646Z</time></trkpt><trkpt lat="45.4036115" lon="11.0483187"><ele>37.0</ele><time>2026-03-24T08:10:22.643Z</time></trkpt><trkpt lat="45.403632" lon="11.0486795"><ele>37.0</ele><time>2026-03-24T08:10:23.642Z</time></trkpt><trkpt lat="45.4036531" lon="11.0490227"><ele>37.0</ele><time>2026-03-24T08:10:24.648Z</time></trkpt><trkpt lat="45.4036726" lon="11.0493567"><ele>37.0</ele><time>2026-03-24T08:10:25.63Z</time></trkpt><trkpt lat="45.4036952" lon="11.0496946"><ele>37.0</ele><time>2026-03-24T08:10:26.644Z</time></trkpt><trkpt lat="45.4037226" lon="11.0500273"><ele>37.0</ele><time>2026-03-24T08:10:27.646Z</time></trkpt><trkpt lat="45.4037545" lon="11.0503784"><ele>37.0</ele><time>2026-03-24T08:10:28.636Z</time></trkpt><trkpt lat="45.403793" lon="11.0507252"><ele>37.5</ele><time>2026-03-24T08:10:29.641Z</time></trkpt><trkpt lat="45.4038331" lon="11.051074"><ele>38.0</ele><time>2026-03-24T08:10:30.65Z</time></trkpt><trkpt lat="45.4038637" lon="11.0514286"><ele>37.5</ele><time>2026-03-24T08:10:31.633Z</time></trkpt><trkpt lat="45.4038955" lon="11.0517742"><ele>37.0</ele><time>2026-03-24T08:10:32.639Z</time></trkpt><trkpt lat="45.4039379" lon="11.0521131"><ele>37.5</ele><time>2026-03-24T08:10:33.645Z</time></trkpt><trkpt lat="45.4039778" lon="11.0524574"><ele>38.0</ele><time>2026-03-24T08:10:34.631Z</time></trkpt><trkpt lat="45.4040105" lon="11.0528072"><ele>38.0</ele><time>2026-03-24T08:10:35.644Z</time></trkpt><trkpt lat="45.4040497" lon="11.0531564"><ele>38.0</ele><time>2026-03-24T08:10:36.645Z</time></trkpt><trkpt lat="45.4040847" lon="11.0535027"><ele>38.0</ele><time>2026-03-24T08:10:37.636Z</time></trkpt><trkpt lat="45.4041215" lon="11.0538475"><ele>38.0</ele><time>2026-03-24T08:10:38.642Z</time></trkpt><trkpt lat="45.4041558" lon="11.0541991"><ele>37.5</ele><time>2026-03-24T08:10:39.645Z</time></trkpt><trkpt lat="45.4041822" lon="11.0545485"><ele>37.0</ele><time>2026-03-24T08:10:40.632Z</time></trkpt><trkpt lat="45.4042124" lon="11.054895"><ele>36.5</ele><time>2026-03-24T08:10:41.641Z</time></trkpt><trkpt lat="45.4042393" lon="11.0552396"><ele>36.0</ele><time>2026-03-24T08:10:42.645Z</time></trkpt><trkpt lat="45.4042595" lon="11.0555886"><ele>37.5</ele><time>2026-03-24T08:10:43.635Z</time></trkpt><trkpt lat="45.4042867" lon="11.0559457"><ele>39.0</ele><time>2026-03-24T08:10:44.64Z</time></trkpt><trkpt lat="45.4043141" lon="11.0562908"><ele>38.5</ele><time>2026-03-24T08:10:45.646Z</time></trkpt><trkpt lat="45.4043384" lon="11.0566266"><ele>38.0</ele><time>2026-03-24T08:10:46.635Z</time></trkpt><trkpt lat="45.4043668" lon="11.0569604"><ele>38.0</ele><time>2026-03-24T08:10:47.645Z</time></trkpt><trkpt lat="45.4044008" lon="11.0572924"><ele>38.0</ele><time>2026-03-24T08:10:48.639Z</time></trkpt><trkpt lat="45.4044331" lon="11.0576433"><ele>38.0</ele><time>2026-03-24T08:10:49.636Z</time></trkpt><trkpt lat="45.4044577" lon="11.0579828"><ele>38.0</ele><time>2026-03-24T08:10:50.642Z</time></trkpt><trkpt lat="45.4044813" lon="11.0583201"><ele>37.5</ele><time>2026-03-24T08:10:51.642Z</time></trkpt><trkpt lat="45.4045021" lon="11.0586697"><ele>37.0</ele><time>2026-03-24T08:10:52.643Z</time></trkpt><trkpt lat="45.4045302" lon="11.0590074"><ele>36.0</ele><time>2026-03-24T08:10:53.638Z</time></trkpt><trkpt lat="45.4045658" lon="11.0593435"><ele>35.0</ele><time>2026-03-24T08:10:54.643Z</time></trkpt><trkpt lat="45.4045913" lon="11.059674"><ele>36.0</ele><time>2026-03-24T08:10:55.636Z</time></trkpt><trkpt lat="45.4046127" lon="11.0599968"><ele>37.0</ele><time>2026-03-24T08:10:56.64Z</time></trkpt><trkpt lat="45.404647" lon="11.0603186"><ele>37.0</ele><time>2026-03-24T08:10:57.642Z</time></trkpt><trkpt lat="45.4046649" lon="11.0606481"><ele>37.0</ele><time>2026-03-24T08:10:58.64Z</time></trkpt><trkpt lat="45.4046943" lon="11.0609784"><ele>37.5</ele><time>2026-03-24T08:10:59.64Z</time></trkpt><trkpt lat="45.404727" lon="11.0613092"><ele>38.0</ele><time>2026-03-24T08:11:00.645Z</time></trkpt><trkpt lat="45.4047486" lon="11.0616446"><ele>38.0</ele><time>2026-03-24T08:11:01.637Z</time></trkpt><trkpt lat="45.4047869" lon="11.0619712"><ele>38.0</ele><time>2026-03-24T08:11:02.638Z</time></trkpt><trkpt lat="45.4048255" lon="11.0622919"><ele>37.0</ele><time>2026-03-24T08:11:03.64Z</time></trkpt><trkpt lat="45.4048631" lon="11.062608"><ele>36.0</ele><time>2026-03-24T08:11:04.632Z</time></trkpt><trkpt lat="45.4048786" lon="11.0629296"><ele>36.0</ele><time>2026-03-24T08:11:05.639Z</time></trkpt><trkpt lat="45.4048982" lon="11.0632452"><ele>36.0</ele><time>2026-03-24T08:11:06.64Z</time></trkpt><trkpt lat="45.4049209" lon="11.0635703"><ele>36.0</ele><time>2026-03-24T08:11:07.632Z</time></trkpt><trkpt lat="45.4049547" lon="11.0639101"><ele>36.0</ele><time>2026-03-24T08:11:08.639Z</time></trkpt><trkpt lat="45.4049801" lon="11.0642402"><ele>36.0</ele><time>2026-03-24T08:11:09.64Z</time></trkpt><trkpt lat="45.4049913" lon="11.0645811"><ele>36.0</ele><time>2026-03-24T08:11:10.645Z</time></trkpt><trkpt lat="45.4050105" lon="11.0649136"><ele>35.5</ele><time>2026-03-24T08:11:11.643Z</time></trkpt><trkpt lat="45.4050369" lon="11.0652377"><ele>35.0</ele><time>2026-03-24T08:11:12.638Z</time></trkpt><trkpt lat="45.405064" lon="11.0655816"><ele>36.0</ele><time>2026-03-24T08:11:13.649Z</time></trkpt><trkpt lat="45.405091" lon="11.0659094"><ele>37.0</ele><time>2026-03-24T08:11:14.642Z</time></trkpt><trkpt lat="45.4051125" lon="11.06624"><ele>37.0</ele><time>2026-03-24T08:11:15.647Z</time></trkpt><trkpt lat="45.405145" lon="11.0665665"><ele>37.0</ele><time>2026-03-24T08:11:16.645Z</time></trkpt><trkpt lat="45.4051863" lon="11.0668962"><ele>37.0</ele><time>2026-03-24T08:11:17.641Z</time></trkpt><trkpt lat="45.4052104" lon="11.0672244"><ele>37.0</ele><time>2026-03-24T08:11:18.638Z</time></trkpt><trkpt lat="45.4052385" lon="11.0675457"><ele>37.0</ele><time>2026-03-24T08:11:19.638Z</time></trkpt><trkpt lat="45.4052753" lon="11.0678671"><ele>37.0</ele><time>2026-03-24T08:11:20.638Z</time></trkpt><trkpt lat="45.4052981" lon="11.0682025"><ele>38.0</ele><time>2026-03-24T08:11:21.641Z</time></trkpt><trkpt lat="45.4053234" lon="11.0685297"><ele>39.0</ele><time>2026-03-24T08:11:22.64Z</time></trkpt><trkpt lat="45.40535" lon="11.0688638"><ele>39.5</ele><time>2026-03-24T08:11:23.643Z</time></trkpt><trkpt lat="45.4053802" lon="11.0691899"><ele>40.0</ele><time>2026-03-24T08:11:24.643Z</time></trkpt><trkpt lat="45.4054234" lon="11.0695114"><ele>40.0</ele><time>2026-03-24T08:11:25.639Z</time></trkpt><trkpt lat="45.4054659" lon="11.0698257"><ele>40.0</ele><time>2026-03-24T08:11:26.642Z</time></trkpt><trkpt lat="45.4055082" lon="11.0701412"><ele>40.0</ele><time>2026-03-24T08:11:27.643Z</time></trkpt><trkpt lat="45.4055553" lon="11.0704528"><ele>40.0</ele><time>2026-03-24T08:11:28.646Z</time></trkpt><trkpt lat="45.4056056" lon="11.0707621"><ele>40.0</ele><time>2026-03-24T08:11:29.642Z</time></trkpt><trkpt lat="45.4056543" lon="11.0710721"><ele>40.0</ele><time>2026-03-24T08:11:30.644Z</time></trkpt><trkpt lat="45.4057144" lon="11.0713842"><ele>40.0</ele><time>2026-03-24T08:11:31.644Z</time></trkpt><trkpt lat="45.4057689" lon="11.0717005"><ele>40.333333333333336</ele><time>2026-03-24T08:11:32.639Z</time></trkpt><trkpt lat="45.4058227" lon="11.0720078"><ele>40.666666666666664</ele><time>2026-03-24T08:11:33.638Z</time></trkpt><trkpt lat="45.4058778" lon="11.0723127"><ele>41.0</ele><time>2026-03-24T08:11:34.638Z</time></trkpt><trkpt lat="45.4059409" lon="11.072617"><ele>41.0</ele><time>2026-03-24T08:11:35.632Z</time></trkpt><trkpt lat="45.4059969" lon="11.0729122"><ele>41.0</ele><time>2026-03-24T08:11:36.646Z</time></trkpt><trkpt lat="45.4060733" lon="11.0732012"><ele>41.0</ele><time>2026-03-24T08:11:37.647Z</time></trkpt><trkpt lat="45.4061539" lon="11.0734986"><ele>41.0</ele><time>2026-03-24T08:11:38.639Z</time></trkpt><trkpt lat="45.4062442" lon="11.0737912"><ele>41.0</ele><time>2026-03-24T08:11:39.641Z</time></trkpt><trkpt lat="45.4063286" lon="11.0740805"><ele>41.0</ele><time>2026-03-24T08:11:40.639Z</time></trkpt><trkpt lat="45.4064199" lon="11.0743635"><ele>41.0</ele><time>2026-03-24T08:11:41.64Z</time></trkpt><trkpt lat="45.4065122" lon="11.0746631"><ele>41.0</ele><time>2026-03-24T08:11:42.648Z</time></trkpt><trkpt lat="45.4065925" lon="11.0749774"><ele>41.0</ele><time>2026-03-24T08:11:43.637Z</time></trkpt><trkpt lat="45.4066746" lon="11.0752923"><ele>41.0</ele><time>2026-03-24T08:11:44.642Z</time></trkpt><trkpt lat="45.4067613" lon="11.0756262"><ele>42.0</ele><time>2026-03-24T08:11:45.635Z</time></trkpt><trkpt lat="45.4068491" lon="11.0759583"><ele>43.0</ele><time>2026-03-24T08:11:46.642Z</time></trkpt><trkpt lat="45.4069304" lon="11.0762708"><ele>43.0</ele><time>2026-03-24T08:11:47.642Z</time></trkpt><trkpt lat="45.4070117" lon="11.0765709"><ele>43.0</ele><time>2026-03-24T08:11:48.639Z</time></trkpt><trkpt lat="45.4070905" lon="11.0768817"><ele>43.0</ele><time>2026-03-24T08:11:49.641Z</time></trkpt><trkpt lat="45.4071773" lon="11.0771914"><ele>43.0</ele><time>2026-03-24T08:11:50.641Z</time></trkpt><trkpt lat="45.4072619" lon="11.0775024"><ele>43.5</ele><time>2026-03-24T08:11:51.638Z</time></trkpt><trkpt lat="45.4073338" lon="11.0778128"><ele>44.0</ele><time>2026-03-24T08:11:52.634Z</time></trkpt><trkpt lat="45.407424" lon="11.0781225"><ele>43.5</ele><time>2026-03-24T08:11:53.645Z</time></trkpt><trkpt lat="45.407516" lon="11.0784315"><ele>43.0</ele><time>2026-03-24T08:11:54.646Z</time></trkpt><trkpt lat="45.4075922" lon="11.0787454"><ele>43.0</ele><time>2026-03-24T08:11:55.645Z</time></trkpt><trkpt lat="45.4076789" lon="11.0790673"><ele>43.0</ele><time>2026-03-24T08:11:56.644Z</time></trkpt><trkpt lat="45.4077627" lon="11.0793931"><ele>41.5</ele><time>2026-03-24T08:11:57.642Z</time></trkpt><trkpt lat="45.4078452" lon="11.0797115"><ele>40.0</ele><time>2026-03-24T08:11:58.643Z</time></trkpt><trkpt lat="45.4079385" lon="11.0800363"><ele>41.5</ele><time>2026-03-24T08:11:59.652Z</time></trkpt><trkpt lat="45.4080284" lon="11.0803594"><ele>43.0</ele><time>2026-03-24T08:12:00.642Z</time></trkpt><trkpt lat="45.4081082" lon="11.0806805"><ele>43.5</ele><time>2026-03-24T08:12:01.649Z</time></trkpt><trkpt lat="45.4081831" lon="11.080998"><ele>44.0</ele><time>2026-03-24T08:12:02.637Z</time></trkpt><trkpt lat="45.4082529" lon="11.0813101"><ele>43.666666666666664</ele><time>2026-03-24T08:12:03.637Z</time></trkpt><trkpt lat="45.4083213" lon="11.0816211"><ele>43.333333333333336</ele><time>2026-03-24T08:12:04.641Z</time></trkpt><trkpt lat="45.4083911" lon="11.0819193"><ele>43.0</ele><time>2026-03-24T08:12:05.636Z</time></trkpt><trkpt lat="45.4084712" lon="11.0822105"><ele>43.66666666666667</ele><time>2026-03-24T08:12:06.639Z</time></trkpt><trkpt lat="45.4085576" lon="11.0825011"><ele>44.333333333333336</ele><time>2026-03-24T08:12:07.64Z</time></trkpt><trkpt lat="45.4086379" lon="11.0827958"><ele>45.0</ele><time>2026-03-24T08:12:08.637Z</time></trkpt><trkpt lat="45.4087164" lon="11.0830938"><ele>44.5</ele><time>2026-03-24T08:12:09.641Z</time></trkpt><trkpt lat="45.408788" lon="11.0833919"><ele>44.0</ele><time>2026-03-24T08:12:10.639Z</time></trkpt><trkpt lat="45.408876" lon="11.0836959"><ele>44.0</ele><time>2026-03-24T08:12:11.639Z</time></trkpt><trkpt lat="45.4089631" lon="11.0840041"><ele>44.0</ele><time>2026-03-24T08:12:12.639Z</time></trkpt><trkpt lat="45.4090464" lon="11.0843072"><ele>44.0</ele><time>2026-03-24T08:12:13.636Z</time></trkpt><trkpt lat="45.4091298" lon="11.0845973"><ele>44.0</ele><time>2026-03-24T08:12:14.638Z</time></trkpt><trkpt lat="45.4092032" lon="11.0848917"><ele>44.0</ele><time>2026-03-24T08:12:15.643Z</time></trkpt><trkpt lat="45.4092767" lon="11.0851887"><ele>44.0</ele><time>2026-03-24T08:12:16.635Z</time></trkpt><trkpt lat="45.4093571" lon="11.0854863"><ele>44.0</ele><time>2026-03-24T08:12:17.646Z</time></trkpt><trkpt lat="45.4094389" lon="11.0857783"><ele>44.0</ele><time>2026-03-24T08:12:18.649Z</time></trkpt><trkpt lat="45.4095106" lon="11.0860775"><ele>44.0</ele><time>2026-03-24T08:12:19.632Z</time></trkpt><trkpt lat="45.4095838" lon="11.0863692"><ele>44.0</ele><time>2026-03-24T08:12:20.641Z</time></trkpt><trkpt lat="45.4096629" lon="11.08665"><ele>44.0</ele><time>2026-03-24T08:12:21.648Z</time></trkpt><trkpt lat="45.4097362" lon="11.0869202"><ele>44.33333333333333</ele><time>2026-03-24T08:12:22.629Z</time></trkpt><trkpt lat="45.4098042" lon="11.0871821"><ele>44.666666666666664</ele><time>2026-03-24T08:12:23.635Z</time></trkpt><trkpt lat="45.4098772" lon="11.0874306"><ele>45.0</ele><time>2026-03-24T08:12:24.637Z</time></trkpt><trkpt lat="45.409943" lon="11.0876812"><ele>45.0</ele><time>2026-03-24T08:12:25.641Z</time></trkpt><trkpt lat="45.4099983" lon="11.087922"><ele>45.0</ele><time>2026-03-24T08:12:26.633Z</time></trkpt><trkpt lat="45.4100486" lon="11.0881584"><ele>45.0</ele><time>2026-03-24T08:12:27.633Z</time></trkpt><trkpt lat="45.4101031" lon="11.0883876"><ele>44.666666666666664</ele><time>2026-03-24T08:12:28.632Z</time></trkpt><trkpt lat="45.4101527" lon="11.0886239"><ele>44.33333333333333</ele><time>2026-03-24T08:12:29.63Z</time></trkpt><trkpt lat="45.4102103" lon="11.0888582"><ele>44.0</ele><time>2026-03-24T08:12:30.641Z</time></trkpt><trkpt lat="45.4102712" lon="11.0890868"><ele>44.0</ele><time>2026-03-24T08:12:31.635Z</time></trkpt><trkpt lat="45.4103276" lon="11.0893115"><ele>44.0</ele><time>2026-03-24T08:12:32.635Z</time></trkpt><trkpt lat="45.4104045" lon="11.0895313"><ele>44.0</ele><time>2026-03-24T08:12:33.644Z</time></trkpt><trkpt lat="45.4104808" lon="11.0897604"><ele>44.0</ele><time>2026-03-24T08:12:34.637Z</time></trkpt><trkpt lat="45.4105544" lon="11.0899917"><ele>44.0</ele><time>2026-03-24T08:12:35.651Z</time></trkpt><trkpt lat="45.4106096" lon="11.0902176"><ele>44.0</ele><time>2026-03-24T08:12:36.642Z</time></trkpt><trkpt lat="45.4106547" lon="11.0904505"><ele>44.0</ele><time>2026-03-24T08:12:37.644Z</time></trkpt><trkpt lat="45.4107081" lon="11.0906835"><ele>44.0</ele><time>2026-03-24T08:12:38.641Z</time></trkpt><trkpt lat="45.4107755" lon="11.0908902"><ele>44.0</ele><time>2026-03-24T08:12:39.642Z</time></trkpt><trkpt lat="45.410829" lon="11.0910846"><ele>44.75</ele><time>2026-03-24T08:12:40.642Z</time></trkpt><trkpt lat="45.4108761" lon="11.0912767"><ele>45.5</ele><time>2026-03-24T08:12:41.64Z</time></trkpt><trkpt lat="45.4109227" lon="11.0914483"><ele>46.25</ele><time>2026-03-24T08:12:42.645Z</time></trkpt><trkpt lat="45.4109607" lon="11.0916279"><ele>47.0</ele><time>2026-03-24T08:12:43.631Z</time></trkpt><trkpt lat="45.4110022" lon="11.0918079"><ele>47.25</ele><time>2026-03-24T08:12:44.64Z</time></trkpt><trkpt lat="45.4110417" lon="11.0919828"><ele>47.5</ele><time>2026-03-24T08:12:45.638Z</time></trkpt><trkpt lat="45.4110691" lon="11.0921612"><ele>47.75</ele><time>2026-03-24T08:12:46.633Z</time></trkpt><trkpt lat="45.4110717" lon="11.0923393"><ele>48.0</ele><time>2026-03-24T08:12:47.64Z</time></trkpt><trkpt lat="45.4110746" lon="11.0925165"><ele>47.5</ele><time>2026-03-24T08:12:48.64Z</time></trkpt><trkpt lat="45.4110615" lon="11.092698"><ele>47.0</ele><time>2026-03-24T08:12:49.635Z</time></trkpt><trkpt lat="45.4110321" lon="11.0928698"><ele>46.5</ele><time>2026-03-24T08:12:50.645Z</time></trkpt><trkpt lat="45.4109846" lon="11.0930227"><ele>46.0</ele><time>2026-03-24T08:12:51.638Z</time></trkpt><trkpt lat="45.4109223" lon="11.0931604"><ele>45.75</ele><time>2026-03-24T08:12:52.643Z</time></trkpt><trkpt lat="45.4108442" lon="11.093278"><ele>45.5</ele><time>2026-03-24T08:12:53.635Z</time></trkpt><trkpt lat="45.4107472" lon="11.0933709"><ele>45.25</ele><time>2026-03-24T08:12:54.629Z</time></trkpt><trkpt lat="45.410637" lon="11.0934448"><ele>45.0</ele><time>2026-03-24T08:12:55.641Z</time></trkpt><trkpt lat="45.4105109" lon="11.0934861"><ele>44.75</ele><time>2026-03-24T08:12:56.627Z</time></trkpt><trkpt lat="45.4103771" lon="11.0934958"><ele>44.5</ele><time>2026-03-24T08:12:57.636Z</time></trkpt><trkpt lat="45.4102398" lon="11.0934656"><ele>44.25</ele><time>2026-03-24T08:12:58.635Z</time></trkpt><trkpt lat="45.410109" lon="11.0934071"><ele>44.0</ele><time>2026-03-24T08:12:59.636Z</time></trkpt><trkpt lat="45.4099974" lon="11.0932905"><ele>44.0</ele><time>2026-03-24T08:13:00.636Z</time></trkpt><trkpt lat="45.4099013" lon="11.0931404"><ele>44.0</ele><time>2026-03-24T08:13:01.631Z</time></trkpt><trkpt lat="45.4098338" lon="11.0929671"><ele>44.0</ele><time>2026-03-24T08:13:02.633Z</time></trkpt><trkpt lat="45.4097873" lon="11.0927959"><ele>44.0</ele><time>2026-03-24T08:13:03.623Z</time></trkpt><trkpt lat="45.4097722" lon="11.092617"><ele>44.0</ele><time>2026-03-24T08:13:04.639Z</time></trkpt><trkpt lat="45.4097763" lon="11.0924341"><ele>44.0</ele><time>2026-03-24T08:13:05.629Z</time></trkpt><trkpt lat="45.4097794" lon="11.0922663"><ele>44.0</ele><time>2026-03-24T08:13:06.625Z</time></trkpt><trkpt lat="45.4098432" lon="11.0921185"><ele>44.0</ele><time>2026-03-24T08:13:07.632Z</time></trkpt><trkpt lat="45.4099403" lon="11.091987"><ele>44.25</ele><time>2026-03-24T08:13:08.628Z</time></trkpt><trkpt lat="45.4100382" lon="11.0918704"><ele>44.5</ele><time>2026-03-24T08:13:09.63Z</time></trkpt><trkpt lat="45.4101711" lon="11.0917861"><ele>44.75</ele><time>2026-03-24T08:13:10.634Z</time></trkpt><trkpt lat="45.4103199" lon="11.0917216"><ele>45.0</ele><time>2026-03-24T08:13:11.643Z</time></trkpt><trkpt lat="45.4104686" lon="11.091657"><ele>45.666666666666664</ele><time>2026-03-24T08:13:12.648Z</time></trkpt><trkpt lat="45.4106273" lon="11.0916087"><ele>46.33333333333333</ele><time>2026-03-24T08:13:13.643Z</time></trkpt><trkpt lat="45.4107797" lon="11.0915557"><ele>47.0</ele><time>2026-03-24T08:13:14.643Z</time></trkpt><trkpt lat="45.4109031" lon="11.0914863"><ele>47.0</ele><time>2026-03-24T08:13:15.655Z</time></trkpt><trkpt lat="45.4110284" lon="11.0914322"><ele>47.0</ele><time>2026-03-24T08:13:16.639Z</time></trkpt><trkpt lat="45.4111143" lon="11.0913842"><ele>47.0</ele><time>2026-03-24T08:13:17.647Z</time></trkpt><trkpt lat="45.4112142" lon="11.0913297"><ele>47.0</ele><time>2026-03-24T08:13:18.652Z</time></trkpt><trkpt lat="45.4112906" lon="11.0912907"><ele>47.0</ele><time>2026-03-24T08:13:19.642Z</time></trkpt><trkpt lat="45.4113673" lon="11.091246"><ele>47.0</ele><time>2026-03-24T08:13:20.644Z</time></trkpt><trkpt lat="45.4114516" lon="11.0911962"><ele>47.0</ele><time>2026-03-24T08:13:21.648Z</time></trkpt><trkpt lat="45.4115547" lon="11.0911286"><ele>47.0</ele><time>2026-03-24T08:13:22.652Z</time></trkpt><trkpt lat="45.4116506" lon="11.091039"><ele>47.0</ele><time>2026-03-24T08:13:23.644Z</time></trkpt><trkpt lat="45.4117453" lon="11.090929"><ele>47.0</ele><time>2026-03-24T08:13:24.649Z</time></trkpt><trkpt lat="45.4118389" lon="11.0908079"><ele>46.5</ele><time>2026-03-24T08:13:25.649Z</time></trkpt><trkpt lat="45.4119368" lon="11.090677"><ele>46.0</ele><time>2026-03-24T08:13:26.638Z</time></trkpt><trkpt lat="45.4120285" lon="11.0905525"><ele>45.5</ele><time>2026-03-24T08:13:27.643Z</time></trkpt><trkpt lat="45.412119" lon="11.0904392"><ele>45.0</ele><time>2026-03-24T08:13:28.63Z</time></trkpt><trkpt lat="45.4122078" lon="11.0903335"><ele>44.8</ele><time>2026-03-24T08:13:29.646Z</time></trkpt><trkpt lat="45.4122886" lon="11.0902323"><ele>44.6</ele><time>2026-03-24T08:13:30.641Z</time></trkpt><trkpt lat="45.4123628" lon="11.090135"><ele>44.400000000000006</ele><time>2026-03-24T08:13:31.644Z</time></trkpt><trkpt lat="45.4124349" lon="11.0900377"><ele>44.2</ele><time>2026-03-24T08:13:32.641Z</time></trkpt><trkpt lat="45.4125048" lon="11.0899357"><ele>44.0</ele><time>2026-03-24T08:13:33.633Z</time></trkpt><trkpt lat="45.4125803" lon="11.0898331"><ele>44.400000000000006</ele><time>2026-03-24T08:13:34.638Z</time></trkpt><trkpt lat="45.4126519" lon="11.0897336"><ele>44.8</ele><time>2026-03-24T08:13:35.639Z</time></trkpt><trkpt lat="45.412724" lon="11.0896323"><ele>45.2</ele><time>2026-03-24T08:13:36.634Z</time></trkpt><trkpt lat="45.4127925" lon="11.0895446"><ele>45.599999999999994</ele><time>2026-03-24T08:13:37.647Z</time></trkpt><trkpt lat="45.4128601" lon="11.0894574"><ele>46.0</ele><time>2026-03-24T08:13:38.644Z</time></trkpt><trkpt lat="45.4129212" lon="11.0893711"><ele>46.0</ele><time>2026-03-24T08:13:39.64Z</time></trkpt><trkpt lat="45.4129744" lon="11.089294"><ele>46.0</ele><time>2026-03-24T08:13:40.643Z</time></trkpt><trkpt lat="45.4130259" lon="11.0892263"><ele>46.0</ele><time>2026-03-24T08:13:41.639Z</time></trkpt><trkpt lat="45.4130745" lon="11.0891601"><ele>46.0</ele><time>2026-03-24T08:13:42.644Z</time></trkpt><trkpt lat="45.4131712" lon="11.0890428"><ele>46.0</ele><time>2026-03-24T08:13:44.642Z</time></trkpt><trkpt lat="45.4132193" lon="11.0889662"><ele>46.0</ele><time>2026-03-24T08:13:45.626Z</time></trkpt><trkpt lat="45.4132658" lon="11.0888968"><ele>45.8</ele><time>2026-03-24T08:13:46.634Z</time></trkpt><trkpt lat="45.4133506" lon="11.0887991"><ele>45.599999999999994</ele><time>2026-03-24T08:13:48.63Z</time></trkpt><trkpt lat="45.4134365" lon="11.0887614"><ele>45.4</ele><time>2026-03-24T08:13:51.633Z</time></trkpt><trkpt lat="45.4135538" lon="11.0887861"><ele>45.2</ele><time>2026-03-24T08:13:53.64Z</time></trkpt><trkpt lat="45.4136611" lon="11.0887929"><ele>45.0</ele><time>2026-03-24T08:13:55.639Z</time></trkpt><trkpt lat="45.4137168" lon="11.088739"><ele>45.0</ele><time>2026-03-24T08:13:57.639Z</time></trkpt><trkpt lat="45.4137156" lon="11.0886344"><ele>45.0</ele><time>2026-03-24T08:18:34.644Z</time></trkpt><trkpt lat="45.4137192" lon="11.0884898"><ele>45.0</ele><time>2026-03-24T08:18:36.641Z</time></trkpt><trkpt lat="45.4137242" lon="11.0883984"><ele>45.0</ele><time>2026-03-24T08:18:37.642Z</time></trkpt><trkpt lat="45.413751" lon="11.0882416"><ele>45.0</ele><time>2026-03-24T08:18:39.647Z</time></trkpt><trkpt lat="45.4137795" lon="11.0881557"><ele>45.0</ele><time>2026-03-24T08:18:40.639Z</time></trkpt><trkpt lat="45.4138149" lon="11.0880594"><ele>45.0</ele><time>2026-03-24T08:18:41.641Z</time></trkpt><trkpt lat="45.4138708" lon="11.0879507"><ele>45.0</ele><time>2026-03-24T08:18:42.649Z</time></trkpt><trkpt lat="45.4139362" lon="11.0878388"><ele>45.0</ele><time>2026-03-24T08:18:43.634Z</time></trkpt><trkpt lat="45.4140038" lon="11.0877193"><ele>45.0</ele><time>2026-03-24T08:18:44.64Z</time></trkpt><trkpt lat="45.414072" lon="11.0876037"><ele>45.0</ele><time>2026-03-24T08:18:45.642Z</time></trkpt><trkpt lat="45.4141365" lon="11.0874816"><ele>45.0</ele><time>2026-03-24T08:18:46.639Z</time></trkpt><trkpt lat="45.4141996" lon="11.0873611"><ele>45.0</ele><time>2026-03-24T08:18:47.651Z</time></trkpt><trkpt lat="45.4142713" lon="11.087236"><ele>45.0</ele><time>2026-03-24T08:18:48.647Z</time></trkpt><trkpt lat="45.4143506" lon="11.0871072"><ele>45.0</ele><time>2026-03-24T08:18:49.635Z</time></trkpt><trkpt lat="45.4144225" lon="11.0869929"><ele>45.0</ele><time>2026-03-24T08:18:50.642Z</time></trkpt><trkpt lat="45.4144859" lon="11.0868962"><ele>45.0</ele><time>2026-03-24T08:18:51.64Z</time></trkpt><trkpt lat="45.4145404" lon="11.0868153"><ele>45.0</ele><time>2026-03-24T08:18:52.641Z</time></trkpt><trkpt lat="45.4145841" lon="11.0867451"><ele>45.0</ele><time>2026-03-24T08:18:53.64Z</time></trkpt><trkpt lat="45.4146359" lon="11.0866545"><ele>45.0</ele><time>2026-03-24T08:18:55.645Z</time></trkpt><trkpt lat="45.4146797" lon="11.0865829"><ele>45.0</ele><time>2026-03-24T08:18:57.651Z</time></trkpt><trkpt lat="45.4147262" lon="11.0865139"><ele>45.0</ele><time>2026-03-24T08:18:59.651Z</time></trkpt><trkpt lat="45.414769" lon="11.0864367"><ele>45.0</ele><time>2026-03-24T08:19:01.654Z</time></trkpt><trkpt lat="45.414827" lon="11.0863674"><ele>45.166666666666664</ele><time>2026-03-24T08:19:04.647Z</time></trkpt><trkpt lat="45.4148808" lon="11.0862881"><ele>45.333333333333336</ele><time>2026-03-24T08:19:10.655Z</time></trkpt><trkpt lat="45.4149201" lon="11.0862093"><ele>45.5</ele><time>2026-03-24T08:19:13.656Z</time></trkpt><trkpt lat="45.4149793" lon="11.0861041"><ele>45.66666666666667</ele><time>2026-03-24T08:19:16.655Z</time></trkpt><trkpt lat="45.4150296" lon="11.0860269"><ele>45.833333333333336</ele><time>2026-03-24T08:19:18.651Z</time></trkpt><trkpt lat="45.4150881" lon="11.0859598"><ele>46.0</ele><time>2026-03-24T08:19:20.65Z</time></trkpt><trkpt lat="45.415136" lon="11.0858777"><ele>46.0</ele><time>2026-03-24T08:19:22.653Z</time></trkpt><trkpt lat="45.4151746" lon="11.0857914"><ele>46.0</ele><time>2026-03-24T08:19:24.661Z</time></trkpt><trkpt lat="45.4152241" lon="11.0856993"><ele>46.0</ele><time>2026-03-24T08:19:26.651Z</time></trkpt><trkpt lat="45.4152835" lon="11.085585"><ele>46.0</ele><time>2026-03-24T08:19:28.648Z</time></trkpt><trkpt lat="45.4153274" lon="11.0855109"><ele>46.0</ele><time>2026-03-24T08:19:29.65Z</time></trkpt><trkpt lat="45.4153707" lon="11.0854368"><ele>46.0</ele><time>2026-03-24T08:19:30.647Z</time></trkpt><trkpt lat="45.415414" lon="11.0853704"><ele>45.833333333333336</ele><time>2026-03-24T08:19:31.648Z</time></trkpt><trkpt lat="45.4154724" lon="11.0852913"><ele>45.66666666666667</ele><time>2026-03-24T08:19:33.643Z</time></trkpt><trkpt lat="45.4155431" lon="11.0852157"><ele>45.5</ele><time>2026-03-24T08:19:36.648Z</time></trkpt><trkpt lat="45.4155852" lon="11.0851439"><ele>45.333333333333336</ele><time>2026-03-24T08:19:39.654Z</time></trkpt><trkpt lat="45.4156366" lon="11.0850298"><ele>45.166666666666664</ele><time>2026-03-24T08:19:42.658Z</time></trkpt><trkpt lat="45.4156988" lon="11.0849213"><ele>45.0</ele><time>2026-03-24T08:19:44.648Z</time></trkpt><trkpt lat="45.4157914" lon="11.0847764"><ele>45.333333333333336</ele><time>2026-03-24T08:19:46.644Z</time></trkpt><trkpt lat="45.4158429" lon="11.0847013"><ele>45.666666666666664</ele><time>2026-03-24T08:19:47.646Z</time></trkpt><trkpt lat="45.4159258" lon="11.0845732"><ele>46.0</ele><time>2026-03-24T08:19:49.64Z</time></trkpt><trkpt lat="45.4159903" lon="11.0844613"><ele>46.33333333333333</ele><time>2026-03-24T08:19:51.644Z</time></trkpt><trkpt lat="45.416045" lon="11.0843707"><ele>46.666666666666664</ele><time>2026-03-24T08:19:53.652Z</time></trkpt><trkpt lat="45.4160863" lon="11.0843002"><ele>47.0</ele><time>2026-03-24T08:19:58.643Z</time></trkpt><trkpt lat="45.4161427" lon="11.0842097"><ele>47.0</ele><time>2026-03-24T08:20:01.654Z</time></trkpt><trkpt lat="45.4161859" lon="11.0841089"><ele>47.0</ele><time>2026-03-24T08:20:06.654Z</time></trkpt><trkpt lat="45.4162279" lon="11.0840203"><ele>47.0</ele><time>2026-03-24T08:20:10.652Z</time></trkpt><trkpt lat="45.4162796" lon="11.0839258"><ele>47.0</ele><time>2026-03-24T08:20:13.652Z</time></trkpt><trkpt lat="45.4163359" lon="11.0838206"><ele>47.0</ele><time>2026-03-24T08:20:16.651Z</time></trkpt><trkpt lat="45.4164063" lon="11.0837115"><ele>47.0</ele><time>2026-03-24T08:20:18.653Z</time></trkpt><trkpt lat="45.4164684" lon="11.0836166"><ele>47.25</ele><time>2026-03-24T08:20:19.646Z</time></trkpt><trkpt lat="45.4165414" lon="11.083493"><ele>47.5</ele><time>2026-03-24T08:20:20.651Z</time></trkpt><trkpt lat="45.4166286" lon="11.0833441"><ele>47.75</ele><time>2026-03-24T08:20:21.651Z</time></trkpt><trkpt lat="45.4167266" lon="11.0831796"><ele>48.0</ele><time>2026-03-24T08:20:22.649Z</time></trkpt><trkpt lat="45.4168557" lon="11.0830026"><ele>48.0</ele><time>2026-03-24T08:20:23.652Z</time></trkpt><trkpt lat="45.4169722" lon="11.0828335"><ele>48.0</ele><time>2026-03-24T08:20:24.651Z</time></trkpt><trkpt lat="45.417068" lon="11.0826473"><ele>48.0</ele><time>2026-03-24T08:20:25.644Z</time></trkpt><trkpt lat="45.4171842" lon="11.0825091"><ele>47.0</ele><time>2026-03-24T08:20:26.653Z</time></trkpt><trkpt lat="45.4172784" lon="11.0823645"><ele>46.0</ele><time>2026-03-24T08:20:27.656Z</time></trkpt><trkpt lat="45.4173744" lon="11.082219"><ele>45.0</ele><time>2026-03-24T08:20:28.641Z</time></trkpt><trkpt lat="45.4174636" lon="11.0820698"><ele>44.0</ele><time>2026-03-24T08:20:29.649Z</time></trkpt><trkpt lat="45.4175463" lon="11.0819379"><ele>44.0</ele><time>2026-03-24T08:20:30.645Z</time></trkpt><trkpt lat="45.4176359" lon="11.0818086"><ele>44.0</ele><time>2026-03-24T08:20:31.653Z</time></trkpt><trkpt lat="45.4177048" lon="11.081694"><ele>44.0</ele><time>2026-03-24T08:20:32.652Z</time></trkpt><trkpt lat="45.4177629" lon="11.0815668"><ele>44.0</ele><time>2026-03-24T08:20:33.644Z</time></trkpt><trkpt lat="45.4178258" lon="11.0814593"><ele>44.0</ele><time>2026-03-24T08:20:34.648Z</time></trkpt><trkpt lat="45.4178817" lon="11.0813642"><ele>44.166666666666664</ele><time>2026-03-24T08:20:35.639Z</time></trkpt><trkpt lat="45.4179377" lon="11.0812725"><ele>44.33333333333333</ele><time>2026-03-24T08:20:36.642Z</time></trkpt><trkpt lat="45.4179941" lon="11.0811776"><ele>44.5</ele><time>2026-03-24T08:20:37.647Z</time></trkpt><trkpt lat="45.4180373" lon="11.0810809"><ele>44.666666666666664</ele><time>2026-03-24T08:20:38.645Z</time></trkpt><trkpt lat="45.4180823" lon="11.0809987"><ele>44.833333333333336</ele><time>2026-03-24T08:20:39.644Z</time></trkpt><trkpt lat="45.4181308" lon="11.0809167"><ele>45.0</ele><time>2026-03-24T08:20:41.658Z</time></trkpt><trkpt lat="45.4182061" lon="11.0808494"><ele>45.0</ele><time>2026-03-24T08:20:44.646Z</time></trkpt><trkpt lat="45.4183045" lon="11.080781"><ele>45.0</ele><time>2026-03-24T08:20:46.64Z</time></trkpt><trkpt lat="45.4183731" lon="11.080756"><ele>45.0</ele><time>2026-03-24T08:20:47.649Z</time></trkpt><trkpt lat="45.4184518" lon="11.080733"><ele>45.0</ele><time>2026-03-24T08:20:48.643Z</time></trkpt><trkpt lat="45.4185312" lon="11.0806956"><ele>45.0</ele><time>2026-03-24T08:20:49.64Z</time></trkpt><trkpt lat="45.4186041" lon="11.0806306"><ele>45.0</ele><time>2026-03-24T08:20:50.635Z</time></trkpt><trkpt lat="45.4186625" lon="11.0805436"><ele>44.6</ele><time>2026-03-24T08:20:51.638Z</time></trkpt><trkpt lat="45.4187018" lon="11.0804331"><ele>44.2</ele><time>2026-03-24T08:20:52.631Z</time></trkpt><trkpt lat="45.4187166" lon="11.0803073"><ele>43.8</ele><time>2026-03-24T08:20:53.636Z</time></trkpt><trkpt lat="45.4187161" lon="11.0801649"><ele>43.4</ele><time>2026-03-24T08:20:54.646Z</time></trkpt><trkpt lat="45.4187209" lon="11.0800058"><ele>43.0</ele><time>2026-03-24T08:20:55.636Z</time></trkpt><trkpt lat="45.4187518" lon="11.0798515"><ele>43.0</ele><time>2026-03-24T08:20:56.637Z</time></trkpt><trkpt lat="45.4188157" lon="11.0796955"><ele>43.0</ele><time>2026-03-24T08:20:57.645Z</time></trkpt><trkpt lat="45.4189026" lon="11.0795384"><ele>43.0</ele><time>2026-03-24T08:20:58.644Z</time></trkpt><trkpt lat="45.4190044" lon="11.0793788"><ele>43.0</ele><time>2026-03-24T08:20:59.647Z</time></trkpt><trkpt lat="45.4191252" lon="11.0792047"><ele>43.0</ele><time>2026-03-24T08:21:00.651Z</time></trkpt><trkpt lat="45.419233" lon="11.0790254"><ele>43.0</ele><time>2026-03-24T08:21:01.648Z</time></trkpt><trkpt lat="45.4193307" lon="11.0788694"><ele>43.0</ele><time>2026-03-24T08:21:02.655Z</time></trkpt><trkpt lat="45.419413" lon="11.0787099"><ele>43.0</ele><time>2026-03-24T08:21:03.654Z</time></trkpt><trkpt lat="45.4195092" lon="11.0785346"><ele>43.0</ele><time>2026-03-24T08:21:04.647Z</time></trkpt><trkpt lat="45.4196037" lon="11.0783559"><ele>43.0</ele><time>2026-03-24T08:21:05.65Z</time></trkpt><trkpt lat="45.419713" lon="11.0781837"><ele>43.66666666666667</ele><time>2026-03-24T08:21:06.649Z</time></trkpt><trkpt lat="45.4198209" lon="11.0779883"><ele>44.333333333333336</ele><time>2026-03-24T08:21:07.647Z</time></trkpt><trkpt lat="45.4199275" lon="11.0778001"><ele>45.0</ele><time>2026-03-24T08:21:08.652Z</time></trkpt><trkpt lat="45.4200428" lon="11.0776182"><ele>44.666666666666664</ele><time>2026-03-24T08:21:09.648Z</time></trkpt><trkpt lat="45.4201708" lon="11.0774135"><ele>44.33333333333333</ele><time>2026-03-24T08:21:10.647Z</time></trkpt><trkpt lat="45.420302" lon="11.0772094"><ele>44.0</ele><time>2026-03-24T08:21:11.648Z</time></trkpt><trkpt lat="45.4204418" lon="11.0769988"><ele>44.0</ele><time>2026-03-24T08:21:12.653Z</time></trkpt><trkpt lat="45.4205625" lon="11.0767873"><ele>44.0</ele><time>2026-03-24T08:21:13.647Z</time></trkpt><trkpt lat="45.4206853" lon="11.0765741"><ele>44.0</ele><time>2026-03-24T08:21:14.651Z</time></trkpt><trkpt lat="45.4208176" lon="11.0763463"><ele>44.33333333333333</ele><time>2026-03-24T08:21:15.653Z</time></trkpt><trkpt lat="45.4209728" lon="11.0761315"><ele>44.666666666666664</ele><time>2026-03-24T08:21:16.651Z</time></trkpt><trkpt lat="45.4211058" lon="11.0759026"><ele>45.0</ele><time>2026-03-24T08:21:17.647Z</time></trkpt><trkpt lat="45.4212455" lon="11.0756721"><ele>45.666666666666664</ele><time>2026-03-24T08:21:18.652Z</time></trkpt><trkpt lat="45.421376" lon="11.0754429"><ele>46.33333333333333</ele><time>2026-03-24T08:21:19.652Z</time></trkpt><trkpt lat="45.4215294" lon="11.0752105"><ele>47.0</ele><time>2026-03-24T08:21:20.649Z</time></trkpt><trkpt lat="45.4216598" lon="11.0749746"><ele>47.33333333333333</ele><time>2026-03-24T08:21:21.652Z</time></trkpt><trkpt lat="45.4217993" lon="11.07474"><ele>47.666666666666664</ele><time>2026-03-24T08:21:22.643Z</time></trkpt><trkpt lat="45.421943" lon="11.0744954"><ele>48.0</ele><time>2026-03-24T08:21:23.647Z</time></trkpt><trkpt lat="45.4220801" lon="11.0742449"><ele>47.666666666666664</ele><time>2026-03-24T08:21:24.65Z</time></trkpt><trkpt lat="45.4222205" lon="11.0740069"><ele>47.33333333333333</ele><time>2026-03-24T08:21:25.646Z</time></trkpt><trkpt lat="45.4223778" lon="11.0737666"><ele>47.0</ele><time>2026-03-24T08:21:26.646Z</time></trkpt><trkpt lat="45.4225264" lon="11.0735202"><ele>46.5</ele><time>2026-03-24T08:21:27.653Z</time></trkpt><trkpt lat="45.4226855" lon="11.0732667"><ele>46.0</ele><time>2026-03-24T08:21:28.645Z</time></trkpt><trkpt lat="45.4228271" lon="11.0730127"><ele>46.0</ele><time>2026-03-24T08:21:29.651Z</time></trkpt><trkpt lat="45.4229773" lon="11.0727442"><ele>46.0</ele><time>2026-03-24T08:21:30.646Z</time></trkpt><trkpt lat="45.4231402" lon="11.0724775"><ele>47.0</ele><time>2026-03-24T08:21:31.655Z</time></trkpt><trkpt lat="45.4233024" lon="11.0722083"><ele>48.0</ele><time>2026-03-24T08:21:32.647Z</time></trkpt><trkpt lat="45.4234592" lon="11.0719595"><ele>48.0</ele><time>2026-03-24T08:21:33.654Z</time></trkpt><trkpt lat="45.4236042" lon="11.0716936"><ele>48.0</ele><time>2026-03-24T08:21:34.647Z</time></trkpt><trkpt lat="45.423755" lon="11.0714364"><ele>48.5</ele><time>2026-03-24T08:21:35.653Z</time></trkpt><trkpt lat="45.4238953" lon="11.0711856"><ele>49.0</ele><time>2026-03-24T08:21:36.651Z</time></trkpt><trkpt lat="45.4240442" lon="11.0709132"><ele>48.0</ele><time>2026-03-24T08:21:37.648Z</time></trkpt><trkpt lat="45.4242115" lon="11.0706496"><ele>47.0</ele><time>2026-03-24T08:21:38.651Z</time></trkpt><trkpt lat="45.424372" lon="11.0703871"><ele>47.0</ele><time>2026-03-24T08:21:39.651Z</time></trkpt><trkpt lat="45.4245336" lon="11.0701134"><ele>47.0</ele><time>2026-03-24T08:21:40.646Z</time></trkpt><trkpt lat="45.4246906" lon="11.0698534"><ele>47.0</ele><time>2026-03-24T08:21:41.651Z</time></trkpt><trkpt lat="45.4248421" lon="11.0695831"><ele>47.0</ele><time>2026-03-24T08:21:42.652Z</time></trkpt><trkpt lat="45.4250145" lon="11.0693098"><ele>46.5</ele><time>2026-03-24T08:21:43.649Z</time></trkpt><trkpt lat="45.4251723" lon="11.0690364"><ele>46.0</ele><time>2026-03-24T08:21:44.648Z</time></trkpt><trkpt lat="45.4253355" lon="11.0687507"><ele>46.5</ele><time>2026-03-24T08:21:45.644Z</time></trkpt><trkpt lat="45.4254986" lon="11.0684643"><ele>47.0</ele><time>2026-03-24T08:21:46.647Z</time></trkpt><trkpt lat="45.4256697" lon="11.0682048"><ele>46.0</ele><time>2026-03-24T08:21:47.652Z</time></trkpt><trkpt lat="45.4258421" lon="11.0679416"><ele>45.0</ele><time>2026-03-24T08:21:48.646Z</time></trkpt><trkpt lat="45.4259955" lon="11.0676906"><ele>45.0</ele><time>2026-03-24T08:21:49.643Z</time></trkpt><trkpt lat="45.4261158" lon="11.06749"><ele>45.0</ele><time>2026-03-24T08:21:50.647Z</time></trkpt><trkpt lat="45.4262186" lon="11.0673125"><ele>45.0</ele><time>2026-03-24T08:21:51.646Z</time></trkpt><trkpt lat="45.4263286" lon="11.0671409"><ele>46.33333333333333</ele><time>2026-03-24T08:21:52.653Z</time></trkpt><trkpt lat="45.426435" lon="11.066979"><ele>47.666666666666664</ele><time>2026-03-24T08:21:53.641Z</time></trkpt><trkpt lat="45.4265495" lon="11.0668148"><ele>49.0</ele><time>2026-03-24T08:21:54.643Z</time></trkpt><trkpt lat="45.426678" lon="11.0666375"><ele>48.666666666666664</ele><time>2026-03-24T08:21:55.637Z</time></trkpt><trkpt lat="45.4268067" lon="11.0664714"><ele>48.33333333333333</ele><time>2026-03-24T08:21:56.642Z</time></trkpt><trkpt lat="45.4269426" lon="11.066304"><ele>48.0</ele><time>2026-03-24T08:21:57.648Z</time></trkpt><trkpt lat="45.4270873" lon="11.0661298"><ele>48.66666666666667</ele><time>2026-03-24T08:21:58.639Z</time></trkpt><trkpt lat="45.4272358" lon="11.0659464"><ele>49.333333333333336</ele><time>2026-03-24T08:21:59.648Z</time></trkpt><trkpt lat="45.4273944" lon="11.065777"><ele>50.0</ele><time>2026-03-24T08:22:00.642Z</time></trkpt><trkpt lat="45.4275632" lon="11.0656092"><ele>50.333333333333336</ele><time>2026-03-24T08:22:01.646Z</time></trkpt><trkpt lat="45.4277193" lon="11.0654372"><ele>50.66666666666667</ele><time>2026-03-24T08:22:02.642Z</time></trkpt><trkpt lat="45.4278772" lon="11.0652708"><ele>51.0</ele><time>2026-03-24T08:22:03.642Z</time></trkpt><trkpt lat="45.4280603" lon="11.0650921"><ele>49.5</ele><time>2026-03-24T08:22:04.634Z</time></trkpt><trkpt lat="45.4282621" lon="11.064914"><ele>48.0</ele><time>2026-03-24T08:22:05.64Z</time></trkpt><trkpt lat="45.4284691" lon="11.0647516"><ele>48.0</ele><time>2026-03-24T08:22:06.637Z</time></trkpt><trkpt lat="45.4286943" lon="11.0645893"><ele>48.0</ele><time>2026-03-24T08:22:07.631Z</time></trkpt><trkpt lat="45.4289194" lon="11.0644473"><ele>49.0</ele><time>2026-03-24T08:22:08.634Z</time></trkpt><trkpt lat="45.4291432" lon="11.0643126"><ele>50.0</ele><time>2026-03-24T08:22:09.636Z</time></trkpt><trkpt lat="45.4293799" lon="11.0642028"><ele>49.5</ele><time>2026-03-24T08:22:10.627Z</time></trkpt><trkpt lat="45.4296124" lon="11.064093"><ele>49.0</ele><time>2026-03-24T08:22:11.628Z</time></trkpt><trkpt lat="45.4298456" lon="11.0640088"><ele>50.0</ele><time>2026-03-24T08:22:12.64Z</time></trkpt><trkpt lat="45.4300977" lon="11.0639292"><ele>51.0</ele><time>2026-03-24T08:22:13.631Z</time></trkpt><trkpt lat="45.4303399" lon="11.0638392"><ele>51.5</ele><time>2026-03-24T08:22:14.649Z</time></trkpt><trkpt lat="45.4305601" lon="11.0637437"><ele>52.0</ele><time>2026-03-24T08:22:15.639Z</time></trkpt><trkpt lat="45.4307716" lon="11.0636493"><ele>52.0</ele><time>2026-03-24T08:22:16.627Z</time></trkpt><trkpt lat="45.4309783" lon="11.0635269"><ele>52.0</ele><time>2026-03-24T08:22:17.631Z</time></trkpt><trkpt lat="45.4311801" lon="11.063397"><ele>52.0</ele><time>2026-03-24T08:22:18.639Z</time></trkpt><trkpt lat="45.4313711" lon="11.0632554"><ele>53.0</ele><time>2026-03-24T08:22:19.633Z</time></trkpt><trkpt lat="45.4315594" lon="11.0631089"><ele>54.0</ele><time>2026-03-24T08:22:20.637Z</time></trkpt><trkpt lat="45.4317389" lon="11.0629658"><ele>55.0</ele><time>2026-03-24T08:22:21.637Z</time></trkpt><trkpt lat="45.4319175" lon="11.0628197"><ele>55.0</ele><time>2026-03-24T08:22:22.631Z</time></trkpt><trkpt lat="45.4320989" lon="11.0626847"><ele>55.0</ele><time>2026-03-24T08:22:23.646Z</time></trkpt><trkpt lat="45.4322842" lon="11.0625571"><ele>55.0</ele><time>2026-03-24T08:22:24.642Z</time></trkpt><trkpt lat="45.4324773" lon="11.0624311"><ele>55.33333333333333</ele><time>2026-03-24T08:22:25.631Z</time></trkpt><trkpt lat="45.4326732" lon="11.0623008"><ele>55.66666666666667</ele><time>2026-03-24T08:22:26.639Z</time></trkpt><trkpt lat="45.4328671" lon="11.0621632"><ele>56.0</ele><time>2026-03-24T08:22:27.644Z</time></trkpt><trkpt lat="45.4330772" lon="11.0620142"><ele>56.0</ele><time>2026-03-24T08:22:28.633Z</time></trkpt><trkpt lat="45.4332758" lon="11.0618581"><ele>56.0</ele><time>2026-03-24T08:22:29.641Z</time></trkpt><trkpt lat="45.4334702" lon="11.0617068"><ele>56.0</ele><time>2026-03-24T08:22:30.645Z</time></trkpt><trkpt lat="45.433668" lon="11.0615517"><ele>55.66666666666667</ele><time>2026-03-24T08:22:31.636Z</time></trkpt><trkpt lat="45.4338692" lon="11.0614082"><ele>55.33333333333333</ele><time>2026-03-24T08:22:32.643Z</time></trkpt><trkpt lat="45.434066" lon="11.0612659"><ele>55.0</ele><time>2026-03-24T08:22:33.642Z</time></trkpt><trkpt lat="45.4342605" lon="11.061098"><ele>55.0</ele><time>2026-03-24T08:22:34.631Z</time></trkpt><trkpt lat="45.4344665" lon="11.0609391"><ele>55.0</ele><time>2026-03-24T08:22:35.641Z</time></trkpt><trkpt lat="45.4346755" lon="11.0607891"><ele>55.5</ele><time>2026-03-24T08:22:36.633Z</time></trkpt><trkpt lat="45.4348908" lon="11.0606235"><ele>56.0</ele><time>2026-03-24T08:22:37.627Z</time></trkpt><trkpt lat="45.4351065" lon="11.0604686"><ele>56.0</ele><time>2026-03-24T08:22:38.638Z</time></trkpt><trkpt lat="45.4352975" lon="11.0603166"><ele>56.0</ele><time>2026-03-24T08:22:39.64Z</time></trkpt><trkpt lat="45.4354894" lon="11.0601723"><ele>56.0</ele><time>2026-03-24T08:22:40.631Z</time></trkpt><trkpt lat="45.4356904" lon="11.0600364"><ele>56.66666666666667</ele><time>2026-03-24T08:22:41.634Z</time></trkpt><trkpt lat="45.4358779" lon="11.0598986"><ele>57.33333333333333</ele><time>2026-03-24T08:22:42.634Z</time></trkpt><trkpt lat="45.4360573" lon="11.059759"><ele>58.0</ele><time>2026-03-24T08:22:43.629Z</time></trkpt><trkpt lat="45.436223" lon="11.0596235"><ele>57.0</ele><time>2026-03-24T08:22:44.63Z</time></trkpt><trkpt lat="45.4364036" lon="11.0595005"><ele>56.0</ele><time>2026-03-24T08:22:45.639Z</time></trkpt><trkpt lat="45.4365867" lon="11.0593679"><ele>55.0</ele><time>2026-03-24T08:22:46.632Z</time></trkpt><trkpt lat="45.4367526" lon="11.0592214"><ele>55.0</ele><time>2026-03-24T08:22:47.645Z</time></trkpt><trkpt lat="45.4369249" lon="11.0590758"><ele>55.0</ele><time>2026-03-24T08:22:48.637Z</time></trkpt><trkpt lat="45.4371056" lon="11.0589273"><ele>55.0</ele><time>2026-03-24T08:22:49.638Z</time></trkpt><trkpt lat="45.437285" lon="11.058791"><ele>55.0</ele><time>2026-03-24T08:22:50.641Z</time></trkpt><trkpt lat="45.4374637" lon="11.0586529"><ele>55.0</ele><time>2026-03-24T08:22:51.641Z</time></trkpt><trkpt lat="45.4376406" lon="11.0585112"><ele>55.0</ele><time>2026-03-24T08:22:52.639Z</time></trkpt><trkpt lat="45.4378154" lon="11.0583782"><ele>56.0</ele><time>2026-03-24T08:22:53.638Z</time></trkpt><trkpt lat="45.4379713" lon="11.0582508"><ele>57.0</ele><time>2026-03-24T08:22:54.647Z</time></trkpt><trkpt lat="45.4381395" lon="11.0581196"><ele>58.0</ele><time>2026-03-24T08:22:55.639Z</time></trkpt><trkpt lat="45.4383141" lon="11.057986"><ele>58.0</ele><time>2026-03-24T08:22:56.646Z</time></trkpt><trkpt lat="45.4384859" lon="11.0578499"><ele>58.0</ele><time>2026-03-24T08:22:57.652Z</time></trkpt><trkpt lat="45.4386703" lon="11.057713"><ele>58.0</ele><time>2026-03-24T08:22:58.647Z</time></trkpt><trkpt lat="45.4388508" lon="11.0575836"><ele>58.0</ele><time>2026-03-24T08:22:59.644Z</time></trkpt><trkpt lat="45.4390307" lon="11.0574518"><ele>58.0</ele><time>2026-03-24T08:23:00.642Z</time></trkpt><trkpt lat="45.4392029" lon="11.0573113"><ele>58.0</ele><time>2026-03-24T08:23:01.652Z</time></trkpt><trkpt lat="45.4393628" lon="11.0571801"><ele>58.0</ele><time>2026-03-24T08:23:02.648Z</time></trkpt><trkpt lat="45.4395138" lon="11.0570556"><ele>58.0</ele><time>2026-03-24T08:23:03.646Z</time></trkpt><trkpt lat="45.4396666" lon="11.0569378"><ele>58.0</ele><time>2026-03-24T08:23:04.635Z</time></trkpt><trkpt lat="45.4398185" lon="11.0568197"><ele>57.666666666666664</ele><time>2026-03-24T08:23:05.635Z</time></trkpt><trkpt lat="45.4399741" lon="11.0566997"><ele>57.33333333333333</ele><time>2026-03-24T08:23:06.64Z</time></trkpt><trkpt lat="45.4401243" lon="11.0565892"><ele>57.0</ele><time>2026-03-24T08:23:07.638Z</time></trkpt><trkpt lat="45.4402756" lon="11.0564785"><ele>56.33333333333333</ele><time>2026-03-24T08:23:08.636Z</time></trkpt><trkpt lat="45.4404248" lon="11.0563605"><ele>55.666666666666664</ele><time>2026-03-24T08:23:09.637Z</time></trkpt><trkpt lat="45.4405767" lon="11.0562539"><ele>55.0</ele><time>2026-03-24T08:23:10.634Z</time></trkpt><trkpt lat="45.44072" lon="11.0561638"><ele>55.0</ele><time>2026-03-24T08:23:11.642Z</time></trkpt><trkpt lat="45.4408486" lon="11.0560807"><ele>55.0</ele><time>2026-03-24T08:23:12.645Z</time></trkpt><trkpt lat="45.4409673" lon="11.0559971"><ele>55.0</ele><time>2026-03-24T08:23:13.632Z</time></trkpt><trkpt lat="45.4410559" lon="11.0559223"><ele>55.0</ele><time>2026-03-24T08:23:14.642Z</time></trkpt><trkpt lat="45.4411381" lon="11.0558648"><ele>55.0</ele><time>2026-03-24T08:23:15.641Z</time></trkpt><trkpt lat="45.441232" lon="11.0558248"><ele>55.0</ele><time>2026-03-24T08:23:16.64Z</time></trkpt><trkpt lat="45.4413319" lon="11.0558297"><ele>55.0</ele><time>2026-03-24T08:23:17.628Z</time></trkpt><trkpt lat="45.4414208" lon="11.0558742"><ele>55.0</ele><time>2026-03-24T08:23:18.633Z</time></trkpt><trkpt lat="45.4415161" lon="11.0559873"><ele>55.0</ele><time>2026-03-24T08:23:19.632Z</time></trkpt><trkpt lat="45.4416114" lon="11.0561527"><ele>54.8</ele><time>2026-03-24T08:23:20.635Z</time></trkpt><trkpt lat="45.4416738" lon="11.0562771"><ele>54.6</ele><time>2026-03-24T08:23:21.637Z</time></trkpt><trkpt lat="45.4417223" lon="11.0564111"><ele>54.400000000000006</ele><time>2026-03-24T08:23:22.631Z</time></trkpt><trkpt lat="45.4417391" lon="11.056557"><ele>54.2</ele><time>2026-03-24T08:23:23.633Z</time></trkpt><trkpt lat="45.4417165" lon="11.0567037"><ele>54.0</ele><time>2026-03-24T08:23:24.643Z</time></trkpt><trkpt lat="45.4416712" lon="11.056844"><ele>55.0</ele><time>2026-03-24T08:23:25.632Z</time></trkpt><trkpt lat="45.4415919" lon="11.05697"><ele>56.0</ele><time>2026-03-24T08:23:26.637Z</time></trkpt><trkpt lat="45.4414746" lon="11.057071"><ele>57.0</ele><time>2026-03-24T08:23:27.644Z</time></trkpt><trkpt lat="45.4413617" lon="11.0571608"><ele>58.0</ele><time>2026-03-24T08:23:28.633Z</time></trkpt><trkpt lat="45.4412137" lon="11.0572095"><ele>58.0</ele><time>2026-03-24T08:23:29.64Z</time></trkpt><trkpt lat="45.4410572" lon="11.0572378"><ele>58.0</ele><time>2026-03-24T08:23:30.638Z</time></trkpt><trkpt lat="45.4409259" lon="11.0572613"><ele>58.0</ele><time>2026-03-24T08:23:31.637Z</time></trkpt><trkpt lat="45.4408107" lon="11.0572808"><ele>58.0</ele><time>2026-03-24T08:23:32.635Z</time></trkpt><trkpt lat="45.4407192" lon="11.0572943"><ele>57.99999999999999</ele><time>2026-03-24T08:23:33.636Z</time></trkpt><trkpt lat="45.4406472" lon="11.057309"><ele>58.0</ele><time>2026-03-24T08:23:34.628Z</time></trkpt><trkpt lat="45.4405562" lon="11.0573246"><ele>58.0</ele><time>2026-03-24T08:23:36.633Z</time></trkpt><trkpt lat="45.4404868" lon="11.0573389"><ele>58.0</ele><time>2026-03-24T08:23:42.651Z</time></trkpt><trkpt lat="45.4404162" lon="11.0574751"><ele>57.99999999999999</ele><time>2026-03-24T08:23:45.638Z</time></trkpt><trkpt lat="45.4403937" lon="11.0575821"><ele>58.0</ele><time>2026-03-24T08:23:46.639Z</time></trkpt><trkpt lat="45.4403831" lon="11.0577425"><ele>57.75</ele><time>2026-03-24T08:23:47.644Z</time></trkpt><trkpt lat="45.4403992" lon="11.0579461"><ele>57.5</ele><time>2026-03-24T08:23:48.637Z</time></trkpt><trkpt lat="45.4404172" lon="11.0581515"><ele>57.25</ele><time>2026-03-24T08:23:49.629Z</time></trkpt><trkpt lat="45.4404345" lon="11.0583594"><ele>57.0</ele><time>2026-03-24T08:23:50.631Z</time></trkpt><trkpt lat="45.4404811" lon="11.0585676"><ele>57.0</ele><time>2026-03-24T08:23:51.639Z</time></trkpt><trkpt lat="45.4404921" lon="11.058792"><ele>57.0</ele><time>2026-03-24T08:23:52.635Z</time></trkpt><trkpt lat="45.4405317" lon="11.0589998"><ele>57.0</ele><time>2026-03-24T08:23:53.635Z</time></trkpt><trkpt lat="45.4405166" lon="11.0592216"><ele>57.0</ele><time>2026-03-24T08:23:54.629Z</time></trkpt><trkpt lat="45.4405387" lon="11.0594279"><ele>57.0</ele><time>2026-03-24T08:23:55.63Z</time></trkpt><trkpt lat="45.4405729" lon="11.0596184"><ele>57.0</ele><time>2026-03-24T08:23:56.63Z</time></trkpt><trkpt lat="45.4405997" lon="11.0598121"><ele>57.0</ele><time>2026-03-24T08:23:57.627Z</time></trkpt><trkpt lat="45.4405993" lon="11.059975"><ele>57.25</ele><time>2026-03-24T08:23:58.63Z</time></trkpt><trkpt lat="45.4406155" lon="11.060138"><ele>57.5</ele><time>2026-03-24T08:23:59.628Z</time></trkpt><trkpt lat="45.4406428" lon="11.0603178"><ele>57.75</ele><time>2026-03-24T08:24:00.632Z</time></trkpt><trkpt lat="45.4406302" lon="11.0604968"><ele>58.0</ele><time>2026-03-24T08:24:01.637Z</time></trkpt><trkpt lat="45.4406262" lon="11.0606702"><ele>57.666666666666664</ele><time>2026-03-24T08:24:02.637Z</time></trkpt><trkpt lat="45.4406302" lon="11.0608181"><ele>57.33333333333333</ele><time>2026-03-24T08:24:03.644Z</time></trkpt><trkpt lat="45.4406296" lon="11.0609307"><ele>57.0</ele><time>2026-03-24T08:24:04.64Z</time></trkpt><trkpt lat="45.4406341" lon="11.0610364"><ele>56.66666666666667</ele><time>2026-03-24T08:24:05.641Z</time></trkpt><trkpt lat="45.4406394" lon="11.0611376"><ele>56.333333333333336</ele><time>2026-03-24T08:24:06.641Z</time></trkpt><trkpt lat="45.4406491" lon="11.0612915"><ele>56.0</ele><time>2026-03-24T08:24:08.638Z</time></trkpt><trkpt lat="45.4406467" lon="11.0613931"><ele>56.00000000000001</ele><time>2026-03-24T08:24:17.659Z</time></trkpt><trkpt lat="45.440646" lon="11.0614913"><ele>56.0</ele><time>2026-03-24T08:24:40.642Z</time></trkpt><trkpt lat="45.4406601" lon="11.0615967"><ele>56.0</ele><time>2026-03-24T08:24:44.648Z</time></trkpt><trkpt lat="45.4407008" lon="11.0616813"><ele>56.0</ele><time>2026-03-24T08:24:49.644Z</time></trkpt><trkpt lat="45.4407024" lon="11.0617907"><ele>56.00000000000001</ele><time>2026-03-24T08:24:57.645Z</time></trkpt><trkpt lat="45.4407016" lon="11.0619088"><ele>56.0</ele><time>2026-03-24T08:25:00.644Z</time></trkpt><trkpt lat="45.4408575" lon="11.0618628"><ele>56.0</ele><time>2026-03-24T08:25:02.646Z</time></trkpt><trkpt lat="45.4409728" lon="11.0618005"><ele>56.0</ele><time>2026-03-24T08:25:03.638Z</time></trkpt><trkpt lat="45.4410976" lon="11.0617357"><ele>56.0</ele><time>2026-03-24T08:25:04.643Z</time></trkpt><trkpt lat="45.4412162" lon="11.0616857"><ele>56.0</ele><time>2026-03-24T08:25:05.634Z</time></trkpt><trkpt lat="45.4413571" lon="11.0616236"><ele>56.333333333333336</ele><time>2026-03-24T08:25:06.641Z</time></trkpt><trkpt lat="45.4415047" lon="11.0615526"><ele>56.66666666666667</ele><time>2026-03-24T08:25:07.642Z</time></trkpt><trkpt lat="45.4416593" lon="11.0614815"><ele>57.0</ele><time>2026-03-24T08:25:08.637Z</time></trkpt><trkpt lat="45.4418941" lon="11.0613404"><ele>57.0</ele><time>2026-03-24T08:25:09.634Z</time></trkpt><trkpt lat="45.4420893" lon="11.0612414"><ele>57.0</ele><time>2026-03-24T08:25:10.648Z</time></trkpt><trkpt lat="45.4422579" lon="11.0611576"><ele>57.0</ele><time>2026-03-24T08:25:11.644Z</time></trkpt><trkpt lat="45.442402" lon="11.0610829"><ele>56.66666666666667</ele><time>2026-03-24T08:25:12.649Z</time></trkpt><trkpt lat="45.4425323" lon="11.0610007"><ele>56.333333333333336</ele><time>2026-03-24T08:25:13.649Z</time></trkpt><trkpt lat="45.442674" lon="11.0609218"><ele>56.0</ele><time>2026-03-24T08:25:14.643Z</time></trkpt><trkpt lat="45.4428218" lon="11.0608539"><ele>56.333333333333336</ele><time>2026-03-24T08:25:15.648Z</time></trkpt><trkpt lat="45.4429728" lon="11.0607813"><ele>56.66666666666667</ele><time>2026-03-24T08:25:16.644Z</time></trkpt><trkpt lat="45.4431232" lon="11.0607088"><ele>57.0</ele><time>2026-03-24T08:25:17.65Z</time></trkpt><trkpt lat="45.4432759" lon="11.0606468"><ele>57.0</ele><time>2026-03-24T08:25:18.655Z</time></trkpt><trkpt lat="45.4434477" lon="11.060594"><ele>57.0</ele><time>2026-03-24T08:25:19.644Z</time></trkpt><trkpt lat="45.443617" lon="11.060546"><ele>57.0</ele><time>2026-03-24T08:25:20.66Z</time></trkpt><trkpt lat="45.4437877" lon="11.0605012"><ele>57.0</ele><time>2026-03-24T08:25:21.651Z</time></trkpt><trkpt lat="45.443954" lon="11.0604311"><ele>57.0</ele><time>2026-03-24T08:25:22.646Z</time></trkpt><trkpt lat="45.4441101" lon="11.06037"><ele>57.0</ele><time>2026-03-24T08:25:23.653Z</time></trkpt><trkpt lat="45.4442802" lon="11.0603269"><ele>57.0</ele><time>2026-03-24T08:25:24.65Z</time></trkpt><trkpt lat="45.4444606" lon="11.0602835"><ele>57.0</ele><time>2026-03-24T08:25:25.647Z</time></trkpt><trkpt lat="45.4446191" lon="11.0602451"><ele>57.0</ele><time>2026-03-24T08:25:26.649Z</time></trkpt><trkpt lat="45.4447835" lon="11.0601942"><ele>57.33333333333333</ele><time>2026-03-24T08:25:27.645Z</time></trkpt><trkpt lat="45.4449543" lon="11.0601378"><ele>57.666666666666664</ele><time>2026-03-24T08:25:28.644Z</time></trkpt><trkpt lat="45.4451122" lon="11.0600832"><ele>58.0</ele><time>2026-03-24T08:25:29.651Z</time></trkpt><trkpt lat="45.4452882" lon="11.0600243"><ele>58.0</ele><time>2026-03-24T08:25:30.642Z</time></trkpt><trkpt lat="45.4454484" lon="11.0599639"><ele>58.0</ele><time>2026-03-24T08:25:31.651Z</time></trkpt><trkpt lat="45.445611" lon="11.0598977"><ele>58.0</ele><time>2026-03-24T08:25:32.642Z</time></trkpt><trkpt lat="45.4457907" lon="11.0598414"><ele>57.666666666666664</ele><time>2026-03-24T08:25:33.635Z</time></trkpt><trkpt lat="45.4459589" lon="11.0597805"><ele>57.33333333333333</ele><time>2026-03-24T08:25:34.636Z</time></trkpt><trkpt lat="45.4461269" lon="11.0597306"><ele>57.0</ele><time>2026-03-24T08:25:35.627Z</time></trkpt><trkpt lat="45.4462762" lon="11.0596692"><ele>56.66666666666667</ele><time>2026-03-24T08:25:36.638Z</time></trkpt><trkpt lat="45.4464313" lon="11.0596246"><ele>56.333333333333336</ele><time>2026-03-24T08:25:37.631Z</time></trkpt><trkpt lat="45.4466011" lon="11.0595771"><ele>56.0</ele><time>2026-03-24T08:25:38.626Z</time></trkpt><trkpt lat="45.4467303" lon="11.0595262"><ele>56.0</ele><time>2026-03-24T08:25:39.634Z</time></trkpt><trkpt lat="45.4468799" lon="11.0594815"><ele>56.0</ele><time>2026-03-24T08:25:40.636Z</time></trkpt><trkpt lat="45.4470358" lon="11.0594297"><ele>56.0</ele><time>2026-03-24T08:25:41.635Z</time></trkpt><trkpt lat="45.4471982" lon="11.0593826"><ele>56.66666666666667</ele><time>2026-03-24T08:25:42.637Z</time></trkpt><trkpt lat="45.4473571" lon="11.0593324"><ele>57.33333333333333</ele><time>2026-03-24T08:25:43.642Z</time></trkpt><trkpt lat="45.4475128" lon="11.0593005"><ele>58.0</ele><time>2026-03-24T08:25:44.637Z</time></trkpt><trkpt lat="45.4476737" lon="11.0592662"><ele>58.0</ele><time>2026-03-24T08:25:45.649Z</time></trkpt><trkpt lat="45.4478187" lon="11.0591925"><ele>58.0</ele><time>2026-03-24T08:25:46.624Z</time></trkpt><trkpt lat="45.4479623" lon="11.059156"><ele>58.0</ele><time>2026-03-24T08:25:47.73Z</time></trkpt><trkpt lat="45.4481156" lon="11.059127"><ele>57.0</ele><time>2026-03-24T08:25:48.639Z</time></trkpt><trkpt lat="45.4482653" lon="11.059094"><ele>56.0</ele><time>2026-03-24T08:25:49.638Z</time></trkpt><trkpt lat="45.4484012" lon="11.0590396"><ele>55.0</ele><time>2026-03-24T08:25:50.644Z</time></trkpt><trkpt lat="45.4485648" lon="11.0589975"><ele>55.0</ele><time>2026-03-24T08:25:51.638Z</time></trkpt><trkpt lat="45.4487108" lon="11.0589534"><ele>55.0</ele><time>2026-03-24T08:25:52.642Z</time></trkpt><trkpt lat="45.4488581" lon="11.0589082"><ele>55.0</ele><time>2026-03-24T08:25:53.643Z</time></trkpt><trkpt lat="45.4490141" lon="11.0588472"><ele>55.33333333333333</ele><time>2026-03-24T08:25:54.639Z</time></trkpt><trkpt lat="45.4491809" lon="11.0588158"><ele>55.66666666666667</ele><time>2026-03-24T08:25:55.645Z</time></trkpt><trkpt lat="45.4493563" lon="11.058791"><ele>56.0</ele><time>2026-03-24T08:25:56.638Z</time></trkpt><trkpt lat="45.4495436" lon="11.058733"><ele>55.66666666666667</ele><time>2026-03-24T08:25:57.632Z</time></trkpt><trkpt lat="45.4496889" lon="11.0586861"><ele>55.33333333333333</ele><time>2026-03-24T08:25:58.642Z</time></trkpt><trkpt lat="45.4498533" lon="11.0586444"><ele>55.0</ele><time>2026-03-24T08:25:59.644Z</time></trkpt><trkpt lat="45.4500165" lon="11.0585922"><ele>55.0</ele><time>2026-03-24T08:26:00.635Z</time></trkpt><trkpt lat="45.4501573" lon="11.0585376"><ele>55.0</ele><time>2026-03-24T08:26:01.646Z</time></trkpt><trkpt lat="45.4503097" lon="11.0584907"><ele>55.0</ele><time>2026-03-24T08:26:02.633Z</time></trkpt><trkpt lat="45.4504742" lon="11.0584559"><ele>55.25</ele><time>2026-03-24T08:26:03.637Z</time></trkpt><trkpt lat="45.450626" lon="11.058425"><ele>55.5</ele><time>2026-03-24T08:26:04.623Z</time></trkpt><trkpt lat="45.450757" lon="11.0583929"><ele>55.75</ele><time>2026-03-24T08:26:05.633Z</time></trkpt><trkpt lat="45.4508885" lon="11.0583443"><ele>56.0</ele><time>2026-03-24T08:26:06.632Z</time></trkpt><trkpt lat="45.4510369" lon="11.0582991"><ele>55.8</ele><time>2026-03-24T08:26:07.636Z</time></trkpt><trkpt lat="45.4511593" lon="11.0582658"><ele>55.599999999999994</ele><time>2026-03-24T08:26:08.634Z</time></trkpt><trkpt lat="45.4512512" lon="11.0582355"><ele>55.4</ele><time>2026-03-24T08:26:09.645Z</time></trkpt><trkpt lat="45.4513562" lon="11.0582048"><ele>55.2</ele><time>2026-03-24T08:26:10.633Z</time></trkpt><trkpt lat="45.4514638" lon="11.0581669"><ele>55.0</ele><time>2026-03-24T08:26:11.637Z</time></trkpt><trkpt lat="45.4515895" lon="11.0581326"><ele>56.0</ele><time>2026-03-24T08:26:12.642Z</time></trkpt><trkpt lat="45.4517088" lon="11.0581057"><ele>57.0</ele><time>2026-03-24T08:26:13.642Z</time></trkpt><trkpt lat="45.4518307" lon="11.0580724"><ele>58.0</ele><time>2026-03-24T08:26:14.638Z</time></trkpt><trkpt lat="45.4519528" lon="11.05804"><ele>59.0</ele><time>2026-03-24T08:26:15.636Z</time></trkpt><trkpt lat="45.4520673" lon="11.0580092"><ele>58.75</ele><time>2026-03-24T08:26:16.643Z</time></trkpt><trkpt lat="45.4521807" lon="11.0579828"><ele>58.5</ele><time>2026-03-24T08:26:17.641Z</time></trkpt><trkpt lat="45.4523026" lon="11.0579552"><ele>58.25</ele><time>2026-03-24T08:26:18.638Z</time></trkpt><trkpt lat="45.4524281" lon="11.0579282"><ele>58.0</ele><time>2026-03-24T08:26:19.647Z</time></trkpt><trkpt lat="45.4525591" lon="11.0578975"><ele>58.0</ele><time>2026-03-24T08:26:20.636Z</time></trkpt><trkpt lat="45.4527036" lon="11.0578632"><ele>58.0</ele><time>2026-03-24T08:26:21.634Z</time></trkpt><trkpt lat="45.4528689" lon="11.0578358"><ele>58.0</ele><time>2026-03-24T08:26:22.625Z</time></trkpt><trkpt lat="45.4530248" lon="11.0578332"><ele>58.0</ele><time>2026-03-24T08:26:23.628Z</time></trkpt><trkpt lat="45.4531492" lon="11.0577869"><ele>58.0</ele><time>2026-03-24T08:26:24.631Z</time></trkpt><trkpt lat="45.4532665" lon="11.0577511"><ele>58.0</ele><time>2026-03-24T08:26:25.641Z</time></trkpt><trkpt lat="45.453358" lon="11.0577045"><ele>58.0</ele><time>2026-03-24T08:26:26.638Z</time></trkpt><trkpt lat="45.453464" lon="11.0576603"><ele>57.99999999999999</ele><time>2026-03-24T08:26:27.632Z</time></trkpt><trkpt lat="45.4535629" lon="11.0576334"><ele>58.0</ele><time>2026-03-24T08:26:28.63Z</time></trkpt><trkpt lat="45.4536297" lon="11.0576111"><ele>58.0</ele><time>2026-03-24T08:26:29.635Z</time></trkpt><trkpt lat="45.453716" lon="11.057592"><ele>58.0</ele><time>2026-03-24T08:26:31.634Z</time></trkpt><trkpt lat="45.4537986" lon="11.0575838"><ele>57.99999999999999</ele><time>2026-03-24T08:26:34.636Z</time></trkpt><trkpt lat="45.4538806" lon="11.0576837"><ele>58.0</ele><time>2026-03-24T08:26:37.63Z</time></trkpt><trkpt lat="45.453931" lon="11.0577914"><ele>58.0</ele><time>2026-03-24T08:26:38.628Z</time></trkpt><trkpt lat="45.4539951" lon="11.0579271"><ele>58.0</ele><time>2026-03-24T08:26:39.629Z</time></trkpt><trkpt lat="45.4540601" lon="11.0580739"><ele>58.0</ele><time>2026-03-24T08:26:40.635Z</time></trkpt><trkpt lat="45.4541329" lon="11.0582302"><ele>58.0</ele><time>2026-03-24T08:26:41.644Z</time></trkpt><trkpt lat="45.45421" lon="11.0583897"><ele>57.5</ele><time>2026-03-24T08:26:42.63Z</time></trkpt><trkpt lat="45.454298" lon="11.058532"><ele>57.0</ele><time>2026-03-24T08:26:43.631Z</time></trkpt><trkpt lat="45.4543863" lon="11.0586542"><ele>56.5</ele><time>2026-03-24T08:26:44.632Z</time></trkpt><trkpt lat="45.4544808" lon="11.0587503"><ele>56.0</ele><time>2026-03-24T08:26:45.635Z</time></trkpt><trkpt lat="45.4545722" lon="11.0588297"><ele>56.00000000000001</ele><time>2026-03-24T08:26:46.627Z</time></trkpt><trkpt lat="45.4546658" lon="11.0588998"><ele>56.0</ele><time>2026-03-24T08:26:47.63Z</time></trkpt><trkpt lat="45.4547514" lon="11.0589449"><ele>56.0</ele><time>2026-03-24T08:26:48.633Z</time></trkpt><trkpt lat="45.4548231" lon="11.0589825"><ele>56.0</ele><time>2026-03-24T08:26:49.631Z</time></trkpt><trkpt lat="45.4548925" lon="11.0590178"><ele>56.00000000000001</ele><time>2026-03-24T08:26:50.635Z</time></trkpt><trkpt lat="45.4549562" lon="11.0590491"><ele>56.0</ele><time>2026-03-24T08:26:51.634Z</time></trkpt><trkpt lat="45.4550207" lon="11.0590873"><ele>56.199999999999996</ele><time>2026-03-24T08:26:52.635Z</time></trkpt><trkpt lat="45.4550868" lon="11.0591391"><ele>56.39999999999999</ele><time>2026-03-24T08:26:53.631Z</time></trkpt><trkpt lat="45.4551567" lon="11.0592169"><ele>56.6</ele><time>2026-03-24T08:26:54.622Z</time></trkpt><trkpt lat="45.4552518" lon="11.0592842"><ele>56.8</ele><time>2026-03-24T08:26:55.629Z</time></trkpt><trkpt lat="45.4553614" lon="11.0593348"><ele>57.0</ele><time>2026-03-24T08:26:56.623Z</time></trkpt><trkpt lat="45.455488" lon="11.0593749"><ele>56.0</ele><time>2026-03-24T08:26:57.624Z</time></trkpt><trkpt lat="45.4556287" lon="11.0594072"><ele>55.0</ele><time>2026-03-24T08:26:58.637Z</time></trkpt><trkpt lat="45.4557763" lon="11.0594308"><ele>54.0</ele><time>2026-03-24T08:26:59.632Z</time></trkpt><trkpt lat="45.455949" lon="11.0594389"><ele>54.0</ele><time>2026-03-24T08:27:00.623Z</time></trkpt><trkpt lat="45.4561338" lon="11.059471"><ele>54.0</ele><time>2026-03-24T08:27:01.633Z</time></trkpt><trkpt lat="45.4563062" lon="11.0594699"><ele>54.0</ele><time>2026-03-24T08:27:02.64Z</time></trkpt><trkpt lat="45.4564863" lon="11.0594759"><ele>55.66666666666667</ele><time>2026-03-24T08:27:03.638Z</time></trkpt><trkpt lat="45.4566585" lon="11.0594954"><ele>57.333333333333336</ele><time>2026-03-24T08:27:04.631Z</time></trkpt><trkpt lat="45.4568436" lon="11.0595345"><ele>59.0</ele><time>2026-03-24T08:27:05.63Z</time></trkpt><trkpt lat="45.4570228" lon="11.0595515"><ele>58.333333333333336</ele><time>2026-03-24T08:27:06.631Z</time></trkpt><trkpt lat="45.4571894" lon="11.0595609"><ele>57.66666666666667</ele><time>2026-03-24T08:27:07.629Z</time></trkpt><trkpt lat="45.4573758" lon="11.0595842"><ele>57.0</ele><time>2026-03-24T08:27:08.635Z</time></trkpt><trkpt lat="45.4575543" lon="11.0596162"><ele>57.0</ele><time>2026-03-24T08:27:09.629Z</time></trkpt><trkpt lat="45.4577496" lon="11.05963"><ele>57.0</ele><time>2026-03-24T08:27:10.629Z</time></trkpt><trkpt lat="45.457946" lon="11.0596397"><ele>57.0</ele><time>2026-03-24T08:27:11.628Z</time></trkpt><trkpt lat="45.458143" lon="11.0596519"><ele>56.0</ele><time>2026-03-24T08:27:12.626Z</time></trkpt><trkpt lat="45.4583334" lon="11.0596661"><ele>55.0</ele><time>2026-03-24T08:27:13.629Z</time></trkpt><trkpt lat="45.4585284" lon="11.0596731"><ele>54.0</ele><time>2026-03-24T08:27:14.638Z</time></trkpt><trkpt lat="45.4587192" lon="11.0597"><ele>54.33333333333333</ele><time>2026-03-24T08:27:15.638Z</time></trkpt><trkpt lat="45.4589014" lon="11.059718"><ele>54.666666666666664</ele><time>2026-03-24T08:27:16.635Z</time></trkpt><trkpt lat="45.4590866" lon="11.0597355"><ele>55.0</ele><time>2026-03-24T08:27:17.639Z</time></trkpt><trkpt lat="45.4592743" lon="11.0597387"><ele>55.0</ele><time>2026-03-24T08:27:18.637Z</time></trkpt><trkpt lat="45.4594521" lon="11.0597392"><ele>55.0</ele><time>2026-03-24T08:27:19.633Z</time></trkpt><trkpt lat="45.45963" lon="11.0597556"><ele>55.0</ele><time>2026-03-24T08:27:20.639Z</time></trkpt><trkpt lat="45.4598258" lon="11.0597928"><ele>54.666666666666664</ele><time>2026-03-24T08:27:21.652Z</time></trkpt><trkpt lat="45.4600154" lon="11.0598275"><ele>54.33333333333333</ele><time>2026-03-24T08:27:22.64Z</time></trkpt><trkpt lat="45.460202" lon="11.0598392"><ele>54.0</ele><time>2026-03-24T08:27:23.652Z</time></trkpt><trkpt lat="45.4603884" lon="11.0598597"><ele>53.66666666666667</ele><time>2026-03-24T08:27:24.656Z</time></trkpt><trkpt lat="45.4605957" lon="11.0598854"><ele>53.333333333333336</ele><time>2026-03-24T08:27:25.64Z</time></trkpt><trkpt lat="45.4607744" lon="11.0598923"><ele>53.0</ele><time>2026-03-24T08:27:26.65Z</time></trkpt><trkpt lat="45.460942" lon="11.0598999"><ele>53.0</ele><time>2026-03-24T08:27:27.645Z</time></trkpt><trkpt lat="45.4611173" lon="11.0599187"><ele>53.0</ele><time>2026-03-24T08:27:28.638Z</time></trkpt><trkpt lat="45.4612993" lon="11.0599604"><ele>53.0</ele><time>2026-03-24T08:27:29.645Z</time></trkpt><trkpt lat="45.4614945" lon="11.0600064"><ele>53.66666666666667</ele><time>2026-03-24T08:27:30.646Z</time></trkpt><trkpt lat="45.4616713" lon="11.0600639"><ele>54.33333333333333</ele><time>2026-03-24T08:27:31.649Z</time></trkpt><trkpt lat="45.4618601" lon="11.0601274"><ele>55.0</ele><time>2026-03-24T08:27:32.639Z</time></trkpt><trkpt lat="45.4620376" lon="11.0602219"><ele>55.666666666666664</ele><time>2026-03-24T08:27:33.644Z</time></trkpt><trkpt lat="45.4622234" lon="11.0603269"><ele>56.33333333333333</ele><time>2026-03-24T08:27:34.635Z</time></trkpt><trkpt lat="45.4623766" lon="11.0604185"><ele>57.0</ele><time>2026-03-24T08:27:35.637Z</time></trkpt><trkpt lat="45.4625541" lon="11.060537"><ele>57.0</ele><time>2026-03-24T08:27:36.642Z</time></trkpt><trkpt lat="45.4627047" lon="11.060663"><ele>57.0</ele><time>2026-03-24T08:27:37.655Z</time></trkpt><trkpt lat="45.4628568" lon="11.0608035"><ele>57.0</ele><time>2026-03-24T08:27:38.654Z</time></trkpt><trkpt lat="45.4629961" lon="11.0609343"><ele>57.33333333333333</ele><time>2026-03-24T08:27:39.659Z</time></trkpt><trkpt lat="45.4631383" lon="11.0610719"><ele>57.666666666666664</ele><time>2026-03-24T08:27:40.652Z</time></trkpt><trkpt lat="45.4633007" lon="11.0611921"><ele>58.0</ele><time>2026-03-24T08:27:41.654Z</time></trkpt><trkpt lat="45.4634608" lon="11.0613395"><ele>58.0</ele><time>2026-03-24T08:27:42.653Z</time></trkpt><trkpt lat="45.4636146" lon="11.0614785"><ele>58.0</ele><time>2026-03-24T08:27:43.652Z</time></trkpt><trkpt lat="45.4637586" lon="11.0616142"><ele>58.0</ele><time>2026-03-24T08:27:44.649Z</time></trkpt><trkpt lat="45.4639027" lon="11.0617501"><ele>59.0</ele><time>2026-03-24T08:27:45.653Z</time></trkpt><trkpt lat="45.4640599" lon="11.0618594"><ele>60.0</ele><time>2026-03-24T08:27:46.648Z</time></trkpt><trkpt lat="45.4642032" lon="11.061993"><ele>61.0</ele><time>2026-03-24T08:27:47.661Z</time></trkpt><trkpt lat="45.464346" lon="11.0621121"><ele>61.0</ele><time>2026-03-24T08:27:48.649Z</time></trkpt><trkpt lat="45.4644699" lon="11.0622232"><ele>61.0</ele><time>2026-03-24T08:27:49.647Z</time></trkpt><trkpt lat="45.4645937" lon="11.0623381"><ele>61.0</ele><time>2026-03-24T08:27:50.649Z</time></trkpt><trkpt lat="45.4647129" lon="11.0624402"><ele>61.0</ele><time>2026-03-24T08:27:51.648Z</time></trkpt><trkpt lat="45.4648242" lon="11.0625183"><ele>61.75</ele><time>2026-03-24T08:27:52.645Z</time></trkpt><trkpt lat="45.4649379" lon="11.0625646"><ele>62.5</ele><time>2026-03-24T08:27:53.641Z</time></trkpt><trkpt lat="45.4650831" lon="11.0625624"><ele>63.25</ele><time>2026-03-24T08:27:54.643Z</time></trkpt><trkpt lat="45.4652301" lon="11.0624878"><ele>64.0</ele><time>2026-03-24T08:27:55.637Z</time></trkpt><trkpt lat="45.4653806" lon="11.0624429"><ele>64.66666666666666</ele><time>2026-03-24T08:27:56.641Z</time></trkpt><trkpt lat="45.4655181" lon="11.0623451"><ele>65.33333333333333</ele><time>2026-03-24T08:27:57.649Z</time></trkpt><trkpt lat="45.465692" lon="11.0622878"><ele>66.0</ele><time>2026-03-24T08:27:58.645Z</time></trkpt><trkpt lat="45.4658367" lon="11.0622203"><ele>66.0</ele><time>2026-03-24T08:27:59.643Z</time></trkpt><trkpt lat="45.465986" lon="11.06217"><ele>66.0</ele><time>2026-03-24T08:28:00.644Z</time></trkpt><trkpt lat="45.4661484" lon="11.0621271"><ele>66.0</ele><time>2026-03-24T08:28:01.649Z</time></trkpt><trkpt lat="45.4663087" lon="11.0621059"><ele>66.0</ele><time>2026-03-24T08:28:02.642Z</time></trkpt><trkpt lat="45.4664665" lon="11.0620955"><ele>66.0</ele><time>2026-03-24T08:28:03.651Z</time></trkpt><trkpt lat="45.4666102" lon="11.0620649"><ele>66.0</ele><time>2026-03-24T08:28:04.642Z</time></trkpt><trkpt lat="45.4667506" lon="11.0620425"><ele>66.0</ele><time>2026-03-24T08:28:05.653Z</time></trkpt><trkpt lat="45.466896" lon="11.0620159"><ele>66.0</ele><time>2026-03-24T08:28:06.652Z</time></trkpt><trkpt lat="45.4670653" lon="11.0619826"><ele>66.0</ele><time>2026-03-24T08:28:07.642Z</time></trkpt><trkpt lat="45.4672067" lon="11.0619386"><ele>66.0</ele><time>2026-03-24T08:28:08.652Z</time></trkpt><trkpt lat="45.4673422" lon="11.0619041"><ele>66.66666666666667</ele><time>2026-03-24T08:28:09.645Z</time></trkpt><trkpt lat="45.4675149" lon="11.0618929"><ele>67.33333333333334</ele><time>2026-03-24T08:28:10.645Z</time></trkpt><trkpt lat="45.4676918" lon="11.0618649"><ele>68.0</ele><time>2026-03-24T08:28:11.644Z</time></trkpt><trkpt lat="45.467868" lon="11.0618561"><ele>68.33333333333334</ele><time>2026-03-24T08:28:12.651Z</time></trkpt><trkpt lat="45.4680085" lon="11.0618588"><ele>68.66666666666667</ele><time>2026-03-24T08:28:13.65Z</time></trkpt><trkpt lat="45.4681731" lon="11.0618415"><ele>69.0</ele><time>2026-03-24T08:28:14.649Z</time></trkpt><trkpt lat="45.4683352" lon="11.0618396"><ele>69.0</ele><time>2026-03-24T08:28:15.654Z</time></trkpt><trkpt lat="45.4684785" lon="11.0618356"><ele>69.0</ele><time>2026-03-24T08:28:16.645Z</time></trkpt><trkpt lat="45.4686095" lon="11.0618387"><ele>69.0</ele><time>2026-03-24T08:28:17.656Z</time></trkpt><trkpt lat="45.4687649" lon="11.0618329"><ele>69.0</ele><time>2026-03-24T08:28:18.648Z</time></trkpt><trkpt lat="45.4689296" lon="11.0618342"><ele>69.33333333333333</ele><time>2026-03-24T08:28:19.648Z</time></trkpt><trkpt lat="45.4690875" lon="11.0618457"><ele>69.66666666666666</ele><time>2026-03-24T08:28:20.645Z</time></trkpt><trkpt lat="45.4692417" lon="11.0618438"><ele>70.0</ele><time>2026-03-24T08:28:21.654Z</time></trkpt><trkpt lat="45.4693919" lon="11.0618422"><ele>70.0</ele><time>2026-03-24T08:28:22.654Z</time></trkpt><trkpt lat="45.4695546" lon="11.0618597"><ele>70.0</ele><time>2026-03-24T08:28:23.652Z</time></trkpt><trkpt lat="45.4697051" lon="11.0618634"><ele>70.0</ele><time>2026-03-24T08:28:24.654Z</time></trkpt><trkpt lat="45.4698444" lon="11.0618643"><ele>70.5</ele><time>2026-03-24T08:28:25.653Z</time></trkpt><trkpt lat="45.4699842" lon="11.0618646"><ele>71.0</ele><time>2026-03-24T08:28:26.652Z</time></trkpt><trkpt lat="45.4701254" lon="11.0618392"><ele>71.5</ele><time>2026-03-24T08:28:27.649Z</time></trkpt><trkpt lat="45.4702638" lon="11.061813"><ele>72.0</ele><time>2026-03-24T08:28:28.647Z</time></trkpt><trkpt lat="45.4704168" lon="11.0617932"><ele>72.0</ele><time>2026-03-24T08:28:29.655Z</time></trkpt><trkpt lat="45.4705528" lon="11.0617662"><ele>72.0</ele><time>2026-03-24T08:28:30.652Z</time></trkpt><trkpt lat="45.470697" lon="11.0617118"><ele>72.0</ele><time>2026-03-24T08:28:31.655Z</time></trkpt><trkpt lat="45.4708362" lon="11.0616561"><ele>72.0</ele><time>2026-03-24T08:28:32.651Z</time></trkpt><trkpt lat="45.4709725" lon="11.0615909"><ele>72.0</ele><time>2026-03-24T08:28:33.644Z</time></trkpt><trkpt lat="45.4711007" lon="11.0615392"><ele>72.0</ele><time>2026-03-24T08:28:34.654Z</time></trkpt><trkpt lat="45.4712469" lon="11.0615009"><ele>72.0</ele><time>2026-03-24T08:28:35.645Z</time></trkpt><trkpt lat="45.4713834" lon="11.0614248"><ele>72.0</ele><time>2026-03-24T08:28:36.646Z</time></trkpt><trkpt lat="45.4715126" lon="11.0613506"><ele>72.33333333333333</ele><time>2026-03-24T08:28:37.645Z</time></trkpt><trkpt lat="45.4716534" lon="11.061273"><ele>72.66666666666666</ele><time>2026-03-24T08:28:38.643Z</time></trkpt><trkpt lat="45.4718126" lon="11.0611806"><ele>73.0</ele><time>2026-03-24T08:28:39.655Z</time></trkpt><trkpt lat="45.4719374" lon="11.0610718"><ele>73.0</ele><time>2026-03-24T08:28:40.642Z</time></trkpt><trkpt lat="45.4720594" lon="11.0609672"><ele>73.0</ele><time>2026-03-24T08:28:41.659Z</time></trkpt><trkpt lat="45.4721814" lon="11.0608641"><ele>73.0</ele><time>2026-03-24T08:28:42.653Z</time></trkpt><trkpt lat="45.4723115" lon="11.0607676"><ele>73.0</ele><time>2026-03-24T08:28:43.647Z</time></trkpt><trkpt lat="45.4724312" lon="11.0606861"><ele>73.25</ele><time>2026-03-24T08:28:44.651Z</time></trkpt><trkpt lat="45.4725512" lon="11.0605984"><ele>73.5</ele><time>2026-03-24T08:28:45.648Z</time></trkpt><trkpt lat="45.4726851" lon="11.0605256"><ele>73.75</ele><time>2026-03-24T08:28:46.65Z</time></trkpt><trkpt lat="45.4728134" lon="11.0604528"><ele>74.0</ele><time>2026-03-24T08:28:47.648Z</time></trkpt><trkpt lat="45.4729699" lon="11.0603923"><ele>74.5</ele><time>2026-03-24T08:28:48.642Z</time></trkpt><trkpt lat="45.4731231" lon="11.0603366"><ele>75.0</ele><time>2026-03-24T08:28:49.65Z</time></trkpt><trkpt lat="45.4732453" lon="11.060262"><ele>75.5</ele><time>2026-03-24T08:28:50.647Z</time></trkpt><trkpt lat="45.4734012" lon="11.0602508"><ele>76.0</ele><time>2026-03-24T08:28:51.643Z</time></trkpt><trkpt lat="45.4735566" lon="11.0602853"><ele>76.0</ele><time>2026-03-24T08:28:52.645Z</time></trkpt><trkpt lat="45.4736992" lon="11.0603384"><ele>76.0</ele><time>2026-03-24T08:28:53.655Z</time></trkpt><trkpt lat="45.4738589" lon="11.0603554"><ele>76.0</ele><time>2026-03-24T08:28:54.646Z</time></trkpt><trkpt lat="45.4739986" lon="11.0603742"><ele>76.0</ele><time>2026-03-24T08:28:55.654Z</time></trkpt><trkpt lat="45.4741353" lon="11.0603888"><ele>76.25</ele><time>2026-03-24T08:28:56.659Z</time></trkpt><trkpt lat="45.4742605" lon="11.0603907"><ele>76.5</ele><time>2026-03-24T08:28:57.645Z</time></trkpt><trkpt lat="45.4744125" lon="11.0603977"><ele>76.75</ele><time>2026-03-24T08:28:58.65Z</time></trkpt><trkpt lat="45.4745487" lon="11.0604268"><ele>77.0</ele><time>2026-03-24T08:28:59.655Z</time></trkpt><trkpt lat="45.4746879" lon="11.0604323"><ele>78.25</ele><time>2026-03-24T08:29:00.657Z</time></trkpt><trkpt lat="45.4748196" lon="11.0604311"><ele>79.5</ele><time>2026-03-24T08:29:01.659Z</time></trkpt><trkpt lat="45.4749374" lon="11.0604339"><ele>80.75</ele><time>2026-03-24T08:29:02.644Z</time></trkpt><trkpt lat="45.4750826" lon="11.0604504"><ele>82.0</ele><time>2026-03-24T08:29:03.654Z</time></trkpt><trkpt lat="45.4752439" lon="11.0604821"><ele>82.0</ele><time>2026-03-24T08:29:04.649Z</time></trkpt><trkpt lat="45.4753896" lon="11.0605052"><ele>82.0</ele><time>2026-03-24T08:29:05.65Z</time></trkpt><trkpt lat="45.4755274" lon="11.0605335"><ele>82.0</ele><time>2026-03-24T08:29:06.648Z</time></trkpt><trkpt lat="45.4756786" lon="11.0605713"><ele>82.0</ele><time>2026-03-24T08:29:07.64Z</time></trkpt><trkpt lat="45.4758402" lon="11.0606063"><ele>82.33333333333333</ele><time>2026-03-24T08:29:08.647Z</time></trkpt><trkpt lat="45.4759941" lon="11.0606543"><ele>82.66666666666667</ele><time>2026-03-24T08:29:09.649Z</time></trkpt><trkpt lat="45.4761442" lon="11.0607281"><ele>83.0</ele><time>2026-03-24T08:29:10.64Z</time></trkpt><trkpt lat="45.4763106" lon="11.0607853"><ele>83.5</ele><time>2026-03-24T08:29:11.639Z</time></trkpt><trkpt lat="45.4764761" lon="11.0608143"><ele>84.0</ele><time>2026-03-24T08:29:12.641Z</time></trkpt><trkpt lat="45.4766059" lon="11.0608408"><ele>84.5</ele><time>2026-03-24T08:29:13.637Z</time></trkpt><trkpt lat="45.476748" lon="11.0608848"><ele>85.0</ele><time>2026-03-24T08:29:14.645Z</time></trkpt><trkpt lat="45.4768976" lon="11.0609523"><ele>85.0</ele><time>2026-03-24T08:29:15.643Z</time></trkpt><trkpt lat="45.4770744" lon="11.0610076"><ele>85.0</ele><time>2026-03-24T08:29:16.639Z</time></trkpt><trkpt lat="45.4772376" lon="11.0610645"><ele>85.0</ele><time>2026-03-24T08:29:17.648Z</time></trkpt><trkpt lat="45.4773842" lon="11.0611343"><ele>85.5</ele><time>2026-03-24T08:29:18.637Z</time></trkpt><trkpt lat="45.4775288" lon="11.061186"><ele>86.0</ele><time>2026-03-24T08:29:19.649Z</time></trkpt><trkpt lat="45.4776746" lon="11.0612469"><ele>86.5</ele><time>2026-03-24T08:29:20.642Z</time></trkpt><trkpt lat="45.477796" lon="11.0613571"><ele>87.0</ele><time>2026-03-24T08:29:21.631Z</time></trkpt><trkpt lat="45.4779195" lon="11.0614864"><ele>87.25</ele><time>2026-03-24T08:29:22.636Z</time></trkpt><trkpt lat="45.4780104" lon="11.0616574"><ele>87.5</ele><time>2026-03-24T08:29:23.633Z</time></trkpt><trkpt lat="45.4780721" lon="11.0618125"><ele>87.75</ele><time>2026-03-24T08:29:24.635Z</time></trkpt><trkpt lat="45.478161" lon="11.0619573"><ele>88.0</ele><time>2026-03-24T08:29:25.638Z</time></trkpt><trkpt lat="45.4782315" lon="11.0621315"><ele>88.0</ele><time>2026-03-24T08:29:26.631Z</time></trkpt><trkpt lat="45.4782633" lon="11.0623268"><ele>88.0</ele><time>2026-03-24T08:29:27.64Z</time></trkpt><trkpt lat="45.4782556" lon="11.0625444"><ele>88.0</ele><time>2026-03-24T08:29:28.637Z</time></trkpt><trkpt lat="45.4782336" lon="11.0628078"><ele>87.66666666666666</ele><time>2026-03-24T08:29:29.637Z</time></trkpt><trkpt lat="45.4782317" lon="11.0630727"><ele>87.33333333333333</ele><time>2026-03-24T08:29:30.64Z</time></trkpt><trkpt lat="45.4782276" lon="11.0633403"><ele>87.0</ele><time>2026-03-24T08:29:31.634Z</time></trkpt><trkpt lat="45.4782467" lon="11.0636083"><ele>87.0</ele><time>2026-03-24T08:29:32.629Z</time></trkpt><trkpt lat="45.4782704" lon="11.0638691"><ele>87.0</ele><time>2026-03-24T08:29:33.633Z</time></trkpt><trkpt lat="45.4782611" lon="11.0641124"><ele>87.0</ele><time>2026-03-24T08:29:34.635Z</time></trkpt><trkpt lat="45.4782911" lon="11.0643567"><ele>87.33333333333333</ele><time>2026-03-24T08:29:35.637Z</time></trkpt><trkpt lat="45.4782934" lon="11.0646019"><ele>87.66666666666666</ele><time>2026-03-24T08:29:36.637Z</time></trkpt><trkpt lat="45.4783133" lon="11.0648274"><ele>88.0</ele><time>2026-03-24T08:29:37.636Z</time></trkpt><trkpt lat="45.47834" lon="11.0650672"><ele>88.0</ele><time>2026-03-24T08:29:38.635Z</time></trkpt><trkpt lat="45.4783536" lon="11.0652837"><ele>88.0</ele><time>2026-03-24T08:29:39.634Z</time></trkpt><trkpt lat="45.4783684" lon="11.0655053"><ele>88.0</ele><time>2026-03-24T08:29:40.633Z</time></trkpt><trkpt lat="45.4783984" lon="11.0657391"><ele>88.25</ele><time>2026-03-24T08:29:41.641Z</time></trkpt><trkpt lat="45.4784299" lon="11.065962"><ele>88.5</ele><time>2026-03-24T08:29:42.64Z</time></trkpt><trkpt lat="45.4784395" lon="11.0661581"><ele>88.75</ele><time>2026-03-24T08:29:43.64Z</time></trkpt><trkpt lat="45.4784645" lon="11.0663551"><ele>89.0</ele><time>2026-03-24T08:29:44.638Z</time></trkpt><trkpt lat="45.4784935" lon="11.0665366"><ele>89.5</ele><time>2026-03-24T08:29:45.639Z</time></trkpt><trkpt lat="45.4785175" lon="11.0667127"><ele>90.0</ele><time>2026-03-24T08:29:46.633Z</time></trkpt><trkpt lat="45.4785553" lon="11.0668974"><ele>90.5</ele><time>2026-03-24T08:29:47.641Z</time></trkpt><trkpt lat="45.4786135" lon="11.0670434"><ele>91.0</ele><time>2026-03-24T08:29:48.643Z</time></trkpt><trkpt lat="45.4786969" lon="11.0671716"><ele>91.25</ele><time>2026-03-24T08:29:49.629Z</time></trkpt><trkpt lat="45.478808" lon="11.0672355"><ele>91.5</ele><time>2026-03-24T08:29:50.645Z</time></trkpt><trkpt lat="45.478919" lon="11.0673285"><ele>91.75</ele><time>2026-03-24T08:29:51.641Z</time></trkpt><trkpt lat="45.4790517" lon="11.0674141"><ele>92.0</ele><time>2026-03-24T08:29:52.629Z</time></trkpt><trkpt lat="45.4792084" lon="11.0674649"><ele>93.0</ele><time>2026-03-24T08:29:53.638Z</time></trkpt><trkpt lat="45.4793891" lon="11.0675003"><ele>94.0</ele><time>2026-03-24T08:29:54.64Z</time></trkpt><trkpt lat="45.4795892" lon="11.0675202"><ele>95.0</ele><time>2026-03-24T08:29:55.638Z</time></trkpt><trkpt lat="45.4797832" lon="11.0675612"><ele>95.0</ele><time>2026-03-24T08:29:56.643Z</time></trkpt><trkpt lat="45.4799947" lon="11.0675898"><ele>95.0</ele><time>2026-03-24T08:29:57.64Z</time></trkpt><trkpt lat="45.4801686" lon="11.0676377"><ele>95.0</ele><time>2026-03-24T08:29:58.65Z</time></trkpt><trkpt lat="45.4803351" lon="11.0676724"><ele>95.66666666666667</ele><time>2026-03-24T08:29:59.651Z</time></trkpt><trkpt lat="45.4805135" lon="11.0677102"><ele>96.33333333333334</ele><time>2026-03-24T08:30:00.652Z</time></trkpt><trkpt lat="45.480678" lon="11.0677546"><ele>97.0</ele><time>2026-03-24T08:30:01.654Z</time></trkpt><trkpt lat="45.4808532" lon="11.067777"><ele>97.0</ele><time>2026-03-24T08:30:02.652Z</time></trkpt><trkpt lat="45.4810324" lon="11.0677889"><ele>97.0</ele><time>2026-03-24T08:30:03.645Z</time></trkpt><trkpt lat="45.4812141" lon="11.0677983"><ele>97.0</ele><time>2026-03-24T08:30:04.65Z</time></trkpt><trkpt lat="45.4813671" lon="11.0678194"><ele>99.0</ele><time>2026-03-24T08:30:05.654Z</time></trkpt><trkpt lat="45.481502" lon="11.0678401"><ele>101.0</ele><time>2026-03-24T08:30:06.649Z</time></trkpt><trkpt lat="45.4816337" lon="11.0678912"><ele>103.0</ele><time>2026-03-24T08:30:07.645Z</time></trkpt><trkpt lat="45.4817645" lon="11.0679498"><ele>105.0</ele><time>2026-03-24T08:30:08.651Z</time></trkpt><trkpt lat="45.4818869" lon="11.0680064"><ele>105.0</ele><time>2026-03-24T08:30:09.665Z</time></trkpt><trkpt lat="45.4819792" lon="11.0681333"><ele>105.0</ele><time>2026-03-24T08:30:10.642Z</time></trkpt><trkpt lat="45.4820861" lon="11.0682731"><ele>105.0</ele><time>2026-03-24T08:30:11.648Z</time></trkpt><trkpt lat="45.4821834" lon="11.068405"><ele>105.0</ele><time>2026-03-24T08:30:12.646Z</time></trkpt><trkpt lat="45.482291" lon="11.06853"><ele>110.0</ele><time>2026-03-24T08:30:13.643Z</time></trkpt><trkpt lat="45.4823877" lon="11.0686929"><ele>115.0</ele><time>2026-03-24T08:30:14.651Z</time></trkpt><trkpt lat="45.4824814" lon="11.0688417"><ele>120.0</ele><time>2026-03-24T08:30:15.646Z</time></trkpt><trkpt lat="45.4826006" lon="11.068994"><ele>118.5</ele><time>2026-03-24T08:30:16.653Z</time></trkpt><trkpt lat="45.482715" lon="11.0691375"><ele>117.0</ele><time>2026-03-24T08:30:17.648Z</time></trkpt><trkpt lat="45.4828235" lon="11.0692624"><ele>115.5</ele><time>2026-03-24T08:30:18.648Z</time></trkpt><trkpt lat="45.4829315" lon="11.0693779"><ele>114.0</ele><time>2026-03-24T08:30:19.648Z</time></trkpt><trkpt lat="45.4830159" lon="11.0694829"><ele>116.83333333333333</ele><time>2026-03-24T08:30:20.645Z</time></trkpt><trkpt lat="45.4830957" lon="11.0695698"><ele>119.66666666666666</ele><time>2026-03-24T08:30:21.649Z</time></trkpt><trkpt lat="45.4831815" lon="11.0696376"><ele>122.5</ele><time>2026-03-24T08:30:22.65Z</time></trkpt><trkpt lat="45.4832418" lon="11.0697086"><ele>125.33333333333333</ele><time>2026-03-24T08:30:23.646Z</time></trkpt><trkpt lat="45.4833062" lon="11.069786"><ele>128.16666666666666</ele><time>2026-03-24T08:30:24.646Z</time></trkpt><trkpt lat="45.4833542" lon="11.0698588"><ele>131.0</ele><time>2026-03-24T08:30:25.649Z</time></trkpt><trkpt lat="45.4834397" lon="11.0699174"><ele>131.0</ele><time>2026-03-24T08:30:27.643Z</time></trkpt><trkpt lat="45.4835102" lon="11.0698233"><ele>131.0</ele><time>2026-03-24T08:30:29.629Z</time></trkpt><trkpt lat="45.4834837" lon="11.0696417"><ele>131.0</ele><time>2026-03-24T08:30:31.634Z</time></trkpt><trkpt lat="45.4834173" lon="11.0695306"><ele>131.0</ele><time>2026-03-24T08:30:32.623Z</time></trkpt><trkpt lat="45.4833325" lon="11.0694328"><ele>131.0</ele><time>2026-03-24T08:30:33.633Z</time></trkpt><trkpt lat="45.483255" lon="11.0693325"><ele>131.0</ele><time>2026-03-24T08:30:34.625Z</time></trkpt><trkpt lat="45.4831933" lon="11.0692145"><ele>131.0</ele><time>2026-03-24T08:30:35.628Z</time></trkpt><trkpt lat="45.4831461" lon="11.0690624"><ele>131.0</ele><time>2026-03-24T08:30:36.618Z</time></trkpt><trkpt lat="45.4830846" lon="11.0688748"><ele>131.0</ele><time>2026-03-24T08:30:37.617Z</time></trkpt><trkpt lat="45.4830261" lon="11.0686546"><ele>129.0</ele><time>2026-03-24T08:30:38.605Z</time></trkpt><trkpt lat="45.4829224" lon="11.0683773"><ele>127.0</ele><time>2026-03-24T08:30:39.619Z</time></trkpt><trkpt lat="45.4828202" lon="11.0681165"><ele>125.0</ele><time>2026-03-24T08:30:40.618Z</time></trkpt><trkpt lat="45.4827403" lon="11.0679003"><ele>125.0</ele><time>2026-03-24T08:30:41.622Z</time></trkpt><trkpt lat="45.4826613" lon="11.0677131"><ele>125.0</ele><time>2026-03-24T08:30:42.625Z</time></trkpt><trkpt lat="45.4826196" lon="11.0675583"><ele>125.0</ele><time>2026-03-24T08:30:43.623Z</time></trkpt><trkpt lat="45.4826161" lon="11.0674343"><ele>125.0</ele><time>2026-03-24T08:30:44.626Z</time></trkpt><trkpt lat="45.4826396" lon="11.0673457"><ele>125.0</ele><time>2026-03-24T08:30:45.622Z</time></trkpt><trkpt lat="45.4827549" lon="11.0673526"><ele>125.0</ele><time>2026-03-24T08:30:47.647Z</time></trkpt><trkpt lat="45.4828347" lon="11.06744"><ele>125.0</ele><time>2026-03-24T08:30:48.632Z</time></trkpt><trkpt lat="45.4828985" lon="11.0675289"><ele>125.0</ele><time>2026-03-24T08:30:49.634Z</time></trkpt><trkpt lat="45.4829311" lon="11.0676648"><ele>125.0</ele><time>2026-03-24T08:30:50.644Z</time></trkpt><trkpt lat="45.4829805" lon="11.0678271"><ele>125.0</ele><time>2026-03-24T08:30:51.639Z</time></trkpt><trkpt lat="45.4830441" lon="11.0679859"><ele>129.25</ele><time>2026-03-24T08:30:52.639Z</time></trkpt><trkpt lat="45.4831113" lon="11.0681397"><ele>133.5</ele><time>2026-03-24T08:30:53.643Z</time></trkpt><trkpt lat="45.4831879" lon="11.0682803"><ele>137.75</ele><time>2026-03-24T08:30:54.641Z</time></trkpt><trkpt lat="45.4832798" lon="11.0684066"><ele>142.0</ele><time>2026-03-24T08:30:55.638Z</time></trkpt><trkpt lat="45.4833909" lon="11.0685274"><ele>142.0</ele><time>2026-03-24T08:30:56.64Z</time></trkpt><trkpt lat="45.4835211" lon="11.0686547"><ele>142.0</ele><time>2026-03-24T08:30:57.64Z</time></trkpt><trkpt lat="45.4836853" lon="11.0687869"><ele>142.0</ele><time>2026-03-24T08:30:58.646Z</time></trkpt><trkpt lat="45.4838427" lon="11.0689193"><ele>144.66666666666669</ele><time>2026-03-24T08:30:59.649Z</time></trkpt><trkpt lat="45.4839698" lon="11.0690505"><ele>147.33333333333334</ele><time>2026-03-24T08:31:00.642Z</time></trkpt><trkpt lat="45.4840967" lon="11.0691871"><ele>150.0</ele><time>2026-03-24T08:31:01.643Z</time></trkpt><trkpt lat="45.4842273" lon="11.069283"><ele>150.0</ele><time>2026-03-24T08:31:02.639Z</time></trkpt><trkpt lat="45.4843621" lon="11.0693673"><ele>150.0</ele><time>2026-03-24T08:31:03.646Z</time></trkpt><trkpt lat="45.4844895" lon="11.0694697"><ele>150.0</ele><time>2026-03-24T08:31:04.637Z</time></trkpt><trkpt lat="45.4846436" lon="11.0695925"><ele>151.33333333333334</ele><time>2026-03-24T08:31:05.636Z</time></trkpt><trkpt lat="45.4847976" lon="11.0697101"><ele>152.66666666666669</ele><time>2026-03-24T08:31:06.641Z</time></trkpt><trkpt lat="45.4849473" lon="11.0698344"><ele>154.0</ele><time>2026-03-24T08:31:07.639Z</time></trkpt><trkpt lat="45.4850827" lon="11.0699742"><ele>154.0</ele><time>2026-03-24T08:31:08.638Z</time></trkpt><trkpt lat="45.4852172" lon="11.0701435"><ele>154.0</ele><time>2026-03-24T08:31:09.644Z</time></trkpt><trkpt lat="45.4853518" lon="11.0702854"><ele>154.0</ele><time>2026-03-24T08:31:10.646Z</time></trkpt><trkpt lat="45.485469" lon="11.0704385"><ele>154.0</ele><time>2026-03-24T08:31:11.64Z</time></trkpt><trkpt lat="45.4855922" lon="11.07059"><ele>154.0</ele><time>2026-03-24T08:31:12.644Z</time></trkpt><trkpt lat="45.485721" lon="11.0707343"><ele>154.0</ele><time>2026-03-24T08:31:13.644Z</time></trkpt><trkpt lat="45.4858736" lon="11.070877"><ele>153.66666666666669</ele><time>2026-03-24T08:31:14.643Z</time></trkpt><trkpt lat="45.4860222" lon="11.0710263"><ele>153.33333333333334</ele><time>2026-03-24T08:31:15.646Z</time></trkpt><trkpt lat="45.4861617" lon="11.071177"><ele>153.0</ele><time>2026-03-24T08:31:16.649Z</time></trkpt><trkpt lat="45.4862909" lon="11.0713179"><ele>153.0</ele><time>2026-03-24T08:31:17.649Z</time></trkpt><trkpt lat="45.4864245" lon="11.0714657"><ele>153.0</ele><time>2026-03-24T08:31:18.645Z</time></trkpt><trkpt lat="45.4865669" lon="11.0716194"><ele>153.0</ele><time>2026-03-24T08:31:19.642Z</time></trkpt><trkpt lat="45.4866955" lon="11.0717931"><ele>157.66666666666666</ele><time>2026-03-24T08:31:20.65Z</time></trkpt><trkpt lat="45.486818" lon="11.0719497"><ele>162.33333333333331</ele><time>2026-03-24T08:31:21.657Z</time></trkpt><trkpt lat="45.4869253" lon="11.0721244"><ele>167.0</ele><time>2026-03-24T08:31:22.648Z</time></trkpt><trkpt lat="45.4870621" lon="11.0722587"><ele>164.33333333333331</ele><time>2026-03-24T08:31:23.647Z</time></trkpt><trkpt lat="45.4872198" lon="11.0723704"><ele>161.66666666666666</ele><time>2026-03-24T08:31:24.649Z</time></trkpt><trkpt lat="45.4873651" lon="11.0724789"><ele>159.0</ele><time>2026-03-24T08:31:25.64Z</time></trkpt><trkpt lat="45.4875044" lon="11.0725866"><ele>165.0</ele><time>2026-03-24T08:31:26.646Z</time></trkpt><trkpt lat="45.4876309" lon="11.0727077"><ele>171.0</ele><time>2026-03-24T08:31:27.647Z</time></trkpt><trkpt lat="45.4877546" lon="11.072843"><ele>177.0</ele><time>2026-03-24T08:31:28.65Z</time></trkpt><trkpt lat="45.4878667" lon="11.0730222"><ele>174.0</ele><time>2026-03-24T08:31:29.649Z</time></trkpt><trkpt lat="45.4879841" lon="11.073186"><ele>171.0</ele><time>2026-03-24T08:31:30.652Z</time></trkpt><trkpt lat="45.4881124" lon="11.0733582"><ele>168.0</ele><time>2026-03-24T08:31:31.649Z</time></trkpt><trkpt lat="45.4882166" lon="11.0735438"><ele>174.0</ele><time>2026-03-24T08:31:32.646Z</time></trkpt><trkpt lat="45.4883074" lon="11.073709"><ele>180.0</ele><time>2026-03-24T08:31:33.647Z</time></trkpt><trkpt lat="45.4884193" lon="11.0738652"><ele>186.0</ele><time>2026-03-24T08:31:34.639Z</time></trkpt><trkpt lat="45.4885478" lon="11.0740136"><ele>184.66666666666666</ele><time>2026-03-24T08:31:35.642Z</time></trkpt><trkpt lat="45.4886836" lon="11.0741556"><ele>183.33333333333331</ele><time>2026-03-24T08:31:36.645Z</time></trkpt><trkpt lat="45.4888283" lon="11.0742959"><ele>182.0</ele><time>2026-03-24T08:31:37.644Z</time></trkpt><trkpt lat="45.4889949" lon="11.0744044"><ele>185.66666666666666</ele><time>2026-03-24T08:31:38.642Z</time></trkpt><trkpt lat="45.4891688" lon="11.0745094"><ele>189.33333333333331</ele><time>2026-03-24T08:31:39.648Z</time></trkpt><trkpt lat="45.4893466" lon="11.074615"><ele>193.0</ele><time>2026-03-24T08:31:40.641Z</time></trkpt><trkpt lat="45.4895314" lon="11.0747124"><ele>194.0</ele><time>2026-03-24T08:31:41.637Z</time></trkpt><trkpt lat="45.4897175" lon="11.0748287"><ele>195.0</ele><time>2026-03-24T08:31:42.639Z</time></trkpt><trkpt lat="45.4898814" lon="11.0749462"><ele>196.0</ele><time>2026-03-24T08:31:43.642Z</time></trkpt><trkpt lat="45.4900286" lon="11.0750647"><ele>200.5</ele><time>2026-03-24T08:31:44.65Z</time></trkpt><trkpt lat="45.4901639" lon="11.0751601"><ele>205.0</ele><time>2026-03-24T08:31:45.641Z</time></trkpt><trkpt lat="45.4902778" lon="11.0752214"><ele>209.5</ele><time>2026-03-24T08:31:46.635Z</time></trkpt><trkpt lat="45.4903841" lon="11.0752524"><ele>214.0</ele><time>2026-03-24T08:31:47.642Z</time></trkpt><trkpt lat="45.4904652" lon="11.0752488"><ele>214.33333333333331</ele><time>2026-03-24T08:31:48.636Z</time></trkpt><trkpt lat="45.4905843" lon="11.0751585"><ele>214.66666666666666</ele><time>2026-03-24T08:31:50.643Z</time></trkpt><trkpt lat="45.4906562" lon="11.0751226"><ele>215.0</ele><time>2026-03-24T08:31:51.644Z</time></trkpt><trkpt lat="45.4907188" lon="11.0751106"><ele>215.33333333333331</ele><time>2026-03-24T08:31:53.65Z</time></trkpt><trkpt lat="45.4908006" lon="11.0751235"><ele>215.66666666666666</ele><time>2026-03-24T08:31:56.645Z</time></trkpt><trkpt lat="45.4908519" lon="11.0752149"><ele>216.0</ele><time>2026-03-24T08:31:58.648Z</time></trkpt><trkpt lat="45.4908129" lon="11.0753608"><ele>216.0</ele><time>2026-03-24T08:32:00.643Z</time></trkpt><trkpt lat="45.4907215" lon="11.0754111"><ele>216.0</ele><time>2026-03-24T08:32:01.651Z</time></trkpt><trkpt lat="45.490602" lon="11.075444"><ele>216.0</ele><time>2026-03-24T08:32:02.636Z</time></trkpt><trkpt lat="45.4904786" lon="11.0754655"><ele>216.0</ele><time>2026-03-24T08:32:03.638Z</time></trkpt><trkpt lat="45.4903401" lon="11.0754864"><ele>215.60000000000002</ele><time>2026-03-24T08:32:04.641Z</time></trkpt><trkpt lat="45.4902087" lon="11.0754924"><ele>215.20000000000002</ele><time>2026-03-24T08:32:05.638Z</time></trkpt><trkpt lat="45.4901" lon="11.075489"><ele>214.79999999999998</ele><time>2026-03-24T08:32:06.633Z</time></trkpt><trkpt lat="45.4900044" lon="11.0754936"><ele>214.39999999999998</ele><time>2026-03-24T08:32:07.641Z</time></trkpt><trkpt lat="45.4899121" lon="11.075502"><ele>214.0</ele><time>2026-03-24T08:32:08.647Z</time></trkpt><trkpt lat="45.4898398" lon="11.0755271"><ele>214.0</ele><time>2026-03-24T08:32:09.638Z</time></trkpt><trkpt lat="45.4897833" lon="11.0755899"><ele>213.99999999999997</ele><time>2026-03-24T08:32:10.647Z</time></trkpt><trkpt lat="45.4897496" lon="11.0757026"><ele>213.99999999999997</ele><time>2026-03-24T08:32:11.64Z</time></trkpt><trkpt lat="45.4897504" lon="11.0758466"><ele>214.0</ele><time>2026-03-24T08:32:12.645Z</time></trkpt><trkpt lat="45.4897724" lon="11.0760102"><ele>214.0</ele><time>2026-03-24T08:32:13.65Z</time></trkpt><trkpt lat="45.4898162" lon="11.076187"><ele>217.25</ele><time>2026-03-24T08:32:14.65Z</time></trkpt><trkpt lat="45.4898635" lon="11.0763654"><ele>220.5</ele><time>2026-03-24T08:32:15.649Z</time></trkpt><trkpt lat="45.4899134" lon="11.0765546"><ele>223.75</ele><time>2026-03-24T08:32:16.653Z</time></trkpt><trkpt lat="45.4899815" lon="11.076754"><ele>227.0</ele><time>2026-03-24T08:32:17.654Z</time></trkpt><trkpt lat="45.4901281" lon="11.0770176"><ele>227.33333333333334</ele><time>2026-03-24T08:32:18.645Z</time></trkpt><trkpt lat="45.4902643" lon="11.0772882"><ele>227.66666666666669</ele><time>2026-03-24T08:32:19.651Z</time></trkpt><trkpt lat="45.4903666" lon="11.0775232"><ele>228.0</ele><time>2026-03-24T08:32:20.645Z</time></trkpt><trkpt lat="45.4904305" lon="11.0777094"><ele>234.0</ele><time>2026-03-24T08:32:21.647Z</time></trkpt><trkpt lat="45.4904952" lon="11.0778922"><ele>240.0</ele><time>2026-03-24T08:32:22.654Z</time></trkpt><trkpt lat="45.4905668" lon="11.0780447"><ele>246.0</ele><time>2026-03-24T08:32:23.639Z</time></trkpt><trkpt lat="45.4906318" lon="11.0781907"><ele>252.0</ele><time>2026-03-24T08:32:24.643Z</time></trkpt><trkpt lat="45.4906915" lon="11.078309"><ele>252.0</ele><time>2026-03-24T08:32:25.643Z</time></trkpt><trkpt lat="45.490768" lon="11.0784101"><ele>252.0</ele><time>2026-03-24T08:32:26.642Z</time></trkpt><trkpt lat="45.490785" lon="11.0785102"><ele>252.0</ele><time>2026-03-24T08:32:27.621Z</time></trkpt><trkpt lat="45.4907551" lon="11.0786585"><ele>252.0</ele><time>2026-03-24T08:32:29.63Z</time></trkpt><trkpt lat="45.4906555" lon="11.0787638"><ele>252.0</ele><time>2026-03-24T08:32:31.634Z</time></trkpt><trkpt lat="45.4905826" lon="11.0788274"><ele>252.0</ele><time>2026-03-24T08:32:32.632Z</time></trkpt><trkpt lat="45.4905023" lon="11.0788905"><ele>252.0</ele><time>2026-03-24T08:32:33.631Z</time></trkpt><trkpt lat="45.4904194" lon="11.078943"><ele>252.0</ele><time>2026-03-24T08:32:34.636Z</time></trkpt><trkpt lat="45.4903506" lon="11.0789852"><ele>252.0</ele><time>2026-03-24T08:32:35.635Z</time></trkpt><trkpt lat="45.4902944" lon="11.0790317"><ele>252.0</ele><time>2026-03-24T08:32:36.634Z</time></trkpt><trkpt lat="45.4902256" lon="11.0791727"><ele>252.0</ele><time>2026-03-24T08:32:38.622Z</time></trkpt><trkpt lat="45.4902552" lon="11.0792963"><ele>252.0</ele><time>2026-03-24T08:32:40.634Z</time></trkpt><trkpt lat="45.4903513" lon="11.0792929"><ele>252.0</ele><time>2026-03-24T08:32:41.635Z</time></trkpt><trkpt lat="45.4904644" lon="11.0792468"><ele>252.0</ele><time>2026-03-24T08:32:42.631Z</time></trkpt><trkpt lat="45.4906029" lon="11.0791399"><ele>252.0</ele><time>2026-03-24T08:32:43.626Z</time></trkpt><trkpt lat="45.4907412" lon="11.0790397"><ele>252.0</ele><time>2026-03-24T08:32:44.629Z</time></trkpt><trkpt lat="45.4908718" lon="11.0789457"><ele>252.0</ele><time>2026-03-24T08:32:45.627Z</time></trkpt><trkpt lat="45.490997" lon="11.0788517"><ele>252.0</ele><time>2026-03-24T08:32:46.629Z</time></trkpt><trkpt lat="45.4910982" lon="11.0787428"><ele>252.0</ele><time>2026-03-24T08:32:47.627Z</time></trkpt><trkpt lat="45.4911625" lon="11.0785855"><ele>252.0</ele><time>2026-03-24T08:32:48.637Z</time></trkpt><trkpt lat="45.4911909" lon="11.0783899"><ele>252.0</ele><time>2026-03-24T08:32:49.629Z</time></trkpt><trkpt lat="45.4911989" lon="11.0782016"><ele>252.0</ele><time>2026-03-24T08:32:50.631Z</time></trkpt><trkpt lat="45.4912046" lon="11.0780265"><ele>252.0</ele><time>2026-03-24T08:32:51.64Z</time></trkpt><trkpt lat="45.4912229" lon="11.0778819"><ele>252.2</ele><time>2026-03-24T08:32:52.631Z</time></trkpt><trkpt lat="45.4912562" lon="11.0777467"><ele>252.39999999999998</ele><time>2026-03-24T08:32:53.636Z</time></trkpt><trkpt lat="45.4913067" lon="11.0776446"><ele>252.60000000000002</ele><time>2026-03-24T08:32:54.631Z</time></trkpt><trkpt lat="45.4913839" lon="11.0775825"><ele>252.8</ele><time>2026-03-24T08:32:55.637Z</time></trkpt><trkpt lat="45.4914853" lon="11.0775729"><ele>253.0</ele><time>2026-03-24T08:32:56.635Z</time></trkpt><trkpt lat="45.4915904" lon="11.0775913"><ele>254.75</ele><time>2026-03-24T08:32:57.633Z</time></trkpt><trkpt lat="45.4916959" lon="11.0776443"><ele>256.5</ele><time>2026-03-24T08:32:58.624Z</time></trkpt><trkpt lat="45.4917921" lon="11.0777463"><ele>258.25</ele><time>2026-03-24T08:32:59.63Z</time></trkpt><trkpt lat="45.4918863" lon="11.0778664"><ele>260.0</ele><time>2026-03-24T08:33:00.632Z</time></trkpt><trkpt lat="45.4919899" lon="11.0780182"><ele>256.6666666666667</ele><time>2026-03-24T08:33:01.635Z</time></trkpt><trkpt lat="45.4921117" lon="11.0781903"><ele>253.33333333333331</ele><time>2026-03-24T08:33:02.632Z</time></trkpt><trkpt lat="45.4922608" lon="11.0783001"><ele>250.0</ele><time>2026-03-24T08:33:03.63Z</time></trkpt><trkpt lat="45.492414" lon="11.0783607"><ele>256.66666666666663</ele><time>2026-03-24T08:33:04.63Z</time></trkpt><trkpt lat="45.4925596" lon="11.0784306"><ele>263.3333333333333</ele><time>2026-03-24T08:33:05.623Z</time></trkpt><trkpt lat="45.4927147" lon="11.078505"><ele>270.0</ele><time>2026-03-24T08:33:06.634Z</time></trkpt><trkpt lat="45.4928482" lon="11.0785386"><ele>268.5</ele><time>2026-03-24T08:33:07.636Z</time></trkpt><trkpt lat="45.4930032" lon="11.0786064"><ele>267.0</ele><time>2026-03-24T08:33:08.632Z</time></trkpt><trkpt lat="45.4931331" lon="11.0786825"><ele>265.5</ele><time>2026-03-24T08:33:09.638Z</time></trkpt><trkpt lat="45.4932569" lon="11.0787449"><ele>264.0</ele><time>2026-03-24T08:33:10.634Z</time></trkpt><trkpt lat="45.4933818" lon="11.0788135"><ele>264.0</ele><time>2026-03-24T08:33:11.633Z</time></trkpt><trkpt lat="45.4935045" lon="11.078888"><ele>264.0</ele><time>2026-03-24T08:33:12.629Z</time></trkpt><trkpt lat="45.4936152" lon="11.0789884"><ele>264.0</ele><time>2026-03-24T08:33:13.636Z</time></trkpt><trkpt lat="45.4937124" lon="11.0791029"><ele>264.0</ele><time>2026-03-24T08:33:14.627Z</time></trkpt><trkpt lat="45.4937725" lon="11.0792413"><ele>265.4</ele><time>2026-03-24T08:33:15.633Z</time></trkpt><trkpt lat="45.4937788" lon="11.0793954"><ele>266.79999999999995</ele><time>2026-03-24T08:33:16.632Z</time></trkpt><trkpt lat="45.4937641" lon="11.0795373"><ele>268.20000000000005</ele><time>2026-03-24T08:33:17.629Z</time></trkpt><trkpt lat="45.4937439" lon="11.0797011"><ele>269.6</ele><time>2026-03-24T08:33:18.629Z</time></trkpt><trkpt lat="45.4937252" lon="11.0798714"><ele>271.0</ele><time>2026-03-24T08:33:19.629Z</time></trkpt><trkpt lat="45.4936973" lon="11.0800439"><ele>273.0</ele><time>2026-03-24T08:33:20.63Z</time></trkpt><trkpt lat="45.4936898" lon="11.0801916"><ele>275.0</ele><time>2026-03-24T08:33:21.631Z</time></trkpt><trkpt lat="45.4937179" lon="11.0802987"><ele>277.0</ele><time>2026-03-24T08:33:22.632Z</time></trkpt><trkpt lat="45.4937594" lon="11.0803996"><ele>279.0</ele><time>2026-03-24T08:33:23.622Z</time></trkpt><trkpt lat="45.4938235" lon="11.0804573"><ele>281.0</ele><time>2026-03-24T08:33:24.632Z</time></trkpt><trkpt lat="45.4939067" lon="11.0804705"><ele>283.0</ele><time>2026-03-24T08:33:25.633Z</time></trkpt><trkpt lat="45.4940029" lon="11.0804471"><ele>283.0</ele><time>2026-03-24T08:33:26.633Z</time></trkpt><trkpt lat="45.4941128" lon="11.0803869"><ele>283.0</ele><time>2026-03-24T08:33:27.629Z</time></trkpt><trkpt lat="45.494273" lon="11.0802929"><ele>283.0</ele><time>2026-03-24T08:33:28.632Z</time></trkpt><trkpt lat="45.4944532" lon="11.0802238"><ele>284.3333333333333</ele><time>2026-03-24T08:33:29.638Z</time></trkpt><trkpt lat="45.4946579" lon="11.0801596"><ele>285.6666666666667</ele><time>2026-03-24T08:33:30.632Z</time></trkpt><trkpt lat="45.4948411" lon="11.0800774"><ele>287.0</ele><time>2026-03-24T08:33:31.639Z</time></trkpt><trkpt lat="45.4950097" lon="11.0800655"><ele>287.0</ele><time>2026-03-24T08:33:32.633Z</time></trkpt><trkpt lat="45.4951509" lon="11.0801229"><ele>287.0</ele><time>2026-03-24T08:33:33.629Z</time></trkpt><trkpt lat="45.495258" lon="11.0802345"><ele>287.0</ele><time>2026-03-24T08:33:34.633Z</time></trkpt><trkpt lat="45.4953875" lon="11.0803215"><ele>287.0</ele><time>2026-03-24T08:33:35.633Z</time></trkpt><trkpt lat="45.4955264" lon="11.0804078"><ele>288.0</ele><time>2026-03-24T08:33:36.627Z</time></trkpt><trkpt lat="45.4956456" lon="11.0804783"><ele>289.0</ele><time>2026-03-24T08:33:37.634Z</time></trkpt><trkpt lat="45.4957704" lon="11.0805825"><ele>290.0</ele><time>2026-03-24T08:33:38.626Z</time></trkpt><trkpt lat="45.4958741" lon="11.0807351"><ele>291.0</ele><time>2026-03-24T08:33:39.632Z</time></trkpt><trkpt lat="45.4959843" lon="11.0808586"><ele>295.0</ele><time>2026-03-24T08:33:40.625Z</time></trkpt><trkpt lat="45.4961055" lon="11.0810208"><ele>299.0</ele><time>2026-03-24T08:33:41.63Z</time></trkpt><trkpt lat="45.4961987" lon="11.0812003"><ele>303.0</ele><time>2026-03-24T08:33:42.631Z</time></trkpt><trkpt lat="45.4962971" lon="11.0813848"><ele>303.5</ele><time>2026-03-24T08:33:43.624Z</time></trkpt><trkpt lat="45.4963957" lon="11.081566"><ele>304.0</ele><time>2026-03-24T08:33:44.625Z</time></trkpt><trkpt lat="45.4964625" lon="11.0817154"><ele>304.5</ele><time>2026-03-24T08:33:45.623Z</time></trkpt><trkpt lat="45.4965421" lon="11.081828"><ele>305.0</ele><time>2026-03-24T08:33:46.611Z</time></trkpt><trkpt lat="45.496646" lon="11.0818765"><ele>305.6</ele><time>2026-03-24T08:33:47.618Z</time></trkpt><trkpt lat="45.4967061" lon="11.0819552"><ele>306.2</ele><time>2026-03-24T08:33:48.618Z</time></trkpt><trkpt lat="45.4968077" lon="11.0819485"><ele>306.8</ele><time>2026-03-24T08:33:49.626Z</time></trkpt><trkpt lat="45.4968943" lon="11.0818815"><ele>307.4</ele><time>2026-03-24T08:33:50.627Z</time></trkpt><trkpt lat="45.4969841" lon="11.0817581"><ele>308.0</ele><time>2026-03-24T08:33:51.63Z</time></trkpt><trkpt lat="45.4970484" lon="11.0816335"><ele>311.25</ele><time>2026-03-24T08:33:52.626Z</time></trkpt><trkpt lat="45.4970965" lon="11.0814586"><ele>314.5</ele><time>2026-03-24T08:33:53.626Z</time></trkpt><trkpt lat="45.4971297" lon="11.0812589"><ele>317.75</ele><time>2026-03-24T08:33:54.628Z</time></trkpt><trkpt lat="45.4971593" lon="11.0810585"><ele>321.0</ele><time>2026-03-24T08:33:55.632Z</time></trkpt><trkpt lat="45.4971961" lon="11.0808702"><ele>320.5</ele><time>2026-03-24T08:33:56.627Z</time></trkpt><trkpt lat="45.4972445" lon="11.0807047"><ele>320.0</ele><time>2026-03-24T08:33:57.623Z</time></trkpt><trkpt lat="45.497322" lon="11.0805471"><ele>319.5</ele><time>2026-03-24T08:33:58.631Z</time></trkpt><trkpt lat="45.4974172" lon="11.0804004"><ele>319.0</ele><time>2026-03-24T08:33:59.63Z</time></trkpt><trkpt lat="45.4975227" lon="11.0802618"><ele>319.0</ele><time>2026-03-24T08:34:00.625Z</time></trkpt><trkpt lat="45.4976604" lon="11.0801171"><ele>319.0</ele><time>2026-03-24T08:34:01.633Z</time></trkpt><trkpt lat="45.497803" lon="11.0799719"><ele>319.0</ele><time>2026-03-24T08:34:02.63Z</time></trkpt><trkpt lat="45.4979118" lon="11.0798301"><ele>321.66666666666663</ele><time>2026-03-24T08:34:03.623Z</time></trkpt><trkpt lat="45.4980383" lon="11.0796843"><ele>324.3333333333333</ele><time>2026-03-24T08:34:04.628Z</time></trkpt><trkpt lat="45.4981613" lon="11.0795331"><ele>327.0</ele><time>2026-03-24T08:34:05.627Z</time></trkpt><trkpt lat="45.4982799" lon="11.0793727"><ele>327.0</ele><time>2026-03-24T08:34:06.623Z</time></trkpt><trkpt lat="45.498368" lon="11.0792133"><ele>327.0</ele><time>2026-03-24T08:34:07.629Z</time></trkpt><trkpt lat="45.4984599" lon="11.079074"><ele>327.0</ele><time>2026-03-24T08:34:08.627Z</time></trkpt><trkpt lat="45.4985562" lon="11.0789563"><ele>327.0</ele><time>2026-03-24T08:34:09.629Z</time></trkpt><trkpt lat="45.498641" lon="11.0788558"><ele>326.75</ele><time>2026-03-24T08:34:10.627Z</time></trkpt><trkpt lat="45.4986937" lon="11.0787179"><ele>326.5</ele><time>2026-03-24T08:34:11.635Z</time></trkpt><trkpt lat="45.4987566" lon="11.0785984"><ele>326.25</ele><time>2026-03-24T08:34:12.632Z</time></trkpt><trkpt lat="45.4987744" lon="11.078454"><ele>326.0</ele><time>2026-03-24T08:34:13.626Z</time></trkpt><trkpt lat="45.4987269" lon="11.0782527"><ele>328.0</ele><time>2026-03-24T08:34:14.623Z</time></trkpt><trkpt lat="45.4986201" lon="11.0780583"><ele>330.0</ele><time>2026-03-24T08:34:15.634Z</time></trkpt><trkpt lat="45.4985416" lon="11.0778641"><ele>332.0</ele><time>2026-03-24T08:34:16.63Z</time></trkpt><trkpt lat="45.4984545" lon="11.0776701"><ele>332.0</ele><time>2026-03-24T08:34:17.627Z</time></trkpt><trkpt lat="45.4983851" lon="11.0774713"><ele>332.0</ele><time>2026-03-24T08:34:18.628Z</time></trkpt><trkpt lat="45.4983212" lon="11.0772848"><ele>332.0</ele><time>2026-03-24T08:34:19.631Z</time></trkpt><trkpt lat="45.498266" lon="11.0770928"><ele>332.0</ele><time>2026-03-24T08:34:20.626Z</time></trkpt><trkpt lat="45.498182" lon="11.0769167"><ele>333.0</ele><time>2026-03-24T08:34:21.636Z</time></trkpt><trkpt lat="45.4981784" lon="11.076755"><ele>334.0</ele><time>2026-03-24T08:34:22.633Z</time></trkpt><trkpt lat="45.4982015" lon="11.0766089"><ele>335.0</ele><time>2026-03-24T08:34:23.639Z</time></trkpt><trkpt lat="45.4982453" lon="11.0764711"><ele>336.0</ele><time>2026-03-24T08:34:24.643Z</time></trkpt><trkpt lat="45.4983057" lon="11.0763412"><ele>337.0</ele><time>2026-03-24T08:34:25.638Z</time></trkpt><trkpt lat="45.4983927" lon="11.0762359"><ele>337.0</ele><time>2026-03-24T08:34:26.64Z</time></trkpt><trkpt lat="45.4984711" lon="11.0761139"><ele>337.0</ele><time>2026-03-24T08:34:27.639Z</time></trkpt><trkpt lat="45.4985879" lon="11.0760017"><ele>337.0</ele><time>2026-03-24T08:34:28.634Z</time></trkpt><trkpt lat="45.4987085" lon="11.0758797"><ele>337.0</ele><time>2026-03-24T08:34:29.64Z</time></trkpt><trkpt lat="45.4988259" lon="11.0757403"><ele>339.0</ele><time>2026-03-24T08:34:30.639Z</time></trkpt><trkpt lat="45.4989702" lon="11.0756217"><ele>341.0</ele><time>2026-03-24T08:34:31.635Z</time></trkpt><trkpt lat="45.4990956" lon="11.0755242"><ele>343.0</ele><time>2026-03-24T08:34:32.63Z</time></trkpt><trkpt lat="45.4991847" lon="11.075448"><ele>345.0</ele><time>2026-03-24T08:34:33.634Z</time></trkpt><trkpt lat="45.4992684" lon="11.0753908"><ele>345.0</ele><time>2026-03-24T08:34:34.628Z</time></trkpt><trkpt lat="45.4993681" lon="11.0754027"><ele>345.0</ele><time>2026-03-24T08:34:35.629Z</time></trkpt><trkpt lat="45.4995308" lon="11.0754704"><ele>345.0</ele><time>2026-03-24T08:34:37.625Z</time></trkpt><trkpt lat="45.4996167" lon="11.0755781"><ele>345.0</ele><time>2026-03-24T08:34:38.628Z</time></trkpt><trkpt lat="45.4996639" lon="11.0757223"><ele>345.75</ele><time>2026-03-24T08:34:39.626Z</time></trkpt><trkpt lat="45.4997084" lon="11.0758867"><ele>346.5</ele><time>2026-03-24T08:34:40.635Z</time></trkpt><trkpt lat="45.4997425" lon="11.0760726"><ele>347.25</ele><time>2026-03-24T08:34:41.629Z</time></trkpt><trkpt lat="45.4997645" lon="11.0762775"><ele>348.0</ele><time>2026-03-24T08:34:42.629Z</time></trkpt><trkpt lat="45.4997872" lon="11.0765352"><ele>349.6666666666667</ele><time>2026-03-24T08:34:43.632Z</time></trkpt><trkpt lat="45.4998064" lon="11.0767849"><ele>351.33333333333337</ele><time>2026-03-24T08:34:44.632Z</time></trkpt><trkpt lat="45.4998293" lon="11.0770466"><ele>353.0</ele><time>2026-03-24T08:34:45.633Z</time></trkpt><trkpt lat="45.4998687" lon="11.0772919"><ele>354.0</ele><time>2026-03-24T08:34:46.635Z</time></trkpt><trkpt lat="45.4998966" lon="11.07753"><ele>355.0</ele><time>2026-03-24T08:34:47.644Z</time></trkpt><trkpt lat="45.4999394" lon="11.0777574"><ele>356.0</ele><time>2026-03-24T08:34:48.637Z</time></trkpt><trkpt lat="45.4999976" lon="11.0779833"><ele>356.0</ele><time>2026-03-24T08:34:49.637Z</time></trkpt><trkpt lat="45.5000629" lon="11.0781719"><ele>356.0</ele><time>2026-03-24T08:34:50.633Z</time></trkpt><trkpt lat="45.5001304" lon="11.0783823"><ele>356.0</ele><time>2026-03-24T08:34:51.634Z</time></trkpt><trkpt lat="45.5001709" lon="11.0785859"><ele>356.33333333333337</ele><time>2026-03-24T08:34:52.641Z</time></trkpt><trkpt lat="45.5002017" lon="11.0788259"><ele>356.6666666666667</ele><time>2026-03-24T08:34:53.642Z</time></trkpt><trkpt lat="45.5002655" lon="11.0790644"><ele>357.0</ele><time>2026-03-24T08:34:54.64Z</time></trkpt><trkpt lat="45.5003091" lon="11.0792931"><ele>357.3333333333333</ele><time>2026-03-24T08:34:55.64Z</time></trkpt><trkpt lat="45.5003543" lon="11.0795018"><ele>357.66666666666663</ele><time>2026-03-24T08:34:56.635Z</time></trkpt><trkpt lat="45.5004339" lon="11.0797004"><ele>358.0</ele><time>2026-03-24T08:34:57.642Z</time></trkpt><trkpt lat="45.5005055" lon="11.0798828"><ele>360.0</ele><time>2026-03-24T08:34:58.641Z</time></trkpt><trkpt lat="45.5005854" lon="11.0800652"><ele>362.0</ele><time>2026-03-24T08:34:59.641Z</time></trkpt><trkpt lat="45.5006477" lon="11.080253"><ele>364.0</ele><time>2026-03-24T08:35:00.631Z</time></trkpt><trkpt lat="45.5006859" lon="11.0804487"><ele>366.0</ele><time>2026-03-24T08:35:01.642Z</time></trkpt><trkpt lat="45.5006892" lon="11.0806726"><ele>367.5</ele><time>2026-03-24T08:35:02.632Z</time></trkpt><trkpt lat="45.5007" lon="11.0808442"><ele>369.0</ele><time>2026-03-24T08:35:03.626Z</time></trkpt><trkpt lat="45.5006709" lon="11.0810303"><ele>370.5</ele><time>2026-03-24T08:35:04.635Z</time></trkpt><trkpt lat="45.5006708" lon="11.0812255"><ele>372.0</ele><time>2026-03-24T08:35:05.639Z</time></trkpt><trkpt lat="45.5006699" lon="11.0813894"><ele>372.0</ele><time>2026-03-24T08:35:06.629Z</time></trkpt><trkpt lat="45.500686" lon="11.0815761"><ele>372.0</ele><time>2026-03-24T08:35:07.633Z</time></trkpt><trkpt lat="45.5007179" lon="11.0817606"><ele>372.0</ele><time>2026-03-24T08:35:08.637Z</time></trkpt><trkpt lat="45.5007782" lon="11.0819346"><ele>372.0</ele><time>2026-03-24T08:35:09.64Z</time></trkpt><trkpt lat="45.5008574" lon="11.0821013"><ele>373.5</ele><time>2026-03-24T08:35:10.65Z</time></trkpt><trkpt lat="45.5009483" lon="11.0822701"><ele>375.0</ele><time>2026-03-24T08:35:11.647Z</time></trkpt><trkpt lat="45.5010389" lon="11.0824168"><ele>376.5</ele><time>2026-03-24T08:35:12.638Z</time></trkpt><trkpt lat="45.5011046" lon="11.0825312"><ele>378.0</ele><time>2026-03-24T08:35:13.639Z</time></trkpt><trkpt lat="45.50122" lon="11.0826221"><ele>382.0</ele><time>2026-03-24T08:35:14.638Z</time></trkpt><trkpt lat="45.5013005" lon="11.0826861"><ele>386.0</ele><time>2026-03-24T08:35:15.643Z</time></trkpt><trkpt lat="45.5014084" lon="11.0826905"><ele>390.0</ele><time>2026-03-24T08:35:16.631Z</time></trkpt><trkpt lat="45.5015259" lon="11.0826469"><ele>394.0</ele><time>2026-03-24T08:35:17.63Z</time></trkpt><trkpt lat="45.5016436" lon="11.0825716"><ele>394.0</ele><time>2026-03-24T08:35:18.636Z</time></trkpt><trkpt lat="45.5017477" lon="11.0824394"><ele>394.0</ele><time>2026-03-24T08:35:19.634Z</time></trkpt><trkpt lat="45.5018358" lon="11.0822847"><ele>394.0</ele><time>2026-03-24T08:35:20.642Z</time></trkpt><trkpt lat="45.5019103" lon="11.0821058"><ele>394.0</ele><time>2026-03-24T08:35:21.638Z</time></trkpt><trkpt lat="45.5019846" lon="11.0819451"><ele>392.6</ele><time>2026-03-24T08:35:22.641Z</time></trkpt><trkpt lat="45.5020443" lon="11.0818184"><ele>391.2</ele><time>2026-03-24T08:35:23.637Z</time></trkpt><trkpt lat="45.5021234" lon="11.0817263"><ele>389.8</ele><time>2026-03-24T08:35:24.636Z</time></trkpt><trkpt lat="45.5022155" lon="11.0816897"><ele>388.40000000000003</ele><time>2026-03-24T08:35:25.642Z</time></trkpt><trkpt lat="45.502324" lon="11.0816848"><ele>387.0</ele><time>2026-03-24T08:35:26.639Z</time></trkpt><trkpt lat="45.5024531" lon="11.0817041"><ele>391.5</ele><time>2026-03-24T08:35:27.645Z</time></trkpt><trkpt lat="45.5025773" lon="11.0817173"><ele>396.0</ele><time>2026-03-24T08:35:28.641Z</time></trkpt><trkpt lat="45.5026953" lon="11.0816965"><ele>400.5</ele><time>2026-03-24T08:35:29.633Z</time></trkpt><trkpt lat="45.5028233" lon="11.081658"><ele>405.0</ele><time>2026-03-24T08:35:30.625Z</time></trkpt><trkpt lat="45.5029285" lon="11.0815243"><ele>407.33333333333337</ele><time>2026-03-24T08:35:31.632Z</time></trkpt><trkpt lat="45.5030245" lon="11.0813035"><ele>409.6666666666667</ele><time>2026-03-24T08:35:32.627Z</time></trkpt><trkpt lat="45.5031037" lon="11.0811092"><ele>412.0</ele><time>2026-03-24T08:35:33.627Z</time></trkpt><trkpt lat="45.5031791" lon="11.0809411"><ele>412.0</ele><time>2026-03-24T08:35:34.633Z</time></trkpt><trkpt lat="45.5032564" lon="11.0807745"><ele>412.0</ele><time>2026-03-24T08:35:35.634Z</time></trkpt><trkpt lat="45.5033573" lon="11.0806177"><ele>412.0</ele><time>2026-03-24T08:35:36.639Z</time></trkpt><trkpt lat="45.5034539" lon="11.0804524"><ele>412.0</ele><time>2026-03-24T08:35:37.637Z</time></trkpt><trkpt lat="45.503541" lon="11.0802779"><ele>411.5</ele><time>2026-03-24T08:35:38.636Z</time></trkpt><trkpt lat="45.5036277" lon="11.0801162"><ele>411.0</ele><time>2026-03-24T08:35:39.63Z</time></trkpt><trkpt lat="45.5037167" lon="11.0799534"><ele>410.5</ele><time>2026-03-24T08:35:40.631Z</time></trkpt><trkpt lat="45.5038025" lon="11.0797736"><ele>410.0</ele><time>2026-03-24T08:35:41.639Z</time></trkpt><trkpt lat="45.5038509" lon="11.0796075"><ele>409.99999999999994</ele><time>2026-03-24T08:35:42.632Z</time></trkpt><trkpt lat="45.5038974" lon="11.079459"><ele>410.0</ele><time>2026-03-24T08:35:43.632Z</time></trkpt><trkpt lat="45.5039479" lon="11.0793665"><ele>410.0</ele><time>2026-03-24T08:35:44.637Z</time></trkpt><trkpt lat="45.5039799" lon="11.0792748"><ele>410.0</ele><time>2026-03-24T08:35:45.633Z</time></trkpt><trkpt lat="45.504064" lon="11.0792303"><ele>409.99999999999994</ele><time>2026-03-24T08:35:46.633Z</time></trkpt><trkpt lat="45.5041437" lon="11.0791909"><ele>410.0</ele><time>2026-03-24T08:35:47.638Z</time></trkpt><trkpt lat="45.5042505" lon="11.0792009"><ele>410.0</ele><time>2026-03-24T08:35:48.642Z</time></trkpt><trkpt lat="45.5043507" lon="11.079239"><ele>410.0</ele><time>2026-03-24T08:35:49.633Z</time></trkpt><trkpt lat="45.504451" lon="11.079323"><ele>410.0</ele><time>2026-03-24T08:35:50.635Z</time></trkpt><trkpt lat="45.50453" lon="11.0794455"><ele>410.0</ele><time>2026-03-24T08:35:51.639Z</time></trkpt><trkpt lat="45.5045876" lon="11.079587"><ele>408.75</ele><time>2026-03-24T08:35:52.632Z</time></trkpt><trkpt lat="45.5046144" lon="11.0797523"><ele>407.5</ele><time>2026-03-24T08:35:53.639Z</time></trkpt><trkpt lat="45.5046194" lon="11.0799556"><ele>406.25</ele><time>2026-03-24T08:35:54.642Z</time></trkpt><trkpt lat="45.5046229" lon="11.0801947"><ele>405.0</ele><time>2026-03-24T08:35:55.644Z</time></trkpt><trkpt lat="45.5045958" lon="11.0805176"><ele>407.0</ele><time>2026-03-24T08:35:56.641Z</time></trkpt><trkpt lat="45.5045803" lon="11.0808004"><ele>409.0</ele><time>2026-03-24T08:35:57.636Z</time></trkpt><trkpt lat="45.504606" lon="11.0810434"><ele>411.0</ele><time>2026-03-24T08:35:58.634Z</time></trkpt><trkpt lat="45.5046123" lon="11.0812314"><ele>411.0</ele><time>2026-03-24T08:35:59.642Z</time></trkpt><trkpt lat="45.5046417" lon="11.0814072"><ele>411.0</ele><time>2026-03-24T08:36:00.632Z</time></trkpt><trkpt lat="45.5046841" lon="11.0815965"><ele>411.0</ele><time>2026-03-24T08:36:01.63Z</time></trkpt><trkpt lat="45.5047434" lon="11.0817734"><ele>411.0</ele><time>2026-03-24T08:36:02.63Z</time></trkpt><trkpt lat="45.5048233" lon="11.0819144"><ele>414.0</ele><time>2026-03-24T08:36:03.635Z</time></trkpt><trkpt lat="45.5049296" lon="11.0820662"><ele>417.0</ele><time>2026-03-24T08:36:04.631Z</time></trkpt><trkpt lat="45.5050692" lon="11.0822156"><ele>420.0</ele><time>2026-03-24T08:36:05.629Z</time></trkpt><trkpt lat="45.5052024" lon="11.0823547"><ele>419.0</ele><time>2026-03-24T08:36:06.631Z</time></trkpt><trkpt lat="45.5053016" lon="11.0824971"><ele>418.0</ele><time>2026-03-24T08:36:07.632Z</time></trkpt><trkpt lat="45.5053991" lon="11.0826363"><ele>417.0</ele><time>2026-03-24T08:36:08.629Z</time></trkpt><trkpt lat="45.5054745" lon="11.0827956"><ele>416.0</ele><time>2026-03-24T08:36:09.627Z</time></trkpt><trkpt lat="45.5055274" lon="11.0829532"><ele>416.0</ele><time>2026-03-24T08:36:10.63Z</time></trkpt><trkpt lat="45.5055552" lon="11.0831361"><ele>416.0</ele><time>2026-03-24T08:36:11.629Z</time></trkpt><trkpt lat="45.5055521" lon="11.0832918"><ele>416.0</ele><time>2026-03-24T08:36:12.624Z</time></trkpt><trkpt lat="45.5055261" lon="11.0834799"><ele>416.0</ele><time>2026-03-24T08:36:13.624Z</time></trkpt><trkpt lat="45.5054817" lon="11.0836702"><ele>416.0</ele><time>2026-03-24T08:36:14.626Z</time></trkpt><trkpt lat="45.5054434" lon="11.0838687"><ele>416.0</ele><time>2026-03-24T08:36:15.631Z</time></trkpt><trkpt lat="45.5053983" lon="11.0841103"><ele>416.0</ele><time>2026-03-24T08:36:16.635Z</time></trkpt><trkpt lat="45.5053861" lon="11.0843478"><ele>425.66666666666663</ele><time>2026-03-24T08:36:17.631Z</time></trkpt><trkpt lat="45.5053321" lon="11.0845545"><ele>435.33333333333337</ele><time>2026-03-24T08:36:18.629Z</time></trkpt><trkpt lat="45.5053055" lon="11.0847604"><ele>445.0</ele><time>2026-03-24T08:36:19.618Z</time></trkpt><trkpt lat="45.5052885" lon="11.0849787"><ele>448.33333333333337</ele><time>2026-03-24T08:36:20.632Z</time></trkpt><trkpt lat="45.5052735" lon="11.085215"><ele>451.66666666666663</ele><time>2026-03-24T08:36:21.63Z</time></trkpt><trkpt lat="45.5052962" lon="11.0854229"><ele>455.0</ele><time>2026-03-24T08:36:22.621Z</time></trkpt><trkpt lat="45.5053615" lon="11.0856193"><ele>448.0</ele><time>2026-03-24T08:36:23.626Z</time></trkpt><trkpt lat="45.5054371" lon="11.0857955"><ele>441.0</ele><time>2026-03-24T08:36:24.627Z</time></trkpt><trkpt lat="45.5055066" lon="11.0859774"><ele>434.0</ele><time>2026-03-24T08:36:25.623Z</time></trkpt><trkpt lat="45.5055629" lon="11.086134"><ele>427.0</ele><time>2026-03-24T08:36:26.615Z</time></trkpt><trkpt lat="45.5055862" lon="11.0862971"><ele>427.0</ele><time>2026-03-24T08:36:27.614Z</time></trkpt><trkpt lat="45.5056343" lon="11.0864465"><ele>427.0</ele><time>2026-03-24T08:36:28.614Z</time></trkpt><trkpt lat="45.5056905" lon="11.0866302"><ele>427.0</ele><time>2026-03-24T08:36:29.62Z</time></trkpt><trkpt lat="45.5057498" lon="11.0867288"><ele>427.0</ele><time>2026-03-24T08:36:30.626Z</time></trkpt><trkpt lat="45.5058549" lon="11.0868725"><ele>431.0</ele><time>2026-03-24T08:36:31.631Z</time></trkpt><trkpt lat="45.5059673" lon="11.0870226"><ele>435.0</ele><time>2026-03-24T08:36:32.631Z</time></trkpt><trkpt lat="45.5060486" lon="11.0871867"><ele>439.0</ele><time>2026-03-24T08:36:33.622Z</time></trkpt><trkpt lat="45.506111" lon="11.0873399"><ele>443.0</ele><time>2026-03-24T08:36:34.623Z</time></trkpt><trkpt lat="45.506181" lon="11.0874844"><ele>444.2</ele><time>2026-03-24T08:36:35.629Z</time></trkpt><trkpt lat="45.5062364" lon="11.0876312"><ele>445.4</ele><time>2026-03-24T08:36:36.622Z</time></trkpt><trkpt lat="45.5063038" lon="11.0877651"><ele>446.59999999999997</ele><time>2026-03-24T08:36:37.631Z</time></trkpt><trkpt lat="45.5063772" lon="11.0878645"><ele>447.79999999999995</ele><time>2026-03-24T08:36:38.632Z</time></trkpt><trkpt lat="45.5064848" lon="11.0879141"><ele>449.0</ele><time>2026-03-24T08:36:40.623Z</time></trkpt><trkpt lat="45.5065827" lon="11.0878497"><ele>449.0</ele><time>2026-03-24T08:36:41.625Z</time></trkpt><trkpt lat="45.5066451" lon="11.0877148"><ele>449.0</ele><time>2026-03-24T08:36:42.622Z</time></trkpt><trkpt lat="45.5052024" lon="11.0823547"><ele>444.75</ele><time>2026-03-24T08:36:06.631Z</time></trkpt><trkpt lat="45.5053016" lon="11.0824971"><ele>440.5</ele><time>2026-03-24T08:36:07.632Z</time></trkpt><trkpt lat="45.5053991" lon="11.0826363"><ele>436.25</ele><time>2026-03-24T08:36:08.629Z</time></trkpt><trkpt lat="45.5054745" lon="11.0827956"><ele>432.0</ele><time>2026-03-24T08:36:09.627Z</time></trkpt><trkpt lat="45.5055274" lon="11.0829532"><ele>428.0</ele><time>2026-03-24T08:36:10.63Z</time></trkpt><trkpt lat="45.5055552" lon="11.0831361"><ele>424.0</ele><time>2026-03-24T08:36:11.629Z</time></trkpt><trkpt lat="45.5055521" lon="11.0832918"><ele>420.0</ele><time>2026-03-24T08:36:12.624Z</time></trkpt><trkpt lat="45.5055261" lon="11.0834799"><ele>416.0</ele><time>2026-03-24T08:36:13.624Z</time></trkpt><trkpt lat="45.5054817" lon="11.0836702"><ele>416.0</ele><time>2026-03-24T08:36:14.626Z</time></trkpt><trkpt lat="45.5054434" lon="11.0838687"><ele>416.0</ele><time>2026-03-24T08:36:15.631Z</time></trkpt><trkpt lat="45.5053983" lon="11.0841103"><ele>416.0</ele><time>2026-03-24T08:36:16.635Z</time></trkpt><trkpt lat="45.5053861" lon="11.0843478"><ele>425.66666666666663</ele><time>2026-03-24T08:36:17.631Z</time></trkpt><trkpt lat="45.5053321" lon="11.0845545"><ele>435.33333333333337</ele><time>2026-03-24T08:36:18.629Z</time></trkpt><trkpt lat="45.5053055" lon="11.0847604"><ele>445.0</ele><time>2026-03-24T08:36:19.618Z</time></trkpt><trkpt lat="45.5052885" lon="11.0849787"><ele>448.33333333333337</ele><time>2026-03-24T08:36:20.632Z</time></trkpt><trkpt lat="45.5052735" lon="11.085215"><ele>451.66666666666663</ele><time>2026-03-24T08:36:21.63Z</time></trkpt><trkpt lat="45.5052962" lon="11.0854229"><ele>455.0</ele><time>2026-03-24T08:36:22.621Z</time></trkpt><trkpt lat="45.5053615" lon="11.0856193"><ele>448.0</ele><time>2026-03-24T08:36:23.626Z</time></trkpt><trkpt lat="45.5054371" lon="11.0857955"><ele>441.0</ele><time>2026-03-24T08:36:24.627Z</time></trkpt><trkpt lat="45.5055066" lon="11.0859774"><ele>434.0</ele><time>2026-03-24T08:36:25.623Z</time></trkpt><trkpt lat="45.5055629" lon="11.086134"><ele>427.0</ele><time>2026-03-24T08:36:26.615Z</time></trkpt><trkpt lat="45.5055862" lon="11.0862971"><ele>427.0</ele><time>2026-03-24T08:36:27.614Z</time></trkpt><trkpt lat="45.5056343" lon="11.0864465"><ele>427.0</ele><time>2026-03-24T08:36:28.614Z</time></trkpt><trkpt lat="45.5056905" lon="11.0866302"><ele>427.0</ele><time>2026-03-24T08:36:29.62Z</time></trkpt><trkpt lat="45.5057498" lon="11.0867288"><ele>427.0</ele><time>2026-03-24T08:36:30.626Z</time></trkpt><trkpt lat="45.5058549" lon="11.0868725"><ele>431.0</ele><time>2026-03-24T08:36:31.631Z</time></trkpt><trkpt lat="45.5059673" lon="11.0870226"><ele>435.0</ele><time>2026-03-24T08:36:32.631Z</time></trkpt><trkpt lat="45.5060486" lon="11.0871867"><ele>439.0</ele><time>2026-03-24T08:36:33.622Z</time></trkpt><trkpt lat="45.506111" lon="11.0873399"><ele>443.0</ele><time>2026-03-24T08:36:34.623Z</time></trkpt><trkpt lat="45.506181" lon="11.0874844"><ele>444.2</ele><time>2026-03-24T08:36:35.629Z</time></trkpt><trkpt lat="45.5062364" lon="11.0876312"><ele>445.4</ele><time>2026-03-24T08:36:36.622Z</time></trkpt><trkpt lat="45.5063038" lon="11.0877651"><ele>446.59999999999997</ele><time>2026-03-24T08:36:37.631Z</time></trkpt><trkpt lat="45.5063772" lon="11.0878645"><ele>447.79999999999995</ele><time>2026-03-24T08:36:38.632Z</time></trkpt><trkpt lat="45.5064848" lon="11.0879141"><ele>449.0</ele><time>2026-03-24T08:36:40.623Z</time></trkpt><trkpt lat="45.5065827" lon="11.0878497"><ele>449.0</ele><time>2026-03-24T08:36:41.625Z</time></trkpt><trkpt lat="45.5066451" lon="11.0877148"><ele>449.0</ele><time>2026-03-24T08:36:42.622Z</time></trkpt><trkpt lat="45.5066887" lon="11.0875391"><ele>449.0</ele><time>2026-03-24T08:36:43.627Z</time></trkpt><trkpt lat="45.5067153" lon="11.0873406"><ele>449.0</ele><time>2026-03-24T08:36:44.63Z</time></trkpt><trkpt lat="45.5067418" lon="11.0871299"><ele>445.0</ele><time>2026-03-24T08:36:45.622Z</time></trkpt><trkpt lat="45.5067775" lon="11.0868783"><ele>441.0</ele><time>2026-03-24T08:36:46.62Z</time></trkpt><trkpt lat="45.506862" lon="11.0866702"><ele>437.0</ele><time>2026-03-24T08:36:47.621Z</time></trkpt><trkpt lat="45.5069779" lon="11.0864292"><ele>441.0</ele><time>2026-03-24T08:36:48.625Z</time></trkpt><trkpt lat="45.5070812" lon="11.0862033"><ele>445.0</ele><time>2026-03-24T08:36:49.621Z</time></trkpt><trkpt lat="45.507258" lon="11.0860053"><ele>449.0</ele><time>2026-03-24T08:36:50.626Z</time></trkpt><trkpt lat="45.5074003" lon="11.0858367"><ele>446.66666666666663</ele><time>2026-03-24T08:36:51.634Z</time></trkpt><trkpt lat="45.5075477" lon="11.0856649"><ele>444.33333333333337</ele><time>2026-03-24T08:36:52.633Z</time></trkpt><trkpt lat="45.5076829" lon="11.0855271"><ele>442.0</ele><time>2026-03-24T08:36:53.636Z</time></trkpt><trkpt lat="45.5077739" lon="11.0854089"><ele>442.0</ele><time>2026-03-24T08:36:54.632Z</time></trkpt><trkpt lat="45.5078704" lon="11.0853019"><ele>442.0</ele><time>2026-03-24T08:36:55.634Z</time></trkpt><trkpt lat="45.5079758" lon="11.0852448"><ele>442.0</ele><time>2026-03-24T08:36:56.63Z</time></trkpt><trkpt lat="45.5081072" lon="11.0852429"><ele>442.0</ele><time>2026-03-24T08:36:57.639Z</time></trkpt><trkpt lat="45.5082571" lon="11.0852565"><ele>445.5</ele><time>2026-03-24T08:36:58.627Z</time></trkpt><trkpt lat="45.5083907" lon="11.0852793"><ele>449.0</ele><time>2026-03-24T08:36:59.627Z</time></trkpt><trkpt lat="45.5084989" lon="11.0853523"><ele>452.5</ele><time>2026-03-24T08:37:00.633Z</time></trkpt><trkpt lat="45.5086169" lon="11.0854239"><ele>456.0</ele><time>2026-03-24T08:37:01.628Z</time></trkpt><trkpt lat="45.5087042" lon="11.0855161"><ele>452.75</ele><time>2026-03-24T08:37:02.626Z</time></trkpt><trkpt lat="45.508763" lon="11.0856471"><ele>449.5</ele><time>2026-03-24T08:37:03.623Z</time></trkpt><trkpt lat="45.5087931" lon="11.085808"><ele>446.25</ele><time>2026-03-24T08:37:04.637Z</time></trkpt><trkpt lat="45.508814" lon="11.0860042"><ele>443.0</ele><time>2026-03-24T08:37:05.63Z</time></trkpt><trkpt lat="45.5088266" lon="11.0862211"><ele>443.0</ele><time>2026-03-24T08:37:06.62Z</time></trkpt><trkpt lat="45.5088256" lon="11.0864785"><ele>443.0</ele><time>2026-03-24T08:37:07.628Z</time></trkpt><trkpt lat="45.5088119" lon="11.0867154"><ele>443.0</ele><time>2026-03-24T08:37:08.629Z</time></trkpt><trkpt lat="45.5088049" lon="11.0869746"><ele>444.66666666666663</ele><time>2026-03-24T08:37:09.634Z</time></trkpt><trkpt lat="45.508802" lon="11.0871805"><ele>446.33333333333337</ele><time>2026-03-24T08:37:10.64Z</time></trkpt><trkpt lat="45.5088082" lon="11.0874112"><ele>448.0</ele><time>2026-03-24T08:37:11.627Z</time></trkpt><trkpt lat="45.5088154" lon="11.0876682"><ele>449.6666666666667</ele><time>2026-03-24T08:37:12.619Z</time></trkpt><trkpt lat="45.5088531" lon="11.0879761"><ele>451.33333333333337</ele><time>2026-03-24T08:37:13.619Z</time></trkpt><trkpt lat="45.5089108" lon="11.0882268"><ele>453.0</ele><time>2026-03-24T08:37:14.614Z</time></trkpt><trkpt lat="45.5089384" lon="11.0885144"><ele>456.5</ele><time>2026-03-24T08:37:15.617Z</time></trkpt><trkpt lat="45.5089851" lon="11.0887324"><ele>460.0</ele><time>2026-03-24T08:37:16.614Z</time></trkpt><trkpt lat="45.5090278" lon="11.088907"><ele>463.5</ele><time>2026-03-24T08:37:17.619Z</time></trkpt><trkpt lat="45.5090948" lon="11.0890373"><ele>467.0</ele><time>2026-03-24T08:37:18.623Z</time></trkpt><trkpt lat="45.5091863" lon="11.089212"><ele>465.75</ele><time>2026-03-24T08:37:19.615Z</time></trkpt><trkpt lat="45.5092718" lon="11.0893737"><ele>464.5</ele><time>2026-03-24T08:37:20.619Z</time></trkpt><trkpt lat="45.5093448" lon="11.0895315"><ele>463.25</ele><time>2026-03-24T08:37:21.625Z</time></trkpt><trkpt lat="45.5094539" lon="11.0896865"><ele>462.0</ele><time>2026-03-24T08:37:22.623Z</time></trkpt><trkpt lat="45.5095833" lon="11.0898153"><ele>469.0</ele><time>2026-03-24T08:37:23.628Z</time></trkpt><trkpt lat="45.509696" lon="11.0899343"><ele>476.0</ele><time>2026-03-24T08:37:24.627Z</time></trkpt><trkpt lat="45.5098005" lon="11.0900825"><ele>483.0</ele><time>2026-03-24T08:37:25.624Z</time></trkpt><trkpt lat="45.5099339" lon="11.0901814"><ele>490.0</ele><time>2026-03-24T08:37:26.627Z</time></trkpt><trkpt lat="45.5100526" lon="11.0902296"><ele>490.0</ele><time>2026-03-24T08:37:27.619Z</time></trkpt><trkpt lat="45.5101838" lon="11.0903673"><ele>490.0</ele><time>2026-03-24T08:37:28.621Z</time></trkpt><trkpt lat="45.5103119" lon="11.090468"><ele>490.0</ele><time>2026-03-24T08:37:29.62Z</time></trkpt><trkpt lat="45.5104167" lon="11.0905881"><ele>490.0</ele><time>2026-03-24T08:37:30.628Z</time></trkpt><trkpt lat="45.5105195" lon="11.0906997"><ele>491.6</ele><time>2026-03-24T08:37:31.632Z</time></trkpt><trkpt lat="45.5106248" lon="11.090835"><ele>493.2</ele><time>2026-03-24T08:37:32.622Z</time></trkpt><trkpt lat="45.5107138" lon="11.0909477"><ele>494.79999999999995</ele><time>2026-03-24T08:37:33.626Z</time></trkpt><trkpt lat="45.5107744" lon="11.0910273"><ele>496.4</ele><time>2026-03-24T08:37:34.626Z</time></trkpt><trkpt lat="45.5108398" lon="11.0910767"><ele>498.0</ele><time>2026-03-24T08:37:35.625Z</time></trkpt><trkpt lat="45.5109371" lon="11.0910407"><ele>498.0</ele><time>2026-03-24T08:37:36.626Z</time></trkpt><trkpt lat="45.5110409" lon="11.0909894"><ele>498.0</ele><time>2026-03-24T08:37:37.628Z</time></trkpt><trkpt lat="45.511145" lon="11.0909024"><ele>498.0</ele><time>2026-03-24T08:37:38.63Z</time></trkpt><trkpt lat="45.5112445" lon="11.0907517"><ele>498.0</ele><time>2026-03-24T08:37:39.63Z</time></trkpt><trkpt lat="45.5113036" lon="11.0906036"><ele>496.79999999999995</ele><time>2026-03-24T08:37:40.627Z</time></trkpt><trkpt lat="45.5113419" lon="11.0904891"><ele>495.59999999999997</ele><time>2026-03-24T08:37:41.626Z</time></trkpt><trkpt lat="45.5114114" lon="11.0903998"><ele>494.40000000000003</ele><time>2026-03-24T08:37:42.614Z</time></trkpt><trkpt lat="45.5115127" lon="11.0903434"><ele>493.20000000000005</ele><time>2026-03-24T08:37:43.621Z</time></trkpt><trkpt lat="45.5116108" lon="11.0903446"><ele>492.0</ele><time>2026-03-24T08:37:44.636Z</time></trkpt><trkpt lat="45.5117582" lon="11.0903639"><ele>492.0</ele><time>2026-03-24T08:37:45.633Z</time></trkpt><trkpt lat="45.5118871" lon="11.0903634"><ele>492.0</ele><time>2026-03-24T08:37:46.634Z</time></trkpt><trkpt lat="45.5120303" lon="11.0903383"><ele>492.0</ele><time>2026-03-24T08:37:47.644Z</time></trkpt><trkpt lat="45.5121751" lon="11.0902973"><ele>492.0</ele><time>2026-03-24T08:37:48.64Z</time></trkpt><trkpt lat="45.5123031" lon="11.0902507"><ele>494.6</ele><time>2026-03-24T08:37:49.648Z</time></trkpt><trkpt lat="45.5124046" lon="11.0902078"><ele>497.20000000000005</ele><time>2026-03-24T08:37:50.638Z</time></trkpt><trkpt lat="45.5124799" lon="11.090209"><ele>499.8</ele><time>2026-03-24T08:37:51.641Z</time></trkpt><trkpt lat="45.5125603" lon="11.0902521"><ele>502.4</ele><time>2026-03-24T08:37:52.644Z</time></trkpt><trkpt lat="45.5126727" lon="11.0903233"><ele>505.0</ele><time>2026-03-24T08:37:53.642Z</time></trkpt><trkpt lat="45.5127528" lon="11.0904396"><ele>505.0</ele><time>2026-03-24T08:37:54.643Z</time></trkpt><trkpt lat="45.5128587" lon="11.0905526"><ele>505.0</ele><time>2026-03-24T08:37:55.638Z</time></trkpt><trkpt lat="45.5129659" lon="11.0906534"><ele>505.0</ele><time>2026-03-24T08:37:56.645Z</time></trkpt><trkpt lat="45.5130803" lon="11.0907615"><ele>505.0</ele><time>2026-03-24T08:37:57.649Z</time></trkpt><trkpt lat="45.5132067" lon="11.0908785"><ele>508.0</ele><time>2026-03-24T08:37:58.649Z</time></trkpt><trkpt lat="45.5133096" lon="11.090993"><ele>511.0</ele><time>2026-03-24T08:37:59.644Z</time></trkpt><trkpt lat="45.5134344" lon="11.0911167"><ele>514.0</ele><time>2026-03-24T08:38:00.646Z</time></trkpt><trkpt lat="45.5135557" lon="11.0912203"><ele>517.0</ele><time>2026-03-24T08:38:01.644Z</time></trkpt><trkpt lat="45.5136405" lon="11.0913021"><ele>517.0</ele><time>2026-03-24T08:38:02.642Z</time></trkpt><trkpt lat="45.5137338" lon="11.0913797"><ele>517.0</ele><time>2026-03-24T08:38:03.643Z</time></trkpt><trkpt lat="45.5138478" lon="11.0914501"><ele>517.0</ele><time>2026-03-24T08:38:04.638Z</time></trkpt><trkpt lat="45.5139827" lon="11.0914605"><ele>517.0</ele><time>2026-03-24T08:38:05.642Z</time></trkpt><trkpt lat="45.5141076" lon="11.0914579"><ele>517.0</ele><time>2026-03-24T08:38:06.642Z</time></trkpt><trkpt lat="45.5142361" lon="11.0914283"><ele>517.0</ele><time>2026-03-24T08:38:07.644Z</time></trkpt><trkpt lat="45.5143553" lon="11.0913898"><ele>517.0</ele><time>2026-03-24T08:38:08.639Z</time></trkpt><trkpt lat="45.514467" lon="11.0913477"><ele>517.0</ele><time>2026-03-24T08:38:09.641Z</time></trkpt><trkpt lat="45.514567" lon="11.0913173"><ele>518.75</ele><time>2026-03-24T08:38:10.642Z</time></trkpt><trkpt lat="45.5146804" lon="11.0913162"><ele>520.5</ele><time>2026-03-24T08:38:11.639Z</time></trkpt><trkpt lat="45.5148012" lon="11.0913748"><ele>522.25</ele><time>2026-03-24T08:38:12.634Z</time></trkpt><trkpt lat="45.5149237" lon="11.0914944"><ele>524.0</ele><time>2026-03-24T08:38:13.631Z</time></trkpt><trkpt lat="45.5150419" lon="11.0916895"><ele>527.75</ele><time>2026-03-24T08:38:14.637Z</time></trkpt><trkpt lat="45.5151605" lon="11.0918046"><ele>531.5</ele><time>2026-03-24T08:38:15.638Z</time></trkpt><trkpt lat="45.5152514" lon="11.0918723"><ele>535.25</ele><time>2026-03-24T08:38:16.626Z</time></trkpt><trkpt lat="45.5153586" lon="11.0918473"><ele>539.0</ele><time>2026-03-24T08:38:17.639Z</time></trkpt><trkpt lat="45.5154449" lon="11.0917453"><ele>540.25</ele><time>2026-03-24T08:38:18.634Z</time></trkpt><trkpt lat="45.5155339" lon="11.0916103"><ele>541.5</ele><time>2026-03-24T08:38:19.631Z</time></trkpt><trkpt lat="45.515662" lon="11.0915267"><ele>542.75</ele><time>2026-03-24T08:38:20.633Z</time></trkpt><trkpt lat="45.515743" lon="11.0914481"><ele>544.0</ele><time>2026-03-24T08:38:21.634Z</time></trkpt><trkpt lat="45.5158205" lon="11.0914109"><ele>544.0</ele><time>2026-03-24T08:38:22.627Z</time></trkpt><trkpt lat="45.5159172" lon="11.091429"><ele>544.0</ele><time>2026-03-24T08:38:23.645Z</time></trkpt><trkpt lat="45.5160084" lon="11.0914956"><ele>544.0</ele><time>2026-03-24T08:38:24.632Z</time></trkpt><trkpt lat="45.5160804" lon="11.0916017"><ele>544.0</ele><time>2026-03-24T08:38:25.63Z</time></trkpt><trkpt lat="45.5161645" lon="11.0917374"><ele>544.0</ele><time>2026-03-24T08:38:26.638Z</time></trkpt><trkpt lat="45.5162548" lon="11.0918813"><ele>544.0</ele><time>2026-03-24T08:38:27.64Z</time></trkpt><trkpt lat="45.5163422" lon="11.0920344"><ele>544.0</ele><time>2026-03-24T08:38:28.633Z</time></trkpt><trkpt lat="45.5164097" lon="11.0921926"><ele>544.0</ele><time>2026-03-24T08:38:29.633Z</time></trkpt><trkpt lat="45.5165029" lon="11.0923332"><ele>544.0</ele><time>2026-03-24T08:38:30.629Z</time></trkpt><trkpt lat="45.5166086" lon="11.0923885"><ele>544.0</ele><time>2026-03-24T08:38:31.636Z</time></trkpt><trkpt lat="45.5167077" lon="11.0923943"><ele>544.0</ele><time>2026-03-24T08:38:32.626Z</time></trkpt><trkpt lat="45.5168429" lon="11.0923866"><ele>544.0</ele><time>2026-03-24T08:38:33.633Z</time></trkpt><trkpt lat="45.5169379" lon="11.0923344"><ele>544.0</ele><time>2026-03-24T08:38:34.625Z</time></trkpt><trkpt lat="45.5170516" lon="11.0922831"><ele>547.75</ele><time>2026-03-24T08:38:35.625Z</time></trkpt><trkpt lat="45.5171732" lon="11.0922241"><ele>551.5</ele><time>2026-03-24T08:38:36.627Z</time></trkpt><trkpt lat="45.5172642" lon="11.0921255"><ele>555.25</ele><time>2026-03-24T08:38:37.631Z</time></trkpt><trkpt lat="45.5173362" lon="11.0920162"><ele>559.0</ele><time>2026-03-24T08:38:38.627Z</time></trkpt><trkpt lat="45.5173675" lon="11.0918528"><ele>559.0</ele><time>2026-03-24T08:38:39.622Z</time></trkpt><trkpt lat="45.5174032" lon="11.0917107"><ele>559.0</ele><time>2026-03-24T08:38:40.626Z</time></trkpt><trkpt lat="45.51749" lon="11.0916275"><ele>559.0</ele><time>2026-03-24T08:38:41.625Z</time></trkpt><trkpt lat="45.5175562" lon="11.091573"><ele>559.0</ele><time>2026-03-24T08:38:42.627Z</time></trkpt><trkpt lat="45.517706" lon="11.0916146"><ele>559.0</ele><time>2026-03-24T08:38:43.632Z</time></trkpt><trkpt lat="45.5178415" lon="11.0916379"><ele>562.25</ele><time>2026-03-24T08:38:44.628Z</time></trkpt><trkpt lat="45.517966" lon="11.0916627"><ele>565.5</ele><time>2026-03-24T08:38:45.637Z</time></trkpt><trkpt lat="45.5180994" lon="11.0916842"><ele>568.75</ele><time>2026-03-24T08:38:46.633Z</time></trkpt><trkpt lat="45.5182351" lon="11.0917077"><ele>572.0</ele><time>2026-03-24T08:38:47.634Z</time></trkpt><trkpt lat="45.5183636" lon="11.0917335"><ele>572.0</ele><time>2026-03-24T08:38:48.633Z</time></trkpt><trkpt lat="45.5184669" lon="11.0917512"><ele>572.0</ele><time>2026-03-24T08:38:49.627Z</time></trkpt><trkpt lat="45.5185317" lon="11.0917702"><ele>572.0</ele><time>2026-03-24T08:38:50.627Z</time></trkpt><trkpt lat="45.5186019" lon="11.0918029"><ele>572.0</ele><time>2026-03-24T08:38:55.64Z</time></trkpt><trkpt lat="45.5186778" lon="11.0918228"><ele>572.0</ele><time>2026-03-24T08:39:13.64Z</time></trkpt><trkpt lat="45.5187566" lon="11.0918306"><ele>572.0</ele><time>2026-03-24T08:39:15.639Z</time></trkpt><trkpt lat="45.5188235" lon="11.0918266"><ele>571.25</ele><time>2026-03-24T08:39:16.633Z</time></trkpt><trkpt lat="45.5189122" lon="11.0917973"><ele>570.5</ele><time>2026-03-24T08:39:17.637Z</time></trkpt><trkpt lat="45.5190039" lon="11.0917095"><ele>569.75</ele><time>2026-03-24T08:39:18.638Z</time></trkpt><trkpt lat="45.519096" lon="11.0915757"><ele>569.0</ele><time>2026-03-24T08:39:19.631Z</time></trkpt><trkpt lat="45.5191908" lon="11.0914317"><ele>569.0</ele><time>2026-03-24T08:39:20.637Z</time></trkpt><trkpt lat="45.5192758" lon="11.0913038"><ele>569.0</ele><time>2026-03-24T08:39:21.639Z</time></trkpt><trkpt lat="45.519358" lon="11.0911919"><ele>569.0</ele><time>2026-03-24T08:39:22.63Z</time></trkpt><trkpt lat="45.5194521" lon="11.0910947"><ele>569.0</ele><time>2026-03-24T08:39:23.63Z</time></trkpt><trkpt lat="45.5195547" lon="11.0910136"><ele>571.8</ele><time>2026-03-24T08:39:24.637Z</time></trkpt><trkpt lat="45.5196548" lon="11.090943"><ele>574.5999999999999</ele><time>2026-03-24T08:39:25.632Z</time></trkpt><trkpt lat="45.5197452" lon="11.0908952"><ele>577.4</ele><time>2026-03-24T08:39:26.632Z</time></trkpt><trkpt lat="45.5198294" lon="11.0908737"><ele>580.1999999999999</ele><time>2026-03-24T08:39:27.638Z</time></trkpt><trkpt lat="45.5199126" lon="11.0908791"><ele>583.0</ele><time>2026-03-24T08:39:28.64Z</time></trkpt><trkpt lat="45.5200003" lon="11.0909096"><ele>583.0</ele><time>2026-03-24T08:39:29.638Z</time></trkpt><trkpt lat="45.5200893" lon="11.0909536"><ele>583.0</ele><time>2026-03-24T08:39:30.641Z</time></trkpt><trkpt lat="45.5201788" lon="11.0910253"><ele>583.0</ele><time>2026-03-24T08:39:31.64Z</time></trkpt><trkpt lat="45.5202697" lon="11.0911378"><ele>583.0</ele><time>2026-03-24T08:39:32.649Z</time></trkpt><trkpt lat="45.5203388" lon="11.0912814"><ele>583.0</ele><time>2026-03-24T08:39:33.639Z</time></trkpt><trkpt lat="45.5203945" lon="11.0914348"><ele>584.75</ele><time>2026-03-24T08:39:34.638Z</time></trkpt><trkpt lat="45.5204438" lon="11.0916141"><ele>586.5</ele><time>2026-03-24T08:39:35.644Z</time></trkpt><trkpt lat="45.5205016" lon="11.0918059"><ele>588.25</ele><time>2026-03-24T08:39:36.643Z</time></trkpt><trkpt lat="45.5205552" lon="11.0919892"><ele>590.0</ele><time>2026-03-24T08:39:37.641Z</time></trkpt><trkpt lat="45.520602" lon="11.0921556"><ele>590.0</ele><time>2026-03-24T08:39:38.635Z</time></trkpt><trkpt lat="45.5206502" lon="11.0922978"><ele>590.0</ele><time>2026-03-24T08:39:39.638Z</time></trkpt><trkpt lat="45.5206939" lon="11.0924214"><ele>590.0</ele><time>2026-03-24T08:39:40.637Z</time></trkpt><trkpt lat="45.5207518" lon="11.0925357"><ele>590.0</ele><time>2026-03-24T08:39:41.634Z</time></trkpt><trkpt lat="45.520833" lon="11.0926376"><ele>590.0</ele><time>2026-03-24T08:39:42.63Z</time></trkpt><trkpt lat="45.520938" lon="11.0927205"><ele>591.0</ele><time>2026-03-24T08:39:43.625Z</time></trkpt><trkpt lat="45.5210529" lon="11.092792"><ele>592.0</ele><time>2026-03-24T08:39:44.631Z</time></trkpt><trkpt lat="45.5211747" lon="11.0928435"><ele>593.0</ele><time>2026-03-24T08:39:45.632Z</time></trkpt><trkpt lat="45.5213015" lon="11.0928781"><ele>594.0</ele><time>2026-03-24T08:39:46.625Z</time></trkpt><trkpt lat="45.5214311" lon="11.0929263"><ele>594.0</ele><time>2026-03-24T08:39:47.634Z</time></trkpt><trkpt lat="45.5215581" lon="11.0929919"><ele>594.0</ele><time>2026-03-24T08:39:48.631Z</time></trkpt><trkpt lat="45.5216835" lon="11.0930765"><ele>594.0</ele><time>2026-03-24T08:39:49.634Z</time></trkpt><trkpt lat="45.5218185" lon="11.093143"><ele>594.0</ele><time>2026-03-24T08:39:50.633Z</time></trkpt><trkpt lat="45.5219618" lon="11.0932294"><ele>601.75</ele><time>2026-03-24T08:39:51.626Z</time></trkpt><trkpt lat="45.5220955" lon="11.0933315"><ele>609.5</ele><time>2026-03-24T08:39:52.621Z</time></trkpt><trkpt lat="45.5222308" lon="11.0933583"><ele>617.25</ele><time>2026-03-24T08:39:53.616Z</time></trkpt><trkpt lat="45.5223855" lon="11.0933673"><ele>625.0</ele><time>2026-03-24T08:39:54.614Z</time></trkpt><trkpt lat="45.5225472" lon="11.0933797"><ele>625.0</ele><time>2026-03-24T08:39:55.62Z</time></trkpt><trkpt lat="45.5227191" lon="11.0932949"><ele>625.0</ele><time>2026-03-24T08:39:56.627Z</time></trkpt><trkpt lat="45.5228494" lon="11.0931987"><ele>625.0</ele><time>2026-03-24T08:39:57.626Z</time></trkpt><trkpt lat="45.5229733" lon="11.0930453"><ele>622.75</ele><time>2026-03-24T08:39:58.628Z</time></trkpt><trkpt lat="45.523061" lon="11.0928988"><ele>620.5</ele><time>2026-03-24T08:39:59.624Z</time></trkpt><trkpt lat="45.5231463" lon="11.0927789"><ele>618.25</ele><time>2026-03-24T08:40:00.626Z</time></trkpt><trkpt lat="45.5232411" lon="11.092699"><ele>616.0</ele><time>2026-03-24T08:40:01.622Z</time></trkpt><trkpt lat="45.5233522" lon="11.0925887"><ele>616.0</ele><time>2026-03-24T08:40:02.616Z</time></trkpt><trkpt lat="45.5234545" lon="11.0924894"><ele>616.0</ele><time>2026-03-24T08:40:03.618Z</time></trkpt><trkpt lat="45.5235898" lon="11.0924202"><ele>616.0</ele><time>2026-03-24T08:40:04.626Z</time></trkpt><trkpt lat="45.5237355" lon="11.0923573"><ele>616.0</ele><time>2026-03-24T08:40:05.621Z</time></trkpt><trkpt lat="45.523873" lon="11.0922787"><ele>614.25</ele><time>2026-03-24T08:40:06.631Z</time></trkpt><trkpt lat="45.5240034" lon="11.092211"><ele>612.5</ele><time>2026-03-24T08:40:07.63Z</time></trkpt><trkpt lat="45.5241406" lon="11.0921478"><ele>610.75</ele><time>2026-03-24T08:40:08.634Z</time></trkpt><trkpt lat="45.5242676" lon="11.0920779"><ele>609.0</ele><time>2026-03-24T08:40:09.635Z</time></trkpt><trkpt lat="45.5244255" lon="11.092018"><ele>609.0</ele><time>2026-03-24T08:40:10.629Z</time></trkpt><trkpt lat="45.5245602" lon="11.0919675"><ele>609.0</ele><time>2026-03-24T08:40:11.639Z</time></trkpt><trkpt lat="45.5246981" lon="11.09191"><ele>609.0</ele><time>2026-03-24T08:40:12.637Z</time></trkpt><trkpt lat="45.5248375" lon="11.0918434"><ele>609.0</ele><time>2026-03-24T08:40:13.639Z</time></trkpt><trkpt lat="45.5249782" lon="11.0917757"><ele>609.75</ele><time>2026-03-24T08:40:14.638Z</time></trkpt><trkpt lat="45.5251226" lon="11.091707"><ele>610.5</ele><time>2026-03-24T08:40:15.642Z</time></trkpt><trkpt lat="45.5252545" lon="11.0916274"><ele>611.25</ele><time>2026-03-24T08:40:16.64Z</time></trkpt><trkpt lat="45.525376" lon="11.0915433"><ele>612.0</ele><time>2026-03-24T08:40:17.639Z</time></trkpt><trkpt lat="45.5255229" lon="11.0914694"><ele>612.0</ele><time>2026-03-24T08:40:18.637Z</time></trkpt><trkpt lat="45.5256606" lon="11.0913926"><ele>612.0</ele><time>2026-03-24T08:40:19.637Z</time></trkpt><trkpt lat="45.5258009" lon="11.0913333"><ele>612.0</ele><time>2026-03-24T08:40:20.633Z</time></trkpt><trkpt lat="45.5259066" lon="11.0912697"><ele>612.0</ele><time>2026-03-24T08:40:21.635Z</time></trkpt><trkpt lat="45.526039" lon="11.0912177"><ele>612.0</ele><time>2026-03-24T08:40:22.645Z</time></trkpt><trkpt lat="45.5262023" lon="11.0912072"><ele>612.0</ele><time>2026-03-24T08:40:23.635Z</time></trkpt><trkpt lat="45.5263674" lon="11.0912157"><ele>612.0</ele><time>2026-03-24T08:40:24.627Z</time></trkpt><trkpt lat="45.5265322" lon="11.091264"><ele>611.0</ele><time>2026-03-24T08:40:25.621Z</time></trkpt><trkpt lat="45.5266819" lon="11.0912851"><ele>610.0</ele><time>2026-03-24T08:40:26.635Z</time></trkpt><trkpt lat="45.5268682" lon="11.0913375"><ele>609.0</ele><time>2026-03-24T08:40:27.63Z</time></trkpt><trkpt lat="45.5270357" lon="11.0914119"><ele>608.3333333333334</ele><time>2026-03-24T08:40:28.635Z</time></trkpt><trkpt lat="45.527221" lon="11.0914821"><ele>607.6666666666667</ele><time>2026-03-24T08:40:29.648Z</time></trkpt><trkpt lat="45.5273956" lon="11.0915618"><ele>607.0</ele><time>2026-03-24T08:40:30.639Z</time></trkpt><trkpt lat="45.5275685" lon="11.0916045"><ele>607.6666666666667</ele><time>2026-03-24T08:40:31.653Z</time></trkpt><trkpt lat="45.5277455" lon="11.0916571"><ele>608.3333333333334</ele><time>2026-03-24T08:40:32.637Z</time></trkpt><trkpt lat="45.5279238" lon="11.0916982"><ele>609.0</ele><time>2026-03-24T08:40:33.647Z</time></trkpt><trkpt lat="45.5281068" lon="11.091745"><ele>609.0</ele><time>2026-03-24T08:40:34.646Z</time></trkpt><trkpt lat="45.5282783" lon="11.0917867"><ele>609.0</ele><time>2026-03-24T08:40:35.639Z</time></trkpt><trkpt lat="45.5284547" lon="11.0918439"><ele>609.0</ele><time>2026-03-24T08:40:36.641Z</time></trkpt><trkpt lat="45.5286291" lon="11.0918847"><ele>609.3333333333334</ele><time>2026-03-24T08:40:37.647Z</time></trkpt><trkpt lat="45.5287818" lon="11.0919331"><ele>609.6666666666667</ele><time>2026-03-24T08:40:38.63Z</time></trkpt><trkpt lat="45.5289612" lon="11.0919799"><ele>610.0</ele><time>2026-03-24T08:40:39.637Z</time></trkpt><trkpt lat="45.5291524" lon="11.0919984"><ele>610.0</ele><time>2026-03-24T08:40:40.632Z</time></trkpt><trkpt lat="45.5293237" lon="11.0919844"><ele>610.0</ele><time>2026-03-24T08:40:41.638Z</time></trkpt><trkpt lat="45.5294803" lon="11.0919539"><ele>610.0</ele><time>2026-03-24T08:40:42.629Z</time></trkpt><trkpt lat="45.5296438" lon="11.0918908"><ele>611.0</ele><time>2026-03-24T08:40:43.622Z</time></trkpt><trkpt lat="45.5298095" lon="11.0918599"><ele>612.0</ele><time>2026-03-24T08:40:44.623Z</time></trkpt><trkpt lat="45.529965" lon="11.0918449"><ele>613.0</ele><time>2026-03-24T08:40:45.628Z</time></trkpt><trkpt lat="45.5301124" lon="11.0918887"><ele>613.0</ele><time>2026-03-24T08:40:46.623Z</time></trkpt><trkpt lat="45.5302415" lon="11.091964"><ele>613.0</ele><time>2026-03-24T08:40:47.626Z</time></trkpt><trkpt lat="45.5303855" lon="11.0920765"><ele>613.0</ele><time>2026-03-24T08:40:48.621Z</time></trkpt><trkpt lat="45.5305161" lon="11.0921814"><ele>613.25</ele><time>2026-03-24T08:40:49.634Z</time></trkpt><trkpt lat="45.5306523" lon="11.0923005"><ele>613.5</ele><time>2026-03-24T08:40:50.632Z</time></trkpt><trkpt lat="45.5307838" lon="11.0923998"><ele>613.75</ele><time>2026-03-24T08:40:51.627Z</time></trkpt><trkpt lat="45.5309146" lon="11.0924589"><ele>614.0</ele><time>2026-03-24T08:40:52.625Z</time></trkpt><trkpt lat="45.5310621" lon="11.0925198"><ele>614.0</ele><time>2026-03-24T08:40:53.631Z</time></trkpt><trkpt lat="45.5312087" lon="11.0925505"><ele>614.0</ele><time>2026-03-24T08:40:54.625Z</time></trkpt><trkpt lat="45.5313873" lon="11.0925555"><ele>614.0</ele><time>2026-03-24T08:40:55.629Z</time></trkpt><trkpt lat="45.5315355" lon="11.0925213"><ele>613.6666666666666</ele><time>2026-03-24T08:40:56.629Z</time></trkpt><trkpt lat="45.5316721" lon="11.0924643"><ele>613.3333333333334</ele><time>2026-03-24T08:40:57.621Z</time></trkpt><trkpt lat="45.5318286" lon="11.092424"><ele>613.0</ele><time>2026-03-24T08:40:58.627Z</time></trkpt><trkpt lat="45.5319949" lon="11.0923672"><ele>617.0</ele><time>2026-03-24T08:40:59.635Z</time></trkpt><trkpt lat="45.5321645" lon="11.0923009"><ele>621.0</ele><time>2026-03-24T08:41:00.627Z</time></trkpt><trkpt lat="45.5323327" lon="11.0922425"><ele>625.0</ele><time>2026-03-24T08:41:01.635Z</time></trkpt><trkpt lat="45.5325059" lon="11.0921834"><ele>625.0</ele><time>2026-03-24T08:41:02.634Z</time></trkpt><trkpt lat="45.5326963" lon="11.0921179"><ele>625.0</ele><time>2026-03-24T08:41:03.634Z</time></trkpt><trkpt lat="45.5328928" lon="11.0920749"><ele>625.0</ele><time>2026-03-24T08:41:04.632Z</time></trkpt><trkpt lat="45.5330668" lon="11.0920156"><ele>624.3333333333334</ele><time>2026-03-24T08:41:05.627Z</time></trkpt><trkpt lat="45.5332346" lon="11.091953"><ele>623.6666666666666</ele><time>2026-03-24T08:41:06.63Z</time></trkpt><trkpt lat="45.5334103" lon="11.0919108"><ele>623.0</ele><time>2026-03-24T08:41:07.627Z</time></trkpt><trkpt lat="45.533592" lon="11.091867"><ele>623.3333333333333</ele><time>2026-03-24T08:41:08.635Z</time></trkpt><trkpt lat="45.5337745" lon="11.091836"><ele>623.6666666666666</ele><time>2026-03-24T08:41:09.63Z</time></trkpt><trkpt lat="45.5339441" lon="11.0918307"><ele>624.0</ele><time>2026-03-24T08:41:10.633Z</time></trkpt><trkpt lat="45.5341053" lon="11.0918287"><ele>624.0</ele><time>2026-03-24T08:41:11.636Z</time></trkpt><trkpt lat="45.5342764" lon="11.0918108"><ele>624.0</ele><time>2026-03-24T08:41:12.634Z</time></trkpt><trkpt lat="45.5344393" lon="11.0917793"><ele>624.0</ele><time>2026-03-24T08:41:13.637Z</time></trkpt><trkpt lat="45.5345916" lon="11.0917441"><ele>622.0</ele><time>2026-03-24T08:41:14.637Z</time></trkpt><trkpt lat="45.5347444" lon="11.0916905"><ele>620.0</ele><time>2026-03-24T08:41:15.636Z</time></trkpt><trkpt lat="45.534912" lon="11.0916241"><ele>618.0</ele><time>2026-03-24T08:41:16.64Z</time></trkpt><trkpt lat="45.5350868" lon="11.09158"><ele>622.6666666666666</ele><time>2026-03-24T08:41:17.636Z</time></trkpt><trkpt lat="45.5352567" lon="11.0915483"><ele>627.3333333333333</ele><time>2026-03-24T08:41:18.638Z</time></trkpt><trkpt lat="45.5354117" lon="11.0915075"><ele>632.0</ele><time>2026-03-24T08:41:19.617Z</time></trkpt><trkpt lat="45.535602" lon="11.0914739"><ele>632.0</ele><time>2026-03-24T08:41:20.632Z</time></trkpt><trkpt lat="45.5357494" lon="11.0914935"><ele>632.0</ele><time>2026-03-24T08:41:21.619Z</time></trkpt><trkpt lat="45.5358997" lon="11.0915371"><ele>632.0</ele><time>2026-03-24T08:41:22.626Z</time></trkpt><trkpt lat="45.5360567" lon="11.0915831"><ele>629.25</ele><time>2026-03-24T08:41:23.624Z</time></trkpt><trkpt lat="45.536167" lon="11.0916454"><ele>626.5</ele><time>2026-03-24T08:41:24.619Z</time></trkpt><trkpt lat="45.5362856" lon="11.0916988"><ele>623.75</ele><time>2026-03-24T08:41:25.625Z</time></trkpt><trkpt lat="45.5364031" lon="11.0917143"><ele>621.0</ele><time>2026-03-24T08:41:26.621Z</time></trkpt><trkpt lat="45.5365484" lon="11.0917198"><ele>621.0</ele><time>2026-03-24T08:41:27.628Z</time></trkpt><trkpt lat="45.5367003" lon="11.0917137"><ele>621.0</ele><time>2026-03-24T08:41:28.627Z</time></trkpt><trkpt lat="45.5368516" lon="11.0917165"><ele>621.0</ele><time>2026-03-24T08:41:29.62Z</time></trkpt><trkpt lat="45.5370032" lon="11.0916803"><ele>621.0</ele><time>2026-03-24T08:41:30.624Z</time></trkpt><trkpt lat="45.5371428" lon="11.0916176"><ele>621.0</ele><time>2026-03-24T08:41:31.63Z</time></trkpt><trkpt lat="45.5372783" lon="11.0915137"><ele>621.0</ele><time>2026-03-24T08:41:32.622Z</time></trkpt><trkpt lat="45.5374195" lon="11.0914101"><ele>621.0</ele><time>2026-03-24T08:41:33.633Z</time></trkpt><trkpt lat="45.537539" lon="11.091296"><ele>621.0</ele><time>2026-03-24T08:41:34.625Z</time></trkpt><trkpt lat="45.5376803" lon="11.0912053"><ele>621.0</ele><time>2026-03-24T08:41:35.624Z</time></trkpt><trkpt lat="45.5378253" lon="11.0911212"><ele>617.3333333333334</ele><time>2026-03-24T08:41:36.621Z</time></trkpt><trkpt lat="45.5379746" lon="11.0910619"><ele>613.6666666666667</ele><time>2026-03-24T08:41:37.619Z</time></trkpt><trkpt lat="45.5381349" lon="11.0910533"><ele>610.0</ele><time>2026-03-24T08:41:38.617Z</time></trkpt><trkpt lat="45.5382801" lon="11.0910261"><ele>610.0</ele><time>2026-03-24T08:41:39.617Z</time></trkpt><trkpt lat="45.5384337" lon="11.091036"><ele>610.0</ele><time>2026-03-24T08:41:40.611Z</time></trkpt><trkpt lat="45.5385802" lon="11.0910289"><ele>610.0</ele><time>2026-03-24T08:41:41.629Z</time></trkpt><trkpt lat="45.5387295" lon="11.0910298"><ele>608.0</ele><time>2026-03-24T08:41:42.626Z</time></trkpt><trkpt lat="45.5388796" lon="11.0910233"><ele>606.0</ele><time>2026-03-24T08:41:43.628Z</time></trkpt><trkpt lat="45.5390263" lon="11.0909949"><ele>604.0</ele><time>2026-03-24T08:41:44.62Z</time></trkpt><trkpt lat="45.5391819" lon="11.0909259"><ele>604.0</ele><time>2026-03-24T08:41:45.622Z</time></trkpt><trkpt lat="45.5393091" lon="11.0908024"><ele>604.0</ele><time>2026-03-24T08:41:46.63Z</time></trkpt><trkpt lat="45.5394386" lon="11.0906728"><ele>604.0</ele><time>2026-03-24T08:41:47.63Z</time></trkpt><trkpt lat="45.5395976" lon="11.0905489"><ele>599.3333333333334</ele><time>2026-03-24T08:41:48.627Z</time></trkpt><trkpt lat="45.539748" lon="11.0904491"><ele>594.6666666666666</ele><time>2026-03-24T08:41:49.63Z</time></trkpt><trkpt lat="45.5398915" lon="11.0903488"><ele>590.0</ele><time>2026-03-24T08:41:50.626Z</time></trkpt><trkpt lat="45.5400334" lon="11.0902506"><ele>590.0</ele><time>2026-03-24T08:41:51.63Z</time></trkpt><trkpt lat="45.5401898" lon="11.0901573"><ele>590.0</ele><time>2026-03-24T08:41:52.627Z</time></trkpt><trkpt lat="45.5403612" lon="11.0900985"><ele>590.0</ele><time>2026-03-24T08:41:53.63Z</time></trkpt><trkpt lat="45.5405204" lon="11.090067"><ele>591.0</ele><time>2026-03-24T08:41:54.627Z</time></trkpt><trkpt lat="45.5407107" lon="11.0900795"><ele>592.0</ele><time>2026-03-24T08:41:55.619Z</time></trkpt><trkpt lat="45.5408879" lon="11.0901446"><ele>593.0</ele><time>2026-03-24T08:41:56.615Z</time></trkpt><trkpt lat="45.5410476" lon="11.0902191"><ele>593.0</ele><time>2026-03-24T08:41:57.628Z</time></trkpt><trkpt lat="45.541204" lon="11.0903019"><ele>593.0</ele><time>2026-03-24T08:41:58.637Z</time></trkpt><trkpt lat="45.5413517" lon="11.0903606"><ele>593.0</ele><time>2026-03-24T08:41:59.622Z</time></trkpt><trkpt lat="45.5414874" lon="11.0904315"><ele>594.6666666666666</ele><time>2026-03-24T08:42:00.623Z</time></trkpt><trkpt lat="45.5416368" lon="11.090456"><ele>596.3333333333334</ele><time>2026-03-24T08:42:01.626Z</time></trkpt><trkpt lat="45.5418004" lon="11.0904171"><ele>598.0</ele><time>2026-03-24T08:42:02.63Z</time></trkpt><trkpt lat="45.5419497" lon="11.090374"><ele>597.5</ele><time>2026-03-24T08:42:03.629Z</time></trkpt><trkpt lat="45.5420829" lon="11.0903005"><ele>597.0</ele><time>2026-03-24T08:42:04.635Z</time></trkpt><trkpt lat="45.5422142" lon="11.0901998"><ele>596.5</ele><time>2026-03-24T08:42:05.623Z</time></trkpt><trkpt lat="45.5423496" lon="11.0900859"><ele>596.0</ele><time>2026-03-24T08:42:06.633Z</time></trkpt><trkpt lat="45.5424683" lon="11.0899711"><ele>596.0</ele><time>2026-03-24T08:42:07.637Z</time></trkpt><trkpt lat="45.5426258" lon="11.0898519"><ele>596.0</ele><time>2026-03-24T08:42:08.63Z</time></trkpt><trkpt lat="45.54278" lon="11.0897334"><ele>596.0</ele><time>2026-03-24T08:42:09.632Z</time></trkpt><trkpt lat="45.5429385" lon="11.0896296"><ele>595.6666666666666</ele><time>2026-03-24T08:42:10.631Z</time></trkpt><trkpt lat="45.5431195" lon="11.0895693"><ele>595.3333333333334</ele><time>2026-03-24T08:42:11.636Z</time></trkpt><trkpt lat="45.5432923" lon="11.0894937"><ele>595.0</ele><time>2026-03-24T08:42:12.634Z</time></trkpt><trkpt lat="45.5434686" lon="11.0894144"><ele>595.0</ele><time>2026-03-24T08:42:13.63Z</time></trkpt><trkpt lat="45.5436358" lon="11.0893359"><ele>595.0</ele><time>2026-03-24T08:42:14.636Z</time></trkpt><trkpt lat="45.5437938" lon="11.0892571"><ele>595.0</ele><time>2026-03-24T08:42:15.641Z</time></trkpt><trkpt lat="45.5439506" lon="11.0891921"><ele>596.0</ele><time>2026-03-24T08:42:16.636Z</time></trkpt><trkpt lat="45.5440978" lon="11.0891325"><ele>597.0</ele><time>2026-03-24T08:42:17.639Z</time></trkpt><trkpt lat="45.544246" lon="11.0890861"><ele>598.0</ele><time>2026-03-24T08:42:18.638Z</time></trkpt><trkpt lat="45.5444091" lon="11.0890461"><ele>597.3333333333334</ele><time>2026-03-24T08:42:19.645Z</time></trkpt><trkpt lat="45.5445812" lon="11.0890104"><ele>596.6666666666666</ele><time>2026-03-24T08:42:20.644Z</time></trkpt><trkpt lat="45.5447319" lon="11.0889786"><ele>596.0</ele><time>2026-03-24T08:42:21.639Z</time></trkpt><trkpt lat="45.5448884" lon="11.0889541"><ele>596.0</ele><time>2026-03-24T08:42:22.646Z</time></trkpt><trkpt lat="45.5450458" lon="11.0889413"><ele>596.0</ele><time>2026-03-24T08:42:23.644Z</time></trkpt><trkpt lat="45.5452017" lon="11.0889311"><ele>596.0</ele><time>2026-03-24T08:42:24.643Z</time></trkpt><trkpt lat="45.5453688" lon="11.0889184"><ele>596.3333333333333</ele><time>2026-03-24T08:42:25.644Z</time></trkpt><trkpt lat="45.5455375" lon="11.0889263"><ele>596.6666666666666</ele><time>2026-03-24T08:42:26.634Z</time></trkpt><trkpt lat="45.545691" lon="11.0889521"><ele>597.0</ele><time>2026-03-24T08:42:27.643Z</time></trkpt><trkpt lat="45.5458522" lon="11.0889729"><ele>597.0</ele><time>2026-03-24T08:42:28.637Z</time></trkpt><trkpt lat="45.5460443" lon="11.0889961"><ele>597.0</ele><time>2026-03-24T08:42:29.631Z</time></trkpt><trkpt lat="45.5462061" lon="11.0890583"><ele>597.0</ele><time>2026-03-24T08:42:30.627Z</time></trkpt><trkpt lat="45.5463694" lon="11.0891425"><ele>600.25</ele><time>2026-03-24T08:42:31.634Z</time></trkpt><trkpt lat="45.5465075" lon="11.0892272"><ele>603.5</ele><time>2026-03-24T08:42:32.629Z</time></trkpt><trkpt lat="45.5466329" lon="11.0893308"><ele>606.75</ele><time>2026-03-24T08:42:33.633Z</time></trkpt><trkpt lat="45.5467546" lon="11.0894428"><ele>610.0</ele><time>2026-03-24T08:42:34.633Z</time></trkpt><trkpt lat="45.5468911" lon="11.0895435"><ele>610.0</ele><time>2026-03-24T08:42:35.637Z</time></trkpt><trkpt lat="45.5470213" lon="11.0896541"><ele>610.0</ele><time>2026-03-24T08:42:36.63Z</time></trkpt><trkpt lat="45.5471371" lon="11.0897845"><ele>610.0</ele><time>2026-03-24T08:42:37.628Z</time></trkpt><trkpt lat="45.547275" lon="11.0899016"><ele>611.0</ele><time>2026-03-24T08:42:38.633Z</time></trkpt><trkpt lat="45.547406" lon="11.0899868"><ele>612.0</ele><time>2026-03-24T08:42:39.628Z</time></trkpt><trkpt lat="45.5475636" lon="11.090076"><ele>613.0</ele><time>2026-03-24T08:42:40.626Z</time></trkpt><trkpt lat="45.5477233" lon="11.0900959"><ele>615.3333333333334</ele><time>2026-03-24T08:42:41.629Z</time></trkpt><trkpt lat="45.5479005" lon="11.0900975"><ele>617.6666666666666</ele><time>2026-03-24T08:42:42.635Z</time></trkpt><trkpt lat="45.5480613" lon="11.0900949"><ele>620.0</ele><time>2026-03-24T08:42:43.629Z</time></trkpt><trkpt lat="45.5482199" lon="11.0900782"><ele>620.0</ele><time>2026-03-24T08:42:44.63Z</time></trkpt><trkpt lat="45.5484086" lon="11.0900583"><ele>620.0</ele><time>2026-03-24T08:42:45.63Z</time></trkpt><trkpt lat="45.5485687" lon="11.0900369"><ele>620.0</ele><time>2026-03-24T08:42:46.625Z</time></trkpt><trkpt lat="45.5487172" lon="11.0900008"><ele>622.5</ele><time>2026-03-24T08:42:47.628Z</time></trkpt><trkpt lat="45.5488226" lon="11.0899083"><ele>625.0</ele><time>2026-03-24T08:42:48.628Z</time></trkpt><trkpt lat="45.5489274" lon="11.0898108"><ele>627.5</ele><time>2026-03-24T08:42:49.627Z</time></trkpt><trkpt lat="45.5490375" lon="11.0896837"><ele>630.0</ele><time>2026-03-24T08:42:50.621Z</time></trkpt><trkpt lat="45.5490861" lon="11.0895299"><ele>630.0</ele><time>2026-03-24T08:42:51.625Z</time></trkpt><trkpt lat="45.5491526" lon="11.0893497"><ele>630.0</ele><time>2026-03-24T08:42:52.619Z</time></trkpt><trkpt lat="45.5492141" lon="11.0891602"><ele>630.0</ele><time>2026-03-24T08:42:53.627Z</time></trkpt><trkpt lat="45.5492896" lon="11.0889691"><ele>630.0</ele><time>2026-03-24T08:42:54.623Z</time></trkpt><trkpt lat="45.5493638" lon="11.0887889"><ele>629.0</ele><time>2026-03-24T08:42:55.618Z</time></trkpt><trkpt lat="45.5494726" lon="11.0886148"><ele>628.0</ele><time>2026-03-24T08:42:56.618Z</time></trkpt><trkpt lat="45.5495864" lon="11.0884468"><ele>627.0</ele><time>2026-03-24T08:42:57.619Z</time></trkpt><trkpt lat="45.5496972" lon="11.0883024"><ele>628.75</ele><time>2026-03-24T08:42:58.621Z</time></trkpt><trkpt lat="45.5497755" lon="11.0881695"><ele>630.5</ele><time>2026-03-24T08:42:59.622Z</time></trkpt><trkpt lat="45.5498691" lon="11.0880234"><ele>632.25</ele><time>2026-03-24T08:43:00.625Z</time></trkpt><trkpt lat="45.5499728" lon="11.0878861"><ele>634.0</ele><time>2026-03-24T08:43:01.626Z</time></trkpt><trkpt lat="45.5500576" lon="11.0877564"><ele>634.0</ele><time>2026-03-24T08:43:02.628Z</time></trkpt><trkpt lat="45.5501485" lon="11.0876314"><ele>634.0</ele><time>2026-03-24T08:43:03.623Z</time></trkpt><trkpt lat="45.5502505" lon="11.0874954"><ele>634.0</ele><time>2026-03-24T08:43:04.625Z</time></trkpt><trkpt lat="45.5503427" lon="11.0873738"><ele>634.0</ele><time>2026-03-24T08:43:05.624Z</time></trkpt><trkpt lat="45.5504366" lon="11.0872659"><ele>635.25</ele><time>2026-03-24T08:43:06.622Z</time></trkpt><trkpt lat="45.5505437" lon="11.0871615"><ele>636.5</ele><time>2026-03-24T08:43:07.62Z</time></trkpt><trkpt lat="45.5506609" lon="11.0870801"><ele>637.75</ele><time>2026-03-24T08:43:08.622Z</time></trkpt><trkpt lat="45.5507759" lon="11.0870126"><ele>639.0</ele><time>2026-03-24T08:43:09.617Z</time></trkpt><trkpt lat="45.5508881" lon="11.0869509"><ele>639.0</ele><time>2026-03-24T08:43:10.623Z</time></trkpt><trkpt lat="45.5509972" lon="11.0868834"><ele>639.0</ele><time>2026-03-24T08:43:11.623Z</time></trkpt><trkpt lat="45.5511143" lon="11.0868248"><ele>639.0</ele><time>2026-03-24T08:43:12.623Z</time></trkpt><trkpt lat="45.5512229" lon="11.0867716"><ele>639.0</ele><time>2026-03-24T08:43:13.613Z</time></trkpt><trkpt lat="45.5513176" lon="11.0867194"><ele>638.8</ele><time>2026-03-24T08:43:14.623Z</time></trkpt><trkpt lat="45.5514128" lon="11.0866723"><ele>638.5999999999999</ele><time>2026-03-24T08:43:15.617Z</time></trkpt><trkpt lat="45.551508" lon="11.0866168"><ele>638.4</ele><time>2026-03-24T08:43:16.606Z</time></trkpt><trkpt lat="45.5516072" lon="11.0865487"><ele>638.1999999999999</ele><time>2026-03-24T08:43:17.616Z</time></trkpt><trkpt lat="45.5517021" lon="11.0864585"><ele>638.0</ele><time>2026-03-24T08:43:18.616Z</time></trkpt><trkpt lat="45.5518047" lon="11.0863609"><ele>638.0</ele><time>2026-03-24T08:43:19.616Z</time></trkpt><trkpt lat="45.5518971" lon="11.086261"><ele>638.0</ele><time>2026-03-24T08:43:20.611Z</time></trkpt><trkpt lat="45.551992" lon="11.0861747"><ele>638.0</ele><time>2026-03-24T08:43:21.618Z</time></trkpt><trkpt lat="45.5520761" lon="11.0860987"><ele>638.0</ele><time>2026-03-24T08:43:22.61Z</time></trkpt><trkpt lat="45.5521484" lon="11.0860285"><ele>638.0</ele><time>2026-03-24T08:43:23.615Z</time></trkpt><trkpt lat="45.552207" lon="11.0859658"><ele>638.0</ele><time>2026-03-24T08:43:24.617Z</time></trkpt><trkpt lat="45.5522618" lon="11.0858806"><ele>638.0</ele><time>2026-03-24T08:43:26.617Z</time></trkpt><trkpt lat="45.5523231" lon="11.0857572"><ele>638.0</ele><time>2026-03-24T08:43:29.623Z</time></trkpt><trkpt lat="45.5523875" lon="11.0856526"><ele>638.0</ele><time>2026-03-24T08:43:31.627Z</time></trkpt><trkpt lat="45.5524503" lon="11.0855959"><ele>638.0</ele><time>2026-03-24T08:43:34.625Z</time></trkpt><trkpt lat="45.5525164" lon="11.0855656"><ele>638.0</ele><time>2026-03-24T08:43:37.635Z</time></trkpt><trkpt lat="45.5526005" lon="11.0855006"><ele>637.8</ele><time>2026-03-24T08:43:40.623Z</time></trkpt><trkpt lat="45.5526838" lon="11.0855358"><ele>637.5999999999999</ele><time>2026-03-24T08:43:42.624Z</time></trkpt><trkpt lat="45.5527374" lon="11.0856149"><ele>637.4000000000001</ele><time>2026-03-24T08:43:43.624Z</time></trkpt><trkpt lat="45.5528002" lon="11.085711"><ele>637.2</ele><time>2026-03-24T08:43:44.619Z</time></trkpt><trkpt lat="45.5528797" lon="11.0858175"><ele>637.0</ele><time>2026-03-24T08:43:45.626Z</time></trkpt><trkpt lat="45.552974" lon="11.0859163"><ele>638.0</ele><time>2026-03-24T08:43:46.62Z</time></trkpt><trkpt lat="45.553102" lon="11.0859929"><ele>639.0</ele><time>2026-03-24T08:43:47.625Z</time></trkpt><trkpt lat="45.5532382" lon="11.0860795"><ele>640.0</ele><time>2026-03-24T08:43:48.63Z</time></trkpt><trkpt lat="45.5534053" lon="11.0862008"><ele>640.0</ele><time>2026-03-24T08:43:49.624Z</time></trkpt><trkpt lat="45.5535487" lon="11.086296"><ele>640.0</ele><time>2026-03-24T08:43:50.631Z</time></trkpt><trkpt lat="45.5536609" lon="11.0863729"><ele>640.0</ele><time>2026-03-24T08:43:51.631Z</time></trkpt><trkpt lat="45.5537831" lon="11.0864409"><ele>640.0</ele><time>2026-03-24T08:43:52.638Z</time></trkpt><trkpt lat="45.5539061" lon="11.0865034"><ele>639.75</ele><time>2026-03-24T08:43:53.636Z</time></trkpt><trkpt lat="45.5539979" lon="11.0865706"><ele>639.5</ele><time>2026-03-24T08:43:54.634Z</time></trkpt><trkpt lat="45.5541051" lon="11.0866465"><ele>639.25</ele><time>2026-03-24T08:43:55.634Z</time></trkpt><trkpt lat="45.5542131" lon="11.0867101"><ele>639.0</ele><time>2026-03-24T08:43:56.63Z</time></trkpt><trkpt lat="45.5543204" lon="11.0867924"><ele>639.0</ele><time>2026-03-24T08:43:57.63Z</time></trkpt><trkpt lat="45.5544229" lon="11.086891"><ele>639.0</ele><time>2026-03-24T08:43:58.627Z</time></trkpt><trkpt lat="45.5545069" lon="11.0870181"><ele>639.0</ele><time>2026-03-24T08:43:59.621Z</time></trkpt><trkpt lat="45.5545782" lon="11.0871621"><ele>639.0</ele><time>2026-03-24T08:44:00.622Z</time></trkpt><trkpt lat="45.5546305" lon="11.0873419"><ele>639.0</ele><time>2026-03-24T08:44:01.625Z</time></trkpt><trkpt lat="45.5546645" lon="11.0875278"><ele>639.0</ele><time>2026-03-24T08:44:02.624Z</time></trkpt><trkpt lat="45.5546921" lon="11.0877096"><ele>639.0</ele><time>2026-03-24T08:44:03.626Z</time></trkpt><trkpt lat="45.5547115" lon="11.0878827"><ele>639.0</ele><time>2026-03-24T08:44:04.626Z</time></trkpt><trkpt lat="45.5547302" lon="11.0880419"><ele>639.0</ele><time>2026-03-24T08:44:05.622Z</time></trkpt><trkpt lat="45.5547499" lon="11.0881927"><ele>639.0</ele><time>2026-03-24T08:44:06.624Z</time></trkpt><trkpt lat="45.5547633" lon="11.0883414"><ele>639.0</ele><time>2026-03-24T08:44:07.622Z</time></trkpt><trkpt lat="45.554779" lon="11.0884787"><ele>639.0</ele><time>2026-03-24T08:44:08.623Z</time></trkpt><trkpt lat="45.5548066" lon="11.0886033"><ele>639.0</ele><time>2026-03-24T08:44:09.618Z</time></trkpt><trkpt lat="45.5548488" lon="11.0887036"><ele>636.8</ele><time>2026-03-24T08:44:10.621Z</time></trkpt><trkpt lat="45.5549144" lon="11.0887863"><ele>634.5999999999999</ele><time>2026-03-24T08:44:11.618Z</time></trkpt><trkpt lat="45.554992" lon="11.0888368"><ele>632.4</ele><time>2026-03-24T08:44:12.617Z</time></trkpt><trkpt lat="45.5550902" lon="11.0888651"><ele>630.1999999999999</ele><time>2026-03-24T08:44:13.625Z</time></trkpt><trkpt lat="45.5552051" lon="11.0888777"><ele>628.0</ele><time>2026-03-24T08:44:14.618Z</time></trkpt><trkpt lat="45.5553364" lon="11.0888717"><ele>629.5</ele><time>2026-03-24T08:44:15.617Z</time></trkpt><trkpt lat="45.5554664" lon="11.0888721"><ele>631.0</ele><time>2026-03-24T08:44:16.609Z</time></trkpt><trkpt lat="45.5555952" lon="11.0888751"><ele>632.5</ele><time>2026-03-24T08:44:17.61Z</time></trkpt><trkpt lat="45.5557136" lon="11.0888844"><ele>634.0</ele><time>2026-03-24T08:44:18.604Z</time></trkpt><trkpt lat="45.555836" lon="11.0889202"><ele>634.0</ele><time>2026-03-24T08:44:19.607Z</time></trkpt><trkpt lat="45.5559461" lon="11.0890009"><ele>634.0</ele><time>2026-03-24T08:44:20.602Z</time></trkpt><trkpt lat="45.556053" lon="11.0891083"><ele>634.0</ele><time>2026-03-24T08:44:21.616Z</time></trkpt><trkpt lat="45.556141" lon="11.0892547"><ele>634.0</ele><time>2026-03-24T08:44:22.615Z</time></trkpt><trkpt lat="45.5561769" lon="11.08944"><ele>629.0</ele><time>2026-03-24T08:44:23.605Z</time></trkpt><trkpt lat="45.5561842" lon="11.0896373"><ele>624.0</ele><time>2026-03-24T08:44:24.615Z</time></trkpt><trkpt lat="45.5561819" lon="11.0898481"><ele>619.0</ele><time>2026-03-24T08:44:25.621Z</time></trkpt><trkpt lat="45.5561635" lon="11.0901307"><ele>615.0</ele><time>2026-03-24T08:44:26.623Z</time></trkpt><trkpt lat="45.5561137" lon="11.0903795"><ele>611.0</ele><time>2026-03-24T08:44:27.627Z</time></trkpt><trkpt lat="45.556115" lon="11.0905908"><ele>607.0</ele><time>2026-03-24T08:44:28.626Z</time></trkpt><trkpt lat="45.5561153" lon="11.0907672"><ele>605.25</ele><time>2026-03-24T08:44:29.629Z</time></trkpt><trkpt lat="45.5561114" lon="11.0909537"><ele>603.5</ele><time>2026-03-24T08:44:30.626Z</time></trkpt><trkpt lat="45.5561131" lon="11.091122"><ele>601.75</ele><time>2026-03-24T08:44:31.628Z</time></trkpt><trkpt lat="45.5561314" lon="11.0913029"><ele>600.0</ele><time>2026-03-24T08:44:32.621Z</time></trkpt><trkpt lat="45.5561452" lon="11.0914394"><ele>600.4</ele><time>2026-03-24T08:44:33.624Z</time></trkpt><trkpt lat="45.5561848" lon="11.0915915"><ele>600.8</ele><time>2026-03-24T08:44:34.624Z</time></trkpt><trkpt lat="45.5562552" lon="11.0916974"><ele>601.2</ele><time>2026-03-24T08:44:35.617Z</time></trkpt><trkpt lat="45.5563415" lon="11.0917863"><ele>601.6</ele><time>2026-03-24T08:44:36.623Z</time></trkpt><trkpt lat="45.5564101" lon="11.0918456"><ele>602.0</ele><time>2026-03-24T08:44:37.626Z</time></trkpt><trkpt lat="45.5564965" lon="11.0918829"><ele>602.0</ele><time>2026-03-24T08:44:38.621Z</time></trkpt><trkpt lat="45.5565945" lon="11.0918944"><ele>602.0</ele><time>2026-03-24T08:44:39.624Z</time></trkpt><trkpt lat="45.5567097" lon="11.0918653"><ele>602.0</ele><time>2026-03-24T08:44:40.613Z</time></trkpt><trkpt lat="45.5568381" lon="11.0918026"><ele>602.0</ele><time>2026-03-24T08:44:41.628Z</time></trkpt><trkpt lat="45.5569816" lon="11.0917541"><ele>601.0</ele><time>2026-03-24T08:44:42.622Z</time></trkpt><trkpt lat="45.5571198" lon="11.0917276"><ele>600.0</ele><time>2026-03-24T08:44:43.613Z</time></trkpt><trkpt lat="45.557242" lon="11.0917005"><ele>599.0</ele><time>2026-03-24T08:44:44.627Z</time></trkpt><trkpt lat="45.5573607" lon="11.0916758"><ele>598.0</ele><time>2026-03-24T08:44:45.62Z</time></trkpt><trkpt lat="45.5574841" lon="11.0916499"><ele>598.0</ele><time>2026-03-24T08:44:46.618Z</time></trkpt><trkpt lat="45.5576054" lon="11.0916194"><ele>598.0</ele><time>2026-03-24T08:44:47.619Z</time></trkpt><trkpt lat="45.5577186" lon="11.0915885"><ele>598.0</ele><time>2026-03-24T08:44:48.619Z</time></trkpt><trkpt lat="45.5578287" lon="11.0915469"><ele>598.0</ele><time>2026-03-24T08:44:49.617Z</time></trkpt><trkpt lat="45.557941" lon="11.0914746"><ele>601.0</ele><time>2026-03-24T08:44:50.614Z</time></trkpt><trkpt lat="45.5580608" lon="11.0913945"><ele>604.0</ele><time>2026-03-24T08:44:51.618Z</time></trkpt><trkpt lat="45.5581946" lon="11.0912972"><ele>607.0</ele><time>2026-03-24T08:44:52.611Z</time></trkpt><trkpt lat="45.5583766" lon="11.0911916"><ele>607.0</ele><time>2026-03-24T08:44:53.62Z</time></trkpt><trkpt lat="45.5585425" lon="11.0911041"><ele>607.0</ele><time>2026-03-24T08:44:54.621Z</time></trkpt><trkpt lat="45.5586905" lon="11.0910124"><ele>607.0</ele><time>2026-03-24T08:44:55.619Z</time></trkpt><trkpt lat="45.558818" lon="11.0909382"><ele>603.6</ele><time>2026-03-24T08:44:56.617Z</time></trkpt><trkpt lat="45.5589239" lon="11.0908855"><ele>600.2</ele><time>2026-03-24T08:44:57.625Z</time></trkpt><trkpt lat="45.5590366" lon="11.0908348"><ele>596.8</ele><time>2026-03-24T08:44:58.614Z</time></trkpt><trkpt lat="45.5591273" lon="11.0908104"><ele>593.4</ele><time>2026-03-24T08:44:59.631Z</time></trkpt><trkpt lat="45.5591995" lon="11.0907778"><ele>590.0</ele><time>2026-03-24T08:45:00.612Z</time></trkpt><trkpt lat="45.5592576" lon="11.0908578"><ele>590.0</ele><time>2026-03-24T08:45:01.617Z</time></trkpt><trkpt lat="45.5592989" lon="11.0909745"><ele>590.0</ele><time>2026-03-24T08:45:02.684Z</time></trkpt><trkpt lat="45.5593132" lon="11.0910705"><ele>590.0</ele><time>2026-03-24T08:45:03.625Z</time></trkpt><trkpt lat="45.5593212" lon="11.0911875"><ele>590.0</ele><time>2026-03-24T08:45:04.63Z</time></trkpt><trkpt lat="45.5593144" lon="11.0913262"><ele>590.0</ele><time>2026-03-24T08:45:05.634Z</time></trkpt><trkpt lat="45.5593199" lon="11.0914571"><ele>590.0</ele><time>2026-03-24T08:45:06.634Z</time></trkpt><trkpt lat="45.5593214" lon="11.0916037"><ele>587.4</ele><time>2026-03-24T08:45:07.623Z</time></trkpt><trkpt lat="45.5593384" lon="11.0917598"><ele>584.8</ele><time>2026-03-24T08:45:08.622Z</time></trkpt><trkpt lat="45.5593498" lon="11.0919169"><ele>582.2</ele><time>2026-03-24T08:45:09.632Z</time></trkpt><trkpt lat="45.5593801" lon="11.0920814"><ele>579.6</ele><time>2026-03-24T08:45:10.625Z</time></trkpt><trkpt lat="45.5594232" lon="11.092222"><ele>577.0</ele><time>2026-03-24T08:45:11.626Z</time></trkpt><trkpt lat="45.5594908" lon="11.0923325"><ele>576.75</ele><time>2026-03-24T08:45:12.624Z</time></trkpt><trkpt lat="45.5595873" lon="11.0924223"><ele>576.5</ele><time>2026-03-24T08:45:13.624Z</time></trkpt><trkpt lat="45.5597014" lon="11.0925013"><ele>576.25</ele><time>2026-03-24T08:45:14.624Z</time></trkpt><trkpt lat="45.559835" lon="11.0925743"><ele>576.0</ele><time>2026-03-24T08:45:15.637Z</time></trkpt><trkpt lat="45.5599604" lon="11.0926407"><ele>576.0</ele><time>2026-03-24T08:45:16.624Z</time></trkpt><trkpt lat="45.5600896" lon="11.0927027"><ele>576.0</ele><time>2026-03-24T08:45:17.628Z</time></trkpt><trkpt lat="45.5602286" lon="11.0927555"><ele>576.0</ele><time>2026-03-24T08:45:18.628Z</time></trkpt><trkpt lat="45.5603647" lon="11.0927979"><ele>576.0</ele><time>2026-03-24T08:45:19.623Z</time></trkpt><trkpt lat="45.5605146" lon="11.0928221"><ele>576.3333333333334</ele><time>2026-03-24T08:45:20.625Z</time></trkpt><trkpt lat="45.5606982" lon="11.0928211"><ele>576.6666666666667</ele><time>2026-03-24T08:45:21.628Z</time></trkpt><trkpt lat="45.5608734" lon="11.0928322"><ele>577.0</ele><time>2026-03-24T08:45:22.618Z</time></trkpt><trkpt lat="45.561036" lon="11.0928443"><ele>577.0</ele><time>2026-03-24T08:45:23.628Z</time></trkpt><trkpt lat="45.561176" lon="11.092865"><ele>577.0</ele><time>2026-03-24T08:45:24.63Z</time></trkpt><trkpt lat="45.5613245" lon="11.0928924"><ele>577.0</ele><time>2026-03-24T08:45:25.621Z</time></trkpt><trkpt lat="45.5614661" lon="11.0928912"><ele>577.0</ele><time>2026-03-24T08:45:26.628Z</time></trkpt><trkpt lat="45.561609" lon="11.0929268"><ele>577.0</ele><time>2026-03-24T08:45:27.629Z</time></trkpt><trkpt lat="45.5617358" lon="11.0929704"><ele>577.0</ele><time>2026-03-24T08:45:28.622Z</time></trkpt><trkpt lat="45.5618506" lon="11.0929703"><ele>577.0</ele><time>2026-03-24T08:45:29.629Z</time></trkpt><trkpt lat="45.5619359" lon="11.0929934"><ele>577.0</ele><time>2026-03-24T08:45:30.625Z</time></trkpt><trkpt lat="45.5620437" lon="11.092993"><ele>577.0</ele><time>2026-03-24T08:45:31.625Z</time></trkpt><trkpt lat="45.562159" lon="11.0929516"><ele>577.75</ele><time>2026-03-24T08:45:32.627Z</time></trkpt><trkpt lat="45.5622668" lon="11.0929071"><ele>578.5</ele><time>2026-03-24T08:45:33.628Z</time></trkpt><trkpt lat="45.562414" lon="11.0928768"><ele>579.25</ele><time>2026-03-24T08:45:34.621Z</time></trkpt><trkpt lat="45.5625264" lon="11.0928475"><ele>580.0</ele><time>2026-03-24T08:45:35.621Z</time></trkpt><trkpt lat="45.5626555" lon="11.0928797"><ele>580.0</ele><time>2026-03-24T08:45:36.62Z</time></trkpt><trkpt lat="45.5628161" lon="11.0929204"><ele>580.0</ele><time>2026-03-24T08:45:37.62Z</time></trkpt><trkpt lat="45.5629608" lon="11.0929574"><ele>580.0</ele><time>2026-03-24T08:45:38.618Z</time></trkpt><trkpt lat="45.5631148" lon="11.0929764"><ele>580.25</ele><time>2026-03-24T08:45:39.62Z</time></trkpt><trkpt lat="45.5632519" lon="11.0930556"><ele>580.5</ele><time>2026-03-24T08:45:40.622Z</time></trkpt><trkpt lat="45.5633679" lon="11.0930901"><ele>580.75</ele><time>2026-03-24T08:45:41.617Z</time></trkpt><trkpt lat="45.5634511" lon="11.0931112"><ele>581.0</ele><time>2026-03-24T08:45:42.62Z</time></trkpt><trkpt lat="45.5635438" lon="11.0931669"><ele>577.1666666666666</ele><time>2026-03-24T08:45:43.622Z</time></trkpt><trkpt lat="45.5635885" lon="11.0932577"><ele>573.3333333333333</ele><time>2026-03-24T08:45:44.63Z</time></trkpt><trkpt lat="45.5636297" lon="11.093328"><ele>569.5</ele><time>2026-03-24T08:45:45.624Z</time></trkpt><trkpt lat="45.563658" lon="11.0934371"><ele>565.6666666666666</ele><time>2026-03-24T08:45:46.626Z</time></trkpt><trkpt lat="45.5636829" lon="11.0935462"><ele>561.8333333333334</ele><time>2026-03-24T08:45:47.621Z</time></trkpt><trkpt lat="45.5636829" lon="11.0936544"><ele>558.0</ele><time>2026-03-24T08:45:48.626Z</time></trkpt><trkpt lat="45.5636467" lon="11.0937542"><ele>558.0</ele><time>2026-03-24T08:45:49.623Z</time></trkpt><trkpt lat="45.5635837" lon="11.0938551"><ele>558.0</ele><time>2026-03-24T08:45:50.626Z</time></trkpt><trkpt lat="45.5635348" lon="11.0939551"><ele>558.0</ele><time>2026-03-24T08:45:51.613Z</time></trkpt><trkpt lat="45.5634715" lon="11.0940524"><ele>558.0</ele><time>2026-03-24T08:45:52.618Z</time></trkpt><trkpt lat="45.5633693" lon="11.0941251"><ele>558.0</ele><time>2026-03-24T08:45:53.626Z</time></trkpt><trkpt lat="45.5632734" lon="11.0941848"><ele>560.5</ele><time>2026-03-24T08:45:54.62Z</time></trkpt><trkpt lat="45.5631813" lon="11.094219"><ele>563.0</ele><time>2026-03-24T08:45:55.621Z</time></trkpt><trkpt lat="45.5631214" lon="11.0942805"><ele>565.5</ele><time>2026-03-24T08:45:56.619Z</time></trkpt><trkpt lat="45.5630774" lon="11.0943518"><ele>568.0</ele><time>2026-03-24T08:45:57.62Z</time></trkpt><trkpt lat="45.5630462" lon="11.0944514"><ele>570.5</ele><time>2026-03-24T08:45:58.624Z</time></trkpt><trkpt lat="45.5630294" lon="11.0945559"><ele>573.0</ele><time>2026-03-24T08:45:59.625Z</time></trkpt><trkpt lat="45.5629739" lon="11.0946929"><ele>573.0</ele><time>2026-03-24T08:46:01.628Z</time></trkpt><trkpt lat="45.5629136" lon="11.0947395"><ele>573.0</ele><time>2026-03-24T08:46:02.625Z</time></trkpt><trkpt lat="45.5628437" lon="11.0947725"><ele>573.0</ele><time>2026-03-24T08:46:03.627Z</time></trkpt><trkpt lat="45.5627619" lon="11.0947578"><ele>573.0</ele><time>2026-03-24T08:46:04.624Z</time></trkpt><trkpt lat="45.5626811" lon="11.0947078"><ele>573.0</ele><time>2026-03-24T08:46:05.622Z</time></trkpt><trkpt lat="45.5625849" lon="11.0946463"><ele>573.0</ele><time>2026-03-24T08:46:06.622Z</time></trkpt><trkpt lat="45.5624702" lon="11.0945766"><ele>570.0</ele><time>2026-03-24T08:46:07.626Z</time></trkpt><trkpt lat="45.5623515" lon="11.094529"><ele>567.0</ele><time>2026-03-24T08:46:08.623Z</time></trkpt><trkpt lat="45.5622457" lon="11.0944854"><ele>564.0</ele><time>2026-03-24T08:46:09.628Z</time></trkpt><trkpt lat="45.5621252" lon="11.0944852"><ele>561.0</ele><time>2026-03-24T08:46:10.617Z</time></trkpt><trkpt lat="45.5619887" lon="11.0945122"><ele>560.75</ele><time>2026-03-24T08:46:11.625Z</time></trkpt><trkpt lat="45.5618486" lon="11.0945466"><ele>560.5</ele><time>2026-03-24T08:46:12.623Z</time></trkpt><trkpt lat="45.5617276" lon="11.0945662"><ele>560.25</ele><time>2026-03-24T08:46:13.621Z</time></trkpt><trkpt lat="45.5616249" lon="11.0946046"><ele>560.0</ele><time>2026-03-24T08:46:14.62Z</time></trkpt><trkpt lat="45.5615341" lon="11.0946691"><ele>560.0</ele><time>2026-03-24T08:46:15.623Z</time></trkpt><trkpt lat="45.5614319" lon="11.0947365"><ele>560.0</ele><time>2026-03-24T08:46:16.623Z</time></trkpt><trkpt lat="45.5613353" lon="11.094846"><ele>560.0</ele><time>2026-03-24T08:46:17.629Z</time></trkpt><trkpt lat="45.5612476" lon="11.094972"><ele>560.0</ele><time>2026-03-24T08:46:18.619Z</time></trkpt><trkpt lat="45.5611618" lon="11.0951128"><ele>563.75</ele><time>2026-03-24T08:46:19.627Z</time></trkpt><trkpt lat="45.561076" lon="11.0952543"><ele>567.5</ele><time>2026-03-24T08:46:20.626Z</time></trkpt><trkpt lat="45.5609805" lon="11.0953811"><ele>571.25</ele><time>2026-03-24T08:46:21.624Z</time></trkpt><trkpt lat="45.5609071" lon="11.0955096"><ele>575.0</ele><time>2026-03-24T08:46:22.626Z</time></trkpt><trkpt lat="45.5608232" lon="11.095606"><ele>575.0</ele><time>2026-03-24T08:46:23.623Z</time></trkpt><trkpt lat="45.5607263" lon="11.0956857"><ele>575.0</ele><time>2026-03-24T08:46:24.621Z</time></trkpt><trkpt lat="45.56063" lon="11.095772"><ele>575.0</ele><time>2026-03-24T08:46:25.624Z</time></trkpt><trkpt lat="45.5605249" lon="11.09585"><ele>575.0</ele><time>2026-03-24T08:46:26.622Z</time></trkpt><trkpt lat="45.5604391" lon="11.095925"><ele>575.0</ele><time>2026-03-24T08:46:27.62Z</time></trkpt><trkpt lat="45.5603435" lon="11.0959781"><ele>580.5</ele><time>2026-03-24T08:46:28.62Z</time></trkpt><trkpt lat="45.560216" lon="11.0960125"><ele>586.0</ele><time>2026-03-24T08:46:29.628Z</time></trkpt><trkpt lat="45.5600904" lon="11.0960471"><ele>591.5</ele><time>2026-03-24T08:46:30.624Z</time></trkpt><trkpt lat="45.5599666" lon="11.0960868"><ele>597.0</ele><time>2026-03-24T08:46:31.625Z</time></trkpt><trkpt lat="45.5598551" lon="11.0961155"><ele>597.0</ele><time>2026-03-24T08:46:32.625Z</time></trkpt><trkpt lat="45.5597571" lon="11.0961329"><ele>597.0</ele><time>2026-03-24T08:46:33.622Z</time></trkpt><trkpt lat="45.5596668" lon="11.096167"><ele>597.0</ele><time>2026-03-24T08:46:34.622Z</time></trkpt><trkpt lat="45.5595942" lon="11.0962209"><ele>597.0</ele><time>2026-03-24T08:46:35.624Z</time></trkpt><trkpt lat="45.5595182" lon="11.0962825"><ele>597.0</ele><time>2026-03-24T08:46:36.623Z</time></trkpt><trkpt lat="45.5594386" lon="11.0963867"><ele>595.75</ele><time>2026-03-24T08:46:37.624Z</time></trkpt><trkpt lat="45.5593576" lon="11.0965319"><ele>594.5</ele><time>2026-03-24T08:46:38.625Z</time></trkpt><trkpt lat="45.5592848" lon="11.0967007"><ele>593.25</ele><time>2026-03-24T08:46:39.623Z</time></trkpt><trkpt lat="45.5592034" lon="11.0968844"><ele>592.0</ele><time>2026-03-24T08:46:40.627Z</time></trkpt><trkpt lat="45.5591126" lon="11.0970546"><ele>596.25</ele><time>2026-03-24T08:46:41.63Z</time></trkpt><trkpt lat="45.5590039" lon="11.0972078"><ele>600.5</ele><time>2026-03-24T08:46:42.631Z</time></trkpt><trkpt lat="45.5588837" lon="11.0973371"><ele>604.75</ele><time>2026-03-24T08:46:43.632Z</time></trkpt><trkpt lat="45.558792" lon="11.0974628"><ele>609.0</ele><time>2026-03-24T08:46:44.631Z</time></trkpt><trkpt lat="45.5586967" lon="11.097568"><ele>610.6</ele><time>2026-03-24T08:46:45.634Z</time></trkpt><trkpt lat="45.5585865" lon="11.0976669"><ele>612.2</ele><time>2026-03-24T08:46:46.632Z</time></trkpt><trkpt lat="45.5584943" lon="11.0977349"><ele>613.8000000000001</ele><time>2026-03-24T08:46:47.637Z</time></trkpt><trkpt lat="45.5583969" lon="11.097801"><ele>615.4</ele><time>2026-03-24T08:46:48.633Z</time></trkpt><trkpt lat="45.5583222" lon="11.0978392"><ele>617.0</ele><time>2026-03-24T08:46:49.636Z</time></trkpt><trkpt lat="45.558244" lon="11.097867"><ele>617.0</ele><time>2026-03-24T08:46:50.632Z</time></trkpt><trkpt lat="45.5581789" lon="11.0978877"><ele>617.0</ele><time>2026-03-24T08:46:51.631Z</time></trkpt><trkpt lat="45.5581067" lon="11.097991"><ele>617.0</ele><time>2026-03-24T08:46:53.632Z</time></trkpt><trkpt lat="45.5581254" lon="11.0980889"><ele>617.0</ele><time>2026-03-24T08:46:54.628Z</time></trkpt><trkpt lat="45.5581606" lon="11.0981876"><ele>617.0</ele><time>2026-03-24T08:46:55.621Z</time></trkpt><trkpt lat="45.5582394" lon="11.0982989"><ele>617.0</ele><time>2026-03-24T08:46:56.622Z</time></trkpt><trkpt lat="45.5583617" lon="11.0983956"><ele>620.0</ele><time>2026-03-24T08:46:57.627Z</time></trkpt><trkpt lat="45.558505" lon="11.0984971"><ele>623.0</ele><time>2026-03-24T08:46:58.622Z</time></trkpt><trkpt lat="45.5586446" lon="11.0986091"><ele>626.0</ele><time>2026-03-24T08:46:59.628Z</time></trkpt><trkpt lat="45.5587812" lon="11.0987097"><ele>630.6666666666666</ele><time>2026-03-24T08:47:00.624Z</time></trkpt><trkpt lat="45.5589184" lon="11.0988201"><ele>635.3333333333334</ele><time>2026-03-24T08:47:01.623Z</time></trkpt><trkpt lat="45.5590948" lon="11.0989611"><ele>640.0</ele><time>2026-03-24T08:47:02.625Z</time></trkpt><trkpt lat="45.5592508" lon="11.0991414"><ele>641.3333333333334</ele><time>2026-03-24T08:47:03.628Z</time></trkpt><trkpt lat="45.559376" lon="11.0992848"><ele>642.6666666666666</ele><time>2026-03-24T08:47:04.624Z</time></trkpt><trkpt lat="45.5595101" lon="11.0994467"><ele>644.0</ele><time>2026-03-24T08:47:05.621Z</time></trkpt><trkpt lat="45.559628" lon="11.0996101"><ele>648.75</ele><time>2026-03-24T08:47:06.632Z</time></trkpt><trkpt lat="45.5597582" lon="11.0997437"><ele>653.5</ele><time>2026-03-24T08:47:07.624Z</time></trkpt><trkpt lat="45.5598663" lon="11.0998841"><ele>658.25</ele><time>2026-03-24T08:47:08.628Z</time></trkpt><trkpt lat="45.559962" lon="11.1000298"><ele>663.0</ele><time>2026-03-24T08:47:09.619Z</time></trkpt><trkpt lat="45.5600441" lon="11.100139"><ele>663.0</ele><time>2026-03-24T08:47:10.628Z</time></trkpt><trkpt lat="45.5600847" lon="11.1002283"><ele>663.0</ele><time>2026-03-24T08:47:11.62Z</time></trkpt><trkpt lat="45.5601315" lon="11.1002969"><ele>663.0</ele><time>2026-03-24T08:47:12.625Z</time></trkpt><trkpt lat="45.5601867" lon="11.1003483"><ele>663.0</ele><time>2026-03-24T08:47:13.621Z</time></trkpt><trkpt lat="45.5602792" lon="11.1002921"><ele>663.0</ele><time>2026-03-24T08:47:16.614Z</time></trkpt><trkpt lat="45.5603152" lon="11.1001991"><ele>663.0</ele><time>2026-03-24T08:47:17.623Z</time></trkpt><trkpt lat="45.5603084" lon="11.1000754"><ele>663.0</ele><time>2026-03-24T08:47:18.625Z</time></trkpt><trkpt lat="45.5602811" lon="11.0999404"><ele>663.0</ele><time>2026-03-24T08:47:19.624Z</time></trkpt><trkpt lat="45.5602439" lon="11.0997879"><ele>663.0</ele><time>2026-03-24T08:47:20.622Z</time></trkpt><trkpt lat="45.5602013" lon="11.0996231"><ele>663.0</ele><time>2026-03-24T08:47:21.627Z</time></trkpt><trkpt lat="45.5601674" lon="11.0994562"><ele>663.75</ele><time>2026-03-24T08:47:22.622Z</time></trkpt><trkpt lat="45.5601329" lon="11.0992863"><ele>664.5</ele><time>2026-03-24T08:47:23.628Z</time></trkpt><trkpt lat="45.5601236" lon="11.0991233"><ele>665.25</ele><time>2026-03-24T08:47:24.625Z</time></trkpt><trkpt lat="45.5601386" lon="11.0989531"><ele>666.0</ele><time>2026-03-24T08:47:25.623Z</time></trkpt><trkpt lat="45.560167" lon="11.0987911"><ele>666.0</ele><time>2026-03-24T08:47:26.622Z</time></trkpt><trkpt lat="45.5602067" lon="11.0986332"><ele>666.0</ele><time>2026-03-24T08:47:27.628Z</time></trkpt><trkpt lat="45.5602633" lon="11.0984941"><ele>666.0</ele><time>2026-03-24T08:47:28.626Z</time></trkpt><trkpt lat="45.5603295" lon="11.0983749"><ele>666.0</ele><time>2026-03-24T08:47:29.622Z</time></trkpt><trkpt lat="45.5604022" lon="11.0982825"><ele>666.0</ele><time>2026-03-24T08:47:30.625Z</time></trkpt><trkpt lat="45.5604708" lon="11.0982287"><ele>665.5999999999999</ele><time>2026-03-24T08:47:31.628Z</time></trkpt><trkpt lat="45.5605616" lon="11.0981975"><ele>665.2</ele><time>2026-03-24T08:47:32.621Z</time></trkpt><trkpt lat="45.5606452" lon="11.0981834"><ele>664.8</ele><time>2026-03-24T08:47:33.629Z</time></trkpt><trkpt lat="45.5607185" lon="11.0981829"><ele>664.4000000000001</ele><time>2026-03-24T08:47:34.631Z</time></trkpt><trkpt lat="45.5608014" lon="11.0981988"><ele>664.0</ele><time>2026-03-24T08:47:35.631Z</time></trkpt><trkpt lat="45.5609236" lon="11.0982505"><ele>666.3333333333334</ele><time>2026-03-24T08:47:37.64Z</time></trkpt><trkpt lat="45.5609977" lon="11.0983067"><ele>668.6666666666667</ele><time>2026-03-24T08:47:38.628Z</time></trkpt><trkpt lat="45.5610594" lon="11.0983753"><ele>671.0</ele><time>2026-03-24T08:47:39.631Z</time></trkpt><trkpt lat="45.5611004" lon="11.0984723"><ele>673.3333333333334</ele><time>2026-03-24T08:47:40.632Z</time></trkpt><trkpt lat="45.561116" lon="11.0986061"><ele>675.6666666666666</ele><time>2026-03-24T08:47:41.634Z</time></trkpt><trkpt lat="45.5611247" lon="11.098747"><ele>678.0</ele><time>2026-03-24T08:47:42.638Z</time></trkpt><trkpt lat="45.5611181" lon="11.0989229"><ele>680.0</ele><time>2026-03-24T08:47:43.636Z</time></trkpt><trkpt lat="45.5611233" lon="11.0991116"><ele>682.0</ele><time>2026-03-24T08:47:44.642Z</time></trkpt><trkpt lat="45.561142" lon="11.0992836"><ele>684.0</ele><time>2026-03-24T08:47:45.637Z</time></trkpt><trkpt lat="45.5611614" lon="11.099455"><ele>686.0</ele><time>2026-03-24T08:47:46.642Z</time></trkpt><trkpt lat="45.5611858" lon="11.0996148"><ele>686.3333333333333</ele><time>2026-03-24T08:47:47.637Z</time></trkpt><trkpt lat="45.5612094" lon="11.0997687"><ele>686.6666666666666</ele><time>2026-03-24T08:47:48.634Z</time></trkpt><trkpt lat="45.5612304" lon="11.0999078"><ele>687.0</ele><time>2026-03-24T08:47:49.637Z</time></trkpt><trkpt lat="45.561254" lon="11.1000219"><ele>687.3333333333334</ele><time>2026-03-24T08:47:50.637Z</time></trkpt><trkpt lat="45.5612855" lon="11.1001209"><ele>687.6666666666667</ele><time>2026-03-24T08:47:51.639Z</time></trkpt><trkpt lat="45.5613145" lon="11.1002041"><ele>688.0</ele><time>2026-03-24T08:47:52.635Z</time></trkpt><trkpt lat="45.5613466" lon="11.1002828"><ele>689.5</ele><time>2026-03-24T08:47:53.634Z</time></trkpt><trkpt lat="45.5613867" lon="11.1003581"><ele>691.0</ele><time>2026-03-24T08:47:54.642Z</time></trkpt><trkpt lat="45.5614403" lon="11.1004387"><ele>692.5</ele><time>2026-03-24T08:47:55.636Z</time></trkpt><trkpt lat="45.5614959" lon="11.100536"><ele>694.0</ele><time>2026-03-24T08:47:56.635Z</time></trkpt><trkpt lat="45.5615452" lon="11.1006473"><ele>695.5</ele><time>2026-03-24T08:47:57.635Z</time></trkpt><trkpt lat="45.5615857" lon="11.1007805"><ele>697.0</ele><time>2026-03-24T08:47:58.633Z</time></trkpt><trkpt lat="45.5616148" lon="11.1009367"><ele>698.6</ele><time>2026-03-24T08:47:59.637Z</time></trkpt><trkpt lat="45.5616361" lon="11.1010992"><ele>700.2</ele><time>2026-03-24T08:48:00.633Z</time></trkpt><trkpt lat="45.561654" lon="11.1012438"><ele>701.8</ele><time>2026-03-24T08:48:01.637Z</time></trkpt><trkpt lat="45.56166" lon="11.1013784"><ele>703.4</ele><time>2026-03-24T08:48:02.635Z</time></trkpt><trkpt lat="45.5616549" lon="11.1015229"><ele>705.0</ele><time>2026-03-24T08:48:03.636Z</time></trkpt><trkpt lat="45.5616389" lon="11.1016685"><ele>705.25</ele><time>2026-03-24T08:48:04.63Z</time></trkpt><trkpt lat="45.5616019" lon="11.1018348"><ele>705.5</ele><time>2026-03-24T08:48:05.638Z</time></trkpt><trkpt lat="45.5615655" lon="11.1019944"><ele>705.75</ele><time>2026-03-24T08:48:06.636Z</time></trkpt><trkpt lat="45.5615283" lon="11.1021653"><ele>706.0</ele><time>2026-03-24T08:48:07.641Z</time></trkpt><trkpt lat="45.5614921" lon="11.1023463"><ele>708.0</ele><time>2026-03-24T08:48:08.634Z</time></trkpt><trkpt lat="45.561478" lon="11.1025364"><ele>710.0</ele><time>2026-03-24T08:48:09.635Z</time></trkpt><trkpt lat="45.5614802" lon="11.1027271"><ele>712.0</ele><time>2026-03-24T08:48:10.636Z</time></trkpt><trkpt lat="45.5614943" lon="11.1029117"><ele>714.0</ele><time>2026-03-24T08:48:11.636Z</time></trkpt><trkpt lat="45.5615051" lon="11.1030635"><ele>714.0</ele><time>2026-03-24T08:48:12.638Z</time></trkpt><trkpt lat="45.5615213" lon="11.1031896"><ele>714.0</ele><time>2026-03-24T08:48:13.637Z</time></trkpt><trkpt lat="45.5615446" lon="11.1033116"><ele>714.0</ele><time>2026-03-24T08:48:14.632Z</time></trkpt><trkpt lat="45.5615803" lon="11.1034581"><ele>714.0</ele><time>2026-03-24T08:48:15.638Z</time></trkpt><trkpt lat="45.5616218" lon="11.1036003"><ele>714.0</ele><time>2026-03-24T08:48:16.634Z</time></trkpt><trkpt lat="45.5616693" lon="11.1037392"><ele>715.75</ele><time>2026-03-24T08:48:17.632Z</time></trkpt><trkpt lat="45.5617267" lon="11.1038808"><ele>717.5</ele><time>2026-03-24T08:48:18.637Z</time></trkpt><trkpt lat="45.5617893" lon="11.1040298"><ele>719.25</ele><time>2026-03-24T08:48:19.642Z</time></trkpt><trkpt lat="45.5618494" lon="11.1041948"><ele>721.0</ele><time>2026-03-24T08:48:20.644Z</time></trkpt><trkpt lat="45.5619121" lon="11.1043518"><ele>721.0</ele><time>2026-03-24T08:48:21.635Z</time></trkpt><trkpt lat="45.5619769" lon="11.1045227"><ele>721.0</ele><time>2026-03-24T08:48:22.633Z</time></trkpt><trkpt lat="45.562032" lon="11.1047074"><ele>721.0</ele><time>2026-03-24T08:48:23.636Z</time></trkpt><trkpt lat="45.5620879" lon="11.1049056"><ele>721.0</ele><time>2026-03-24T08:48:24.636Z</time></trkpt><trkpt lat="45.5621375" lon="11.1051251"><ele>721.75</ele><time>2026-03-24T08:48:25.633Z</time></trkpt><trkpt lat="45.5621762" lon="11.1053305"><ele>722.5</ele><time>2026-03-24T08:48:26.632Z</time></trkpt><trkpt lat="45.5621978" lon="11.1055472"><ele>723.25</ele><time>2026-03-24T08:48:27.625Z</time></trkpt><trkpt lat="45.5622063" lon="11.1057375"><ele>724.0</ele><time>2026-03-24T08:48:28.63Z</time></trkpt><trkpt lat="45.5622229" lon="11.1059326"><ele>724.6666666666667</ele><time>2026-03-24T08:48:29.639Z</time></trkpt><trkpt lat="45.5622568" lon="11.1061534"><ele>725.3333333333334</ele><time>2026-03-24T08:48:30.638Z</time></trkpt><trkpt lat="45.5622887" lon="11.1063732"><ele>726.0</ele><time>2026-03-24T08:48:31.637Z</time></trkpt><trkpt lat="45.5623252" lon="11.1066014"><ele>727.75</ele><time>2026-03-24T08:48:32.638Z</time></trkpt><trkpt lat="45.5623434" lon="11.1068078"><ele>729.5</ele><time>2026-03-24T08:48:33.639Z</time></trkpt><trkpt lat="45.5623598" lon="11.1070164"><ele>731.25</ele><time>2026-03-24T08:48:34.638Z</time></trkpt><trkpt lat="45.5623555" lon="11.1072232"><ele>733.0</ele><time>2026-03-24T08:48:35.634Z</time></trkpt><trkpt lat="45.5623478" lon="11.1074071"><ele>735.25</ele><time>2026-03-24T08:48:36.631Z</time></trkpt><trkpt lat="45.5623719" lon="11.10759"><ele>737.5</ele><time>2026-03-24T08:48:37.637Z</time></trkpt><trkpt lat="45.5624128" lon="11.1077642"><ele>739.75</ele><time>2026-03-24T08:48:38.635Z</time></trkpt><trkpt lat="45.5624435" lon="11.1079469"><ele>742.0</ele><time>2026-03-24T08:48:39.638Z</time></trkpt><trkpt lat="45.5624881" lon="11.108122"><ele>743.1666666666667</ele><time>2026-03-24T08:48:40.637Z</time></trkpt><trkpt lat="45.5625024" lon="11.1082617"><ele>744.3333333333334</ele><time>2026-03-24T08:48:41.63Z</time></trkpt><trkpt lat="45.5625437" lon="11.1083346"><ele>745.5</ele><time>2026-03-24T08:48:42.631Z</time></trkpt><trkpt lat="45.5626423" lon="11.1083852"><ele>746.6666666666666</ele><time>2026-03-24T08:48:44.631Z</time></trkpt><trkpt lat="45.5627145" lon="11.1083487"><ele>747.8333333333333</ele><time>2026-03-24T08:48:45.629Z</time></trkpt><trkpt lat="45.5627918" lon="11.1082984"><ele>749.0</ele><time>2026-03-24T08:48:46.635Z</time></trkpt><trkpt lat="45.5628781" lon="11.1082757"><ele>751.4000000000001</ele><time>2026-03-24T08:48:47.624Z</time></trkpt><trkpt lat="45.5629717" lon="11.1082567"><ele>753.8</ele><time>2026-03-24T08:48:48.63Z</time></trkpt><trkpt lat="45.5630667" lon="11.1082648"><ele>756.2</ele><time>2026-03-24T08:48:49.626Z</time></trkpt><trkpt lat="45.56317" lon="11.10831"><ele>758.5999999999999</ele><time>2026-03-24T08:48:50.628Z</time></trkpt><trkpt lat="45.563265" lon="11.1083765"><ele>761.0</ele><time>2026-03-24T08:48:51.63Z</time></trkpt><trkpt lat="45.5633455" lon="11.1084384"><ele>761.0</ele><time>2026-03-24T08:48:52.62Z</time></trkpt><trkpt lat="45.5634144" lon="11.1084936"><ele>761.0</ele><time>2026-03-24T08:48:53.629Z</time></trkpt><trkpt lat="45.5634411" lon="11.1085909"><ele>761.0</ele><time>2026-03-24T08:48:54.625Z</time></trkpt><trkpt lat="45.5634311" lon="11.1087277"><ele>761.0</ele><time>2026-03-24T08:48:55.622Z</time></trkpt><trkpt lat="45.5634212" lon="11.1088727"><ele>761.0</ele><time>2026-03-24T08:48:56.632Z</time></trkpt><trkpt lat="45.5634141" lon="11.1090447"><ele>763.25</ele><time>2026-03-24T08:48:57.629Z</time></trkpt><trkpt lat="45.5634346" lon="11.1092341"><ele>765.5</ele><time>2026-03-24T08:48:58.631Z</time></trkpt><trkpt lat="45.5634505" lon="11.1094191"><ele>767.75</ele><time>2026-03-24T08:48:59.634Z</time></trkpt><trkpt lat="45.5634918" lon="11.1096114"><ele>770.0</ele><time>2026-03-24T08:49:00.626Z</time></trkpt><trkpt lat="45.5635386" lon="11.1098034"><ele>769.75</ele><time>2026-03-24T08:49:01.639Z</time></trkpt><trkpt lat="45.5635843" lon="11.109982"><ele>769.5</ele><time>2026-03-24T08:49:02.627Z</time></trkpt><trkpt lat="45.5636264" lon="11.1101552"><ele>769.25</ele><time>2026-03-24T08:49:03.621Z</time></trkpt><trkpt lat="45.5636645" lon="11.1103227"><ele>769.0</ele><time>2026-03-24T08:49:04.623Z</time></trkpt><trkpt lat="45.5637254" lon="11.1104878"><ele>771.75</ele><time>2026-03-24T08:49:05.619Z</time></trkpt><trkpt lat="45.5637976" lon="11.1106416"><ele>774.5</ele><time>2026-03-24T08:49:06.621Z</time></trkpt><trkpt lat="45.5638773" lon="11.1107814"><ele>777.25</ele><time>2026-03-24T08:49:07.621Z</time></trkpt><trkpt lat="45.5639593" lon="11.1109044"><ele>780.0</ele><time>2026-03-24T08:49:08.625Z</time></trkpt><trkpt lat="45.5640478" lon="11.1110191"><ele>780.0</ele><time>2026-03-24T08:49:09.618Z</time></trkpt><trkpt lat="45.5641486" lon="11.1111255"><ele>780.0</ele><time>2026-03-24T08:49:10.626Z</time></trkpt><trkpt lat="45.5642598" lon="11.1112182"><ele>780.0</ele><time>2026-03-24T08:49:11.621Z</time></trkpt><trkpt lat="45.5643601" lon="11.1112976"><ele>780.0</ele><time>2026-03-24T08:49:12.623Z</time></trkpt><trkpt lat="45.5644654" lon="11.1113648"><ele>779.4</ele><time>2026-03-24T08:49:13.62Z</time></trkpt><trkpt lat="45.5645593" lon="11.1114491"><ele>778.8</ele><time>2026-03-24T08:49:14.622Z</time></trkpt><trkpt lat="45.5646368" lon="11.1115532"><ele>778.2</ele><time>2026-03-24T08:49:15.62Z</time></trkpt><trkpt lat="45.5646979" lon="11.1116716"><ele>777.6</ele><time>2026-03-24T08:49:16.616Z</time></trkpt><trkpt lat="45.564742" lon="11.1117928"><ele>777.0</ele><time>2026-03-24T08:49:17.619Z</time></trkpt><trkpt lat="45.5647475" lon="11.1119637"><ele>778.5</ele><time>2026-03-24T08:49:18.617Z</time></trkpt><trkpt lat="45.5647666" lon="11.1121434"><ele>780.0</ele><time>2026-03-24T08:49:19.623Z</time></trkpt><trkpt lat="45.5647913" lon="11.1123163"><ele>781.5</ele><time>2026-03-24T08:49:20.613Z</time></trkpt><trkpt lat="45.5648142" lon="11.1124666"><ele>783.0</ele><time>2026-03-24T08:49:21.613Z</time></trkpt><trkpt lat="45.5648327" lon="11.1126044"><ele>784.1428571428571</ele><time>2026-03-24T08:49:22.612Z</time></trkpt><trkpt lat="45.5648517" lon="11.11271"><ele>785.2857142857143</ele><time>2026-03-24T08:49:23.613Z</time></trkpt><trkpt lat="45.5648791" lon="11.1128006"><ele>786.4285714285714</ele><time>2026-03-24T08:49:24.623Z</time></trkpt><trkpt lat="45.564913" lon="11.1128875"><ele>787.5714285714286</ele><time>2026-03-24T08:49:25.624Z</time></trkpt><trkpt lat="45.5649636" lon="11.1129657"><ele>788.7142857142858</ele><time>2026-03-24T08:49:26.619Z</time></trkpt><trkpt lat="45.5650014" lon="11.1130446"><ele>789.8571428571429</ele><time>2026-03-24T08:49:27.626Z</time></trkpt><trkpt lat="45.565049" lon="11.1131144"><ele>791.0</ele><time>2026-03-24T08:49:28.628Z</time></trkpt><trkpt lat="45.5651403" lon="11.1132474"><ele>791.0</ele><time>2026-03-24T08:49:30.623Z</time></trkpt><trkpt lat="45.5651984" lon="11.1133128"><ele>791.0</ele><time>2026-03-24T08:49:31.629Z</time></trkpt><trkpt lat="45.5652638" lon="11.1133694"><ele>791.0</ele><time>2026-03-24T08:49:32.62Z</time></trkpt><trkpt lat="45.5653244" lon="11.1134151"><ele>791.0</ele><time>2026-03-24T08:49:33.624Z</time></trkpt><trkpt lat="45.5653874" lon="11.1134663"><ele>791.0</ele><time>2026-03-24T08:49:34.623Z</time></trkpt><trkpt lat="45.5654439" lon="11.1135091"><ele>791.0</ele><time>2026-03-24T08:49:35.62Z</time></trkpt><trkpt lat="45.5655047" lon="11.1135862"><ele>791.0</ele><time>2026-03-24T08:49:37.625Z</time></trkpt><trkpt lat="45.5654874" lon="11.1137151"><ele>793.8</ele><time>2026-03-24T08:49:39.627Z</time></trkpt><trkpt lat="45.5654706" lon="11.1138143"><ele>796.5999999999999</ele><time>2026-03-24T08:49:40.62Z</time></trkpt><trkpt lat="45.5654532" lon="11.1139462"><ele>799.4</ele><time>2026-03-24T08:49:41.626Z</time></trkpt><trkpt lat="45.5654383" lon="11.1140928"><ele>802.2</ele><time>2026-03-24T08:49:42.62Z</time></trkpt><trkpt lat="45.5654517" lon="11.1142434"><ele>805.0</ele><time>2026-03-24T08:49:43.618Z</time></trkpt><trkpt lat="45.5654713" lon="11.1143896"><ele>806.0</ele><time>2026-03-24T08:49:44.617Z</time></trkpt><trkpt lat="45.5654891" lon="11.1145316"><ele>807.0</ele><time>2026-03-24T08:49:45.612Z</time></trkpt><trkpt lat="45.5654955" lon="11.1146621"><ele>808.0</ele><time>2026-03-24T08:49:46.616Z</time></trkpt><trkpt lat="45.5654891" lon="11.114798"><ele>809.0</ele><time>2026-03-24T08:49:47.62Z</time></trkpt><trkpt lat="45.5654603" lon="11.114943"><ele>810.0</ele><time>2026-03-24T08:49:48.621Z</time></trkpt><trkpt lat="45.5654085" lon="11.1150824"><ele>806.75</ele><time>2026-03-24T08:49:49.622Z</time></trkpt><trkpt lat="45.5653359" lon="11.1152142"><ele>803.5</ele><time>2026-03-24T08:49:50.621Z</time></trkpt><trkpt lat="45.5652609" lon="11.1153367"><ele>800.25</ele><time>2026-03-24T08:49:51.633Z</time></trkpt><trkpt lat="45.5651926" lon="11.1154626"><ele>797.0</ele><time>2026-03-24T08:49:52.621Z</time></trkpt><trkpt lat="45.5651177" lon="11.115587"><ele>797.0</ele><time>2026-03-24T08:49:53.626Z</time></trkpt><trkpt lat="45.5650494" lon="11.1157077"><ele>797.0</ele><time>2026-03-24T08:49:54.624Z</time></trkpt><trkpt lat="45.5649902" lon="11.1158161"><ele>797.0</ele><time>2026-03-24T08:49:55.617Z</time></trkpt><trkpt lat="45.5649244" lon="11.1159044"><ele>797.0</ele><time>2026-03-24T08:49:56.616Z</time></trkpt><trkpt lat="45.5648621" lon="11.1159861"><ele>797.0</ele><time>2026-03-24T08:49:57.608Z</time></trkpt><trkpt lat="45.5648015" lon="11.1160556"><ele>799.6</ele><time>2026-03-24T08:49:58.615Z</time></trkpt><trkpt lat="45.5646913" lon="11.1160232"><ele>802.2</ele><time>2026-03-24T08:50:00.613Z</time></trkpt><trkpt lat="45.5646294" lon="11.1159582"><ele>804.8</ele><time>2026-03-24T08:50:01.615Z</time></trkpt><trkpt lat="45.5645473" lon="11.1158812"><ele>807.4</ele><time>2026-03-24T08:50:02.617Z</time></trkpt><trkpt lat="45.5644712" lon="11.1158581"><ele>810.0</ele><time>2026-03-24T08:50:03.615Z</time></trkpt><trkpt lat="45.564353" lon="11.1158374"><ele>810.0</ele><time>2026-03-24T08:50:04.615Z</time></trkpt><trkpt lat="45.5642295" lon="11.1158565"><ele>810.0</ele><time>2026-03-24T08:50:05.616Z</time></trkpt><trkpt lat="45.564086" lon="11.1158815"><ele>810.0</ele><time>2026-03-24T08:50:06.62Z</time></trkpt><trkpt lat="45.5639538" lon="11.1159376"><ele>810.0</ele><time>2026-03-24T08:50:07.621Z</time></trkpt><trkpt lat="45.5638381" lon="11.1160153"><ele>810.0</ele><time>2026-03-24T08:50:08.621Z</time></trkpt><trkpt lat="45.5637297" lon="11.1160668"><ele>810.0</ele><time>2026-03-24T08:50:09.623Z</time></trkpt><trkpt lat="45.5636313" lon="11.116089"><ele>810.0</ele><time>2026-03-24T08:50:10.619Z</time></trkpt><trkpt lat="45.5635438" lon="11.1160621"><ele>810.0</ele><time>2026-03-24T08:50:11.619Z</time></trkpt><trkpt lat="45.5634668" lon="11.116002"><ele>810.0</ele><time>2026-03-24T08:50:12.62Z</time></trkpt><trkpt lat="45.5634364" lon="11.1159048"><ele>809.0</ele><time>2026-03-24T08:50:13.622Z</time></trkpt><trkpt lat="45.5634134" lon="11.1157697"><ele>808.0</ele><time>2026-03-24T08:50:14.626Z</time></trkpt><trkpt lat="45.5633591" lon="11.1156217"><ele>807.0</ele><time>2026-03-24T08:50:15.62Z</time></trkpt><trkpt lat="45.5633234" lon="11.1154076"><ele>806.0</ele><time>2026-03-24T08:50:16.623Z</time></trkpt><trkpt lat="45.5632622" lon="11.1151821"><ele>802.3333333333334</ele><time>2026-03-24T08:50:17.635Z</time></trkpt><trkpt lat="45.5631948" lon="11.1149626"><ele>798.6666666666667</ele><time>2026-03-24T08:50:18.633Z</time></trkpt><trkpt lat="45.563097" lon="11.1146484"><ele>795.0</ele><time>2026-03-24T08:50:19.627Z</time></trkpt><trkpt lat="45.5630459" lon="11.1143805"><ele>790.0</ele><time>2026-03-24T08:50:20.629Z</time></trkpt><trkpt lat="45.5629437" lon="11.1141898"><ele>785.0</ele><time>2026-03-24T08:50:21.63Z</time></trkpt><trkpt lat="45.5628545" lon="11.1140271"><ele>780.0</ele><time>2026-03-24T08:50:22.62Z</time></trkpt><trkpt lat="45.5627013" lon="11.1139074"><ele>779.0</ele><time>2026-03-24T08:50:23.622Z</time></trkpt><trkpt lat="45.5625783" lon="11.1137891"><ele>778.0</ele><time>2026-03-24T08:50:24.627Z</time></trkpt><trkpt lat="45.5624563" lon="11.1137404"><ele>777.0</ele><time>2026-03-24T08:50:25.625Z</time></trkpt><trkpt lat="45.5623208" lon="11.1137271"><ele>776.0</ele><time>2026-03-24T08:50:26.623Z</time></trkpt><trkpt lat="45.5621948" lon="11.1137664"><ele>776.0</ele><time>2026-03-24T08:50:27.63Z</time></trkpt><trkpt lat="45.5620649" lon="11.1137905"><ele>776.0</ele><time>2026-03-24T08:50:28.623Z</time></trkpt><trkpt lat="45.5619595" lon="11.1138848"><ele>776.0</ele><time>2026-03-24T08:50:29.622Z</time></trkpt><trkpt lat="45.561866" lon="11.114012"><ele>776.0</ele><time>2026-03-24T08:50:30.63Z</time></trkpt><trkpt lat="45.5617787" lon="11.1141451"><ele>777.6666666666667</ele><time>2026-03-24T08:50:31.632Z</time></trkpt><trkpt lat="45.5617154" lon="11.1143399"><ele>779.3333333333333</ele><time>2026-03-24T08:50:32.631Z</time></trkpt><trkpt lat="45.5616498" lon="11.1145468"><ele>781.0</ele><time>2026-03-24T08:50:33.632Z</time></trkpt><trkpt lat="45.5616289" lon="11.1148201"><ele>782.0</ele><time>2026-03-24T08:50:34.63Z</time></trkpt><trkpt lat="45.561628" lon="11.1150964"><ele>783.0</ele><time>2026-03-24T08:50:35.62Z</time></trkpt><trkpt lat="45.5616321" lon="11.1153875"><ele>784.0</ele><time>2026-03-24T08:50:36.626Z</time></trkpt><trkpt lat="45.5616374" lon="11.1156396"><ele>784.0</ele><time>2026-03-24T08:50:37.622Z</time></trkpt><trkpt lat="45.5616727" lon="11.1158977"><ele>784.0</ele><time>2026-03-24T08:50:38.616Z</time></trkpt><trkpt lat="45.5617183" lon="11.1161198"><ele>784.0</ele><time>2026-03-24T08:50:39.627Z</time></trkpt><trkpt lat="45.5617832" lon="11.1163409"><ele>784.0</ele><time>2026-03-24T08:50:40.62Z</time></trkpt><trkpt lat="45.5618356" lon="11.1165369"><ele>784.0</ele><time>2026-03-24T08:50:41.617Z</time></trkpt><trkpt lat="45.5618604" lon="11.1167153"><ele>784.0</ele><time>2026-03-24T08:50:42.618Z</time></trkpt><trkpt lat="45.5618964" lon="11.116881"><ele>784.0</ele><time>2026-03-24T08:50:43.618Z</time></trkpt><trkpt lat="45.561907" lon="11.1170173"><ele>783.0</ele><time>2026-03-24T08:50:44.624Z</time></trkpt><trkpt lat="45.561868" lon="11.1171229"><ele>782.0</ele><time>2026-03-24T08:50:45.619Z</time></trkpt><trkpt lat="45.5617986" lon="11.1172287"><ele>781.0</ele><time>2026-03-24T08:50:46.628Z</time></trkpt><trkpt lat="45.5616518" lon="11.1172684"><ele>780.0</ele><time>2026-03-24T08:50:47.618Z</time></trkpt><trkpt lat="45.5615253" lon="11.117297"><ele>780.0</ele><time>2026-03-24T08:50:48.616Z</time></trkpt><trkpt lat="45.5614026" lon="11.1173016"><ele>780.0</ele><time>2026-03-24T08:50:49.618Z</time></trkpt><trkpt lat="45.5612757" lon="11.1173046"><ele>780.0</ele><time>2026-03-24T08:50:50.615Z</time></trkpt><trkpt lat="45.561121" lon="11.1172764"><ele>780.0</ele><time>2026-03-24T08:50:51.616Z</time></trkpt><trkpt lat="45.5609622" lon="11.1172226"><ele>778.25</ele><time>2026-03-24T08:50:52.617Z</time></trkpt><trkpt lat="45.5608163" lon="11.117143"><ele>776.5</ele><time>2026-03-24T08:50:53.616Z</time></trkpt><trkpt lat="45.5606689" lon="11.1170754"><ele>774.75</ele><time>2026-03-24T08:50:54.617Z</time></trkpt><trkpt lat="45.5605657" lon="11.1169499"><ele>773.0</ele><time>2026-03-24T08:50:55.619Z</time></trkpt><trkpt lat="45.5604427" lon="11.116797"><ele>770.5</ele><time>2026-03-24T08:50:56.62Z</time></trkpt><trkpt lat="45.5603331" lon="11.1166385"><ele>768.0</ele><time>2026-03-24T08:50:57.623Z</time></trkpt><trkpt lat="45.5602254" lon="11.1164899"><ele>765.5</ele><time>2026-03-24T08:50:58.616Z</time></trkpt><trkpt lat="45.5601098" lon="11.1163927"><ele>763.0</ele><time>2026-03-24T08:50:59.616Z</time></trkpt><trkpt lat="45.560017" lon="11.1162686"><ele>763.0</ele><time>2026-03-24T08:51:00.617Z</time></trkpt><trkpt lat="45.5599041" lon="11.1161649"><ele>763.0</ele><time>2026-03-24T08:51:01.625Z</time></trkpt><trkpt lat="45.5598016" lon="11.1160899"><ele>763.0</ele><time>2026-03-24T08:51:02.621Z</time></trkpt><trkpt lat="45.5596773" lon="11.1160994"><ele>763.0</ele><time>2026-03-24T08:51:03.62Z</time></trkpt><trkpt lat="45.559572" lon="11.1160861"><ele>766.0</ele><time>2026-03-24T08:51:04.629Z</time></trkpt><trkpt lat="45.5594527" lon="11.1161152"><ele>769.0</ele><time>2026-03-24T08:51:05.628Z</time></trkpt><trkpt lat="45.559347" lon="11.1161322"><ele>772.0</ele><time>2026-03-24T08:51:06.616Z</time></trkpt><trkpt lat="45.5592539" lon="11.1161375"><ele>775.0</ele><time>2026-03-24T08:51:07.626Z</time></trkpt><trkpt lat="45.5591592" lon="11.1160796"><ele>778.0</ele><time>2026-03-24T08:51:08.62Z</time></trkpt><trkpt lat="45.5590815" lon="11.1159804"><ele>778.0</ele><time>2026-03-24T08:51:09.617Z</time></trkpt><trkpt lat="45.5590109" lon="11.1158512"><ele>778.0</ele><time>2026-03-24T08:51:10.623Z</time></trkpt><trkpt lat="45.5589503" lon="11.1157077"><ele>778.0</ele><time>2026-03-24T08:51:11.614Z</time></trkpt><trkpt lat="45.5589118" lon="11.1155318"><ele>778.0</ele><time>2026-03-24T08:51:12.617Z</time></trkpt><trkpt lat="45.5588655" lon="11.115365"><ele>775.0</ele><time>2026-03-24T08:51:13.62Z</time></trkpt><trkpt lat="45.5588044" lon="11.1152281"><ele>772.0</ele><time>2026-03-24T08:51:14.62Z</time></trkpt><trkpt lat="45.5587409" lon="11.1151051"><ele>769.0</ele><time>2026-03-24T08:51:15.623Z</time></trkpt><trkpt lat="45.5586494" lon="11.1150162"><ele>766.0</ele><time>2026-03-24T08:51:16.631Z</time></trkpt><trkpt lat="45.5585289" lon="11.1149898"><ele>765.75</ele><time>2026-03-24T08:51:17.626Z</time></trkpt><trkpt lat="45.5584101" lon="11.1150186"><ele>765.5</ele><time>2026-03-24T08:51:18.62Z</time></trkpt><trkpt lat="45.5582712" lon="11.1150739"><ele>765.25</ele><time>2026-03-24T08:51:19.621Z</time></trkpt><trkpt lat="45.5581083" lon="11.1151652"><ele>765.0</ele><time>2026-03-24T08:51:20.635Z</time></trkpt><trkpt lat="45.5579548" lon="11.1152408"><ele>762.0</ele><time>2026-03-24T08:51:21.625Z</time></trkpt><trkpt lat="45.5578165" lon="11.115298"><ele>759.0</ele><time>2026-03-24T08:51:22.628Z</time></trkpt><trkpt lat="45.5577115" lon="11.11535"><ele>756.0</ele><time>2026-03-24T08:51:23.63Z</time></trkpt><trkpt lat="45.5576016" lon="11.1154161"><ele>753.0</ele><time>2026-03-24T08:51:24.627Z</time></trkpt><trkpt lat="45.557512" lon="11.1155243"><ele>753.0</ele><time>2026-03-24T08:51:25.635Z</time></trkpt><trkpt lat="45.557433" lon="11.1156827"><ele>753.0</ele><time>2026-03-24T08:51:26.623Z</time></trkpt><trkpt lat="45.557407" lon="11.1158736"><ele>753.0</ele><time>2026-03-24T08:51:27.63Z</time></trkpt><trkpt lat="45.5573717" lon="11.1160475"><ele>753.0</ele><time>2026-03-24T08:51:28.619Z</time></trkpt><trkpt lat="45.5573243" lon="11.1162132"><ele>755.25</ele><time>2026-03-24T08:51:29.632Z</time></trkpt><trkpt lat="45.5572433" lon="11.1163359"><ele>757.5</ele><time>2026-03-24T08:51:30.631Z</time></trkpt><trkpt lat="45.5571406" lon="11.1164205"><ele>759.75</ele><time>2026-03-24T08:51:31.631Z</time></trkpt><trkpt lat="45.5570014" lon="11.1164547"><ele>762.0</ele><time>2026-03-24T08:51:32.63Z</time></trkpt><trkpt lat="45.5568806" lon="11.1165137"><ele>760.25</ele><time>2026-03-24T08:51:33.633Z</time></trkpt><trkpt lat="45.5567739" lon="11.1165878"><ele>758.5</ele><time>2026-03-24T08:51:34.627Z</time></trkpt><trkpt lat="45.5566831" lon="11.1166863"><ele>756.75</ele><time>2026-03-24T08:51:35.633Z</time></trkpt><trkpt lat="45.5566048" lon="11.1168329"><ele>755.0</ele><time>2026-03-24T08:51:36.625Z</time></trkpt><trkpt lat="45.5565353" lon="11.1169903"><ele>755.0</ele><time>2026-03-24T08:51:37.64Z</time></trkpt><trkpt lat="45.5564608" lon="11.1171511"><ele>755.0</ele><time>2026-03-24T08:51:38.634Z</time></trkpt><trkpt lat="45.5563899" lon="11.1173033"><ele>755.0</ele><time>2026-03-24T08:51:39.641Z</time></trkpt><trkpt lat="45.5563043" lon="11.1174401"><ele>755.0</ele><time>2026-03-24T08:51:40.633Z</time></trkpt><trkpt lat="45.5562046" lon="11.1175411"><ele>753.0</ele><time>2026-03-24T08:51:41.633Z</time></trkpt><trkpt lat="45.5560719" lon="11.1176346"><ele>751.0</ele><time>2026-03-24T08:51:42.636Z</time></trkpt><trkpt lat="45.5559184" lon="11.1177186"><ele>749.0</ele><time>2026-03-24T08:51:43.633Z</time></trkpt><trkpt lat="45.5557734" lon="11.1177783"><ele>749.0</ele><time>2026-03-24T08:51:44.63Z</time></trkpt><trkpt lat="45.5556325" lon="11.1178424"><ele>749.0</ele><time>2026-03-24T08:51:45.634Z</time></trkpt><trkpt lat="45.5555027" lon="11.1178655"><ele>749.0</ele><time>2026-03-24T08:51:46.637Z</time></trkpt><trkpt lat="45.5553582" lon="11.1178835"><ele>749.0</ele><time>2026-03-24T08:51:47.634Z</time></trkpt><trkpt lat="45.5552105" lon="11.1178853"><ele>744.6666666666666</ele><time>2026-03-24T08:51:48.636Z</time></trkpt><trkpt lat="45.555064" lon="11.1178743"><ele>740.3333333333334</ele><time>2026-03-24T08:51:49.637Z</time></trkpt><trkpt lat="45.5549108" lon="11.1178743"><ele>736.0</ele><time>2026-03-24T08:51:50.638Z</time></trkpt><trkpt lat="45.5547524" lon="11.1178576"><ele>736.0</ele><time>2026-03-24T08:51:51.642Z</time></trkpt><trkpt lat="45.5545889" lon="11.1178572"><ele>736.0</ele><time>2026-03-24T08:51:52.643Z</time></trkpt><trkpt lat="45.5544275" lon="11.1178484"><ele>736.0</ele><time>2026-03-24T08:51:53.643Z</time></trkpt><trkpt lat="45.5542737" lon="11.1178228"><ele>734.3333333333334</ele><time>2026-03-24T08:51:54.646Z</time></trkpt><trkpt lat="45.5541265" lon="11.117795"><ele>732.6666666666666</ele><time>2026-03-24T08:51:55.637Z</time></trkpt><trkpt lat="45.5539752" lon="11.1177464"><ele>731.0</ele><time>2026-03-24T08:51:56.64Z</time></trkpt><trkpt lat="45.5538278" lon="11.1176932"><ele>730.6666666666666</ele><time>2026-03-24T08:51:57.639Z</time></trkpt><trkpt lat="45.5536638" lon="11.117642"><ele>730.3333333333334</ele><time>2026-03-24T08:51:58.639Z</time></trkpt><trkpt lat="45.5535051" lon="11.1175984"><ele>730.0</ele><time>2026-03-24T08:51:59.639Z</time></trkpt><trkpt lat="45.5533649" lon="11.1175726"><ele>730.0</ele><time>2026-03-24T08:52:00.637Z</time></trkpt><trkpt lat="45.5532277" lon="11.1175234"><ele>730.0</ele><time>2026-03-24T08:52:01.641Z</time></trkpt><trkpt lat="45.5531002" lon="11.1174481"><ele>730.0</ele><time>2026-03-24T08:52:02.632Z</time></trkpt><trkpt lat="45.5529782" lon="11.1173307"><ele>730.0</ele><time>2026-03-24T08:52:03.627Z</time></trkpt><trkpt lat="45.5528657" lon="11.1171477"><ele>727.5</ele><time>2026-03-24T08:52:04.627Z</time></trkpt><trkpt lat="45.5527677" lon="11.1169996"><ele>725.0</ele><time>2026-03-24T08:52:05.636Z</time></trkpt><trkpt lat="45.5526871" lon="11.1168042"><ele>722.5</ele><time>2026-03-24T08:52:06.636Z</time></trkpt><trkpt lat="45.5526026" lon="11.1166812"><ele>720.0</ele><time>2026-03-24T08:52:07.626Z</time></trkpt><trkpt lat="45.5525248" lon="11.1165365"><ele>720.0</ele><time>2026-03-24T08:52:08.628Z</time></trkpt><trkpt lat="45.5524152" lon="11.1164719"><ele>720.0</ele><time>2026-03-24T08:52:09.635Z</time></trkpt><trkpt lat="45.5523096" lon="11.1164279"><ele>720.0</ele><time>2026-03-24T08:52:10.628Z</time></trkpt><trkpt lat="45.5522211" lon="11.1164644"><ele>720.0</ele><time>2026-03-24T08:52:11.629Z</time></trkpt><trkpt lat="45.5521359" lon="11.1165799"><ele>720.0</ele><time>2026-03-24T08:52:12.631Z</time></trkpt><trkpt lat="45.5520697" lon="11.1167054"><ele>717.25</ele><time>2026-03-24T08:52:13.621Z</time></trkpt><trkpt lat="45.5520062" lon="11.1168573"><ele>714.5</ele><time>2026-03-24T08:52:14.626Z</time></trkpt><trkpt lat="45.5519491" lon="11.1170391"><ele>711.75</ele><time>2026-03-24T08:52:15.632Z</time></trkpt><trkpt lat="45.5519046" lon="11.1172224"><ele>709.0</ele><time>2026-03-24T08:52:16.63Z</time></trkpt><trkpt lat="45.5518695" lon="11.1174157"><ele>708.3333333333334</ele><time>2026-03-24T08:52:17.634Z</time></trkpt><trkpt lat="45.55186" lon="11.1176433"><ele>707.6666666666666</ele><time>2026-03-24T08:52:18.635Z</time></trkpt><trkpt lat="45.5518825" lon="11.1179116"><ele>707.0</ele><time>2026-03-24T08:52:19.634Z</time></trkpt><trkpt lat="45.5518814" lon="11.1181619"><ele>706.0</ele><time>2026-03-24T08:52:20.635Z</time></trkpt><trkpt lat="45.5518733" lon="11.1184132"><ele>705.0</ele><time>2026-03-24T08:52:21.637Z</time></trkpt><trkpt lat="45.551851" lon="11.118645"><ele>704.0</ele><time>2026-03-24T08:52:22.634Z</time></trkpt><trkpt lat="45.5518389" lon="11.1188447"><ele>704.0</ele><time>2026-03-24T08:52:23.634Z</time></trkpt><trkpt lat="45.5518182" lon="11.1190408"><ele>704.0</ele><time>2026-03-24T08:52:24.629Z</time></trkpt><trkpt lat="45.5517277" lon="11.1192103"><ele>704.0</ele><time>2026-03-24T08:52:25.636Z</time></trkpt><trkpt lat="45.551643" lon="11.1193558"><ele>704.0</ele><time>2026-03-24T08:52:26.635Z</time></trkpt><trkpt lat="45.5515688" lon="11.1195194"><ele>704.25</ele><time>2026-03-24T08:52:27.639Z</time></trkpt><trkpt lat="45.5514975" lon="11.1196922"><ele>704.5</ele><time>2026-03-24T08:52:28.64Z</time></trkpt><trkpt lat="45.5514244" lon="11.1198645"><ele>704.75</ele><time>2026-03-24T08:52:29.64Z</time></trkpt><trkpt lat="45.5513454" lon="11.120016"><ele>705.0</ele><time>2026-03-24T08:52:30.635Z</time></trkpt><trkpt lat="45.5512403" lon="11.1201561"><ele>702.5</ele><time>2026-03-24T08:52:31.644Z</time></trkpt><trkpt lat="45.5511211" lon="11.1202791"><ele>700.0</ele><time>2026-03-24T08:52:32.632Z</time></trkpt><trkpt lat="45.5509967" lon="11.1203712"><ele>697.5</ele><time>2026-03-24T08:52:33.634Z</time></trkpt><trkpt lat="45.5508468" lon="11.1204477"><ele>695.0</ele><time>2026-03-24T08:52:34.633Z</time></trkpt><trkpt lat="45.5506712" lon="11.1204938"><ele>695.0</ele><time>2026-03-24T08:52:35.634Z</time></trkpt><trkpt lat="45.5504989" lon="11.1205562"><ele>695.0</ele><time>2026-03-24T08:52:36.634Z</time></trkpt><trkpt lat="45.5503242" lon="11.1206273"><ele>695.0</ele><time>2026-03-24T08:52:37.635Z</time></trkpt><trkpt lat="45.5501339" lon="11.1206869"><ele>693.0</ele><time>2026-03-24T08:52:38.636Z</time></trkpt><trkpt lat="45.5499362" lon="11.1207572"><ele>691.0</ele><time>2026-03-24T08:52:39.631Z</time></trkpt><trkpt lat="45.5497501" lon="11.1208216"><ele>689.0</ele><time>2026-03-24T08:52:40.641Z</time></trkpt><trkpt lat="45.5495677" lon="11.1208848"><ele>687.0</ele><time>2026-03-24T08:52:41.636Z</time></trkpt><trkpt lat="45.5493736" lon="11.1209465"><ele>685.0</ele><time>2026-03-24T08:52:42.633Z</time></trkpt><trkpt lat="45.5491719" lon="11.1210232"><ele>683.0</ele><time>2026-03-24T08:52:43.638Z</time></trkpt><trkpt lat="45.5489831" lon="11.1210895"><ele>683.0</ele><time>2026-03-24T08:52:44.636Z</time></trkpt><trkpt lat="45.548785" lon="11.1211511"><ele>683.0</ele><time>2026-03-24T08:52:45.645Z</time></trkpt><trkpt lat="45.548611" lon="11.1212302"><ele>683.0</ele><time>2026-03-24T08:52:46.635Z</time></trkpt><trkpt lat="45.5484342" lon="11.1213008"><ele>682.3333333333333</ele><time>2026-03-24T08:52:47.637Z</time></trkpt><trkpt lat="45.5482672" lon="11.1213498"><ele>681.6666666666666</ele><time>2026-03-24T08:52:48.639Z</time></trkpt><trkpt lat="45.5481042" lon="11.1214116"><ele>681.0</ele><time>2026-03-24T08:52:49.643Z</time></trkpt><trkpt lat="45.5479449" lon="11.1214753"><ele>679.6666666666666</ele><time>2026-03-24T08:52:50.637Z</time></trkpt><trkpt lat="45.5477903" lon="11.1215467"><ele>678.3333333333333</ele><time>2026-03-24T08:52:51.645Z</time></trkpt><trkpt lat="45.5476411" lon="11.1216107"><ele>677.0</ele><time>2026-03-24T08:52:52.638Z</time></trkpt><trkpt lat="45.5474992" lon="11.1216793"><ele>676.6666666666666</ele><time>2026-03-24T08:52:53.643Z</time></trkpt><trkpt lat="45.5473401" lon="11.1217287"><ele>676.3333333333334</ele><time>2026-03-24T08:52:54.633Z</time></trkpt><trkpt lat="45.5471784" lon="11.1217883"><ele>676.0</ele><time>2026-03-24T08:52:55.639Z</time></trkpt><trkpt lat="45.5470063" lon="11.1218567"><ele>674.0</ele><time>2026-03-24T08:52:56.636Z</time></trkpt><trkpt lat="45.5468447" lon="11.1219181"><ele>672.0</ele><time>2026-03-24T08:52:57.638Z</time></trkpt><trkpt lat="45.5466721" lon="11.1219727"><ele>670.0</ele><time>2026-03-24T08:52:58.645Z</time></trkpt><trkpt lat="45.5464998" lon="11.1220304"><ele>670.0</ele><time>2026-03-24T08:52:59.643Z</time></trkpt><trkpt lat="45.5463314" lon="11.1220897"><ele>670.0</ele><time>2026-03-24T08:53:00.639Z</time></trkpt><trkpt lat="45.5461665" lon="11.1221516"><ele>670.0</ele><time>2026-03-24T08:53:01.645Z</time></trkpt><trkpt lat="45.5460153" lon="11.1221812"><ele>669.0</ele><time>2026-03-24T08:53:02.636Z</time></trkpt><trkpt lat="45.5458759" lon="11.1222381"><ele>668.0</ele><time>2026-03-24T08:53:03.635Z</time></trkpt><trkpt lat="45.5457646" lon="11.1223093"><ele>667.0</ele><time>2026-03-24T08:53:04.635Z</time></trkpt><trkpt lat="45.5456307" lon="11.1223873"><ele>666.0</ele><time>2026-03-24T08:53:05.628Z</time></trkpt><trkpt lat="45.5454998" lon="11.1224927"><ele>661.0</ele><time>2026-03-24T08:53:06.632Z</time></trkpt><trkpt lat="45.5453751" lon="11.1226727"><ele>656.0</ele><time>2026-03-24T08:53:07.632Z</time></trkpt><trkpt lat="45.5452458" lon="11.1228514"><ele>651.0</ele><time>2026-03-24T08:53:08.641Z</time></trkpt><trkpt lat="45.5451216" lon="11.1230011"><ele>651.0</ele><time>2026-03-24T08:53:09.636Z</time></trkpt><trkpt lat="45.5450208" lon="11.1231459"><ele>651.0</ele><time>2026-03-24T08:53:10.639Z</time></trkpt><trkpt lat="45.5449034" lon="11.1232919"><ele>651.0</ele><time>2026-03-24T08:53:11.642Z</time></trkpt><trkpt lat="45.5448055" lon="11.1233932"><ele>651.0</ele><time>2026-03-24T08:53:12.638Z</time></trkpt><trkpt lat="45.544727" lon="11.1235217"><ele>651.8</ele><time>2026-03-24T08:53:13.633Z</time></trkpt><trkpt lat="45.5446677" lon="11.1236722"><ele>652.5999999999999</ele><time>2026-03-24T08:53:14.641Z</time></trkpt><trkpt lat="45.5446158" lon="11.1238227"><ele>653.4</ele><time>2026-03-24T08:53:15.638Z</time></trkpt><trkpt lat="45.5445928" lon="11.1239471"><ele>654.2</ele><time>2026-03-24T08:53:16.628Z</time></trkpt><trkpt lat="45.5446196" lon="11.1240977"><ele>655.0</ele><time>2026-03-24T08:53:17.64Z</time></trkpt><trkpt lat="45.5446596" lon="11.1242529"><ele>655.0</ele><time>2026-03-24T08:53:18.636Z</time></trkpt><trkpt lat="45.5447242" lon="11.1244231"><ele>655.0</ele><time>2026-03-24T08:53:19.635Z</time></trkpt><trkpt lat="45.5447996" lon="11.1245957"><ele>655.0</ele><time>2026-03-24T08:53:20.635Z</time></trkpt><trkpt lat="45.5448902" lon="11.1247737"><ele>655.0</ele><time>2026-03-24T08:53:21.642Z</time></trkpt><trkpt lat="45.5449542" lon="11.1249385"><ele>654.0</ele><time>2026-03-24T08:53:22.635Z</time></trkpt><trkpt lat="45.5450097" lon="11.1250874"><ele>653.0</ele><time>2026-03-24T08:53:23.628Z</time></trkpt><trkpt lat="45.5450506" lon="11.1252487"><ele>652.0</ele><time>2026-03-24T08:53:24.645Z</time></trkpt><trkpt lat="45.5450871" lon="11.1253941"><ele>651.0</ele><time>2026-03-24T08:53:25.632Z</time></trkpt><trkpt lat="45.5450998" lon="11.1255508"><ele>651.0</ele><time>2026-03-24T08:53:26.632Z</time></trkpt><trkpt lat="45.5450878" lon="11.1257124"><ele>651.0</ele><time>2026-03-24T08:53:27.627Z</time></trkpt><trkpt lat="45.5450691" lon="11.1258694"><ele>651.0</ele><time>2026-03-24T08:53:28.637Z</time></trkpt><trkpt lat="45.5450345" lon="11.1260055"><ele>651.0</ele><time>2026-03-24T08:53:29.638Z</time></trkpt><trkpt lat="45.5449958" lon="11.1261457"><ele>651.0</ele><time>2026-03-24T08:53:30.66Z</time></trkpt><trkpt lat="45.5449437" lon="11.1262812"><ele>651.25</ele><time>2026-03-24T08:53:31.646Z</time></trkpt><trkpt lat="45.5448717" lon="11.1264101"><ele>651.5</ele><time>2026-03-24T08:53:32.639Z</time></trkpt><trkpt lat="45.544777" lon="11.1265216"><ele>651.75</ele><time>2026-03-24T08:53:33.634Z</time></trkpt><trkpt lat="45.5446789" lon="11.1266176"><ele>652.0</ele><time>2026-03-24T08:53:34.637Z</time></trkpt><trkpt lat="45.5445645" lon="11.1266788"><ele>650.5</ele><time>2026-03-24T08:53:35.631Z</time></trkpt><trkpt lat="45.5444329" lon="11.1267208"><ele>649.0</ele><time>2026-03-24T08:53:36.628Z</time></trkpt><trkpt lat="45.5442897" lon="11.1267648"><ele>647.5</ele><time>2026-03-24T08:53:37.632Z</time></trkpt><trkpt lat="45.5441381" lon="11.1268119"><ele>646.0</ele><time>2026-03-24T08:53:38.646Z</time></trkpt><trkpt lat="45.5439692" lon="11.1268556"><ele>646.0</ele><time>2026-03-24T08:53:39.648Z</time></trkpt><trkpt lat="45.5438247" lon="11.1269052"><ele>646.0</ele><time>2026-03-24T08:53:40.637Z</time></trkpt><trkpt lat="45.543686" lon="11.1269455"><ele>646.0</ele><time>2026-03-24T08:53:41.637Z</time></trkpt><trkpt lat="45.5435551" lon="11.1269961"><ele>646.0</ele><time>2026-03-24T08:53:42.638Z</time></trkpt><trkpt lat="45.5434248" lon="11.127023"><ele>643.8</ele><time>2026-03-24T08:53:43.637Z</time></trkpt><trkpt lat="45.5433229" lon="11.1270616"><ele>641.5999999999999</ele><time>2026-03-24T08:53:44.639Z</time></trkpt><trkpt lat="45.543226" lon="11.1270765"><ele>639.4</ele><time>2026-03-24T08:53:45.628Z</time></trkpt><trkpt lat="45.543126" lon="11.1271245"><ele>637.2</ele><time>2026-03-24T08:53:46.631Z</time></trkpt><trkpt lat="45.5430434" lon="11.1272027"><ele>635.0</ele><time>2026-03-24T08:53:47.63Z</time></trkpt><trkpt lat="45.5429764" lon="11.1273228"><ele>632.5</ele><time>2026-03-24T08:53:48.629Z</time></trkpt><trkpt lat="45.5429259" lon="11.1274812"><ele>630.0</ele><time>2026-03-24T08:53:49.639Z</time></trkpt><trkpt lat="45.5428862" lon="11.1276597"><ele>627.5</ele><time>2026-03-24T08:53:50.631Z</time></trkpt><trkpt lat="45.5428551" lon="11.1278598"><ele>625.0</ele><time>2026-03-24T08:53:51.638Z</time></trkpt><trkpt lat="45.5428267" lon="11.1280589"><ele>627.25</ele><time>2026-03-24T08:53:52.631Z</time></trkpt><trkpt lat="45.5427957" lon="11.128253"><ele>629.5</ele><time>2026-03-24T08:53:53.63Z</time></trkpt><trkpt lat="45.5427998" lon="11.1284787"><ele>631.75</ele><time>2026-03-24T08:53:54.645Z</time></trkpt><trkpt lat="45.5427433" lon="11.1286384"><ele>634.0</ele><time>2026-03-24T08:53:55.636Z</time></trkpt><trkpt lat="45.5426467" lon="11.1287567"><ele>634.0</ele><time>2026-03-24T08:53:56.632Z</time></trkpt><trkpt lat="45.5425715" lon="11.1288741"><ele>634.0</ele><time>2026-03-24T08:53:57.634Z</time></trkpt><trkpt lat="45.5424374" lon="11.1289271"><ele>634.0</ele><time>2026-03-24T08:53:58.633Z</time></trkpt><trkpt lat="45.5422756" lon="11.1289577"><ele>634.0</ele><time>2026-03-24T08:53:59.636Z</time></trkpt><trkpt lat="45.5421097" lon="11.1290057"><ele>635.6666666666667</ele><time>2026-03-24T08:54:00.636Z</time></trkpt><trkpt lat="45.541938" lon="11.1290363"><ele>637.3333333333334</ele><time>2026-03-24T08:54:01.636Z</time></trkpt><trkpt lat="45.5417528" lon="11.1290531"><ele>639.0</ele><time>2026-03-24T08:54:02.638Z</time></trkpt><trkpt lat="45.5415884" lon="11.1290722"><ele>639.0</ele><time>2026-03-24T08:54:03.631Z</time></trkpt><trkpt lat="45.541436" lon="11.1290921"><ele>639.0</ele><time>2026-03-24T08:54:04.625Z</time></trkpt><trkpt lat="45.5413021" lon="11.1291024"><ele>639.0</ele><time>2026-03-24T08:54:05.631Z</time></trkpt><trkpt lat="45.5411699" lon="11.1291029"><ele>639.0</ele><time>2026-03-24T08:54:06.63Z</time></trkpt><trkpt lat="45.5410468" lon="11.1290486"><ele>634.5</ele><time>2026-03-24T08:54:07.638Z</time></trkpt><trkpt lat="45.5409226" lon="11.1289873"><ele>630.0</ele><time>2026-03-24T08:54:08.633Z</time></trkpt><trkpt lat="45.5408035" lon="11.1288909"><ele>625.5</ele><time>2026-03-24T08:54:09.635Z</time></trkpt><trkpt lat="45.5406804" lon="11.1288152"><ele>621.0</ele><time>2026-03-24T08:54:10.63Z</time></trkpt><trkpt lat="45.5405517" lon="11.1287203"><ele>621.0</ele><time>2026-03-24T08:54:11.631Z</time></trkpt><trkpt lat="45.540427" lon="11.1286386"><ele>621.0</ele><time>2026-03-24T08:54:12.626Z</time></trkpt><trkpt lat="45.540309" lon="11.1286201"><ele>621.0</ele><time>2026-03-24T08:54:13.634Z</time></trkpt><trkpt lat="45.5401898" lon="11.1286167"><ele>621.0</ele><time>2026-03-24T08:54:14.629Z</time></trkpt><trkpt lat="45.5400781" lon="11.1286283"><ele>623.25</ele><time>2026-03-24T08:54:15.627Z</time></trkpt><trkpt lat="45.53997" lon="11.1286645"><ele>625.5</ele><time>2026-03-24T08:54:16.636Z</time></trkpt><trkpt lat="45.5398643" lon="11.1287298"><ele>627.75</ele><time>2026-03-24T08:54:17.638Z</time></trkpt><trkpt lat="45.5397579" lon="11.128822"><ele>630.0</ele><time>2026-03-24T08:54:18.635Z</time></trkpt><trkpt lat="45.5396519" lon="11.1289327"><ele>627.4</ele><time>2026-03-24T08:54:19.636Z</time></trkpt><trkpt lat="45.5395467" lon="11.1290493"><ele>624.8</ele><time>2026-03-24T08:54:20.636Z</time></trkpt><trkpt lat="45.5394711" lon="11.1291484"><ele>622.2</ele><time>2026-03-24T08:54:21.633Z</time></trkpt><trkpt lat="45.5394172" lon="11.129222"><ele>619.6</ele><time>2026-03-24T08:54:22.631Z</time></trkpt><trkpt lat="45.5393525" lon="11.1293209"><ele>617.0</ele><time>2026-03-24T08:54:24.637Z</time></trkpt><trkpt lat="45.5393531" lon="11.1294294"><ele>617.0</ele><time>2026-03-24T08:54:26.643Z</time></trkpt><trkpt lat="45.5393619" lon="11.1295501"><ele>617.0</ele><time>2026-03-24T08:54:28.634Z</time></trkpt><trkpt lat="45.5393449" lon="11.1297236"><ele>617.0</ele><time>2026-03-24T08:54:30.633Z</time></trkpt><trkpt lat="45.5393314" lon="11.1298314"><ele>617.0</ele><time>2026-03-24T08:54:31.634Z</time></trkpt><trkpt lat="45.5393281" lon="11.1299387"><ele>617.0</ele><time>2026-03-24T08:54:32.627Z</time></trkpt><trkpt lat="45.5393432" lon="11.1300481"><ele>617.0</ele><time>2026-03-24T08:54:33.633Z</time></trkpt><trkpt lat="45.5393755" lon="11.1301641"><ele>618.2</ele><time>2026-03-24T08:54:34.638Z</time></trkpt><trkpt lat="45.5394236" lon="11.1302801"><ele>619.4000000000001</ele><time>2026-03-24T08:54:35.625Z</time></trkpt><trkpt lat="45.5394868" lon="11.1303983"><ele>620.5999999999999</ele><time>2026-03-24T08:54:36.629Z</time></trkpt><trkpt lat="45.5395646" lon="11.1305214"><ele>621.8</ele><time>2026-03-24T08:54:37.631Z</time></trkpt><trkpt lat="45.5396367" lon="11.1306557"><ele>623.0</ele><time>2026-03-24T08:54:38.635Z</time></trkpt><trkpt lat="45.5397057" lon="11.1307877"><ele>625.8</ele><time>2026-03-24T08:54:39.633Z</time></trkpt><trkpt lat="45.5397723" lon="11.130915"><ele>628.5999999999999</ele><time>2026-03-24T08:54:40.637Z</time></trkpt><trkpt lat="45.5398408" lon="11.1310412"><ele>631.4000000000001</ele><time>2026-03-24T08:54:41.629Z</time></trkpt><trkpt lat="45.539906" lon="11.1311595"><ele>634.2</ele><time>2026-03-24T08:54:42.637Z</time></trkpt><trkpt lat="45.5399629" lon="11.1312839"><ele>637.0</ele><time>2026-03-24T08:54:43.636Z</time></trkpt><trkpt lat="45.5400163" lon="11.1314078"><ele>637.0</ele><time>2026-03-24T08:54:44.639Z</time></trkpt><trkpt lat="45.5400685" lon="11.1315352"><ele>637.0</ele><time>2026-03-24T08:54:45.635Z</time></trkpt><trkpt lat="45.5401115" lon="11.1316581"><ele>637.0</ele><time>2026-03-24T08:54:46.638Z</time></trkpt><trkpt lat="45.5401424" lon="11.1317712"><ele>637.0</ele><time>2026-03-24T08:54:47.642Z</time></trkpt><trkpt lat="45.5401622" lon="11.1318686"><ele>637.0</ele><time>2026-03-24T08:54:48.637Z</time></trkpt><trkpt lat="45.5401784" lon="11.1319672"><ele>637.0</ele><time>2026-03-24T08:54:49.639Z</time></trkpt><trkpt lat="45.540206" lon="11.1320776"><ele>638.0</ele><time>2026-03-24T08:54:50.641Z</time></trkpt><trkpt lat="45.5402373" lon="11.1322064"><ele>639.0</ele><time>2026-03-24T08:54:51.64Z</time></trkpt><trkpt lat="45.5402772" lon="11.1323385"><ele>640.0</ele><time>2026-03-24T08:54:52.635Z</time></trkpt><trkpt lat="45.5403217" lon="11.1324603"><ele>641.0</ele><time>2026-03-24T08:54:53.64Z</time></trkpt><trkpt lat="45.5403713" lon="11.1325627"><ele>642.0</ele><time>2026-03-24T08:54:54.643Z</time></trkpt><trkpt lat="45.5404345" lon="11.1326451"><ele>642.0</ele><time>2026-03-24T08:54:55.644Z</time></trkpt><trkpt lat="45.540502" lon="11.1327256"><ele>642.0</ele><time>2026-03-24T08:54:56.646Z</time></trkpt><trkpt lat="45.5405781" lon="11.1328081"><ele>642.0</ele><time>2026-03-24T08:54:57.632Z</time></trkpt><trkpt lat="45.5406616" lon="11.1328853"><ele>642.0</ele><time>2026-03-24T08:54:58.645Z</time></trkpt><trkpt lat="45.5407563" lon="11.1329606"><ele>642.0</ele><time>2026-03-24T08:54:59.639Z</time></trkpt><trkpt lat="45.5408489" lon="11.1330293"><ele>642.0</ele><time>2026-03-24T08:55:00.638Z</time></trkpt><trkpt lat="45.5409403" lon="11.1330918"><ele>642.0</ele><time>2026-03-24T08:55:01.647Z</time></trkpt><trkpt lat="45.5410311" lon="11.1331609"><ele>642.0</ele><time>2026-03-24T08:55:02.638Z</time></trkpt><trkpt lat="45.5411329" lon="11.1332301"><ele>642.0</ele><time>2026-03-24T08:55:03.629Z</time></trkpt><trkpt lat="45.5412362" lon="11.1333014"><ele>642.0</ele><time>2026-03-24T08:55:04.632Z</time></trkpt><trkpt lat="45.5413483" lon="11.1333631"><ele>640.75</ele><time>2026-03-24T08:55:05.631Z</time></trkpt><trkpt lat="45.5414623" lon="11.1334183"><ele>639.5</ele><time>2026-03-24T08:55:06.624Z</time></trkpt><trkpt lat="45.5415755" lon="11.1334641"><ele>638.25</ele><time>2026-03-24T08:55:07.628Z</time></trkpt><trkpt lat="45.5416972" lon="11.1335162"><ele>637.0</ele><time>2026-03-24T08:55:08.629Z</time></trkpt><trkpt lat="45.541814" lon="11.133571"><ele>637.0</ele><time>2026-03-24T08:55:09.635Z</time></trkpt><trkpt lat="45.5419235" lon="11.1336248"><ele>637.0</ele><time>2026-03-24T08:55:10.637Z</time></trkpt><trkpt lat="45.5420261" lon="11.1336826"><ele>637.0</ele><time>2026-03-24T08:55:11.643Z</time></trkpt><trkpt lat="45.5421216" lon="11.1337528"><ele>637.0</ele><time>2026-03-24T08:55:12.643Z</time></trkpt><trkpt lat="45.5422111" lon="11.1338135"><ele>637.0</ele><time>2026-03-24T08:55:13.644Z</time></trkpt><trkpt lat="45.5423006" lon="11.133861"><ele>638.2</ele><time>2026-03-24T08:55:14.643Z</time></trkpt><trkpt lat="45.542385" lon="11.133903"><ele>639.4000000000001</ele><time>2026-03-24T08:55:15.645Z</time></trkpt><trkpt lat="45.542472" lon="11.1339403"><ele>640.5999999999999</ele><time>2026-03-24T08:55:16.641Z</time></trkpt><trkpt lat="45.5425595" lon="11.1339603"><ele>641.8</ele><time>2026-03-24T08:55:17.641Z</time></trkpt><trkpt lat="45.542651" lon="11.1339777"><ele>643.0</ele><time>2026-03-24T08:55:18.644Z</time></trkpt><trkpt lat="45.5427471" lon="11.1339967"><ele>643.0</ele><time>2026-03-24T08:55:19.644Z</time></trkpt><trkpt lat="45.5428512" lon="11.1340246"><ele>643.0</ele><time>2026-03-24T08:55:20.64Z</time></trkpt><trkpt lat="45.5429532" lon="11.1340656"><ele>643.0</ele><time>2026-03-24T08:55:21.636Z</time></trkpt><trkpt lat="45.5430566" lon="11.1341174"><ele>643.0</ele><time>2026-03-24T08:55:22.639Z</time></trkpt><trkpt lat="45.5431526" lon="11.134169"><ele>643.0</ele><time>2026-03-24T08:55:23.637Z</time></trkpt><trkpt lat="45.5432398" lon="11.134228"><ele>640.4</ele><time>2026-03-24T08:55:24.637Z</time></trkpt><trkpt lat="45.543317" lon="11.1342858"><ele>637.8</ele><time>2026-03-24T08:55:25.643Z</time></trkpt><trkpt lat="45.5434" lon="11.1343288"><ele>635.2</ele><time>2026-03-24T08:55:26.635Z</time></trkpt><trkpt lat="45.5434946" lon="11.1343426"><ele>632.6</ele><time>2026-03-24T08:55:27.637Z</time></trkpt><trkpt lat="45.543598" lon="11.1343233"><ele>630.0</ele><time>2026-03-24T08:55:28.642Z</time></trkpt><trkpt lat="45.5436884" lon="11.1343133"><ele>631.1666666666666</ele><time>2026-03-24T08:55:29.636Z</time></trkpt><trkpt lat="45.5437823" lon="11.1343062"><ele>632.3333333333334</ele><time>2026-03-24T08:55:30.63Z</time></trkpt><trkpt lat="45.5438661" lon="11.1343198"><ele>633.5</ele><time>2026-03-24T08:55:31.637Z</time></trkpt><trkpt lat="45.5439396" lon="11.1343651"><ele>634.6666666666667</ele><time>2026-03-24T08:55:32.628Z</time></trkpt><trkpt lat="45.5439974" lon="11.134453"><ele>635.8333333333334</ele><time>2026-03-24T08:55:33.628Z</time></trkpt><trkpt lat="45.5440548" lon="11.1345492"><ele>637.0</ele><time>2026-03-24T08:55:34.625Z</time></trkpt><trkpt lat="45.544109" lon="11.1346699"><ele>637.0</ele><time>2026-03-24T08:55:35.63Z</time></trkpt><trkpt lat="45.5441582" lon="11.1347915"><ele>637.0</ele><time>2026-03-24T08:55:36.634Z</time></trkpt><trkpt lat="45.544193" lon="11.134917"><ele>637.0</ele><time>2026-03-24T08:55:37.634Z</time></trkpt><trkpt lat="45.5442092" lon="11.1350589"><ele>637.0</ele><time>2026-03-24T08:55:38.637Z</time></trkpt><trkpt lat="45.544196" lon="11.1352107"><ele>637.0</ele><time>2026-03-24T08:55:39.662Z</time></trkpt><trkpt lat="45.5441533" lon="11.1353634"><ele>634.75</ele><time>2026-03-24T08:55:40.636Z</time></trkpt><trkpt lat="45.5440212" lon="11.1356529"><ele>632.5</ele><time>2026-03-24T08:55:42.634Z</time></trkpt><trkpt lat="45.5439682" lon="11.1357704"><ele>630.25</ele><time>2026-03-24T08:55:43.641Z</time></trkpt><trkpt lat="45.5439262" lon="11.1358835"><ele>628.0</ele><time>2026-03-24T08:55:44.641Z</time></trkpt><trkpt lat="45.543891" lon="11.1359919"><ele>627.4285714285713</ele><time>2026-03-24T08:55:45.634Z</time></trkpt><trkpt lat="45.5438721" lon="11.136095"><ele>626.8571428571429</ele><time>2026-03-24T08:55:46.642Z</time></trkpt><trkpt lat="45.5438499" lon="11.1361826"><ele>626.2857142857142</ele><time>2026-03-24T08:55:47.64Z</time></trkpt><trkpt lat="45.543842" lon="11.1362721"><ele>625.7142857142857</ele><time>2026-03-24T08:55:48.638Z</time></trkpt><trkpt lat="45.5438506" lon="11.1363627"><ele>625.1428571428571</ele><time>2026-03-24T08:55:49.631Z</time></trkpt><trkpt lat="45.5438668" lon="11.1364588"><ele>624.5714285714286</ele><time>2026-03-24T08:55:50.641Z</time></trkpt><trkpt lat="45.5438816" lon="11.1365546"><ele>624.0</ele><time>2026-03-24T08:55:51.637Z</time></trkpt><trkpt lat="45.5439138" lon="11.1367249"><ele>623.3333333333334</ele><time>2026-03-24T08:55:53.641Z</time></trkpt><trkpt lat="45.5439746" lon="11.1368643"><ele>622.6666666666666</ele><time>2026-03-24T08:55:55.645Z</time></trkpt><trkpt lat="45.5440175" lon="11.1369418"><ele>622.0</ele><time>2026-03-24T08:55:56.647Z</time></trkpt><trkpt lat="45.5440706" lon="11.1370314"><ele>621.3333333333333</ele><time>2026-03-24T08:55:57.639Z</time></trkpt><trkpt lat="45.5441268" lon="11.1371187"><ele>620.6666666666666</ele><time>2026-03-24T08:55:58.646Z</time></trkpt><trkpt lat="45.5441775" lon="11.1371905"><ele>620.0</ele><time>2026-03-24T08:55:59.644Z</time></trkpt><trkpt lat="45.5442182" lon="11.1372715"><ele>620.0</ele><time>2026-03-24T08:56:00.636Z</time></trkpt><trkpt lat="45.544253" lon="11.137357"><ele>620.0</ele><time>2026-03-24T08:56:01.651Z</time></trkpt><trkpt lat="45.5442782" lon="11.1374463"><ele>620.0</ele><time>2026-03-24T08:56:02.636Z</time></trkpt><trkpt lat="45.5442934" lon="11.1375636"><ele>620.0</ele><time>2026-03-24T08:56:03.638Z</time></trkpt><trkpt lat="45.5442899" lon="11.1376916"><ele>620.0</ele><time>2026-03-24T08:56:04.648Z</time></trkpt><trkpt lat="45.5442787" lon="11.1378322"><ele>620.0</ele><time>2026-03-24T08:56:05.638Z</time></trkpt><trkpt lat="45.5442648" lon="11.1379873"><ele>617.8</ele><time>2026-03-24T08:56:06.651Z</time></trkpt><trkpt lat="45.5442634" lon="11.1381391"><ele>615.6</ele><time>2026-03-24T08:56:07.636Z</time></trkpt><trkpt lat="45.5442769" lon="11.1382848"><ele>613.4</ele><time>2026-03-24T08:56:08.635Z</time></trkpt><trkpt lat="45.5442889" lon="11.1384147"><ele>611.2</ele><time>2026-03-24T08:56:09.639Z</time></trkpt><trkpt lat="45.5443067" lon="11.1385263"><ele>609.0</ele><time>2026-03-24T08:56:10.641Z</time></trkpt><trkpt lat="45.5443231" lon="11.1386272"><ele>607.6666666666666</ele><time>2026-03-24T08:56:11.642Z</time></trkpt><trkpt lat="45.5443309" lon="11.1387321"><ele>606.3333333333334</ele><time>2026-03-24T08:56:12.642Z</time></trkpt><trkpt lat="45.5443413" lon="11.138844"><ele>605.0</ele><time>2026-03-24T08:56:13.647Z</time></trkpt><trkpt lat="45.5443382" lon="11.13898"><ele>603.6666666666667</ele><time>2026-03-24T08:56:14.636Z</time></trkpt><trkpt lat="45.5443256" lon="11.1391142"><ele>602.3333333333334</ele><time>2026-03-24T08:56:15.644Z</time></trkpt><trkpt lat="45.5443013" lon="11.1392521"><ele>601.0</ele><time>2026-03-24T08:56:16.651Z</time></trkpt><trkpt lat="45.5442623" lon="11.1393975"><ele>601.0</ele><time>2026-03-24T08:56:17.648Z</time></trkpt><trkpt lat="45.5442077" lon="11.1395357"><ele>601.0</ele><time>2026-03-24T08:56:18.654Z</time></trkpt><trkpt lat="45.5441462" lon="11.1396679"><ele>601.0</ele><time>2026-03-24T08:56:19.653Z</time></trkpt><trkpt lat="45.5440765" lon="11.1397746"><ele>601.0</ele><time>2026-03-24T08:56:20.64Z</time></trkpt><trkpt lat="45.5440053" lon="11.1398541"><ele>601.0</ele><time>2026-03-24T08:56:21.644Z</time></trkpt><trkpt lat="45.543923" lon="11.1399152"><ele>601.5</ele><time>2026-03-24T08:56:22.649Z</time></trkpt><trkpt lat="45.5438261" lon="11.1399741"><ele>602.0</ele><time>2026-03-24T08:56:23.65Z</time></trkpt><trkpt lat="45.5437151" lon="11.1400272"><ele>602.5</ele><time>2026-03-24T08:56:24.645Z</time></trkpt><trkpt lat="45.5435917" lon="11.1400731"><ele>603.0</ele><time>2026-03-24T08:56:25.645Z</time></trkpt><trkpt lat="45.5434611" lon="11.1401196"><ele>603.0</ele><time>2026-03-24T08:56:26.64Z</time></trkpt><trkpt lat="45.5433317" lon="11.1401657"><ele>603.0</ele><time>2026-03-24T08:56:27.64Z</time></trkpt><trkpt lat="45.5432042" lon="11.1402025"><ele>603.0</ele><time>2026-03-24T08:56:28.644Z</time></trkpt><trkpt lat="45.543079" lon="11.1402332"><ele>603.0</ele><time>2026-03-24T08:56:29.645Z</time></trkpt><trkpt lat="45.5429565" lon="11.1402574"><ele>602.5</ele><time>2026-03-24T08:56:30.638Z</time></trkpt><trkpt lat="45.542832" lon="11.1402635"><ele>602.0</ele><time>2026-03-24T08:56:31.654Z</time></trkpt><trkpt lat="45.5427126" lon="11.1402578"><ele>601.5</ele><time>2026-03-24T08:56:32.643Z</time></trkpt><trkpt lat="45.542602" lon="11.1402516"><ele>601.0</ele><time>2026-03-24T08:56:33.641Z</time></trkpt><trkpt lat="45.5424951" lon="11.1402474"><ele>601.0</ele><time>2026-03-24T08:56:34.655Z</time></trkpt><trkpt lat="45.5423994" lon="11.1402447"><ele>601.0</ele><time>2026-03-24T08:56:35.643Z</time></trkpt><trkpt lat="45.5423212" lon="11.1402333"><ele>601.0</ele><time>2026-03-24T08:56:36.641Z</time></trkpt><trkpt lat="45.5422489" lon="11.1402187"><ele>601.0</ele><time>2026-03-24T08:56:37.65Z</time></trkpt><trkpt lat="45.5421843" lon="11.1402091"><ele>601.0</ele><time>2026-03-24T08:56:38.633Z</time></trkpt><trkpt lat="45.5421121" lon="11.1402317"><ele>601.0</ele><time>2026-03-24T08:56:39.633Z</time></trkpt><trkpt lat="45.5420331" lon="11.1402819"><ele>598.8</ele><time>2026-03-24T08:56:40.639Z</time></trkpt><trkpt lat="45.5419584" lon="11.1403855"><ele>596.6</ele><time>2026-03-24T08:56:41.642Z</time></trkpt><trkpt lat="45.5418791" lon="11.1404675"><ele>594.4</ele><time>2026-03-24T08:56:42.667Z</time></trkpt><trkpt lat="45.5418003" lon="11.1405454"><ele>592.2</ele><time>2026-03-24T08:56:43.646Z</time></trkpt><trkpt lat="45.5417132" lon="11.1406086"><ele>590.0</ele><time>2026-03-24T08:56:44.662Z</time></trkpt><trkpt lat="45.5416217" lon="11.1406603"><ele>590.0</ele><time>2026-03-24T08:56:45.641Z</time></trkpt><trkpt lat="45.5415241" lon="11.1407038"><ele>590.0</ele><time>2026-03-24T08:56:46.646Z</time></trkpt><trkpt lat="45.5414195" lon="11.1407394"><ele>590.0</ele><time>2026-03-24T08:56:47.645Z</time></trkpt><trkpt lat="45.5413081" lon="11.1407679"><ele>590.0</ele><time>2026-03-24T08:56:48.645Z</time></trkpt><trkpt lat="45.541203" lon="11.1407922"><ele>590.0</ele><time>2026-03-24T08:56:49.641Z</time></trkpt><trkpt lat="45.5411022" lon="11.1408208"><ele>589.1666666666666</ele><time>2026-03-24T08:56:50.644Z</time></trkpt><trkpt lat="45.5410121" lon="11.1408586"><ele>588.3333333333333</ele><time>2026-03-24T08:56:51.657Z</time></trkpt><trkpt lat="45.5409275" lon="11.1409061"><ele>587.5</ele><time>2026-03-24T08:56:52.646Z</time></trkpt><trkpt lat="45.5408511" lon="11.1409547"><ele>586.6666666666666</ele><time>2026-03-24T08:56:53.654Z</time></trkpt><trkpt lat="45.5407806" lon="11.1410047"><ele>585.8333333333334</ele><time>2026-03-24T08:56:54.649Z</time></trkpt><trkpt lat="45.5407254" lon="11.1410572"><ele>585.0</ele><time>2026-03-24T08:56:55.639Z</time></trkpt><trkpt lat="45.540679" lon="11.1411324"><ele>585.0</ele><time>2026-03-24T08:56:56.636Z</time></trkpt><trkpt lat="45.54065" lon="11.1412216"><ele>585.0</ele><time>2026-03-24T08:56:57.638Z</time></trkpt><trkpt lat="45.540643" lon="11.1413128"><ele>585.0</ele><time>2026-03-24T08:56:58.64Z</time></trkpt><trkpt lat="45.5406676" lon="11.1414156"><ele>585.0</ele><time>2026-03-24T08:56:59.636Z</time></trkpt><trkpt lat="45.5407169" lon="11.1415203"><ele>585.0</ele><time>2026-03-24T08:57:00.643Z</time></trkpt><trkpt lat="45.5407784" lon="11.1416269"><ele>585.0</ele><time>2026-03-24T08:57:01.645Z</time></trkpt><trkpt lat="45.5408392" lon="11.1417329"><ele>584.4</ele><time>2026-03-24T08:57:02.645Z</time></trkpt><trkpt lat="45.5408983" lon="11.1418294"><ele>583.8</ele><time>2026-03-24T08:57:03.644Z</time></trkpt><trkpt lat="45.540967" lon="11.141907"><ele>583.2</ele><time>2026-03-24T08:57:04.635Z</time></trkpt><trkpt lat="45.5410431" lon="11.1419816"><ele>582.6</ele><time>2026-03-24T08:57:05.637Z</time></trkpt><trkpt lat="45.5411252" lon="11.1420525"><ele>582.0</ele><time>2026-03-24T08:57:06.641Z</time></trkpt><trkpt lat="45.5412174" lon="11.1421344"><ele>583.0</ele><time>2026-03-24T08:57:07.643Z</time></trkpt><trkpt lat="45.5413077" lon="11.1422201"><ele>584.0</ele><time>2026-03-24T08:57:08.628Z</time></trkpt><trkpt lat="45.5413911" lon="11.1423003"><ele>585.0</ele><time>2026-03-24T08:57:09.634Z</time></trkpt><trkpt lat="45.5414555" lon="11.1423767"><ele>586.0</ele><time>2026-03-24T08:57:10.64Z</time></trkpt><trkpt lat="45.5415035" lon="11.1424581"><ele>587.0</ele><time>2026-03-24T08:57:11.633Z</time></trkpt><trkpt lat="45.5415356" lon="11.1425481"><ele>588.0</ele><time>2026-03-24T08:57:12.63Z</time></trkpt><trkpt lat="45.5415231" lon="11.1427183"><ele>588.0</ele><time>2026-03-24T08:57:14.642Z</time></trkpt><trkpt lat="45.5414845" lon="11.1428167"><ele>588.0</ele><time>2026-03-24T08:57:15.638Z</time></trkpt><trkpt lat="45.5414362" lon="11.1429145"><ele>588.0</ele><time>2026-03-24T08:57:16.633Z</time></trkpt><trkpt lat="45.5413936" lon="11.1430332"><ele>588.0</ele><time>2026-03-24T08:57:17.636Z</time></trkpt><trkpt lat="45.5413488" lon="11.1431602"><ele>588.0</ele><time>2026-03-24T08:57:18.638Z</time></trkpt><trkpt lat="45.5413086" lon="11.1432832"><ele>588.0</ele><time>2026-03-24T08:57:19.656Z</time></trkpt><trkpt lat="45.5412758" lon="11.1434085"><ele>588.0</ele><time>2026-03-24T08:57:20.634Z</time></trkpt><trkpt lat="45.5412317" lon="11.1435275"><ele>588.0</ele><time>2026-03-24T08:57:21.643Z</time></trkpt><trkpt lat="45.5411618" lon="11.1436377"><ele>588.0</ele><time>2026-03-24T08:57:22.637Z</time></trkpt><trkpt lat="45.5410715" lon="11.1437367"><ele>588.0</ele><time>2026-03-24T08:57:23.647Z</time></trkpt><trkpt lat="45.5409718" lon="11.1438443"><ele>582.0</ele><time>2026-03-24T08:57:24.648Z</time></trkpt><trkpt lat="45.5408705" lon="11.1439422"><ele>576.0</ele><time>2026-03-24T08:57:25.669Z</time></trkpt><trkpt lat="45.5407615" lon="11.1440397"><ele>570.0</ele><time>2026-03-24T08:57:26.643Z</time></trkpt><trkpt lat="45.5406518" lon="11.1441214"><ele>564.0</ele><time>2026-03-24T08:57:27.646Z</time></trkpt><trkpt lat="45.5405365" lon="11.1441926"><ele>563.5</ele><time>2026-03-24T08:57:28.65Z</time></trkpt><trkpt lat="45.5404199" lon="11.1442701"><ele>563.0</ele><time>2026-03-24T08:57:29.644Z</time></trkpt><trkpt lat="45.5403036" lon="11.1443349"><ele>562.5</ele><time>2026-03-24T08:57:30.649Z</time></trkpt><trkpt lat="45.5401841" lon="11.1443932"><ele>562.0</ele><time>2026-03-24T08:57:31.648Z</time></trkpt><trkpt lat="45.5400607" lon="11.1444501"><ele>558.75</ele><time>2026-03-24T08:57:32.639Z</time></trkpt><trkpt lat="45.5399388" lon="11.1445061"><ele>555.5</ele><time>2026-03-24T08:57:33.652Z</time></trkpt><trkpt lat="45.5398239" lon="11.1445642"><ele>552.25</ele><time>2026-03-24T08:57:34.649Z</time></trkpt><trkpt lat="45.5397105" lon="11.1446299"><ele>549.0</ele><time>2026-03-24T08:57:35.646Z</time></trkpt><trkpt lat="45.5395989" lon="11.1446965"><ele>547.0</ele><time>2026-03-24T08:57:36.643Z</time></trkpt><trkpt lat="45.5394853" lon="11.1447549"><ele>545.0</ele><time>2026-03-24T08:57:37.644Z</time></trkpt><trkpt lat="45.5393722" lon="11.1448176"><ele>543.0</ele><time>2026-03-24T08:57:38.647Z</time></trkpt><trkpt lat="45.5392625" lon="11.1448768"><ele>541.0</ele><time>2026-03-24T08:57:39.644Z</time></trkpt><trkpt lat="45.5391588" lon="11.144935"><ele>541.0</ele><time>2026-03-24T08:57:40.647Z</time></trkpt><trkpt lat="45.5390586" lon="11.1449971"><ele>541.0</ele><time>2026-03-24T08:57:41.648Z</time></trkpt><trkpt lat="45.5389597" lon="11.1450628"><ele>541.0</ele><time>2026-03-24T08:57:42.646Z</time></trkpt><trkpt lat="45.5388645" lon="11.1451453"><ele>541.0</ele><time>2026-03-24T08:57:43.639Z</time></trkpt><trkpt lat="45.5387796" lon="11.1452365"><ele>541.0</ele><time>2026-03-24T08:57:44.643Z</time></trkpt><trkpt lat="45.5386969" lon="11.1453344"><ele>538.4</ele><time>2026-03-24T08:57:45.642Z</time></trkpt><trkpt lat="45.5386172" lon="11.1454335"><ele>535.8</ele><time>2026-03-24T08:57:46.641Z</time></trkpt><trkpt lat="45.5385349" lon="11.1455403"><ele>533.1999999999999</ele><time>2026-03-24T08:57:47.644Z</time></trkpt><trkpt lat="45.5384549" lon="11.1456563"><ele>530.6</ele><time>2026-03-24T08:57:48.649Z</time></trkpt><trkpt lat="45.5383744" lon="11.1457703"><ele>528.0</ele><time>2026-03-24T08:57:49.646Z</time></trkpt><trkpt lat="45.5383062" lon="11.1458761"><ele>528.0</ele><time>2026-03-24T08:57:50.648Z</time></trkpt><trkpt lat="45.5382514" lon="11.1459674"><ele>528.0</ele><time>2026-03-24T08:57:51.65Z</time></trkpt><trkpt lat="45.5382092" lon="11.146053"><ele>528.0</ele><time>2026-03-24T08:57:52.657Z</time></trkpt><trkpt lat="45.5381903" lon="11.146139"><ele>528.0</ele><time>2026-03-24T08:57:53.64Z</time></trkpt><trkpt lat="45.5382148" lon="11.1462931"><ele>528.0</ele><time>2026-03-24T08:57:55.637Z</time></trkpt><trkpt lat="45.5383213" lon="11.1463731"><ele>528.0</ele><time>2026-03-24T08:57:57.634Z</time></trkpt><trkpt lat="45.5383918" lon="11.1463829"><ele>528.0</ele><time>2026-03-24T08:57:58.648Z</time></trkpt><trkpt lat="45.5384745" lon="11.146376"><ele>528.0</ele><time>2026-03-24T08:57:59.648Z</time></trkpt><trkpt lat="45.5385631" lon="11.1463724"><ele>528.0</ele><time>2026-03-24T08:58:00.638Z</time></trkpt><trkpt lat="45.5386493" lon="11.1463566"><ele>528.0</ele><time>2026-03-24T08:58:01.642Z</time></trkpt><trkpt lat="45.5387351" lon="11.1463396"><ele>528.0</ele><time>2026-03-24T08:58:02.649Z</time></trkpt><trkpt lat="45.5388234" lon="11.1463234"><ele>528.3333333333334</ele><time>2026-03-24T08:58:03.638Z</time></trkpt><trkpt lat="45.5389125" lon="11.1463047"><ele>528.6666666666666</ele><time>2026-03-24T08:58:04.64Z</time></trkpt><trkpt lat="45.5389961" lon="11.1462836"><ele>529.0</ele><time>2026-03-24T08:58:05.632Z</time></trkpt><trkpt lat="45.539085" lon="11.1462632"><ele>529.3333333333333</ele><time>2026-03-24T08:58:06.633Z</time></trkpt><trkpt lat="45.5391613" lon="11.1462463"><ele>529.6666666666666</ele><time>2026-03-24T08:58:07.633Z</time></trkpt><trkpt lat="45.5392357" lon="11.1462184"><ele>530.0</ele><time>2026-03-24T08:58:08.636Z</time></trkpt><trkpt lat="45.539319" lon="11.1462253"><ele>530.0</ele><time>2026-03-24T08:58:10.635Z</time></trkpt><trkpt lat="45.5392825" lon="11.1463655"><ele>530.0</ele><time>2026-03-24T08:58:12.633Z</time></trkpt><trkpt lat="45.53924" lon="11.1464534"><ele>530.0</ele><time>2026-03-24T08:58:13.633Z</time></trkpt><trkpt lat="45.5391629" lon="11.1465362"><ele>530.0</ele><time>2026-03-24T08:58:14.635Z</time></trkpt><trkpt lat="45.5390682" lon="11.1466158"><ele>530.0</ele><time>2026-03-24T08:58:15.635Z</time></trkpt><trkpt lat="45.5389791" lon="11.146695"><ele>527.2</ele><time>2026-03-24T08:58:16.636Z</time></trkpt><trkpt lat="45.538886" lon="11.1467694"><ele>524.4</ele><time>2026-03-24T08:58:17.638Z</time></trkpt><trkpt lat="45.5387911" lon="11.1468437"><ele>521.6</ele><time>2026-03-24T08:58:18.646Z</time></trkpt><trkpt lat="45.5386971" lon="11.1469237"><ele>518.8</ele><time>2026-03-24T08:58:19.639Z</time></trkpt><trkpt lat="45.5386079" lon="11.1470092"><ele>516.0</ele><time>2026-03-24T08:58:20.641Z</time></trkpt><trkpt lat="45.538522" lon="11.1470957"><ele>516.0</ele><time>2026-03-24T08:58:21.642Z</time></trkpt><trkpt lat="45.5384312" lon="11.1471842"><ele>516.0</ele><time>2026-03-24T08:58:22.634Z</time></trkpt><trkpt lat="45.5383413" lon="11.1472753"><ele>516.0</ele><time>2026-03-24T08:58:23.636Z</time></trkpt><trkpt lat="45.5382459" lon="11.1473676"><ele>516.0</ele><time>2026-03-24T08:58:24.64Z</time></trkpt><trkpt lat="45.5381506" lon="11.1474533"><ele>516.0</ele><time>2026-03-24T08:58:25.647Z</time></trkpt><trkpt lat="45.5380642" lon="11.1475295"><ele>513.0</ele><time>2026-03-24T08:58:26.637Z</time></trkpt><trkpt lat="45.5379963" lon="11.1475869"><ele>510.0</ele><time>2026-03-24T08:58:27.633Z</time></trkpt><trkpt lat="45.537933" lon="11.1476207"><ele>507.0</ele><time>2026-03-24T08:58:28.625Z</time></trkpt><trkpt lat="45.5378396" lon="11.1476911"><ele>504.0</ele><time>2026-03-24T08:58:30.629Z</time></trkpt><trkpt lat="45.5379005" lon="11.1477775"><ele>501.0</ele><time>2026-03-24T08:58:33.626Z</time></trkpt><trkpt lat="45.5379642" lon="11.1477509"><ele>498.0</ele><time>2026-03-24T08:58:34.629Z</time></trkpt><trkpt lat="45.5380377" lon="11.1477177"><ele>498.0</ele><time>2026-03-24T08:58:35.625Z</time></trkpt><trkpt lat="45.5381206" lon="11.1476929"><ele>497.99999999999994</ele><time>2026-03-24T08:58:36.627Z</time></trkpt><trkpt lat="45.5382137" lon="11.1476643"><ele>497.99999999999994</ele><time>2026-03-24T08:58:37.624Z</time></trkpt><trkpt lat="45.5383152" lon="11.1476564"><ele>498.0</ele><time>2026-03-24T08:58:38.639Z</time></trkpt><trkpt lat="45.5384267" lon="11.1476694"><ele>498.0</ele><time>2026-03-24T08:58:39.634Z</time></trkpt><trkpt lat="45.538535" lon="11.1476904"><ele>498.0</ele><time>2026-03-24T08:58:40.635Z</time></trkpt><trkpt lat="45.5386392" lon="11.1477216"><ele>497.99999999999994</ele><time>2026-03-24T08:58:41.633Z</time></trkpt><trkpt lat="45.5387282" lon="11.1477489"><ele>497.99999999999994</ele><time>2026-03-24T08:58:42.637Z</time></trkpt><trkpt lat="45.5388015" lon="11.1477703"><ele>498.0</ele><time>2026-03-24T08:58:43.638Z</time></trkpt><trkpt lat="45.538867" lon="11.1477885"><ele>498.0</ele><time>2026-03-24T08:58:44.633Z</time></trkpt><trkpt lat="45.5389952" lon="11.1477832"><ele>498.2</ele><time>2026-03-24T08:58:46.627Z</time></trkpt><trkpt lat="45.539136" lon="11.1477488"><ele>498.4</ele><time>2026-03-24T08:58:48.628Z</time></trkpt><trkpt lat="45.5392031" lon="11.1477593"><ele>498.59999999999997</ele><time>2026-03-24T08:58:49.628Z</time></trkpt><trkpt lat="45.5392664" lon="11.1477947"><ele>498.79999999999995</ele><time>2026-03-24T08:58:50.625Z</time></trkpt><trkpt lat="45.5393188" lon="11.1479508"><ele>499.0</ele><time>2026-03-24T08:58:52.625Z</time></trkpt><trkpt lat="45.5393011" lon="11.14806"><ele>499.00000000000006</ele><time>2026-03-24T08:58:53.629Z</time></trkpt><trkpt lat="45.5392816" lon="11.1481717"><ele>499.0</ele><time>2026-03-24T08:58:54.643Z</time></trkpt><trkpt lat="45.5392797" lon="11.1482842"><ele>499.0</ele><time>2026-03-24T08:58:55.636Z</time></trkpt><trkpt lat="45.5392814" lon="11.1484016"><ele>499.0</ele><time>2026-03-24T08:58:56.636Z</time></trkpt><trkpt lat="45.539284" lon="11.148533"><ele>499.00000000000006</ele><time>2026-03-24T08:58:57.644Z</time></trkpt><trkpt lat="45.5392864" lon="11.1486705"><ele>499.0</ele><time>2026-03-24T08:58:58.636Z</time></trkpt><trkpt lat="45.5393043" lon="11.1488168"><ele>496.0</ele><time>2026-03-24T08:58:59.633Z</time></trkpt><trkpt lat="45.5393332" lon="11.1489568"><ele>493.0</ele><time>2026-03-24T08:59:00.634Z</time></trkpt><trkpt lat="45.5393826" lon="11.1490829"><ele>490.0</ele><time>2026-03-24T08:59:01.635Z</time></trkpt><trkpt lat="45.5394466" lon="11.1492015"><ele>487.0</ele><time>2026-03-24T08:59:02.632Z</time></trkpt><trkpt lat="45.5395157" lon="11.1493233"><ele>484.0</ele><time>2026-03-24T08:59:03.64Z</time></trkpt><trkpt lat="45.5395682" lon="11.1494327"><ele>480.4</ele><time>2026-03-24T08:59:04.632Z</time></trkpt><trkpt lat="45.5396049" lon="11.1495408"><ele>476.79999999999995</ele><time>2026-03-24T08:59:05.626Z</time></trkpt><trkpt lat="45.5396375" lon="11.1496638"><ele>473.20000000000005</ele><time>2026-03-24T08:59:06.627Z</time></trkpt><trkpt lat="45.5396584" lon="11.1497979"><ele>469.6</ele><time>2026-03-24T08:59:07.634Z</time></trkpt><trkpt lat="45.5396687" lon="11.1499305"><ele>466.0</ele><time>2026-03-24T08:59:08.637Z</time></trkpt><trkpt lat="45.5396651" lon="11.1500577"><ele>464.33333333333337</ele><time>2026-03-24T08:59:09.637Z</time></trkpt><trkpt lat="45.539636" lon="11.1501763"><ele>462.6666666666667</ele><time>2026-03-24T08:59:10.638Z</time></trkpt><trkpt lat="45.5395845" lon="11.1502857"><ele>461.0</ele><time>2026-03-24T08:59:11.635Z</time></trkpt><trkpt lat="45.5395235" lon="11.1503606"><ele>459.33333333333337</ele><time>2026-03-24T08:59:12.633Z</time></trkpt><trkpt lat="45.5394611" lon="11.1503822"><ele>457.6666666666667</ele><time>2026-03-24T08:59:13.624Z</time></trkpt><trkpt lat="45.539398" lon="11.1503615"><ele>456.0</ele><time>2026-03-24T08:59:14.627Z</time></trkpt><trkpt lat="45.5393451" lon="11.1502872"><ele>456.0</ele><time>2026-03-24T08:59:15.632Z</time></trkpt><trkpt lat="45.5393147" lon="11.1501591"><ele>456.0</ele><time>2026-03-24T08:59:16.628Z</time></trkpt><trkpt lat="45.5392932" lon="11.1500233"><ele>456.0</ele><time>2026-03-24T08:59:17.623Z</time></trkpt><trkpt lat="45.5392601" lon="11.1498664"><ele>456.0</ele><time>2026-03-24T08:59:18.635Z</time></trkpt><trkpt lat="45.5392246" lon="11.149693"><ele>456.0</ele><time>2026-03-24T08:59:19.631Z</time></trkpt><trkpt lat="45.5391771" lon="11.1495377"><ele>457.8333333333333</ele><time>2026-03-24T08:59:20.659Z</time></trkpt><trkpt lat="45.5391212" lon="11.1494287"><ele>459.66666666666663</ele><time>2026-03-24T08:59:21.635Z</time></trkpt><trkpt lat="45.5390627" lon="11.1493444"><ele>461.5</ele><time>2026-03-24T08:59:22.625Z</time></trkpt><trkpt lat="45.5390015" lon="11.1492594"><ele>463.3333333333333</ele><time>2026-03-24T08:59:23.629Z</time></trkpt><trkpt lat="45.5389403" lon="11.1491901"><ele>465.16666666666663</ele><time>2026-03-24T08:59:24.634Z</time></trkpt><trkpt lat="45.5388769" lon="11.1491629"><ele>467.0</ele><time>2026-03-24T08:59:25.641Z</time></trkpt><trkpt lat="45.5388177" lon="11.1491957"><ele>467.0</ele><time>2026-03-24T08:59:26.629Z</time></trkpt><trkpt lat="45.5387491" lon="11.1492815"><ele>467.00000000000006</ele><time>2026-03-24T08:59:27.63Z</time></trkpt><trkpt lat="45.5386683" lon="11.1493809"><ele>467.00000000000006</ele><time>2026-03-24T08:59:28.631Z</time></trkpt><trkpt lat="45.538577" lon="11.1494737"><ele>467.0</ele><time>2026-03-24T08:59:29.64Z</time></trkpt><trkpt lat="45.5384702" lon="11.1495806"><ele>467.0</ele><time>2026-03-24T08:59:30.634Z</time></trkpt><trkpt lat="45.5383571" lon="11.1497001"><ele>466.75</ele><time>2026-03-24T08:59:31.639Z</time></trkpt><trkpt lat="45.5382492" lon="11.1498345"><ele>466.5</ele><time>2026-03-24T08:59:32.638Z</time></trkpt><trkpt lat="45.5381645" lon="11.149971"><ele>466.25</ele><time>2026-03-24T08:59:33.631Z</time></trkpt><trkpt lat="45.5380922" lon="11.1501025"><ele>466.0</ele><time>2026-03-24T08:59:34.641Z</time></trkpt><trkpt lat="45.5380242" lon="11.1502249"><ele>462.6666666666667</ele><time>2026-03-24T08:59:35.629Z</time></trkpt><trkpt lat="45.5379605" lon="11.1503258"><ele>459.33333333333337</ele><time>2026-03-24T08:59:36.636Z</time></trkpt><trkpt lat="45.5378962" lon="11.1504018"><ele>456.0</ele><time>2026-03-24T08:59:37.625Z</time></trkpt><trkpt lat="45.5378366" lon="11.1504403"><ele>452.66666666666663</ele><time>2026-03-24T08:59:38.63Z</time></trkpt><trkpt lat="45.5377714" lon="11.1504531"><ele>449.3333333333333</ele><time>2026-03-24T08:59:39.632Z</time></trkpt><trkpt lat="45.5376699" lon="11.1504438"><ele>446.0</ele><time>2026-03-24T08:59:41.635Z</time></trkpt><trkpt lat="45.537615" lon="11.1504902"><ele>446.0</ele><time>2026-03-24T08:59:43.655Z</time></trkpt><trkpt lat="45.5376712" lon="11.1505535"><ele>446.0</ele><time>2026-03-24T08:59:45.63Z</time></trkpt><trkpt lat="45.5377765" lon="11.1505787"><ele>446.0</ele><time>2026-03-24T08:59:47.636Z</time></trkpt><trkpt lat="45.5378705" lon="11.150548"><ele>446.0</ele><time>2026-03-24T08:59:49.627Z</time></trkpt><trkpt lat="45.5379581" lon="11.1504865"><ele>446.0</ele><time>2026-03-24T08:59:51.639Z</time></trkpt><trkpt lat="45.5380681" lon="11.1503931"><ele>445.99999999999994</ele><time>2026-03-24T08:59:53.633Z</time></trkpt><trkpt lat="45.5381247" lon="11.1503315"><ele>446.0</ele><time>2026-03-24T08:59:54.64Z</time></trkpt><trkpt lat="45.5382101" lon="11.1502362"><ele>446.0</ele><time>2026-03-24T08:59:56.627Z</time></trkpt><trkpt lat="45.5382729" lon="11.150318"><ele>446.0</ele><time>2026-03-24T08:59:59.634Z</time></trkpt><trkpt lat="45.5382171" lon="11.1504506"><ele>445.99999999999994</ele><time>2026-03-24T09:00:01.635Z</time></trkpt><trkpt lat="45.5381737" lon="11.1505329"><ele>446.0</ele><time>2026-03-24T09:00:02.635Z</time></trkpt><trkpt lat="45.5381205" lon="11.1506275"><ele>442.66666666666663</ele><time>2026-03-24T09:00:03.63Z</time></trkpt><trkpt lat="45.5380578" lon="11.1507085"><ele>439.3333333333333</ele><time>2026-03-24T09:00:04.627Z</time></trkpt><trkpt lat="45.53799" lon="11.1507859"><ele>436.0</ele><time>2026-03-24T09:00:05.627Z</time></trkpt><trkpt lat="45.5379143" lon="11.1508421"><ele>432.66666666666663</ele><time>2026-03-24T09:00:06.629Z</time></trkpt><trkpt lat="45.5378315" lon="11.1508722"><ele>429.3333333333333</ele><time>2026-03-24T09:00:07.63Z</time></trkpt><trkpt lat="45.537744" lon="11.1508835"><ele>426.0</ele><time>2026-03-24T09:00:08.62Z</time></trkpt><trkpt lat="45.5376621" lon="11.1508841"><ele>424.8</ele><time>2026-03-24T09:00:09.619Z</time></trkpt><trkpt lat="45.537582" lon="11.150892"><ele>423.6</ele><time>2026-03-24T09:00:10.625Z</time></trkpt><trkpt lat="45.5374735" lon="11.1508854"><ele>422.4</ele><time>2026-03-24T09:00:12.622Z</time></trkpt><trkpt lat="45.5375108" lon="11.1509867"><ele>421.2</ele><time>2026-03-24T09:00:15.614Z</time></trkpt><trkpt lat="45.5376319" lon="11.1510233"><ele>420.0</ele><time>2026-03-24T09:00:17.634Z</time></trkpt><trkpt lat="45.5377076" lon="11.1510471"><ele>420.0</ele><time>2026-03-24T09:00:18.634Z</time></trkpt><trkpt lat="45.5377881" lon="11.1510705"><ele>420.0</ele><time>2026-03-24T09:00:19.63Z</time></trkpt><trkpt lat="45.5378713" lon="11.1510919"><ele>420.0</ele><time>2026-03-24T09:00:20.628Z</time></trkpt><trkpt lat="45.5379618" lon="11.1510994"><ele>420.0</ele><time>2026-03-24T09:00:21.636Z</time></trkpt><trkpt lat="45.5380538" lon="11.1511103"><ele>420.0</ele><time>2026-03-24T09:00:22.633Z</time></trkpt><trkpt lat="45.5381286" lon="11.1511304"><ele>420.0</ele><time>2026-03-24T09:00:23.628Z</time></trkpt><trkpt lat="45.5382101" lon="11.1511783"><ele>420.0</ele><time>2026-03-24T09:00:25.633Z</time></trkpt><trkpt lat="45.5381847" lon="11.1512771"><ele>420.0</ele><time>2026-03-24T09:00:27.635Z</time></trkpt><trkpt lat="45.5380618" lon="11.1513125"><ele>420.0</ele><time>2026-03-24T09:00:29.636Z</time></trkpt><trkpt lat="45.5379691" lon="11.1512962"><ele>420.0</ele><time>2026-03-24T09:00:30.63Z</time></trkpt><trkpt lat="45.5378602" lon="11.1512862"><ele>420.0</ele><time>2026-03-24T09:00:31.636Z</time></trkpt><trkpt lat="45.5377461" lon="11.1512793"><ele>420.0</ele><time>2026-03-24T09:00:32.631Z</time></trkpt><trkpt lat="45.5376317" lon="11.1512883"><ele>420.0</ele><time>2026-03-24T09:00:33.634Z</time></trkpt><trkpt lat="45.537517" lon="11.1513026"><ele>420.0</ele><time>2026-03-24T09:00:34.635Z</time></trkpt><trkpt lat="45.5373992" lon="11.1513269"><ele>420.0</ele><time>2026-03-24T09:00:35.626Z</time></trkpt><trkpt lat="45.5372854" lon="11.1513619"><ele>420.0</ele><time>2026-03-24T09:00:36.633Z</time></trkpt><trkpt lat="45.5371753" lon="11.1513916"><ele>420.0</ele><time>2026-03-24T09:00:37.634Z</time></trkpt><trkpt lat="45.5370598" lon="11.1514167"><ele>420.0</ele><time>2026-03-24T09:00:38.633Z</time></trkpt><trkpt lat="45.5369466" lon="11.1514287"><ele>420.0</ele><time>2026-03-24T09:00:39.629Z</time></trkpt><trkpt lat="45.5368502" lon="11.1514286"><ele>420.0</ele><time>2026-03-24T09:00:40.636Z</time></trkpt><trkpt lat="45.5367624" lon="11.1514234"><ele>416.5</ele><time>2026-03-24T09:00:41.631Z</time></trkpt><trkpt lat="45.5366836" lon="11.1514126"><ele>413.0</ele><time>2026-03-24T09:00:42.624Z</time></trkpt><trkpt lat="45.5366211" lon="11.1513794"><ele>409.5</ele><time>2026-03-24T09:00:43.626Z</time></trkpt><trkpt lat="45.5365328" lon="11.1512725"><ele>406.0</ele><time>2026-03-24T09:00:45.623Z</time></trkpt><trkpt lat="45.5364863" lon="11.1511513"><ele>402.5</ele><time>2026-03-24T09:00:47.627Z</time></trkpt><trkpt lat="45.5364251" lon="11.1510613"><ele>399.0</ele><time>2026-03-24T09:01:05.641Z</time></trkpt><trkpt lat="45.536373" lon="11.1509936"><ele>399.0</ele><time>2026-03-24T09:01:39.639Z</time></trkpt><trkpt lat="45.5363126" lon="11.1509372"><ele>399.0</ele><time>2026-03-24T09:01:43.635Z</time></trkpt><trkpt lat="45.5363416" lon="11.1510729"><ele>399.0</ele><time>2026-03-24T09:01:45.643Z</time></trkpt><trkpt lat="45.5363749" lon="11.1511788"><ele>399.0</ele><time>2026-03-24T09:01:46.636Z</time></trkpt><trkpt lat="45.5364048" lon="11.151322"><ele>399.0</ele><time>2026-03-24T09:01:47.639Z</time></trkpt><trkpt lat="45.5364439" lon="11.1514641"><ele>395.5</ele><time>2026-03-24T09:01:48.636Z</time></trkpt><trkpt lat="45.5365009" lon="11.1515974"><ele>392.0</ele><time>2026-03-24T09:01:49.639Z</time></trkpt><trkpt lat="45.5365551" lon="11.151734"><ele>388.5</ele><time>2026-03-24T09:01:50.633Z</time></trkpt><trkpt lat="45.5366193" lon="11.1518709"><ele>385.0</ele><time>2026-03-24T09:01:51.644Z</time></trkpt><trkpt lat="45.5366833" lon="11.152011"><ele>385.0</ele><time>2026-03-24T09:01:52.636Z</time></trkpt><trkpt lat="45.5367551" lon="11.1521486"><ele>385.0</ele><time>2026-03-24T09:01:53.645Z</time></trkpt><trkpt lat="45.5368327" lon="11.1522863"><ele>385.0</ele><time>2026-03-24T09:01:54.646Z</time></trkpt><trkpt lat="45.5369113" lon="11.1524224"><ele>385.0</ele><time>2026-03-24T09:01:55.639Z</time></trkpt><trkpt lat="45.5370025" lon="11.1525562"><ele>383.5</ele><time>2026-03-24T09:01:56.634Z</time></trkpt><trkpt lat="45.5370928" lon="11.1526701"><ele>382.0</ele><time>2026-03-24T09:01:57.64Z</time></trkpt><trkpt lat="45.5371892" lon="11.1527709"><ele>380.5</ele><time>2026-03-24T09:01:58.632Z</time></trkpt><trkpt lat="45.5372888" lon="11.1528666"><ele>379.0</ele><time>2026-03-24T09:01:59.633Z</time></trkpt><trkpt lat="45.5373838" lon="11.1529638"><ele>379.0</ele><time>2026-03-24T09:02:00.638Z</time></trkpt><trkpt lat="45.5374714" lon="11.1530789"><ele>379.0</ele><time>2026-03-24T09:02:01.64Z</time></trkpt><trkpt lat="45.5375447" lon="11.153212"><ele>379.0</ele><time>2026-03-24T09:02:02.63Z</time></trkpt><trkpt lat="45.5376019" lon="11.1533603"><ele>379.0</ele><time>2026-03-24T09:02:03.64Z</time></trkpt><trkpt lat="45.5376497" lon="11.1535211"><ele>377.75</ele><time>2026-03-24T09:02:04.638Z</time></trkpt><trkpt lat="45.5377027" lon="11.1536813"><ele>376.5</ele><time>2026-03-24T09:02:05.633Z</time></trkpt><trkpt lat="45.5377595" lon="11.1538374"><ele>375.25</ele><time>2026-03-24T09:02:06.663Z</time></trkpt><trkpt lat="45.537816" lon="11.1539869"><ele>374.0</ele><time>2026-03-24T09:02:07.64Z</time></trkpt><trkpt lat="45.5378744" lon="11.1541263"><ele>374.4</ele><time>2026-03-24T09:02:08.629Z</time></trkpt><trkpt lat="45.5379293" lon="11.1542569"><ele>374.79999999999995</ele><time>2026-03-24T09:02:09.64Z</time></trkpt><trkpt lat="45.5379684" lon="11.1543949"><ele>375.20000000000005</ele><time>2026-03-24T09:02:10.63Z</time></trkpt><trkpt lat="45.5380085" lon="11.1545459"><ele>375.6</ele><time>2026-03-24T09:02:11.627Z</time></trkpt><trkpt lat="45.5380493" lon="11.1546973"><ele>376.0</ele><time>2026-03-24T09:02:12.636Z</time></trkpt><trkpt lat="45.5380847" lon="11.1548516"><ele>376.8</ele><time>2026-03-24T09:02:13.635Z</time></trkpt><trkpt lat="45.538114" lon="11.1549958"><ele>377.6</ele><time>2026-03-24T09:02:14.662Z</time></trkpt><trkpt lat="45.5381419" lon="11.1551388"><ele>378.4</ele><time>2026-03-24T09:02:15.641Z</time></trkpt><trkpt lat="45.5381703" lon="11.1552667"><ele>379.2</ele><time>2026-03-24T09:02:16.635Z</time></trkpt><trkpt lat="45.5381965" lon="11.1553879"><ele>380.0</ele><time>2026-03-24T09:02:17.645Z</time></trkpt><trkpt lat="45.5382251" lon="11.1554964"><ele>380.0</ele><time>2026-03-24T09:02:18.659Z</time></trkpt><trkpt lat="45.5382487" lon="11.1555946"><ele>380.0</ele><time>2026-03-24T09:02:19.635Z</time></trkpt><trkpt lat="45.538273" lon="11.155741"><ele>380.0</ele><time>2026-03-24T09:02:22.644Z</time></trkpt><trkpt lat="45.5382863" lon="11.1558484"><ele>380.0</ele><time>2026-03-24T09:02:28.648Z</time></trkpt><trkpt lat="45.5382964" lon="11.1559471"><ele>380.0</ele><time>2026-03-24T09:02:31.639Z</time></trkpt><trkpt lat="45.5383777" lon="11.1560349"><ele>380.0</ele><time>2026-03-24T09:02:34.634Z</time></trkpt><trkpt lat="45.5385047" lon="11.156021"><ele>381.0</ele><time>2026-03-24T09:02:35.631Z</time></trkpt><trkpt lat="45.5386516" lon="11.1559695"><ele>382.0</ele><time>2026-03-24T09:02:36.628Z</time></trkpt><trkpt lat="45.5388586" lon="11.1558999"><ele>383.0</ele><time>2026-03-24T09:02:37.635Z</time></trkpt><trkpt lat="45.5391465" lon="11.1558244"><ele>383.5</ele><time>2026-03-24T09:02:38.633Z</time></trkpt><trkpt lat="45.539441" lon="11.1557032"><ele>384.0</ele><time>2026-03-24T09:02:39.637Z</time></trkpt><trkpt lat="45.5397401" lon="11.1555367"><ele>385.5</ele><time>2026-03-24T09:02:40.637Z</time></trkpt><trkpt lat="45.5399939" lon="11.1554093"><ele>387.0</ele><time>2026-03-24T09:02:41.633Z</time></trkpt><trkpt lat="45.5401752" lon="11.1553413"><ele>387.0</ele><time>2026-03-24T09:02:42.632Z</time></trkpt><trkpt lat="45.5403155" lon="11.1552935"><ele>387.0</ele><time>2026-03-24T09:02:43.632Z</time></trkpt><trkpt lat="45.5404688" lon="11.1552497"><ele>387.0</ele><time>2026-03-24T09:02:44.636Z</time></trkpt><trkpt lat="45.5406237" lon="11.1552028"><ele>388.0</ele><time>2026-03-24T09:02:45.629Z</time></trkpt><trkpt lat="45.5407816" lon="11.1551717"><ele>389.0</ele><time>2026-03-24T09:02:46.636Z</time></trkpt><trkpt lat="45.5409503" lon="11.1551469"><ele>390.0</ele><time>2026-03-24T09:02:47.636Z</time></trkpt><trkpt lat="45.5411247" lon="11.1550994"><ele>391.33333333333337</ele><time>2026-03-24T09:02:48.639Z</time></trkpt><trkpt lat="45.5413152" lon="11.155106"><ele>392.6666666666667</ele><time>2026-03-24T09:02:49.63Z</time></trkpt><trkpt lat="45.5415007" lon="11.1550958"><ele>394.0</ele><time>2026-03-24T09:02:50.633Z</time></trkpt><trkpt lat="45.5416859" lon="11.1551113"><ele>394.0</ele><time>2026-03-24T09:02:51.636Z</time></trkpt><trkpt lat="45.5418619" lon="11.1551304"><ele>394.0</ele><time>2026-03-24T09:02:52.635Z</time></trkpt><trkpt lat="45.5420195" lon="11.155166"><ele>394.0</ele><time>2026-03-24T09:02:53.641Z</time></trkpt><trkpt lat="45.5421845" lon="11.1551782"><ele>394.33333333333337</ele><time>2026-03-24T09:02:54.638Z</time></trkpt><trkpt lat="45.5423336" lon="11.1552048"><ele>394.66666666666663</ele><time>2026-03-24T09:02:55.637Z</time></trkpt><trkpt lat="45.542482" lon="11.1552483"><ele>395.0</ele><time>2026-03-24T09:02:56.639Z</time></trkpt><trkpt lat="45.5426304" lon="11.1552805"><ele>395.0</ele><time>2026-03-24T09:02:57.638Z</time></trkpt><trkpt lat="45.542767" lon="11.1552983"><ele>395.0</ele><time>2026-03-24T09:02:58.646Z</time></trkpt><trkpt lat="45.5428926" lon="11.1553207"><ele>395.0</ele><time>2026-03-24T09:02:59.633Z</time></trkpt><trkpt lat="45.5430174" lon="11.1553444"><ele>395.0</ele><time>2026-03-24T09:03:00.638Z</time></trkpt><trkpt lat="45.5431347" lon="11.1553928"><ele>395.4</ele><time>2026-03-24T09:03:01.639Z</time></trkpt><trkpt lat="45.5432474" lon="11.155427"><ele>395.8</ele><time>2026-03-24T09:03:02.637Z</time></trkpt><trkpt lat="45.5433476" lon="11.1554371"><ele>396.20000000000005</ele><time>2026-03-24T09:03:03.637Z</time></trkpt><trkpt lat="45.5434368" lon="11.1554418"><ele>396.6</ele><time>2026-03-24T09:03:04.64Z</time></trkpt><trkpt lat="45.5435237" lon="11.1554546"><ele>397.0</ele><time>2026-03-24T09:03:05.639Z</time></trkpt><trkpt lat="45.5435988" lon="11.1554639"><ele>397.00000000000006</ele><time>2026-03-24T09:03:06.637Z</time></trkpt><trkpt lat="45.5436969" lon="11.1554813"><ele>397.0</ele><time>2026-03-24T09:03:08.641Z</time></trkpt><trkpt lat="45.5437581" lon="11.1555094"><ele>397.0</ele><time>2026-03-24T09:03:10.65Z</time></trkpt><trkpt lat="45.5438258" lon="11.1555263"><ele>397.0</ele><time>2026-03-24T09:03:29.646Z</time></trkpt><trkpt lat="45.5439064" lon="11.1555205"><ele>397.00000000000006</ele><time>2026-03-24T09:03:33.654Z</time></trkpt><trkpt lat="45.5439783" lon="11.155513"><ele>397.0</ele><time>2026-03-24T09:03:35.644Z</time></trkpt><trkpt lat="45.5440632" lon="11.1555344"><ele>397.8</ele><time>2026-03-24T09:03:38.647Z</time></trkpt><trkpt lat="45.5441477" lon="11.1555521"><ele>398.6</ele><time>2026-03-24T09:03:40.641Z</time></trkpt><trkpt lat="45.5442347" lon="11.1555621"><ele>399.40000000000003</ele><time>2026-03-24T09:03:42.643Z</time></trkpt><trkpt lat="45.5443582" lon="11.1555574"><ele>400.20000000000005</ele><time>2026-03-24T09:03:44.647Z</time></trkpt><trkpt lat="45.5444423" lon="11.1555588"><ele>401.0</ele><time>2026-03-24T09:03:45.639Z</time></trkpt><trkpt lat="45.5445332" lon="11.1555737"><ele>401.6</ele><time>2026-03-24T09:03:46.637Z</time></trkpt><trkpt lat="45.5446236" lon="11.1555836"><ele>402.20000000000005</ele><time>2026-03-24T09:03:47.638Z</time></trkpt><trkpt lat="45.5447213" lon="11.1555929"><ele>402.79999999999995</ele><time>2026-03-24T09:03:48.633Z</time></trkpt><trkpt lat="45.5448242" lon="11.1556065"><ele>403.4</ele><time>2026-03-24T09:03:49.64Z</time></trkpt><trkpt lat="45.5449249" lon="11.1555986"><ele>404.0</ele><time>2026-03-24T09:03:50.641Z</time></trkpt><trkpt lat="45.5450201" lon="11.1555744"><ele>404.0</ele><time>2026-03-24T09:03:51.634Z</time></trkpt><trkpt lat="45.5451036" lon="11.1555534"><ele>404.0</ele><time>2026-03-24T09:03:52.64Z</time></trkpt><trkpt lat="45.5451752" lon="11.1555192"><ele>404.0</ele><time>2026-03-24T09:03:53.638Z</time></trkpt><trkpt lat="45.5452444" lon="11.155493"><ele>404.0</ele><time>2026-03-24T09:03:54.657Z</time></trkpt><trkpt lat="45.5453148" lon="11.1554702"><ele>404.0</ele><time>2026-03-24T09:03:55.639Z</time></trkpt><trkpt lat="45.5453779" lon="11.155446"><ele>404.0</ele><time>2026-03-24T09:03:56.637Z</time></trkpt><trkpt lat="45.5454453" lon="11.1554241"><ele>404.0</ele><time>2026-03-24T09:03:57.633Z</time></trkpt><trkpt lat="45.5455151" lon="11.15539"><ele>404.6</ele><time>2026-03-24T09:03:58.631Z</time></trkpt><trkpt lat="45.5456522" lon="11.1553369"><ele>405.2</ele><time>2026-03-24T09:04:00.639Z</time></trkpt><trkpt lat="45.5457436" lon="11.1553017"><ele>405.8</ele><time>2026-03-24T09:04:01.631Z</time></trkpt><trkpt lat="45.5458392" lon="11.1552841"><ele>406.40000000000003</ele><time>2026-03-24T09:04:02.647Z</time></trkpt><trkpt lat="45.5459514" lon="11.1552661"><ele>407.0</ele><time>2026-03-24T09:04:03.636Z</time></trkpt><trkpt lat="45.5460712" lon="11.1552422"><ele>407.0</ele><time>2026-03-24T09:04:04.633Z</time></trkpt><trkpt lat="45.5461854" lon="11.1552213"><ele>407.0</ele><time>2026-03-24T09:04:05.635Z</time></trkpt><trkpt lat="45.5462841" lon="11.1551975"><ele>407.0</ele><time>2026-03-24T09:04:06.635Z</time></trkpt><trkpt lat="45.5463941" lon="11.1551741"><ele>407.0</ele><time>2026-03-24T09:04:07.636Z</time></trkpt><trkpt lat="45.5464961" lon="11.1551585"><ele>407.0</ele><time>2026-03-24T09:04:08.644Z</time></trkpt><trkpt lat="45.5465929" lon="11.1551417"><ele>407.40000000000003</ele><time>2026-03-24T09:04:09.636Z</time></trkpt><trkpt lat="45.5466866" lon="11.1551325"><ele>407.8</ele><time>2026-03-24T09:04:10.636Z</time></trkpt><trkpt lat="45.5467742" lon="11.1551158"><ele>408.2</ele><time>2026-03-24T09:04:11.632Z</time></trkpt><trkpt lat="45.5468574" lon="11.155088"><ele>408.6</ele><time>2026-03-24T09:04:12.641Z</time></trkpt><trkpt lat="45.5469574" lon="11.1550468"><ele>409.0</ele><time>2026-03-24T09:04:13.634Z</time></trkpt><trkpt lat="45.5470662" lon="11.1549931"><ele>409.4</ele><time>2026-03-24T09:04:14.639Z</time></trkpt><trkpt lat="45.5471712" lon="11.1549409"><ele>409.79999999999995</ele><time>2026-03-24T09:04:15.629Z</time></trkpt><trkpt lat="45.5472613" lon="11.1548836"><ele>410.20000000000005</ele><time>2026-03-24T09:04:16.628Z</time></trkpt><trkpt lat="45.5473334" lon="11.1548376"><ele>410.6</ele><time>2026-03-24T09:04:17.62Z</time></trkpt><trkpt lat="45.547411" lon="11.1547708"><ele>411.0</ele><time>2026-03-24T09:04:18.633Z</time></trkpt><trkpt lat="45.5474886" lon="11.1547105"><ele>410.3333333333333</ele><time>2026-03-24T09:04:19.63Z</time></trkpt><trkpt lat="45.5475609" lon="11.1546599"><ele>409.66666666666663</ele><time>2026-03-24T09:04:20.625Z</time></trkpt><trkpt lat="45.5476329" lon="11.1546254"><ele>409.0</ele><time>2026-03-24T09:04:21.624Z</time></trkpt><trkpt lat="45.547704" lon="11.154618"><ele>408.3333333333333</ele><time>2026-03-24T09:04:22.624Z</time></trkpt><trkpt lat="45.5477746" lon="11.1546164"><ele>407.66666666666663</ele><time>2026-03-24T09:04:23.626Z</time></trkpt><trkpt lat="45.5478562" lon="11.1546581"><ele>407.0</ele><time>2026-03-24T09:04:24.628Z</time></trkpt><trkpt lat="45.5479363" lon="11.1546816"><ele>406.99999999999994</ele><time>2026-03-24T09:04:25.62Z</time></trkpt><trkpt lat="45.5480173" lon="11.15469"><ele>407.0</ele><time>2026-03-24T09:04:26.629Z</time></trkpt><trkpt lat="45.5480909" lon="11.1547112"><ele>407.0</ele><time>2026-03-24T09:04:27.627Z</time></trkpt><trkpt lat="45.5481822" lon="11.1547202"><ele>407.0</ele><time>2026-03-24T09:04:28.631Z</time></trkpt><trkpt lat="45.5482683" lon="11.154745"><ele>406.99999999999994</ele><time>2026-03-24T09:04:29.627Z</time></trkpt><trkpt lat="45.5483596" lon="11.1547671"><ele>407.0</ele><time>2026-03-24T09:04:30.632Z</time></trkpt><trkpt lat="45.5484436" lon="11.1547796"><ele>407.0</ele><time>2026-03-24T09:04:31.658Z</time></trkpt><trkpt lat="45.5485338" lon="11.1547982"><ele>407.0</ele><time>2026-03-24T09:04:32.632Z</time></trkpt><trkpt lat="45.5486243" lon="11.1548201"><ele>407.0</ele><time>2026-03-24T09:04:33.636Z</time></trkpt><trkpt lat="45.5487315" lon="11.1548423"><ele>407.0</ele><time>2026-03-24T09:04:34.627Z</time></trkpt><trkpt lat="45.5488445" lon="11.1548718"><ele>407.0</ele><time>2026-03-24T09:04:35.635Z</time></trkpt><trkpt lat="45.548962" lon="11.1549046"><ele>407.75</ele><time>2026-03-24T09:04:36.633Z</time></trkpt><trkpt lat="45.5490819" lon="11.1549375"><ele>408.5</ele><time>2026-03-24T09:04:37.639Z</time></trkpt><trkpt lat="45.5492083" lon="11.1549684"><ele>409.25</ele><time>2026-03-24T09:04:38.643Z</time></trkpt><trkpt lat="45.5493385" lon="11.1550012"><ele>410.0</ele><time>2026-03-24T09:04:39.644Z</time></trkpt><trkpt lat="45.549471" lon="11.1550303"><ele>410.66666666666663</ele><time>2026-03-24T09:04:40.636Z</time></trkpt><trkpt lat="45.5496071" lon="11.1550659"><ele>411.33333333333337</ele><time>2026-03-24T09:04:41.633Z</time></trkpt><trkpt lat="45.5497625" lon="11.1551212"><ele>412.0</ele><time>2026-03-24T09:04:42.636Z</time></trkpt><trkpt lat="45.5499227" lon="11.1551599"><ele>412.0</ele><time>2026-03-24T09:04:43.636Z</time></trkpt><trkpt lat="45.5500636" lon="11.1552014"><ele>412.0</ele><time>2026-03-24T09:04:44.633Z</time></trkpt><trkpt lat="45.5502255" lon="11.1552542"><ele>412.0</ele><time>2026-03-24T09:04:45.629Z</time></trkpt><trkpt lat="45.5503986" lon="11.1553045"><ele>412.6666666666667</ele><time>2026-03-24T09:04:46.64Z</time></trkpt><trkpt lat="45.5505647" lon="11.1553511"><ele>413.33333333333337</ele><time>2026-03-24T09:04:47.632Z</time></trkpt><trkpt lat="45.5507327" lon="11.1553841"><ele>414.0</ele><time>2026-03-24T09:04:48.636Z</time></trkpt><trkpt lat="45.5508836" lon="11.1554077"><ele>414.0</ele><time>2026-03-24T09:04:49.631Z</time></trkpt><trkpt lat="45.5510363" lon="11.1554128"><ele>414.0</ele><time>2026-03-24T09:04:50.637Z</time></trkpt><trkpt lat="45.5511953" lon="11.1554025"><ele>414.0</ele><time>2026-03-24T09:04:51.635Z</time></trkpt><trkpt lat="45.551322" lon="11.1553864"><ele>414.0</ele><time>2026-03-24T09:04:52.634Z</time></trkpt><trkpt lat="45.5514842" lon="11.1553785"><ele>414.25</ele><time>2026-03-24T09:04:53.636Z</time></trkpt><trkpt lat="45.5516228" lon="11.1553825"><ele>414.5</ele><time>2026-03-24T09:04:54.63Z</time></trkpt><trkpt lat="45.5517617" lon="11.1554051"><ele>414.75</ele><time>2026-03-24T09:04:55.634Z</time></trkpt><trkpt lat="45.5519131" lon="11.1554536"><ele>415.0</ele><time>2026-03-24T09:04:56.632Z</time></trkpt><trkpt lat="45.5520754" lon="11.1555309"><ele>415.0</ele><time>2026-03-24T09:04:57.635Z</time></trkpt><trkpt lat="45.5522313" lon="11.1555848"><ele>415.0</ele><time>2026-03-24T09:04:58.631Z</time></trkpt><trkpt lat="45.5523877" lon="11.1556301"><ele>415.0</ele><time>2026-03-24T09:04:59.629Z</time></trkpt><trkpt lat="45.5525566" lon="11.1556565"><ele>415.0</ele><time>2026-03-24T09:05:00.632Z</time></trkpt><trkpt lat="45.5527138" lon="11.1556684"><ele>415.0</ele><time>2026-03-24T09:05:01.629Z</time></trkpt><trkpt lat="45.5528756" lon="11.1556444"><ele>415.0</ele><time>2026-03-24T09:05:02.628Z</time></trkpt><trkpt lat="45.5530374" lon="11.15562"><ele>415.33333333333337</ele><time>2026-03-24T09:05:03.631Z</time></trkpt><trkpt lat="45.5531896" lon="11.1555814"><ele>415.66666666666663</ele><time>2026-03-24T09:05:04.636Z</time></trkpt><trkpt lat="45.5533703" lon="11.155549"><ele>416.0</ele><time>2026-03-24T09:05:05.627Z</time></trkpt><trkpt lat="45.5535354" lon="11.1555147"><ele>416.0</ele><time>2026-03-24T09:05:06.626Z</time></trkpt><trkpt lat="45.5536964" lon="11.155493"><ele>416.0</ele><time>2026-03-24T09:05:07.621Z</time></trkpt><trkpt lat="45.5538666" lon="11.1554731"><ele>416.0</ele><time>2026-03-24T09:05:08.625Z</time></trkpt><trkpt lat="45.5540175" lon="11.1554535"><ele>416.75</ele><time>2026-03-24T09:05:09.624Z</time></trkpt><trkpt lat="45.5541753" lon="11.1554268"><ele>417.5</ele><time>2026-03-24T09:05:10.622Z</time></trkpt><trkpt lat="45.5543181" lon="11.1553855"><ele>418.25</ele><time>2026-03-24T09:05:11.624Z</time></trkpt><trkpt lat="45.5544578" lon="11.1553579"><ele>419.0</ele><time>2026-03-24T09:05:12.625Z</time></trkpt><trkpt lat="45.5545597" lon="11.1553312"><ele>419.79999999999995</ele><time>2026-03-24T09:05:13.627Z</time></trkpt><trkpt lat="45.5546594" lon="11.1553046"><ele>420.59999999999997</ele><time>2026-03-24T09:05:14.632Z</time></trkpt><trkpt lat="45.5547626" lon="11.155294"><ele>421.4</ele><time>2026-03-24T09:05:15.619Z</time></trkpt><trkpt lat="45.554849" lon="11.1552914"><ele>422.2</ele><time>2026-03-24T09:05:16.62Z</time></trkpt><trkpt lat="45.5549354" lon="11.1552812"><ele>423.0</ele><time>2026-03-24T09:05:17.629Z</time></trkpt><trkpt lat="45.5550185" lon="11.1552769"><ele>423.0</ele><time>2026-03-24T09:05:18.62Z</time></trkpt><trkpt lat="45.5551132" lon="11.1552786"><ele>423.0</ele><time>2026-03-24T09:05:19.623Z</time></trkpt><trkpt lat="45.5552152" lon="11.1552789"><ele>423.0</ele><time>2026-03-24T09:05:20.618Z</time></trkpt><trkpt lat="45.555336" lon="11.1552802"><ele>423.0</ele><time>2026-03-24T09:05:21.624Z</time></trkpt><trkpt lat="45.5554623" lon="11.1552828"><ele>423.0</ele><time>2026-03-24T09:05:22.618Z</time></trkpt><trkpt lat="45.5555892" lon="11.1552883"><ele>423.25</ele><time>2026-03-24T09:05:23.627Z</time></trkpt><trkpt lat="45.555723" lon="11.1552933"><ele>423.5</ele><time>2026-03-24T09:05:24.627Z</time></trkpt><trkpt lat="45.5558563" lon="11.1552846"><ele>423.75</ele><time>2026-03-24T09:05:25.623Z</time></trkpt><trkpt lat="45.5560022" lon="11.1552976"><ele>424.0</ele><time>2026-03-24T09:05:26.631Z</time></trkpt><trkpt lat="45.5561419" lon="11.1553135"><ele>424.5</ele><time>2026-03-24T09:05:27.627Z</time></trkpt><trkpt lat="45.5562895" lon="11.1553172"><ele>425.0</ele><time>2026-03-24T09:05:28.63Z</time></trkpt><trkpt lat="45.5564326" lon="11.1553092"><ele>425.5</ele><time>2026-03-24T09:05:29.628Z</time></trkpt><trkpt lat="45.5565727" lon="11.1553025"><ele>426.0</ele><time>2026-03-24T09:05:30.629Z</time></trkpt><trkpt lat="45.5567101" lon="11.1552828"><ele>426.0</ele><time>2026-03-24T09:05:31.626Z</time></trkpt><trkpt lat="45.5568678" lon="11.1552678"><ele>426.0</ele><time>2026-03-24T09:05:32.627Z</time></trkpt><trkpt lat="45.557018" lon="11.1552446"><ele>426.0</ele><time>2026-03-24T09:05:33.623Z</time></trkpt><trkpt lat="45.5571649" lon="11.1552334"><ele>426.66666666666663</ele><time>2026-03-24T09:05:34.628Z</time></trkpt><trkpt lat="45.5573332" lon="11.1552167"><ele>427.3333333333333</ele><time>2026-03-24T09:05:35.626Z</time></trkpt><trkpt lat="45.5574925" lon="11.1552338"><ele>428.0</ele><time>2026-03-24T09:05:36.622Z</time></trkpt><trkpt lat="45.5576518" lon="11.1552211"><ele>428.0</ele><time>2026-03-24T09:05:37.622Z</time></trkpt><trkpt lat="45.5578246" lon="11.1552152"><ele>428.0</ele><time>2026-03-24T09:05:38.627Z</time></trkpt><trkpt lat="45.5579994" lon="11.1552021"><ele>428.0</ele><time>2026-03-24T09:05:39.627Z</time></trkpt><trkpt lat="45.5581516" lon="11.1552006"><ele>428.0</ele><time>2026-03-24T09:05:40.628Z</time></trkpt><trkpt lat="45.5583087" lon="11.1551821"><ele>428.0</ele><time>2026-03-24T09:05:41.627Z</time></trkpt><trkpt lat="45.5584743" lon="11.1551663"><ele>428.0</ele><time>2026-03-24T09:05:42.631Z</time></trkpt><trkpt lat="45.5586495" lon="11.1551543"><ele>429.0</ele><time>2026-03-24T09:05:43.633Z</time></trkpt><trkpt lat="45.5588157" lon="11.1551608"><ele>430.0</ele><time>2026-03-24T09:05:44.633Z</time></trkpt><trkpt lat="45.5589828" lon="11.1551817"><ele>431.0</ele><time>2026-03-24T09:05:45.635Z</time></trkpt><trkpt lat="45.5591613" lon="11.1551775"><ele>431.0</ele><time>2026-03-24T09:05:46.63Z</time></trkpt><trkpt lat="45.559343" lon="11.1551999"><ele>431.0</ele><time>2026-03-24T09:05:47.635Z</time></trkpt><trkpt lat="45.559489" lon="11.1551982"><ele>431.0</ele><time>2026-03-24T09:05:48.625Z</time></trkpt><trkpt lat="45.5596115" lon="11.1551926"><ele>431.75</ele><time>2026-03-24T09:05:49.623Z</time></trkpt><trkpt lat="45.5597317" lon="11.1551899"><ele>432.5</ele><time>2026-03-24T09:05:50.622Z</time></trkpt><trkpt lat="45.5598528" lon="11.1551676"><ele>433.25</ele><time>2026-03-24T09:05:51.626Z</time></trkpt><trkpt lat="45.5600361" lon="11.1551634"><ele>434.0</ele><time>2026-03-24T09:05:52.631Z</time></trkpt><trkpt lat="45.5602055" lon="11.1551512"><ele>434.0</ele><time>2026-03-24T09:05:53.633Z</time></trkpt><trkpt lat="45.5603466" lon="11.1551321"><ele>434.0</ele><time>2026-03-24T09:05:54.625Z</time></trkpt><trkpt lat="45.5604927" lon="11.1551211"><ele>434.0</ele><time>2026-03-24T09:05:55.634Z</time></trkpt><trkpt lat="45.5606341" lon="11.1551242"><ele>434.0</ele><time>2026-03-24T09:05:56.627Z</time></trkpt><trkpt lat="45.5607621" lon="11.1551111"><ele>434.25</ele><time>2026-03-24T09:05:57.629Z</time></trkpt><trkpt lat="45.5608884" lon="11.155096"><ele>434.5</ele><time>2026-03-24T09:05:58.634Z</time></trkpt><trkpt lat="45.5610185" lon="11.1550715"><ele>434.75</ele><time>2026-03-24T09:05:59.626Z</time></trkpt><trkpt lat="45.5611577" lon="11.1550599"><ele>435.0</ele><time>2026-03-24T09:06:00.626Z</time></trkpt><trkpt lat="45.5613061" lon="11.1550379"><ele>435.5</ele><time>2026-03-24T09:06:01.627Z</time></trkpt><trkpt lat="45.5614367" lon="11.1550104"><ele>436.0</ele><time>2026-03-24T09:06:02.625Z</time></trkpt><trkpt lat="45.5615526" lon="11.154986"><ele>436.5</ele><time>2026-03-24T09:06:03.627Z</time></trkpt><trkpt lat="45.5616753" lon="11.1549707"><ele>437.0</ele><time>2026-03-24T09:06:04.628Z</time></trkpt><trkpt lat="45.5618037" lon="11.1549391"><ele>437.0</ele><time>2026-03-24T09:06:05.624Z</time></trkpt><trkpt lat="45.5619165" lon="11.1549085"><ele>437.00000000000006</ele><time>2026-03-24T09:06:06.629Z</time></trkpt><trkpt lat="45.5620333" lon="11.1548729"><ele>437.00000000000006</ele><time>2026-03-24T09:06:07.629Z</time></trkpt><trkpt lat="45.5621491" lon="11.154841"><ele>437.0</ele><time>2026-03-24T09:06:08.627Z</time></trkpt><trkpt lat="45.562242" lon="11.1548256"><ele>437.0</ele><time>2026-03-24T09:06:09.63Z</time></trkpt><trkpt lat="45.562331" lon="11.1548261"><ele>437.40000000000003</ele><time>2026-03-24T09:06:10.629Z</time></trkpt><trkpt lat="45.5624492" lon="11.1548101"><ele>437.80000000000007</ele><time>2026-03-24T09:06:11.623Z</time></trkpt><trkpt lat="45.5625405" lon="11.1548003"><ele>438.2</ele><time>2026-03-24T09:06:12.628Z</time></trkpt><trkpt lat="45.5626197" lon="11.1547945"><ele>438.6</ele><time>2026-03-24T09:06:13.63Z</time></trkpt><trkpt lat="45.5627034" lon="11.1547678"><ele>439.0</ele><time>2026-03-24T09:06:14.632Z</time></trkpt><trkpt lat="45.5627898" lon="11.1547073"><ele>439.4</ele><time>2026-03-24T09:06:15.628Z</time></trkpt><trkpt lat="45.5628776" lon="11.154642"><ele>439.79999999999995</ele><time>2026-03-24T09:06:16.624Z</time></trkpt><trkpt lat="45.5629577" lon="11.1545843"><ele>440.20000000000005</ele><time>2026-03-24T09:06:17.624Z</time></trkpt><trkpt lat="45.5630423" lon="11.1545161"><ele>440.6</ele><time>2026-03-24T09:06:18.63Z</time></trkpt><trkpt lat="45.5631267" lon="11.1544338"><ele>441.0</ele><time>2026-03-24T09:06:19.624Z</time></trkpt><trkpt lat="45.5632201" lon="11.1543563"><ele>441.0</ele><time>2026-03-24T09:06:20.623Z</time></trkpt><trkpt lat="45.563319" lon="11.1542769"><ele>441.0</ele><time>2026-03-24T09:06:21.623Z</time></trkpt><trkpt lat="45.5634386" lon="11.154203"><ele>441.0</ele><time>2026-03-24T09:06:22.618Z</time></trkpt><trkpt lat="45.5635665" lon="11.1541348"><ele>441.0</ele><time>2026-03-24T09:06:23.622Z</time></trkpt><trkpt lat="45.5636953" lon="11.1540697"><ele>441.33333333333337</ele><time>2026-03-24T09:06:24.647Z</time></trkpt><trkpt lat="45.5638336" lon="11.1540188"><ele>441.6666666666667</ele><time>2026-03-24T09:06:25.656Z</time></trkpt><trkpt lat="45.5640005" lon="11.1539866"><ele>442.0</ele><time>2026-03-24T09:06:26.624Z</time></trkpt><trkpt lat="45.5641588" lon="11.1539477"><ele>442.0</ele><time>2026-03-24T09:06:27.624Z</time></trkpt><trkpt lat="45.5642782" lon="11.1539404"><ele>442.00000000000006</ele><time>2026-03-24T09:06:28.629Z</time></trkpt><trkpt lat="45.5644014" lon="11.1539336"><ele>442.00000000000006</ele><time>2026-03-24T09:06:29.628Z</time></trkpt><trkpt lat="45.5645098" lon="11.1539141"><ele>442.0</ele><time>2026-03-24T09:06:30.632Z</time></trkpt><trkpt lat="45.5646028" lon="11.1538795"><ele>442.0</ele><time>2026-03-24T09:06:31.632Z</time></trkpt><trkpt lat="45.5647008" lon="11.1538717"><ele>442.1666666666667</ele><time>2026-03-24T09:06:32.634Z</time></trkpt><trkpt lat="45.5647813" lon="11.1538583"><ele>442.33333333333337</ele><time>2026-03-24T09:06:33.633Z</time></trkpt><trkpt lat="45.5648519" lon="11.1538418"><ele>442.5</ele><time>2026-03-24T09:06:34.63Z</time></trkpt><trkpt lat="45.5649198" lon="11.1538257"><ele>442.66666666666663</ele><time>2026-03-24T09:06:35.635Z</time></trkpt><trkpt lat="45.5650163" lon="11.1538033"><ele>442.8333333333333</ele><time>2026-03-24T09:06:37.63Z</time></trkpt><trkpt lat="45.5651172" lon="11.1537873"><ele>443.0</ele><time>2026-03-24T09:06:39.629Z</time></trkpt><trkpt lat="45.5651976" lon="11.1537737"><ele>442.99999999999994</ele><time>2026-03-24T09:06:41.63Z</time></trkpt><trkpt lat="45.5652673" lon="11.1537584"><ele>443.0</ele><time>2026-03-24T09:06:43.659Z</time></trkpt><trkpt lat="45.56536" lon="11.1537522"><ele>443.0</ele><time>2026-03-24T09:06:45.631Z</time></trkpt><trkpt lat="45.5654741" lon="11.1537244"><ele>443.0</ele><time>2026-03-24T09:06:47.657Z</time></trkpt><trkpt lat="45.5655529" lon="11.1537177"><ele>442.99999999999994</ele><time>2026-03-24T09:06:49.638Z</time></trkpt><trkpt lat="45.5656359" lon="11.153721"><ele>443.0</ele><time>2026-03-24T09:06:52.648Z</time></trkpt><trkpt lat="45.5657165" lon="11.1537034"><ele>443.59999999999997</ele><time>2026-03-24T09:06:55.641Z</time></trkpt><trkpt lat="45.5657923" lon="11.1536872"><ele>444.19999999999993</ele><time>2026-03-24T09:07:02.638Z</time></trkpt><trkpt lat="45.5658565" lon="11.1536669"><ele>444.8</ele><time>2026-03-24T09:07:04.639Z</time></trkpt><trkpt lat="45.565969" lon="11.1536526"><ele>445.4</ele><time>2026-03-24T09:07:06.639Z</time></trkpt><trkpt lat="45.5660699" lon="11.1536452"><ele>446.0</ele><time>2026-03-24T09:07:07.634Z</time></trkpt><trkpt lat="45.5661912" lon="11.1536341"><ele>446.20000000000005</ele><time>2026-03-24T09:07:08.639Z</time></trkpt><trkpt lat="45.5663072" lon="11.1536142"><ele>446.40000000000003</ele><time>2026-03-24T09:07:09.636Z</time></trkpt><trkpt lat="45.5664275" lon="11.153596"><ele>446.6</ele><time>2026-03-24T09:07:10.627Z</time></trkpt><trkpt lat="45.5665389" lon="11.1535818"><ele>446.8</ele><time>2026-03-24T09:07:11.637Z</time></trkpt><trkpt lat="45.5666365" lon="11.1535641"><ele>447.0</ele><time>2026-03-24T09:07:12.655Z</time></trkpt><trkpt lat="45.5667338" lon="11.1535447"><ele>447.0</ele><time>2026-03-24T09:07:13.658Z</time></trkpt><trkpt lat="45.5668307" lon="11.1535316"><ele>447.00000000000006</ele><time>2026-03-24T09:07:14.652Z</time></trkpt><trkpt lat="45.5669312" lon="11.1535133"><ele>447.00000000000006</ele><time>2026-03-24T09:07:15.631Z</time></trkpt><trkpt lat="45.5670325" lon="11.1534915"><ele>447.0</ele><time>2026-03-24T09:07:16.633Z</time></trkpt><trkpt lat="45.5671426" lon="11.1534715"><ele>447.0</ele><time>2026-03-24T09:07:17.629Z</time></trkpt><trkpt lat="45.5672536" lon="11.1534485"><ele>447.20000000000005</ele><time>2026-03-24T09:07:18.633Z</time></trkpt><trkpt lat="45.5673547" lon="11.1534205"><ele>447.40000000000003</ele><time>2026-03-24T09:07:19.631Z</time></trkpt><trkpt lat="45.5674631" lon="11.1533879"><ele>447.59999999999997</ele><time>2026-03-24T09:07:20.634Z</time></trkpt><trkpt lat="45.5675615" lon="11.1533529"><ele>447.79999999999995</ele><time>2026-03-24T09:07:21.634Z</time></trkpt><trkpt lat="45.567684" lon="11.1533291"><ele>448.0</ele><time>2026-03-24T09:07:22.639Z</time></trkpt><trkpt lat="45.5678068" lon="11.1532963"><ele>448.25</ele><time>2026-03-24T09:07:23.638Z</time></trkpt><trkpt lat="45.5679351" lon="11.153261"><ele>448.5</ele><time>2026-03-24T09:07:24.636Z</time></trkpt><trkpt lat="45.5680632" lon="11.1532269"><ele>448.75</ele><time>2026-03-24T09:07:25.627Z</time></trkpt><trkpt lat="45.5681957" lon="11.1532034"><ele>449.0</ele><time>2026-03-24T09:07:26.627Z</time></trkpt><trkpt lat="45.5683241" lon="11.1531912"><ele>449.0</ele><time>2026-03-24T09:07:27.629Z</time></trkpt><trkpt lat="45.5684425" lon="11.1531831"><ele>449.0</ele><time>2026-03-24T09:07:28.624Z</time></trkpt><trkpt lat="45.5685655" lon="11.153195"><ele>449.0</ele><time>2026-03-24T09:07:29.632Z</time></trkpt><trkpt lat="45.5686889" lon="11.1532206"><ele>449.0</ele><time>2026-03-24T09:07:30.627Z</time></trkpt><trkpt lat="45.5688173" lon="11.1532659"><ele>449.5</ele><time>2026-03-24T09:07:31.635Z</time></trkpt><trkpt lat="45.5689358" lon="11.1533673"><ele>450.0</ele><time>2026-03-24T09:07:32.632Z</time></trkpt><trkpt lat="45.5690577" lon="11.1534567"><ele>450.5</ele><time>2026-03-24T09:07:33.631Z</time></trkpt><trkpt lat="45.5692118" lon="11.1535192"><ele>451.0</ele><time>2026-03-24T09:07:34.631Z</time></trkpt><trkpt lat="45.5693558" lon="11.1535584"><ele>451.0</ele><time>2026-03-24T09:07:35.632Z</time></trkpt><trkpt lat="45.5695198" lon="11.1535832"><ele>451.0</ele><time>2026-03-24T09:07:36.63Z</time></trkpt><trkpt lat="45.5696806" lon="11.1535709"><ele>451.0</ele><time>2026-03-24T09:07:37.63Z</time></trkpt><trkpt lat="45.5698329" lon="11.1535695"><ele>451.75</ele><time>2026-03-24T09:07:38.63Z</time></trkpt><trkpt lat="45.5699876" lon="11.1535548"><ele>452.5</ele><time>2026-03-24T09:07:39.631Z</time></trkpt><trkpt lat="45.5701275" lon="11.1535514"><ele>453.25</ele><time>2026-03-24T09:07:40.638Z</time></trkpt><trkpt lat="45.5702566" lon="11.1535423"><ele>454.0</ele><time>2026-03-24T09:07:41.631Z</time></trkpt><trkpt lat="45.5704067" lon="11.1534935"><ele>456.6666666666667</ele><time>2026-03-24T09:07:42.627Z</time></trkpt><trkpt lat="45.5705589" lon="11.1534081"><ele>459.33333333333337</ele><time>2026-03-24T09:07:43.63Z</time></trkpt><trkpt lat="45.570707" lon="11.1533111"><ele>462.0</ele><time>2026-03-24T09:07:44.631Z</time></trkpt><trkpt lat="45.5708635" lon="11.1532185"><ele>461.25</ele><time>2026-03-24T09:07:45.628Z</time></trkpt><trkpt lat="45.5710024" lon="11.1531104"><ele>460.5</ele><time>2026-03-24T09:07:46.63Z</time></trkpt><trkpt lat="45.5711264" lon="11.153011"><ele>459.75</ele><time>2026-03-24T09:07:47.626Z</time></trkpt><trkpt lat="45.5712484" lon="11.1528915"><ele>459.0</ele><time>2026-03-24T09:07:48.629Z</time></trkpt><trkpt lat="45.5713659" lon="11.1528068"><ele>459.0</ele><time>2026-03-24T09:07:49.634Z</time></trkpt><trkpt lat="45.5715011" lon="11.1527352"><ele>459.0</ele><time>2026-03-24T09:07:50.629Z</time></trkpt><trkpt lat="45.5716453" lon="11.1526542"><ele>459.0</ele><time>2026-03-24T09:07:51.633Z</time></trkpt><trkpt lat="45.5718125" lon="11.1525777"><ele>459.0</ele><time>2026-03-24T09:07:52.633Z</time></trkpt><trkpt lat="45.5719715" lon="11.152501"><ele>459.0</ele><time>2026-03-24T09:07:53.633Z</time></trkpt><trkpt lat="45.5721338" lon="11.1524297"><ele>459.0</ele><time>2026-03-24T09:07:54.656Z</time></trkpt><trkpt lat="45.5722967" lon="11.152374"><ele>458.66666666666663</ele><time>2026-03-24T09:07:55.664Z</time></trkpt><trkpt lat="45.5724785" lon="11.1523096"><ele>458.3333333333333</ele><time>2026-03-24T09:07:56.656Z</time></trkpt><trkpt lat="45.5726631" lon="11.1522632"><ele>458.0</ele><time>2026-03-24T09:07:57.66Z</time></trkpt><trkpt lat="45.5728486" lon="11.1522228"><ele>459.0</ele><time>2026-03-24T09:07:58.64Z</time></trkpt><trkpt lat="45.5730335" lon="11.1522024"><ele>460.0</ele><time>2026-03-24T09:07:59.634Z</time></trkpt><trkpt lat="45.5731964" lon="11.1522066"><ele>461.0</ele><time>2026-03-24T09:08:00.631Z</time></trkpt><trkpt lat="45.5733731" lon="11.1522131"><ele>461.0</ele><time>2026-03-24T09:08:01.632Z</time></trkpt><trkpt lat="45.5735594" lon="11.1522061"><ele>461.0</ele><time>2026-03-24T09:08:02.634Z</time></trkpt><trkpt lat="45.5737429" lon="11.1522187"><ele>461.0</ele><time>2026-03-24T09:08:03.63Z</time></trkpt><trkpt lat="45.5739308" lon="11.1521992"><ele>462.3333333333333</ele><time>2026-03-24T09:08:04.634Z</time></trkpt><trkpt lat="45.5741134" lon="11.1521672"><ele>463.66666666666663</ele><time>2026-03-24T09:08:05.629Z</time></trkpt><trkpt lat="45.574277" lon="11.1521018"><ele>465.0</ele><time>2026-03-24T09:08:06.632Z</time></trkpt><trkpt lat="45.5744498" lon="11.1520419"><ele>466.33333333333337</ele><time>2026-03-24T09:08:07.631Z</time></trkpt><trkpt lat="45.5746204" lon="11.151989"><ele>467.6666666666667</ele><time>2026-03-24T09:08:08.63Z</time></trkpt><trkpt lat="45.5747847" lon="11.1519064"><ele>469.0</ele><time>2026-03-24T09:08:09.631Z</time></trkpt><trkpt lat="45.574949" lon="11.1518024"><ele>469.0</ele><time>2026-03-24T09:08:10.635Z</time></trkpt><trkpt lat="45.5751154" lon="11.1517182"><ele>469.0</ele><time>2026-03-24T09:08:11.628Z</time></trkpt><trkpt lat="45.575261" lon="11.1516183"><ele>469.0</ele><time>2026-03-24T09:08:12.628Z</time></trkpt><trkpt lat="45.5753943" lon="11.1515369"><ele>468.6666666666667</ele><time>2026-03-24T09:08:13.63Z</time></trkpt><trkpt lat="45.5755518" lon="11.1514588"><ele>468.33333333333337</ele><time>2026-03-24T09:08:14.627Z</time></trkpt><trkpt lat="45.5757182" lon="11.1514218"><ele>468.0</ele><time>2026-03-24T09:08:15.627Z</time></trkpt><trkpt lat="45.5759002" lon="11.1513742"><ele>468.0</ele><time>2026-03-24T09:08:16.63Z</time></trkpt><trkpt lat="45.5760735" lon="11.1513721"><ele>468.0</ele><time>2026-03-24T09:08:17.629Z</time></trkpt><trkpt lat="45.5762247" lon="11.1513798"><ele>468.0</ele><time>2026-03-24T09:08:18.63Z</time></trkpt><trkpt lat="45.576365" lon="11.1513798"><ele>469.0</ele><time>2026-03-24T09:08:19.634Z</time></trkpt><trkpt lat="45.5764894" lon="11.1513539"><ele>470.0</ele><time>2026-03-24T09:08:20.641Z</time></trkpt><trkpt lat="45.5766416" lon="11.1513284"><ele>471.0</ele><time>2026-03-24T09:08:21.633Z</time></trkpt><trkpt lat="45.5768066" lon="11.1512958"><ele>472.0</ele><time>2026-03-24T09:08:22.635Z</time></trkpt><trkpt lat="45.5769576" lon="11.1512416"><ele>472.33333333333337</ele><time>2026-03-24T09:08:23.644Z</time></trkpt><trkpt lat="45.5771009" lon="11.1512294"><ele>472.66666666666663</ele><time>2026-03-24T09:08:24.634Z</time></trkpt><trkpt lat="45.5772562" lon="11.1512113"><ele>473.0</ele><time>2026-03-24T09:08:25.631Z</time></trkpt><trkpt lat="45.5774093" lon="11.1511964"><ele>473.0</ele><time>2026-03-24T09:08:26.634Z</time></trkpt><trkpt lat="45.5775617" lon="11.1511667"><ele>473.0</ele><time>2026-03-24T09:08:27.633Z</time></trkpt><trkpt lat="45.5777294" lon="11.1511436"><ele>473.0</ele><time>2026-03-24T09:08:28.637Z</time></trkpt><trkpt lat="45.5778932" lon="11.1511217"><ele>473.0</ele><time>2026-03-24T09:08:29.635Z</time></trkpt><trkpt lat="45.5780497" lon="11.1510977"><ele>473.0</ele><time>2026-03-24T09:08:30.635Z</time></trkpt><trkpt lat="45.5782176" lon="11.1510911"><ele>473.0</ele><time>2026-03-24T09:08:31.636Z</time></trkpt><trkpt lat="45.5783758" lon="11.1511149"><ele>473.0</ele><time>2026-03-24T09:08:32.633Z</time></trkpt><trkpt lat="45.5785407" lon="11.1511262"><ele>473.0</ele><time>2026-03-24T09:08:33.63Z</time></trkpt><trkpt lat="45.5787083" lon="11.1511592"><ele>473.0</ele><time>2026-03-24T09:08:34.633Z</time></trkpt><trkpt lat="45.5788752" lon="11.1512145"><ele>473.3333333333333</ele><time>2026-03-24T09:08:35.635Z</time></trkpt><trkpt lat="45.5790415" lon="11.1512871"><ele>473.66666666666663</ele><time>2026-03-24T09:08:36.632Z</time></trkpt><trkpt lat="45.5792093" lon="11.1513286"><ele>474.0</ele><time>2026-03-24T09:08:37.633Z</time></trkpt><trkpt lat="45.5793792" lon="11.1513695"><ele>475.33333333333337</ele><time>2026-03-24T09:08:38.635Z</time></trkpt><trkpt lat="45.579536" lon="11.1514004"><ele>476.6666666666667</ele><time>2026-03-24T09:08:39.63Z</time></trkpt><trkpt lat="45.5797044" lon="11.1514019"><ele>478.0</ele><time>2026-03-24T09:08:40.633Z</time></trkpt><trkpt lat="45.5798896" lon="11.1513893"><ele>478.0</ele><time>2026-03-24T09:08:41.633Z</time></trkpt><trkpt lat="45.5800723" lon="11.1513445"><ele>478.0</ele><time>2026-03-24T09:08:42.631Z</time></trkpt><trkpt lat="45.5802513" lon="11.15131"><ele>478.0</ele><time>2026-03-24T09:08:43.632Z</time></trkpt><trkpt lat="45.5804499" lon="11.1512715"><ele>478.33333333333337</ele><time>2026-03-24T09:08:44.638Z</time></trkpt><trkpt lat="45.5806147" lon="11.1512494"><ele>478.66666666666663</ele><time>2026-03-24T09:08:45.635Z</time></trkpt><trkpt lat="45.5807625" lon="11.1512214"><ele>479.0</ele><time>2026-03-24T09:08:46.636Z</time></trkpt><trkpt lat="45.5809022" lon="11.1512029"><ele>479.0</ele><time>2026-03-24T09:08:47.63Z</time></trkpt><trkpt lat="45.5810451" lon="11.1511959"><ele>479.0</ele><time>2026-03-24T09:08:48.633Z</time></trkpt><trkpt lat="45.5811916" lon="11.1512144"><ele>479.0</ele><time>2026-03-24T09:08:49.625Z</time></trkpt><trkpt lat="45.5813656" lon="11.1512839"><ele>479.0</ele><time>2026-03-24T09:08:50.63Z</time></trkpt><trkpt lat="45.5815196" lon="11.1513736"><ele>479.0</ele><time>2026-03-24T09:08:51.635Z</time></trkpt><trkpt lat="45.5816864" lon="11.1514493"><ele>479.0</ele><time>2026-03-24T09:08:52.631Z</time></trkpt><trkpt lat="45.5818344" lon="11.1515477"><ele>480.0</ele><time>2026-03-24T09:08:53.631Z</time></trkpt><trkpt lat="45.5819832" lon="11.1516358"><ele>481.0</ele><time>2026-03-24T09:08:54.629Z</time></trkpt><trkpt lat="45.5821349" lon="11.1517152"><ele>482.0</ele><time>2026-03-24T09:08:55.622Z</time></trkpt><trkpt lat="45.5822865" lon="11.1517634"><ele>482.3333333333333</ele><time>2026-03-24T09:08:56.63Z</time></trkpt><trkpt lat="45.5824431" lon="11.1518196"><ele>482.66666666666663</ele><time>2026-03-24T09:08:57.627Z</time></trkpt><trkpt lat="45.5825908" lon="11.1518688"><ele>483.0</ele><time>2026-03-24T09:08:58.645Z</time></trkpt><trkpt lat="45.582738" lon="11.1519241"><ele>483.0</ele><time>2026-03-24T09:08:59.636Z</time></trkpt><trkpt lat="45.5828764" lon="11.1519783"><ele>483.0</ele><time>2026-03-24T09:09:00.635Z</time></trkpt><trkpt lat="45.5830203" lon="11.1519959"><ele>483.0</ele><time>2026-03-24T09:09:01.636Z</time></trkpt><trkpt lat="45.5831674" lon="11.1520136"><ele>483.0</ele><time>2026-03-24T09:09:02.633Z</time></trkpt><trkpt lat="45.5833152" lon="11.1520771"><ele>483.0</ele><time>2026-03-24T09:09:03.627Z</time></trkpt><trkpt lat="45.5834695" lon="11.1521044"><ele>483.0</ele><time>2026-03-24T09:09:04.632Z</time></trkpt><trkpt lat="45.5836298" lon="11.1521096"><ele>483.0</ele><time>2026-03-24T09:09:05.636Z</time></trkpt><trkpt lat="45.5837703" lon="11.1521522"><ele>484.33333333333337</ele><time>2026-03-24T09:09:06.63Z</time></trkpt><trkpt lat="45.5839186" lon="11.1522415"><ele>485.6666666666667</ele><time>2026-03-24T09:09:07.626Z</time></trkpt><trkpt lat="45.5840796" lon="11.1523425"><ele>487.0</ele><time>2026-03-24T09:09:08.626Z</time></trkpt><trkpt lat="45.5841949" lon="11.1524652"><ele>487.5</ele><time>2026-03-24T09:09:09.627Z</time></trkpt><trkpt lat="45.5842966" lon="11.1526025"><ele>488.0</ele><time>2026-03-24T09:09:10.628Z</time></trkpt><trkpt lat="45.5843844" lon="11.1527658"><ele>488.5</ele><time>2026-03-24T09:09:11.629Z</time></trkpt><trkpt lat="45.5844608" lon="11.1529035"><ele>489.0</ele><time>2026-03-24T09:09:12.637Z</time></trkpt><trkpt lat="45.5845333" lon="11.1530911"><ele>490.25</ele><time>2026-03-24T09:09:13.635Z</time></trkpt><trkpt lat="45.5846309" lon="11.153235"><ele>491.5</ele><time>2026-03-24T09:09:14.639Z</time></trkpt><trkpt lat="45.5847352" lon="11.1533584"><ele>492.75</ele><time>2026-03-24T09:09:15.635Z</time></trkpt><trkpt lat="45.5848367" lon="11.1534469"><ele>494.0</ele><time>2026-03-24T09:09:16.628Z</time></trkpt><trkpt lat="45.5849743" lon="11.1534756"><ele>494.0</ele><time>2026-03-24T09:09:17.634Z</time></trkpt><trkpt lat="45.5851399" lon="11.1534773"><ele>494.0</ele><time>2026-03-24T09:09:18.643Z</time></trkpt><trkpt lat="45.5853052" lon="11.1534626"><ele>494.0</ele><time>2026-03-24T09:09:19.649Z</time></trkpt><trkpt lat="45.5854756" lon="11.15347"><ele>493.66666666666663</ele><time>2026-03-24T09:09:20.635Z</time></trkpt><trkpt lat="45.5856431" lon="11.1534759"><ele>493.33333333333337</ele><time>2026-03-24T09:09:21.636Z</time></trkpt><trkpt lat="45.585792" lon="11.1535049"><ele>493.0</ele><time>2026-03-24T09:09:22.633Z</time></trkpt><trkpt lat="45.5859473" lon="11.1535245"><ele>493.0</ele><time>2026-03-24T09:09:23.634Z</time></trkpt><trkpt lat="45.5861099" lon="11.153587"><ele>493.0</ele><time>2026-03-24T09:09:24.635Z</time></trkpt><trkpt lat="45.5862416" lon="11.1536728"><ele>493.0</ele><time>2026-03-24T09:09:25.628Z</time></trkpt><trkpt lat="45.5863855" lon="11.1537249"><ele>493.0</ele><time>2026-03-24T09:09:26.633Z</time></trkpt><trkpt lat="45.5865315" lon="11.1537697"><ele>493.0</ele><time>2026-03-24T09:09:27.626Z</time></trkpt><trkpt lat="45.5866909" lon="11.1538304"><ele>493.0</ele><time>2026-03-24T09:09:28.629Z</time></trkpt><trkpt lat="45.5868544" lon="11.1538928"><ele>493.0</ele><time>2026-03-24T09:09:29.626Z</time></trkpt><trkpt lat="45.5870207" lon="11.1539761"><ele>493.0</ele><time>2026-03-24T09:09:30.623Z</time></trkpt><trkpt lat="45.5871722" lon="11.1540592"><ele>493.0</ele><time>2026-03-24T09:09:31.624Z</time></trkpt><trkpt lat="45.5873213" lon="11.1541271"><ele>494.0</ele><time>2026-03-24T09:09:32.633Z</time></trkpt><trkpt lat="45.5874659" lon="11.154128"><ele>495.0</ele><time>2026-03-24T09:09:33.624Z</time></trkpt><trkpt lat="45.5875928" lon="11.1541119"><ele>496.0</ele><time>2026-03-24T09:09:34.623Z</time></trkpt><trkpt lat="45.5877304" lon="11.154082"><ele>497.0</ele><time>2026-03-24T09:09:35.625Z</time></trkpt><trkpt lat="45.5878572" lon="11.1540354"><ele>497.0</ele><time>2026-03-24T09:09:36.622Z</time></trkpt><trkpt lat="45.588007" lon="11.1540065"><ele>497.0</ele><time>2026-03-24T09:09:37.626Z</time></trkpt><trkpt lat="45.5881539" lon="11.1539839"><ele>497.0</ele><time>2026-03-24T09:09:38.626Z</time></trkpt><trkpt lat="45.5883006" lon="11.1539704"><ele>497.0</ele><time>2026-03-24T09:09:39.631Z</time></trkpt><trkpt lat="45.5884339" lon="11.1539456"><ele>497.0</ele><time>2026-03-24T09:09:40.629Z</time></trkpt><trkpt lat="45.588576" lon="11.1539523"><ele>497.0</ele><time>2026-03-24T09:09:41.627Z</time></trkpt><trkpt lat="45.5887252" lon="11.1539573"><ele>497.0</ele><time>2026-03-24T09:09:42.628Z</time></trkpt><trkpt lat="45.5888838" lon="11.1539909"><ele>497.3333333333333</ele><time>2026-03-24T09:09:43.624Z</time></trkpt><trkpt lat="45.5890427" lon="11.1540356"><ele>497.66666666666663</ele><time>2026-03-24T09:09:44.625Z</time></trkpt><trkpt lat="45.5892041" lon="11.154062"><ele>498.0</ele><time>2026-03-24T09:09:45.626Z</time></trkpt><trkpt lat="45.5893538" lon="11.1540924"><ele>500.66666666666663</ele><time>2026-03-24T09:09:46.625Z</time></trkpt><trkpt lat="45.5894948" lon="11.1541133"><ele>503.3333333333333</ele><time>2026-03-24T09:09:47.622Z</time></trkpt><trkpt lat="45.589649" lon="11.1541068"><ele>506.0</ele><time>2026-03-24T09:09:48.625Z</time></trkpt><trkpt lat="45.5898243" lon="11.1540466"><ele>503.3333333333333</ele><time>2026-03-24T09:09:49.621Z</time></trkpt><trkpt lat="45.5900051" lon="11.1539948"><ele>500.66666666666663</ele><time>2026-03-24T09:09:50.622Z</time></trkpt><trkpt lat="45.590149" lon="11.1538695"><ele>498.0</ele><time>2026-03-24T09:09:51.62Z</time></trkpt><trkpt lat="45.5902751" lon="11.1537407"><ele>499.0</ele><time>2026-03-24T09:09:52.625Z</time></trkpt><trkpt lat="45.5903857" lon="11.1536163"><ele>500.0</ele><time>2026-03-24T09:09:53.627Z</time></trkpt><trkpt lat="45.5905074" lon="11.1534966"><ele>501.0</ele><time>2026-03-24T09:09:54.616Z</time></trkpt><trkpt lat="45.5906436" lon="11.1534274"><ele>502.0</ele><time>2026-03-24T09:09:55.64Z</time></trkpt><trkpt lat="45.5907745" lon="11.1533567"><ele>502.0</ele><time>2026-03-24T09:09:56.618Z</time></trkpt><trkpt lat="45.5908974" lon="11.1533164"><ele>502.0</ele><time>2026-03-24T09:09:57.617Z</time></trkpt><trkpt lat="45.5910347" lon="11.1533025"><ele>502.0</ele><time>2026-03-24T09:09:58.622Z</time></trkpt><trkpt lat="45.5911753" lon="11.1532941"><ele>502.0</ele><time>2026-03-24T09:09:59.618Z</time></trkpt><trkpt lat="45.5913238" lon="11.153279"><ele>502.5</ele><time>2026-03-24T09:10:00.619Z</time></trkpt><trkpt lat="45.5914767" lon="11.1532284"><ele>503.0</ele><time>2026-03-24T09:10:01.624Z</time></trkpt><trkpt lat="45.5916061" lon="11.1531936"><ele>503.5</ele><time>2026-03-24T09:10:02.623Z</time></trkpt><trkpt lat="45.5917292" lon="11.1531403"><ele>504.0</ele><time>2026-03-24T09:10:03.619Z</time></trkpt><trkpt lat="45.5918423" lon="11.153094"><ele>504.0</ele><time>2026-03-24T09:10:04.622Z</time></trkpt><trkpt lat="45.591945" lon="11.1530387"><ele>504.0</ele><time>2026-03-24T09:10:05.617Z</time></trkpt><trkpt lat="45.5920555" lon="11.1529819"><ele>504.0</ele><time>2026-03-24T09:10:06.619Z</time></trkpt><trkpt lat="45.5921677" lon="11.1529134"><ele>504.0</ele><time>2026-03-24T09:10:07.62Z</time></trkpt><trkpt lat="45.592295" lon="11.1528473"><ele>505.0</ele><time>2026-03-24T09:10:08.625Z</time></trkpt><trkpt lat="45.5924301" lon="11.152788"><ele>506.0</ele><time>2026-03-24T09:10:09.621Z</time></trkpt><trkpt lat="45.5925636" lon="11.1527181"><ele>507.0</ele><time>2026-03-24T09:10:10.619Z</time></trkpt><trkpt lat="45.5926941" lon="11.1526592"><ele>508.0</ele><time>2026-03-24T09:10:11.623Z</time></trkpt><trkpt lat="45.5928224" lon="11.1526054"><ele>509.25</ele><time>2026-03-24T09:10:12.622Z</time></trkpt><trkpt lat="45.5929491" lon="11.1525564"><ele>510.5</ele><time>2026-03-24T09:10:13.623Z</time></trkpt><trkpt lat="45.5930657" lon="11.15251"><ele>511.75</ele><time>2026-03-24T09:10:14.623Z</time></trkpt><trkpt lat="45.5931826" lon="11.1524655"><ele>513.0</ele><time>2026-03-24T09:10:15.649Z</time></trkpt><trkpt lat="45.5932995" lon="11.1524362"><ele>513.0</ele><time>2026-03-24T09:10:16.62Z</time></trkpt><trkpt lat="45.5934073" lon="11.1524"><ele>513.0</ele><time>2026-03-24T09:10:17.624Z</time></trkpt><trkpt lat="45.5935016" lon="11.1523465"><ele>513.0</ele><time>2026-03-24T09:10:18.616Z</time></trkpt><trkpt lat="45.593585" lon="11.1522812"><ele>513.0</ele><time>2026-03-24T09:10:19.616Z</time></trkpt><trkpt lat="45.5936568" lon="11.1522061"><ele>513.0</ele><time>2026-03-24T09:10:20.623Z</time></trkpt><trkpt lat="45.5937128" lon="11.1521125"><ele>513.0</ele><time>2026-03-24T09:10:21.621Z</time></trkpt><trkpt lat="45.5937494" lon="11.152012"><ele>513.0</ele><time>2026-03-24T09:10:22.617Z</time></trkpt><trkpt lat="45.5937809" lon="11.1518972"><ele>513.0</ele><time>2026-03-24T09:10:23.624Z</time></trkpt><trkpt lat="45.5937927" lon="11.1517619"><ele>513.0</ele><time>2026-03-24T09:10:24.63Z</time></trkpt><trkpt lat="45.5938026" lon="11.1516174"><ele>513.0</ele><time>2026-03-24T09:10:25.628Z</time></trkpt><trkpt lat="45.5938091" lon="11.1514826"><ele>513.0</ele><time>2026-03-24T09:10:26.625Z</time></trkpt><trkpt lat="45.5938203" lon="11.1513616"><ele>513.0</ele><time>2026-03-24T09:10:27.63Z</time></trkpt><trkpt lat="45.593845" lon="11.1512486"><ele>513.0</ele><time>2026-03-24T09:10:28.626Z</time></trkpt><trkpt lat="45.5938895" lon="11.1511393"><ele>513.0</ele><time>2026-03-24T09:10:29.65Z</time></trkpt><trkpt lat="45.5939586" lon="11.1510427"><ele>513.0</ele><time>2026-03-24T09:10:30.621Z</time></trkpt><trkpt lat="45.5940446" lon="11.1509481"><ele>513.0</ele><time>2026-03-24T09:10:31.629Z</time></trkpt><trkpt lat="45.5941305" lon="11.1508616"><ele>513.0</ele><time>2026-03-24T09:10:32.621Z</time></trkpt><trkpt lat="45.5942097" lon="11.1507868"><ele>513.0</ele><time>2026-03-24T09:10:33.62Z</time></trkpt><trkpt lat="45.5942859" lon="11.1507155"><ele>513.0</ele><time>2026-03-24T09:10:34.626Z</time></trkpt><trkpt lat="45.5943695" lon="11.1506551"><ele>513.0</ele><time>2026-03-24T09:10:35.618Z</time></trkpt><trkpt lat="45.5944662" lon="11.1506179"><ele>514.75</ele><time>2026-03-24T09:10:36.613Z</time></trkpt><trkpt lat="45.594572" lon="11.150601"><ele>516.5</ele><time>2026-03-24T09:10:37.614Z</time></trkpt><trkpt lat="45.5946911" lon="11.1505886"><ele>518.25</ele><time>2026-03-24T09:10:38.617Z</time></trkpt><trkpt lat="45.5948144" lon="11.1505748"><ele>520.0</ele><time>2026-03-24T09:10:39.618Z</time></trkpt><trkpt lat="45.5949339" lon="11.150565"><ele>520.0</ele><time>2026-03-24T09:10:40.618Z</time></trkpt><trkpt lat="45.5950359" lon="11.1505548"><ele>520.0</ele><time>2026-03-24T09:10:41.617Z</time></trkpt><trkpt lat="45.5951306" lon="11.1505437"><ele>520.0</ele><time>2026-03-24T09:10:42.624Z</time></trkpt><trkpt lat="45.5952245" lon="11.1505346"><ele>520.0</ele><time>2026-03-24T09:10:43.62Z</time></trkpt><trkpt lat="45.5953139" lon="11.1505134"><ele>520.0</ele><time>2026-03-24T09:10:44.62Z</time></trkpt><trkpt lat="45.5953925" lon="11.1504731"><ele>519.6</ele><time>2026-03-24T09:10:45.621Z</time></trkpt><trkpt lat="45.5954706" lon="11.1504071"><ele>519.2</ele><time>2026-03-24T09:10:46.619Z</time></trkpt><trkpt lat="45.5955423" lon="11.1503163"><ele>518.8</ele><time>2026-03-24T09:10:47.618Z</time></trkpt><trkpt lat="45.5956028" lon="11.1501988"><ele>518.4</ele><time>2026-03-24T09:10:48.619Z</time></trkpt><trkpt lat="45.5956477" lon="11.1500651"><ele>518.0</ele><time>2026-03-24T09:10:49.624Z</time></trkpt><trkpt lat="45.5956868" lon="11.1499299"><ele>519.4</ele><time>2026-03-24T09:10:50.625Z</time></trkpt><trkpt lat="45.5957257" lon="11.1498009"><ele>520.8</ele><time>2026-03-24T09:10:51.622Z</time></trkpt><trkpt lat="45.595767" lon="11.1496716"><ele>522.2</ele><time>2026-03-24T09:10:52.627Z</time></trkpt><trkpt lat="45.5958159" lon="11.1495438"><ele>523.6</ele><time>2026-03-24T09:10:53.618Z</time></trkpt><trkpt lat="45.5958781" lon="11.1494219"><ele>525.0</ele><time>2026-03-24T09:10:54.617Z</time></trkpt><trkpt lat="45.595965" lon="11.1493137"><ele>525.0</ele><time>2026-03-24T09:10:55.622Z</time></trkpt><trkpt lat="45.5960637" lon="11.1492248"><ele>525.0</ele><time>2026-03-24T09:10:56.622Z</time></trkpt><trkpt lat="45.5961509" lon="11.1491496"><ele>525.0</ele><time>2026-03-24T09:10:57.623Z</time></trkpt><trkpt lat="45.5962294" lon="11.1490938"><ele>525.0</ele><time>2026-03-24T09:10:58.616Z</time></trkpt><trkpt lat="45.5962952" lon="11.1490415"><ele>525.0</ele><time>2026-03-24T09:10:59.61Z</time></trkpt><trkpt lat="45.5963538" lon="11.1489974"><ele>525.0</ele><time>2026-03-24T09:11:00.617Z</time></trkpt><trkpt lat="45.5964147" lon="11.1489567"><ele>525.6</ele><time>2026-03-24T09:11:01.622Z</time></trkpt><trkpt lat="45.5964871" lon="11.1489111"><ele>526.2</ele><time>2026-03-24T09:11:02.616Z</time></trkpt><trkpt lat="45.5965668" lon="11.1488686"><ele>526.8</ele><time>2026-03-24T09:11:03.609Z</time></trkpt><trkpt lat="45.5966492" lon="11.1488282"><ele>527.4</ele><time>2026-03-24T09:11:04.647Z</time></trkpt><trkpt lat="45.5967507" lon="11.1487905"><ele>528.0</ele><time>2026-03-24T09:11:05.613Z</time></trkpt><trkpt lat="45.5968614" lon="11.1487512"><ele>528.0</ele><time>2026-03-24T09:11:06.615Z</time></trkpt><trkpt lat="45.5969674" lon="11.1487137"><ele>528.0</ele><time>2026-03-24T09:11:07.614Z</time></trkpt><trkpt lat="45.5970582" lon="11.1486731"><ele>528.0</ele><time>2026-03-24T09:11:08.612Z</time></trkpt><trkpt lat="45.5971549" lon="11.1486245"><ele>528.0</ele><time>2026-03-24T09:11:09.615Z</time></trkpt><trkpt lat="45.5972577" lon="11.1485818"><ele>528.0</ele><time>2026-03-24T09:11:10.619Z</time></trkpt><trkpt lat="45.5973552" lon="11.1485295"><ele>528.0</ele><time>2026-03-24T09:11:11.62Z</time></trkpt><trkpt lat="45.5974458" lon="11.1484744"><ele>528.0</ele><time>2026-03-24T09:11:12.626Z</time></trkpt><trkpt lat="45.5975405" lon="11.1484135"><ele>528.0</ele><time>2026-03-24T09:11:13.618Z</time></trkpt><trkpt lat="45.5976383" lon="11.1483446"><ele>528.0</ele><time>2026-03-24T09:11:14.619Z</time></trkpt><trkpt lat="45.59773" lon="11.1482682"><ele>528.0</ele><time>2026-03-24T09:11:15.651Z</time></trkpt><trkpt lat="45.5978091" lon="11.1481886"><ele>527.4</ele><time>2026-03-24T09:11:16.642Z</time></trkpt><trkpt lat="45.5978805" lon="11.1481059"><ele>526.8</ele><time>2026-03-24T09:11:17.65Z</time></trkpt><trkpt lat="45.5979484" lon="11.1480136"><ele>526.2</ele><time>2026-03-24T09:11:18.648Z</time></trkpt><trkpt lat="45.5980223" lon="11.1478932"><ele>525.6</ele><time>2026-03-24T09:11:19.632Z</time></trkpt><trkpt lat="45.5980969" lon="11.1477619"><ele>525.0</ele><time>2026-03-24T09:11:20.65Z</time></trkpt><trkpt lat="45.5981672" lon="11.1476402"><ele>525.0</ele><time>2026-03-24T09:11:21.647Z</time></trkpt><trkpt lat="45.5982369" lon="11.1475275"><ele>525.0</ele><time>2026-03-24T09:11:22.639Z</time></trkpt><trkpt lat="45.598311" lon="11.1474133"><ele>525.0</ele><time>2026-03-24T09:11:23.634Z</time></trkpt><trkpt lat="45.5983949" lon="11.1472966"><ele>525.0</ele><time>2026-03-24T09:11:24.635Z</time></trkpt><trkpt lat="45.5984913" lon="11.1471794"><ele>524.75</ele><time>2026-03-24T09:11:25.631Z</time></trkpt><trkpt lat="45.5985977" lon="11.1470744"><ele>524.5</ele><time>2026-03-24T09:11:26.626Z</time></trkpt><trkpt lat="45.5987108" lon="11.1469676"><ele>524.25</ele><time>2026-03-24T09:11:27.625Z</time></trkpt><trkpt lat="45.5988314" lon="11.1468672"><ele>524.0</ele><time>2026-03-24T09:11:28.63Z</time></trkpt><trkpt lat="45.5989625" lon="11.1467921"><ele>524.0</ele><time>2026-03-24T09:11:29.623Z</time></trkpt><trkpt lat="45.5990946" lon="11.146717"><ele>524.0</ele><time>2026-03-24T09:11:30.626Z</time></trkpt><trkpt lat="45.5992249" lon="11.1465994"><ele>524.0</ele><time>2026-03-24T09:11:31.628Z</time></trkpt><trkpt lat="45.5993553" lon="11.1464889"><ele>524.0</ele><time>2026-03-24T09:11:32.622Z</time></trkpt><trkpt lat="45.5994961" lon="11.1463955"><ele>527.3333333333333</ele><time>2026-03-24T09:11:33.621Z</time></trkpt><trkpt lat="45.5996376" lon="11.1462701"><ele>530.6666666666666</ele><time>2026-03-24T09:11:34.641Z</time></trkpt><trkpt lat="45.5997731" lon="11.1461417"><ele>534.0</ele><time>2026-03-24T09:11:35.618Z</time></trkpt><trkpt lat="45.5999142" lon="11.146009"><ele>534.0</ele><time>2026-03-24T09:11:36.618Z</time></trkpt><trkpt lat="45.6000437" lon="11.1458818"><ele>534.0</ele><time>2026-03-24T09:11:37.623Z</time></trkpt><trkpt lat="45.6001805" lon="11.1457213"><ele>534.0</ele><time>2026-03-24T09:11:38.624Z</time></trkpt><trkpt lat="45.600321" lon="11.1455922"><ele>535.6666666666666</ele><time>2026-03-24T09:11:39.631Z</time></trkpt><trkpt lat="45.600463" lon="11.1454581"><ele>537.3333333333333</ele><time>2026-03-24T09:11:40.633Z</time></trkpt><trkpt lat="45.6006125" lon="11.145315"><ele>539.0</ele><time>2026-03-24T09:11:41.629Z</time></trkpt><trkpt lat="45.6007621" lon="11.1451708"><ele>539.0</ele><time>2026-03-24T09:11:42.622Z</time></trkpt><trkpt lat="45.6008841" lon="11.1450298"><ele>539.0</ele><time>2026-03-24T09:11:43.626Z</time></trkpt><trkpt lat="45.6010107" lon="11.1449051"><ele>539.0</ele><time>2026-03-24T09:11:44.618Z</time></trkpt><trkpt lat="45.6011271" lon="11.1447785"><ele>540.6666666666666</ele><time>2026-03-24T09:11:45.625Z</time></trkpt><trkpt lat="45.6012473" lon="11.1446515"><ele>542.3333333333334</ele><time>2026-03-24T09:11:46.623Z</time></trkpt><trkpt lat="45.6013745" lon="11.1445573"><ele>544.0</ele><time>2026-03-24T09:11:47.626Z</time></trkpt><trkpt lat="45.6015219" lon="11.1444564"><ele>544.0</ele><time>2026-03-24T09:11:48.628Z</time></trkpt><trkpt lat="45.6016501" lon="11.1443614"><ele>544.0</ele><time>2026-03-24T09:11:49.628Z</time></trkpt><trkpt lat="45.6017917" lon="11.144267"><ele>544.0</ele><time>2026-03-24T09:11:50.623Z</time></trkpt><trkpt lat="45.601922" lon="11.1441574"><ele>541.6666666666667</ele><time>2026-03-24T09:11:51.621Z</time></trkpt><trkpt lat="45.602069" lon="11.1440702"><ele>539.3333333333334</ele><time>2026-03-24T09:11:52.618Z</time></trkpt><trkpt lat="45.6022354" lon="11.1439792"><ele>537.0</ele><time>2026-03-24T09:11:53.613Z</time></trkpt><trkpt lat="45.6024004" lon="11.1438682"><ele>544.6666666666666</ele><time>2026-03-24T09:11:54.621Z</time></trkpt><trkpt lat="45.6025382" lon="11.1437574"><ele>552.3333333333333</ele><time>2026-03-24T09:11:55.618Z</time></trkpt><trkpt lat="45.6026727" lon="11.1436474"><ele>560.0</ele><time>2026-03-24T09:11:56.612Z</time></trkpt><trkpt lat="45.6028256" lon="11.1435468"><ele>557.6666666666666</ele><time>2026-03-24T09:11:57.618Z</time></trkpt><trkpt lat="45.6029943" lon="11.1434553"><ele>555.3333333333334</ele><time>2026-03-24T09:11:58.617Z</time></trkpt><trkpt lat="45.6031659" lon="11.1433902"><ele>553.0</ele><time>2026-03-24T09:11:59.611Z</time></trkpt><trkpt lat="45.6033235" lon="11.1433579"><ele>553.0</ele><time>2026-03-24T09:12:00.612Z</time></trkpt><trkpt lat="45.6035208" lon="11.1433554"><ele>553.0</ele><time>2026-03-24T09:12:01.611Z</time></trkpt><trkpt lat="45.6037051" lon="11.1433112"><ele>553.0</ele><time>2026-03-24T09:12:02.605Z</time></trkpt><trkpt lat="45.6038473" lon="11.1432238"><ele>560.3333333333334</ele><time>2026-03-24T09:12:03.607Z</time></trkpt><trkpt lat="45.603994" lon="11.1430995"><ele>567.6666666666666</ele><time>2026-03-24T09:12:04.604Z</time></trkpt><trkpt lat="45.6041501" lon="11.1430123"><ele>575.0</ele><time>2026-03-24T09:12:05.604Z</time></trkpt><trkpt lat="45.6043045" lon="11.1429304"><ele>575.0</ele><time>2026-03-24T09:12:06.611Z</time></trkpt><trkpt lat="45.6044606" lon="11.1428569"><ele>575.0</ele><time>2026-03-24T09:12:07.609Z</time></trkpt><trkpt lat="45.604598" lon="11.1427738"><ele>575.0</ele><time>2026-03-24T09:12:08.61Z</time></trkpt><trkpt lat="45.6047385" lon="11.1427156"><ele>569.5</ele><time>2026-03-24T09:12:09.611Z</time></trkpt><trkpt lat="45.6048686" lon="11.1426602"><ele>564.0</ele><time>2026-03-24T09:12:10.609Z</time></trkpt><trkpt lat="45.6049636" lon="11.1425991"><ele>558.5</ele><time>2026-03-24T09:12:11.611Z</time></trkpt><trkpt lat="45.6050719" lon="11.1425393"><ele>553.0</ele><time>2026-03-24T09:12:12.613Z</time></trkpt><trkpt lat="45.6051749" lon="11.1424953"><ele>553.0</ele><time>2026-03-24T09:12:13.61Z</time></trkpt><trkpt lat="45.6052831" lon="11.1424583"><ele>553.0</ele><time>2026-03-24T09:12:14.62Z</time></trkpt><trkpt lat="45.6053828" lon="11.1423959"><ele>553.0</ele><time>2026-03-24T09:12:15.612Z</time></trkpt><trkpt lat="45.6054706" lon="11.1422856"><ele>553.0</ele><time>2026-03-24T09:12:16.616Z</time></trkpt><trkpt lat="45.6055657" lon="11.1421478"><ele>556.6666666666667</ele><time>2026-03-24T09:12:17.611Z</time></trkpt><trkpt lat="45.6056647" lon="11.141984"><ele>560.3333333333334</ele><time>2026-03-24T09:12:18.621Z</time></trkpt><trkpt lat="45.6057701" lon="11.1418099"><ele>564.0</ele><time>2026-03-24T09:12:19.62Z</time></trkpt><trkpt lat="45.605905" lon="11.1416159"><ele>566.0</ele><time>2026-03-24T09:12:20.615Z</time></trkpt><trkpt lat="45.6060308" lon="11.1414992"><ele>568.0</ele><time>2026-03-24T09:12:21.617Z</time></trkpt><trkpt lat="45.6061637" lon="11.1414161"><ele>570.0</ele><time>2026-03-24T09:12:22.618Z</time></trkpt><trkpt lat="45.6063196" lon="11.1413613"><ele>570.0</ele><time>2026-03-24T09:12:23.62Z</time></trkpt><trkpt lat="45.6064434" lon="11.1412952"><ele>570.0</ele><time>2026-03-24T09:12:24.615Z</time></trkpt><trkpt lat="45.6065424" lon="11.1412467"><ele>570.0</ele><time>2026-03-24T09:12:25.605Z</time></trkpt><trkpt lat="45.6066585" lon="11.1411871"><ele>570.0</ele><time>2026-03-24T09:12:26.618Z</time></trkpt><trkpt lat="45.6067566" lon="11.1410864"><ele>570.0</ele><time>2026-03-24T09:12:27.609Z</time></trkpt><trkpt lat="45.6068657" lon="11.1409697"><ele>570.0</ele><time>2026-03-24T09:12:28.613Z</time></trkpt><trkpt lat="45.6069866" lon="11.1408495"><ele>570.0</ele><time>2026-03-24T09:12:29.613Z</time></trkpt><trkpt lat="45.6071294" lon="11.1407462"><ele>570.0</ele><time>2026-03-24T09:12:30.615Z</time></trkpt><trkpt lat="45.607259" lon="11.1406239"><ele>572.0</ele><time>2026-03-24T09:12:31.614Z</time></trkpt><trkpt lat="45.607372" lon="11.1405183"><ele>574.0</ele><time>2026-03-24T09:12:32.615Z</time></trkpt><trkpt lat="45.6074922" lon="11.1404215"><ele>576.0</ele><time>2026-03-24T09:12:33.613Z</time></trkpt><trkpt lat="45.6076013" lon="11.1403693"><ele>578.0</ele><time>2026-03-24T09:12:34.622Z</time></trkpt><trkpt lat="45.6077327" lon="11.1403589"><ele>573.25</ele><time>2026-03-24T09:12:35.615Z</time></trkpt><trkpt lat="45.6078721" lon="11.1403727"><ele>568.5</ele><time>2026-03-24T09:12:36.609Z</time></trkpt><trkpt lat="45.6079713" lon="11.1404224"><ele>563.75</ele><time>2026-03-24T09:12:37.616Z</time></trkpt><trkpt lat="45.6080823" lon="11.1405348"><ele>559.0</ele><time>2026-03-24T09:12:38.614Z</time></trkpt><trkpt lat="45.6081941" lon="11.1406443"><ele>558.75</ele><time>2026-03-24T09:12:39.614Z</time></trkpt><trkpt lat="45.6082896" lon="11.1407779"><ele>558.5</ele><time>2026-03-24T09:12:40.613Z</time></trkpt><trkpt lat="45.6083857" lon="11.1408939"><ele>558.25</ele><time>2026-03-24T09:12:41.615Z</time></trkpt><trkpt lat="45.6085044" lon="11.1409917"><ele>558.0</ele><time>2026-03-24T09:12:42.618Z</time></trkpt><trkpt lat="45.608596" lon="11.1410616"><ele>561.0</ele><time>2026-03-24T09:12:43.614Z</time></trkpt><trkpt lat="45.6086826" lon="11.1411145"><ele>564.0</ele><time>2026-03-24T09:12:44.616Z</time></trkpt><trkpt lat="45.6087703" lon="11.1411229"><ele>567.0</ele><time>2026-03-24T09:12:45.615Z</time></trkpt><trkpt lat="45.60887" lon="11.1410191"><ele>570.0</ele><time>2026-03-24T09:12:46.621Z</time></trkpt><trkpt lat="45.6089753" lon="11.1408781"><ele>570.0</ele><time>2026-03-24T09:12:47.616Z</time></trkpt><trkpt lat="45.6090809" lon="11.1407372"><ele>570.0</ele><time>2026-03-24T09:12:48.62Z</time></trkpt><trkpt lat="45.6091781" lon="11.1406182"><ele>570.0</ele><time>2026-03-24T09:12:49.622Z</time></trkpt><trkpt lat="45.6092687" lon="11.1405187"><ele>570.0</ele><time>2026-03-24T09:12:50.622Z</time></trkpt><trkpt lat="45.6093631" lon="11.1404403"><ele>569.4</ele><time>2026-03-24T09:12:51.624Z</time></trkpt><trkpt lat="45.6094474" lon="11.140359"><ele>568.8</ele><time>2026-03-24T09:12:52.625Z</time></trkpt><trkpt lat="45.6095319" lon="11.1402658"><ele>568.2</ele><time>2026-03-24T09:12:53.628Z</time></trkpt><trkpt lat="45.6096185" lon="11.1401715"><ele>567.6</ele><time>2026-03-24T09:12:54.626Z</time></trkpt><trkpt lat="45.6097132" lon="11.1400808"><ele>567.0</ele><time>2026-03-24T09:12:55.623Z</time></trkpt><trkpt lat="45.6098104" lon="11.1399915"><ele>567.0</ele><time>2026-03-24T09:12:56.625Z</time></trkpt><trkpt lat="45.609914" lon="11.1398963"><ele>567.0</ele><time>2026-03-24T09:12:57.611Z</time></trkpt><trkpt lat="45.6100228" lon="11.1398015"><ele>567.0</ele><time>2026-03-24T09:12:58.619Z</time></trkpt><trkpt lat="45.6101379" lon="11.1397119"><ele>567.0</ele><time>2026-03-24T09:12:59.618Z</time></trkpt><trkpt lat="45.610252" lon="11.1396297"><ele>567.25</ele><time>2026-03-24T09:13:00.619Z</time></trkpt><trkpt lat="45.6103658" lon="11.1395527"><ele>567.5</ele><time>2026-03-24T09:13:01.625Z</time></trkpt><trkpt lat="45.6104748" lon="11.1394716"><ele>567.75</ele><time>2026-03-24T09:13:02.618Z</time></trkpt><trkpt lat="45.6105807" lon="11.1393901"><ele>568.0</ele><time>2026-03-24T09:13:03.614Z</time></trkpt><trkpt lat="45.6106873" lon="11.139314"><ele>568.0</ele><time>2026-03-24T09:13:04.615Z</time></trkpt><trkpt lat="45.610795" lon="11.1392424"><ele>568.0</ele><time>2026-03-24T09:13:05.616Z</time></trkpt><trkpt lat="45.610903" lon="11.1391837"><ele>568.0</ele><time>2026-03-24T09:13:06.613Z</time></trkpt><trkpt lat="45.6110073" lon="11.1391391"><ele>568.0</ele><time>2026-03-24T09:13:07.614Z</time></trkpt><trkpt lat="45.6111109" lon="11.1390989"><ele>568.4</ele><time>2026-03-24T09:13:08.61Z</time></trkpt><trkpt lat="45.6112114" lon="11.1390449"><ele>568.8</ele><time>2026-03-24T09:13:09.612Z</time></trkpt><trkpt lat="45.6113115" lon="11.1389737"><ele>569.2</ele><time>2026-03-24T09:13:10.611Z</time></trkpt><trkpt lat="45.6114039" lon="11.1388937"><ele>569.6</ele><time>2026-03-24T09:13:11.613Z</time></trkpt><trkpt lat="45.6114918" lon="11.1388136"><ele>570.0</ele><time>2026-03-24T09:13:12.618Z</time></trkpt><trkpt lat="45.6115776" lon="11.1387287"><ele>570.0</ele><time>2026-03-24T09:13:13.61Z</time></trkpt><trkpt lat="45.6116685" lon="11.1386474"><ele>570.0</ele><time>2026-03-24T09:13:14.615Z</time></trkpt><trkpt lat="45.6117572" lon="11.1385719"><ele>570.0</ele><time>2026-03-24T09:13:15.609Z</time></trkpt><trkpt lat="45.6118402" lon="11.1384975"><ele>570.0</ele><time>2026-03-24T09:13:16.609Z</time></trkpt><trkpt lat="45.6119236" lon="11.1384314"><ele>570.0</ele><time>2026-03-24T09:13:17.616Z</time></trkpt><trkpt lat="45.6120124" lon="11.1383662"><ele>570.2</ele><time>2026-03-24T09:13:18.611Z</time></trkpt><trkpt lat="45.6120832" lon="11.1383082"><ele>570.4</ele><time>2026-03-24T09:13:19.613Z</time></trkpt><trkpt lat="45.6121418" lon="11.1382651"><ele>570.6</ele><time>2026-03-24T09:13:20.613Z</time></trkpt><trkpt lat="45.6122336" lon="11.1381662"><ele>570.8</ele><time>2026-03-24T09:13:22.618Z</time></trkpt><trkpt lat="45.6123047" lon="11.1380868"><ele>571.0</ele><time>2026-03-24T09:13:24.608Z</time></trkpt><trkpt lat="45.6124069" lon="11.1380117"><ele>571.0</ele><time>2026-03-24T09:13:26.604Z</time></trkpt><trkpt lat="45.6124775" lon="11.1380207"><ele>571.0</ele><time>2026-03-24T09:13:27.612Z</time></trkpt><trkpt lat="45.6125611" lon="11.1380284"><ele>571.0</ele><time>2026-03-24T09:13:28.614Z</time></trkpt><trkpt lat="45.6126538" lon="11.1380335"><ele>571.0</ele><time>2026-03-24T09:13:29.613Z</time></trkpt><trkpt lat="45.6127516" lon="11.1380392"><ele>571.0</ele><time>2026-03-24T09:13:30.619Z</time></trkpt><trkpt lat="45.6128447" lon="11.1380368"><ele>571.0</ele><time>2026-03-24T09:13:31.62Z</time></trkpt><trkpt lat="45.6129388" lon="11.1380306"><ele>571.6</ele><time>2026-03-24T09:13:32.62Z</time></trkpt><trkpt lat="45.6130409" lon="11.1380381"><ele>572.2</ele><time>2026-03-24T09:13:33.623Z</time></trkpt><trkpt lat="45.6131458" lon="11.1380462"><ele>572.8</ele><time>2026-03-24T09:13:34.622Z</time></trkpt><trkpt lat="45.6132499" lon="11.1380513"><ele>573.4</ele><time>2026-03-24T09:13:35.618Z</time></trkpt><trkpt lat="45.6133512" lon="11.1380604"><ele>574.0</ele><time>2026-03-24T09:13:36.617Z</time></trkpt><trkpt lat="45.613453" lon="11.1380776"><ele>574.0</ele><time>2026-03-24T09:13:37.618Z</time></trkpt><trkpt lat="45.6135565" lon="11.1381103"><ele>574.0</ele><time>2026-03-24T09:13:38.619Z</time></trkpt><trkpt lat="45.61366" lon="11.1381669"><ele>574.0</ele><time>2026-03-24T09:13:39.612Z</time></trkpt><trkpt lat="45.6137625" lon="11.1382326"><ele>574.0</ele><time>2026-03-24T09:13:40.618Z</time></trkpt><trkpt lat="45.6138687" lon="11.1382992"><ele>574.0</ele><time>2026-03-24T09:13:41.612Z</time></trkpt><trkpt lat="45.613978" lon="11.1383483"><ele>577.25</ele><time>2026-03-24T09:13:42.612Z</time></trkpt><trkpt lat="45.6140965" lon="11.138385"><ele>580.5</ele><time>2026-03-24T09:13:43.617Z</time></trkpt><trkpt lat="45.614217" lon="11.1384009"><ele>583.75</ele><time>2026-03-24T09:13:44.617Z</time></trkpt><trkpt lat="45.6143437" lon="11.138397"><ele>587.0</ele><time>2026-03-24T09:13:45.612Z</time></trkpt><trkpt lat="45.6144837" lon="11.1383739"><ele>588.75</ele><time>2026-03-24T09:13:46.615Z</time></trkpt><trkpt lat="45.6146226" lon="11.1383158"><ele>590.5</ele><time>2026-03-24T09:13:47.617Z</time></trkpt><trkpt lat="45.6147408" lon="11.138265"><ele>592.25</ele><time>2026-03-24T09:13:48.618Z</time></trkpt><trkpt lat="45.6148284" lon="11.1382325"><ele>594.0</ele><time>2026-03-24T09:13:49.622Z</time></trkpt><trkpt lat="45.6149341" lon="11.1381734"><ele>592.6</ele><time>2026-03-24T09:13:51.613Z</time></trkpt><trkpt lat="45.614994" lon="11.1381408"><ele>591.2</ele><time>2026-03-24T09:14:11.615Z</time></trkpt><trkpt lat="45.6150654" lon="11.1380622"><ele>589.8000000000001</ele><time>2026-03-24T09:14:13.621Z</time></trkpt><trkpt lat="45.6151496" lon="11.1379768"><ele>588.4</ele><time>2026-03-24T09:14:14.621Z</time></trkpt><trkpt lat="45.6152435" lon="11.1378848"><ele>587.0</ele><time>2026-03-24T09:14:15.61Z</time></trkpt><trkpt lat="45.6153575" lon="11.137799"><ele>587.0</ele><time>2026-03-24T09:14:16.609Z</time></trkpt><trkpt lat="45.6154722" lon="11.1377217"><ele>587.0</ele><time>2026-03-24T09:14:17.611Z</time></trkpt><trkpt lat="45.6156039" lon="11.1376696"><ele>587.0</ele><time>2026-03-24T09:14:18.615Z</time></trkpt><trkpt lat="45.6157438" lon="11.1376427"><ele>587.0</ele><time>2026-03-24T09:14:19.622Z</time></trkpt><trkpt lat="45.6158938" lon="11.1376304"><ele>587.0</ele><time>2026-03-24T09:14:20.618Z</time></trkpt><trkpt lat="45.6160709" lon="11.1376434"><ele>587.0</ele><time>2026-03-24T09:14:21.624Z</time></trkpt><trkpt lat="45.6162388" lon="11.1376338"><ele>587.0</ele><time>2026-03-24T09:14:22.621Z</time></trkpt><trkpt lat="45.6163923" lon="11.1376027"><ele>587.5</ele><time>2026-03-24T09:14:23.623Z</time></trkpt><trkpt lat="45.6165227" lon="11.1375758"><ele>588.0</ele><time>2026-03-24T09:14:24.619Z</time></trkpt><trkpt lat="45.6166472" lon="11.1375622"><ele>588.5</ele><time>2026-03-24T09:14:25.62Z</time></trkpt><trkpt lat="45.6167785" lon="11.1375272"><ele>589.0</ele><time>2026-03-24T09:14:26.618Z</time></trkpt><trkpt lat="45.6168843" lon="11.1374883"><ele>588.0</ele><time>2026-03-24T09:14:27.619Z</time></trkpt><trkpt lat="45.6170163" lon="11.1374481"><ele>587.0</ele><time>2026-03-24T09:14:28.621Z</time></trkpt><trkpt lat="45.6171419" lon="11.1373779"><ele>586.0</ele><time>2026-03-24T09:14:29.618Z</time></trkpt><trkpt lat="45.6173069" lon="11.1373239"><ele>585.0</ele><time>2026-03-24T09:14:30.616Z</time></trkpt><trkpt lat="45.6174404" lon="11.1372879"><ele>585.0</ele><time>2026-03-24T09:14:31.621Z</time></trkpt><trkpt lat="45.6175632" lon="11.1372155"><ele>585.0</ele><time>2026-03-24T09:14:32.615Z</time></trkpt><trkpt lat="45.6177029" lon="11.1371702"><ele>585.0</ele><time>2026-03-24T09:14:33.617Z</time></trkpt><trkpt lat="45.617858" lon="11.1371539"><ele>585.0</ele><time>2026-03-24T09:14:34.618Z</time></trkpt><trkpt lat="45.6180205" lon="11.1371217"><ele>586.3333333333334</ele><time>2026-03-24T09:14:35.612Z</time></trkpt><trkpt lat="45.6181738" lon="11.1370846"><ele>587.6666666666667</ele><time>2026-03-24T09:14:36.615Z</time></trkpt><trkpt lat="45.618314" lon="11.1370133"><ele>589.0</ele><time>2026-03-24T09:14:37.615Z</time></trkpt><trkpt lat="45.6184511" lon="11.1369219"><ele>589.0</ele><time>2026-03-24T09:14:38.615Z</time></trkpt><trkpt lat="45.6185927" lon="11.1368418"><ele>589.0</ele><time>2026-03-24T09:14:39.615Z</time></trkpt><trkpt lat="45.6187416" lon="11.1367871"><ele>589.0</ele><time>2026-03-24T09:14:40.619Z</time></trkpt><trkpt lat="45.6188956" lon="11.1367483"><ele>593.6666666666667</ele><time>2026-03-24T09:14:41.615Z</time></trkpt><trkpt lat="45.6190605" lon="11.1367269"><ele>598.3333333333334</ele><time>2026-03-24T09:14:42.622Z</time></trkpt><trkpt lat="45.6192142" lon="11.1366811"><ele>603.0</ele><time>2026-03-24T09:14:43.613Z</time></trkpt><trkpt lat="45.6193586" lon="11.1366226"><ele>600.6666666666666</ele><time>2026-03-24T09:14:44.618Z</time></trkpt><trkpt lat="45.6194976" lon="11.1365327"><ele>598.3333333333333</ele><time>2026-03-24T09:14:45.611Z</time></trkpt><trkpt lat="45.6196378" lon="11.1364176"><ele>596.0</ele><time>2026-03-24T09:14:46.618Z</time></trkpt><trkpt lat="45.6197695" lon="11.1362808"><ele>596.0</ele><time>2026-03-24T09:14:47.611Z</time></trkpt><trkpt lat="45.6198752" lon="11.1361014"><ele>596.0</ele><time>2026-03-24T09:14:48.616Z</time></trkpt><trkpt lat="45.6199916" lon="11.1359548"><ele>596.0</ele><time>2026-03-24T09:14:49.621Z</time></trkpt><trkpt lat="45.6201118" lon="11.1357898"><ele>597.0</ele><time>2026-03-24T09:14:50.62Z</time></trkpt><trkpt lat="45.6202301" lon="11.1356281"><ele>598.0</ele><time>2026-03-24T09:14:51.619Z</time></trkpt><trkpt lat="45.6203413" lon="11.1354732"><ele>599.0</ele><time>2026-03-24T09:14:52.62Z</time></trkpt><trkpt lat="45.6204495" lon="11.1353199"><ele>599.0</ele><time>2026-03-24T09:14:53.624Z</time></trkpt><trkpt lat="45.6205532" lon="11.1351572"><ele>599.0</ele><time>2026-03-24T09:14:54.622Z</time></trkpt><trkpt lat="45.6206667" lon="11.1350461"><ele>599.0</ele><time>2026-03-24T09:14:55.617Z</time></trkpt><trkpt lat="45.6207771" lon="11.1349251"><ele>599.0</ele><time>2026-03-24T09:14:56.624Z</time></trkpt><trkpt lat="45.6208938" lon="11.1347995"><ele>599.6666666666666</ele><time>2026-03-24T09:14:57.622Z</time></trkpt><trkpt lat="45.6210156" lon="11.1346735"><ele>600.3333333333334</ele><time>2026-03-24T09:14:58.629Z</time></trkpt><trkpt lat="45.6211365" lon="11.1345384"><ele>601.0</ele><time>2026-03-24T09:14:59.625Z</time></trkpt><trkpt lat="45.62128" lon="11.1344259"><ele>602.3333333333334</ele><time>2026-03-24T09:15:00.624Z</time></trkpt><trkpt lat="45.62142" lon="11.1343279"><ele>603.6666666666666</ele><time>2026-03-24T09:15:01.628Z</time></trkpt><trkpt lat="45.6215731" lon="11.1342492"><ele>605.0</ele><time>2026-03-24T09:15:02.621Z</time></trkpt><trkpt lat="45.6217027" lon="11.1341583"><ele>605.0</ele><time>2026-03-24T09:15:03.622Z</time></trkpt><trkpt lat="45.6218267" lon="11.1340623"><ele>605.0</ele><time>2026-03-24T09:15:04.622Z</time></trkpt><trkpt lat="45.621959" lon="11.1339663"><ele>605.0</ele><time>2026-03-24T09:15:05.619Z</time></trkpt><trkpt lat="45.6221095" lon="11.1338805"><ele>605.3333333333333</ele><time>2026-03-24T09:15:06.613Z</time></trkpt><trkpt lat="45.6222638" lon="11.1337958"><ele>605.6666666666666</ele><time>2026-03-24T09:15:07.61Z</time></trkpt><trkpt lat="45.6224382" lon="11.1336894"><ele>606.0</ele><time>2026-03-24T09:15:08.614Z</time></trkpt><trkpt lat="45.6225791" lon="11.1335754"><ele>606.0</ele><time>2026-03-24T09:15:09.611Z</time></trkpt><trkpt lat="45.6226994" lon="11.1334576"><ele>606.0</ele><time>2026-03-24T09:15:10.612Z</time></trkpt><trkpt lat="45.6228255" lon="11.133344"><ele>606.0</ele><time>2026-03-24T09:15:11.612Z</time></trkpt><trkpt lat="45.6229392" lon="11.13321"><ele>606.0</ele><time>2026-03-24T09:15:12.608Z</time></trkpt><trkpt lat="45.6230376" lon="11.133064"><ele>607.5</ele><time>2026-03-24T09:15:13.624Z</time></trkpt><trkpt lat="45.6231306" lon="11.1329152"><ele>609.0</ele><time>2026-03-24T09:15:14.621Z</time></trkpt><trkpt lat="45.623234" lon="11.1327938"><ele>610.5</ele><time>2026-03-24T09:15:15.621Z</time></trkpt><trkpt lat="45.6233322" lon="11.1326674"><ele>612.0</ele><time>2026-03-24T09:15:16.618Z</time></trkpt><trkpt lat="45.6234391" lon="11.1325646"><ele>612.0</ele><time>2026-03-24T09:15:17.614Z</time></trkpt><trkpt lat="45.6235427" lon="11.1324818"><ele>612.0</ele><time>2026-03-24T09:15:18.61Z</time></trkpt><trkpt lat="45.6237262" lon="11.1324945"><ele>612.0</ele><time>2026-03-24T09:15:19.617Z</time></trkpt><trkpt lat="45.6238855" lon="11.132482"><ele>613.0</ele><time>2026-03-24T09:15:20.615Z</time></trkpt><trkpt lat="45.6240489" lon="11.1324541"><ele>614.0</ele><time>2026-03-24T09:15:21.614Z</time></trkpt><trkpt lat="45.6242132" lon="11.132426"><ele>615.0</ele><time>2026-03-24T09:15:22.613Z</time></trkpt><trkpt lat="45.6243625" lon="11.132392"><ele>615.3333333333334</ele><time>2026-03-24T09:15:23.616Z</time></trkpt><trkpt lat="45.6245289" lon="11.1323373"><ele>615.6666666666667</ele><time>2026-03-24T09:15:24.615Z</time></trkpt><trkpt lat="45.6246994" lon="11.1323041"><ele>616.0</ele><time>2026-03-24T09:15:25.614Z</time></trkpt><trkpt lat="45.6248769" lon="11.132278"><ele>616.0</ele><time>2026-03-24T09:15:26.613Z</time></trkpt><trkpt lat="45.6250515" lon="11.1322351"><ele>616.0</ele><time>2026-03-24T09:15:27.612Z</time></trkpt><trkpt lat="45.6251914" lon="11.1321816"><ele>616.0</ele><time>2026-03-24T09:15:28.616Z</time></trkpt><trkpt lat="45.625347" lon="11.1321474"><ele>617.75</ele><time>2026-03-24T09:15:29.614Z</time></trkpt><trkpt lat="45.6254837" lon="11.1321154"><ele>619.5</ele><time>2026-03-24T09:15:30.613Z</time></trkpt><trkpt lat="45.6256157" lon="11.1320591"><ele>621.25</ele><time>2026-03-24T09:15:31.618Z</time></trkpt><trkpt lat="45.6257351" lon="11.1320247"><ele>623.0</ele><time>2026-03-24T09:15:32.613Z</time></trkpt><trkpt lat="45.6258509" lon="11.1319873"><ele>623.0</ele><time>2026-03-24T09:15:33.612Z</time></trkpt><trkpt lat="45.6259439" lon="11.1319519"><ele>623.0</ele><time>2026-03-24T09:15:34.614Z</time></trkpt><trkpt lat="45.6260338" lon="11.1319277"><ele>623.0</ele><time>2026-03-24T09:15:35.622Z</time></trkpt><trkpt lat="45.626124" lon="11.1318866"><ele>623.0</ele><time>2026-03-24T09:15:36.617Z</time></trkpt><trkpt lat="45.6262222" lon="11.1318754"><ele>623.0</ele><time>2026-03-24T09:15:37.607Z</time></trkpt><trkpt lat="45.626301" lon="11.1318377"><ele>624.1999999999999</ele><time>2026-03-24T09:15:38.61Z</time></trkpt><trkpt lat="45.6263802" lon="11.1318112"><ele>625.4</ele><time>2026-03-24T09:15:39.61Z</time></trkpt><trkpt lat="45.6264928" lon="11.131797"><ele>626.5999999999999</ele><time>2026-03-24T09:15:40.61Z</time></trkpt><trkpt lat="45.6266247" lon="11.1317884"><ele>627.8</ele><time>2026-03-24T09:15:41.608Z</time></trkpt><trkpt lat="45.6267376" lon="11.1317601"><ele>629.0</ele><time>2026-03-24T09:15:42.607Z</time></trkpt><trkpt lat="45.6268425" lon="11.1316999"><ele>629.0</ele><time>2026-03-24T09:15:43.613Z</time></trkpt><trkpt lat="45.6269487" lon="11.1316198"><ele>629.0</ele><time>2026-03-24T09:15:44.614Z</time></trkpt><trkpt lat="45.6270388" lon="11.1315286"><ele>629.0</ele><time>2026-03-24T09:15:45.62Z</time></trkpt><trkpt lat="45.6271193" lon="11.1314415"><ele>629.0</ele><time>2026-03-24T09:15:46.614Z</time></trkpt><trkpt lat="45.627192" lon="11.1313587"><ele>629.0</ele><time>2026-03-24T09:15:47.615Z</time></trkpt><trkpt lat="45.6272472" lon="11.1312664"><ele>629.0</ele><time>2026-03-24T09:15:48.614Z</time></trkpt><trkpt lat="45.6272774" lon="11.1311705"><ele>629.0</ele><time>2026-03-24T09:15:49.615Z</time></trkpt><trkpt lat="45.6272932" lon="11.1310734"><ele>629.0</ele><time>2026-03-24T09:15:50.619Z</time></trkpt><trkpt lat="45.6272646" lon="11.1309929"><ele>629.0</ele><time>2026-03-24T09:15:51.616Z</time></trkpt><trkpt lat="45.6271908" lon="11.1309311"><ele>629.0</ele><time>2026-03-24T09:15:52.614Z</time></trkpt><trkpt lat="45.6270899" lon="11.1308649"><ele>629.0</ele><time>2026-03-24T09:15:53.619Z</time></trkpt><trkpt lat="45.6269708" lon="11.1307949"><ele>636.5</ele><time>2026-03-24T09:15:54.617Z</time></trkpt><trkpt lat="45.6268566" lon="11.1307176"><ele>644.0</ele><time>2026-03-24T09:15:55.617Z</time></trkpt><trkpt lat="45.6267486" lon="11.1306531"><ele>651.5</ele><time>2026-03-24T09:15:56.613Z</time></trkpt><trkpt lat="45.6266321" lon="11.1306085"><ele>659.0</ele><time>2026-03-24T09:15:57.62Z</time></trkpt><trkpt lat="45.6265066" lon="11.1305753"><ele>659.0</ele><time>2026-03-24T09:15:58.617Z</time></trkpt><trkpt lat="45.6263674" lon="11.1305558"><ele>659.0</ele><time>2026-03-24T09:15:59.62Z</time></trkpt><trkpt lat="45.6262194" lon="11.130544"><ele>659.0</ele><time>2026-03-24T09:16:00.612Z</time></trkpt><trkpt lat="45.6260379" lon="11.1305371"><ele>659.0</ele><time>2026-03-24T09:16:01.614Z</time></trkpt><trkpt lat="45.6258127" lon="11.1304922"><ele>659.0</ele><time>2026-03-24T09:16:02.617Z</time></trkpt><trkpt lat="45.6256264" lon="11.13046"><ele>659.0</ele><time>2026-03-24T09:16:03.616Z</time></trkpt><trkpt lat="45.6254973" lon="11.1304184"><ele>659.0</ele><time>2026-03-24T09:16:04.619Z</time></trkpt><trkpt lat="45.6253642" lon="11.1304044"><ele>659.0</ele><time>2026-03-24T09:16:05.611Z</time></trkpt><trkpt lat="45.6252676" lon="11.1304078"><ele>659.0</ele><time>2026-03-24T09:16:06.617Z</time></trkpt><trkpt lat="45.6251516" lon="11.1304446"><ele>659.0</ele><time>2026-03-24T09:16:07.614Z</time></trkpt><trkpt lat="45.6250384" lon="11.1304856"><ele>660.0</ele><time>2026-03-24T09:16:08.614Z</time></trkpt><trkpt lat="45.6249256" lon="11.130515"><ele>661.0</ele><time>2026-03-24T09:16:09.62Z</time></trkpt><trkpt lat="45.6247999" lon="11.1305219"><ele>662.0</ele><time>2026-03-24T09:16:10.618Z</time></trkpt><trkpt lat="45.6246711" lon="11.1305226"><ele>663.0</ele><time>2026-03-24T09:16:11.622Z</time></trkpt><trkpt lat="45.624528" lon="11.1305291"><ele>665.0</ele><time>2026-03-24T09:16:12.618Z</time></trkpt><trkpt lat="45.6243751" lon="11.1305634"><ele>667.0</ele><time>2026-03-24T09:16:13.617Z</time></trkpt><trkpt lat="45.6242518" lon="11.1305641"><ele>669.0</ele><time>2026-03-24T09:16:14.617Z</time></trkpt><trkpt lat="45.6241336" lon="11.1305217"><ele>671.0</ele><time>2026-03-24T09:16:15.618Z</time></trkpt><trkpt lat="45.6240276" lon="11.1304689"><ele>671.0</ele><time>2026-03-24T09:16:16.623Z</time></trkpt><trkpt lat="45.6239147" lon="11.1303996"><ele>671.0</ele><time>2026-03-24T09:16:17.619Z</time></trkpt><trkpt lat="45.6238239" lon="11.1303058"><ele>671.0</ele><time>2026-03-24T09:16:18.622Z</time></trkpt><trkpt lat="45.6237338" lon="11.1303034"><ele>671.0</ele><time>2026-03-24T09:16:19.623Z</time></trkpt><trkpt lat="45.6236466" lon="11.1303113"><ele>671.0</ele><time>2026-03-24T09:16:20.625Z</time></trkpt><trkpt lat="45.6235585" lon="11.1303384"><ele>673.0</ele><time>2026-03-24T09:16:21.629Z</time></trkpt><trkpt lat="45.6234689" lon="11.1303905"><ele>675.0</ele><time>2026-03-24T09:16:22.62Z</time></trkpt><trkpt lat="45.6233738" lon="11.1304436"><ele>677.0</ele><time>2026-03-24T09:16:23.627Z</time></trkpt><trkpt lat="45.6232697" lon="11.1304955"><ele>679.0</ele><time>2026-03-24T09:16:24.623Z</time></trkpt><trkpt lat="45.6231549" lon="11.1305607"><ele>681.0</ele><time>2026-03-24T09:16:25.631Z</time></trkpt><trkpt lat="45.6230348" lon="11.130638"><ele>681.0</ele><time>2026-03-24T09:16:26.627Z</time></trkpt><trkpt lat="45.6229285" lon="11.1307004"><ele>681.0</ele><time>2026-03-24T09:16:27.626Z</time></trkpt><trkpt lat="45.6228285" lon="11.130738"><ele>681.0</ele><time>2026-03-24T09:16:28.631Z</time></trkpt><trkpt lat="45.6227152" lon="11.1307582"><ele>681.0</ele><time>2026-03-24T09:16:29.628Z</time></trkpt><trkpt lat="45.6225895" lon="11.1307663"><ele>679.5</ele><time>2026-03-24T09:16:30.622Z</time></trkpt><trkpt lat="45.6224562" lon="11.1307866"><ele>678.0</ele><time>2026-03-24T09:16:31.622Z</time></trkpt><trkpt lat="45.6223125" lon="11.1308153"><ele>676.5</ele><time>2026-03-24T09:16:32.626Z</time></trkpt><trkpt lat="45.6221535" lon="11.1308726"><ele>675.0</ele><time>2026-03-24T09:16:33.622Z</time></trkpt><trkpt lat="45.6220207" lon="11.1309784"><ele>681.25</ele><time>2026-03-24T09:16:34.628Z</time></trkpt><trkpt lat="45.6218874" lon="11.1310756"><ele>687.5</ele><time>2026-03-24T09:16:35.63Z</time></trkpt><trkpt lat="45.6217565" lon="11.1311486"><ele>693.75</ele><time>2026-03-24T09:16:36.627Z</time></trkpt><trkpt lat="45.6216422" lon="11.1312286"><ele>700.0</ele><time>2026-03-24T09:16:37.621Z</time></trkpt><trkpt lat="45.6215365" lon="11.1312627"><ele>700.0</ele><time>2026-03-24T09:16:38.621Z</time></trkpt><trkpt lat="45.6214387" lon="11.1312758"><ele>700.0</ele><time>2026-03-24T09:16:39.622Z</time></trkpt><trkpt lat="45.6213334" lon="11.1312757"><ele>700.0</ele><time>2026-03-24T09:16:40.629Z</time></trkpt><trkpt lat="45.6212184" lon="11.1312954"><ele>700.0</ele><time>2026-03-24T09:16:41.622Z</time></trkpt><trkpt lat="45.6211178" lon="11.1313769"><ele>700.0</ele><time>2026-03-24T09:16:42.631Z</time></trkpt><trkpt lat="45.6210444" lon="11.1314605"><ele>698.4</ele><time>2026-03-24T09:16:43.62Z</time></trkpt><trkpt lat="45.6209749" lon="11.1315348"><ele>696.8</ele><time>2026-03-24T09:16:44.617Z</time></trkpt><trkpt lat="45.620898" lon="11.1316022"><ele>695.2</ele><time>2026-03-24T09:16:45.609Z</time></trkpt><trkpt lat="45.6208082" lon="11.1316796"><ele>693.6</ele><time>2026-03-24T09:16:46.617Z</time></trkpt><trkpt lat="45.6207059" lon="11.1317077"><ele>692.0</ele><time>2026-03-24T09:16:47.61Z</time></trkpt><trkpt lat="45.6205713" lon="11.1317459"><ele>692.0</ele><time>2026-03-24T09:16:48.62Z</time></trkpt><trkpt lat="45.6204372" lon="11.131791"><ele>692.0</ele><time>2026-03-24T09:16:49.621Z</time></trkpt><trkpt lat="45.6203103" lon="11.1318176"><ele>692.0</ele><time>2026-03-24T09:16:50.622Z</time></trkpt><trkpt lat="45.6201909" lon="11.1318238"><ele>692.0</ele><time>2026-03-24T09:16:51.619Z</time></trkpt><trkpt lat="45.6200821" lon="11.1318206"><ele>696.2</ele><time>2026-03-24T09:16:52.62Z</time></trkpt><trkpt lat="45.619982" lon="11.1318377"><ele>700.4000000000001</ele><time>2026-03-24T09:16:53.624Z</time></trkpt><trkpt lat="45.6198952" lon="11.1318603"><ele>704.5999999999999</ele><time>2026-03-24T09:16:54.62Z</time></trkpt><trkpt lat="45.619787" lon="11.1319057"><ele>708.8</ele><time>2026-03-24T09:16:55.621Z</time></trkpt><trkpt lat="45.6196668" lon="11.1319732"><ele>713.0</ele><time>2026-03-24T09:16:56.617Z</time></trkpt><trkpt lat="45.6195268" lon="11.1320587"><ele>721.3333333333333</ele><time>2026-03-24T09:16:57.616Z</time></trkpt><trkpt lat="45.6193651" lon="11.1321623"><ele>729.6666666666666</ele><time>2026-03-24T09:16:58.619Z</time></trkpt><trkpt lat="45.6192276" lon="11.132257"><ele>738.0</ele><time>2026-03-24T09:16:59.624Z</time></trkpt><trkpt lat="45.6190951" lon="11.1322908"><ele>738.0</ele><time>2026-03-24T09:17:00.615Z</time></trkpt><trkpt lat="45.6189726" lon="11.1323176"><ele>738.0</ele><time>2026-03-24T09:17:01.621Z</time></trkpt><trkpt lat="45.618865" lon="11.1323735"><ele>738.0</ele><time>2026-03-24T09:17:02.623Z</time></trkpt><trkpt lat="45.6187813" lon="11.13246"><ele>738.0</ele><time>2026-03-24T09:17:03.615Z</time></trkpt><trkpt lat="45.6187078" lon="11.1325728"><ele>738.0</ele><time>2026-03-24T09:17:04.616Z</time></trkpt><trkpt lat="45.6186306" lon="11.1326973"><ele>735.8</ele><time>2026-03-24T09:17:05.619Z</time></trkpt><trkpt lat="45.6185594" lon="11.1327976"><ele>733.5999999999999</ele><time>2026-03-24T09:17:06.624Z</time></trkpt><trkpt lat="45.6184797" lon="11.1328089"><ele>731.4000000000001</ele><time>2026-03-24T09:17:07.631Z</time></trkpt><trkpt lat="45.618393" lon="11.1327534"><ele>729.2</ele><time>2026-03-24T09:17:08.623Z</time></trkpt><trkpt lat="45.6182993" lon="11.1327115"><ele>727.0</ele><time>2026-03-24T09:17:09.62Z</time></trkpt><trkpt lat="45.6181962" lon="11.1327009"><ele>727.0</ele><time>2026-03-24T09:17:10.623Z</time></trkpt><trkpt lat="45.6181015" lon="11.1327017"><ele>727.0</ele><time>2026-03-24T09:17:11.622Z</time></trkpt><trkpt lat="45.6179816" lon="11.1327297"><ele>727.0</ele><time>2026-03-24T09:17:12.614Z</time></trkpt><trkpt lat="45.6178508" lon="11.1327947"><ele>727.0</ele><time>2026-03-24T09:17:13.619Z</time></trkpt><trkpt lat="45.6177157" lon="11.1328689"><ele>724.0</ele><time>2026-03-24T09:17:14.62Z</time></trkpt><trkpt lat="45.6175633" lon="11.1329509"><ele>721.0</ele><time>2026-03-24T09:17:15.623Z</time></trkpt><trkpt lat="45.6174392" lon="11.1331014"><ele>718.0</ele><time>2026-03-24T09:17:16.619Z</time></trkpt><trkpt lat="45.6172924" lon="11.1332505"><ele>718.0</ele><time>2026-03-24T09:17:17.616Z</time></trkpt><trkpt lat="45.6172089" lon="11.133383"><ele>718.0</ele><time>2026-03-24T09:17:18.626Z</time></trkpt><trkpt lat="45.6171512" lon="11.1334857"><ele>718.0</ele><time>2026-03-24T09:17:19.626Z</time></trkpt><trkpt lat="45.617111" lon="11.133569"><ele>718.0</ele><time>2026-03-24T09:17:20.624Z</time></trkpt><trkpt lat="45.6170524" lon="11.1336078"><ele>718.0</ele><time>2026-03-24T09:17:21.626Z</time></trkpt><trkpt lat="45.616989" lon="11.1336345"><ele>718.0</ele><time>2026-03-24T09:17:22.613Z</time></trkpt><trkpt lat="45.6168404" lon="11.1335577"><ele>718.25</ele><time>2026-03-24T09:17:24.621Z</time></trkpt><trkpt lat="45.6167625" lon="11.1334651"><ele>718.5</ele><time>2026-03-24T09:17:25.613Z</time></trkpt><trkpt lat="45.6166819" lon="11.1333419"><ele>718.75</ele><time>2026-03-24T09:17:26.622Z</time></trkpt><trkpt lat="45.6166075" lon="11.1332068"><ele>719.0</ele><time>2026-03-24T09:17:27.62Z</time></trkpt><trkpt lat="45.6165443" lon="11.1330604"><ele>729.5</ele><time>2026-03-24T09:17:28.629Z</time></trkpt><trkpt lat="45.6164641" lon="11.1329194"><ele>740.0</ele><time>2026-03-24T09:17:29.621Z</time></trkpt><trkpt lat="45.6163811" lon="11.132796"><ele>750.5</ele><time>2026-03-24T09:17:30.618Z</time></trkpt><trkpt lat="45.6162899" lon="11.1326835"><ele>761.0</ele><time>2026-03-24T09:17:31.625Z</time></trkpt><trkpt lat="45.6162117" lon="11.1325797"><ele>765.0</ele><time>2026-03-24T09:17:32.62Z</time></trkpt><trkpt lat="45.6161266" lon="11.1324798"><ele>769.0</ele><time>2026-03-24T09:17:33.622Z</time></trkpt><trkpt lat="45.6160383" lon="11.1323953"><ele>773.0</ele><time>2026-03-24T09:17:34.616Z</time></trkpt><trkpt lat="45.6159348" lon="11.1323345"><ele>777.0</ele><time>2026-03-24T09:17:35.619Z</time></trkpt><trkpt lat="45.6158212" lon="11.1323021"><ele>781.0</ele><time>2026-03-24T09:17:36.623Z</time></trkpt><trkpt lat="45.6157062" lon="11.1322938"><ele>781.0</ele><time>2026-03-24T09:17:37.619Z</time></trkpt><trkpt lat="45.6155951" lon="11.1323248"><ele>781.0</ele><time>2026-03-24T09:17:38.623Z</time></trkpt><trkpt lat="45.6154874" lon="11.1323975"><ele>781.0</ele><time>2026-03-24T09:17:39.627Z</time></trkpt><trkpt lat="45.6153872" lon="11.132495"><ele>781.0</ele><time>2026-03-24T09:17:40.618Z</time></trkpt><trkpt lat="45.6152924" lon="11.1326027"><ele>779.4</ele><time>2026-03-24T09:17:41.619Z</time></trkpt><trkpt lat="45.6152052" lon="11.1327327"><ele>777.8</ele><time>2026-03-24T09:17:42.624Z</time></trkpt><trkpt lat="45.6151319" lon="11.1328534"><ele>776.1999999999999</ele><time>2026-03-24T09:17:43.627Z</time></trkpt><trkpt lat="45.6150657" lon="11.1329435"><ele>774.5999999999999</ele><time>2026-03-24T09:17:44.626Z</time></trkpt><trkpt lat="45.6149923" lon="11.1330418"><ele>773.0</ele><time>2026-03-24T09:17:45.62Z</time></trkpt><trkpt lat="45.6149235" lon="11.1331471"><ele>769.1666666666667</ele><time>2026-03-24T09:17:46.63Z</time></trkpt><trkpt lat="45.6148667" lon="11.1332513"><ele>765.3333333333334</ele><time>2026-03-24T09:17:47.623Z</time></trkpt><trkpt lat="45.6148087" lon="11.1333312"><ele>761.5</ele><time>2026-03-24T09:17:48.626Z</time></trkpt><trkpt lat="45.6147375" lon="11.1333895"><ele>757.6666666666667</ele><time>2026-03-24T09:17:49.62Z</time></trkpt><trkpt lat="45.6146544" lon="11.1334141"><ele>753.8333333333334</ele><time>2026-03-24T09:17:50.63Z</time></trkpt><trkpt lat="45.6145496" lon="11.1334105"><ele>750.0</ele><time>2026-03-24T09:17:51.619Z</time></trkpt><trkpt lat="45.6144333" lon="11.1333803"><ele>750.0</ele><time>2026-03-24T09:17:52.616Z</time></trkpt><trkpt lat="45.6143026" lon="11.1333361"><ele>750.0</ele><time>2026-03-24T09:17:53.618Z</time></trkpt><trkpt lat="45.6141739" lon="11.1332928"><ele>750.0</ele><time>2026-03-24T09:17:54.622Z</time></trkpt><trkpt lat="45.6140621" lon="11.1332557"><ele>750.0</ele><time>2026-03-24T09:17:55.619Z</time></trkpt><trkpt lat="45.6139546" lon="11.1332285"><ele>747.3333333333334</ele><time>2026-03-24T09:17:56.626Z</time></trkpt><trkpt lat="45.6138577" lon="11.1332154"><ele>744.6666666666666</ele><time>2026-03-24T09:17:57.618Z</time></trkpt><trkpt lat="45.6137755" lon="11.1331816"><ele>742.0</ele><time>2026-03-24T09:17:58.619Z</time></trkpt><trkpt lat="45.6137041" lon="11.1331291"><ele>739.3333333333333</ele><time>2026-03-24T09:17:59.621Z</time></trkpt><trkpt lat="45.6136516" lon="11.1330517"><ele>736.6666666666666</ele><time>2026-03-24T09:18:00.616Z</time></trkpt><trkpt lat="45.6136241" lon="11.1329345"><ele>734.0</ele><time>2026-03-24T09:18:01.62Z</time></trkpt><trkpt lat="45.6136132" lon="11.1327908"><ele>734.0</ele><time>2026-03-24T09:18:02.621Z</time></trkpt><trkpt lat="45.6136102" lon="11.1326196"><ele>734.0</ele><time>2026-03-24T09:18:03.622Z</time></trkpt><trkpt lat="45.6136157" lon="11.1324536"><ele>734.0</ele><time>2026-03-24T09:18:04.617Z</time></trkpt><trkpt lat="45.6136087" lon="11.1323103"><ele>734.0</ele><time>2026-03-24T09:18:05.621Z</time></trkpt><trkpt lat="45.6136153" lon="11.1321625"><ele>734.0</ele><time>2026-03-24T09:18:06.62Z</time></trkpt><trkpt lat="45.6136155" lon="11.1320025"><ele>736.0</ele><time>2026-03-24T09:18:07.631Z</time></trkpt><trkpt lat="45.6136096" lon="11.1318358"><ele>738.0</ele><time>2026-03-24T09:18:08.627Z</time></trkpt><trkpt lat="45.6136071" lon="11.1316753"><ele>740.0</ele><time>2026-03-24T09:18:09.619Z</time></trkpt><trkpt lat="45.6136127" lon="11.1315149"><ele>742.0</ele><time>2026-03-24T09:18:10.626Z</time></trkpt><trkpt lat="45.6136531" lon="11.1313519"><ele>756.0</ele><time>2026-03-24T09:18:11.619Z</time></trkpt><trkpt lat="45.613729" lon="11.1311902"><ele>770.0</ele><time>2026-03-24T09:18:12.618Z</time></trkpt><trkpt lat="45.613794" lon="11.131046"><ele>784.0</ele><time>2026-03-24T09:18:13.618Z</time></trkpt><trkpt lat="45.6138378" lon="11.1309138"><ele>798.0</ele><time>2026-03-24T09:18:14.624Z</time></trkpt><trkpt lat="45.6138654" lon="11.1307817"><ele>801.8</ele><time>2026-03-24T09:18:15.619Z</time></trkpt><trkpt lat="45.6138774" lon="11.1306491"><ele>805.5999999999999</ele><time>2026-03-24T09:18:16.617Z</time></trkpt><trkpt lat="45.6138822" lon="11.130517"><ele>809.4000000000001</ele><time>2026-03-24T09:18:17.621Z</time></trkpt><trkpt lat="45.6138644" lon="11.1303936"><ele>813.2</ele><time>2026-03-24T09:18:18.619Z</time></trkpt><trkpt lat="45.6138054" lon="11.1302735"><ele>817.0</ele><time>2026-03-24T09:18:19.614Z</time></trkpt><trkpt lat="45.6137292" lon="11.1301692"><ele>814.0</ele><time>2026-03-24T09:18:20.611Z</time></trkpt><trkpt lat="45.6136288" lon="11.1300984"><ele>811.0</ele><time>2026-03-24T09:18:21.623Z</time></trkpt><trkpt lat="45.6135306" lon="11.1300249"><ele>808.0</ele><time>2026-03-24T09:18:22.618Z</time></trkpt><trkpt lat="45.6134343" lon="11.1299545"><ele>805.0</ele><time>2026-03-24T09:18:23.615Z</time></trkpt><trkpt lat="45.61334" lon="11.1298846"><ele>802.0</ele><time>2026-03-24T09:18:24.613Z</time></trkpt><trkpt lat="45.6132588" lon="11.1298317"><ele>801.9999999999999</ele><time>2026-03-24T09:18:25.617Z</time></trkpt><trkpt lat="45.6131881" lon="11.1297616"><ele>802.0</ele><time>2026-03-24T09:18:26.606Z</time></trkpt><trkpt lat="45.6131231" lon="11.1296778"><ele>802.0</ele><time>2026-03-24T09:18:27.61Z</time></trkpt><trkpt lat="45.6130726" lon="11.1295904"><ele>802.0</ele><time>2026-03-24T09:18:28.623Z</time></trkpt><trkpt lat="45.6130502" lon="11.1294917"><ele>801.9999999999999</ele><time>2026-03-24T09:18:29.616Z</time></trkpt><trkpt lat="45.6130499" lon="11.1293797"><ele>802.0</ele><time>2026-03-24T09:18:30.619Z</time></trkpt><trkpt lat="45.6130524" lon="11.1292536"><ele>802.0</ele><time>2026-03-24T09:18:31.617Z</time></trkpt><trkpt lat="45.613042" lon="11.1291271"><ele>802.0</ele><time>2026-03-24T09:18:32.609Z</time></trkpt><trkpt lat="45.6130197" lon="11.1290106"><ele>802.0</ele><time>2026-03-24T09:18:33.615Z</time></trkpt><trkpt lat="45.612977" lon="11.1288943"><ele>802.0</ele><time>2026-03-24T09:18:34.618Z</time></trkpt><trkpt lat="45.6129117" lon="11.1287802"><ele>802.0</ele><time>2026-03-24T09:18:35.622Z</time></trkpt><trkpt lat="45.6128494" lon="11.1286757"><ele>801.6</ele><time>2026-03-24T09:18:36.641Z</time></trkpt><trkpt lat="45.6128114" lon="11.1285678"><ele>801.2</ele><time>2026-03-24T09:18:37.637Z</time></trkpt><trkpt lat="45.6127908" lon="11.1284677"><ele>800.8</ele><time>2026-03-24T09:18:38.644Z</time></trkpt><trkpt lat="45.612835" lon="11.1283709"><ele>800.4</ele><time>2026-03-24T09:18:39.645Z</time></trkpt><trkpt lat="45.6129017" lon="11.1282601"><ele>800.0</ele><time>2026-03-24T09:18:40.64Z</time></trkpt><trkpt lat="45.612981" lon="11.1281255"><ele>800.0</ele><time>2026-03-24T09:18:41.646Z</time></trkpt><trkpt lat="45.6130557" lon="11.1279819"><ele>800.0</ele><time>2026-03-24T09:18:42.653Z</time></trkpt><trkpt lat="45.6131287" lon="11.127856"><ele>800.0</ele><time>2026-03-24T09:18:43.643Z</time></trkpt><trkpt lat="45.6131982" lon="11.1277359"><ele>800.0</ele><time>2026-03-24T09:18:44.657Z</time></trkpt><trkpt lat="45.6132703" lon="11.127623"><ele>800.0000000000001</ele><time>2026-03-24T09:18:45.649Z</time></trkpt><trkpt lat="45.6133313" lon="11.1275228"><ele>800.0</ele><time>2026-03-24T09:18:46.643Z</time></trkpt><trkpt lat="45.6133814" lon="11.127425"><ele>800.0</ele><time>2026-03-24T09:18:47.647Z</time></trkpt><trkpt lat="45.6134333" lon="11.127317"><ele>800.0</ele><time>2026-03-24T09:18:48.642Z</time></trkpt><trkpt lat="45.6134706" lon="11.1272151"><ele>800.0000000000001</ele><time>2026-03-24T09:18:49.623Z</time></trkpt><trkpt lat="45.6134893" lon="11.1271072"><ele>800.0</ele><time>2026-03-24T09:18:50.617Z</time></trkpt><trkpt lat="45.6134892" lon="11.126996"><ele>802.8333333333334</ele><time>2026-03-24T09:18:51.644Z</time></trkpt><trkpt lat="45.613472" lon="11.1268944"><ele>805.6666666666667</ele><time>2026-03-24T09:18:52.618Z</time></trkpt><trkpt lat="45.613444" lon="11.1268056"><ele>808.5</ele><time>2026-03-24T09:18:53.617Z</time></trkpt><trkpt lat="45.6133908" lon="11.1267426"><ele>811.3333333333333</ele><time>2026-03-24T09:18:54.622Z</time></trkpt><trkpt lat="45.6133252" lon="11.1266778"><ele>814.1666666666666</ele><time>2026-03-24T09:18:55.619Z</time></trkpt><trkpt lat="45.6132232" lon="11.1266253"><ele>817.0</ele><time>2026-03-24T09:18:56.624Z</time></trkpt><trkpt lat="45.6131089" lon="11.1265891"><ele>817.0</ele><time>2026-03-24T09:18:57.625Z</time></trkpt><trkpt lat="45.6129969" lon="11.1265627"><ele>817.0</ele><time>2026-03-24T09:18:58.63Z</time></trkpt><trkpt lat="45.6129028" lon="11.1265276"><ele>817.0</ele><time>2026-03-24T09:18:59.625Z</time></trkpt><trkpt lat="45.6128035" lon="11.1264871"><ele>817.0</ele><time>2026-03-24T09:19:00.652Z</time></trkpt><trkpt lat="45.6127277" lon="11.1264446"><ele>817.0</ele><time>2026-03-24T09:19:01.627Z</time></trkpt><trkpt lat="45.6126827" lon="11.1263612"><ele>815.8</ele><time>2026-03-24T09:19:02.625Z</time></trkpt><trkpt lat="45.6126646" lon="11.126253"><ele>814.6</ele><time>2026-03-24T09:19:03.628Z</time></trkpt><trkpt lat="45.6126684" lon="11.126126"><ele>813.4</ele><time>2026-03-24T09:19:04.631Z</time></trkpt><trkpt lat="45.6126887" lon="11.1259871"><ele>812.1999999999999</ele><time>2026-03-24T09:19:05.62Z</time></trkpt><trkpt lat="45.6127145" lon="11.1258284"><ele>811.0</ele><time>2026-03-24T09:19:06.627Z</time></trkpt><trkpt lat="45.6127298" lon="11.1256623"><ele>811.0</ele><time>2026-03-24T09:19:07.63Z</time></trkpt><trkpt lat="45.6127465" lon="11.1255038"><ele>811.0</ele><time>2026-03-24T09:19:08.63Z</time></trkpt><trkpt lat="45.6127543" lon="11.1253462"><ele>811.0</ele><time>2026-03-24T09:19:09.631Z</time></trkpt><trkpt lat="45.6127591" lon="11.1251873"><ele>811.0</ele><time>2026-03-24T09:19:10.627Z</time></trkpt><trkpt lat="45.6127699" lon="11.1250445"><ele>811.0</ele><time>2026-03-24T09:19:11.622Z</time></trkpt><trkpt lat="45.6127704" lon="11.124916"><ele>815.4999999999999</ele><time>2026-03-24T09:19:12.619Z</time></trkpt><trkpt lat="45.6127625" lon="11.1247823"><ele>820.0</ele><time>2026-03-24T09:19:13.618Z</time></trkpt><trkpt lat="45.6127708" lon="11.1246756"><ele>824.5</ele><time>2026-03-24T09:19:14.624Z</time></trkpt><trkpt lat="45.6127362" lon="11.1245879"><ele>829.0</ele><time>2026-03-24T09:19:15.619Z</time></trkpt><trkpt lat="45.612686" lon="11.1245004"><ele>833.4999999999999</ele><time>2026-03-24T09:19:16.618Z</time></trkpt><trkpt lat="45.6126308" lon="11.1244264"><ele>838.0</ele><time>2026-03-24T09:19:17.63Z</time></trkpt><trkpt lat="45.6125823" lon="11.1243412"><ele>837.9999999999999</ele><time>2026-03-24T09:19:18.622Z</time></trkpt><trkpt lat="45.612546" lon="11.1242379"><ele>838.0</ele><time>2026-03-24T09:19:19.626Z</time></trkpt><trkpt lat="45.6125248" lon="11.1241278"><ele>838.0</ele><time>2026-03-24T09:19:20.627Z</time></trkpt><trkpt lat="45.6125225" lon="11.1240242"><ele>838.0</ele><time>2026-03-24T09:19:21.627Z</time></trkpt><trkpt lat="45.6125356" lon="11.1238736"><ele>837.9999999999999</ele><time>2026-03-24T09:19:23.626Z</time></trkpt><trkpt lat="45.6125384" lon="11.123721"><ele>838.0</ele><time>2026-03-24T09:19:25.622Z</time></trkpt><trkpt lat="45.6124604" lon="11.1235861"><ele>843.8</ele><time>2026-03-24T09:19:27.629Z</time></trkpt><trkpt lat="45.6123866" lon="11.1235232"><ele>849.5999999999999</ele><time>2026-03-24T09:19:28.626Z</time></trkpt><trkpt lat="45.6123023" lon="11.1234774"><ele>855.4000000000001</ele><time>2026-03-24T09:19:29.624Z</time></trkpt><trkpt lat="45.6122035" lon="11.1234516"><ele>861.2</ele><time>2026-03-24T09:19:30.633Z</time></trkpt><trkpt lat="45.6121087" lon="11.1234194"><ele>867.0</ele><time>2026-03-24T09:19:31.63Z</time></trkpt><trkpt lat="45.6120149" lon="11.1233891"><ele>864.4000000000001</ele><time>2026-03-24T09:19:32.628Z</time></trkpt><trkpt lat="45.6119355" lon="11.1233309"><ele>861.8000000000001</ele><time>2026-03-24T09:19:33.622Z</time></trkpt><trkpt lat="45.6118729" lon="11.1232517"><ele>859.2</ele><time>2026-03-24T09:19:34.623Z</time></trkpt><trkpt lat="45.6118113" lon="11.123151"><ele>856.6</ele><time>2026-03-24T09:19:35.634Z</time></trkpt><trkpt lat="45.6117701" lon="11.1230239"><ele>854.0</ele><time>2026-03-24T09:19:36.627Z</time></trkpt><trkpt lat="45.6117295" lon="11.1228918"><ele>854.0</ele><time>2026-03-24T09:19:37.63Z</time></trkpt><trkpt lat="45.6116864" lon="11.1227699"><ele>854.0000000000001</ele><time>2026-03-24T09:19:38.628Z</time></trkpt><trkpt lat="45.6116249" lon="11.12267"><ele>854.0000000000001</ele><time>2026-03-24T09:19:39.632Z</time></trkpt><trkpt lat="45.6115482" lon="11.1225832"><ele>854.0</ele><time>2026-03-24T09:19:40.629Z</time></trkpt><trkpt lat="45.6114541" lon="11.1225122"><ele>854.0</ele><time>2026-03-24T09:19:41.629Z</time></trkpt><trkpt lat="45.6113607" lon="11.1224582"><ele>854.0</ele><time>2026-03-24T09:19:42.641Z</time></trkpt><trkpt lat="45.6112646" lon="11.1224047"><ele>854.0000000000001</ele><time>2026-03-24T09:19:43.631Z</time></trkpt><trkpt lat="45.611166" lon="11.1223437"><ele>854.0000000000001</ele><time>2026-03-24T09:19:44.628Z</time></trkpt><trkpt lat="45.6110723" lon="11.122275"><ele>854.0</ele><time>2026-03-24T09:19:45.624Z</time></trkpt><trkpt lat="45.6109869" lon="11.1222068"><ele>854.0</ele><time>2026-03-24T09:19:46.613Z</time></trkpt><trkpt lat="45.610897" lon="11.1220968"><ele>854.8000000000001</ele><time>2026-03-24T09:19:47.633Z</time></trkpt><trkpt lat="45.6108164" lon="11.1219871"><ele>855.6000000000001</ele><time>2026-03-24T09:19:48.63Z</time></trkpt><trkpt lat="45.6107474" lon="11.121892"><ele>856.4</ele><time>2026-03-24T09:19:49.634Z</time></trkpt><trkpt lat="45.6106712" lon="11.1218123"><ele>857.2</ele><time>2026-03-24T09:19:50.631Z</time></trkpt><trkpt lat="45.6105869" lon="11.1217258"><ele>858.0</ele><time>2026-03-24T09:19:51.627Z</time></trkpt><trkpt lat="45.6105058" lon="11.1216338"><ele>854.2</ele><time>2026-03-24T09:19:52.629Z</time></trkpt><trkpt lat="45.6104299" lon="11.1215568"><ele>850.4</ele><time>2026-03-24T09:19:53.627Z</time></trkpt><trkpt lat="45.6103643" lon="11.1214792"><ele>846.6</ele><time>2026-03-24T09:19:54.623Z</time></trkpt><trkpt lat="45.6103203" lon="11.1213748"><ele>842.8000000000001</ele><time>2026-03-24T09:19:55.628Z</time></trkpt><trkpt lat="45.6102846" lon="11.1212549"><ele>839.0</ele><time>2026-03-24T09:19:56.631Z</time></trkpt><trkpt lat="45.6102615" lon="11.1211204"><ele>839.0</ele><time>2026-03-24T09:19:57.631Z</time></trkpt><trkpt lat="45.6102441" lon="11.1209669"><ele>839.0</ele><time>2026-03-24T09:19:58.63Z</time></trkpt><trkpt lat="45.6102275" lon="11.1208101"><ele>839.0</ele><time>2026-03-24T09:19:59.64Z</time></trkpt><trkpt lat="45.6102011" lon="11.1206547"><ele>839.0</ele><time>2026-03-24T09:20:00.624Z</time></trkpt><trkpt lat="45.6101785" lon="11.1205196"><ele>839.0</ele><time>2026-03-24T09:20:01.626Z</time></trkpt><trkpt lat="45.6101624" lon="11.1203852"><ele>844.2</ele><time>2026-03-24T09:20:02.634Z</time></trkpt><trkpt lat="45.6101527" lon="11.1202527"><ele>849.4000000000001</ele><time>2026-03-24T09:20:03.628Z</time></trkpt><trkpt lat="45.6101296" lon="11.1201271"><ele>854.6</ele><time>2026-03-24T09:20:04.629Z</time></trkpt><trkpt lat="45.6100705" lon="11.1200277"><ele>859.8</ele><time>2026-03-24T09:20:05.619Z</time></trkpt><trkpt lat="45.6099942" lon="11.1199387"><ele>865.0</ele><time>2026-03-24T09:20:06.621Z</time></trkpt><trkpt lat="45.6099079" lon="11.1198593"><ele>864.2</ele><time>2026-03-24T09:20:07.628Z</time></trkpt><trkpt lat="45.6098099" lon="11.1197862"><ele>863.4</ele><time>2026-03-24T09:20:08.622Z</time></trkpt><trkpt lat="45.6097117" lon="11.1197145"><ele>862.5999999999999</ele><time>2026-03-24T09:20:09.631Z</time></trkpt><trkpt lat="45.6096088" lon="11.1196444"><ele>861.8</ele><time>2026-03-24T09:20:10.625Z</time></trkpt><trkpt lat="45.609508" lon="11.1195764"><ele>861.0</ele><time>2026-03-24T09:20:11.625Z</time></trkpt><trkpt lat="45.6094206" lon="11.1195079"><ele>861.0</ele><time>2026-03-24T09:20:12.629Z</time></trkpt><trkpt lat="45.6093353" lon="11.1194534"><ele>860.9999999999999</ele><time>2026-03-24T09:20:13.625Z</time></trkpt><trkpt lat="45.609267" lon="11.1193793"><ele>860.9999999999999</ele><time>2026-03-24T09:20:14.625Z</time></trkpt><trkpt lat="45.6092109" lon="11.1192976"><ele>861.0</ele><time>2026-03-24T09:20:15.624Z</time></trkpt><trkpt lat="45.6091718" lon="11.1192206"><ele>861.0</ele><time>2026-03-24T09:20:16.629Z</time></trkpt><trkpt lat="45.609147" lon="11.1190437"><ele>863.8</ele><time>2026-03-24T09:20:18.639Z</time></trkpt><trkpt lat="45.6091736" lon="11.1189206"><ele>866.5999999999999</ele><time>2026-03-24T09:20:19.626Z</time></trkpt><trkpt lat="45.6092169" lon="11.1187738"><ele>869.4</ele><time>2026-03-24T09:20:20.624Z</time></trkpt><trkpt lat="45.6092707" lon="11.1186137"><ele>872.2</ele><time>2026-03-24T09:20:21.626Z</time></trkpt><trkpt lat="45.6093083" lon="11.1184752"><ele>875.0</ele><time>2026-03-24T09:20:22.627Z</time></trkpt><trkpt lat="45.6093289" lon="11.1183481"><ele>879.6666666666667</ele><time>2026-03-24T09:20:23.636Z</time></trkpt><trkpt lat="45.6093342" lon="11.1182321"><ele>884.3333333333334</ele><time>2026-03-24T09:20:24.628Z</time></trkpt><trkpt lat="45.6093374" lon="11.1181262"><ele>889.0</ele><time>2026-03-24T09:20:25.63Z</time></trkpt><trkpt lat="45.6093395" lon="11.1180352"><ele>893.6666666666667</ele><time>2026-03-24T09:20:26.632Z</time></trkpt><trkpt lat="45.6093302" lon="11.1179258"><ele>898.3333333333334</ele><time>2026-03-24T09:20:28.633Z</time></trkpt><trkpt lat="45.6093215" lon="11.1178139"><ele>903.0</ele><time>2026-03-24T09:20:30.637Z</time></trkpt><trkpt lat="45.6094775" lon="11.1179059"><ele>903.0</ele><time>2026-03-24T09:20:35.639Z</time></trkpt><trkpt lat="45.6094692" lon="11.118079"><ele>903.0</ele><time>2026-03-24T09:20:36.637Z</time></trkpt><trkpt lat="45.6094659" lon="11.1182787"><ele>903.0</ele><time>2026-03-24T09:20:37.63Z</time></trkpt><trkpt lat="45.609462" lon="11.1184479"><ele>903.0</ele><time>2026-03-24T09:20:38.634Z</time></trkpt><trkpt lat="45.6094579" lon="11.1186007"><ele>904.5</ele><time>2026-03-24T09:20:39.637Z</time></trkpt><trkpt lat="45.6094365" lon="11.1187119"><ele>906.0</ele><time>2026-03-24T09:20:40.632Z</time></trkpt><trkpt lat="45.6094171" lon="11.1188005"><ele>907.5</ele><time>2026-03-24T09:20:41.644Z</time></trkpt><trkpt lat="45.6093906" lon="11.1189275"><ele>909.0</ele><time>2026-03-24T09:20:43.637Z</time></trkpt><trkpt lat="45.6094781" lon="11.1189452"><ele>910.5</ele><time>2026-03-24T09:20:46.635Z</time></trkpt><trkpt lat="45.6095235" lon="11.1188416"><ele>912.0</ele><time>2026-03-24T09:20:47.634Z</time></trkpt><trkpt lat="45.60955" lon="11.1187133"><ele>912.0</ele><time>2026-03-24T09:20:48.63Z</time></trkpt><trkpt lat="45.6095635" lon="11.118591"><ele>912.0</ele><time>2026-03-24T09:20:49.626Z</time></trkpt><trkpt lat="45.6095637" lon="11.1184394"><ele>912.0</ele><time>2026-03-24T09:20:50.622Z</time></trkpt><trkpt lat="45.6095545" lon="11.1182704"><ele>912.0</ele><time>2026-03-24T09:20:51.63Z</time></trkpt><trkpt lat="45.6095413" lon="11.1181153"><ele>912.0</ele><time>2026-03-24T09:20:52.623Z</time></trkpt><trkpt lat="45.6095328" lon="11.1179723"><ele>910.0</ele><time>2026-03-24T09:20:53.634Z</time></trkpt><trkpt lat="45.6095335" lon="11.1178405"><ele>908.0</ele><time>2026-03-24T09:20:54.619Z</time></trkpt><trkpt lat="45.6095668" lon="11.1177262"><ele>906.0</ele><time>2026-03-24T09:20:55.63Z</time></trkpt><trkpt lat="45.6096155" lon="11.1176235"><ele>904.0</ele><time>2026-03-24T09:20:56.625Z</time></trkpt><trkpt lat="45.6096875" lon="11.117541"><ele>902.0</ele><time>2026-03-24T09:20:57.632Z</time></trkpt><trkpt lat="45.609768" lon="11.1174604"><ele>902.6</ele><time>2026-03-24T09:20:58.63Z</time></trkpt><trkpt lat="45.6098615" lon="11.1173872"><ele>903.2</ele><time>2026-03-24T09:20:59.707Z</time></trkpt><trkpt lat="45.6099414" lon="11.1173146"><ele>903.8</ele><time>2026-03-24T09:21:00.622Z</time></trkpt><trkpt lat="45.6100354" lon="11.1172652"><ele>904.4</ele><time>2026-03-24T09:21:01.621Z</time></trkpt><trkpt lat="45.610126" lon="11.117206"><ele>905.0</ele><time>2026-03-24T09:21:02.622Z</time></trkpt><trkpt lat="45.6102119" lon="11.1171377"><ele>905.0000000000001</ele><time>2026-03-24T09:21:03.618Z</time></trkpt><trkpt lat="45.6102872" lon="11.117049"><ele>905.0</ele><time>2026-03-24T09:21:04.619Z</time></trkpt><trkpt lat="45.6103549" lon="11.116958"><ele>905.0</ele><time>2026-03-24T09:21:05.623Z</time></trkpt><trkpt lat="45.6104176" lon="11.116891"><ele>905.0</ele><time>2026-03-24T09:21:06.616Z</time></trkpt><trkpt lat="45.610476" lon="11.1168397"><ele>905.0000000000001</ele><time>2026-03-24T09:21:07.622Z</time></trkpt><trkpt lat="45.6105386" lon="11.1168165"><ele>905.0</ele><time>2026-03-24T09:21:08.625Z</time></trkpt><trkpt lat="45.6106015" lon="11.1168121"><ele>904.8</ele><time>2026-03-24T09:21:09.612Z</time></trkpt><trkpt lat="45.6106904" lon="11.1168197"><ele>904.6</ele><time>2026-03-24T09:21:10.619Z</time></trkpt><trkpt lat="45.6107969" lon="11.1168301"><ele>904.4000000000001</ele><time>2026-03-24T09:21:11.612Z</time></trkpt><trkpt lat="45.6109147" lon="11.1168271"><ele>904.2</ele><time>2026-03-24T09:21:12.611Z</time></trkpt><trkpt lat="45.6110313" lon="11.116817"><ele>904.0</ele><time>2026-03-24T09:21:13.626Z</time></trkpt><trkpt lat="45.6111624" lon="11.11681"><ele>903.5</ele><time>2026-03-24T09:21:14.621Z</time></trkpt><trkpt lat="45.6112948" lon="11.1168042"><ele>903.0</ele><time>2026-03-24T09:21:15.617Z</time></trkpt><trkpt lat="45.6114267" lon="11.1168021"><ele>902.5</ele><time>2026-03-24T09:21:16.626Z</time></trkpt><trkpt lat="45.6115579" lon="11.1167904"><ele>902.0</ele><time>2026-03-24T09:21:17.622Z</time></trkpt><trkpt lat="45.6116984" lon="11.1167694"><ele>902.0</ele><time>2026-03-24T09:21:18.623Z</time></trkpt><trkpt lat="45.611837" lon="11.1167157"><ele>902.0</ele><time>2026-03-24T09:21:19.616Z</time></trkpt><trkpt lat="45.6119943" lon="11.1166296"><ele>902.0</ele><time>2026-03-24T09:21:20.619Z</time></trkpt><trkpt lat="45.6121354" lon="11.1165577"><ele>903.25</ele><time>2026-03-24T09:21:21.615Z</time></trkpt><trkpt lat="45.6122601" lon="11.1164467"><ele>904.5</ele><time>2026-03-24T09:21:22.616Z</time></trkpt><trkpt lat="45.6123992" lon="11.1163523"><ele>905.75</ele><time>2026-03-24T09:21:23.615Z</time></trkpt><trkpt lat="45.6125364" lon="11.1162744"><ele>907.0</ele><time>2026-03-24T09:21:24.61Z</time></trkpt><trkpt lat="45.6126756" lon="11.1162107"><ele>907.0</ele><time>2026-03-24T09:21:25.611Z</time></trkpt><trkpt lat="45.6127951" lon="11.1161546"><ele>907.0</ele><time>2026-03-24T09:21:26.616Z</time></trkpt><trkpt lat="45.6129119" lon="11.1161059"><ele>907.0</ele><time>2026-03-24T09:21:27.615Z</time></trkpt><trkpt lat="45.6130097" lon="11.1160647"><ele>907.0</ele><time>2026-03-24T09:21:28.612Z</time></trkpt><trkpt lat="45.6131063" lon="11.1160116"><ele>907.5</ele><time>2026-03-24T09:21:29.625Z</time></trkpt><trkpt lat="45.6132005" lon="11.1158941"><ele>908.0</ele><time>2026-03-24T09:21:30.618Z</time></trkpt><trkpt lat="45.6132955" lon="11.1157579"><ele>908.5</ele><time>2026-03-24T09:21:31.62Z</time></trkpt><trkpt lat="45.6133745" lon="11.1156106"><ele>909.0</ele><time>2026-03-24T09:21:32.626Z</time></trkpt><trkpt lat="45.6134596" lon="11.1154311"><ele>911.5</ele><time>2026-03-24T09:21:33.623Z</time></trkpt><trkpt lat="45.6135359" lon="11.1152401"><ele>914.0</ele><time>2026-03-24T09:21:34.619Z</time></trkpt><trkpt lat="45.6136288" lon="11.1151145"><ele>916.5</ele><time>2026-03-24T09:21:35.623Z</time></trkpt><trkpt lat="45.6137184" lon="11.1150011"><ele>919.0</ele><time>2026-03-24T09:21:36.627Z</time></trkpt><trkpt lat="45.6138459" lon="11.114925"><ele>920.0</ele><time>2026-03-24T09:21:37.619Z</time></trkpt><trkpt lat="45.6139623" lon="11.1148753"><ele>921.0</ele><time>2026-03-24T09:21:38.62Z</time></trkpt><trkpt lat="45.614094" lon="11.1148311"><ele>922.0</ele><time>2026-03-24T09:21:39.635Z</time></trkpt><trkpt lat="45.6142405" lon="11.1147827"><ele>923.0</ele><time>2026-03-24T09:21:40.615Z</time></trkpt><trkpt lat="45.614389" lon="11.1147468"><ele>921.0</ele><time>2026-03-24T09:21:41.615Z</time></trkpt><trkpt lat="45.6145246" lon="11.1147059"><ele>919.0</ele><time>2026-03-24T09:21:42.618Z</time></trkpt><trkpt lat="45.6146697" lon="11.1146949"><ele>917.0</ele><time>2026-03-24T09:21:43.625Z</time></trkpt><trkpt lat="45.6147865" lon="11.114668"><ele>915.0</ele><time>2026-03-24T09:21:44.635Z</time></trkpt><trkpt lat="45.6148911" lon="11.1146639"><ele>915.0</ele><time>2026-03-24T09:21:45.623Z</time></trkpt><trkpt lat="45.6149891" lon="11.1146274"><ele>915.0</ele><time>2026-03-24T09:21:46.63Z</time></trkpt><trkpt lat="45.6150823" lon="11.1145459"><ele>915.0</ele><time>2026-03-24T09:21:47.631Z</time></trkpt><trkpt lat="45.6151868" lon="11.1144371"><ele>915.0</ele><time>2026-03-24T09:21:48.622Z</time></trkpt><trkpt lat="45.6152794" lon="11.1142909"><ele>917.0</ele><time>2026-03-24T09:21:49.629Z</time></trkpt><trkpt lat="45.6153825" lon="11.1141329"><ele>919.0</ele><time>2026-03-24T09:21:50.629Z</time></trkpt><trkpt lat="45.615487" lon="11.1139614"><ele>921.0</ele><time>2026-03-24T09:21:51.618Z</time></trkpt><trkpt lat="45.6155858" lon="11.1137979"><ele>921.0</ele><time>2026-03-24T09:21:52.631Z</time></trkpt><trkpt lat="45.6156988" lon="11.1136369"><ele>921.0</ele><time>2026-03-24T09:21:53.625Z</time></trkpt><trkpt lat="45.6158223" lon="11.1134917"><ele>921.0</ele><time>2026-03-24T09:21:54.608Z</time></trkpt><trkpt lat="45.6159287" lon="11.1133579"><ele>921.0</ele><time>2026-03-24T09:21:55.624Z</time></trkpt><trkpt lat="45.616041" lon="11.1132562"><ele>921.0</ele><time>2026-03-24T09:21:56.622Z</time></trkpt><trkpt lat="45.6161706" lon="11.1131603"><ele>921.0</ele><time>2026-03-24T09:21:57.621Z</time></trkpt><trkpt lat="45.6162791" lon="11.1130921"><ele>921.0</ele><time>2026-03-24T09:21:58.621Z</time></trkpt><trkpt lat="45.6163922" lon="11.1130272"><ele>922.1999999999999</ele><time>2026-03-24T09:21:59.623Z</time></trkpt><trkpt lat="45.6165152" lon="11.1129793"><ele>923.3999999999999</ele><time>2026-03-24T09:22:00.619Z</time></trkpt><trkpt lat="45.6166381" lon="11.1129266"><ele>924.6</ele><time>2026-03-24T09:22:01.621Z</time></trkpt><trkpt lat="45.6166939" lon="11.1128229"><ele>925.8</ele><time>2026-03-24T09:22:02.622Z</time></trkpt><trkpt lat="45.6167152" lon="11.112708"><ele>927.0</ele><time>2026-03-24T09:22:03.617Z</time></trkpt><trkpt lat="45.6167185" lon="11.1125454"><ele>928.6</ele><time>2026-03-24T09:22:04.621Z</time></trkpt><trkpt lat="45.6166725" lon="11.1123849"><ele>930.2</ele><time>2026-03-24T09:22:05.63Z</time></trkpt><trkpt lat="45.6166302" lon="11.1122776"><ele>931.8</ele><time>2026-03-24T09:22:06.626Z</time></trkpt><trkpt lat="45.6165548" lon="11.1121821"><ele>933.4</ele><time>2026-03-24T09:22:07.624Z</time></trkpt><trkpt lat="45.6164481" lon="11.1121154"><ele>935.0</ele><time>2026-03-24T09:22:08.629Z</time></trkpt><trkpt lat="45.6163276" lon="11.1120791"><ele>935.0</ele><time>2026-03-24T09:22:09.63Z</time></trkpt><trkpt lat="45.6161975" lon="11.1120583"><ele>935.0</ele><time>2026-03-24T09:22:10.641Z</time></trkpt><trkpt lat="45.6160812" lon="11.1120378"><ele>935.0</ele><time>2026-03-24T09:22:11.629Z</time></trkpt><trkpt lat="45.6159901" lon="11.1120117"><ele>935.0</ele><time>2026-03-24T09:22:12.63Z</time></trkpt><trkpt lat="45.6159111" lon="11.1119794"><ele>935.0</ele><time>2026-03-24T09:22:13.626Z</time></trkpt><trkpt lat="45.6158343" lon="11.1119312"><ele>935.3333333333334</ele><time>2026-03-24T09:22:14.632Z</time></trkpt><trkpt lat="45.6157705" lon="11.1118496"><ele>935.6666666666667</ele><time>2026-03-24T09:22:15.628Z</time></trkpt><trkpt lat="45.6157142" lon="11.1117635"><ele>936.0</ele><time>2026-03-24T09:22:16.63Z</time></trkpt><trkpt lat="45.6157193" lon="11.11166"><ele>936.3333333333333</ele><time>2026-03-24T09:22:17.626Z</time></trkpt><trkpt lat="45.615779" lon="11.1115616"><ele>936.6666666666666</ele><time>2026-03-24T09:22:18.627Z</time></trkpt><trkpt lat="45.6158809" lon="11.1114793"><ele>937.0</ele><time>2026-03-24T09:22:19.628Z</time></trkpt><trkpt lat="45.616005" lon="11.1114145"><ele>939.3333333333333</ele><time>2026-03-24T09:22:20.622Z</time></trkpt><trkpt lat="45.6161399" lon="11.1113367"><ele>941.6666666666667</ele><time>2026-03-24T09:22:21.626Z</time></trkpt><trkpt lat="45.6162841" lon="11.1112589"><ele>944.0</ele><time>2026-03-24T09:22:22.623Z</time></trkpt><trkpt lat="45.6164509" lon="11.1111734"><ele>944.0</ele><time>2026-03-24T09:22:23.626Z</time></trkpt><trkpt lat="45.6165799" lon="11.111099"><ele>944.0</ele><time>2026-03-24T09:22:24.627Z</time></trkpt><trkpt lat="45.6166898" lon="11.1110163"><ele>944.0</ele><time>2026-03-24T09:22:25.628Z</time></trkpt><trkpt lat="45.6167783" lon="11.1109166"><ele>944.0</ele><time>2026-03-24T09:22:26.625Z</time></trkpt><trkpt lat="45.6168239" lon="11.1108106"><ele>946.6</ele><time>2026-03-24T09:22:27.625Z</time></trkpt><trkpt lat="45.6168316" lon="11.1106651"><ele>949.2</ele><time>2026-03-24T09:22:28.633Z</time></trkpt><trkpt lat="45.6167845" lon="11.1105058"><ele>951.8000000000001</ele><time>2026-03-24T09:22:29.624Z</time></trkpt><trkpt lat="45.6167241" lon="11.1103927"><ele>954.4000000000001</ele><time>2026-03-24T09:22:30.632Z</time></trkpt><trkpt lat="45.6166238" lon="11.1103041"><ele>957.0</ele><time>2026-03-24T09:22:31.631Z</time></trkpt><trkpt lat="45.6165206" lon="11.1102167"><ele>957.0</ele><time>2026-03-24T09:22:32.633Z</time></trkpt><trkpt lat="45.6164114" lon="11.1101189"><ele>957.0</ele><time>2026-03-24T09:22:33.634Z</time></trkpt><trkpt lat="45.6162976" lon="11.1100103"><ele>957.0</ele><time>2026-03-24T09:22:34.627Z</time></trkpt><trkpt lat="45.6162048" lon="11.109897"><ele>957.0</ele><time>2026-03-24T09:22:35.63Z</time></trkpt><trkpt lat="45.616121" lon="11.1097973"><ele>959.2</ele><time>2026-03-24T09:22:36.629Z</time></trkpt><trkpt lat="45.6160378" lon="11.1097131"><ele>961.4000000000001</ele><time>2026-03-24T09:22:37.631Z</time></trkpt><trkpt lat="45.6159635" lon="11.109636"><ele>963.5999999999999</ele><time>2026-03-24T09:22:38.631Z</time></trkpt><trkpt lat="45.6158634" lon="11.1095624"><ele>965.8</ele><time>2026-03-24T09:22:39.632Z</time></trkpt><trkpt lat="45.6157616" lon="11.109492"><ele>968.0</ele><time>2026-03-24T09:22:40.635Z</time></trkpt><trkpt lat="45.6156726" lon="11.1094213"><ele>968.0</ele><time>2026-03-24T09:22:41.637Z</time></trkpt><trkpt lat="45.6155787" lon="11.1093536"><ele>968.0</ele><time>2026-03-24T09:22:42.639Z</time></trkpt><trkpt lat="45.6154928" lon="11.1092852"><ele>968.0</ele><time>2026-03-24T09:22:43.63Z</time></trkpt><trkpt lat="45.6154049" lon="11.1092107"><ele>968.0</ele><time>2026-03-24T09:22:44.635Z</time></trkpt><trkpt lat="45.6153121" lon="11.1091304"><ele>968.0</ele><time>2026-03-24T09:22:45.637Z</time></trkpt><trkpt lat="45.6152231" lon="11.1090435"><ele>968.0</ele><time>2026-03-24T09:22:46.627Z</time></trkpt><trkpt lat="45.6151426" lon="11.108959"><ele>968.0</ele><time>2026-03-24T09:22:47.632Z</time></trkpt><trkpt lat="45.6150592" lon="11.1088613"><ele>968.0</ele><time>2026-03-24T09:22:48.624Z</time></trkpt><trkpt lat="45.6149798" lon="11.1087538"><ele>968.0</ele><time>2026-03-24T09:22:49.633Z</time></trkpt><trkpt lat="45.614911" lon="11.1086522"><ele>968.0</ele><time>2026-03-24T09:22:50.629Z</time></trkpt><trkpt lat="45.614848" lon="11.1085658"><ele>968.0000000000001</ele><time>2026-03-24T09:22:51.631Z</time></trkpt><trkpt lat="45.6147835" lon="11.1084862"><ele>968.0</ele><time>2026-03-24T09:22:52.619Z</time></trkpt><trkpt lat="45.6147321" lon="11.1083995"><ele>968.0</ele><time>2026-03-24T09:22:53.632Z</time></trkpt><trkpt lat="45.6146756" lon="11.1083044"><ele>968.0</ele><time>2026-03-24T09:22:54.627Z</time></trkpt><trkpt lat="45.6146134" lon="11.1082046"><ele>968.0000000000001</ele><time>2026-03-24T09:22:55.628Z</time></trkpt><trkpt lat="45.6145541" lon="11.1081181"><ele>968.0</ele><time>2026-03-24T09:22:56.623Z</time></trkpt><trkpt lat="45.6144897" lon="11.1080605"><ele>970.5000000000001</ele><time>2026-03-24T09:22:57.633Z</time></trkpt><trkpt lat="45.6144185" lon="11.108043"><ele>973.0</ele><time>2026-03-24T09:22:58.631Z</time></trkpt><trkpt lat="45.6143436" lon="11.1080719"><ele>975.5</ele><time>2026-03-24T09:22:59.628Z</time></trkpt><trkpt lat="45.6142587" lon="11.1081019"><ele>978.0</ele><time>2026-03-24T09:23:00.631Z</time></trkpt><trkpt lat="45.6141661" lon="11.1081341"><ele>980.5000000000001</ele><time>2026-03-24T09:23:01.632Z</time></trkpt><trkpt lat="45.6140716" lon="11.1081276"><ele>983.0</ele><time>2026-03-24T09:23:02.626Z</time></trkpt><trkpt lat="45.6139799" lon="11.1081101"><ele>983.0</ele><time>2026-03-24T09:23:03.637Z</time></trkpt><trkpt lat="45.6138861" lon="11.1080821"><ele>983.0</ele><time>2026-03-24T09:23:04.622Z</time></trkpt><trkpt lat="45.6137871" lon="11.1080511"><ele>983.0</ele><time>2026-03-24T09:23:05.625Z</time></trkpt><trkpt lat="45.6136838" lon="11.1080005"><ele>983.0</ele><time>2026-03-24T09:23:06.636Z</time></trkpt><trkpt lat="45.6135815" lon="11.1079434"><ele>983.0</ele><time>2026-03-24T09:23:07.635Z</time></trkpt><trkpt lat="45.6134786" lon="11.1078935"><ele>983.4</ele><time>2026-03-24T09:23:08.636Z</time></trkpt><trkpt lat="45.6133821" lon="11.107844"><ele>983.8</ele><time>2026-03-24T09:23:09.639Z</time></trkpt><trkpt lat="45.6132851" lon="11.1078006"><ele>984.2</ele><time>2026-03-24T09:23:10.636Z</time></trkpt><trkpt lat="45.6131849" lon="11.1077523"><ele>984.6</ele><time>2026-03-24T09:23:11.641Z</time></trkpt><trkpt lat="45.6130763" lon="11.1077005"><ele>985.0</ele><time>2026-03-24T09:23:12.635Z</time></trkpt><trkpt lat="45.6129662" lon="11.1076452"><ele>985.0</ele><time>2026-03-24T09:23:13.638Z</time></trkpt><trkpt lat="45.6128625" lon="11.1075949"><ele>985.0</ele><time>2026-03-24T09:23:14.638Z</time></trkpt><trkpt lat="45.61277" lon="11.1075492"><ele>985.0</ele><time>2026-03-24T09:23:15.633Z</time></trkpt><trkpt lat="45.612687" lon="11.1074931"><ele>985.0</ele><time>2026-03-24T09:23:16.632Z</time></trkpt><trkpt lat="45.6126038" lon="11.1074233"><ele>985.0</ele><time>2026-03-24T09:23:17.636Z</time></trkpt><trkpt lat="45.6125155" lon="11.1073363"><ele>990.0</ele><time>2026-03-24T09:23:18.634Z</time></trkpt><trkpt lat="45.6124272" lon="11.1072695"><ele>995.0</ele><time>2026-03-24T09:23:19.645Z</time></trkpt><trkpt lat="45.6123329" lon="11.1072132"><ele>1000.0</ele><time>2026-03-24T09:23:20.637Z</time></trkpt><trkpt lat="45.6122267" lon="11.1071743"><ele>1005.0</ele><time>2026-03-24T09:23:21.641Z</time></trkpt><trkpt lat="45.6121157" lon="11.1071489"><ele>1010.0</ele><time>2026-03-24T09:23:22.657Z</time></trkpt><trkpt lat="45.6120018" lon="11.1071258"><ele>1009.8</ele><time>2026-03-24T09:23:23.644Z</time></trkpt><trkpt lat="45.6118908" lon="11.1071104"><ele>1009.6</ele><time>2026-03-24T09:23:24.646Z</time></trkpt><trkpt lat="45.6117805" lon="11.1070915"><ele>1009.4000000000001</ele><time>2026-03-24T09:23:25.643Z</time></trkpt><trkpt lat="45.6116828" lon="11.1070667"><ele>1009.2</ele><time>2026-03-24T09:23:26.64Z</time></trkpt><trkpt lat="45.6115906" lon="11.1070619"><ele>1009.0</ele><time>2026-03-24T09:23:27.643Z</time></trkpt><trkpt lat="45.6115051" lon="11.1070916"><ele>1009.0</ele><time>2026-03-24T09:23:28.641Z</time></trkpt><trkpt lat="45.6114279" lon="11.107162"><ele>1009.0000000000001</ele><time>2026-03-24T09:23:29.645Z</time></trkpt><trkpt lat="45.611349" lon="11.1072389"><ele>1009.0000000000001</ele><time>2026-03-24T09:23:30.636Z</time></trkpt><trkpt lat="45.6112781" lon="11.1073339"><ele>1009.0</ele><time>2026-03-24T09:23:31.632Z</time></trkpt><trkpt lat="45.6112167" lon="11.1074335"><ele>1009.0</ele><time>2026-03-24T09:23:32.635Z</time></trkpt><trkpt lat="45.611133" lon="11.1075084"><ele>1007.8000000000001</ele><time>2026-03-24T09:23:33.632Z</time></trkpt><trkpt lat="45.6110308" lon="11.1075402"><ele>1006.6000000000001</ele><time>2026-03-24T09:23:34.636Z</time></trkpt><trkpt lat="45.6109111" lon="11.1075487"><ele>1005.4</ele><time>2026-03-24T09:23:35.63Z</time></trkpt><trkpt lat="45.6107957" lon="11.1075526"><ele>1004.2</ele><time>2026-03-24T09:23:36.635Z</time></trkpt><trkpt lat="45.6106868" lon="11.1075653"><ele>1003.0</ele><time>2026-03-24T09:23:37.628Z</time></trkpt><trkpt lat="45.6105772" lon="11.1076043"><ele>1003.0</ele><time>2026-03-24T09:23:38.63Z</time></trkpt><trkpt lat="45.6104636" lon="11.1076581"><ele>1003.0</ele><time>2026-03-24T09:23:39.639Z</time></trkpt><trkpt lat="45.6103615" lon="11.1077424"><ele>1003.0</ele><time>2026-03-24T09:23:40.632Z</time></trkpt><trkpt lat="45.6102773" lon="11.1078305"><ele>1003.0</ele><time>2026-03-24T09:23:41.639Z</time></trkpt><trkpt lat="45.6102006" lon="11.1078836"><ele>1003.0</ele><time>2026-03-24T09:23:42.636Z</time></trkpt><trkpt lat="45.6101151" lon="11.1079221"><ele>1005.2</ele><time>2026-03-24T09:23:43.631Z</time></trkpt><trkpt lat="45.6100276" lon="11.1079406"><ele>1007.4</ele><time>2026-03-24T09:23:44.628Z</time></trkpt><trkpt lat="45.6099328" lon="11.1079176"><ele>1009.6000000000001</ele><time>2026-03-24T09:23:45.636Z</time></trkpt><trkpt lat="45.6098364" lon="11.1078753"><ele>1011.8000000000001</ele><time>2026-03-24T09:23:46.623Z</time></trkpt><trkpt lat="45.6097395" lon="11.1078151"><ele>1014.0</ele><time>2026-03-24T09:23:47.636Z</time></trkpt><trkpt lat="45.6096414" lon="11.1077669"><ele>1014.0</ele><time>2026-03-24T09:23:48.629Z</time></trkpt><trkpt lat="45.6095392" lon="11.1077199"><ele>1014.0000000000001</ele><time>2026-03-24T09:23:49.631Z</time></trkpt><trkpt lat="45.6094399" lon="11.1076743"><ele>1014.0000000000001</ele><time>2026-03-24T09:23:50.639Z</time></trkpt><trkpt lat="45.6093352" lon="11.1076349"><ele>1014.0</ele><time>2026-03-24T09:23:51.639Z</time></trkpt><trkpt lat="45.6092388" lon="11.1075945"><ele>1014.0</ele><time>2026-03-24T09:23:52.633Z</time></trkpt><trkpt lat="45.6091511" lon="11.1075486"><ele>1013.8333333333334</ele><time>2026-03-24T09:23:53.631Z</time></trkpt><trkpt lat="45.6090611" lon="11.1075053"><ele>1013.6666666666667</ele><time>2026-03-24T09:23:54.641Z</time></trkpt><trkpt lat="45.6089761" lon="11.1074637"><ele>1013.5</ele><time>2026-03-24T09:23:55.642Z</time></trkpt><trkpt lat="45.6089044" lon="11.1074048"><ele>1013.3333333333334</ele><time>2026-03-24T09:23:56.635Z</time></trkpt><trkpt lat="45.6088368" lon="11.1073431"><ele>1013.1666666666667</ele><time>2026-03-24T09:23:57.629Z</time></trkpt><trkpt lat="45.6087806" lon="11.1072506"><ele>1013.0</ele><time>2026-03-24T09:23:58.63Z</time></trkpt><trkpt lat="45.6087245" lon="11.1071451"><ele>1014.8</ele><time>2026-03-24T09:23:59.632Z</time></trkpt><trkpt lat="45.6086767" lon="11.1069971"><ele>1016.5999999999999</ele><time>2026-03-24T09:24:00.628Z</time></trkpt><trkpt lat="45.6086451" lon="11.1068488"><ele>1018.4000000000001</ele><time>2026-03-24T09:24:01.632Z</time></trkpt><trkpt lat="45.6086533" lon="11.1066979"><ele>1020.2</ele><time>2026-03-24T09:24:02.63Z</time></trkpt><trkpt lat="45.6086868" lon="11.1065527"><ele>1022.0</ele><time>2026-03-24T09:24:03.63Z</time></trkpt><trkpt lat="45.6087415" lon="11.1064284"><ele>1022.2</ele><time>2026-03-24T09:24:04.626Z</time></trkpt><trkpt lat="45.6088081" lon="11.1063235"><ele>1022.4000000000001</ele><time>2026-03-24T09:24:05.635Z</time></trkpt><trkpt lat="45.6089055" lon="11.106235"><ele>1022.5999999999999</ele><time>2026-03-24T09:24:06.631Z</time></trkpt><trkpt lat="45.6090102" lon="11.1061497"><ele>1022.8</ele><time>2026-03-24T09:24:07.625Z</time></trkpt><trkpt lat="45.6090914" lon="11.1060554"><ele>1023.0</ele><time>2026-03-24T09:24:08.634Z</time></trkpt><trkpt lat="45.6091476" lon="11.1059587"><ele>1023.0</ele><time>2026-03-24T09:24:09.621Z</time></trkpt><trkpt lat="45.6091786" lon="11.1058503"><ele>1023.0</ele><time>2026-03-24T09:24:10.622Z</time></trkpt><trkpt lat="45.6091789" lon="11.1057274"><ele>1023.0</ele><time>2026-03-24T09:24:11.626Z</time></trkpt><trkpt lat="45.6091546" lon="11.105617"><ele>1023.0</ele><time>2026-03-24T09:24:12.631Z</time></trkpt><trkpt lat="45.6091104" lon="11.105542"><ele>1023.0</ele><time>2026-03-24T09:24:13.62Z</time></trkpt><trkpt lat="45.6090409" lon="11.1054337"><ele>1023.0</ele><time>2026-03-24T09:24:15.626Z</time></trkpt><trkpt lat="45.6091071" lon="11.105337"><ele>1023.0</ele><time>2026-03-24T09:24:18.633Z</time></trkpt><trkpt lat="45.6092078" lon="11.1054664"><ele>1023.0</ele><time>2026-03-24T09:24:20.637Z</time></trkpt><trkpt lat="45.6092644" lon="11.1055779"><ele>1023.0</ele><time>2026-03-24T09:24:21.644Z</time></trkpt><trkpt lat="45.6093176" lon="11.1057"><ele>1023.0</ele><time>2026-03-24T09:24:22.639Z</time></trkpt><trkpt lat="45.6093637" lon="11.1058263"><ele>1023.0</ele><time>2026-03-24T09:24:23.636Z</time></trkpt><trkpt lat="45.6094056" lon="11.1059354"><ele>1023.0</ele><time>2026-03-24T09:24:24.627Z</time></trkpt><trkpt lat="45.609442" lon="11.10603"><ele>1023.0</ele><time>2026-03-24T09:24:25.635Z</time></trkpt><trkpt lat="45.6094706" lon="11.1061138"><ele>1023.0</ele><time>2026-03-24T09:24:26.638Z</time></trkpt><trkpt lat="45.609536" lon="11.1062195"><ele>1023.0</ele><time>2026-03-24T09:24:28.635Z</time></trkpt><trkpt lat="45.6096094" lon="11.1062457"><ele>1023.0</ele><time>2026-03-24T09:24:30.643Z</time></trkpt><trkpt lat="45.6096339" lon="11.1061213"><ele>1023.0</ele><time>2026-03-24T09:24:32.634Z</time></trkpt><trkpt lat="45.6096008" lon="11.1060402"><ele>1024.8</ele><time>2026-03-24T09:24:33.634Z</time></trkpt><trkpt lat="45.6095525" lon="11.105959"><ele>1026.6</ele><time>2026-03-24T09:24:34.635Z</time></trkpt><trkpt lat="45.6094958" lon="11.1058532"><ele>1028.4</ele><time>2026-03-24T09:24:35.631Z</time></trkpt><trkpt lat="45.6094374" lon="11.1057167"><ele>1030.2</ele><time>2026-03-24T09:24:36.63Z</time></trkpt><trkpt lat="45.6093863" lon="11.105561"><ele>1032.0</ele><time>2026-03-24T09:24:37.634Z</time></trkpt><trkpt lat="45.6093401" lon="11.1053894"><ele>1032.0</ele><time>2026-03-24T09:24:38.629Z</time></trkpt><trkpt lat="45.6093052" lon="11.1052185"><ele>1032.0</ele><time>2026-03-24T09:24:39.624Z</time></trkpt><trkpt lat="45.6092809" lon="11.1050605"><ele>1032.0</ele><time>2026-03-24T09:24:40.628Z</time></trkpt><trkpt lat="45.609258" lon="11.1049127"><ele>1032.0</ele><time>2026-03-24T09:24:41.629Z</time></trkpt><trkpt lat="45.6092432" lon="11.1047749"><ele>1032.0</ele><time>2026-03-24T09:24:42.633Z</time></trkpt><trkpt lat="45.6092304" lon="11.1046454"><ele>1035.0</ele><time>2026-03-24T09:24:43.641Z</time></trkpt><trkpt lat="45.6092149" lon="11.1045118"><ele>1038.0</ele><time>2026-03-24T09:24:44.634Z</time></trkpt><trkpt lat="45.6091947" lon="11.1043772"><ele>1041.0</ele><time>2026-03-24T09:24:45.635Z</time></trkpt><trkpt lat="45.6091627" lon="11.1042546"><ele>1044.0</ele><time>2026-03-24T09:24:46.634Z</time></trkpt><trkpt lat="45.6091159" lon="11.1041573"><ele>1047.0</ele><time>2026-03-24T09:24:47.629Z</time></trkpt><trkpt lat="45.6090529" lon="11.104057"><ele>1049.8</ele><time>2026-03-24T09:24:48.63Z</time></trkpt><trkpt lat="45.6089824" lon="11.1039662"><ele>1052.6</ele><time>2026-03-24T09:24:49.626Z</time></trkpt><trkpt lat="45.6089168" lon="11.1038657"><ele>1055.3999999999999</ele><time>2026-03-24T09:24:50.626Z</time></trkpt><trkpt lat="45.6088506" lon="11.1037556"><ele>1058.2</ele><time>2026-03-24T09:24:51.625Z</time></trkpt><trkpt lat="45.6087879" lon="11.1036407"><ele>1061.0</ele><time>2026-03-24T09:24:52.625Z</time></trkpt><trkpt lat="45.6087414" lon="11.1035245"><ele>1061.0</ele><time>2026-03-24T09:24:53.626Z</time></trkpt><trkpt lat="45.608711" lon="11.1034111"><ele>1061.0</ele><time>2026-03-24T09:24:54.629Z</time></trkpt><trkpt lat="45.6086878" lon="11.1032868"><ele>1061.0</ele><time>2026-03-24T09:24:55.638Z</time></trkpt><trkpt lat="45.6086864" lon="11.1031619"><ele>1061.0</ele><time>2026-03-24T09:24:56.633Z</time></trkpt><trkpt lat="45.608717" lon="11.1030173"><ele>1061.0</ele><time>2026-03-24T09:24:57.631Z</time></trkpt><trkpt lat="45.6087514" lon="11.1028737"><ele>1062.3999999999999</ele><time>2026-03-24T09:24:58.631Z</time></trkpt><trkpt lat="45.6087924" lon="11.1027399"><ele>1063.8</ele><time>2026-03-24T09:24:59.635Z</time></trkpt><trkpt lat="45.6088254" lon="11.1026081"><ele>1065.1999999999998</ele><time>2026-03-24T09:25:00.64Z</time></trkpt><trkpt lat="45.6088494" lon="11.102471"><ele>1066.6</ele><time>2026-03-24T09:25:01.634Z</time></trkpt><trkpt lat="45.6088637" lon="11.1023245"><ele>1068.0</ele><time>2026-03-24T09:25:02.64Z</time></trkpt><trkpt lat="45.6088645" lon="11.1021752"><ele>1071.5</ele><time>2026-03-24T09:25:03.63Z</time></trkpt><trkpt lat="45.6088523" lon="11.1020271"><ele>1075.0</ele><time>2026-03-24T09:25:04.627Z</time></trkpt><trkpt lat="45.6088059" lon="11.101875"><ele>1078.5</ele><time>2026-03-24T09:25:05.631Z</time></trkpt><trkpt lat="45.6087626" lon="11.1017217"><ele>1082.0</ele><time>2026-03-24T09:25:06.63Z</time></trkpt><trkpt lat="45.6087203" lon="11.1015652"><ele>1078.6</ele><time>2026-03-24T09:25:07.634Z</time></trkpt><trkpt lat="45.6086736" lon="11.1014174"><ele>1075.2</ele><time>2026-03-24T09:25:08.634Z</time></trkpt><trkpt lat="45.6086198" lon="11.1012941"><ele>1071.8</ele><time>2026-03-24T09:25:09.63Z</time></trkpt><trkpt lat="45.6085603" lon="11.1011698"><ele>1068.4</ele><time>2026-03-24T09:25:10.619Z</time></trkpt><trkpt lat="45.6085001" lon="11.1010424"><ele>1065.0</ele><time>2026-03-24T09:25:11.628Z</time></trkpt><trkpt lat="45.6084365" lon="11.1009269"><ele>1065.0</ele><time>2026-03-24T09:25:12.647Z</time></trkpt><trkpt lat="45.6083735" lon="11.1008227"><ele>1065.0</ele><time>2026-03-24T09:25:13.633Z</time></trkpt><trkpt lat="45.6083174" lon="11.1007241"><ele>1065.0</ele><time>2026-03-24T09:25:14.635Z</time></trkpt><trkpt lat="45.6082595" lon="11.1006272"><ele>1065.0</ele><time>2026-03-24T09:25:15.634Z</time></trkpt><trkpt lat="45.608186" lon="11.1005205"><ele>1065.0</ele><time>2026-03-24T09:25:16.624Z</time></trkpt><trkpt lat="45.6081139" lon="11.100409"><ele>1068.8</ele><time>2026-03-24T09:25:17.63Z</time></trkpt><trkpt lat="45.6080615" lon="11.1002911"><ele>1072.6</ele><time>2026-03-24T09:25:18.633Z</time></trkpt><trkpt lat="45.6080232" lon="11.1001511"><ele>1076.4</ele><time>2026-03-24T09:25:19.633Z</time></trkpt><trkpt lat="45.6079823" lon="11.1000061"><ele>1080.2</ele><time>2026-03-24T09:25:20.636Z</time></trkpt><trkpt lat="45.6079454" lon="11.099862"><ele>1084.0</ele><time>2026-03-24T09:25:21.636Z</time></trkpt><trkpt lat="45.6079126" lon="11.0997165"><ele>1081.4</ele><time>2026-03-24T09:25:22.63Z</time></trkpt><trkpt lat="45.6078789" lon="11.0995865"><ele>1078.8000000000002</ele><time>2026-03-24T09:25:23.624Z</time></trkpt><trkpt lat="45.6078389" lon="11.0994581"><ele>1076.1999999999998</ele><time>2026-03-24T09:25:24.636Z</time></trkpt><trkpt lat="45.6078139" lon="11.0993248"><ele>1073.6</ele><time>2026-03-24T09:25:25.638Z</time></trkpt><trkpt lat="45.6077972" lon="11.099183"><ele>1071.0</ele><time>2026-03-24T09:25:26.627Z</time></trkpt><trkpt lat="45.6077894" lon="11.0990283"><ele>1071.0</ele><time>2026-03-24T09:25:27.635Z</time></trkpt><trkpt lat="45.6077967" lon="11.0988677"><ele>1071.0</ele><time>2026-03-24T09:25:28.627Z</time></trkpt><trkpt lat="45.6078025" lon="11.098715"><ele>1071.0</ele><time>2026-03-24T09:25:29.638Z</time></trkpt><trkpt lat="45.6077985" lon="11.098568"><ele>1071.0</ele><time>2026-03-24T09:25:30.628Z</time></trkpt><trkpt lat="45.6077881" lon="11.0984238"><ele>1071.0</ele><time>2026-03-24T09:25:31.636Z</time></trkpt><trkpt lat="45.6077707" lon="11.0982845"><ele>1072.6</ele><time>2026-03-24T09:25:32.638Z</time></trkpt><trkpt lat="45.6077509" lon="11.0981445"><ele>1074.1999999999998</ele><time>2026-03-24T09:25:33.655Z</time></trkpt><trkpt lat="45.6077274" lon="11.0979995"><ele>1075.8000000000002</ele><time>2026-03-24T09:25:34.643Z</time></trkpt><trkpt lat="45.6077063" lon="11.0978675"><ele>1077.4</ele><time>2026-03-24T09:25:35.636Z</time></trkpt><trkpt lat="45.6076841" lon="11.0977482"><ele>1079.0</ele><time>2026-03-24T09:25:36.635Z</time></trkpt><trkpt lat="45.6076499" lon="11.0976236"><ele>1079.0</ele><time>2026-03-24T09:25:37.636Z</time></trkpt><trkpt lat="45.6076063" lon="11.0974973"><ele>1079.0</ele><time>2026-03-24T09:25:38.659Z</time></trkpt><trkpt lat="45.6075561" lon="11.0973728"><ele>1079.0</ele><time>2026-03-24T09:25:39.647Z</time></trkpt><trkpt lat="45.607506" lon="11.0972571"><ele>1079.0</ele><time>2026-03-24T09:25:40.628Z</time></trkpt><trkpt lat="45.6074576" lon="11.0971466"><ele>1079.0</ele><time>2026-03-24T09:25:41.633Z</time></trkpt><trkpt lat="45.6074007" lon="11.0970445"><ele>1080.2</ele><time>2026-03-24T09:25:42.635Z</time></trkpt><trkpt lat="45.6073366" lon="11.0969474"><ele>1081.4</ele><time>2026-03-24T09:25:43.631Z</time></trkpt><trkpt lat="45.6072614" lon="11.0968631"><ele>1082.6</ele><time>2026-03-24T09:25:44.637Z</time></trkpt><trkpt lat="45.6071749" lon="11.0967912"><ele>1083.8</ele><time>2026-03-24T09:25:45.635Z</time></trkpt><trkpt lat="45.6070897" lon="11.0967264"><ele>1085.0</ele><time>2026-03-24T09:25:46.652Z</time></trkpt><trkpt lat="45.6070061" lon="11.0966579"><ele>1084.0</ele><time>2026-03-24T09:25:47.637Z</time></trkpt><trkpt lat="45.6069234" lon="11.0965829"><ele>1083.0</ele><time>2026-03-24T09:25:48.639Z</time></trkpt><trkpt lat="45.6068441" lon="11.0965137"><ele>1082.0</ele><time>2026-03-24T09:25:49.634Z</time></trkpt><trkpt lat="45.6067763" lon="11.0964538"><ele>1081.0</ele><time>2026-03-24T09:25:50.632Z</time></trkpt><trkpt lat="45.6067199" lon="11.0964022"><ele>1080.0</ele><time>2026-03-24T09:25:51.638Z</time></trkpt><trkpt lat="45.6066189" lon="11.0963127"><ele>1080.0</ele><time>2026-03-24T09:25:53.623Z</time></trkpt><trkpt lat="45.6065202" lon="11.0962123"><ele>1080.0</ele><time>2026-03-24T09:25:55.635Z</time></trkpt><trkpt lat="45.6065321" lon="11.0960531"><ele>1080.0</ele><time>2026-03-24T09:25:57.636Z</time></trkpt><trkpt lat="45.6065799" lon="11.0959763"><ele>1080.0</ele><time>2026-03-24T09:25:58.634Z</time></trkpt><trkpt lat="45.6066562" lon="11.0958993"><ele>1080.0</ele><time>2026-03-24T09:25:59.626Z</time></trkpt><trkpt lat="45.6067356" lon="11.095818"><ele>1076.8</ele><time>2026-03-24T09:26:00.633Z</time></trkpt><trkpt lat="45.6068292" lon="11.0957394"><ele>1073.6</ele><time>2026-03-24T09:26:01.634Z</time></trkpt><trkpt lat="45.6069222" lon="11.0956664"><ele>1070.4</ele><time>2026-03-24T09:26:02.631Z</time></trkpt><trkpt lat="45.6070109" lon="11.0955874"><ele>1067.2</ele><time>2026-03-24T09:26:03.619Z</time></trkpt><trkpt lat="45.6071095" lon="11.095523"><ele>1064.0</ele><time>2026-03-24T09:26:04.629Z</time></trkpt><trkpt lat="45.6072026" lon="11.0954736"><ele>1064.0</ele><time>2026-03-24T09:26:05.622Z</time></trkpt><trkpt lat="45.6073148" lon="11.0954611"><ele>1064.0</ele><time>2026-03-24T09:26:06.624Z</time></trkpt><trkpt lat="45.6074232" lon="11.0954622"><ele>1064.0</ele><time>2026-03-24T09:26:07.63Z</time></trkpt><trkpt lat="45.6075346" lon="11.095488"><ele>1064.0</ele><time>2026-03-24T09:26:08.629Z</time></trkpt><trkpt lat="45.6076381" lon="11.0955335"><ele>1064.0</ele><time>2026-03-24T09:26:09.632Z</time></trkpt><trkpt lat="45.607739" lon="11.0955945"><ele>1064.3333333333335</ele><time>2026-03-24T09:26:10.634Z</time></trkpt><trkpt lat="45.6078417" lon="11.0956716"><ele>1064.6666666666667</ele><time>2026-03-24T09:26:11.631Z</time></trkpt><trkpt lat="45.6079289" lon="11.0957317"><ele>1065.0</ele><time>2026-03-24T09:26:12.638Z</time></trkpt><trkpt lat="45.6080154" lon="11.0957963"><ele>1065.3333333333333</ele><time>2026-03-24T09:26:14.629Z</time></trkpt><trkpt lat="45.6080717" lon="11.0958527"><ele>1065.6666666666665</ele><time>2026-03-24T09:26:28.644Z</time></trkpt><trkpt lat="45.6081359" lon="11.0958302"><ele>1066.0</ele><time>2026-03-24T09:26:33.641Z</time></trkpt><trkpt lat="45.6082049" lon="11.0958021"><ele>1066.0</ele><time>2026-03-24T09:30:38.65Z</time></trkpt><trkpt lat="45.6082968" lon="11.0957636"><ele>1066.0</ele><time>2026-03-24T09:30:41.653Z</time></trkpt><trkpt lat="45.6084373" lon="11.0956573"><ele>1066.0</ele><time>2026-03-24T09:30:43.65Z</time></trkpt><trkpt lat="45.6085196" lon="11.0955673"><ele>1066.0</ele><time>2026-03-24T09:30:44.652Z</time></trkpt><trkpt lat="45.6086057" lon="11.0954595"><ele>1069.25</ele><time>2026-03-24T09:30:45.656Z</time></trkpt><trkpt lat="45.6086898" lon="11.0953434"><ele>1072.5</ele><time>2026-03-24T09:30:46.657Z</time></trkpt><trkpt lat="45.608769" lon="11.0952243"><ele>1075.75</ele><time>2026-03-24T09:30:47.654Z</time></trkpt><trkpt lat="45.6088436" lon="11.0951136"><ele>1079.0</ele><time>2026-03-24T09:30:48.639Z</time></trkpt><trkpt lat="45.6089318" lon="11.0950174"><ele>1079.0</ele><time>2026-03-24T09:30:49.649Z</time></trkpt><trkpt lat="45.609043" lon="11.094944"><ele>1079.0</ele><time>2026-03-24T09:30:50.641Z</time></trkpt><trkpt lat="45.6091675" lon="11.0948949"><ele>1079.0</ele><time>2026-03-24T09:30:51.642Z</time></trkpt><trkpt lat="45.6092972" lon="11.0948608"><ele>1079.0</ele><time>2026-03-24T09:30:52.645Z</time></trkpt><trkpt lat="45.609447" lon="11.0948395"><ele>1082.0</ele><time>2026-03-24T09:30:53.655Z</time></trkpt><trkpt lat="45.6096229" lon="11.0948473"><ele>1085.0</ele><time>2026-03-24T09:30:54.657Z</time></trkpt><trkpt lat="45.609801" lon="11.0948387"><ele>1088.0</ele><time>2026-03-24T09:30:55.663Z</time></trkpt><trkpt lat="45.6099748" lon="11.0948067"><ele>1088.0</ele><time>2026-03-24T09:30:56.659Z</time></trkpt><trkpt lat="45.610138" lon="11.0947754"><ele>1088.0</ele><time>2026-03-24T09:30:57.658Z</time></trkpt><trkpt lat="45.6102713" lon="11.0947728"><ele>1088.0</ele><time>2026-03-24T09:30:58.654Z</time></trkpt><trkpt lat="45.6103949" lon="11.0947612"><ele>1088.0</ele><time>2026-03-24T09:30:59.641Z</time></trkpt><trkpt lat="45.6105267" lon="11.0947924"><ele>1089.0</ele><time>2026-03-24T09:31:00.646Z</time></trkpt><trkpt lat="45.6106472" lon="11.0948631"><ele>1090.0</ele><time>2026-03-24T09:31:01.647Z</time></trkpt><trkpt lat="45.6107695" lon="11.0949383"><ele>1091.0</ele><time>2026-03-24T09:31:02.657Z</time></trkpt><trkpt lat="45.6108682" lon="11.0950175"><ele>1092.0</ele><time>2026-03-24T09:31:03.65Z</time></trkpt><trkpt lat="45.6109812" lon="11.0950744"><ele>1092.0</ele><time>2026-03-24T09:31:04.644Z</time></trkpt><trkpt lat="45.6110928" lon="11.0950442"><ele>1092.0</ele><time>2026-03-24T09:31:05.641Z</time></trkpt><trkpt lat="45.6112035" lon="11.0949455"><ele>1092.0</ele><time>2026-03-24T09:31:06.645Z</time></trkpt><trkpt lat="45.6113123" lon="11.0947981"><ele>1092.0</ele><time>2026-03-24T09:31:07.646Z</time></trkpt><trkpt lat="45.6113927" lon="11.094633"><ele>1091.75</ele><time>2026-03-24T09:31:08.647Z</time></trkpt><trkpt lat="45.6114678" lon="11.0944123"><ele>1091.5</ele><time>2026-03-24T09:31:09.644Z</time></trkpt><trkpt lat="45.6115302" lon="11.094249"><ele>1091.25</ele><time>2026-03-24T09:31:10.639Z</time></trkpt><trkpt lat="45.6116038" lon="11.0941089"><ele>1091.0</ele><time>2026-03-24T09:31:11.643Z</time></trkpt><trkpt lat="45.611682" lon="11.0939973"><ele>1091.5</ele><time>2026-03-24T09:31:12.64Z</time></trkpt><trkpt lat="45.6117856" lon="11.0939748"><ele>1092.0</ele><time>2026-03-24T09:31:13.648Z</time></trkpt><trkpt lat="45.6119054" lon="11.0939952"><ele>1092.5</ele><time>2026-03-24T09:31:14.653Z</time></trkpt><trkpt lat="45.6120356" lon="11.0940615"><ele>1093.0</ele><time>2026-03-24T09:31:15.643Z</time></trkpt><trkpt lat="45.6121565" lon="11.0941546"><ele>1093.0</ele><time>2026-03-24T09:31:16.643Z</time></trkpt><trkpt lat="45.6122626" lon="11.0942611"><ele>1093.0</ele><time>2026-03-24T09:31:17.64Z</time></trkpt><trkpt lat="45.6123426" lon="11.0943825"><ele>1093.0</ele><time>2026-03-24T09:31:18.649Z</time></trkpt><trkpt lat="45.6124239" lon="11.0944842"><ele>1093.0</ele><time>2026-03-24T09:31:19.647Z</time></trkpt><trkpt lat="45.6125281" lon="11.0945406"><ele>1093.0</ele><time>2026-03-24T09:31:20.635Z</time></trkpt><trkpt lat="45.6126463" lon="11.0945645"><ele>1093.0</ele><time>2026-03-24T09:31:21.641Z</time></trkpt><trkpt lat="45.6127908" lon="11.0945402"><ele>1093.0</ele><time>2026-03-24T09:31:22.643Z</time></trkpt><trkpt lat="45.6129434" lon="11.0944948"><ele>1093.0</ele><time>2026-03-24T09:31:23.645Z</time></trkpt><trkpt lat="45.6131017" lon="11.0944082"><ele>1094.5</ele><time>2026-03-24T09:31:24.646Z</time></trkpt><trkpt lat="45.6132481" lon="11.0943001"><ele>1096.0</ele><time>2026-03-24T09:31:25.643Z</time></trkpt><trkpt lat="45.6133625" lon="11.0942301"><ele>1097.5</ele><time>2026-03-24T09:31:26.637Z</time></trkpt><trkpt lat="45.6134937" lon="11.0942362"><ele>1099.0</ele><time>2026-03-24T09:31:27.636Z</time></trkpt><trkpt lat="45.6136481" lon="11.0942882"><ele>1099.0</ele><time>2026-03-24T09:31:28.638Z</time></trkpt><trkpt lat="45.6137893" lon="11.0943309"><ele>1099.0</ele><time>2026-03-24T09:31:29.643Z</time></trkpt><trkpt lat="45.6139309" lon="11.0943993"><ele>1099.0</ele><time>2026-03-24T09:31:30.648Z</time></trkpt><trkpt lat="45.6140741" lon="11.0944611"><ele>1099.0</ele><time>2026-03-24T09:31:31.658Z</time></trkpt><trkpt lat="45.6142342" lon="11.0944922"><ele>1099.0</ele><time>2026-03-24T09:31:32.655Z</time></trkpt><trkpt lat="45.6144008" lon="11.0944878"><ele>1099.0</ele><time>2026-03-24T09:31:33.648Z</time></trkpt><trkpt lat="45.6145566" lon="11.0944822"><ele>1099.0</ele><time>2026-03-24T09:31:34.643Z</time></trkpt><trkpt lat="45.6147142" lon="11.0944869"><ele>1099.6666666666665</ele><time>2026-03-24T09:31:35.649Z</time></trkpt><trkpt lat="45.6148918" lon="11.0944624"><ele>1100.3333333333333</ele><time>2026-03-24T09:31:36.649Z</time></trkpt><trkpt lat="45.6150518" lon="11.094451"><ele>1101.0</ele><time>2026-03-24T09:31:37.647Z</time></trkpt><trkpt lat="45.615195" lon="11.0944415"><ele>1099.6666666666667</ele><time>2026-03-24T09:31:38.655Z</time></trkpt><trkpt lat="45.6153488" lon="11.094438"><ele>1098.3333333333335</ele><time>2026-03-24T09:31:39.655Z</time></trkpt><trkpt lat="45.6155035" lon="11.0944368"><ele>1097.0</ele><time>2026-03-24T09:31:40.647Z</time></trkpt><trkpt lat="45.6156602" lon="11.0944179"><ele>1097.0</ele><time>2026-03-24T09:31:41.656Z</time></trkpt><trkpt lat="45.6157969" lon="11.0943817"><ele>1097.0</ele><time>2026-03-24T09:31:42.662Z</time></trkpt><trkpt lat="45.6159449" lon="11.0943727"><ele>1097.0</ele><time>2026-03-24T09:31:43.659Z</time></trkpt><trkpt lat="45.6160958" lon="11.0943586"><ele>1097.0</ele><time>2026-03-24T09:31:44.66Z</time></trkpt><trkpt lat="45.6162732" lon="11.0943579"><ele>1099.3333333333335</ele><time>2026-03-24T09:31:45.659Z</time></trkpt><trkpt lat="45.6164241" lon="11.0943488"><ele>1101.6666666666667</ele><time>2026-03-24T09:31:46.648Z</time></trkpt><trkpt lat="45.6166174" lon="11.0942974"><ele>1104.0</ele><time>2026-03-24T09:31:47.668Z</time></trkpt><trkpt lat="45.616789" lon="11.0942441"><ele>1104.0</ele><time>2026-03-24T09:31:48.662Z</time></trkpt><trkpt lat="45.6169573" lon="11.094213"><ele>1104.0</ele><time>2026-03-24T09:31:49.664Z</time></trkpt><trkpt lat="45.6170476" lon="11.0941507"><ele>1104.0</ele><time>2026-03-24T09:31:50.656Z</time></trkpt><trkpt lat="45.6171373" lon="11.0940587"><ele>1104.0</ele><time>2026-03-24T09:31:51.655Z</time></trkpt><trkpt lat="45.617203" lon="11.0939327"><ele>1110.3333333333333</ele><time>2026-03-24T09:31:52.647Z</time></trkpt><trkpt lat="45.6172578" lon="11.0937457"><ele>1116.6666666666665</ele><time>2026-03-24T09:31:53.664Z</time></trkpt><trkpt lat="45.6172888" lon="11.093522"><ele>1123.0</ele><time>2026-03-24T09:31:54.657Z</time></trkpt><trkpt lat="45.6173363" lon="11.0933141"><ele>1122.6666666666665</ele><time>2026-03-24T09:31:55.649Z</time></trkpt><trkpt lat="45.6173766" lon="11.0930825"><ele>1122.3333333333333</ele><time>2026-03-24T09:31:56.652Z</time></trkpt><trkpt lat="45.6174212" lon="11.0928681"><ele>1122.0</ele><time>2026-03-24T09:31:57.649Z</time></trkpt><trkpt lat="45.6175053" lon="11.0926783"><ele>1122.0</ele><time>2026-03-24T09:31:58.651Z</time></trkpt><trkpt lat="45.6175985" lon="11.0924975"><ele>1122.0</ele><time>2026-03-24T09:31:59.661Z</time></trkpt><trkpt lat="45.6176915" lon="11.0923331"><ele>1122.0</ele><time>2026-03-24T09:32:00.663Z</time></trkpt><trkpt lat="45.6178022" lon="11.0921831"><ele>1127.0</ele><time>2026-03-24T09:32:01.651Z</time></trkpt><trkpt lat="45.617911" lon="11.0919882"><ele>1132.0</ele><time>2026-03-24T09:32:02.656Z</time></trkpt><trkpt lat="45.6180241" lon="11.0917908"><ele>1137.0</ele><time>2026-03-24T09:32:03.667Z</time></trkpt><trkpt lat="45.618119" lon="11.0915994"><ele>1132.6666666666667</ele><time>2026-03-24T09:32:04.67Z</time></trkpt><trkpt lat="45.6182208" lon="11.0913981"><ele>1128.3333333333335</ele><time>2026-03-24T09:32:05.675Z</time></trkpt><trkpt lat="45.6183138" lon="11.091193"><ele>1124.0</ele><time>2026-03-24T09:32:06.669Z</time></trkpt><trkpt lat="45.6183845" lon="11.0910179"><ele>1124.0</ele><time>2026-03-24T09:32:07.669Z</time></trkpt><trkpt lat="45.6184724" lon="11.0908623"><ele>1124.0</ele><time>2026-03-24T09:32:08.664Z</time></trkpt><trkpt lat="45.6185882" lon="11.0907261"><ele>1124.0</ele><time>2026-03-24T09:32:09.665Z</time></trkpt><trkpt lat="45.6187151" lon="11.0906164"><ele>1124.0</ele><time>2026-03-24T09:32:10.662Z</time></trkpt><trkpt lat="45.6188269" lon="11.0905409"><ele>1127.4</ele><time>2026-03-24T09:32:11.661Z</time></trkpt><trkpt lat="45.6189595" lon="11.0904837"><ele>1130.8000000000002</ele><time>2026-03-24T09:32:12.655Z</time></trkpt><trkpt lat="45.6190269" lon="11.0903728"><ele>1134.1999999999998</ele><time>2026-03-24T09:32:13.654Z</time></trkpt><trkpt lat="45.6190784" lon="11.0902487"><ele>1137.6</ele><time>2026-03-24T09:32:14.656Z</time></trkpt><trkpt lat="45.6190967" lon="11.0901147"><ele>1141.0</ele><time>2026-03-24T09:32:15.652Z</time></trkpt><trkpt lat="45.6190702" lon="11.0899205"><ele>1141.0</ele><time>2026-03-24T09:32:16.648Z</time></trkpt><trkpt lat="45.6190104" lon="11.0897642"><ele>1141.0</ele><time>2026-03-24T09:32:17.648Z</time></trkpt><trkpt lat="45.6189447" lon="11.0896242"><ele>1141.0</ele><time>2026-03-24T09:32:18.654Z</time></trkpt><trkpt lat="45.6188829" lon="11.0894824"><ele>1141.0</ele><time>2026-03-24T09:32:19.658Z</time></trkpt><trkpt lat="45.6188488" lon="11.089356"><ele>1141.0</ele><time>2026-03-24T09:32:20.661Z</time></trkpt><trkpt lat="45.6188424" lon="11.0892215"><ele>1141.0</ele><time>2026-03-24T09:32:21.668Z</time></trkpt><trkpt lat="45.6188774" lon="11.0890848"><ele>1141.0</ele><time>2026-03-24T09:32:22.659Z</time></trkpt><trkpt lat="45.6189449" lon="11.0889544"><ele>1141.0</ele><time>2026-03-24T09:32:23.663Z</time></trkpt><trkpt lat="45.6190514" lon="11.0888376"><ele>1141.0</ele><time>2026-03-24T09:32:24.67Z</time></trkpt><trkpt lat="45.6191915" lon="11.0887237"><ele>1144.6666666666665</ele><time>2026-03-24T09:32:25.678Z</time></trkpt><trkpt lat="45.6193716" lon="11.0886045"><ele>1148.3333333333333</ele><time>2026-03-24T09:32:26.663Z</time></trkpt><trkpt lat="45.6195207" lon="11.0884851"><ele>1152.0</ele><time>2026-03-24T09:32:27.665Z</time></trkpt><trkpt lat="45.6196454" lon="11.0883959"><ele>1152.0</ele><time>2026-03-24T09:32:28.654Z</time></trkpt><trkpt lat="45.6197449" lon="11.0883223"><ele>1152.0</ele><time>2026-03-24T09:32:29.672Z</time></trkpt><trkpt lat="45.619849" lon="11.0883091"><ele>1152.0</ele><time>2026-03-24T09:32:30.662Z</time></trkpt><trkpt lat="45.6199637" lon="11.0883303"><ele>1152.0</ele><time>2026-03-24T09:32:31.658Z</time></trkpt><trkpt lat="45.6200915" lon="11.0883775"><ele>1152.0</ele><time>2026-03-24T09:32:32.667Z</time></trkpt><trkpt lat="45.6202171" lon="11.0884402"><ele>1152.0</ele><time>2026-03-24T09:32:33.663Z</time></trkpt><trkpt lat="45.6203381" lon="11.0885372"><ele>1152.0</ele><time>2026-03-24T09:32:34.658Z</time></trkpt><trkpt lat="45.6204661" lon="11.0886451"><ele>1152.0</ele><time>2026-03-24T09:32:35.656Z</time></trkpt><trkpt lat="45.6205993" lon="11.0887714"><ele>1158.0</ele><time>2026-03-24T09:32:36.663Z</time></trkpt><trkpt lat="45.6207313" lon="11.0888757"><ele>1164.0</ele><time>2026-03-24T09:32:37.665Z</time></trkpt><trkpt lat="45.6208451" lon="11.088971"><ele>1170.0</ele><time>2026-03-24T09:32:38.659Z</time></trkpt><trkpt lat="45.620956" lon="11.0890618"><ele>1176.0</ele><time>2026-03-24T09:32:39.659Z</time></trkpt><trkpt lat="45.6210907" lon="11.0891464"><ele>1178.0</ele><time>2026-03-24T09:32:40.663Z</time></trkpt><trkpt lat="45.6212129" lon="11.0892341"><ele>1180.0</ele><time>2026-03-24T09:32:41.662Z</time></trkpt><trkpt lat="45.6213508" lon="11.0892744"><ele>1182.0</ele><time>2026-03-24T09:32:42.654Z</time></trkpt><trkpt lat="45.621482" lon="11.0893239"><ele>1184.0</ele><time>2026-03-24T09:32:43.654Z</time></trkpt><trkpt lat="45.6216015" lon="11.0893477"><ele>1184.0</ele><time>2026-03-24T09:32:44.658Z</time></trkpt><trkpt lat="45.6217252" lon="11.0893321"><ele>1184.0</ele><time>2026-03-24T09:32:45.655Z</time></trkpt><trkpt lat="45.6218448" lon="11.0893308"><ele>1184.0</ele><time>2026-03-24T09:32:46.659Z</time></trkpt><trkpt lat="45.6219781" lon="11.0892971"><ele>1184.0</ele><time>2026-03-24T09:32:47.656Z</time></trkpt><trkpt lat="45.6221462" lon="11.0893261"><ele>1183.6666666666667</ele><time>2026-03-24T09:32:48.665Z</time></trkpt><trkpt lat="45.6223378" lon="11.0893223"><ele>1183.3333333333333</ele><time>2026-03-24T09:32:49.661Z</time></trkpt><trkpt lat="45.6225164" lon="11.0893306"><ele>1183.0</ele><time>2026-03-24T09:32:50.674Z</time></trkpt><trkpt lat="45.6226783" lon="11.0893556"><ele>1182.6666666666665</ele><time>2026-03-24T09:32:51.663Z</time></trkpt><trkpt lat="45.6228411" lon="11.0893493"><ele>1182.3333333333333</ele><time>2026-03-24T09:32:52.661Z</time></trkpt><trkpt lat="45.6230085" lon="11.089357"><ele>1182.0</ele><time>2026-03-24T09:32:53.66Z</time></trkpt><trkpt lat="45.6231727" lon="11.089365"><ele>1182.0</ele><time>2026-03-24T09:32:54.663Z</time></trkpt><trkpt lat="45.6233485" lon="11.0893657"><ele>1182.0</ele><time>2026-03-24T09:32:55.67Z</time></trkpt><trkpt lat="45.6235084" lon="11.0893764"><ele>1182.0</ele><time>2026-03-24T09:32:56.666Z</time></trkpt><trkpt lat="45.6236697" lon="11.089395"><ele>1179.5</ele><time>2026-03-24T09:32:57.666Z</time></trkpt><trkpt lat="45.6238081" lon="11.0894598"><ele>1177.0</ele><time>2026-03-24T09:32:58.669Z</time></trkpt><trkpt lat="45.6239483" lon="11.0895166"><ele>1174.5</ele><time>2026-03-24T09:32:59.655Z</time></trkpt><trkpt lat="45.6240932" lon="11.0895583"><ele>1172.0</ele><time>2026-03-24T09:33:00.667Z</time></trkpt><trkpt lat="45.6242388" lon="11.0895621"><ele>1172.0</ele><time>2026-03-24T09:33:01.66Z</time></trkpt><trkpt lat="45.6243851" lon="11.0895593"><ele>1172.0</ele><time>2026-03-24T09:33:02.667Z</time></trkpt><trkpt lat="45.6245554" lon="11.0894829"><ele>1172.0</ele><time>2026-03-24T09:33:03.656Z</time></trkpt><trkpt lat="45.6247268" lon="11.0894279"><ele>1170.3333333333335</ele><time>2026-03-24T09:33:04.657Z</time></trkpt><trkpt lat="45.6249001" lon="11.0893604"><ele>1168.6666666666667</ele><time>2026-03-24T09:33:05.653Z</time></trkpt><trkpt lat="45.6250687" lon="11.0893046"><ele>1167.0</ele><time>2026-03-24T09:33:06.665Z</time></trkpt><trkpt lat="45.6252406" lon="11.0892508"><ele>1165.3333333333333</ele><time>2026-03-24T09:33:07.667Z</time></trkpt><trkpt lat="45.6254002" lon="11.089193"><ele>1163.6666666666665</ele><time>2026-03-24T09:33:08.661Z</time></trkpt><trkpt lat="45.6255818" lon="11.0891856"><ele>1162.0</ele><time>2026-03-24T09:33:09.662Z</time></trkpt><trkpt lat="45.6257686" lon="11.0891657"><ele>1162.0</ele><time>2026-03-24T09:33:10.66Z</time></trkpt><trkpt lat="45.6259298" lon="11.0891274"><ele>1162.0</ele><time>2026-03-24T09:33:11.661Z</time></trkpt><trkpt lat="45.6260717" lon="11.0890948"><ele>1162.0</ele><time>2026-03-24T09:33:12.666Z</time></trkpt><trkpt lat="45.6262244" lon="11.0890704"><ele>1162.75</ele><time>2026-03-24T09:33:13.664Z</time></trkpt><trkpt lat="45.6263566" lon="11.0890149"><ele>1163.5</ele><time>2026-03-24T09:33:14.669Z</time></trkpt><trkpt lat="45.6264906" lon="11.0889252"><ele>1164.25</ele><time>2026-03-24T09:33:15.664Z</time></trkpt><trkpt lat="45.626595" lon="11.0888138"><ele>1165.0</ele><time>2026-03-24T09:33:16.66Z</time></trkpt><trkpt lat="45.6266918" lon="11.0886784"><ele>1165.0</ele><time>2026-03-24T09:33:17.663Z</time></trkpt><trkpt lat="45.6267638" lon="11.0885482"><ele>1165.0</ele><time>2026-03-24T09:33:18.659Z</time></trkpt><trkpt lat="45.6268446" lon="11.0884492"><ele>1165.0</ele><time>2026-03-24T09:33:19.652Z</time></trkpt><trkpt lat="45.6268919" lon="11.08837"><ele>1165.0</ele><time>2026-03-24T09:33:20.656Z</time></trkpt><trkpt lat="45.6269372" lon="11.0882711"><ele>1165.0</ele><time>2026-03-24T09:33:21.664Z</time></trkpt><trkpt lat="45.626988" lon="11.0881526"><ele>1166.0</ele><time>2026-03-24T09:33:22.661Z</time></trkpt><trkpt lat="45.627031" lon="11.0880173"><ele>1167.0</ele><time>2026-03-24T09:33:23.665Z</time></trkpt><trkpt lat="45.6270577" lon="11.0878624"><ele>1168.0</ele><time>2026-03-24T09:33:24.657Z</time></trkpt><trkpt lat="45.6270687" lon="11.0876987"><ele>1169.0</ele><time>2026-03-24T09:33:25.662Z</time></trkpt><trkpt lat="45.6270464" lon="11.087512"><ele>1168.5</ele><time>2026-03-24T09:33:26.67Z</time></trkpt><trkpt lat="45.627002" lon="11.0873276"><ele>1168.0</ele><time>2026-03-24T09:33:27.677Z</time></trkpt><trkpt lat="45.6269414" lon="11.0871517"><ele>1167.5</ele><time>2026-03-24T09:33:28.674Z</time></trkpt><trkpt lat="45.6268708" lon="11.0869813"><ele>1167.0</ele><time>2026-03-24T09:33:29.665Z</time></trkpt><trkpt lat="45.6267856" lon="11.0868178"><ele>1165.3333333333333</ele><time>2026-03-24T09:33:30.665Z</time></trkpt><trkpt lat="45.6266848" lon="11.0866368"><ele>1163.6666666666665</ele><time>2026-03-24T09:33:31.673Z</time></trkpt><trkpt lat="45.6265791" lon="11.0864469"><ele>1162.0</ele><time>2026-03-24T09:33:32.664Z</time></trkpt><trkpt lat="45.6265013" lon="11.0862646"><ele>1162.0</ele><time>2026-03-24T09:33:33.666Z</time></trkpt><trkpt lat="45.6264093" lon="11.0860943"><ele>1162.0</ele><time>2026-03-24T09:33:34.67Z</time></trkpt><trkpt lat="45.6263188" lon="11.0859311"><ele>1162.0</ele><time>2026-03-24T09:33:35.667Z</time></trkpt><trkpt lat="45.6262627" lon="11.0857478"><ele>1162.0</ele><time>2026-03-24T09:33:36.658Z</time></trkpt><trkpt lat="45.6262263" lon="11.0855362"><ele>1164.6666666666665</ele><time>2026-03-24T09:33:37.667Z</time></trkpt><trkpt lat="45.6262197" lon="11.0853097"><ele>1167.3333333333333</ele><time>2026-03-24T09:33:38.667Z</time></trkpt><trkpt lat="45.6262063" lon="11.0850855"><ele>1170.0</ele><time>2026-03-24T09:33:39.664Z</time></trkpt><trkpt lat="45.6261997" lon="11.0848767"><ele>1171.0</ele><time>2026-03-24T09:33:40.665Z</time></trkpt><trkpt lat="45.6261887" lon="11.0846382"><ele>1172.0</ele><time>2026-03-24T09:33:41.668Z</time></trkpt><trkpt lat="45.6261753" lon="11.0843947"><ele>1173.0</ele><time>2026-03-24T09:33:42.674Z</time></trkpt><trkpt lat="45.62615" lon="11.0841489"><ele>1166.0</ele><time>2026-03-24T09:33:43.678Z</time></trkpt><trkpt lat="45.6261227" lon="11.0838976"><ele>1159.0</ele><time>2026-03-24T09:33:44.676Z</time></trkpt><trkpt lat="45.6260998" lon="11.0836607"><ele>1152.0</ele><time>2026-03-24T09:33:45.667Z</time></trkpt><trkpt lat="45.626082" lon="11.0834285"><ele>1136.0</ele><time>2026-03-24T09:33:46.673Z</time></trkpt><trkpt lat="45.6259272" lon="11.0816029"><ele>1121.0</ele><time>2026-03-24T09:33:53.663Z</time></trkpt><trkpt lat="45.6256574" lon="11.0768045"><ele>1096.0</ele><time>2026-03-24T09:34:14.663Z</time></trkpt><trkpt lat="45.6265023" lon="11.0730973"><ele>1088.0</ele><time>2026-03-24T09:34:35.673Z</time></trkpt><trkpt lat="45.6298029" lon="11.0716072"><ele>1039.0</ele><time>2026-03-24T09:35:05.666Z</time></trkpt><trkpt lat="45.6323317" lon="11.0697299"><ele>1061.0</ele><time>2026-03-24T09:35:25.655Z</time></trkpt><trkpt lat="45.635338" lon="11.0675012"><ele>1015.0</ele><time>2026-03-24T09:35:53.659Z</time></trkpt><trkpt lat="45.6364444" lon="11.0639248"><ele>984.0</ele><time>2026-03-24T09:36:24.659Z</time></trkpt><trkpt lat="45.6380641" lon="11.0607433"><ele>1005.0</ele><time>2026-03-24T09:36:43.648Z</time></trkpt><trkpt lat="45.6408313" lon="11.0599836"><ele>1003.0</ele><time>2026-03-24T09:37:02.658Z</time></trkpt><trkpt lat="45.637996" lon="11.0592468"><ele>976.0</ele><time>2026-03-24T09:37:29.652Z</time></trkpt><trkpt lat="45.6347275" lon="11.0609016"><ele>1033.0</ele><time>2026-03-24T09:37:53.662Z</time></trkpt><trkpt lat="45.6323146" lon="11.0627813"><ele>1056.0</ele><time>2026-03-24T09:38:20.667Z</time></trkpt><trkpt lat="45.6297832" lon="11.061348"><ele>1048.0</ele><time>2026-03-24T09:38:41.662Z</time></trkpt><trkpt lat="45.6277396" lon="11.0608781"><ele>1072.0</ele><time>2026-03-24T09:39:03.665Z</time></trkpt><trkpt lat="45.626258" lon="11.0576465"><ele>1085.0</ele><time>2026-03-24T09:39:31.657Z</time></trkpt><trkpt lat="45.625656" lon="11.0538352"><ele>1070.0</ele><time>2026-03-24T09:40:10.662Z</time></trkpt><trkpt lat="45.6268154" lon="11.0503094"><ele>1086.0</ele><time>2026-03-24T09:41:00.676Z</time></trkpt><trkpt lat="45.62703" lon="11.0474086"><ele>1029.0</ele><time>2026-03-24T09:41:31.68Z</time></trkpt><trkpt lat="45.6284358" lon="11.0440071"><ele>1064.0</ele><time>2026-03-24T09:42:10.664Z</time></trkpt><trkpt lat="45.6298508" lon="11.0441681"><ele>1100.0</ele><time>2026-03-24T09:42:23.663Z</time></trkpt><trkpt lat="45.6288742" lon="11.0415184"><ele>1081.0</ele><time>2026-03-24T09:42:46.658Z</time></trkpt><trkpt lat="45.6262402" lon="11.0400445"><ele>1063.0</ele><time>2026-03-24T09:43:09.659Z</time></trkpt><trkpt lat="45.6244465" lon="11.0370896"><ele>1130.0</ele><time>2026-03-24T09:43:43.667Z</time></trkpt><trkpt lat="45.625737" lon="11.0346808"><ele>1106.0</ele><time>2026-03-24T09:45:01.632Z</time></trkpt><trkpt lat="45.6237775" lon="11.0320216"><ele>1108.0</ele><time>2026-03-24T09:45:54.632Z</time></trkpt><trkpt lat="45.6220235" lon="11.0305323"><ele>1102.0</ele><time>2026-03-24T09:46:35.645Z</time></trkpt><trkpt lat="45.6226061" lon="11.0287949"><ele>1088.0</ele><time>2026-03-24T10:06:14.645Z</time></trkpt><trkpt lat="45.6215606" lon="11.0274918"><ele>1079.0</ele><time>2026-03-24T10:06:45.635Z</time></trkpt><trkpt lat="45.6203371" lon="11.0297978"><ele>1108.0</ele><time>2026-03-24T10:07:25.629Z</time></trkpt><trkpt lat="45.6222849" lon="11.0306128"><ele>1106.0</ele><time>2026-03-24T10:08:37.651Z</time></trkpt><trkpt lat="45.6240323" lon="11.0321342"><ele>1126.0</ele><time>2026-03-24T10:09:05.645Z</time></trkpt><trkpt lat="45.6259389" lon="11.0334257"><ele>1110.0</ele><time>2026-03-24T10:09:27.635Z</time></trkpt><trkpt lat="45.6277831" lon="11.0320249"><ele>1122.0</ele><time>2026-03-24T10:09:46.628Z</time></trkpt><trkpt lat="45.6298666" lon="11.0316944"><ele>1112.0</ele><time>2026-03-24T10:10:13.641Z</time></trkpt><trkpt lat="45.6314215" lon="11.0298229"><ele>1112.0</ele><time>2026-03-24T10:10:33.64Z</time></trkpt><trkpt lat="45.6333817" lon="11.0309232"><ele>1123.0</ele><time>2026-03-24T10:10:49.642Z</time></trkpt><trkpt lat="45.6347202" lon="11.0331372"><ele>1143.0</ele><time>2026-03-24T10:11:14.635Z</time></trkpt><trkpt lat="45.6371534" lon="11.0313973"><ele>1152.0</ele><time>2026-03-24T10:11:50.647Z</time></trkpt><trkpt lat="45.64047" lon="11.0304752"><ele>1101.0</ele><time>2026-03-24T10:12:22.651Z</time></trkpt><trkpt lat="45.6414037" lon="11.0268134"><ele>1098.0</ele><time>2026-03-24T10:12:39.651Z</time></trkpt><trkpt lat="45.6438163" lon="11.0249041"><ele>1075.0</ele><time>2026-03-24T10:12:57.652Z</time></trkpt><trkpt lat="45.6452188" lon="11.0214374"><ele>1066.0</ele><time>2026-03-24T10:13:29.633Z</time></trkpt><trkpt lat="45.6474245" lon="11.0190821"><ele>1068.0</ele><time>2026-03-24T10:13:58.643Z</time></trkpt><trkpt lat="45.6497535" lon="11.0168864"><ele>1025.0</ele><time>2026-03-24T10:14:21.645Z</time></trkpt><trkpt lat="45.651789" lon="11.0174326"><ele>1069.0</ele><time>2026-03-24T10:14:39.628Z</time></trkpt><trkpt lat="45.6538807" lon="11.0199016"><ele>1037.0</ele><time>2026-03-24T10:15:01.627Z</time></trkpt><trkpt lat="45.6553882" lon="11.0177271"><ele>1064.0</ele><time>2026-03-24T10:15:21.629Z</time></trkpt><trkpt lat="45.6533057" lon="11.0152028"><ele>1069.0</ele><time>2026-03-24T10:16:13.624Z</time></trkpt><trkpt lat="45.651813" lon="11.0119954"><ele>1076.0</ele><time>2026-03-24T10:16:38.628Z</time></trkpt><trkpt lat="45.6507194" lon="11.0095222"><ele>1115.0</ele><time>2026-03-24T10:16:56.634Z</time></trkpt><trkpt lat="45.6500439" lon="11.0057146"><ele>1112.0</ele><time>2026-03-24T10:17:30.646Z</time></trkpt><trkpt lat="45.648107" lon="11.0045939"><ele>1135.0</ele><time>2026-03-24T10:17:47.647Z</time></trkpt><trkpt lat="45.6462092" lon="11.0033304"><ele>1113.0</ele><time>2026-03-24T10:18:09.646Z</time></trkpt><trkpt lat="45.6439135" lon="11.0011781"><ele>1118.0</ele><time>2026-03-24T10:18:43.651Z</time></trkpt><trkpt lat="45.6435427" lon="10.9983001"><ele>1118.0</ele><time>2026-03-24T10:19:08.661Z</time></trkpt><trkpt lat="45.6456806" lon="10.9983257"><ele>1125.0</ele><time>2026-03-24T10:19:30.668Z</time></trkpt><trkpt lat="45.6478119" lon="10.9956725"><ele>1106.0</ele><time>2026-03-24T10:19:58.657Z</time></trkpt><trkpt lat="45.6491983" lon="10.9923147"><ele>1113.0</ele><time>2026-03-24T10:20:31.662Z</time></trkpt><trkpt lat="45.6501781" lon="10.9886605"><ele>1088.0</ele><time>2026-03-24T10:21:00.656Z</time></trkpt><trkpt lat="45.6497916" lon="10.9848142"><ele>1081.0</ele><time>2026-03-24T10:21:33.65Z</time></trkpt><trkpt lat="45.6521854" lon="10.9829974"><ele>1037.0</ele><time>2026-03-24T10:22:07.63Z</time></trkpt><trkpt lat="45.6545322" lon="10.9808258"><ele>1036.0</ele><time>2026-03-24T10:22:33.639Z</time></trkpt><trkpt lat="45.6571284" lon="10.9823096"><ele>1057.0</ele><time>2026-03-24T10:22:52.64Z</time></trkpt><trkpt lat="45.6562044" lon="10.9785849"><ele>1045.0</ele><time>2026-03-24T10:23:28.636Z</time></trkpt><trkpt lat="45.6553455" lon="10.9738693"><ele>1048.0</ele><time>2026-03-24T10:24:03.643Z</time></trkpt><trkpt lat="45.6545188" lon="10.9690495"><ele>1034.0</ele><time>2026-03-24T10:24:40.643Z</time></trkpt><trkpt lat="45.6517489" lon="10.9692319"><ele>1025.0</ele><time>2026-03-24T10:24:57.65Z</time></trkpt><trkpt lat="45.6491609" lon="10.9676365"><ele>1027.0</ele><time>2026-03-24T10:25:19.668Z</time></trkpt><trkpt lat="45.6468545" lon="10.9639655"><ele>1012.0</ele><time>2026-03-24T10:25:46.662Z</time></trkpt><trkpt lat="45.6441423" lon="10.9646783"><ele>966.0</ele><time>2026-03-24T10:26:09.66Z</time></trkpt><trkpt lat="45.6406301" lon="10.9641355"><ele>922.0</ele><time>2026-03-24T10:26:28.66Z</time></trkpt><trkpt lat="45.6405581" lon="10.9593037"><ele>920.0</ele><time>2026-03-24T10:28:01.642Z</time></trkpt><trkpt lat="45.6419649" lon="10.9560146"><ele>894.0</ele><time>2026-03-24T10:28:30.642Z</time></trkpt><trkpt lat="45.6436669" lon="10.9541973"><ele>878.0</ele><time>2026-03-24T10:28:49.642Z</time></trkpt><trkpt lat="45.6463981" lon="10.9541526"><ele>856.0</ele><time>2026-03-24T10:29:05.642Z</time></trkpt><trkpt lat="45.6446583" lon="10.9500077"><ele>879.0</ele><time>2026-03-24T10:29:40.654Z</time></trkpt><trkpt lat="45.6453454" lon="10.9462179"><ele>905.0</ele><time>2026-03-24T10:30:28.657Z</time></trkpt><trkpt lat="45.6444232" lon="10.9424562"><ele>921.0</ele><time>2026-03-24T10:30:46.656Z</time></trkpt><trkpt lat="45.6457284" lon="10.9389746"><ele>939.0</ele><time>2026-03-24T10:31:08.665Z</time></trkpt><trkpt lat="45.6436467" lon="10.9364498"><ele>937.0</ele><time>2026-03-24T10:32:12.651Z</time></trkpt><trkpt lat="45.6441249" lon="10.93461"><ele>934.0</ele><time>2026-03-24T10:32:30.664Z</time></trkpt><trkpt lat="45.6454142" lon="10.931201"><ele>979.0</ele><time>2026-03-24T10:32:53.67Z</time></trkpt><trkpt lat="45.6439601" lon="10.9278193"><ele>969.0</ele><time>2026-03-24T10:33:09.663Z</time></trkpt><trkpt lat="45.641072" lon="10.9248272"><ele>958.0</ele><time>2026-03-24T10:33:38.65Z</time></trkpt><trkpt lat="45.6385836" lon="10.9228962"><ele>939.0</ele><time>2026-03-24T10:33:52.663Z</time></trkpt><trkpt lat="45.6346493" lon="10.9214083"><ele>912.0</ele><time>2026-03-24T10:34:14.659Z</time></trkpt><trkpt lat="45.6318632" lon="10.9182341"><ele>897.0</ele><time>2026-03-24T10:34:33.653Z</time></trkpt><trkpt lat="45.629342" lon="10.9135492"><ele>870.0</ele><time>2026-03-24T10:34:57.661Z</time></trkpt><trkpt lat="45.6262944" lon="10.9111904"><ele>853.0</ele><time>2026-03-24T10:35:19.66Z</time></trkpt><trkpt lat="45.6231543" lon="10.9090543"><ele>839.0</ele><time>2026-03-24T10:35:42.649Z</time></trkpt><trkpt lat="45.6225355" lon="10.9041213"><ele>849.0</ele><time>2026-03-24T10:36:04.662Z</time></trkpt><trkpt lat="45.6212729" lon="10.8994863"><ele>856.0</ele><time>2026-03-24T10:36:24.654Z</time></trkpt><trkpt lat="45.6186544" lon="10.8964127"><ele>896.0</ele><time>2026-03-24T10:36:46.657Z</time></trkpt><trkpt lat="45.6159768" lon="10.8957378"><ele>900.0</ele><time>2026-03-24T10:37:07.645Z</time></trkpt><trkpt lat="45.6142453" lon="10.8926614"><ele>892.0</ele><time>2026-03-24T10:37:27.667Z</time></trkpt><trkpt lat="45.6118247" lon="10.8891239"><ele>854.0</ele><time>2026-03-24T10:37:49.665Z</time></trkpt><trkpt lat="45.6090539" lon="10.8887543"><ele>845.0</ele><time>2026-03-24T10:38:05.666Z</time></trkpt><trkpt lat="45.605713" lon="10.887954"><ele>832.0</ele><time>2026-03-24T10:38:25.658Z</time></trkpt><trkpt lat="45.6029338" lon="10.8883659"><ele>801.0</ele><time>2026-03-24T10:38:43.666Z</time></trkpt><trkpt lat="45.5996745" lon="10.8897963"><ele>789.0</ele><time>2026-03-24T10:39:02.667Z</time></trkpt><trkpt lat="45.5962626" lon="10.8902534"><ele>784.0</ele><time>2026-03-24T10:39:21.665Z</time></trkpt><trkpt lat="45.5930786" lon="10.8885989"><ele>816.0</ele><time>2026-03-24T10:39:55.666Z</time></trkpt><trkpt lat="45.5911772" lon="10.8845883"><ele>766.0</ele><time>2026-03-24T10:40:28.655Z</time></trkpt><trkpt lat="45.589131" lon="10.8853113"><ele>745.0</ele><time>2026-03-24T10:40:43.673Z</time></trkpt><trkpt lat="45.5856403" lon="10.8851927"><ele>719.0</ele><time>2026-03-24T10:41:05.668Z</time></trkpt><trkpt lat="45.5829427" lon="10.8840309"><ele>706.0</ele><time>2026-03-24T10:41:29.677Z</time></trkpt><trkpt lat="45.5813089" lon="10.8797332"><ele>702.0</ele><time>2026-03-24T10:41:51.679Z</time></trkpt><trkpt lat="45.5809056" lon="10.8757344"><ele>655.0</ele><time>2026-03-24T10:42:19.667Z</time></trkpt><trkpt lat="45.5777807" lon="10.8735749"><ele>640.0</ele><time>2026-03-24T10:42:41.653Z</time></trkpt><trkpt lat="45.575087" lon="10.8727717"><ele>661.0</ele><time>2026-03-24T10:43:03.654Z</time></trkpt><trkpt lat="45.5729696" lon="10.8703479"><ele>633.0</ele><time>2026-03-24T10:43:25.634Z</time></trkpt><trkpt lat="45.5715683" lon="10.8708643"><ele>600.0</ele><time>2026-03-24T10:44:07.646Z</time></trkpt><trkpt lat="45.5697389" lon="10.8738027"><ele>596.0</ele><time>2026-03-24T10:44:44.665Z</time></trkpt><trkpt lat="45.5677602" lon="10.8745346"><ele>544.0</ele><time>2026-03-24T10:44:58.677Z</time></trkpt><trkpt lat="45.5669379" lon="10.8698176"><ele>513.0</ele><time>2026-03-24T10:45:43.672Z</time></trkpt><trkpt lat="45.5642697" lon="10.8687177"><ele>487.0</ele><time>2026-03-24T10:46:07.663Z</time></trkpt><trkpt lat="45.5611855" lon="10.8664452"><ele>473.0</ele><time>2026-03-24T10:46:37.656Z</time></trkpt><trkpt lat="45.5577069" lon="10.865838"><ele>443.0</ele><time>2026-03-24T10:47:03.643Z</time></trkpt><trkpt lat="45.5542858" lon="10.8661921"><ele>452.0</ele><time>2026-03-24T10:47:29.646Z</time></trkpt><trkpt lat="45.5509034" lon="10.8658873"><ele>449.0</ele><time>2026-03-24T10:47:53.658Z</time></trkpt><trkpt lat="45.5482017" lon="10.8664597"><ele>429.0</ele><time>2026-03-24T10:48:11.662Z</time></trkpt><trkpt lat="45.5454188" lon="10.866048"><ele>389.0</ele><time>2026-03-24T10:48:32.669Z</time></trkpt><trkpt lat="45.5469946" lon="10.8692046"><ele>363.0</ele><time>2026-03-24T10:49:34.642Z</time></trkpt><trkpt lat="45.5456545" lon="10.8694562"><ele>339.0</ele><time>2026-03-24T10:49:47.658Z</time></trkpt><trkpt lat="45.5428504" lon="10.8697892"><ele>258.0</ele><time>2026-03-24T10:50:11.661Z</time></trkpt><trkpt lat="45.5406865" lon="10.8722212"><ele>215.0</ele><time>2026-03-24T10:51:40.665Z</time></trkpt><trkpt lat="45.5407611" lon="10.87614"><ele>186.0</ele><time>2026-03-24T10:52:50.656Z</time></trkpt><trkpt lat="45.5387211" lon="10.8786915"><ele>171.0</ele><time>2026-03-24T10:53:22.659Z</time></trkpt><trkpt lat="45.5359701" lon="10.8785924"><ele>163.0</ele><time>2026-03-24T10:53:48.652Z</time></trkpt><trkpt lat="45.5342269" lon="10.8801636"><ele>162.0</ele><time>2026-03-24T10:54:15.665Z</time></trkpt><trkpt lat="45.5336663" lon="10.8829382"><ele>156.0</ele><time>2026-03-24T10:54:28.671Z</time></trkpt><trkpt lat="45.5302195" lon="10.8820907"><ele>148.0</ele><time>2026-03-24T10:55:04.663Z</time></trkpt><trkpt lat="45.5270574" lon="10.880079"><ele>145.0</ele><time>2026-03-24T10:55:20.67Z</time></trkpt><trkpt lat="45.5233857" lon="10.8774678"><ele>143.0</ele><time>2026-03-24T10:55:42.669Z</time></trkpt><trkpt lat="45.5217302" lon="10.8757343"><ele>136.0</ele><time>2026-03-24T10:55:57.671Z</time></trkpt><trkpt lat="45.519279" lon="10.87226"><ele>137.0</ele><time>2026-03-24T10:58:43.663Z</time></trkpt><trkpt lat="45.5171017" lon="10.8696279"><ele>134.0</ele><time>2026-03-24T10:58:59.663Z</time></trkpt><trkpt lat="45.5131265" lon="10.8675917"><ele>127.0</ele><time>2026-03-24T10:59:18.679Z</time></trkpt><trkpt lat="45.5091188" lon="10.8660308"><ele>114.0</ele><time>2026-03-24T10:59:36.67Z</time></trkpt><trkpt lat="45.5053425" lon="10.8633192"><ele>108.0</ele><time>2026-03-24T10:59:56.671Z</time></trkpt><trkpt lat="45.5013503" lon="10.8621317"><ele>108.0</ele><time>2026-03-24T11:00:16.643Z</time></trkpt><trkpt lat="45.4980475" lon="10.8610878"><ele>105.0</ele><time>2026-03-24T11:00:35.657Z</time></trkpt><trkpt lat="45.4951954" lon="10.8581884"><ele>93.0</ele><time>2026-03-24T11:00:53.66Z</time></trkpt><trkpt lat="45.4911115" lon="10.8582749"><ele>80.0</ele><time>2026-03-24T11:01:12.67Z</time></trkpt><trkpt lat="45.4869146" lon="10.8585977"><ele>78.0</ele><time>2026-03-24T11:01:31.662Z</time></trkpt><trkpt lat="45.4826575" lon="10.8589567"><ele>77.0</ele><time>2026-03-24T11:01:50.662Z</time></trkpt><trkpt lat="45.478466" lon="10.8595474"><ele>88.0</ele><time>2026-03-24T11:02:10.656Z</time></trkpt><trkpt lat="45.4746183" lon="10.8617387"><ele>92.0</ele><time>2026-03-24T11:02:29.655Z</time></trkpt><trkpt lat="45.4706918" lon="10.8639488"><ele>110.0</ele><time>2026-03-24T11:02:48.654Z</time></trkpt><trkpt lat="45.4668144" lon="10.8660424"><ele>114.0</ele><time>2026-03-24T11:03:07.654Z</time></trkpt><trkpt lat="45.4628871" lon="10.8682982"><ele>109.0</ele><time>2026-03-24T11:03:26.653Z</time></trkpt><trkpt lat="45.4596292" lon="10.8719127"><ele>99.0</ele><time>2026-03-24T11:03:45.658Z</time></trkpt><trkpt lat="45.4571592" lon="10.8768816"><ele>102.0</ele><time>2026-03-24T11:04:04.666Z</time></trkpt><trkpt lat="45.4542912" lon="10.8812268"><ele>100.0</ele><time>2026-03-24T11:04:22.654Z</time></trkpt><trkpt lat="45.4514844" lon="10.8853857"><ele>98.0</ele><time>2026-03-24T11:04:40.655Z</time></trkpt><trkpt lat="45.4481112" lon="10.8889325"><ele>93.0</ele><time>2026-03-24T11:04:59.65Z</time></trkpt><trkpt lat="45.4447692" lon="10.8922933"><ele>91.0</ele><time>2026-03-24T11:05:17.642Z</time></trkpt><trkpt lat="45.441521" lon="10.895844"><ele>91.0</ele><time>2026-03-24T11:05:37.653Z</time></trkpt><trkpt lat="45.4386837" lon="10.900006"><ele>89.0</ele><time>2026-03-24T11:05:57.652Z</time></trkpt><trkpt lat="45.4358463" lon="10.9042815"><ele>87.0</ele><time>2026-03-24T11:06:16.657Z</time></trkpt><trkpt lat="45.4329566" lon="10.9084559"><ele>87.0</ele><time>2026-03-24T11:06:47.649Z</time></trkpt><trkpt lat="45.4315306" lon="10.9105518"><ele>83.0</ele><time>2026-03-24T11:07:06.647Z</time></trkpt><trkpt lat="45.4302093" lon="10.9082697"><ele>83.0</ele><time>2026-03-24T11:07:24.656Z</time></trkpt><trkpt lat="45.4275013" lon="10.9092804"><ele>79.0</ele><time>2026-03-24T11:08:11.654Z</time></trkpt><trkpt lat="45.4242123" lon="10.9108439"><ele>73.0</ele><time>2026-03-24T11:08:28.667Z</time></trkpt><trkpt lat="45.4202901" lon="10.9126932"><ele>72.0</ele><time>2026-03-24T11:08:46.658Z</time></trkpt><trkpt lat="45.4163705" lon="10.9142051"><ele>74.0</ele><time>2026-03-24T11:09:04.657Z</time></trkpt><trkpt lat="45.4121967" lon="10.9137027"><ele>72.0</ele><time>2026-03-24T11:09:25.663Z</time></trkpt><trkpt lat="45.4091619" lon="10.9113402"><ele>72.0</ele><time>2026-03-24T11:09:46.659Z</time></trkpt><trkpt lat="45.4099133" lon="10.9063721"><ele>75.0</ele><time>2026-03-24T11:10:05.665Z</time></trkpt><trkpt lat="45.4117263" lon="10.8999304"><ele>78.0</ele><time>2026-03-24T11:10:23.668Z</time></trkpt><trkpt lat="45.4130555" lon="10.8934523"><ele>80.0</ele><time>2026-03-24T11:10:39.665Z</time></trkpt><trkpt lat="45.4135698" lon="10.8857783"><ele>81.0</ele><time>2026-03-24T11:10:57.667Z</time></trkpt><trkpt lat="45.4140546" lon="10.8780426"><ele>83.0</ele><time>2026-03-24T11:11:15.66Z</time></trkpt><trkpt lat="45.4144855" lon="10.8703149"><ele>83.0</ele><time>2026-03-24T11:11:32.663Z</time></trkpt><trkpt lat="45.4149628" lon="10.8626431"><ele>89.0</ele><time>2026-03-24T11:11:49.662Z</time></trkpt><trkpt lat="45.4159254" lon="10.8550728"><ele>101.0</ele><time>2026-03-24T11:12:06.664Z</time></trkpt><trkpt lat="45.4172663" lon="10.8472014"><ele>115.0</ele><time>2026-03-24T11:12:24.659Z</time></trkpt><trkpt lat="45.4179743" lon="10.8395288"><ele>105.0</ele><time>2026-03-24T11:12:42.661Z</time></trkpt><trkpt lat="45.4176421" lon="10.8315774"><ele>108.0</ele><time>2026-03-24T11:13:02.659Z</time></trkpt><trkpt lat="45.4170531" lon="10.8239128"><ele>121.0</ele><time>2026-03-24T11:13:20.658Z</time></trkpt><trkpt lat="45.4165097" lon="10.8162022"><ele>115.0</ele><time>2026-03-24T11:13:38.662Z</time></trkpt><trkpt lat="45.4164743" lon="10.8082016"><ele>115.0</ele><time>2026-03-24T11:13:57.662Z</time></trkpt><trkpt lat="45.4173362" lon="10.8004411"><ele>125.0</ele><time>2026-03-24T11:14:14.668Z</time></trkpt><trkpt lat="45.4184298" lon="10.7925337"><ele>124.0</ele><time>2026-03-24T11:14:32.667Z</time></trkpt><trkpt lat="45.4202938" lon="10.7849766"><ele>125.0</ele><time>2026-03-24T11:14:50.663Z</time></trkpt><trkpt lat="45.4229054" lon="10.7778974"><ele>103.0</ele><time>2026-03-24T11:15:08.66Z</time></trkpt><trkpt lat="45.4252014" lon="10.7706556"><ele>103.0</ele><time>2026-03-24T11:15:26.673Z</time></trkpt><trkpt lat="45.4260969" lon="10.7626838"><ele>100.0</ele><time>2026-03-24T11:15:44.665Z</time></trkpt><trkpt lat="45.4268836" lon="10.7549632"><ele>97.0</ele><time>2026-03-24T11:16:01.666Z</time></trkpt><trkpt lat="45.4276731" lon="10.746987"><ele>96.0</ele><time>2026-03-24T11:16:19.666Z</time></trkpt><trkpt lat="45.428486" lon="10.7390663"><ele>103.0</ele><time>2026-03-24T11:16:37.663Z</time></trkpt><trkpt lat="45.4292828" lon="10.7311889"><ele>105.0</ele><time>2026-03-24T11:16:55.662Z</time></trkpt><trkpt lat="45.4295132" lon="10.7233001"><ele>99.0</ele><time>2026-03-24T11:17:13.66Z</time></trkpt><trkpt lat="45.4294477" lon="10.71561"><ele>85.0</ele><time>2026-03-24T11:17:30.67Z</time></trkpt><trkpt lat="45.4294008" lon="10.7078218"><ele>68.0</ele><time>2026-03-24T11:17:47.667Z</time></trkpt><trkpt lat="45.4293651" lon="10.7000051"><ele>83.0</ele><time>2026-03-24T11:18:05.663Z</time></trkpt><trkpt lat="45.429283" lon="10.6929196"><ele>88.0</ele><time>2026-03-24T11:18:22.664Z</time></trkpt><trkpt lat="45.4294817" lon="10.6851986"><ele>83.0</ele><time>2026-03-24T11:18:40.656Z</time></trkpt><trkpt lat="45.4299945" lon="10.6772919"><ele>85.0</ele><time>2026-03-24T11:18:58.67Z</time></trkpt><trkpt lat="45.4304914" lon="10.6693599"><ele>76.0</ele><time>2026-03-24T11:19:16.666Z</time></trkpt><trkpt lat="45.4310073" lon="10.6615777"><ele>76.0</ele><time>2026-03-24T11:19:33.666Z</time></trkpt><trkpt lat="45.4315393" lon="10.6539373"><ele>75.0</ele><time>2026-03-24T11:19:51.675Z</time></trkpt><trkpt lat="45.4320102" lon="10.6470616"><ele>75.0</ele><time>2026-03-24T11:20:07.666Z</time></trkpt><trkpt lat="45.432513" lon="10.6391431"><ele>75.0</ele><time>2026-03-24T11:20:25.664Z</time></trkpt><trkpt lat="45.4328732" lon="10.6313262"><ele>78.0</ele><time>2026-03-24T11:20:43.663Z</time></trkpt><trkpt lat="45.4332419" lon="10.6234425"><ele>83.0</ele><time>2026-03-24T11:21:01.668Z</time></trkpt><trkpt lat="45.4336238" lon="10.6154797"><ele>83.0</ele><time>2026-03-24T11:21:20.667Z</time></trkpt><trkpt lat="45.4339651" lon="10.6085589"><ele>85.0</ele><time>2026-03-24T11:21:37.661Z</time></trkpt><trkpt lat="45.434449" lon="10.6006184"><ele>83.0</ele><time>2026-03-24T11:21:56.663Z</time></trkpt><trkpt lat="45.4356492" lon="10.5930075"><ele>83.0</ele><time>2026-03-24T11:22:14.671Z</time></trkpt><trkpt lat="45.4368612" lon="10.5864486"><ele>87.0</ele><time>2026-03-24T11:22:30.663Z</time></trkpt><trkpt lat="45.4382781" lon="10.578827"><ele>90.0</ele><time>2026-03-24T11:22:49.666Z</time></trkpt><trkpt lat="45.4396874" lon="10.5711578"><ele>87.0</ele><time>2026-03-24T11:23:08.665Z</time></trkpt><trkpt lat="45.4409102" lon="10.5643586"><ele>86.0</ele><time>2026-03-24T11:23:25.663Z</time></trkpt><trkpt lat="45.4422022" lon="10.5575835"><ele>89.0</ele><time>2026-03-24T11:23:42.668Z</time></trkpt><trkpt lat="45.4434634" lon="10.5506923"><ele>103.0</ele><time>2026-03-24T11:23:59.665Z</time></trkpt><trkpt lat="45.4448764" lon="10.5428764"><ele>113.0</ele><time>2026-03-24T11:24:19.661Z</time></trkpt><trkpt lat="45.4462994" lon="10.5362376"><ele>114.0</ele><time>2026-03-24T11:24:36.666Z</time></trkpt><trkpt lat="45.4482085" lon="10.5296822"><ele>134.0</ele><time>2026-03-24T11:24:54.67Z</time></trkpt><trkpt lat="45.4494576" lon="10.5229061"><ele>134.0</ele><time>2026-03-24T11:25:12.66Z</time></trkpt><trkpt lat="45.4500963" lon="10.5162503"><ele>161.0</ele><time>2026-03-24T11:25:29.667Z</time></trkpt><trkpt lat="45.4507508" lon="10.5093294"><ele>180.0</ele><time>2026-03-24T11:25:46.663Z</time></trkpt><trkpt lat="45.4514009" lon="10.5022845"><ele>178.0</ele><time>2026-03-24T11:26:03.667Z</time></trkpt><trkpt lat="45.452273" lon="10.494621"><ele>164.0</ele><time>2026-03-24T11:26:21.66Z</time></trkpt><trkpt lat="45.4531876" lon="10.4866234"><ele>149.0</ele><time>2026-03-24T11:26:39.655Z</time></trkpt><trkpt lat="45.4537678" lon="10.47861"><ele>145.0</ele><time>2026-03-24T11:26:57.658Z</time></trkpt><trkpt lat="45.4543606" lon="10.4708043"><ele>141.0</ele><time>2026-03-24T11:27:15.656Z</time></trkpt><trkpt lat="45.4561182" lon="10.4631981"><ele>142.0</ele><time>2026-03-24T11:27:33.659Z</time></trkpt><trkpt lat="45.4580463" lon="10.455616"><ele>134.0</ele><time>2026-03-24T11:27:51.667Z</time></trkpt><trkpt lat="45.4597197" lon="10.4479945"><ele>132.0</ele><time>2026-03-24T11:28:09.663Z</time></trkpt><trkpt lat="45.4613137" lon="10.4403405"><ele>133.0</ele><time>2026-03-24T11:28:27.653Z</time></trkpt><trkpt lat="45.4628388" lon="10.4329037"><ele>130.0</ele><time>2026-03-24T11:28:44.666Z</time></trkpt><trkpt lat="45.4637029" lon="10.4250901"><ele>149.0</ele><time>2026-03-24T11:29:01.651Z</time></trkpt><trkpt lat="45.4642977" lon="10.4174032"><ele>131.0</ele><time>2026-03-24T11:29:18.656Z</time></trkpt><trkpt lat="45.4649854" lon="10.4094201"><ele>130.0</ele><time>2026-03-24T11:29:36.661Z</time></trkpt><trkpt lat="45.4656296" lon="10.4016049"><ele>129.0</ele><time>2026-03-24T11:29:53.671Z</time></trkpt><trkpt lat="45.466852" lon="10.3930921"><ele>133.0</ele><time>2026-03-24T11:30:13.672Z</time></trkpt><trkpt lat="45.4679713" lon="10.3865605"><ele>136.0</ele><time>2026-03-24T11:30:29.673Z</time></trkpt><trkpt lat="45.4695071" lon="10.3791043"><ele>135.0</ele><time>2026-03-24T11:30:46.66Z</time></trkpt><trkpt lat="45.4712584" lon="10.3713867"><ele>134.0</ele><time>2026-03-24T11:31:04.673Z</time></trkpt><trkpt lat="45.4730073" lon="10.3638148"><ele>138.0</ele><time>2026-03-24T11:31:22.669Z</time></trkpt><trkpt lat="45.4746819" lon="10.3563873"><ele>137.0</ele><time>2026-03-24T11:31:40.664Z</time></trkpt><trkpt lat="45.4763898" lon="10.3487512"><ele>136.0</ele><time>2026-03-24T11:31:58.668Z</time></trkpt><trkpt lat="45.478081" lon="10.3412233"><ele>137.0</ele><time>2026-03-24T11:32:16.659Z</time></trkpt><trkpt lat="45.4797678" lon="10.3335315"><ele>137.0</ele><time>2026-03-24T11:32:34.664Z</time></trkpt><trkpt lat="45.4815338" lon="10.3258066"><ele>137.0</ele><time>2026-03-24T11:32:52.673Z</time></trkpt><trkpt lat="45.4832425" lon="10.3184218"><ele>137.0</ele><time>2026-03-24T11:33:09.659Z</time></trkpt><trkpt lat="45.484942" lon="10.310953"><ele>132.0</ele><time>2026-03-24T11:33:26.668Z</time></trkpt><trkpt lat="45.4868658" lon="10.3034203"><ele>130.0</ele><time>2026-03-24T11:33:43.662Z</time></trkpt><trkpt lat="45.4887133" lon="10.2958586"><ele>128.0</ele><time>2026-03-24T11:34:00.671Z</time></trkpt><trkpt lat="45.4908009" lon="10.2883967"><ele>129.0</ele><time>2026-03-24T11:34:19.668Z</time></trkpt><trkpt lat="45.4930756" lon="10.2814137"><ele>129.0</ele><time>2026-03-24T11:34:37.66Z</time></trkpt><trkpt lat="45.4954428" lon="10.2741304"><ele>123.0</ele><time>2026-03-24T11:34:56.665Z</time></trkpt><trkpt lat="45.4972456" lon="10.2677273"><ele>120.0</ele><time>2026-03-24T11:35:15.652Z</time></trkpt><trkpt lat="45.4992372" lon="10.2604989"><ele>120.0</ele><time>2026-03-24T11:35:32.659Z</time></trkpt><trkpt lat="45.5012856" lon="10.2533413"><ele>119.0</ele><time>2026-03-24T11:35:49.663Z</time></trkpt><trkpt lat="45.5032152" lon="10.245924"><ele>118.0</ele><time>2026-03-24T11:36:12.658Z</time></trkpt><trkpt lat="45.5052596" lon="10.2408427"><ele>118.0</ele><time>2026-03-24T11:36:36.662Z</time></trkpt><trkpt lat="45.5084942" lon="10.2390923"><ele>116.0</ele><time>2026-03-24T11:36:57.658Z</time></trkpt><trkpt lat="45.5083059" lon="10.2340929"><ele>117.0</ele><time>2026-03-24T11:37:15.665Z</time></trkpt><trkpt lat="45.5094484" lon="10.2295506"><ele>119.0</ele><time>2026-03-24T11:37:47.663Z</time></trkpt><trkpt lat="45.5114737" lon="10.2298192"><ele>120.0</ele><time>2026-03-24T11:38:20.652Z</time></trkpt><trkpt lat="45.5141868" lon="10.2302573"><ele>117.0</ele><time>2026-03-24T11:38:45.661Z</time></trkpt><trkpt lat="45.5166853" lon="10.2335834"><ele>122.0</ele><time>2026-03-24T11:39:07.661Z</time></trkpt><trkpt lat="45.518734" lon="10.2343933"><ele>124.0</ele><time>2026-03-24T11:39:26.665Z</time></trkpt><trkpt lat="45.5214177" lon="10.2355169"><ele>127.0</ele><time>2026-03-24T11:39:49.658Z</time></trkpt><trkpt lat="45.5242392" lon="10.2327016"><ele>129.0</ele><time>2026-03-24T11:40:30.653Z</time></trkpt><trkpt lat="45.5262205" lon="10.2320751"><ele>133.0</ele><time>2026-03-24T11:41:13.66Z</time></trkpt><trkpt lat="45.5281149" lon="10.2331207"><ele>133.0</ele><time>2026-03-24T11:42:07.645Z</time></trkpt><trkpt lat="45.5301045" lon="10.2337795"><ele>132.0</ele><time>2026-03-24T11:42:31.646Z</time></trkpt><trkpt lat="45.5310105" lon="10.2352501"><ele>133.0</ele><time>2026-03-24T11:43:13.645Z</time></trkpt><trkpt lat="45.5308549" lon="10.2381385"><ele>133.0</ele><time>2026-03-24T11:43:51.651Z</time></trkpt><trkpt lat="45.5308907" lon="10.2391123"><ele>133.0</ele><time>2026-03-24T11:48:35.655Z</time></trkpt><trkpt lat="45.5322127" lon="10.2395678"><ele>133.0</ele><time>2026-03-24T11:48:51.646Z</time></trkpt></trkseg></trk></gpx>